<?xml version="1.0" encoding="UTF-8" standalone="no" ?>
<gpx xmlns="http://www.topografix.com/GPX/1/1" xmlns:xsi="http://www.w3.org/2001/XMLSchema-instance" xsi:schemaLocation="http://www.topografix.com/GPX/1/1 http://www.topografix.com/GPX/1/1/gpx.xsd" version="1.1" creator="VisuGPX - https://www.visugpx.com">
  <metadata>
    <name>AFT19 j2.2</name>
  </metadata>
  <trk>
    <name><![CDATA[AFT19 j2.2]]></name>
    <trkseg>
      <trkpt lat="43.95186" lon="6.36631">
        <ele>721.4140625</ele>
      </trkpt>
      <trkpt lat="43.95197" lon="6.36629">
        <ele>718.63</ele>
        <time>2018-06-19T12:43:27Z</time>
      </trkpt>
      <trkpt lat="43.95199" lon="6.36629">
        <ele>718.57</ele>
        <time>2018-06-19T12:43:28Z</time>
      </trkpt>
      <trkpt lat="43.95203" lon="6.3663">
        <ele>718.73</ele>
        <time>2018-06-19T12:43:29Z</time>
      </trkpt>
      <trkpt lat="43.95207" lon="6.36632">
        <ele>718.74</ele>
        <time>2018-06-19T12:43:30Z</time>
      </trkpt>
      <trkpt lat="43.95213" lon="6.36635">
        <ele>718.75</ele>
        <time>2018-06-19T12:43:31Z</time>
      </trkpt>
      <trkpt lat="43.95235" lon="6.36645">
        <ele>717.83</ele>
        <time>2018-06-19T12:43:34Z</time>
      </trkpt>
      <trkpt lat="43.95243" lon="6.36654">
        <ele>717.85</ele>
        <time>2018-06-19T12:43:35Z</time>
      </trkpt>
      <trkpt lat="43.9525" lon="6.36663">
        <ele>717.85</ele>
        <time>2018-06-19T12:43:36Z</time>
      </trkpt>
      <trkpt lat="43.95277" lon="6.36698">
        <ele>717.86</ele>
        <time>2018-06-19T12:43:40Z</time>
      </trkpt>
      <trkpt lat="43.95282" lon="6.36707">
        <ele>717.86</ele>
        <time>2018-06-19T12:43:41Z</time>
      </trkpt>
      <trkpt lat="43.95286" lon="6.36716">
        <ele>717.85</ele>
        <time>2018-06-19T12:43:42Z</time>
      </trkpt>
      <trkpt lat="43.9529" lon="6.36725">
        <ele>717.86</ele>
        <time>2018-06-19T12:43:43Z</time>
      </trkpt>
      <trkpt lat="43.95294" lon="6.36735">
        <ele>717.86</ele>
        <time>2018-06-19T12:43:44Z</time>
      </trkpt>
      <trkpt lat="43.95298" lon="6.36747">
        <ele>717.9</ele>
        <time>2018-06-19T12:43:45Z</time>
      </trkpt>
      <trkpt lat="43.95302" lon="6.36759">
        <ele>717.91</ele>
        <time>2018-06-19T12:43:46Z</time>
      </trkpt>
      <trkpt lat="43.9535" lon="6.36903">
        <ele>717.89</ele>
        <time>2018-06-19T12:43:57Z</time>
      </trkpt>
      <trkpt lat="43.9539" lon="6.37009">
        <ele>720.42</ele>
        <time>2018-06-19T12:44:05Z</time>
      </trkpt>
      <trkpt lat="43.9545" lon="6.37156">
        <ele>723.41</ele>
        <time>2018-06-19T12:44:14Z</time>
      </trkpt>
      <trkpt lat="43.95511" lon="6.37246">
        <ele>726.37</ele>
        <time>2018-06-19T12:44:20Z</time>
      </trkpt>
      <trkpt lat="43.95534" lon="6.37272">
        <ele>729.52</ele>
        <time>2018-06-19T12:44:22Z</time>
      </trkpt>
      <trkpt lat="43.95546" lon="6.37285">
        <ele>729.54</ele>
        <time>2018-06-19T12:44:23Z</time>
      </trkpt>
      <trkpt lat="43.95579" lon="6.37328">
        <ele>731.52</ele>
        <time>2018-06-19T12:44:26Z</time>
      </trkpt>
      <trkpt lat="43.95587" lon="6.37345">
        <ele>732.68</ele>
        <time>2018-06-19T12:44:27Z</time>
      </trkpt>
      <trkpt lat="43.95594" lon="6.37364">
        <ele>732.61</ele>
        <time>2018-06-19T12:44:28Z</time>
      </trkpt>
      <trkpt lat="43.95674" lon="6.37542">
        <ele>733.61</ele>
        <time>2018-06-19T12:44:37Z</time>
      </trkpt>
      <trkpt lat="43.95708" lon="6.37599">
        <ele>733.5</ele>
        <time>2018-06-19T12:44:40Z</time>
      </trkpt>
      <trkpt lat="43.95721" lon="6.37616">
        <ele>733.47</ele>
        <time>2018-06-19T12:44:41Z</time>
      </trkpt>
      <trkpt lat="43.95842" lon="6.3774">
        <ele>736.26</ele>
        <time>2018-06-19T12:44:49Z</time>
      </trkpt>
      <trkpt lat="43.95932" lon="6.37843">
        <ele>736.25</ele>
        <time>2018-06-19T12:44:55Z</time>
      </trkpt>
      <trkpt lat="43.95943" lon="6.37864">
        <ele>736.26</ele>
        <time>2018-06-19T12:44:56Z</time>
      </trkpt>
      <trkpt lat="43.95952" lon="6.37886">
        <ele>737.07</ele>
        <time>2018-06-19T12:44:57Z</time>
      </trkpt>
      <trkpt lat="43.96014" lon="6.38047">
        <ele>738.34</ele>
        <time>2018-06-19T12:45:04Z</time>
      </trkpt>
      <trkpt lat="43.96108" lon="6.38301">
        <ele>738.31</ele>
        <time>2018-06-19T12:45:15Z</time>
      </trkpt>
      <trkpt lat="43.96112" lon="6.38326">
        <ele>738.31</ele>
        <time>2018-06-19T12:45:16Z</time>
      </trkpt>
      <trkpt lat="43.96114" lon="6.38351">
        <ele>739.34</ele>
        <time>2018-06-19T12:45:17Z</time>
      </trkpt>
      <trkpt lat="43.96114" lon="6.38375">
        <ele>739.33</ele>
        <time>2018-06-19T12:45:18Z</time>
      </trkpt>
      <trkpt lat="43.96111" lon="6.38397">
        <ele>739.3</ele>
        <time>2018-06-19T12:45:19Z</time>
      </trkpt>
      <trkpt lat="43.96105" lon="6.38418">
        <ele>739.3</ele>
        <time>2018-06-19T12:45:20Z</time>
      </trkpt>
      <trkpt lat="43.96096" lon="6.38437">
        <ele>736.8</ele>
        <time>2018-06-19T12:45:21Z</time>
      </trkpt>
      <trkpt lat="43.96084" lon="6.38453">
        <ele>736.74</ele>
        <time>2018-06-19T12:45:22Z</time>
      </trkpt>
      <trkpt lat="43.9607" lon="6.38467">
        <ele>736.74</ele>
        <time>2018-06-19T12:45:23Z</time>
      </trkpt>
      <trkpt lat="43.96055" lon="6.38481">
        <ele>736.78</ele>
        <time>2018-06-19T12:45:24Z</time>
      </trkpt>
      <trkpt lat="43.9591" lon="6.38632">
        <ele>739.16</ele>
        <time>2018-06-19T12:45:33Z</time>
      </trkpt>
      <trkpt lat="43.95881" lon="6.38672">
        <ele>740.5</ele>
        <time>2018-06-19T12:45:35Z</time>
      </trkpt>
      <trkpt lat="43.95781" lon="6.38854">
        <ele>743.53</ele>
        <time>2018-06-19T12:45:43Z</time>
      </trkpt>
      <trkpt lat="43.95684" lon="6.39038">
        <ele>746.81</ele>
        <time>2018-06-19T12:45:51Z</time>
      </trkpt>
      <trkpt lat="43.95648" lon="6.39111">
        <ele>748.25</ele>
        <time>2018-06-19T12:45:54Z</time>
      </trkpt>
      <trkpt lat="43.95599" lon="6.39285">
        <ele>750.53</ele>
        <time>2018-06-19T12:46:00Z</time>
      </trkpt>
      <trkpt lat="43.95574" lon="6.39442">
        <ele>752.8</ele>
        <time>2018-06-19T12:46:05Z</time>
      </trkpt>
      <trkpt lat="43.95537" lon="6.39685">
        <ele>756.71</ele>
        <time>2018-06-19T12:46:13Z</time>
      </trkpt>
      <trkpt lat="43.95533" lon="6.39714">
        <ele>756.7</ele>
        <time>2018-06-19T12:46:14Z</time>
      </trkpt>
      <trkpt lat="43.95497" lon="6.39948">
        <ele>760.46</ele>
        <time>2018-06-19T12:46:22Z</time>
      </trkpt>
      <trkpt lat="43.95492" lon="6.39978">
        <ele>760.46</ele>
        <time>2018-06-19T12:46:23Z</time>
      </trkpt>
      <trkpt lat="43.95478" lon="6.40067">
        <ele>761.85</ele>
        <time>2018-06-19T12:46:26Z</time>
      </trkpt>
      <trkpt lat="43.9546" lon="6.40154">
        <ele>763.78</ele>
        <time>2018-06-19T12:46:29Z</time>
      </trkpt>
      <trkpt lat="43.95414" lon="6.40288">
        <ele>766.13</ele>
        <time>2018-06-19T12:46:34Z</time>
      </trkpt>
      <trkpt lat="43.95214" lon="6.40805">
        <ele>766.72</ele>
        <time>2018-06-19T12:46:54Z</time>
      </trkpt>
      <trkpt lat="43.95199" lon="6.4086">
        <ele>767.96</ele>
        <time>2018-06-19T12:46:56Z</time>
      </trkpt>
      <trkpt lat="43.95166" lon="6.41005">
        <ele>771.11</ele>
        <time>2018-06-19T12:47:01Z</time>
      </trkpt>
      <trkpt lat="43.9516" lon="6.41034">
        <ele>771.13</ele>
        <time>2018-06-19T12:47:02Z</time>
      </trkpt>
      <trkpt lat="43.95136" lon="6.4124">
        <ele>774.4</ele>
        <time>2018-06-19T12:47:09Z</time>
      </trkpt>
      <trkpt lat="43.95138" lon="6.41269">
        <ele>774.41</ele>
        <time>2018-06-19T12:47:10Z</time>
      </trkpt>
      <trkpt lat="43.95151" lon="6.41444">
        <ele>777.03</ele>
        <time>2018-06-19T12:47:16Z</time>
      </trkpt>
      <trkpt lat="43.95152" lon="6.41472">
        <ele>777.07</ele>
        <time>2018-06-19T12:47:17Z</time>
      </trkpt>
      <trkpt lat="43.95151" lon="6.41498">
        <ele>778.68</ele>
        <time>2018-06-19T12:47:18Z</time>
      </trkpt>
      <trkpt lat="43.95148" lon="6.41523">
        <ele>778.67</ele>
        <time>2018-06-19T12:47:19Z</time>
      </trkpt>
      <trkpt lat="43.95136" lon="6.41612">
        <ele>779.54</ele>
        <time>2018-06-19T12:47:23Z</time>
      </trkpt>
      <trkpt lat="43.95137" lon="6.41634">
        <ele>779.52</ele>
        <time>2018-06-19T12:47:24Z</time>
      </trkpt>
      <trkpt lat="43.95139" lon="6.41656">
        <ele>780.73</ele>
        <time>2018-06-19T12:47:25Z</time>
      </trkpt>
      <trkpt lat="43.95144" lon="6.41679">
        <ele>780.79</ele>
        <time>2018-06-19T12:47:26Z</time>
      </trkpt>
      <trkpt lat="43.95152" lon="6.41701">
        <ele>782.21</ele>
        <time>2018-06-19T12:47:27Z</time>
      </trkpt>
      <trkpt lat="43.9516" lon="6.41722">
        <ele>783.17</ele>
        <time>2018-06-19T12:47:28Z</time>
      </trkpt>
      <trkpt lat="43.9517" lon="6.41744">
        <ele>783.17</ele>
        <time>2018-06-19T12:47:29Z</time>
      </trkpt>
      <trkpt lat="43.95255" lon="6.4192">
        <ele>784.91</ele>
        <time>2018-06-19T12:47:37Z</time>
      </trkpt>
      <trkpt lat="43.95263" lon="6.41943">
        <ele>784.89</ele>
        <time>2018-06-19T12:47:38Z</time>
      </trkpt>
      <trkpt lat="43.9527" lon="6.41968">
        <ele>784.97</ele>
        <time>2018-06-19T12:47:39Z</time>
      </trkpt>
      <trkpt lat="43.95275" lon="6.41992">
        <ele>786.46</ele>
        <time>2018-06-19T12:47:40Z</time>
      </trkpt>
      <trkpt lat="43.95279" lon="6.42016">
        <ele>786.43</ele>
        <time>2018-06-19T12:47:41Z</time>
      </trkpt>
      <trkpt lat="43.95311" lon="6.42201">
        <ele>789.41</ele>
        <time>2018-06-19T12:47:48Z</time>
      </trkpt>
      <trkpt lat="43.95331" lon="6.42258">
        <ele>790.65</ele>
        <time>2018-06-19T12:47:50Z</time>
      </trkpt>
      <trkpt lat="43.95343" lon="6.42285">
        <ele>792.13</ele>
        <time>2018-06-19T12:47:51Z</time>
      </trkpt>
      <trkpt lat="43.95358" lon="6.4231">
        <ele>792.13</ele>
        <time>2018-06-19T12:47:52Z</time>
      </trkpt>
      <trkpt lat="43.95374" lon="6.42334">
        <ele>792.17</ele>
        <time>2018-06-19T12:47:53Z</time>
      </trkpt>
      <trkpt lat="43.95409" lon="6.42382">
        <ele>793.55</ele>
        <time>2018-06-19T12:47:55Z</time>
      </trkpt>
      <trkpt lat="43.95462" lon="6.42452">
        <ele>796.86</ele>
        <time>2018-06-19T12:47:58Z</time>
      </trkpt>
      <trkpt lat="43.95479" lon="6.42475">
        <ele>796.91</ele>
        <time>2018-06-19T12:47:59Z</time>
      </trkpt>
      <trkpt lat="43.95541" lon="6.42572">
        <ele>798.74</ele>
        <time>2018-06-19T12:48:03Z</time>
      </trkpt>
      <trkpt lat="43.95552" lon="6.42599">
        <ele>798.76</ele>
        <time>2018-06-19T12:48:04Z</time>
      </trkpt>
      <trkpt lat="43.95562" lon="6.42626">
        <ele>798.72</ele>
        <time>2018-06-19T12:48:05Z</time>
      </trkpt>
      <trkpt lat="43.9557" lon="6.42654">
        <ele>799.56</ele>
        <time>2018-06-19T12:48:06Z</time>
      </trkpt>
      <trkpt lat="43.95577" lon="6.42681">
        <ele>799.6</ele>
        <time>2018-06-19T12:48:07Z</time>
      </trkpt>
      <trkpt lat="43.95608" lon="6.42783">
        <ele>802.06</ele>
        <time>2018-06-19T12:48:11Z</time>
      </trkpt>
      <trkpt lat="43.95643" lon="6.42848">
        <ele>804.73</ele>
        <time>2018-06-19T12:48:14Z</time>
      </trkpt>
      <trkpt lat="43.95658" lon="6.42867">
        <ele>804.72</ele>
        <time>2018-06-19T12:48:15Z</time>
      </trkpt>
      <trkpt lat="43.95706" lon="6.42916">
        <ele>806.24</ele>
        <time>2018-06-19T12:48:18Z</time>
      </trkpt>
      <trkpt lat="43.95792" lon="6.42992">
        <ele>808.58</ele>
        <time>2018-06-19T12:48:23Z</time>
      </trkpt>
      <trkpt lat="43.95828" lon="6.43023">
        <ele>811.76</ele>
        <time>2018-06-19T12:48:25Z</time>
      </trkpt>
      <trkpt lat="43.95845" lon="6.43039">
        <ele>811.82</ele>
        <time>2018-06-19T12:48:26Z</time>
      </trkpt>
      <trkpt lat="43.95878" lon="6.43075">
        <ele>811.78</ele>
        <time>2018-06-19T12:48:28Z</time>
      </trkpt>
      <trkpt lat="43.95892" lon="6.43097">
        <ele>811.66</ele>
        <time>2018-06-19T12:48:29Z</time>
      </trkpt>
      <trkpt lat="43.95903" lon="6.43121">
        <ele>812.54</ele>
        <time>2018-06-19T12:48:30Z</time>
      </trkpt>
      <trkpt lat="43.95913" lon="6.43145">
        <ele>813.34</ele>
        <time>2018-06-19T12:48:31Z</time>
      </trkpt>
      <trkpt lat="43.95921" lon="6.43171">
        <ele>813.3</ele>
        <time>2018-06-19T12:48:32Z</time>
      </trkpt>
      <trkpt lat="43.95957" lon="6.43286">
        <ele>813.24</ele>
        <time>2018-06-19T12:48:37Z</time>
      </trkpt>
      <trkpt lat="43.95968" lon="6.43304">
        <ele>813.18</ele>
        <time>2018-06-19T12:48:38Z</time>
      </trkpt>
      <trkpt lat="43.95982" lon="6.43319">
        <ele>813.21</ele>
        <time>2018-06-19T12:48:39Z</time>
      </trkpt>
      <trkpt lat="43.95998" lon="6.43332">
        <ele>813.97</ele>
        <time>2018-06-19T12:48:40Z</time>
      </trkpt>
      <trkpt lat="43.96015" lon="6.43345">
        <ele>814</ele>
        <time>2018-06-19T12:48:41Z</time>
      </trkpt>
      <trkpt lat="43.96093" lon="6.43413">
        <ele>815.93</ele>
        <time>2018-06-19T12:48:46Z</time>
      </trkpt>
      <trkpt lat="43.96106" lon="6.4343">
        <ele>815.96</ele>
        <time>2018-06-19T12:48:47Z</time>
      </trkpt>
      <trkpt lat="43.96117" lon="6.4345">
        <ele>816.86</ele>
        <time>2018-06-19T12:48:48Z</time>
      </trkpt>
      <trkpt lat="43.96168" lon="6.43556">
        <ele>818.21</ele>
        <time>2018-06-19T12:48:53Z</time>
      </trkpt>
      <trkpt lat="43.96178" lon="6.43578">
        <ele>819.45</ele>
        <time>2018-06-19T12:48:54Z</time>
      </trkpt>
      <trkpt lat="43.96185" lon="6.43601">
        <ele>819.45</ele>
        <time>2018-06-19T12:48:55Z</time>
      </trkpt>
      <trkpt lat="43.9619" lon="6.43625">
        <ele>819.49</ele>
        <time>2018-06-19T12:48:56Z</time>
      </trkpt>
      <trkpt lat="43.96193" lon="6.4365">
        <ele>820.53</ele>
        <time>2018-06-19T12:48:57Z</time>
      </trkpt>
      <trkpt lat="43.96195" lon="6.43675">
        <ele>821.44</ele>
        <time>2018-06-19T12:48:58Z</time>
      </trkpt>
      <trkpt lat="43.96197" lon="6.43699">
        <ele>821.4</ele>
        <time>2018-06-19T12:48:59Z</time>
      </trkpt>
      <trkpt lat="43.96198" lon="6.43786">
        <ele>822.38</ele>
        <time>2018-06-19T12:49:03Z</time>
      </trkpt>
      <trkpt lat="43.96193" lon="6.438">
        <ele>822.34</ele>
        <time>2018-06-19T12:49:04Z</time>
      </trkpt>
      <trkpt lat="43.96185" lon="6.4381">
        <ele>822.35</ele>
        <time>2018-06-19T12:49:05Z</time>
      </trkpt>
      <trkpt lat="43.96179" lon="6.43821">
        <ele>819.78</ele>
        <time>2018-06-19T12:49:06Z</time>
      </trkpt>
      <trkpt lat="43.96173" lon="6.43834">
        <ele>819.76</ele>
        <time>2018-06-19T12:49:07Z</time>
      </trkpt>
      <trkpt lat="43.96169" lon="6.43849">
        <ele>819.79</ele>
        <time>2018-06-19T12:49:08Z</time>
      </trkpt>
      <trkpt lat="43.96167" lon="6.43871">
        <ele>819.81</ele>
        <time>2018-06-19T12:49:09Z</time>
      </trkpt>
      <trkpt lat="43.96164" lon="6.43894">
        <ele>823.07</ele>
        <time>2018-06-19T12:49:10Z</time>
      </trkpt>
      <trkpt lat="43.96154" lon="6.43944">
        <ele>824.07</ele>
        <time>2018-06-19T12:49:12Z</time>
      </trkpt>
      <trkpt lat="43.96125" lon="6.44079">
        <ele>825.95</ele>
        <time>2018-06-19T12:49:17Z</time>
      </trkpt>
      <trkpt lat="43.96115" lon="6.4413">
        <ele>825.89</ele>
        <time>2018-06-19T12:49:19Z</time>
      </trkpt>
      <trkpt lat="43.96114" lon="6.44156">
        <ele>825.89</ele>
        <time>2018-06-19T12:49:20Z</time>
      </trkpt>
      <trkpt lat="43.96116" lon="6.44182">
        <ele>825.92</ele>
        <time>2018-06-19T12:49:21Z</time>
      </trkpt>
      <trkpt lat="43.96123" lon="6.44207">
        <ele>826.97</ele>
        <time>2018-06-19T12:49:22Z</time>
      </trkpt>
      <trkpt lat="43.96131" lon="6.44233">
        <ele>826.96</ele>
        <time>2018-06-19T12:49:23Z</time>
      </trkpt>
      <trkpt lat="43.96141" lon="6.44258">
        <ele>826.99</ele>
        <time>2018-06-19T12:49:24Z</time>
      </trkpt>
      <trkpt lat="43.96188" lon="6.44386">
        <ele>830.02</ele>
        <time>2018-06-19T12:49:29Z</time>
      </trkpt>
      <trkpt lat="43.96211" lon="6.44433">
        <ele>830.85</ele>
        <time>2018-06-19T12:49:31Z</time>
      </trkpt>
      <trkpt lat="43.96224" lon="6.44455">
        <ele>831.84</ele>
        <time>2018-06-19T12:49:32Z</time>
      </trkpt>
      <trkpt lat="43.96235" lon="6.44479">
        <ele>831.91</ele>
        <time>2018-06-19T12:49:33Z</time>
      </trkpt>
      <trkpt lat="43.96242" lon="6.44506">
        <ele>831.84</ele>
        <time>2018-06-19T12:49:34Z</time>
      </trkpt>
      <trkpt lat="43.96245" lon="6.44534">
        <ele>831.88</ele>
        <time>2018-06-19T12:49:35Z</time>
      </trkpt>
      <trkpt lat="43.96247" lon="6.4456">
        <ele>831.84</ele>
        <time>2018-06-19T12:49:36Z</time>
      </trkpt>
      <trkpt lat="43.96251" lon="6.44584">
        <ele>831.84</ele>
        <time>2018-06-19T12:49:37Z</time>
      </trkpt>
      <trkpt lat="43.96256" lon="6.44606">
        <ele>831.86</ele>
        <time>2018-06-19T12:49:38Z</time>
      </trkpt>
      <trkpt lat="43.96266" lon="6.44625">
        <ele>833.61</ele>
        <time>2018-06-19T12:49:39Z</time>
      </trkpt>
      <trkpt lat="43.96278" lon="6.44643">
        <ele>834.42</ele>
        <time>2018-06-19T12:49:40Z</time>
      </trkpt>
      <trkpt lat="43.96293" lon="6.44661">
        <ele>834.37</ele>
        <time>2018-06-19T12:49:41Z</time>
      </trkpt>
      <trkpt lat="43.96354" lon="6.44735">
        <ele>837.57</ele>
        <time>2018-06-19T12:49:45Z</time>
      </trkpt>
      <trkpt lat="43.9637" lon="6.44755">
        <ele>837.5</ele>
        <time>2018-06-19T12:49:46Z</time>
      </trkpt>
      <trkpt lat="43.96476" lon="6.44888">
        <ele>841.45</ele>
        <time>2018-06-19T12:49:53Z</time>
      </trkpt>
      <trkpt lat="43.96491" lon="6.44903">
        <ele>841.45</ele>
        <time>2018-06-19T12:49:54Z</time>
      </trkpt>
      <trkpt lat="43.96503" lon="6.44919">
        <ele>842.36</ele>
        <time>2018-06-19T12:49:55Z</time>
      </trkpt>
      <trkpt lat="43.96514" lon="6.44937">
        <ele>843.24</ele>
        <time>2018-06-19T12:49:56Z</time>
      </trkpt>
      <trkpt lat="43.96523" lon="6.44957">
        <ele>844.17</ele>
        <time>2018-06-19T12:49:57Z</time>
      </trkpt>
      <trkpt lat="43.96528" lon="6.44979">
        <ele>844.09</ele>
        <time>2018-06-19T12:49:58Z</time>
      </trkpt>
      <trkpt lat="43.9653" lon="6.45001">
        <ele>844.13</ele>
        <time>2018-06-19T12:49:59Z</time>
      </trkpt>
      <trkpt lat="43.96529" lon="6.45023">
        <ele>844.12</ele>
        <time>2018-06-19T12:50:00Z</time>
      </trkpt>
      <trkpt lat="43.96527" lon="6.45046">
        <ele>844.07</ele>
        <time>2018-06-19T12:50:01Z</time>
      </trkpt>
      <trkpt lat="43.96522" lon="6.45068">
        <ele>844.07</ele>
        <time>2018-06-19T12:50:02Z</time>
      </trkpt>
      <trkpt lat="43.96514" lon="6.45087">
        <ele>844.09</ele>
        <time>2018-06-19T12:50:03Z</time>
      </trkpt>
      <trkpt lat="43.96502" lon="6.45102">
        <ele>844.04</ele>
        <time>2018-06-19T12:50:04Z</time>
      </trkpt>
      <trkpt lat="43.96487" lon="6.45114">
        <ele>844.05</ele>
        <time>2018-06-19T12:50:05Z</time>
      </trkpt>
      <trkpt lat="43.96473" lon="6.45127">
        <ele>844.04</ele>
        <time>2018-06-19T12:50:06Z</time>
      </trkpt>
      <trkpt lat="43.96459" lon="6.45143">
        <ele>845.52</ele>
        <time>2018-06-19T12:50:07Z</time>
      </trkpt>
      <trkpt lat="43.96449" lon="6.45165">
        <ele>845.55</ele>
        <time>2018-06-19T12:50:08Z</time>
      </trkpt>
      <trkpt lat="43.9644" lon="6.4519">
        <ele>846.78</ele>
        <time>2018-06-19T12:50:09Z</time>
      </trkpt>
      <trkpt lat="43.96432" lon="6.45215">
        <ele>846.75</ele>
        <time>2018-06-19T12:50:10Z</time>
      </trkpt>
      <trkpt lat="43.96422" lon="6.45239">
        <ele>846.74</ele>
        <time>2018-06-19T12:50:11Z</time>
      </trkpt>
      <trkpt lat="43.96411" lon="6.45262">
        <ele>846.77</ele>
        <time>2018-06-19T12:50:12Z</time>
      </trkpt>
      <trkpt lat="43.96303" lon="6.45491">
        <ele>850.48</ele>
        <time>2018-06-19T12:50:22Z</time>
      </trkpt>
      <trkpt lat="43.96269" lon="6.45639">
        <ele>852.89</ele>
        <time>2018-06-19T12:50:28Z</time>
      </trkpt>
      <trkpt lat="43.96225" lon="6.45853">
        <ele>857.07</ele>
        <time>2018-06-19T12:50:36Z</time>
      </trkpt>
      <trkpt lat="43.96221" lon="6.4588">
        <ele>857.03</ele>
        <time>2018-06-19T12:50:37Z</time>
      </trkpt>
      <trkpt lat="43.9622" lon="6.45907">
        <ele>856.95</ele>
        <time>2018-06-19T12:50:38Z</time>
      </trkpt>
      <trkpt lat="43.96223" lon="6.45933">
        <ele>857.84</ele>
        <time>2018-06-19T12:50:39Z</time>
      </trkpt>
      <trkpt lat="43.96233" lon="6.46013">
        <ele>858.84</ele>
        <time>2018-06-19T12:50:42Z</time>
      </trkpt>
      <trkpt lat="43.96233" lon="6.46039">
        <ele>858.87</ele>
        <time>2018-06-19T12:50:43Z</time>
      </trkpt>
      <trkpt lat="43.96232" lon="6.46065">
        <ele>859.85</ele>
        <time>2018-06-19T12:50:44Z</time>
      </trkpt>
      <trkpt lat="43.96229" lon="6.46092">
        <ele>859.85</ele>
        <time>2018-06-19T12:50:45Z</time>
      </trkpt>
      <trkpt lat="43.96225" lon="6.46119">
        <ele>859.83</ele>
        <time>2018-06-19T12:50:46Z</time>
      </trkpt>
      <trkpt lat="43.9622" lon="6.46145">
        <ele>860.89</ele>
        <time>2018-06-19T12:50:47Z</time>
      </trkpt>
      <trkpt lat="43.96192" lon="6.46277">
        <ele>862.74</ele>
        <time>2018-06-19T12:50:52Z</time>
      </trkpt>
      <trkpt lat="43.9619" lon="6.46305">
        <ele>862.74</ele>
        <time>2018-06-19T12:50:53Z</time>
      </trkpt>
      <trkpt lat="43.96191" lon="6.46332">
        <ele>863.83</ele>
        <time>2018-06-19T12:50:54Z</time>
      </trkpt>
      <trkpt lat="43.96193" lon="6.46411">
        <ele>867.05</ele>
        <time>2018-06-19T12:50:57Z</time>
      </trkpt>
      <trkpt lat="43.96188" lon="6.46435">
        <ele>867.06</ele>
        <time>2018-06-19T12:50:58Z</time>
      </trkpt>
      <trkpt lat="43.96181" lon="6.46457">
        <ele>867.83</ele>
        <time>2018-06-19T12:50:59Z</time>
      </trkpt>
      <trkpt lat="43.9617" lon="6.46474">
        <ele>868.6</ele>
        <time>2018-06-19T12:51:00Z</time>
      </trkpt>
      <trkpt lat="43.96159" lon="6.46489">
        <ele>869.65</ele>
        <time>2018-06-19T12:51:01Z</time>
      </trkpt>
      <trkpt lat="43.96149" lon="6.46503">
        <ele>869.68</ele>
        <time>2018-06-19T12:51:02Z</time>
      </trkpt>
      <trkpt lat="43.96145" lon="6.46522">
        <ele>871.07</ele>
        <time>2018-06-19T12:51:03Z</time>
      </trkpt>
      <trkpt lat="43.96145" lon="6.46541">
        <ele>871.05</ele>
        <time>2018-06-19T12:51:04Z</time>
      </trkpt>
      <trkpt lat="43.96149" lon="6.46558">
        <ele>872.08</ele>
        <time>2018-06-19T12:51:05Z</time>
      </trkpt>
      <trkpt lat="43.96156" lon="6.46572">
        <ele>872.08</ele>
        <time>2018-06-19T12:51:06Z</time>
      </trkpt>
      <trkpt lat="43.96165" lon="6.46585">
        <ele>872.13</ele>
        <time>2018-06-19T12:51:07Z</time>
      </trkpt>
      <trkpt lat="43.96172" lon="6.46602">
        <ele>874.01</ele>
        <time>2018-06-19T12:51:08Z</time>
      </trkpt>
      <trkpt lat="43.96177" lon="6.46622">
        <ele>875.59</ele>
        <time>2018-06-19T12:51:09Z</time>
      </trkpt>
      <trkpt lat="43.9618" lon="6.46645">
        <ele>877.25</ele>
        <time>2018-06-19T12:51:10Z</time>
      </trkpt>
      <trkpt lat="43.9618" lon="6.46669">
        <ele>878.14</ele>
        <time>2018-06-19T12:51:11Z</time>
      </trkpt>
      <trkpt lat="43.96178" lon="6.46692">
        <ele>879</ele>
        <time>2018-06-19T12:51:12Z</time>
      </trkpt>
      <trkpt lat="43.96174" lon="6.46714">
        <ele>880.11</ele>
        <time>2018-06-19T12:51:13Z</time>
      </trkpt>
      <trkpt lat="43.96171" lon="6.46736">
        <ele>880.09</ele>
        <time>2018-06-19T12:51:14Z</time>
      </trkpt>
      <trkpt lat="43.9616" lon="6.46817">
        <ele>883.53</ele>
        <time>2018-06-19T12:51:18Z</time>
      </trkpt>
      <trkpt lat="43.96157" lon="6.46836">
        <ele>883.53</ele>
        <time>2018-06-19T12:51:19Z</time>
      </trkpt>
      <trkpt lat="43.9613" lon="6.46977">
        <ele>887.08</ele>
        <time>2018-06-19T12:51:28Z</time>
      </trkpt>
      <trkpt lat="43.96126" lon="6.46988">
        <ele>887.07</ele>
        <time>2018-06-19T12:51:29Z</time>
      </trkpt>
      <trkpt lat="43.96119" lon="6.47008">
        <ele>887.12</ele>
        <time>2018-06-19T12:51:34Z</time>
      </trkpt>
      <trkpt lat="43.9612" lon="6.47003">
        <ele>887.24</ele>
        <time>2018-06-19T12:52:05Z</time>
      </trkpt>
      <trkpt lat="43.96122" lon="6.47002">
        <ele>887.46</ele>
        <time>2018-06-19T12:52:34Z</time>
      </trkpt>
      <trkpt lat="43.96124" lon="6.47004">
        <ele>887.65</ele>
        <time>2018-06-19T12:53:02Z</time>
      </trkpt>
      <trkpt lat="43.96124" lon="6.47008">
        <ele>887.65</ele>
        <time>2018-06-19T12:53:03Z</time>
      </trkpt>
      <trkpt lat="43.96124" lon="6.47015">
        <ele>887.66</ele>
        <time>2018-06-19T12:53:04Z</time>
      </trkpt>
      <trkpt lat="43.96122" lon="6.47023">
        <ele>887.67</ele>
        <time>2018-06-19T12:53:05Z</time>
      </trkpt>
      <trkpt lat="43.96119" lon="6.47032">
        <ele>887.68</ele>
        <time>2018-06-19T12:53:06Z</time>
      </trkpt>
      <trkpt lat="43.96109" lon="6.47067">
        <ele>889</ele>
        <time>2018-06-19T12:53:09Z</time>
      </trkpt>
      <trkpt lat="43.9609" lon="6.47138">
        <ele>891.86</ele>
        <time>2018-06-19T12:53:16Z</time>
      </trkpt>
      <trkpt lat="43.96091" lon="6.47144">
        <ele>891.89</ele>
        <time>2018-06-19T12:53:17Z</time>
      </trkpt>
      <trkpt lat="43.96093" lon="6.47149">
        <ele>891.87</ele>
        <time>2018-06-19T12:53:18Z</time>
      </trkpt>
      <trkpt lat="43.96096" lon="6.47152">
        <ele>892.7</ele>
        <time>2018-06-19T12:53:19Z</time>
      </trkpt>
      <trkpt lat="43.961" lon="6.47154">
        <ele>892.71</ele>
        <time>2018-06-19T12:53:20Z</time>
      </trkpt>
      <trkpt lat="43.96104" lon="6.47156">
        <ele>892.75</ele>
        <time>2018-06-19T12:53:21Z</time>
      </trkpt>
      <trkpt lat="43.96106" lon="6.47157">
        <ele>892.73</ele>
        <time>2018-06-19T12:53:22Z</time>
      </trkpt>
      <trkpt lat="43.96108" lon="6.47157">
        <ele>892.77</ele>
        <time>2018-06-19T12:53:23Z</time>
      </trkpt>
      <trkpt lat="43.96111" lon="6.47156">
        <ele>893.64</ele>
        <time>2018-06-19T12:53:24Z</time>
      </trkpt>
      <trkpt lat="43.96115" lon="6.47152">
        <ele>893.64</ele>
        <time>2018-06-19T12:53:25Z</time>
      </trkpt>
      <trkpt lat="43.96118" lon="6.47148">
        <ele>893.66</ele>
        <time>2018-06-19T12:53:26Z</time>
      </trkpt>
      <trkpt lat="43.96121" lon="6.47143">
        <ele>893.65</ele>
        <time>2018-06-19T12:53:27Z</time>
      </trkpt>
      <trkpt lat="43.96127" lon="6.47129">
        <ele>893.62</ele>
        <time>2018-06-19T12:53:35Z</time>
      </trkpt>
      <trkpt lat="43.96128" lon="6.47129">
        <ele>895.58</ele>
        <time>2018-06-19T12:53:44Z</time>
      </trkpt>
      <trkpt lat="43.96131" lon="6.47127">
        <ele>895.6</ele>
        <time>2018-06-19T12:53:47Z</time>
      </trkpt>
      <trkpt lat="43.96132" lon="6.47124">
        <ele>895.61</ele>
        <time>2018-06-19T12:53:48Z</time>
      </trkpt>
      <trkpt lat="43.96135" lon="6.47119">
        <ele>895.62</ele>
        <time>2018-06-19T12:53:49Z</time>
      </trkpt>
      <trkpt lat="43.96138" lon="6.47115">
        <ele>895.62</ele>
        <time>2018-06-19T12:53:50Z</time>
      </trkpt>
      <trkpt lat="43.96143" lon="6.47111">
        <ele>895.63</ele>
        <time>2018-06-19T12:53:51Z</time>
      </trkpt>
      <trkpt lat="43.96151" lon="6.47101">
        <ele>895.64</ele>
        <time>2018-06-19T12:53:53Z</time>
      </trkpt>
      <trkpt lat="43.96154" lon="6.47095">
        <ele>895.64</ele>
        <time>2018-06-19T12:53:54Z</time>
      </trkpt>
      <trkpt lat="43.96201" lon="6.47017">
        <ele>896.75</ele>
        <time>2018-06-19T12:54:05Z</time>
      </trkpt>
      <trkpt lat="43.96261" lon="6.46927">
        <ele>899.68</ele>
        <time>2018-06-19T12:54:16Z</time>
      </trkpt>
      <trkpt lat="43.96294" lon="6.46868">
        <ele>899.66</ele>
        <time>2018-06-19T12:54:21Z</time>
      </trkpt>
      <trkpt lat="43.96303" lon="6.46857">
        <ele>899.67</ele>
        <time>2018-06-19T12:54:22Z</time>
      </trkpt>
      <trkpt lat="43.96313" lon="6.46846">
        <ele>899.68</ele>
        <time>2018-06-19T12:54:23Z</time>
      </trkpt>
      <trkpt lat="43.96394" lon="6.4675">
        <ele>903.46</ele>
        <time>2018-06-19T12:54:31Z</time>
      </trkpt>
      <trkpt lat="43.96435" lon="6.46709">
        <ele>907.3</ele>
        <time>2018-06-19T12:54:35Z</time>
      </trkpt>
      <trkpt lat="43.96445" lon="6.46699">
        <ele>907.35</ele>
        <time>2018-06-19T12:54:36Z</time>
      </trkpt>
      <trkpt lat="43.96465" lon="6.4668">
        <ele>909.22</ele>
        <time>2018-06-19T12:54:38Z</time>
      </trkpt>
      <trkpt lat="43.96482" lon="6.46663">
        <ele>910.66</ele>
        <time>2018-06-19T12:54:40Z</time>
      </trkpt>
      <trkpt lat="43.96513" lon="6.46641">
        <ele>912.94</ele>
        <time>2018-06-19T12:54:43Z</time>
      </trkpt>
      <trkpt lat="43.96549" lon="6.4662">
        <ele>915.21</ele>
        <time>2018-06-19T12:54:46Z</time>
      </trkpt>
      <trkpt lat="43.96591" lon="6.46603">
        <ele>919</ele>
        <time>2018-06-19T12:54:49Z</time>
      </trkpt>
      <trkpt lat="43.96649" lon="6.46593">
        <ele>921.68</ele>
        <time>2018-06-19T12:54:53Z</time>
      </trkpt>
      <trkpt lat="43.96691" lon="6.46592">
        <ele>924.79</ele>
        <time>2018-06-19T12:54:56Z</time>
      </trkpt>
      <trkpt lat="43.96704" lon="6.46591">
        <ele>924.8</ele>
        <time>2018-06-19T12:54:57Z</time>
      </trkpt>
      <trkpt lat="43.96716" lon="6.46588">
        <ele>925.63</ele>
        <time>2018-06-19T12:54:58Z</time>
      </trkpt>
      <trkpt lat="43.96751" lon="6.46577">
        <ele>926.68</ele>
        <time>2018-06-19T12:55:01Z</time>
      </trkpt>
      <trkpt lat="43.96763" lon="6.46576">
        <ele>927.83</ele>
        <time>2018-06-19T12:55:02Z</time>
      </trkpt>
      <trkpt lat="43.96801" lon="6.46575">
        <ele>929.54</ele>
        <time>2018-06-19T12:55:05Z</time>
      </trkpt>
      <trkpt lat="43.96813" lon="6.46572">
        <ele>929.6</ele>
        <time>2018-06-19T12:55:06Z</time>
      </trkpt>
      <trkpt lat="43.96908" lon="6.46509">
        <ele>929.47</ele>
        <time>2018-06-19T12:55:13Z</time>
      </trkpt>
      <trkpt lat="43.96975" lon="6.46431">
        <ele>933.76</ele>
        <time>2018-06-19T12:55:18Z</time>
      </trkpt>
      <trkpt lat="43.96988" lon="6.46417">
        <ele>933.78</ele>
        <time>2018-06-19T12:55:19Z</time>
      </trkpt>
      <trkpt lat="43.97026" lon="6.46376">
        <ele>935.78</ele>
        <time>2018-06-19T12:55:22Z</time>
      </trkpt>
      <trkpt lat="43.97062" lon="6.46335">
        <ele>939.71</ele>
        <time>2018-06-19T12:55:25Z</time>
      </trkpt>
      <trkpt lat="43.97074" lon="6.46323">
        <ele>939.68</ele>
        <time>2018-06-19T12:55:26Z</time>
      </trkpt>
      <trkpt lat="43.97109" lon="6.46288">
        <ele>941</ele>
        <time>2018-06-19T12:55:29Z</time>
      </trkpt>
      <trkpt lat="43.97132" lon="6.46262">
        <ele>942.19</ele>
        <time>2018-06-19T12:55:31Z</time>
      </trkpt>
      <trkpt lat="43.97197" lon="6.46198">
        <ele>944.29</ele>
        <time>2018-06-19T12:55:36Z</time>
      </trkpt>
      <trkpt lat="43.97227" lon="6.46173">
        <ele>945.74</ele>
        <time>2018-06-19T12:55:38Z</time>
      </trkpt>
      <trkpt lat="43.97339" lon="6.46043">
        <ele>946.72</ele>
        <time>2018-06-19T12:55:46Z</time>
      </trkpt>
      <trkpt lat="43.97443" lon="6.45907">
        <ele>946.65</ele>
        <time>2018-06-19T12:55:55Z</time>
      </trkpt>
      <trkpt lat="43.97467" lon="6.45876">
        <ele>943.1</ele>
        <time>2018-06-19T12:55:57Z</time>
      </trkpt>
      <trkpt lat="43.97479" lon="6.4586">
        <ele>943.08</ele>
        <time>2018-06-19T12:55:58Z</time>
      </trkpt>
      <trkpt lat="43.97515" lon="6.45815">
        <ele>942.35</ele>
        <time>2018-06-19T12:56:01Z</time>
      </trkpt>
      <trkpt lat="43.97528" lon="6.45804">
        <ele>942.36</ele>
        <time>2018-06-19T12:56:02Z</time>
      </trkpt>
      <trkpt lat="43.97583" lon="6.45765">
        <ele>939.03</ele>
        <time>2018-06-19T12:56:06Z</time>
      </trkpt>
      <trkpt lat="43.97596" lon="6.45754">
        <ele>939.03</ele>
        <time>2018-06-19T12:56:07Z</time>
      </trkpt>
      <trkpt lat="43.97621" lon="6.45735">
        <ele>936.38</ele>
        <time>2018-06-19T12:56:09Z</time>
      </trkpt>
      <trkpt lat="43.97634" lon="6.45729">
        <ele>936.38</ele>
        <time>2018-06-19T12:56:10Z</time>
      </trkpt>
      <trkpt lat="43.97647" lon="6.45729">
        <ele>934.77</ele>
        <time>2018-06-19T12:56:11Z</time>
      </trkpt>
      <trkpt lat="43.9766" lon="6.45734">
        <ele>933.76</ele>
        <time>2018-06-19T12:56:12Z</time>
      </trkpt>
      <trkpt lat="43.97671" lon="6.45745">
        <ele>932.59</ele>
        <time>2018-06-19T12:56:13Z</time>
      </trkpt>
      <trkpt lat="43.9768" lon="6.45759">
        <ele>932.59</ele>
        <time>2018-06-19T12:56:14Z</time>
      </trkpt>
      <trkpt lat="43.97686" lon="6.45776">
        <ele>930.9</ele>
        <time>2018-06-19T12:56:15Z</time>
      </trkpt>
      <trkpt lat="43.97692" lon="6.45792">
        <ele>930.93</ele>
        <time>2018-06-19T12:56:16Z</time>
      </trkpt>
      <trkpt lat="43.97698" lon="6.45806">
        <ele>929.63</ele>
        <time>2018-06-19T12:56:17Z</time>
      </trkpt>
      <trkpt lat="43.97706" lon="6.45817">
        <ele>928.8</ele>
        <time>2018-06-19T12:56:18Z</time>
      </trkpt>
      <trkpt lat="43.97715" lon="6.45824">
        <ele>928.88</ele>
        <time>2018-06-19T12:56:19Z</time>
      </trkpt>
      <trkpt lat="43.97726" lon="6.45827">
        <ele>927.23</ele>
        <time>2018-06-19T12:56:20Z</time>
      </trkpt>
      <trkpt lat="43.97738" lon="6.45825">
        <ele>927.2</ele>
        <time>2018-06-19T12:56:21Z</time>
      </trkpt>
      <trkpt lat="43.9775" lon="6.45822">
        <ele>927.24</ele>
        <time>2018-06-19T12:56:22Z</time>
      </trkpt>
      <trkpt lat="43.97776" lon="6.45815">
        <ele>925.75</ele>
        <time>2018-06-19T12:56:24Z</time>
      </trkpt>
      <trkpt lat="43.9779" lon="6.4581">
        <ele>924.46</ele>
        <time>2018-06-19T12:56:25Z</time>
      </trkpt>
      <trkpt lat="43.97804" lon="6.45803">
        <ele>924.54</ele>
        <time>2018-06-19T12:56:26Z</time>
      </trkpt>
      <trkpt lat="43.97861" lon="6.45769">
        <ele>921.95</ele>
        <time>2018-06-19T12:56:30Z</time>
      </trkpt>
      <trkpt lat="43.97905" lon="6.45749">
        <ele>919.64</ele>
        <time>2018-06-19T12:56:33Z</time>
      </trkpt>
      <trkpt lat="43.97932" lon="6.45737">
        <ele>917.83</ele>
        <time>2018-06-19T12:56:35Z</time>
      </trkpt>
      <trkpt lat="43.97944" lon="6.45734">
        <ele>917.84</ele>
        <time>2018-06-19T12:56:36Z</time>
      </trkpt>
      <trkpt lat="43.97957" lon="6.45736">
        <ele>916.06</ele>
        <time>2018-06-19T12:56:37Z</time>
      </trkpt>
      <trkpt lat="43.97982" lon="6.45741">
        <ele>914.79</ele>
        <time>2018-06-19T12:56:39Z</time>
      </trkpt>
      <trkpt lat="43.98007" lon="6.45747">
        <ele>913.58</ele>
        <time>2018-06-19T12:56:41Z</time>
      </trkpt>
      <trkpt lat="43.98017" lon="6.45751">
        <ele>912.08</ele>
        <time>2018-06-19T12:56:42Z</time>
      </trkpt>
      <trkpt lat="43.98025" lon="6.45758">
        <ele>910.9</ele>
        <time>2018-06-19T12:56:43Z</time>
      </trkpt>
      <trkpt lat="43.98029" lon="6.45768">
        <ele>910.9</ele>
        <time>2018-06-19T12:56:44Z</time>
      </trkpt>
      <trkpt lat="43.98033" lon="6.45778">
        <ele>909.81</ele>
        <time>2018-06-19T12:56:45Z</time>
      </trkpt>
      <trkpt lat="43.98038" lon="6.45785">
        <ele>909.79</ele>
        <time>2018-06-19T12:56:46Z</time>
      </trkpt>
      <trkpt lat="43.98044" lon="6.4579">
        <ele>909.87</ele>
        <time>2018-06-19T12:56:47Z</time>
      </trkpt>
      <trkpt lat="43.98052" lon="6.45793">
        <ele>909.9</ele>
        <time>2018-06-19T12:56:48Z</time>
      </trkpt>
      <trkpt lat="43.98062" lon="6.45796">
        <ele>909.91</ele>
        <time>2018-06-19T12:56:49Z</time>
      </trkpt>
      <trkpt lat="43.98073" lon="6.45799">
        <ele>909.93</ele>
        <time>2018-06-19T12:56:50Z</time>
      </trkpt>
      <trkpt lat="43.98118" lon="6.45813">
        <ele>913.3</ele>
        <time>2018-06-19T12:56:54Z</time>
      </trkpt>
      <trkpt lat="43.98129" lon="6.45818">
        <ele>913.35</ele>
        <time>2018-06-19T12:56:55Z</time>
      </trkpt>
      <trkpt lat="43.9814" lon="6.4582">
        <ele>915.08</ele>
        <time>2018-06-19T12:56:56Z</time>
      </trkpt>
      <trkpt lat="43.98152" lon="6.45819">
        <ele>915.15</ele>
        <time>2018-06-19T12:56:57Z</time>
      </trkpt>
      <trkpt lat="43.98163" lon="6.45815">
        <ele>916.8</ele>
        <time>2018-06-19T12:56:58Z</time>
      </trkpt>
      <trkpt lat="43.98174" lon="6.45808">
        <ele>917.67</ele>
        <time>2018-06-19T12:56:59Z</time>
      </trkpt>
      <trkpt lat="43.98185" lon="6.45802">
        <ele>917.71</ele>
        <time>2018-06-19T12:57:00Z</time>
      </trkpt>
      <trkpt lat="43.98196" lon="6.45796">
        <ele>918.86</ele>
        <time>2018-06-19T12:57:01Z</time>
      </trkpt>
      <trkpt lat="43.98231" lon="6.45784">
        <ele>920.19</ele>
        <time>2018-06-19T12:57:04Z</time>
      </trkpt>
      <trkpt lat="43.98302" lon="6.45768">
        <ele>923.37</ele>
        <time>2018-06-19T12:57:10Z</time>
      </trkpt>
      <trkpt lat="43.98323" lon="6.4576">
        <ele>923.38</ele>
        <time>2018-06-19T12:57:12Z</time>
      </trkpt>
      <trkpt lat="43.98332" lon="6.45754">
        <ele>923.38</ele>
        <time>2018-06-19T12:57:13Z</time>
      </trkpt>
      <trkpt lat="43.98338" lon="6.45748">
        <ele>923.37</ele>
        <time>2018-06-19T12:57:14Z</time>
      </trkpt>
      <trkpt lat="43.98396" lon="6.45704">
        <ele>923.3</ele>
        <time>2018-06-19T12:57:22Z</time>
      </trkpt>
      <trkpt lat="43.98404" lon="6.45703">
        <ele>923.29</ele>
        <time>2018-06-19T12:57:23Z</time>
      </trkpt>
      <trkpt lat="43.98413" lon="6.45702">
        <ele>923.29</ele>
        <time>2018-06-19T12:57:24Z</time>
      </trkpt>
      <trkpt lat="43.98421" lon="6.457">
        <ele>923.3</ele>
        <time>2018-06-19T12:57:25Z</time>
      </trkpt>
      <trkpt lat="43.98429" lon="6.45696">
        <ele>923.31</ele>
        <time>2018-06-19T12:57:26Z</time>
      </trkpt>
      <trkpt lat="43.98436" lon="6.45691">
        <ele>923.32</ele>
        <time>2018-06-19T12:57:27Z</time>
      </trkpt>
      <trkpt lat="43.98469" lon="6.45675">
        <ele>923.32</ele>
        <time>2018-06-19T12:57:32Z</time>
      </trkpt>
      <trkpt lat="43.98476" lon="6.45675">
        <ele>923.34</ele>
        <time>2018-06-19T12:57:33Z</time>
      </trkpt>
      <trkpt lat="43.98484" lon="6.45676">
        <ele>923.34</ele>
        <time>2018-06-19T12:57:34Z</time>
      </trkpt>
      <trkpt lat="43.98493" lon="6.45679">
        <ele>923.35</ele>
        <time>2018-06-19T12:57:35Z</time>
      </trkpt>
      <trkpt lat="43.98502" lon="6.45683">
        <ele>924.66</ele>
        <time>2018-06-19T12:57:36Z</time>
      </trkpt>
      <trkpt lat="43.98537" lon="6.45691">
        <ele>928.35</ele>
        <time>2018-06-19T12:57:40Z</time>
      </trkpt>
      <trkpt lat="43.98547" lon="6.4569">
        <ele>929.27</ele>
        <time>2018-06-19T12:57:41Z</time>
      </trkpt>
      <trkpt lat="43.98557" lon="6.45688">
        <ele>929.32</ele>
        <time>2018-06-19T12:57:42Z</time>
      </trkpt>
      <trkpt lat="43.98581" lon="6.4568">
        <ele>930.74</ele>
        <time>2018-06-19T12:57:44Z</time>
      </trkpt>
      <trkpt lat="43.98605" lon="6.45671">
        <ele>932.35</ele>
        <time>2018-06-19T12:57:46Z</time>
      </trkpt>
      <trkpt lat="43.9864" lon="6.45657">
        <ele>933.58</ele>
        <time>2018-06-19T12:57:49Z</time>
      </trkpt>
      <trkpt lat="43.98711" lon="6.45627">
        <ele>935.4</ele>
        <time>2018-06-19T12:57:55Z</time>
      </trkpt>
      <trkpt lat="43.98721" lon="6.45621">
        <ele>935.38</ele>
        <time>2018-06-19T12:57:56Z</time>
      </trkpt>
      <trkpt lat="43.98748" lon="6.45603">
        <ele>935.32</ele>
        <time>2018-06-19T12:57:59Z</time>
      </trkpt>
      <trkpt lat="43.98757" lon="6.45601">
        <ele>935.36</ele>
        <time>2018-06-19T12:58:00Z</time>
      </trkpt>
      <trkpt lat="43.98765" lon="6.456">
        <ele>935.34</ele>
        <time>2018-06-19T12:58:01Z</time>
      </trkpt>
      <trkpt lat="43.98773" lon="6.45604">
        <ele>935.34</ele>
        <time>2018-06-19T12:58:02Z</time>
      </trkpt>
      <trkpt lat="43.9878" lon="6.45608">
        <ele>935.38</ele>
        <time>2018-06-19T12:58:03Z</time>
      </trkpt>
      <trkpt lat="43.98788" lon="6.45611">
        <ele>936.33</ele>
        <time>2018-06-19T12:58:04Z</time>
      </trkpt>
      <trkpt lat="43.98794" lon="6.45612">
        <ele>936.33</ele>
        <time>2018-06-19T12:58:05Z</time>
      </trkpt>
      <trkpt lat="43.988" lon="6.4561">
        <ele>936.32</ele>
        <time>2018-06-19T12:58:06Z</time>
      </trkpt>
      <trkpt lat="43.98804" lon="6.45604">
        <ele>936.33</ele>
        <time>2018-06-19T12:58:07Z</time>
      </trkpt>
      <trkpt lat="43.98809" lon="6.45596">
        <ele>936.31</ele>
        <time>2018-06-19T12:58:08Z</time>
      </trkpt>
      <trkpt lat="43.98815" lon="6.45588">
        <ele>937.1</ele>
        <time>2018-06-19T12:58:09Z</time>
      </trkpt>
      <trkpt lat="43.98824" lon="6.45584">
        <ele>937.92</ele>
        <time>2018-06-19T12:58:10Z</time>
      </trkpt>
      <trkpt lat="43.98835" lon="6.45581">
        <ele>937.93</ele>
        <time>2018-06-19T12:58:11Z</time>
      </trkpt>
      <trkpt lat="43.98871" lon="6.45566">
        <ele>941.31</ele>
        <time>2018-06-19T12:58:14Z</time>
      </trkpt>
      <trkpt lat="43.98906" lon="6.45549">
        <ele>944.98</ele>
        <time>2018-06-19T12:58:17Z</time>
      </trkpt>
      <trkpt lat="43.98938" lon="6.45533">
        <ele>946.73</ele>
        <time>2018-06-19T12:58:20Z</time>
      </trkpt>
      <trkpt lat="43.98957" lon="6.45522">
        <ele>947.9</ele>
        <time>2018-06-19T12:58:22Z</time>
      </trkpt>
      <trkpt lat="43.98964" lon="6.45514">
        <ele>948.97</ele>
        <time>2018-06-19T12:58:23Z</time>
      </trkpt>
      <trkpt lat="43.9897" lon="6.45504">
        <ele>948.95</ele>
        <time>2018-06-19T12:58:24Z</time>
      </trkpt>
      <trkpt lat="43.98974" lon="6.45491">
        <ele>950.28</ele>
        <time>2018-06-19T12:58:25Z</time>
      </trkpt>
      <trkpt lat="43.98977" lon="6.45477">
        <ele>950.26</ele>
        <time>2018-06-19T12:58:26Z</time>
      </trkpt>
      <trkpt lat="43.98986" lon="6.4545">
        <ele>952.05</ele>
        <time>2018-06-19T12:58:28Z</time>
      </trkpt>
      <trkpt lat="43.98993" lon="6.45439">
        <ele>952.04</ele>
        <time>2018-06-19T12:58:29Z</time>
      </trkpt>
      <trkpt lat="43.99" lon="6.4543">
        <ele>952.9</ele>
        <time>2018-06-19T12:58:30Z</time>
      </trkpt>
      <trkpt lat="43.99008" lon="6.45423">
        <ele>952.9</ele>
        <time>2018-06-19T12:58:31Z</time>
      </trkpt>
      <trkpt lat="43.99016" lon="6.45415">
        <ele>954.21</ele>
        <time>2018-06-19T12:58:32Z</time>
      </trkpt>
      <trkpt lat="43.99024" lon="6.45408">
        <ele>954.21</ele>
        <time>2018-06-19T12:58:33Z</time>
      </trkpt>
      <trkpt lat="43.99032" lon="6.454">
        <ele>955.34</ele>
        <time>2018-06-19T12:58:34Z</time>
      </trkpt>
      <trkpt lat="43.99037" lon="6.45393">
        <ele>955.33</ele>
        <time>2018-06-19T12:58:35Z</time>
      </trkpt>
      <trkpt lat="43.9904" lon="6.45387">
        <ele>955.33</ele>
        <time>2018-06-19T12:58:36Z</time>
      </trkpt>
      <trkpt lat="43.99042" lon="6.45384">
        <ele>956.18</ele>
        <time>2018-06-19T12:58:37Z</time>
      </trkpt>
      <trkpt lat="43.99042" lon="6.45381">
        <ele>956.17</ele>
        <time>2018-06-19T12:58:38Z</time>
      </trkpt>
      <trkpt lat="43.99044" lon="6.45376">
        <ele>956.12</ele>
        <time>2018-06-19T12:58:53Z</time>
      </trkpt>
      <trkpt lat="43.9906" lon="6.4536">
        <ele>957.83</ele>
        <time>2018-06-19T12:58:58Z</time>
      </trkpt>
      <trkpt lat="43.99066" lon="6.45358">
        <ele>957.84</ele>
        <time>2018-06-19T12:58:59Z</time>
      </trkpt>
      <trkpt lat="43.99071" lon="6.45357">
        <ele>957.84</ele>
        <time>2018-06-19T12:59:00Z</time>
      </trkpt>
      <trkpt lat="43.99117" lon="6.45356">
        <ele>961.66</ele>
        <time>2018-06-19T12:59:07Z</time>
      </trkpt>
      <trkpt lat="43.99123" lon="6.45356">
        <ele>961.67</ele>
        <time>2018-06-19T12:59:08Z</time>
      </trkpt>
      <trkpt lat="43.99134" lon="6.45354">
        <ele>962.58</ele>
        <time>2018-06-19T12:59:10Z</time>
      </trkpt>
      <trkpt lat="43.99138" lon="6.45351">
        <ele>962.62</ele>
        <time>2018-06-19T12:59:11Z</time>
      </trkpt>
      <trkpt lat="43.99143" lon="6.45347">
        <ele>963.75</ele>
        <time>2018-06-19T12:59:12Z</time>
      </trkpt>
      <trkpt lat="43.99147" lon="6.45343">
        <ele>963.76</ele>
        <time>2018-06-19T12:59:13Z</time>
      </trkpt>
      <trkpt lat="43.99152" lon="6.45337">
        <ele>964.74</ele>
        <time>2018-06-19T12:59:14Z</time>
      </trkpt>
      <trkpt lat="43.99184" lon="6.45306">
        <ele>967.87</ele>
        <time>2018-06-19T12:59:19Z</time>
      </trkpt>
      <trkpt lat="43.9919" lon="6.45298">
        <ele>968.65</ele>
        <time>2018-06-19T12:59:20Z</time>
      </trkpt>
      <trkpt lat="43.99196" lon="6.45289">
        <ele>969.54</ele>
        <time>2018-06-19T12:59:21Z</time>
      </trkpt>
      <trkpt lat="43.99202" lon="6.45281">
        <ele>969.54</ele>
        <time>2018-06-19T12:59:22Z</time>
      </trkpt>
      <trkpt lat="43.99208" lon="6.45272">
        <ele>970.48</ele>
        <time>2018-06-19T12:59:23Z</time>
      </trkpt>
      <trkpt lat="43.99215" lon="6.45266">
        <ele>970.48</ele>
        <time>2018-06-19T12:59:24Z</time>
      </trkpt>
      <trkpt lat="43.99222" lon="6.45261">
        <ele>971.74</ele>
        <time>2018-06-19T12:59:25Z</time>
      </trkpt>
      <trkpt lat="43.9923" lon="6.45256">
        <ele>971.74</ele>
        <time>2018-06-19T12:59:26Z</time>
      </trkpt>
      <trkpt lat="43.99239" lon="6.45253">
        <ele>972.97</ele>
        <time>2018-06-19T12:59:27Z</time>
      </trkpt>
      <trkpt lat="43.99265" lon="6.45242">
        <ele>975.58</ele>
        <time>2018-06-19T12:59:30Z</time>
      </trkpt>
      <trkpt lat="43.99274" lon="6.4524">
        <ele>976.68</ele>
        <time>2018-06-19T12:59:31Z</time>
      </trkpt>
      <trkpt lat="43.993" lon="6.45229">
        <ele>978.2</ele>
        <time>2018-06-19T12:59:34Z</time>
      </trkpt>
      <trkpt lat="43.99324" lon="6.45214">
        <ele>980.55</ele>
        <time>2018-06-19T12:59:37Z</time>
      </trkpt>
      <trkpt lat="43.9933" lon="6.45208">
        <ele>981.54</ele>
        <time>2018-06-19T12:59:38Z</time>
      </trkpt>
      <trkpt lat="43.99334" lon="6.45203">
        <ele>981.46</ele>
        <time>2018-06-19T12:59:39Z</time>
      </trkpt>
      <trkpt lat="43.99338" lon="6.45198">
        <ele>982.42</ele>
        <time>2018-06-19T12:59:40Z</time>
      </trkpt>
      <trkpt lat="43.9935" lon="6.45186">
        <ele>983.3</ele>
        <time>2018-06-19T12:59:43Z</time>
      </trkpt>
      <trkpt lat="43.99354" lon="6.45182">
        <ele>984.62</ele>
        <time>2018-06-19T12:59:44Z</time>
      </trkpt>
      <trkpt lat="43.99357" lon="6.45179">
        <ele>984.67</ele>
        <time>2018-06-19T12:59:45Z</time>
      </trkpt>
      <trkpt lat="43.99357" lon="6.45173">
        <ele>985.54</ele>
        <time>2018-06-19T12:59:46Z</time>
      </trkpt>
      <trkpt lat="43.99356" lon="6.45167">
        <ele>985.57</ele>
        <time>2018-06-19T12:59:47Z</time>
      </trkpt>
      <trkpt lat="43.99354" lon="6.45161">
        <ele>986.7</ele>
        <time>2018-06-19T12:59:48Z</time>
      </trkpt>
      <trkpt lat="43.99349" lon="6.45157">
        <ele>986.69</ele>
        <time>2018-06-19T12:59:49Z</time>
      </trkpt>
      <trkpt lat="43.99342" lon="6.45155">
        <ele>987.97</ele>
        <time>2018-06-19T12:59:50Z</time>
      </trkpt>
      <trkpt lat="43.99334" lon="6.45153">
        <ele>987.98</ele>
        <time>2018-06-19T12:59:51Z</time>
      </trkpt>
      <trkpt lat="43.99314" lon="6.45147">
        <ele>989</ele>
        <time>2018-06-19T12:59:54Z</time>
      </trkpt>
      <trkpt lat="43.9931" lon="6.45144">
        <ele>990.02</ele>
        <time>2018-06-19T12:59:55Z</time>
      </trkpt>
      <trkpt lat="43.99308" lon="6.45141">
        <ele>990.03</ele>
        <time>2018-06-19T12:59:56Z</time>
      </trkpt>
      <trkpt lat="43.99306" lon="6.45138">
        <ele>990.03</ele>
        <time>2018-06-19T12:59:57Z</time>
      </trkpt>
      <trkpt lat="43.99304" lon="6.45134">
        <ele>990.95</ele>
        <time>2018-06-19T12:59:58Z</time>
      </trkpt>
      <trkpt lat="43.99303" lon="6.45129">
        <ele>990.97</ele>
        <time>2018-06-19T12:59:59Z</time>
      </trkpt>
      <trkpt lat="43.99303" lon="6.45124">
        <ele>992.04</ele>
        <time>2018-06-19T13:00:00Z</time>
      </trkpt>
      <trkpt lat="43.99302" lon="6.45118">
        <ele>992.05</ele>
        <time>2018-06-19T13:00:01Z</time>
      </trkpt>
      <trkpt lat="43.99301" lon="6.45111">
        <ele>993.12</ele>
        <time>2018-06-19T13:00:02Z</time>
      </trkpt>
      <trkpt lat="43.99301" lon="6.45104">
        <ele>994.12</ele>
        <time>2018-06-19T13:00:03Z</time>
      </trkpt>
      <trkpt lat="43.99302" lon="6.45098">
        <ele>995.32</ele>
        <time>2018-06-19T13:00:04Z</time>
      </trkpt>
      <trkpt lat="43.99303" lon="6.45092">
        <ele>996.15</ele>
        <time>2018-06-19T13:00:05Z</time>
      </trkpt>
      <trkpt lat="43.99305" lon="6.45087">
        <ele>997.11</ele>
        <time>2018-06-19T13:00:06Z</time>
      </trkpt>
      <trkpt lat="43.99307" lon="6.45081">
        <ele>997.39</ele>
        <time>2018-06-19T13:00:07Z</time>
      </trkpt>
      <trkpt lat="43.99315" lon="6.45064">
        <ele>1001.43</ele>
        <time>2018-06-19T13:00:10Z</time>
      </trkpt>
      <trkpt lat="43.99318" lon="6.45061">
        <ele>1001.44</ele>
        <time>2018-06-19T13:00:11Z</time>
      </trkpt>
      <trkpt lat="43.99321" lon="6.45059">
        <ele>1001.44</ele>
        <time>2018-06-19T13:00:12Z</time>
      </trkpt>
      <trkpt lat="43.99326" lon="6.45057">
        <ele>1002.6</ele>
        <time>2018-06-19T13:00:13Z</time>
      </trkpt>
      <trkpt lat="43.99332" lon="6.45056">
        <ele>1002.54</ele>
        <time>2018-06-19T13:00:14Z</time>
      </trkpt>
      <trkpt lat="43.99352" lon="6.45053">
        <ele>1004.02</ele>
        <time>2018-06-19T13:00:17Z</time>
      </trkpt>
      <trkpt lat="43.9936" lon="6.45052">
        <ele>1005.74</ele>
        <time>2018-06-19T13:00:18Z</time>
      </trkpt>
      <trkpt lat="43.9937" lon="6.45054">
        <ele>1006.69</ele>
        <time>2018-06-19T13:00:19Z</time>
      </trkpt>
      <trkpt lat="43.99379" lon="6.45056">
        <ele>1006.79</ele>
        <time>2018-06-19T13:00:20Z</time>
      </trkpt>
      <trkpt lat="43.99387" lon="6.4506">
        <ele>1007.54</ele>
        <time>2018-06-19T13:00:21Z</time>
      </trkpt>
      <trkpt lat="43.99416" lon="6.45068">
        <ele>1009.59</ele>
        <time>2018-06-19T13:00:24Z</time>
      </trkpt>
      <trkpt lat="43.99435" lon="6.45071">
        <ele>1010.38</ele>
        <time>2018-06-19T13:00:26Z</time>
      </trkpt>
      <trkpt lat="43.99444" lon="6.4507">
        <ele>1010.43</ele>
        <time>2018-06-19T13:00:27Z</time>
      </trkpt>
      <trkpt lat="43.99453" lon="6.45067">
        <ele>1011.29</ele>
        <time>2018-06-19T13:00:28Z</time>
      </trkpt>
      <trkpt lat="43.99462" lon="6.45064">
        <ele>1011.34</ele>
        <time>2018-06-19T13:00:29Z</time>
      </trkpt>
      <trkpt lat="43.99472" lon="6.45062">
        <ele>1013.47</ele>
        <time>2018-06-19T13:00:30Z</time>
      </trkpt>
      <trkpt lat="43.99493" lon="6.45056">
        <ele>1014.32</ele>
        <time>2018-06-19T13:00:32Z</time>
      </trkpt>
      <trkpt lat="43.99527" lon="6.45047">
        <ele>1017.75</ele>
        <time>2018-06-19T13:00:35Z</time>
      </trkpt>
      <trkpt lat="43.99549" lon="6.45039">
        <ele>1020.31</ele>
        <time>2018-06-19T13:00:37Z</time>
      </trkpt>
      <trkpt lat="43.99559" lon="6.45033">
        <ele>1021.66</ele>
        <time>2018-06-19T13:00:38Z</time>
      </trkpt>
      <trkpt lat="43.99569" lon="6.45028">
        <ele>1023.05</ele>
        <time>2018-06-19T13:00:39Z</time>
      </trkpt>
      <trkpt lat="43.99579" lon="6.45023">
        <ele>1024.26</ele>
        <time>2018-06-19T13:00:40Z</time>
      </trkpt>
      <trkpt lat="43.99589" lon="6.45019">
        <ele>1025.42</ele>
        <time>2018-06-19T13:00:41Z</time>
      </trkpt>
      <trkpt lat="43.996" lon="6.45015">
        <ele>1026.69</ele>
        <time>2018-06-19T13:00:42Z</time>
      </trkpt>
      <trkpt lat="43.99631" lon="6.45006">
        <ele>1031.1</ele>
        <time>2018-06-19T13:00:45Z</time>
      </trkpt>
      <trkpt lat="43.99657" lon="6.44992">
        <ele>1034.32</ele>
        <time>2018-06-19T13:00:48Z</time>
      </trkpt>
      <trkpt lat="43.99663" lon="6.44986">
        <ele>1034.35</ele>
        <time>2018-06-19T13:00:49Z</time>
      </trkpt>
      <trkpt lat="43.99668" lon="6.4498">
        <ele>1035.85</ele>
        <time>2018-06-19T13:00:50Z</time>
      </trkpt>
      <trkpt lat="43.99672" lon="6.44975">
        <ele>1036</ele>
        <time>2018-06-19T13:00:51Z</time>
      </trkpt>
      <trkpt lat="43.99675" lon="6.4497">
        <ele>1035.89</ele>
        <time>2018-06-19T13:00:52Z</time>
      </trkpt>
      <trkpt lat="43.99685" lon="6.4495">
        <ele>1039.45</ele>
        <time>2018-06-19T13:00:55Z</time>
      </trkpt>
      <trkpt lat="43.99696" lon="6.4492">
        <ele>1041.51</ele>
        <time>2018-06-19T13:00:58Z</time>
      </trkpt>
      <trkpt lat="43.99702" lon="6.44913">
        <ele>1042.53</ele>
        <time>2018-06-19T13:00:59Z</time>
      </trkpt>
      <trkpt lat="43.99707" lon="6.44907">
        <ele>1042.52</ele>
        <time>2018-06-19T13:01:00Z</time>
      </trkpt>
      <trkpt lat="43.99714" lon="6.44901">
        <ele>1043.63</ele>
        <time>2018-06-19T13:01:01Z</time>
      </trkpt>
      <trkpt lat="43.99721" lon="6.44895">
        <ele>1043.64</ele>
        <time>2018-06-19T13:01:02Z</time>
      </trkpt>
      <trkpt lat="43.99734" lon="6.44882">
        <ele>1044.97</ele>
        <time>2018-06-19T13:01:04Z</time>
      </trkpt>
      <trkpt lat="43.99741" lon="6.44874">
        <ele>1046.49</ele>
        <time>2018-06-19T13:01:05Z</time>
      </trkpt>
      <trkpt lat="43.99746" lon="6.44866">
        <ele>1046.51</ele>
        <time>2018-06-19T13:01:06Z</time>
      </trkpt>
      <trkpt lat="43.99751" lon="6.44856">
        <ele>1047.7</ele>
        <time>2018-06-19T13:01:07Z</time>
      </trkpt>
      <trkpt lat="43.99755" lon="6.44846">
        <ele>1048.88</ele>
        <time>2018-06-19T13:01:08Z</time>
      </trkpt>
      <trkpt lat="43.99758" lon="6.44834">
        <ele>1049.68</ele>
        <time>2018-06-19T13:01:09Z</time>
      </trkpt>
      <trkpt lat="43.99761" lon="6.44822">
        <ele>1050.74</ele>
        <time>2018-06-19T13:01:10Z</time>
      </trkpt>
      <trkpt lat="43.99764" lon="6.44811">
        <ele>1050.74</ele>
        <time>2018-06-19T13:01:11Z</time>
      </trkpt>
      <trkpt lat="43.99768" lon="6.44801">
        <ele>1052.33</ele>
        <time>2018-06-19T13:01:12Z</time>
      </trkpt>
      <trkpt lat="43.99773" lon="6.44793">
        <ele>1053.35</ele>
        <time>2018-06-19T13:01:13Z</time>
      </trkpt>
      <trkpt lat="43.99779" lon="6.44785">
        <ele>1053.33</ele>
        <time>2018-06-19T13:01:14Z</time>
      </trkpt>
      <trkpt lat="43.99785" lon="6.44779">
        <ele>1055.28</ele>
        <time>2018-06-19T13:01:15Z</time>
      </trkpt>
      <trkpt lat="43.99792" lon="6.44774">
        <ele>1056.67</ele>
        <time>2018-06-19T13:01:16Z</time>
      </trkpt>
      <trkpt lat="43.998" lon="6.44768">
        <ele>1057.66</ele>
        <time>2018-06-19T13:01:17Z</time>
      </trkpt>
      <trkpt lat="43.99807" lon="6.44761">
        <ele>1058.81</ele>
        <time>2018-06-19T13:01:18Z</time>
      </trkpt>
      <trkpt lat="43.99813" lon="6.44754">
        <ele>1060.11</ele>
        <time>2018-06-19T13:01:19Z</time>
      </trkpt>
      <trkpt lat="43.99819" lon="6.44747">
        <ele>1061.52</ele>
        <time>2018-06-19T13:01:20Z</time>
      </trkpt>
      <trkpt lat="43.99826" lon="6.44741">
        <ele>1062.49</ele>
        <time>2018-06-19T13:01:21Z</time>
      </trkpt>
      <trkpt lat="43.99832" lon="6.44738">
        <ele>1063.65</ele>
        <time>2018-06-19T13:01:22Z</time>
      </trkpt>
      <trkpt lat="43.99839" lon="6.44739">
        <ele>1063.62</ele>
        <time>2018-06-19T13:01:23Z</time>
      </trkpt>
      <trkpt lat="43.99845" lon="6.44741">
        <ele>1065.32</ele>
        <time>2018-06-19T13:01:24Z</time>
      </trkpt>
      <trkpt lat="43.99852" lon="6.44742">
        <ele>1066.46</ele>
        <time>2018-06-19T13:01:25Z</time>
      </trkpt>
      <trkpt lat="43.99859" lon="6.44743">
        <ele>1067.77</ele>
        <time>2018-06-19T13:01:26Z</time>
      </trkpt>
      <trkpt lat="43.99866" lon="6.44742">
        <ele>1068.68</ele>
        <time>2018-06-19T13:01:27Z</time>
      </trkpt>
      <trkpt lat="43.99872" lon="6.4474">
        <ele>1068.78</ele>
        <time>2018-06-19T13:01:28Z</time>
      </trkpt>
      <trkpt lat="43.99877" lon="6.44737">
        <ele>1070.18</ele>
        <time>2018-06-19T13:01:29Z</time>
      </trkpt>
      <trkpt lat="43.99882" lon="6.44731">
        <ele>1071.1</ele>
        <time>2018-06-19T13:01:30Z</time>
      </trkpt>
      <trkpt lat="43.99888" lon="6.44725">
        <ele>1071.02</ele>
        <time>2018-06-19T13:01:31Z</time>
      </trkpt>
      <trkpt lat="43.99893" lon="6.44719">
        <ele>1072.34</ele>
        <time>2018-06-19T13:01:32Z</time>
      </trkpt>
      <trkpt lat="43.99899" lon="6.44713">
        <ele>1072.98</ele>
        <time>2018-06-19T13:01:33Z</time>
      </trkpt>
      <trkpt lat="43.99905" lon="6.44709">
        <ele>1074.07</ele>
        <time>2018-06-19T13:01:34Z</time>
      </trkpt>
      <trkpt lat="43.99912" lon="6.44706">
        <ele>1075.09</ele>
        <time>2018-06-19T13:01:35Z</time>
      </trkpt>
      <trkpt lat="43.99919" lon="6.44705">
        <ele>1075.18</ele>
        <time>2018-06-19T13:01:36Z</time>
      </trkpt>
      <trkpt lat="43.99937" lon="6.44701">
        <ele>1077.39</ele>
        <time>2018-06-19T13:01:39Z</time>
      </trkpt>
      <trkpt lat="43.99941" lon="6.44698">
        <ele>1078.51</ele>
        <time>2018-06-19T13:01:40Z</time>
      </trkpt>
      <trkpt lat="43.99945" lon="6.44693">
        <ele>1078.62</ele>
        <time>2018-06-19T13:01:41Z</time>
      </trkpt>
      <trkpt lat="43.99953" lon="6.4468">
        <ele>1080.12</ele>
        <time>2018-06-19T13:01:43Z</time>
      </trkpt>
      <trkpt lat="43.99963" lon="6.44667">
        <ele>1081.89</ele>
        <time>2018-06-19T13:01:45Z</time>
      </trkpt>
      <trkpt lat="43.99968" lon="6.44661">
        <ele>1083.38</ele>
        <time>2018-06-19T13:01:46Z</time>
      </trkpt>
      <trkpt lat="43.99986" lon="6.44643">
        <ele>1086.12</ele>
        <time>2018-06-19T13:01:49Z</time>
      </trkpt>
      <trkpt lat="43.99993" lon="6.44641">
        <ele>1087.12</ele>
        <time>2018-06-19T13:01:50Z</time>
      </trkpt>
      <trkpt lat="43.99999" lon="6.44641">
        <ele>1088.14</ele>
        <time>2018-06-19T13:01:51Z</time>
      </trkpt>
      <trkpt lat="44.00004" lon="6.44644">
        <ele>1088.85</ele>
        <time>2018-06-19T13:01:52Z</time>
      </trkpt>
      <trkpt lat="44.0001" lon="6.44649">
        <ele>1089.66</ele>
        <time>2018-06-19T13:01:53Z</time>
      </trkpt>
      <trkpt lat="44.00015" lon="6.44654">
        <ele>1091.05</ele>
        <time>2018-06-19T13:01:54Z</time>
      </trkpt>
      <trkpt lat="44.00022" lon="6.44659">
        <ele>1092.17</ele>
        <time>2018-06-19T13:01:55Z</time>
      </trkpt>
      <trkpt lat="44.00029" lon="6.44662">
        <ele>1093.36</ele>
        <time>2018-06-19T13:01:56Z</time>
      </trkpt>
      <trkpt lat="44.00036" lon="6.44663">
        <ele>1094.38</ele>
        <time>2018-06-19T13:01:57Z</time>
      </trkpt>
      <trkpt lat="44.00043" lon="6.44664">
        <ele>1095.73</ele>
        <time>2018-06-19T13:01:58Z</time>
      </trkpt>
      <trkpt lat="44.00049" lon="6.44666">
        <ele>1096.84</ele>
        <time>2018-06-19T13:01:59Z</time>
      </trkpt>
      <trkpt lat="44.00061" lon="6.44671">
        <ele>1099.34</ele>
        <time>2018-06-19T13:02:01Z</time>
      </trkpt>
      <trkpt lat="44.00067" lon="6.4467">
        <ele>1100.63</ele>
        <time>2018-06-19T13:02:02Z</time>
      </trkpt>
      <trkpt lat="44.00073" lon="6.44668">
        <ele>1101.75</ele>
        <time>2018-06-19T13:02:03Z</time>
      </trkpt>
      <trkpt lat="44.00079" lon="6.44663">
        <ele>1102.75</ele>
        <time>2018-06-19T13:02:04Z</time>
      </trkpt>
      <trkpt lat="44.00085" lon="6.44657">
        <ele>1103.62</ele>
        <time>2018-06-19T13:02:05Z</time>
      </trkpt>
      <trkpt lat="44.0009" lon="6.44649">
        <ele>1104.67</ele>
        <time>2018-06-19T13:02:06Z</time>
      </trkpt>
      <trkpt lat="44.00095" lon="6.44641">
        <ele>1105.84</ele>
        <time>2018-06-19T13:02:07Z</time>
      </trkpt>
      <trkpt lat="44.00099" lon="6.44633">
        <ele>1106.96</ele>
        <time>2018-06-19T13:02:08Z</time>
      </trkpt>
      <trkpt lat="44.00103" lon="6.44624">
        <ele>1108.2</ele>
        <time>2018-06-19T13:02:09Z</time>
      </trkpt>
      <trkpt lat="44.00108" lon="6.44616">
        <ele>1109.28</ele>
        <time>2018-06-19T13:02:10Z</time>
      </trkpt>
      <trkpt lat="44.00114" lon="6.44609">
        <ele>1110.47</ele>
        <time>2018-06-19T13:02:11Z</time>
      </trkpt>
      <trkpt lat="44.0012" lon="6.44602">
        <ele>1111.6</ele>
        <time>2018-06-19T13:02:12Z</time>
      </trkpt>
      <trkpt lat="44.00128" lon="6.44596">
        <ele>1113.26</ele>
        <time>2018-06-19T13:02:13Z</time>
      </trkpt>
      <trkpt lat="44.00136" lon="6.4459">
        <ele>1114.7</ele>
        <time>2018-06-19T13:02:14Z</time>
      </trkpt>
      <trkpt lat="44.00143" lon="6.44582">
        <ele>1115.98</ele>
        <time>2018-06-19T13:02:15Z</time>
      </trkpt>
      <trkpt lat="44.00149" lon="6.44575">
        <ele>1117.26</ele>
        <time>2018-06-19T13:02:16Z</time>
      </trkpt>
      <trkpt lat="44.00155" lon="6.44571">
        <ele>1118.41</ele>
        <time>2018-06-19T13:02:17Z</time>
      </trkpt>
      <trkpt lat="44.00161" lon="6.44568">
        <ele>1119.3</ele>
        <time>2018-06-19T13:02:18Z</time>
      </trkpt>
      <trkpt lat="44.00166" lon="6.44569">
        <ele>1120.2</ele>
        <time>2018-06-19T13:02:19Z</time>
      </trkpt>
      <trkpt lat="44.00171" lon="6.44569">
        <ele>1120.01</ele>
        <time>2018-06-19T13:02:20Z</time>
      </trkpt>
      <trkpt lat="44.00177" lon="6.44568">
        <ele>1121.74</ele>
        <time>2018-06-19T13:02:21Z</time>
      </trkpt>
      <trkpt lat="44.00181" lon="6.44564">
        <ele>1122.54</ele>
        <time>2018-06-19T13:02:22Z</time>
      </trkpt>
      <trkpt lat="44.00187" lon="6.4456">
        <ele>1123.93</ele>
        <time>2018-06-19T13:02:23Z</time>
      </trkpt>
      <trkpt lat="44.00204" lon="6.44542">
        <ele>1127.44</ele>
        <time>2018-06-19T13:02:26Z</time>
      </trkpt>
      <trkpt lat="44.00225" lon="6.44521">
        <ele>1130.76</ele>
        <time>2018-06-19T13:02:29Z</time>
      </trkpt>
      <trkpt lat="44.00233" lon="6.44514">
        <ele>1130.9</ele>
        <time>2018-06-19T13:02:30Z</time>
      </trkpt>
      <trkpt lat="44.0025" lon="6.44504">
        <ele>1132.27</ele>
        <time>2018-06-19T13:02:32Z</time>
      </trkpt>
      <trkpt lat="44.0026" lon="6.44501">
        <ele>1133.63</ele>
        <time>2018-06-19T13:02:33Z</time>
      </trkpt>
      <trkpt lat="44.0027" lon="6.44499">
        <ele>1134.38</ele>
        <time>2018-06-19T13:02:34Z</time>
      </trkpt>
      <trkpt lat="44.00281" lon="6.445">
        <ele>1135.57</ele>
        <time>2018-06-19T13:02:35Z</time>
      </trkpt>
      <trkpt lat="44.00292" lon="6.44502">
        <ele>1136.45</ele>
        <time>2018-06-19T13:02:36Z</time>
      </trkpt>
      <trkpt lat="44.00323" lon="6.44504">
        <ele>1139.51</ele>
        <time>2018-06-19T13:02:39Z</time>
      </trkpt>
      <trkpt lat="44.00333" lon="6.44502">
        <ele>1140.7</ele>
        <time>2018-06-19T13:02:40Z</time>
      </trkpt>
      <trkpt lat="44.00351" lon="6.44502">
        <ele>1143.67</ele>
        <time>2018-06-19T13:02:42Z</time>
      </trkpt>
      <trkpt lat="44.0036" lon="6.44504">
        <ele>1145.18</ele>
        <time>2018-06-19T13:02:43Z</time>
      </trkpt>
      <trkpt lat="44.00376" lon="6.44507">
        <ele>1147.24</ele>
        <time>2018-06-19T13:02:45Z</time>
      </trkpt>
      <trkpt lat="44.00382" lon="6.44507">
        <ele>1148.01</ele>
        <time>2018-06-19T13:02:46Z</time>
      </trkpt>
      <trkpt lat="44.00388" lon="6.44505">
        <ele>1147.99</ele>
        <time>2018-06-19T13:02:47Z</time>
      </trkpt>
      <trkpt lat="44.00409" lon="6.44495">
        <ele>1152.26</ele>
        <time>2018-06-19T13:02:50Z</time>
      </trkpt>
      <trkpt lat="44.00432" lon="6.44484">
        <ele>1156.5</ele>
        <time>2018-06-19T13:02:53Z</time>
      </trkpt>
      <trkpt lat="44.00448" lon="6.44476">
        <ele>1159.83</ele>
        <time>2018-06-19T13:02:55Z</time>
      </trkpt>
      <trkpt lat="44.00463" lon="6.44466">
        <ele>1163.01</ele>
        <time>2018-06-19T13:02:57Z</time>
      </trkpt>
      <trkpt lat="44.00486" lon="6.44453">
        <ele>1167.38</ele>
        <time>2018-06-19T13:03:00Z</time>
      </trkpt>
      <trkpt lat="44.00497" lon="6.44447">
        <ele>1168.91</ele>
        <time>2018-06-19T13:03:02Z</time>
      </trkpt>
      <trkpt lat="44.00504" lon="6.44442">
        <ele>1170.08</ele>
        <time>2018-06-19T13:03:04Z</time>
      </trkpt>
      <trkpt lat="44.00519" lon="6.44433">
        <ele>1171.94</ele>
        <time>2018-06-19T13:03:07Z</time>
      </trkpt>
      <trkpt lat="44.00524" lon="6.44428">
        <ele>1173.79</ele>
        <time>2018-06-19T13:03:08Z</time>
      </trkpt>
      <trkpt lat="44.00529" lon="6.44425">
        <ele>1173.28</ele>
        <time>2018-06-19T13:03:09Z</time>
      </trkpt>
      <trkpt lat="44.00535" lon="6.44423">
        <ele>1174.6</ele>
        <time>2018-06-19T13:03:10Z</time>
      </trkpt>
      <trkpt lat="44.00541" lon="6.44423">
        <ele>1174.61</ele>
        <time>2018-06-19T13:03:11Z</time>
      </trkpt>
      <trkpt lat="44.00548" lon="6.44424">
        <ele>1175.83</ele>
        <time>2018-06-19T13:03:12Z</time>
      </trkpt>
      <trkpt lat="44.00556" lon="6.44426">
        <ele>1175.82</ele>
        <time>2018-06-19T13:03:13Z</time>
      </trkpt>
      <trkpt lat="44.00563" lon="6.44428">
        <ele>1176.7</ele>
        <time>2018-06-19T13:03:14Z</time>
      </trkpt>
      <trkpt lat="44.00571" lon="6.4443">
        <ele>1176.69</ele>
        <time>2018-06-19T13:03:15Z</time>
      </trkpt>
      <trkpt lat="44.00579" lon="6.44431">
        <ele>1177.69</ele>
        <time>2018-06-19T13:03:16Z</time>
      </trkpt>
      <trkpt lat="44.00586" lon="6.44431">
        <ele>1177.76</ele>
        <time>2018-06-19T13:03:17Z</time>
      </trkpt>
      <trkpt lat="44.00594" lon="6.44429">
        <ele>1178.78</ele>
        <time>2018-06-19T13:03:18Z</time>
      </trkpt>
      <trkpt lat="44.006" lon="6.44426">
        <ele>1178.79</ele>
        <time>2018-06-19T13:03:19Z</time>
      </trkpt>
      <trkpt lat="44.00606" lon="6.44423">
        <ele>1178.85</ele>
        <time>2018-06-19T13:03:20Z</time>
      </trkpt>
      <trkpt lat="44.00611" lon="6.44421">
        <ele>1178.88</ele>
        <time>2018-06-19T13:03:21Z</time>
      </trkpt>
      <trkpt lat="44.00617" lon="6.44423">
        <ele>1178.89</ele>
        <time>2018-06-19T13:03:22Z</time>
      </trkpt>
      <trkpt lat="44.00623" lon="6.44428">
        <ele>1180.16</ele>
        <time>2018-06-19T13:03:23Z</time>
      </trkpt>
      <trkpt lat="44.00628" lon="6.44435">
        <ele>1181.08</ele>
        <time>2018-06-19T13:03:24Z</time>
      </trkpt>
      <trkpt lat="44.00633" lon="6.44441">
        <ele>1181.12</ele>
        <time>2018-06-19T13:03:25Z</time>
      </trkpt>
      <trkpt lat="44.0064" lon="6.44447">
        <ele>1182.29</ele>
        <time>2018-06-19T13:03:30Z</time>
      </trkpt>
      <trkpt lat="44.00646" lon="6.44448">
        <ele>1182.28</ele>
        <time>2018-06-19T13:03:39Z</time>
      </trkpt>
      <trkpt lat="44.00649" lon="6.44447">
        <ele>1183.57</ele>
        <time>2018-06-19T13:03:40Z</time>
      </trkpt>
      <trkpt lat="44.00653" lon="6.44445">
        <ele>1183.59</ele>
        <time>2018-06-19T13:03:41Z</time>
      </trkpt>
      <trkpt lat="44.00658" lon="6.44443">
        <ele>1185.39</ele>
        <time>2018-06-19T13:03:42Z</time>
      </trkpt>
      <trkpt lat="44.00663" lon="6.44442">
        <ele>1186.71</ele>
        <time>2018-06-19T13:03:43Z</time>
      </trkpt>
      <trkpt lat="44.00669" lon="6.44442">
        <ele>1188.08</ele>
        <time>2018-06-19T13:03:44Z</time>
      </trkpt>
      <trkpt lat="44.00675" lon="6.44442">
        <ele>1189.62</ele>
        <time>2018-06-19T13:03:45Z</time>
      </trkpt>
      <trkpt lat="44.0068" lon="6.4444">
        <ele>1191</ele>
        <time>2018-06-19T13:03:46Z</time>
      </trkpt>
      <trkpt lat="44.00686" lon="6.44438">
        <ele>1192.33</ele>
        <time>2018-06-19T13:03:47Z</time>
      </trkpt>
      <trkpt lat="44.00702" lon="6.44432">
        <ele>1195.48</ele>
        <time>2018-06-19T13:03:50Z</time>
      </trkpt>
      <trkpt lat="44.00712" lon="6.44427">
        <ele>1196.91</ele>
        <time>2018-06-19T13:03:52Z</time>
      </trkpt>
      <trkpt lat="44.00721" lon="6.44423">
        <ele>1198.4</ele>
        <time>2018-06-19T13:03:54Z</time>
      </trkpt>
      <trkpt lat="44.00742" lon="6.44405">
        <ele>1196.14</ele>
        <time>2018-06-19T13:04:04Z</time>
      </trkpt>
      <trkpt lat="44.00753" lon="6.44405">
        <ele>1193</ele>
        <time>2018-06-19T13:04:07Z</time>
      </trkpt>
      <trkpt lat="44.0076" lon="6.44407">
        <ele>1191.76</ele>
        <time>2018-06-19T13:04:08Z</time>
      </trkpt>
      <trkpt lat="44.00766" lon="6.44409">
        <ele>1190.92</ele>
        <time>2018-06-19T13:04:09Z</time>
      </trkpt>
      <trkpt lat="44.00773" lon="6.44411">
        <ele>1190.9</ele>
        <time>2018-06-19T13:04:10Z</time>
      </trkpt>
      <trkpt lat="44.00797" lon="6.44422">
        <ele>1187.23</ele>
        <time>2018-06-19T13:04:14Z</time>
      </trkpt>
      <trkpt lat="44.0082" lon="6.44429">
        <ele>1183.41</ele>
        <time>2018-06-19T13:04:18Z</time>
      </trkpt>
      <trkpt lat="44.00829" lon="6.44431">
        <ele>1181.64</ele>
        <time>2018-06-19T13:04:20Z</time>
      </trkpt>
      <trkpt lat="44.00834" lon="6.44432">
        <ele>1180.89</ele>
        <time>2018-06-19T13:04:21Z</time>
      </trkpt>
      <trkpt lat="44.0084" lon="6.44434">
        <ele>1180.08</ele>
        <time>2018-06-19T13:04:22Z</time>
      </trkpt>
      <trkpt lat="44.00846" lon="6.44435">
        <ele>1180.1</ele>
        <time>2018-06-19T13:04:23Z</time>
      </trkpt>
      <trkpt lat="44.00876" lon="6.44446">
        <ele>1177.71</ele>
        <time>2018-06-19T13:04:27Z</time>
      </trkpt>
      <trkpt lat="44.00893" lon="6.44452">
        <ele>1175.82</ele>
        <time>2018-06-19T13:04:30Z</time>
      </trkpt>
      <trkpt lat="44.00896" lon="6.44454">
        <ele>1174.46</ele>
        <time>2018-06-19T13:04:31Z</time>
      </trkpt>
      <trkpt lat="44.009" lon="6.44458">
        <ele>1174.51</ele>
        <time>2018-06-19T13:04:32Z</time>
      </trkpt>
      <trkpt lat="44.00907" lon="6.44466">
        <ele>1173.47</ele>
        <time>2018-06-19T13:04:34Z</time>
      </trkpt>
      <trkpt lat="44.00911" lon="6.44467">
        <ele>1172.28</ele>
        <time>2018-06-19T13:04:35Z</time>
      </trkpt>
      <trkpt lat="44.00917" lon="6.44466">
        <ele>1172.94</ele>
        <time>2018-06-19T13:04:36Z</time>
      </trkpt>
      <trkpt lat="44.00923" lon="6.44464">
        <ele>1172.94</ele>
        <time>2018-06-19T13:04:37Z</time>
      </trkpt>
      <trkpt lat="44.0093" lon="6.44461">
        <ele>1172.95</ele>
        <time>2018-06-19T13:04:38Z</time>
      </trkpt>
      <trkpt lat="44.00938" lon="6.44457">
        <ele>1172.88</ele>
        <time>2018-06-19T13:04:39Z</time>
      </trkpt>
      <trkpt lat="44.00945" lon="6.44452">
        <ele>1171.8</ele>
        <time>2018-06-19T13:04:40Z</time>
      </trkpt>
      <trkpt lat="44.00964" lon="6.44437">
        <ele>1169.17</ele>
        <time>2018-06-19T13:04:43Z</time>
      </trkpt>
      <trkpt lat="44.00969" lon="6.44434">
        <ele>1169.18</ele>
        <time>2018-06-19T13:04:44Z</time>
      </trkpt>
      <trkpt lat="44.00973" lon="6.44433">
        <ele>1168.27</ele>
        <time>2018-06-19T13:04:45Z</time>
      </trkpt>
      <trkpt lat="44.00977" lon="6.44434">
        <ele>1168.26</ele>
        <time>2018-06-19T13:04:46Z</time>
      </trkpt>
      <trkpt lat="44.00982" lon="6.44436">
        <ele>1167.3</ele>
        <time>2018-06-19T13:04:47Z</time>
      </trkpt>
      <trkpt lat="44.00989" lon="6.44437">
        <ele>1167.36</ele>
        <time>2018-06-19T13:04:48Z</time>
      </trkpt>
      <trkpt lat="44.00995" lon="6.44436">
        <ele>1166.33</ele>
        <time>2018-06-19T13:04:49Z</time>
      </trkpt>
      <trkpt lat="44.01002" lon="6.44433">
        <ele>1166.3</ele>
        <time>2018-06-19T13:04:50Z</time>
      </trkpt>
      <trkpt lat="44.0101" lon="6.4443">
        <ele>1166.32</ele>
        <time>2018-06-19T13:04:51Z</time>
      </trkpt>
      <trkpt lat="44.01018" lon="6.44425">
        <ele>1166.38</ele>
        <time>2018-06-19T13:04:52Z</time>
      </trkpt>
      <trkpt lat="44.01025" lon="6.44419">
        <ele>1166.38</ele>
        <time>2018-06-19T13:04:53Z</time>
      </trkpt>
      <trkpt lat="44.01033" lon="6.44411">
        <ele>1166.42</ele>
        <time>2018-06-19T13:04:54Z</time>
      </trkpt>
      <trkpt lat="44.0104" lon="6.44402">
        <ele>1166.42</ele>
        <time>2018-06-19T13:04:55Z</time>
      </trkpt>
      <trkpt lat="44.01046" lon="6.44392">
        <ele>1166.43</ele>
        <time>2018-06-19T13:04:56Z</time>
      </trkpt>
      <trkpt lat="44.01053" lon="6.44382">
        <ele>1166.45</ele>
        <time>2018-06-19T13:04:57Z</time>
      </trkpt>
      <trkpt lat="44.0106" lon="6.44373">
        <ele>1166.49</ele>
        <time>2018-06-19T13:04:58Z</time>
      </trkpt>
      <trkpt lat="44.0108" lon="6.44352">
        <ele>1166.54</ele>
        <time>2018-06-19T13:05:01Z</time>
      </trkpt>
      <trkpt lat="44.01086" lon="6.44348">
        <ele>1166.56</ele>
        <time>2018-06-19T13:05:02Z</time>
      </trkpt>
      <trkpt lat="44.01093" lon="6.44346">
        <ele>1166.57</ele>
        <time>2018-06-19T13:05:03Z</time>
      </trkpt>
      <trkpt lat="44.01146" lon="6.44335">
        <ele>1166.74</ele>
        <time>2018-06-19T13:05:10Z</time>
      </trkpt>
      <trkpt lat="44.01153" lon="6.44336">
        <ele>1166.75</ele>
        <time>2018-06-19T13:05:11Z</time>
      </trkpt>
      <trkpt lat="44.01161" lon="6.44336">
        <ele>1166.76</ele>
        <time>2018-06-19T13:05:12Z</time>
      </trkpt>
      <trkpt lat="44.01169" lon="6.44336">
        <ele>1166.75</ele>
        <time>2018-06-19T13:05:13Z</time>
      </trkpt>
      <trkpt lat="44.01177" lon="6.44334">
        <ele>1166.79</ele>
        <time>2018-06-19T13:05:14Z</time>
      </trkpt>
      <trkpt lat="44.01184" lon="6.44331">
        <ele>1166.88</ele>
        <time>2018-06-19T13:05:15Z</time>
      </trkpt>
      <trkpt lat="44.0119" lon="6.44328">
        <ele>1166.81</ele>
        <time>2018-06-19T13:05:16Z</time>
      </trkpt>
      <trkpt lat="44.01205" lon="6.44322">
        <ele>1169.25</ele>
        <time>2018-06-19T13:05:19Z</time>
      </trkpt>
      <trkpt lat="44.01208" lon="6.4432">
        <ele>1169.27</ele>
        <time>2018-06-19T13:05:20Z</time>
      </trkpt>
      <trkpt lat="44.0121" lon="6.44319">
        <ele>1169.29</ele>
        <time>2018-06-19T13:05:21Z</time>
      </trkpt>
      <trkpt lat="44.01217" lon="6.44318">
        <ele>1169.51</ele>
        <time>2018-06-19T13:05:34Z</time>
      </trkpt>
      <trkpt lat="44.01227" lon="6.44316">
        <ele>1170.71</ele>
        <time>2018-06-19T13:05:36Z</time>
      </trkpt>
      <trkpt lat="44.01233" lon="6.44313">
        <ele>1171.79</ele>
        <time>2018-06-19T13:05:37Z</time>
      </trkpt>
      <trkpt lat="44.01239" lon="6.4431">
        <ele>1171.79</ele>
        <time>2018-06-19T13:05:38Z</time>
      </trkpt>
      <trkpt lat="44.01245" lon="6.44305">
        <ele>1172.63</ele>
        <time>2018-06-19T13:05:39Z</time>
      </trkpt>
      <trkpt lat="44.01251" lon="6.44298">
        <ele>1172.67</ele>
        <time>2018-06-19T13:05:40Z</time>
      </trkpt>
      <trkpt lat="44.01256" lon="6.44291">
        <ele>1174.31</ele>
        <time>2018-06-19T13:05:41Z</time>
      </trkpt>
      <trkpt lat="44.01273" lon="6.44271">
        <ele>1177.38</ele>
        <time>2018-06-19T13:05:44Z</time>
      </trkpt>
      <trkpt lat="44.0128" lon="6.44265">
        <ele>1177.38</ele>
        <time>2018-06-19T13:05:45Z</time>
      </trkpt>
      <trkpt lat="44.01294" lon="6.44254">
        <ele>1177.41</ele>
        <time>2018-06-19T13:05:47Z</time>
      </trkpt>
      <trkpt lat="44.01301" lon="6.4425">
        <ele>1177.45</ele>
        <time>2018-06-19T13:05:48Z</time>
      </trkpt>
      <trkpt lat="44.01309" lon="6.44248">
        <ele>1177.49</ele>
        <time>2018-06-19T13:05:49Z</time>
      </trkpt>
      <trkpt lat="44.01318" lon="6.44246">
        <ele>1177.5</ele>
        <time>2018-06-19T13:05:50Z</time>
      </trkpt>
      <trkpt lat="44.01326" lon="6.44246">
        <ele>1177.54</ele>
        <time>2018-06-19T13:05:51Z</time>
      </trkpt>
      <trkpt lat="44.01334" lon="6.44244">
        <ele>1177.56</ele>
        <time>2018-06-19T13:05:52Z</time>
      </trkpt>
      <trkpt lat="44.01342" lon="6.44242">
        <ele>1177.57</ele>
        <time>2018-06-19T13:05:53Z</time>
      </trkpt>
      <trkpt lat="44.01349" lon="6.44238">
        <ele>1177.62</ele>
        <time>2018-06-19T13:05:54Z</time>
      </trkpt>
      <trkpt lat="44.01355" lon="6.44232">
        <ele>1179.11</ele>
        <time>2018-06-19T13:05:55Z</time>
      </trkpt>
      <trkpt lat="44.01359" lon="6.44224">
        <ele>1180.13</ele>
        <time>2018-06-19T13:05:56Z</time>
      </trkpt>
      <trkpt lat="44.01364" lon="6.44218">
        <ele>1181.29</ele>
        <time>2018-06-19T13:05:57Z</time>
      </trkpt>
      <trkpt lat="44.01369" lon="6.44212">
        <ele>1182.16</ele>
        <time>2018-06-19T13:05:58Z</time>
      </trkpt>
      <trkpt lat="44.01374" lon="6.44207">
        <ele>1182.11</ele>
        <time>2018-06-19T13:05:59Z</time>
      </trkpt>
      <trkpt lat="44.0138" lon="6.44203">
        <ele>1182.99</ele>
        <time>2018-06-19T13:06:00Z</time>
      </trkpt>
      <trkpt lat="44.01387" lon="6.44201">
        <ele>1183.44</ele>
        <time>2018-06-19T13:06:01Z</time>
      </trkpt>
      <trkpt lat="44.01394" lon="6.44199">
        <ele>1183.71</ele>
        <time>2018-06-19T13:06:02Z</time>
      </trkpt>
      <trkpt lat="44.01401" lon="6.44198">
        <ele>1184.3</ele>
        <time>2018-06-19T13:06:03Z</time>
      </trkpt>
      <trkpt lat="44.01429" lon="6.44196">
        <ele>1184.36</ele>
        <time>2018-06-19T13:06:07Z</time>
      </trkpt>
      <trkpt lat="44.01462" lon="6.44199">
        <ele>1184.44</ele>
        <time>2018-06-19T13:06:11Z</time>
      </trkpt>
      <trkpt lat="44.01469" lon="6.44198">
        <ele>1184.44</ele>
        <time>2018-06-19T13:06:12Z</time>
      </trkpt>
      <trkpt lat="44.01476" lon="6.44195">
        <ele>1181.8</ele>
        <time>2018-06-19T13:06:13Z</time>
      </trkpt>
      <trkpt lat="44.01483" lon="6.44191">
        <ele>1181.79</ele>
        <time>2018-06-19T13:06:14Z</time>
      </trkpt>
      <trkpt lat="44.01491" lon="6.44186">
        <ele>1181.02</ele>
        <time>2018-06-19T13:06:15Z</time>
      </trkpt>
      <trkpt lat="44.01499" lon="6.4418">
        <ele>1181.03</ele>
        <time>2018-06-19T13:06:16Z</time>
      </trkpt>
      <trkpt lat="44.01507" lon="6.44174">
        <ele>1181.02</ele>
        <time>2018-06-19T13:06:17Z</time>
      </trkpt>
      <trkpt lat="44.01516" lon="6.4417">
        <ele>1181.01</ele>
        <time>2018-06-19T13:06:18Z</time>
      </trkpt>
      <trkpt lat="44.01532" lon="6.4416">
        <ele>1181.01</ele>
        <time>2018-06-19T13:06:20Z</time>
      </trkpt>
      <trkpt lat="44.01539" lon="6.44154">
        <ele>1180.09</ele>
        <time>2018-06-19T13:06:21Z</time>
      </trkpt>
      <trkpt lat="44.01544" lon="6.44146">
        <ele>1180.07</ele>
        <time>2018-06-19T13:06:22Z</time>
      </trkpt>
      <trkpt lat="44.01549" lon="6.44137">
        <ele>1179.24</ele>
        <time>2018-06-19T13:06:23Z</time>
      </trkpt>
      <trkpt lat="44.01552" lon="6.44127">
        <ele>1179.23</ele>
        <time>2018-06-19T13:06:24Z</time>
      </trkpt>
      <trkpt lat="44.01556" lon="6.44117">
        <ele>1179.23</ele>
        <time>2018-06-19T13:06:25Z</time>
      </trkpt>
      <trkpt lat="44.0156" lon="6.44109">
        <ele>1179.23</ele>
        <time>2018-06-19T13:06:26Z</time>
      </trkpt>
      <trkpt lat="44.01565" lon="6.44104">
        <ele>1179.24</ele>
        <time>2018-06-19T13:06:27Z</time>
      </trkpt>
      <trkpt lat="44.01571" lon="6.44101">
        <ele>1179.31</ele>
        <time>2018-06-19T13:06:28Z</time>
      </trkpt>
      <trkpt lat="44.01577" lon="6.44099">
        <ele>1179.39</ele>
        <time>2018-06-19T13:06:29Z</time>
      </trkpt>
      <trkpt lat="44.01585" lon="6.44097">
        <ele>1178.5</ele>
        <time>2018-06-19T13:06:30Z</time>
      </trkpt>
      <trkpt lat="44.01592" lon="6.44095">
        <ele>1178.53</ele>
        <time>2018-06-19T13:06:31Z</time>
      </trkpt>
      <trkpt lat="44.01599" lon="6.4409">
        <ele>1177.1</ele>
        <time>2018-06-19T13:06:32Z</time>
      </trkpt>
      <trkpt lat="44.01604" lon="6.44084">
        <ele>1177.1</ele>
        <time>2018-06-19T13:06:33Z</time>
      </trkpt>
      <trkpt lat="44.0161" lon="6.44075">
        <ele>1177.1</ele>
        <time>2018-06-19T13:06:34Z</time>
      </trkpt>
      <trkpt lat="44.01616" lon="6.44066">
        <ele>1177.12</ele>
        <time>2018-06-19T13:06:35Z</time>
      </trkpt>
      <trkpt lat="44.01653" lon="6.44013">
        <ele>1177.29</ele>
        <time>2018-06-19T13:06:41Z</time>
      </trkpt>
      <trkpt lat="44.01658" lon="6.44004">
        <ele>1177.33</ele>
        <time>2018-06-19T13:06:42Z</time>
      </trkpt>
      <trkpt lat="44.01662" lon="6.43994">
        <ele>1179.72</ele>
        <time>2018-06-19T13:06:43Z</time>
      </trkpt>
      <trkpt lat="44.01671" lon="6.43975">
        <ele>1180.58</ele>
        <time>2018-06-19T13:06:45Z</time>
      </trkpt>
      <trkpt lat="44.01676" lon="6.43967">
        <ele>1182.6</ele>
        <time>2018-06-19T13:06:46Z</time>
      </trkpt>
      <trkpt lat="44.01683" lon="6.43959">
        <ele>1182.67</ele>
        <time>2018-06-19T13:06:47Z</time>
      </trkpt>
      <trkpt lat="44.01691" lon="6.43952">
        <ele>1183.91</ele>
        <time>2018-06-19T13:06:48Z</time>
      </trkpt>
      <trkpt lat="44.01699" lon="6.43947">
        <ele>1184.56</ele>
        <time>2018-06-19T13:06:49Z</time>
      </trkpt>
      <trkpt lat="44.01706" lon="6.4394">
        <ele>1184.93</ele>
        <time>2018-06-19T13:06:50Z</time>
      </trkpt>
      <trkpt lat="44.01713" lon="6.43933">
        <ele>1185.66</ele>
        <time>2018-06-19T13:06:51Z</time>
      </trkpt>
      <trkpt lat="44.0172" lon="6.43926">
        <ele>1186.76</ele>
        <time>2018-06-19T13:06:52Z</time>
      </trkpt>
      <trkpt lat="44.01727" lon="6.43918">
        <ele>1186.77</ele>
        <time>2018-06-19T13:06:53Z</time>
      </trkpt>
      <trkpt lat="44.01734" lon="6.4391">
        <ele>1188.72</ele>
        <time>2018-06-19T13:06:54Z</time>
      </trkpt>
      <trkpt lat="44.01742" lon="6.43904">
        <ele>1189.82</ele>
        <time>2018-06-19T13:06:55Z</time>
      </trkpt>
      <trkpt lat="44.0175" lon="6.43899">
        <ele>1190.69</ele>
        <time>2018-06-19T13:06:56Z</time>
      </trkpt>
      <trkpt lat="44.01759" lon="6.43894">
        <ele>1191.77</ele>
        <time>2018-06-19T13:06:57Z</time>
      </trkpt>
      <trkpt lat="44.01768" lon="6.4389">
        <ele>1192.77</ele>
        <time>2018-06-19T13:06:58Z</time>
      </trkpt>
      <trkpt lat="44.01778" lon="6.43887">
        <ele>1192.78</ele>
        <time>2018-06-19T13:06:59Z</time>
      </trkpt>
      <trkpt lat="44.01787" lon="6.43885">
        <ele>1193.91</ele>
        <time>2018-06-19T13:07:00Z</time>
      </trkpt>
      <trkpt lat="44.01797" lon="6.43884">
        <ele>1194.11</ele>
        <time>2018-06-19T13:07:01Z</time>
      </trkpt>
      <trkpt lat="44.01807" lon="6.43883">
        <ele>1195.3</ele>
        <time>2018-06-19T13:07:02Z</time>
      </trkpt>
      <trkpt lat="44.01837" lon="6.4388">
        <ele>1197.93</ele>
        <time>2018-06-19T13:07:05Z</time>
      </trkpt>
      <trkpt lat="44.01866" lon="6.43869">
        <ele>1201.06</ele>
        <time>2018-06-19T13:07:08Z</time>
      </trkpt>
      <trkpt lat="44.01895" lon="6.43857">
        <ele>1204.48</ele>
        <time>2018-06-19T13:07:11Z</time>
      </trkpt>
      <trkpt lat="44.0191" lon="6.43852">
        <ele>1206.8</ele>
        <time>2018-06-19T13:07:13Z</time>
      </trkpt>
      <trkpt lat="44.01915" lon="6.43848">
        <ele>1206.77</ele>
        <time>2018-06-19T13:07:14Z</time>
      </trkpt>
      <trkpt lat="44.01918" lon="6.43843">
        <ele>1207.67</ele>
        <time>2018-06-19T13:07:15Z</time>
      </trkpt>
      <trkpt lat="44.01919" lon="6.43838">
        <ele>1208.74</ele>
        <time>2018-06-19T13:07:16Z</time>
      </trkpt>
      <trkpt lat="44.01917" lon="6.43831">
        <ele>1208.81</ele>
        <time>2018-06-19T13:07:17Z</time>
      </trkpt>
      <trkpt lat="44.01914" lon="6.43824">
        <ele>1209.64</ele>
        <time>2018-06-19T13:07:18Z</time>
      </trkpt>
      <trkpt lat="44.0191" lon="6.43817">
        <ele>1209.8</ele>
        <time>2018-06-19T13:07:19Z</time>
      </trkpt>
      <trkpt lat="44.01905" lon="6.43809">
        <ele>1209.66</ele>
        <time>2018-06-19T13:07:20Z</time>
      </trkpt>
      <trkpt lat="44.01886" lon="6.43785">
        <ele>1210.53</ele>
        <time>2018-06-19T13:07:23Z</time>
      </trkpt>
      <trkpt lat="44.0188" lon="6.4378">
        <ele>1210.41</ele>
        <time>2018-06-19T13:07:24Z</time>
      </trkpt>
      <trkpt lat="44.01873" lon="6.43777">
        <ele>1211.76</ele>
        <time>2018-06-19T13:07:25Z</time>
      </trkpt>
      <trkpt lat="44.01868" lon="6.43773">
        <ele>1211.71</ele>
        <time>2018-06-19T13:07:26Z</time>
      </trkpt>
      <trkpt lat="44.01864" lon="6.43768">
        <ele>1213.11</ele>
        <time>2018-06-19T13:07:27Z</time>
      </trkpt>
      <trkpt lat="44.01862" lon="6.43762">
        <ele>1213.13</ele>
        <time>2018-06-19T13:07:28Z</time>
      </trkpt>
      <trkpt lat="44.01861" lon="6.43755">
        <ele>1214.63</ele>
        <time>2018-06-19T13:07:29Z</time>
      </trkpt>
      <trkpt lat="44.01861" lon="6.43747">
        <ele>1214.62</ele>
        <time>2018-06-19T13:07:30Z</time>
      </trkpt>
      <trkpt lat="44.01864" lon="6.4374">
        <ele>1215.59</ele>
        <time>2018-06-19T13:07:31Z</time>
      </trkpt>
      <trkpt lat="44.01869" lon="6.43733">
        <ele>1215.62</ele>
        <time>2018-06-19T13:07:32Z</time>
      </trkpt>
      <trkpt lat="44.01875" lon="6.43727">
        <ele>1215.19</ele>
        <time>2018-06-19T13:07:33Z</time>
      </trkpt>
      <trkpt lat="44.01882" lon="6.43722">
        <ele>1215.54</ele>
        <time>2018-06-19T13:07:34Z</time>
      </trkpt>
      <trkpt lat="44.01889" lon="6.43717">
        <ele>1216.39</ele>
        <time>2018-06-19T13:07:35Z</time>
      </trkpt>
      <trkpt lat="44.0192" lon="6.437">
        <ele>1220.13</ele>
        <time>2018-06-19T13:07:39Z</time>
      </trkpt>
      <trkpt lat="44.01927" lon="6.43697">
        <ele>1220.16</ele>
        <time>2018-06-19T13:07:40Z</time>
      </trkpt>
      <trkpt lat="44.01934" lon="6.43695">
        <ele>1221.06</ele>
        <time>2018-06-19T13:07:41Z</time>
      </trkpt>
      <trkpt lat="44.01942" lon="6.43694">
        <ele>1221.09</ele>
        <time>2018-06-19T13:07:42Z</time>
      </trkpt>
      <trkpt lat="44.01951" lon="6.43693">
        <ele>1221.14</ele>
        <time>2018-06-19T13:07:43Z</time>
      </trkpt>
      <trkpt lat="44.0196" lon="6.43693">
        <ele>1221.92</ele>
        <time>2018-06-19T13:07:44Z</time>
      </trkpt>
      <trkpt lat="44.01988" lon="6.43692">
        <ele>1222.83</ele>
        <time>2018-06-19T13:07:47Z</time>
      </trkpt>
      <trkpt lat="44.01997" lon="6.43689">
        <ele>1222.83</ele>
        <time>2018-06-19T13:07:48Z</time>
      </trkpt>
      <trkpt lat="44.02005" lon="6.43685">
        <ele>1223.7</ele>
        <time>2018-06-19T13:07:49Z</time>
      </trkpt>
      <trkpt lat="44.02013" lon="6.4368">
        <ele>1223.7</ele>
        <time>2018-06-19T13:07:50Z</time>
      </trkpt>
      <trkpt lat="44.02021" lon="6.43674">
        <ele>1224.75</ele>
        <time>2018-06-19T13:07:51Z</time>
      </trkpt>
      <trkpt lat="44.02042" lon="6.43657">
        <ele>1225.77</ele>
        <time>2018-06-19T13:07:54Z</time>
      </trkpt>
      <trkpt lat="44.0205" lon="6.43653">
        <ele>1225.85</ele>
        <time>2018-06-19T13:07:55Z</time>
      </trkpt>
      <trkpt lat="44.02057" lon="6.4365">
        <ele>1225.82</ele>
        <time>2018-06-19T13:07:56Z</time>
      </trkpt>
      <trkpt lat="44.02141" lon="6.43637">
        <ele>1226.92</ele>
        <time>2018-06-19T13:08:04Z</time>
      </trkpt>
      <trkpt lat="44.02217" lon="6.4362">
        <ele>1224.42</ele>
        <time>2018-06-19T13:08:10Z</time>
      </trkpt>
      <trkpt lat="44.02246" lon="6.43605">
        <ele>1224.5</ele>
        <time>2018-06-19T13:08:13Z</time>
      </trkpt>
      <trkpt lat="44.02255" lon="6.43598">
        <ele>1224.51</ele>
        <time>2018-06-19T13:08:14Z</time>
      </trkpt>
      <trkpt lat="44.02264" lon="6.43589">
        <ele>1224.52</ele>
        <time>2018-06-19T13:08:15Z</time>
      </trkpt>
      <trkpt lat="44.02332" lon="6.43509">
        <ele>1227.03</ele>
        <time>2018-06-19T13:08:24Z</time>
      </trkpt>
      <trkpt lat="44.0234" lon="6.43502">
        <ele>1227.07</ele>
        <time>2018-06-19T13:08:25Z</time>
      </trkpt>
      <trkpt lat="44.02349" lon="6.43497">
        <ele>1227.1</ele>
        <time>2018-06-19T13:08:26Z</time>
      </trkpt>
      <trkpt lat="44.02359" lon="6.43493">
        <ele>1228.19</ele>
        <time>2018-06-19T13:08:27Z</time>
      </trkpt>
      <trkpt lat="44.02369" lon="6.43488">
        <ele>1228.21</ele>
        <time>2018-06-19T13:08:28Z</time>
      </trkpt>
      <trkpt lat="44.02379" lon="6.43481">
        <ele>1228.25</ele>
        <time>2018-06-19T13:08:29Z</time>
      </trkpt>
      <trkpt lat="44.02388" lon="6.43472">
        <ele>1229.48</ele>
        <time>2018-06-19T13:08:30Z</time>
      </trkpt>
      <trkpt lat="44.02396" lon="6.43462">
        <ele>1229.54</ele>
        <time>2018-06-19T13:08:31Z</time>
      </trkpt>
      <trkpt lat="44.02403" lon="6.43452">
        <ele>1229.52</ele>
        <time>2018-06-19T13:08:32Z</time>
      </trkpt>
      <trkpt lat="44.02411" lon="6.43442">
        <ele>1229.55</ele>
        <time>2018-06-19T13:08:33Z</time>
      </trkpt>
      <trkpt lat="44.02457" lon="6.434">
        <ele>1232.29</ele>
        <time>2018-06-19T13:08:38Z</time>
      </trkpt>
      <trkpt lat="44.02478" lon="6.4338">
        <ele>1234.78</ele>
        <time>2018-06-19T13:08:41Z</time>
      </trkpt>
      <trkpt lat="44.02485" lon="6.43376">
        <ele>1234.82</ele>
        <time>2018-06-19T13:08:42Z</time>
      </trkpt>
      <trkpt lat="44.02527" lon="6.43358">
        <ele>1238.27</ele>
        <time>2018-06-19T13:08:47Z</time>
      </trkpt>
      <trkpt lat="44.02536" lon="6.43355">
        <ele>1238.29</ele>
        <time>2018-06-19T13:08:48Z</time>
      </trkpt>
      <trkpt lat="44.02562" lon="6.43346">
        <ele>1241.47</ele>
        <time>2018-06-19T13:08:51Z</time>
      </trkpt>
      <trkpt lat="44.02571" lon="6.43343">
        <ele>1241.42</ele>
        <time>2018-06-19T13:08:52Z</time>
      </trkpt>
      <trkpt lat="44.02588" lon="6.43338">
        <ele>1242.75</ele>
        <time>2018-06-19T13:08:54Z</time>
      </trkpt>
      <trkpt lat="44.02598" lon="6.43337">
        <ele>1243.73</ele>
        <time>2018-06-19T13:08:55Z</time>
      </trkpt>
      <trkpt lat="44.02647" lon="6.43336">
        <ele>1243.8</ele>
        <time>2018-06-19T13:09:00Z</time>
      </trkpt>
      <trkpt lat="44.02657" lon="6.43339">
        <ele>1241.44</ele>
        <time>2018-06-19T13:09:01Z</time>
      </trkpt>
      <trkpt lat="44.02667" lon="6.43343">
        <ele>1241.39</ele>
        <time>2018-06-19T13:09:02Z</time>
      </trkpt>
      <trkpt lat="44.02686" lon="6.4335">
        <ele>1240.04</ele>
        <time>2018-06-19T13:09:04Z</time>
      </trkpt>
      <trkpt lat="44.02704" lon="6.43351">
        <ele>1239.07</ele>
        <time>2018-06-19T13:09:06Z</time>
      </trkpt>
      <trkpt lat="44.02718" lon="6.43352">
        <ele>1239.05</ele>
        <time>2018-06-19T13:09:08Z</time>
      </trkpt>
      <trkpt lat="44.02724" lon="6.43355">
        <ele>1238.15</ele>
        <time>2018-06-19T13:09:09Z</time>
      </trkpt>
      <trkpt lat="44.02729" lon="6.43359">
        <ele>1238.16</ele>
        <time>2018-06-19T13:09:10Z</time>
      </trkpt>
      <trkpt lat="44.02734" lon="6.43366">
        <ele>1237.4</ele>
        <time>2018-06-19T13:09:11Z</time>
      </trkpt>
      <trkpt lat="44.02739" lon="6.43373">
        <ele>1237.42</ele>
        <time>2018-06-19T13:09:12Z</time>
      </trkpt>
      <trkpt lat="44.02745" lon="6.43381">
        <ele>1237.42</ele>
        <time>2018-06-19T13:09:13Z</time>
      </trkpt>
      <trkpt lat="44.02752" lon="6.43388">
        <ele>1237.44</ele>
        <time>2018-06-19T13:09:14Z</time>
      </trkpt>
      <trkpt lat="44.02759" lon="6.43394">
        <ele>1237.42</ele>
        <time>2018-06-19T13:09:15Z</time>
      </trkpt>
      <trkpt lat="44.02767" lon="6.43398">
        <ele>1237.44</ele>
        <time>2018-06-19T13:09:16Z</time>
      </trkpt>
      <trkpt lat="44.02775" lon="6.434">
        <ele>1237.46</ele>
        <time>2018-06-19T13:09:17Z</time>
      </trkpt>
      <trkpt lat="44.02784" lon="6.43402">
        <ele>1237.5</ele>
        <time>2018-06-19T13:09:18Z</time>
      </trkpt>
      <trkpt lat="44.02792" lon="6.43402">
        <ele>1237.52</ele>
        <time>2018-06-19T13:09:19Z</time>
      </trkpt>
      <trkpt lat="44.028" lon="6.434">
        <ele>1239.89</ele>
        <time>2018-06-19T13:09:20Z</time>
      </trkpt>
      <trkpt lat="44.02808" lon="6.43397">
        <ele>1239.93</ele>
        <time>2018-06-19T13:09:21Z</time>
      </trkpt>
      <trkpt lat="44.02816" lon="6.43392">
        <ele>1239.99</ele>
        <time>2018-06-19T13:09:22Z</time>
      </trkpt>
      <trkpt lat="44.02841" lon="6.4338">
        <ele>1243.54</ele>
        <time>2018-06-19T13:09:25Z</time>
      </trkpt>
      <trkpt lat="44.0285" lon="6.43379">
        <ele>1244.63</ele>
        <time>2018-06-19T13:09:26Z</time>
      </trkpt>
      <trkpt lat="44.02858" lon="6.43379">
        <ele>1245.69</ele>
        <time>2018-06-19T13:09:27Z</time>
      </trkpt>
      <trkpt lat="44.02882" lon="6.43384">
        <ele>1248.94</ele>
        <time>2018-06-19T13:09:30Z</time>
      </trkpt>
      <trkpt lat="44.02891" lon="6.43386">
        <ele>1248.94</ele>
        <time>2018-06-19T13:09:31Z</time>
      </trkpt>
      <trkpt lat="44.02924" lon="6.43391">
        <ele>1250.29</ele>
        <time>2018-06-19T13:09:35Z</time>
      </trkpt>
      <trkpt lat="44.02933" lon="6.43391">
        <ele>1251.6</ele>
        <time>2018-06-19T13:09:36Z</time>
      </trkpt>
      <trkpt lat="44.02941" lon="6.43392">
        <ele>1252.47</ele>
        <time>2018-06-19T13:09:37Z</time>
      </trkpt>
      <trkpt lat="44.02949" lon="6.43394">
        <ele>1252.48</ele>
        <time>2018-06-19T13:09:38Z</time>
      </trkpt>
      <trkpt lat="44.02957" lon="6.43398">
        <ele>1253.37</ele>
        <time>2018-06-19T13:09:39Z</time>
      </trkpt>
      <trkpt lat="44.02964" lon="6.43401">
        <ele>1253.36</ele>
        <time>2018-06-19T13:09:40Z</time>
      </trkpt>
      <trkpt lat="44.02971" lon="6.43403">
        <ele>1254.89</ele>
        <time>2018-06-19T13:09:41Z</time>
      </trkpt>
      <trkpt lat="44.02978" lon="6.43405">
        <ele>1254.9</ele>
        <time>2018-06-19T13:09:42Z</time>
      </trkpt>
      <trkpt lat="44.02985" lon="6.43404">
        <ele>1255.86</ele>
        <time>2018-06-19T13:09:43Z</time>
      </trkpt>
      <trkpt lat="44.02991" lon="6.43402">
        <ele>1255.86</ele>
        <time>2018-06-19T13:09:44Z</time>
      </trkpt>
      <trkpt lat="44.02997" lon="6.43398">
        <ele>1255.86</ele>
        <time>2018-06-19T13:09:45Z</time>
      </trkpt>
      <trkpt lat="44.03001" lon="6.43394">
        <ele>1255.86</ele>
        <time>2018-06-19T13:09:46Z</time>
      </trkpt>
      <trkpt lat="44.03005" lon="6.43389">
        <ele>1255.88</ele>
        <time>2018-06-19T13:09:47Z</time>
      </trkpt>
      <trkpt lat="44.0301" lon="6.43383">
        <ele>1257.21</ele>
        <time>2018-06-19T13:09:48Z</time>
      </trkpt>
      <trkpt lat="44.03015" lon="6.43379">
        <ele>1257.21</ele>
        <time>2018-06-19T13:09:49Z</time>
      </trkpt>
      <trkpt lat="44.0302" lon="6.43377">
        <ele>1258.04</ele>
        <time>2018-06-19T13:09:50Z</time>
      </trkpt>
      <trkpt lat="44.03026" lon="6.43378">
        <ele>1258.08</ele>
        <time>2018-06-19T13:09:51Z</time>
      </trkpt>
      <trkpt lat="44.03032" lon="6.43379">
        <ele>1258.94</ele>
        <time>2018-06-19T13:09:52Z</time>
      </trkpt>
      <trkpt lat="44.03039" lon="6.43378">
        <ele>1258.98</ele>
        <time>2018-06-19T13:09:53Z</time>
      </trkpt>
      <trkpt lat="44.03045" lon="6.43374">
        <ele>1260.17</ele>
        <time>2018-06-19T13:09:54Z</time>
      </trkpt>
      <trkpt lat="44.0305" lon="6.43369">
        <ele>1260.19</ele>
        <time>2018-06-19T13:09:55Z</time>
      </trkpt>
      <trkpt lat="44.03055" lon="6.43362">
        <ele>1261.54</ele>
        <time>2018-06-19T13:09:56Z</time>
      </trkpt>
      <trkpt lat="44.0306" lon="6.43357">
        <ele>1261.63</ele>
        <time>2018-06-19T13:09:57Z</time>
      </trkpt>
      <trkpt lat="44.03066" lon="6.43353">
        <ele>1262.41</ele>
        <time>2018-06-19T13:09:58Z</time>
      </trkpt>
      <trkpt lat="44.03072" lon="6.43353">
        <ele>1262.4</ele>
        <time>2018-06-19T13:09:59Z</time>
      </trkpt>
      <trkpt lat="44.03079" lon="6.43354">
        <ele>1262.43</ele>
        <time>2018-06-19T13:10:00Z</time>
      </trkpt>
      <trkpt lat="44.03086" lon="6.43359">
        <ele>1262.42</ele>
        <time>2018-06-19T13:10:01Z</time>
      </trkpt>
      <trkpt lat="44.03094" lon="6.43364">
        <ele>1262.41</ele>
        <time>2018-06-19T13:10:02Z</time>
      </trkpt>
      <trkpt lat="44.03126" lon="6.43387">
        <ele>1262.47</ele>
        <time>2018-06-19T13:10:06Z</time>
      </trkpt>
      <trkpt lat="44.03141" lon="6.43398">
        <ele>1260.04</ele>
        <time>2018-06-19T13:10:08Z</time>
      </trkpt>
      <trkpt lat="44.03156" lon="6.4341">
        <ele>1258.73</ele>
        <time>2018-06-19T13:10:10Z</time>
      </trkpt>
      <trkpt lat="44.03168" lon="6.43424">
        <ele>1256.63</ele>
        <time>2018-06-19T13:10:12Z</time>
      </trkpt>
      <trkpt lat="44.03173" lon="6.43431">
        <ele>1256.61</ele>
        <time>2018-06-19T13:10:13Z</time>
      </trkpt>
      <trkpt lat="44.03182" lon="6.43444">
        <ele>1255.1</ele>
        <time>2018-06-19T13:10:15Z</time>
      </trkpt>
      <trkpt lat="44.03187" lon="6.43449">
        <ele>1254.71</ele>
        <time>2018-06-19T13:10:16Z</time>
      </trkpt>
      <trkpt lat="44.03193" lon="6.43453">
        <ele>1253.34</ele>
        <time>2018-06-19T13:10:17Z</time>
      </trkpt>
      <trkpt lat="44.03199" lon="6.43457">
        <ele>1253.35</ele>
        <time>2018-06-19T13:10:18Z</time>
      </trkpt>
      <trkpt lat="44.03205" lon="6.43459">
        <ele>1252.11</ele>
        <time>2018-06-19T13:10:19Z</time>
      </trkpt>
      <trkpt lat="44.0321" lon="6.43461">
        <ele>1252.06</ele>
        <time>2018-06-19T13:10:20Z</time>
      </trkpt>
      <trkpt lat="44.03221" lon="6.43464">
        <ele>1251.05</ele>
        <time>2018-06-19T13:10:22Z</time>
      </trkpt>
      <trkpt lat="44.03226" lon="6.43463">
        <ele>1251.04</ele>
        <time>2018-06-19T13:10:23Z</time>
      </trkpt>
      <trkpt lat="44.03232" lon="6.43461">
        <ele>1250.3</ele>
        <time>2018-06-19T13:10:24Z</time>
      </trkpt>
      <trkpt lat="44.03245" lon="6.43454">
        <ele>1250.33</ele>
        <time>2018-06-19T13:10:26Z</time>
      </trkpt>
      <trkpt lat="44.03256" lon="6.43445">
        <ele>1249.22</ele>
        <time>2018-06-19T13:10:28Z</time>
      </trkpt>
      <trkpt lat="44.03283" lon="6.4343">
        <ele>1247.02</ele>
        <time>2018-06-19T13:10:32Z</time>
      </trkpt>
      <trkpt lat="44.03291" lon="6.43427">
        <ele>1246.2</ele>
        <time>2018-06-19T13:10:33Z</time>
      </trkpt>
      <trkpt lat="44.03298" lon="6.43426">
        <ele>1246.35</ele>
        <time>2018-06-19T13:10:34Z</time>
      </trkpt>
      <trkpt lat="44.03306" lon="6.43428">
        <ele>1245.22</ele>
        <time>2018-06-19T13:10:35Z</time>
      </trkpt>
      <trkpt lat="44.03313" lon="6.43431">
        <ele>1245.26</ele>
        <time>2018-06-19T13:10:36Z</time>
      </trkpt>
      <trkpt lat="44.0332" lon="6.43436">
        <ele>1244.19</ele>
        <time>2018-06-19T13:10:37Z</time>
      </trkpt>
      <trkpt lat="44.03327" lon="6.43443">
        <ele>1244.23</ele>
        <time>2018-06-19T13:10:38Z</time>
      </trkpt>
      <trkpt lat="44.03333" lon="6.43451">
        <ele>1243.33</ele>
        <time>2018-06-19T13:10:39Z</time>
      </trkpt>
      <trkpt lat="44.03338" lon="6.43461">
        <ele>1243.32</ele>
        <time>2018-06-19T13:10:40Z</time>
      </trkpt>
      <trkpt lat="44.03342" lon="6.43471">
        <ele>1243.39</ele>
        <time>2018-06-19T13:10:41Z</time>
      </trkpt>
      <trkpt lat="44.03345" lon="6.43482">
        <ele>1242.2</ele>
        <time>2018-06-19T13:10:42Z</time>
      </trkpt>
      <trkpt lat="44.03347" lon="6.43493">
        <ele>1242.17</ele>
        <time>2018-06-19T13:10:43Z</time>
      </trkpt>
      <trkpt lat="44.03349" lon="6.43503">
        <ele>1242.13</ele>
        <time>2018-06-19T13:10:44Z</time>
      </trkpt>
      <trkpt lat="44.03352" lon="6.43512">
        <ele>1240.94</ele>
        <time>2018-06-19T13:10:45Z</time>
      </trkpt>
      <trkpt lat="44.03355" lon="6.43521">
        <ele>1240.91</ele>
        <time>2018-06-19T13:10:46Z</time>
      </trkpt>
      <trkpt lat="44.03359" lon="6.43529">
        <ele>1240.01</ele>
        <time>2018-06-19T13:10:47Z</time>
      </trkpt>
      <trkpt lat="44.03363" lon="6.43535">
        <ele>1240.03</ele>
        <time>2018-06-19T13:10:48Z</time>
      </trkpt>
      <trkpt lat="44.03369" lon="6.4354">
        <ele>1240.02</ele>
        <time>2018-06-19T13:10:49Z</time>
      </trkpt>
      <trkpt lat="44.03375" lon="6.43545">
        <ele>1238.85</ele>
        <time>2018-06-19T13:10:50Z</time>
      </trkpt>
      <trkpt lat="44.03383" lon="6.43549">
        <ele>1238.89</ele>
        <time>2018-06-19T13:10:51Z</time>
      </trkpt>
      <trkpt lat="44.03402" lon="6.43558">
        <ele>1237.53</ele>
        <time>2018-06-19T13:10:53Z</time>
      </trkpt>
      <trkpt lat="44.03412" lon="6.43561">
        <ele>1236.28</ele>
        <time>2018-06-19T13:10:54Z</time>
      </trkpt>
      <trkpt lat="44.03421" lon="6.43564">
        <ele>1235.3</ele>
        <time>2018-06-19T13:10:55Z</time>
      </trkpt>
      <trkpt lat="44.0343" lon="6.43568">
        <ele>1234.27</ele>
        <time>2018-06-19T13:10:56Z</time>
      </trkpt>
      <trkpt lat="44.03445" lon="6.43577">
        <ele>1233.47</ele>
        <time>2018-06-19T13:10:58Z</time>
      </trkpt>
      <trkpt lat="44.03453" lon="6.4358">
        <ele>1232.21</ele>
        <time>2018-06-19T13:10:59Z</time>
      </trkpt>
      <trkpt lat="44.03461" lon="6.4358">
        <ele>1231.4</ele>
        <time>2018-06-19T13:11:00Z</time>
      </trkpt>
      <trkpt lat="44.03469" lon="6.4358">
        <ele>1230.49</ele>
        <time>2018-06-19T13:11:01Z</time>
      </trkpt>
      <trkpt lat="44.03477" lon="6.43579">
        <ele>1230.47</ele>
        <time>2018-06-19T13:11:02Z</time>
      </trkpt>
      <trkpt lat="44.03485" lon="6.4358">
        <ele>1229.15</ele>
        <time>2018-06-19T13:11:03Z</time>
      </trkpt>
      <trkpt lat="44.03493" lon="6.43581">
        <ele>1229.18</ele>
        <time>2018-06-19T13:11:04Z</time>
      </trkpt>
      <trkpt lat="44.03501" lon="6.43585">
        <ele>1228.32</ele>
        <time>2018-06-19T13:11:05Z</time>
      </trkpt>
      <trkpt lat="44.03511" lon="6.4359">
        <ele>1227.08</ele>
        <time>2018-06-19T13:11:06Z</time>
      </trkpt>
      <trkpt lat="44.03521" lon="6.43595">
        <ele>1226.15</ele>
        <time>2018-06-19T13:11:07Z</time>
      </trkpt>
      <trkpt lat="44.03531" lon="6.43598">
        <ele>1225.47</ele>
        <time>2018-06-19T13:11:08Z</time>
      </trkpt>
      <trkpt lat="44.03541" lon="6.436">
        <ele>1224.4</ele>
        <time>2018-06-19T13:11:09Z</time>
      </trkpt>
      <trkpt lat="44.0355" lon="6.43602">
        <ele>1224.43</ele>
        <time>2018-06-19T13:11:10Z</time>
      </trkpt>
      <trkpt lat="44.0356" lon="6.43602">
        <ele>1223.32</ele>
        <time>2018-06-19T13:11:11Z</time>
      </trkpt>
      <trkpt lat="44.03568" lon="6.43602">
        <ele>1223.26</ele>
        <time>2018-06-19T13:11:12Z</time>
      </trkpt>
      <trkpt lat="44.03577" lon="6.43601">
        <ele>1222.28</ele>
        <time>2018-06-19T13:11:13Z</time>
      </trkpt>
      <trkpt lat="44.03585" lon="6.43602">
        <ele>1222.36</ele>
        <time>2018-06-19T13:11:14Z</time>
      </trkpt>
      <trkpt lat="44.03594" lon="6.43606">
        <ele>1221.21</ele>
        <time>2018-06-19T13:11:15Z</time>
      </trkpt>
      <trkpt lat="44.03602" lon="6.4361">
        <ele>1221.22</ele>
        <time>2018-06-19T13:11:16Z</time>
      </trkpt>
      <trkpt lat="44.03611" lon="6.43614">
        <ele>1219.87</ele>
        <time>2018-06-19T13:11:17Z</time>
      </trkpt>
      <trkpt lat="44.0362" lon="6.43615">
        <ele>1219.89</ele>
        <time>2018-06-19T13:11:18Z</time>
      </trkpt>
      <trkpt lat="44.03628" lon="6.43617">
        <ele>1218.7</ele>
        <time>2018-06-19T13:11:19Z</time>
      </trkpt>
      <trkpt lat="44.03636" lon="6.43621">
        <ele>1217.94</ele>
        <time>2018-06-19T13:11:20Z</time>
      </trkpt>
      <trkpt lat="44.03644" lon="6.43624">
        <ele>1217.08</ele>
        <time>2018-06-19T13:11:21Z</time>
      </trkpt>
      <trkpt lat="44.03651" lon="6.43627">
        <ele>1217.09</ele>
        <time>2018-06-19T13:11:22Z</time>
      </trkpt>
      <trkpt lat="44.03659" lon="6.43628">
        <ele>1215.37</ele>
        <time>2018-06-19T13:11:23Z</time>
      </trkpt>
      <trkpt lat="44.03667" lon="6.43628">
        <ele>1214.33</ele>
        <time>2018-06-19T13:11:24Z</time>
      </trkpt>
      <trkpt lat="44.03692" lon="6.43628">
        <ele>1211.33</ele>
        <time>2018-06-19T13:11:27Z</time>
      </trkpt>
      <trkpt lat="44.037" lon="6.43629">
        <ele>1210.57</ele>
        <time>2018-06-19T13:11:28Z</time>
      </trkpt>
      <trkpt lat="44.03709" lon="6.43629">
        <ele>1209.76</ele>
        <time>2018-06-19T13:11:29Z</time>
      </trkpt>
      <trkpt lat="44.03717" lon="6.43628">
        <ele>1209.72</ele>
        <time>2018-06-19T13:11:30Z</time>
      </trkpt>
      <trkpt lat="44.03739" lon="6.43628">
        <ele>1207.89</ele>
        <time>2018-06-19T13:11:33Z</time>
      </trkpt>
      <trkpt lat="44.03754" lon="6.43626">
        <ele>1206.84</ele>
        <time>2018-06-19T13:11:36Z</time>
      </trkpt>
      <trkpt lat="44.03758" lon="6.43628">
        <ele>1205.91</ele>
        <time>2018-06-19T13:11:37Z</time>
      </trkpt>
      <trkpt lat="44.03761" lon="6.43632">
        <ele>1205.94</ele>
        <time>2018-06-19T13:11:38Z</time>
      </trkpt>
      <trkpt lat="44.03762" lon="6.43637">
        <ele>1204.89</ele>
        <time>2018-06-19T13:11:39Z</time>
      </trkpt>
      <trkpt lat="44.03761" lon="6.43643">
        <ele>1204.93</ele>
        <time>2018-06-19T13:11:40Z</time>
      </trkpt>
      <trkpt lat="44.03758" lon="6.43647">
        <ele>1204.98</ele>
        <time>2018-06-19T13:11:41Z</time>
      </trkpt>
      <trkpt lat="44.03755" lon="6.4365">
        <ele>1203.95</ele>
        <time>2018-06-19T13:11:42Z</time>
      </trkpt>
      <trkpt lat="44.03749" lon="6.43653">
        <ele>1203.98</ele>
        <time>2018-06-19T13:11:43Z</time>
      </trkpt>
      <trkpt lat="44.03743" lon="6.43653">
        <ele>1203.96</ele>
        <time>2018-06-19T13:11:44Z</time>
      </trkpt>
      <trkpt lat="44.03736" lon="6.43654">
        <ele>1203.02</ele>
        <time>2018-06-19T13:11:45Z</time>
      </trkpt>
      <trkpt lat="44.03714" lon="6.43655">
        <ele>1201.93</ele>
        <time>2018-06-19T13:11:48Z</time>
      </trkpt>
      <trkpt lat="44.03701" lon="6.43655">
        <ele>1199.19</ele>
        <time>2018-06-19T13:11:50Z</time>
      </trkpt>
      <trkpt lat="44.03696" lon="6.43657">
        <ele>1199.14</ele>
        <time>2018-06-19T13:11:51Z</time>
      </trkpt>
      <trkpt lat="44.03691" lon="6.4366">
        <ele>1197.85</ele>
        <time>2018-06-19T13:11:52Z</time>
      </trkpt>
      <trkpt lat="44.03687" lon="6.43664">
        <ele>1197.78</ele>
        <time>2018-06-19T13:11:53Z</time>
      </trkpt>
      <trkpt lat="44.03685" lon="6.4367">
        <ele>1197.81</ele>
        <time>2018-06-19T13:11:54Z</time>
      </trkpt>
      <trkpt lat="44.03685" lon="6.43676">
        <ele>1197.82</ele>
        <time>2018-06-19T13:11:55Z</time>
      </trkpt>
      <trkpt lat="44.03687" lon="6.43681">
        <ele>1196.86</ele>
        <time>2018-06-19T13:11:56Z</time>
      </trkpt>
      <trkpt lat="44.03691" lon="6.43686">
        <ele>1196.83</ele>
        <time>2018-06-19T13:11:57Z</time>
      </trkpt>
      <trkpt lat="44.03696" lon="6.4369">
        <ele>1196.81</ele>
        <time>2018-06-19T13:11:58Z</time>
      </trkpt>
      <trkpt lat="44.03702" lon="6.43694">
        <ele>1195.7</ele>
        <time>2018-06-19T13:11:59Z</time>
      </trkpt>
      <trkpt lat="44.03709" lon="6.43696">
        <ele>1195.69</ele>
        <time>2018-06-19T13:12:00Z</time>
      </trkpt>
      <trkpt lat="44.03715" lon="6.43697">
        <ele>1194.14</ele>
        <time>2018-06-19T13:12:01Z</time>
      </trkpt>
      <trkpt lat="44.03722" lon="6.43698">
        <ele>1193.08</ele>
        <time>2018-06-19T13:12:02Z</time>
      </trkpt>
      <trkpt lat="44.03737" lon="6.437">
        <ele>1192.31</ele>
        <time>2018-06-19T13:12:04Z</time>
      </trkpt>
      <trkpt lat="44.03745" lon="6.43703">
        <ele>1192.34</ele>
        <time>2018-06-19T13:12:05Z</time>
      </trkpt>
      <trkpt lat="44.03764" lon="6.43711">
        <ele>1190.14</ele>
        <time>2018-06-19T13:12:08Z</time>
      </trkpt>
      <trkpt lat="44.03773" lon="6.43714">
        <ele>1188.68</ele>
        <time>2018-06-19T13:12:10Z</time>
      </trkpt>
      <trkpt lat="44.03776" lon="6.43717">
        <ele>1187.45</ele>
        <time>2018-06-19T13:12:11Z</time>
      </trkpt>
      <trkpt lat="44.03778" lon="6.43721">
        <ele>1187.43</ele>
        <time>2018-06-19T13:12:12Z</time>
      </trkpt>
      <trkpt lat="44.03777" lon="6.43726">
        <ele>1187.47</ele>
        <time>2018-06-19T13:12:13Z</time>
      </trkpt>
      <trkpt lat="44.03775" lon="6.4373">
        <ele>1186.48</ele>
        <time>2018-06-19T13:12:14Z</time>
      </trkpt>
      <trkpt lat="44.03771" lon="6.43732">
        <ele>1186.47</ele>
        <time>2018-06-19T13:12:15Z</time>
      </trkpt>
      <trkpt lat="44.03767" lon="6.43733">
        <ele>1185.67</ele>
        <time>2018-06-19T13:12:16Z</time>
      </trkpt>
      <trkpt lat="44.03761" lon="6.43734">
        <ele>1185.72</ele>
        <time>2018-06-19T13:12:17Z</time>
      </trkpt>
      <trkpt lat="44.03753" lon="6.43736">
        <ele>1185.64</ele>
        <time>2018-06-19T13:12:18Z</time>
      </trkpt>
      <trkpt lat="44.03745" lon="6.43739">
        <ele>1184.71</ele>
        <time>2018-06-19T13:12:19Z</time>
      </trkpt>
      <trkpt lat="44.03736" lon="6.43742">
        <ele>1183.68</ele>
        <time>2018-06-19T13:12:20Z</time>
      </trkpt>
      <trkpt lat="44.03726" lon="6.43744">
        <ele>1182.69</ele>
        <time>2018-06-19T13:12:21Z</time>
      </trkpt>
      <trkpt lat="44.03716" lon="6.43746">
        <ele>1182.69</ele>
        <time>2018-06-19T13:12:22Z</time>
      </trkpt>
      <trkpt lat="44.03688" lon="6.43751">
        <ele>1180.13</ele>
        <time>2018-06-19T13:12:25Z</time>
      </trkpt>
      <trkpt lat="44.03671" lon="6.43751">
        <ele>1179.05</ele>
        <time>2018-06-19T13:12:27Z</time>
      </trkpt>
      <trkpt lat="44.03662" lon="6.43754">
        <ele>1177.93</ele>
        <time>2018-06-19T13:12:28Z</time>
      </trkpt>
      <trkpt lat="44.03654" lon="6.43759">
        <ele>1177.14</ele>
        <time>2018-06-19T13:12:29Z</time>
      </trkpt>
      <trkpt lat="44.03645" lon="6.43765">
        <ele>1177.09</ele>
        <time>2018-06-19T13:12:30Z</time>
      </trkpt>
      <trkpt lat="44.03635" lon="6.4377">
        <ele>1175.43</ele>
        <time>2018-06-19T13:12:31Z</time>
      </trkpt>
      <trkpt lat="44.03626" lon="6.43774">
        <ele>1175.41</ele>
        <time>2018-06-19T13:12:32Z</time>
      </trkpt>
      <trkpt lat="44.03609" lon="6.43784">
        <ele>1174.11</ele>
        <time>2018-06-19T13:12:34Z</time>
      </trkpt>
      <trkpt lat="44.03602" lon="6.43791">
        <ele>1173.41</ele>
        <time>2018-06-19T13:12:35Z</time>
      </trkpt>
      <trkpt lat="44.0359" lon="6.43804">
        <ele>1172.26</ele>
        <time>2018-06-19T13:12:37Z</time>
      </trkpt>
      <trkpt lat="44.03586" lon="6.4381">
        <ele>1171.46</ele>
        <time>2018-06-19T13:12:38Z</time>
      </trkpt>
      <trkpt lat="44.03583" lon="6.43815">
        <ele>1171.38</ele>
        <time>2018-06-19T13:12:39Z</time>
      </trkpt>
      <trkpt lat="44.03582" lon="6.43821">
        <ele>1170.33</ele>
        <time>2018-06-19T13:12:40Z</time>
      </trkpt>
      <trkpt lat="44.03583" lon="6.43827">
        <ele>1170.34</ele>
        <time>2018-06-19T13:12:41Z</time>
      </trkpt>
      <trkpt lat="44.03585" lon="6.43833">
        <ele>1170.29</ele>
        <time>2018-06-19T13:12:42Z</time>
      </trkpt>
      <trkpt lat="44.03588" lon="6.43837">
        <ele>1170.3</ele>
        <time>2018-06-19T13:12:43Z</time>
      </trkpt>
      <trkpt lat="44.03594" lon="6.43841">
        <ele>1170.29</ele>
        <time>2018-06-19T13:12:44Z</time>
      </trkpt>
      <trkpt lat="44.03601" lon="6.43845">
        <ele>1170.25</ele>
        <time>2018-06-19T13:12:45Z</time>
      </trkpt>
      <trkpt lat="44.0361" lon="6.43849">
        <ele>1170.33</ele>
        <time>2018-06-19T13:12:46Z</time>
      </trkpt>
      <trkpt lat="44.03634" lon="6.43863">
        <ele>1169.44</ele>
        <time>2018-06-19T13:12:49Z</time>
      </trkpt>
      <trkpt lat="44.03641" lon="6.43868">
        <ele>1168.67</ele>
        <time>2018-06-19T13:12:50Z</time>
      </trkpt>
      <trkpt lat="44.03648" lon="6.43874">
        <ele>1167.88</ele>
        <time>2018-06-19T13:12:51Z</time>
      </trkpt>
      <trkpt lat="44.03654" lon="6.43878">
        <ele>1166.92</ele>
        <time>2018-06-19T13:12:52Z</time>
      </trkpt>
      <trkpt lat="44.0366" lon="6.43882">
        <ele>1165.77</ele>
        <time>2018-06-19T13:12:53Z</time>
      </trkpt>
      <trkpt lat="44.03668" lon="6.43884">
        <ele>1165.74</ele>
        <time>2018-06-19T13:12:54Z</time>
      </trkpt>
      <trkpt lat="44.03712" lon="6.439">
        <ele>1162.34</ele>
        <time>2018-06-19T13:13:00Z</time>
      </trkpt>
      <trkpt lat="44.03718" lon="6.43901">
        <ele>1162.39</ele>
        <time>2018-06-19T13:13:01Z</time>
      </trkpt>
      <trkpt lat="44.03725" lon="6.43902">
        <ele>1161.34</ele>
        <time>2018-06-19T13:13:02Z</time>
      </trkpt>
      <trkpt lat="44.03732" lon="6.43901">
        <ele>1161.32</ele>
        <time>2018-06-19T13:13:03Z</time>
      </trkpt>
      <trkpt lat="44.03757" lon="6.43895">
        <ele>1160.48</ele>
        <time>2018-06-19T13:13:06Z</time>
      </trkpt>
      <trkpt lat="44.03784" lon="6.43888">
        <ele>1157.39</ele>
        <time>2018-06-19T13:13:09Z</time>
      </trkpt>
      <trkpt lat="44.03813" lon="6.43888">
        <ele>1154.34</ele>
        <time>2018-06-19T13:13:12Z</time>
      </trkpt>
      <trkpt lat="44.0383" lon="6.43891">
        <ele>1153.54</ele>
        <time>2018-06-19T13:13:14Z</time>
      </trkpt>
      <trkpt lat="44.03838" lon="6.43891">
        <ele>1152.07</ele>
        <time>2018-06-19T13:13:15Z</time>
      </trkpt>
      <trkpt lat="44.03844" lon="6.43889">
        <ele>1150.98</ele>
        <time>2018-06-19T13:13:16Z</time>
      </trkpt>
      <trkpt lat="44.0385" lon="6.43885">
        <ele>1150.2</ele>
        <time>2018-06-19T13:13:17Z</time>
      </trkpt>
      <trkpt lat="44.03855" lon="6.43879">
        <ele>1150.1</ele>
        <time>2018-06-19T13:13:18Z</time>
      </trkpt>
      <trkpt lat="44.03859" lon="6.43872">
        <ele>1148.62</ele>
        <time>2018-06-19T13:13:19Z</time>
      </trkpt>
      <trkpt lat="44.03863" lon="6.43866">
        <ele>1147.78</ele>
        <time>2018-06-19T13:13:20Z</time>
      </trkpt>
      <trkpt lat="44.03867" lon="6.43861">
        <ele>1147.06</ele>
        <time>2018-06-19T13:13:21Z</time>
      </trkpt>
      <trkpt lat="44.03871" lon="6.43859">
        <ele>1147.06</ele>
        <time>2018-06-19T13:13:22Z</time>
      </trkpt>
      <trkpt lat="44.03875" lon="6.43859">
        <ele>1146.52</ele>
        <time>2018-06-19T13:13:23Z</time>
      </trkpt>
      <trkpt lat="44.03879" lon="6.43863">
        <ele>1145.42</ele>
        <time>2018-06-19T13:13:24Z</time>
      </trkpt>
      <trkpt lat="44.03882" lon="6.43869">
        <ele>1145.42</ele>
        <time>2018-06-19T13:13:25Z</time>
      </trkpt>
      <trkpt lat="44.03885" lon="6.43876">
        <ele>1144.28</ele>
        <time>2018-06-19T13:13:26Z</time>
      </trkpt>
      <trkpt lat="44.03889" lon="6.43883">
        <ele>1143.44</ele>
        <time>2018-06-19T13:13:27Z</time>
      </trkpt>
      <trkpt lat="44.03895" lon="6.4389">
        <ele>1143.47</ele>
        <time>2018-06-19T13:13:28Z</time>
      </trkpt>
      <trkpt lat="44.03901" lon="6.43895">
        <ele>1142.4</ele>
        <time>2018-06-19T13:13:29Z</time>
      </trkpt>
      <trkpt lat="44.03909" lon="6.43902">
        <ele>1142.33</ele>
        <time>2018-06-19T13:13:30Z</time>
      </trkpt>
      <trkpt lat="44.03928" lon="6.43914">
        <ele>1141.27</ele>
        <time>2018-06-19T13:13:32Z</time>
      </trkpt>
      <trkpt lat="44.03938" lon="6.43919">
        <ele>1141.22</ele>
        <time>2018-06-19T13:13:33Z</time>
      </trkpt>
      <trkpt lat="44.03973" lon="6.43936">
        <ele>1140.35</ele>
        <time>2018-06-19T13:13:37Z</time>
      </trkpt>
      <trkpt lat="44.03981" lon="6.43938">
        <ele>1140.57</ele>
        <time>2018-06-19T13:13:38Z</time>
      </trkpt>
      <trkpt lat="44.03988" lon="6.4394">
        <ele>1139.19</ele>
        <time>2018-06-19T13:13:39Z</time>
      </trkpt>
      <trkpt lat="44.03996" lon="6.4394">
        <ele>1138.33</ele>
        <time>2018-06-19T13:13:40Z</time>
      </trkpt>
      <trkpt lat="44.04005" lon="6.4394">
        <ele>1137.34</ele>
        <time>2018-06-19T13:13:41Z</time>
      </trkpt>
      <trkpt lat="44.04013" lon="6.43941">
        <ele>1136.22</ele>
        <time>2018-06-19T13:13:42Z</time>
      </trkpt>
      <trkpt lat="44.04027" lon="6.43944">
        <ele>1133.17</ele>
        <time>2018-06-19T13:13:44Z</time>
      </trkpt>
      <trkpt lat="44.04042" lon="6.43948">
        <ele>1131.01</ele>
        <time>2018-06-19T13:13:47Z</time>
      </trkpt>
      <trkpt lat="44.04045" lon="6.43951">
        <ele>1129.65</ele>
        <time>2018-06-19T13:13:48Z</time>
      </trkpt>
      <trkpt lat="44.04046" lon="6.43953">
        <ele>1129.65</ele>
        <time>2018-06-19T13:13:49Z</time>
      </trkpt>
      <trkpt lat="44.04049" lon="6.43963">
        <ele>1128.1</ele>
        <time>2018-06-19T13:14:01Z</time>
      </trkpt>
      <trkpt lat="44.04051" lon="6.4397">
        <ele>1128.16</ele>
        <time>2018-06-19T13:14:11Z</time>
      </trkpt>
      <trkpt lat="44.04052" lon="6.43979">
        <ele>1128.22</ele>
        <time>2018-06-19T13:14:22Z</time>
      </trkpt>
      <trkpt lat="44.04054" lon="6.43985">
        <ele>1128.22</ele>
        <time>2018-06-19T13:14:23Z</time>
      </trkpt>
      <trkpt lat="44.04067" lon="6.44017">
        <ele>1126.22</ele>
        <time>2018-06-19T13:14:27Z</time>
      </trkpt>
      <trkpt lat="44.04075" lon="6.44033">
        <ele>1124.77</ele>
        <time>2018-06-19T13:14:29Z</time>
      </trkpt>
      <trkpt lat="44.04083" lon="6.44048">
        <ele>1123.47</ele>
        <time>2018-06-19T13:14:31Z</time>
      </trkpt>
      <trkpt lat="44.04091" lon="6.44064">
        <ele>1121.86</ele>
        <time>2018-06-19T13:14:33Z</time>
      </trkpt>
      <trkpt lat="44.04094" lon="6.44074">
        <ele>1120.67</ele>
        <time>2018-06-19T13:14:34Z</time>
      </trkpt>
      <trkpt lat="44.04097" lon="6.44084">
        <ele>1120.6</ele>
        <time>2018-06-19T13:14:35Z</time>
      </trkpt>
      <trkpt lat="44.04104" lon="6.44115">
        <ele>1117.3</ele>
        <time>2018-06-19T13:14:38Z</time>
      </trkpt>
      <trkpt lat="44.04108" lon="6.44135">
        <ele>1116.35</ele>
        <time>2018-06-19T13:14:40Z</time>
      </trkpt>
      <trkpt lat="44.04113" lon="6.44163">
        <ele>1114.28</ele>
        <time>2018-06-19T13:14:43Z</time>
      </trkpt>
      <trkpt lat="44.04118" lon="6.4418">
        <ele>1112.98</ele>
        <time>2018-06-19T13:14:45Z</time>
      </trkpt>
      <trkpt lat="44.0412" lon="6.44188">
        <ele>1111.75</ele>
        <time>2018-06-19T13:14:46Z</time>
      </trkpt>
      <trkpt lat="44.04122" lon="6.44204">
        <ele>1110.93</ele>
        <time>2018-06-19T13:14:48Z</time>
      </trkpt>
      <trkpt lat="44.04122" lon="6.44213">
        <ele>1109.94</ele>
        <time>2018-06-19T13:14:49Z</time>
      </trkpt>
      <trkpt lat="44.04122" lon="6.44237">
        <ele>1109.01</ele>
        <time>2018-06-19T13:14:52Z</time>
      </trkpt>
      <trkpt lat="44.04124" lon="6.44245">
        <ele>1107.83</ele>
        <time>2018-06-19T13:14:53Z</time>
      </trkpt>
      <trkpt lat="44.04126" lon="6.4425">
        <ele>1107.94</ele>
        <time>2018-06-19T13:14:54Z</time>
      </trkpt>
      <trkpt lat="44.04128" lon="6.44253">
        <ele>1106.66</ele>
        <time>2018-06-19T13:14:55Z</time>
      </trkpt>
      <trkpt lat="44.04131" lon="6.44254">
        <ele>1106.61</ele>
        <time>2018-06-19T13:14:56Z</time>
      </trkpt>
      <trkpt lat="44.04134" lon="6.44255">
        <ele>1106.72</ele>
        <time>2018-06-19T13:14:57Z</time>
      </trkpt>
      <trkpt lat="44.04137" lon="6.44256">
        <ele>1106.68</ele>
        <time>2018-06-19T13:14:58Z</time>
      </trkpt>
      <trkpt lat="44.04147" lon="6.4426">
        <ele>1105.89</ele>
        <time>2018-06-19T13:15:00Z</time>
      </trkpt>
      <trkpt lat="44.04152" lon="6.44264">
        <ele>1105.91</ele>
        <time>2018-06-19T13:15:01Z</time>
      </trkpt>
      <trkpt lat="44.04179" lon="6.44285">
        <ele>1104.57</ele>
        <time>2018-06-19T13:15:05Z</time>
      </trkpt>
      <trkpt lat="44.04187" lon="6.4429">
        <ele>1104.57</ele>
        <time>2018-06-19T13:15:06Z</time>
      </trkpt>
      <trkpt lat="44.04202" lon="6.44298">
        <ele>1103.61</ele>
        <time>2018-06-19T13:15:08Z</time>
      </trkpt>
      <trkpt lat="44.04209" lon="6.44299">
        <ele>1103.61</ele>
        <time>2018-06-19T13:15:09Z</time>
      </trkpt>
      <trkpt lat="44.04216" lon="6.44298">
        <ele>1103.62</ele>
        <time>2018-06-19T13:15:10Z</time>
      </trkpt>
      <trkpt lat="44.04223" lon="6.44295">
        <ele>1103.63</ele>
        <time>2018-06-19T13:15:11Z</time>
      </trkpt>
      <trkpt lat="44.0423" lon="6.44289">
        <ele>1103.63</ele>
        <time>2018-06-19T13:15:12Z</time>
      </trkpt>
      <trkpt lat="44.04238" lon="6.44282">
        <ele>1103.61</ele>
        <time>2018-06-19T13:15:13Z</time>
      </trkpt>
      <trkpt lat="44.04246" lon="6.44273">
        <ele>1103.63</ele>
        <time>2018-06-19T13:15:14Z</time>
      </trkpt>
      <trkpt lat="44.04254" lon="6.44263">
        <ele>1103.62</ele>
        <time>2018-06-19T13:15:15Z</time>
      </trkpt>
      <trkpt lat="44.04261" lon="6.44253">
        <ele>1103.64</ele>
        <time>2018-06-19T13:15:16Z</time>
      </trkpt>
      <trkpt lat="44.04267" lon="6.44242">
        <ele>1103.65</ele>
        <time>2018-06-19T13:15:17Z</time>
      </trkpt>
      <trkpt lat="44.04272" lon="6.44231">
        <ele>1103.65</ele>
        <time>2018-06-19T13:15:18Z</time>
      </trkpt>
      <trkpt lat="44.04277" lon="6.44221">
        <ele>1103.66</ele>
        <time>2018-06-19T13:15:19Z</time>
      </trkpt>
      <trkpt lat="44.04286" lon="6.44202">
        <ele>1103.67</ele>
        <time>2018-06-19T13:15:21Z</time>
      </trkpt>
      <trkpt lat="44.04291" lon="6.44195">
        <ele>1103.68</ele>
        <time>2018-06-19T13:15:22Z</time>
      </trkpt>
      <trkpt lat="44.04297" lon="6.4419">
        <ele>1103.68</ele>
        <time>2018-06-19T13:15:23Z</time>
      </trkpt>
      <trkpt lat="44.04304" lon="6.44186">
        <ele>1103.68</ele>
        <time>2018-06-19T13:15:24Z</time>
      </trkpt>
      <trkpt lat="44.04312" lon="6.44183">
        <ele>1103.68</ele>
        <time>2018-06-19T13:15:25Z</time>
      </trkpt>
      <trkpt lat="44.04321" lon="6.44181">
        <ele>1102.76</ele>
        <time>2018-06-19T13:15:26Z</time>
      </trkpt>
      <trkpt lat="44.04341" lon="6.44173">
        <ele>1101.52</ele>
        <time>2018-06-19T13:15:28Z</time>
      </trkpt>
      <trkpt lat="44.04349" lon="6.44168">
        <ele>1101.51</ele>
        <time>2018-06-19T13:15:29Z</time>
      </trkpt>
      <trkpt lat="44.04367" lon="6.44157">
        <ele>1099.27</ele>
        <time>2018-06-19T13:15:33Z</time>
      </trkpt>
      <trkpt lat="44.04375" lon="6.44154">
        <ele>1099.24</ele>
        <time>2018-06-19T13:15:35Z</time>
      </trkpt>
      <trkpt lat="44.0438" lon="6.44153">
        <ele>1099.26</ele>
        <time>2018-06-19T13:15:36Z</time>
      </trkpt>
      <trkpt lat="44.04386" lon="6.44154">
        <ele>1099.27</ele>
        <time>2018-06-19T13:15:37Z</time>
      </trkpt>
      <trkpt lat="44.04392" lon="6.44156">
        <ele>1099.28</ele>
        <time>2018-06-19T13:15:38Z</time>
      </trkpt>
      <trkpt lat="44.04399" lon="6.44159">
        <ele>1099.23</ele>
        <time>2018-06-19T13:15:39Z</time>
      </trkpt>
      <trkpt lat="44.04406" lon="6.44163">
        <ele>1099.26</ele>
        <time>2018-06-19T13:15:40Z</time>
      </trkpt>
      <trkpt lat="44.04413" lon="6.44169">
        <ele>1101.9</ele>
        <time>2018-06-19T13:15:41Z</time>
      </trkpt>
      <trkpt lat="44.0442" lon="6.44177">
        <ele>1101.9</ele>
        <time>2018-06-19T13:15:42Z</time>
      </trkpt>
      <trkpt lat="44.04466" lon="6.44223">
        <ele>1105.01</ele>
        <time>2018-06-19T13:15:48Z</time>
      </trkpt>
      <trkpt lat="44.04486" lon="6.44238">
        <ele>1106.1</ele>
        <time>2018-06-19T13:15:51Z</time>
      </trkpt>
      <trkpt lat="44.0449" lon="6.44239">
        <ele>1106.98</ele>
        <time>2018-06-19T13:15:52Z</time>
      </trkpt>
      <trkpt lat="44.04494" lon="6.44239">
        <ele>1106.98</ele>
        <time>2018-06-19T13:15:53Z</time>
      </trkpt>
      <trkpt lat="44.04498" lon="6.44238">
        <ele>1107.02</ele>
        <time>2018-06-19T13:15:54Z</time>
      </trkpt>
      <trkpt lat="44.04501" lon="6.44235">
        <ele>1107.03</ele>
        <time>2018-06-19T13:15:55Z</time>
      </trkpt>
      <trkpt lat="44.04503" lon="6.44233">
        <ele>1106.94</ele>
        <time>2018-06-19T13:15:56Z</time>
      </trkpt>
      <trkpt lat="44.04504" lon="6.44234">
        <ele>1106.95</ele>
        <time>2018-06-19T13:16:10Z</time>
      </trkpt>
      <trkpt lat="44.04505" lon="6.44234">
        <ele>1107.02</ele>
        <time>2018-06-19T13:16:24Z</time>
      </trkpt>
      <trkpt lat="44.04507" lon="6.44235">
        <ele>1107.03</ele>
        <time>2018-06-19T13:16:25Z</time>
      </trkpt>
      <trkpt lat="44.04512" lon="6.44237">
        <ele>1107.05</ele>
        <time>2018-06-19T13:16:26Z</time>
      </trkpt>
      <trkpt lat="44.04517" lon="6.44241">
        <ele>1107.9</ele>
        <time>2018-06-19T13:16:27Z</time>
      </trkpt>
      <trkpt lat="44.04522" lon="6.44246">
        <ele>1108.87</ele>
        <time>2018-06-19T13:16:28Z</time>
      </trkpt>
      <trkpt lat="44.04528" lon="6.44251">
        <ele>1108.87</ele>
        <time>2018-06-19T13:16:29Z</time>
      </trkpt>
      <trkpt lat="44.04539" lon="6.44262">
        <ele>1110.22</ele>
        <time>2018-06-19T13:16:31Z</time>
      </trkpt>
      <trkpt lat="44.04545" lon="6.44266">
        <ele>1112.08</ele>
        <time>2018-06-19T13:16:32Z</time>
      </trkpt>
      <trkpt lat="44.04553" lon="6.44269">
        <ele>1113.01</ele>
        <time>2018-06-19T13:16:33Z</time>
      </trkpt>
      <trkpt lat="44.04561" lon="6.4427">
        <ele>1114.1</ele>
        <time>2018-06-19T13:16:34Z</time>
      </trkpt>
      <trkpt lat="44.04569" lon="6.4427">
        <ele>1115.34</ele>
        <time>2018-06-19T13:16:35Z</time>
      </trkpt>
      <trkpt lat="44.04577" lon="6.44269">
        <ele>1116.28</ele>
        <time>2018-06-19T13:16:36Z</time>
      </trkpt>
      <trkpt lat="44.04584" lon="6.44267">
        <ele>1117.17</ele>
        <time>2018-06-19T13:16:37Z</time>
      </trkpt>
      <trkpt lat="44.04592" lon="6.44264">
        <ele>1117.93</ele>
        <time>2018-06-19T13:16:38Z</time>
      </trkpt>
      <trkpt lat="44.04606" lon="6.4426">
        <ele>1119.71</ele>
        <time>2018-06-19T13:16:40Z</time>
      </trkpt>
      <trkpt lat="44.04613" lon="6.44259">
        <ele>1119.75</ele>
        <time>2018-06-19T13:16:41Z</time>
      </trkpt>
      <trkpt lat="44.04621" lon="6.4426">
        <ele>1119.78</ele>
        <time>2018-06-19T13:16:42Z</time>
      </trkpt>
      <trkpt lat="44.04628" lon="6.44262">
        <ele>1120.71</ele>
        <time>2018-06-19T13:16:43Z</time>
      </trkpt>
      <trkpt lat="44.04636" lon="6.44265">
        <ele>1120.79</ele>
        <time>2018-06-19T13:16:44Z</time>
      </trkpt>
      <trkpt lat="44.04645" lon="6.4427">
        <ele>1120.88</ele>
        <time>2018-06-19T13:16:45Z</time>
      </trkpt>
      <trkpt lat="44.04661" lon="6.44279">
        <ele>1122.02</ele>
        <time>2018-06-19T13:16:47Z</time>
      </trkpt>
      <trkpt lat="44.04687" lon="6.44289">
        <ele>1124.78</ele>
        <time>2018-06-19T13:16:50Z</time>
      </trkpt>
      <trkpt lat="44.04721" lon="6.44299">
        <ele>1128.6</ele>
        <time>2018-06-19T13:16:54Z</time>
      </trkpt>
      <trkpt lat="44.04729" lon="6.44299">
        <ele>1129.39</ele>
        <time>2018-06-19T13:16:55Z</time>
      </trkpt>
      <trkpt lat="44.04736" lon="6.44299">
        <ele>1129.36</ele>
        <time>2018-06-19T13:16:56Z</time>
      </trkpt>
      <trkpt lat="44.0475" lon="6.44301">
        <ele>1130.58</ele>
        <time>2018-06-19T13:16:58Z</time>
      </trkpt>
      <trkpt lat="44.04762" lon="6.44304">
        <ele>1131.63</ele>
        <time>2018-06-19T13:17:00Z</time>
      </trkpt>
      <trkpt lat="44.04766" lon="6.44306">
        <ele>1132.8</ele>
        <time>2018-06-19T13:17:01Z</time>
      </trkpt>
      <trkpt lat="44.04769" lon="6.44306">
        <ele>1132.87</ele>
        <time>2018-06-19T13:17:02Z</time>
      </trkpt>
      <trkpt lat="44.04795" lon="6.44308">
        <ele>1133.2</ele>
        <time>2018-06-19T13:17:13Z</time>
      </trkpt>
      <trkpt lat="44.04799" lon="6.44309">
        <ele>1133.19</ele>
        <time>2018-06-19T13:17:14Z</time>
      </trkpt>
      <trkpt lat="44.04803" lon="6.44309">
        <ele>1133.2</ele>
        <time>2018-06-19T13:17:15Z</time>
      </trkpt>
      <trkpt lat="44.04824" lon="6.44311">
        <ele>1133.19</ele>
        <time>2018-06-19T13:17:19Z</time>
      </trkpt>
      <trkpt lat="44.04831" lon="6.44309">
        <ele>1133.21</ele>
        <time>2018-06-19T13:17:20Z</time>
      </trkpt>
      <trkpt lat="44.04866" lon="6.443">
        <ele>1130.6</ele>
        <time>2018-06-19T13:17:25Z</time>
      </trkpt>
      <trkpt lat="44.04874" lon="6.44296">
        <ele>1130.58</ele>
        <time>2018-06-19T13:17:26Z</time>
      </trkpt>
      <trkpt lat="44.04934" lon="6.44261">
        <ele>1130.65</ele>
        <time>2018-06-19T13:17:33Z</time>
      </trkpt>
      <trkpt lat="44.04951" lon="6.44254">
        <ele>1130.65</ele>
        <time>2018-06-19T13:17:35Z</time>
      </trkpt>
      <trkpt lat="44.0496" lon="6.44254">
        <ele>1130.65</ele>
        <time>2018-06-19T13:17:36Z</time>
      </trkpt>
      <trkpt lat="44.05015" lon="6.44257">
        <ele>1129.75</ele>
        <time>2018-06-19T13:17:41Z</time>
      </trkpt>
      <trkpt lat="44.05029" lon="6.44261">
        <ele>1129.77</ele>
        <time>2018-06-19T13:17:42Z</time>
      </trkpt>
      <trkpt lat="44.05055" lon="6.44269">
        <ele>1129.79</ele>
        <time>2018-06-19T13:17:44Z</time>
      </trkpt>
      <trkpt lat="44.05069" lon="6.44268">
        <ele>1128.94</ele>
        <time>2018-06-19T13:17:45Z</time>
      </trkpt>
      <trkpt lat="44.05082" lon="6.44263">
        <ele>1128.93</ele>
        <time>2018-06-19T13:17:46Z</time>
      </trkpt>
      <trkpt lat="44.05147" lon="6.44225">
        <ele>1127</ele>
        <time>2018-06-19T13:17:51Z</time>
      </trkpt>
      <trkpt lat="44.05156" lon="6.44212">
        <ele>1127.01</ele>
        <time>2018-06-19T13:17:52Z</time>
      </trkpt>
      <trkpt lat="44.05163" lon="6.44199">
        <ele>1126.99</ele>
        <time>2018-06-19T13:17:53Z</time>
      </trkpt>
      <trkpt lat="44.05169" lon="6.44187">
        <ele>1126.09</ele>
        <time>2018-06-19T13:17:54Z</time>
      </trkpt>
      <trkpt lat="44.05176" lon="6.44178">
        <ele>1125.46</ele>
        <time>2018-06-19T13:17:55Z</time>
      </trkpt>
      <trkpt lat="44.05183" lon="6.44171">
        <ele>1125.46</ele>
        <time>2018-06-19T13:17:56Z</time>
      </trkpt>
      <trkpt lat="44.05192" lon="6.44163">
        <ele>1125.44</ele>
        <time>2018-06-19T13:17:57Z</time>
      </trkpt>
      <trkpt lat="44.05261" lon="6.44115">
        <ele>1128.25</ele>
        <time>2018-06-19T13:18:03Z</time>
      </trkpt>
      <trkpt lat="44.05301" lon="6.44097">
        <ele>1129.49</ele>
        <time>2018-06-19T13:18:06Z</time>
      </trkpt>
      <trkpt lat="44.05329" lon="6.44089">
        <ele>1130.75</ele>
        <time>2018-06-19T13:18:08Z</time>
      </trkpt>
      <trkpt lat="44.0539" lon="6.44067">
        <ele>1132.44</ele>
        <time>2018-06-19T13:18:13Z</time>
      </trkpt>
      <trkpt lat="44.05405" lon="6.44056">
        <ele>1132.46</ele>
        <time>2018-06-19T13:18:15Z</time>
      </trkpt>
      <trkpt lat="44.05419" lon="6.44042">
        <ele>1132.38</ele>
        <time>2018-06-19T13:18:21Z</time>
      </trkpt>
      <trkpt lat="44.05427" lon="6.44036">
        <ele>1132.32</ele>
        <time>2018-06-19T13:18:29Z</time>
      </trkpt>
      <trkpt lat="44.0543" lon="6.44034">
        <ele>1132.33</ele>
        <time>2018-06-19T13:18:30Z</time>
      </trkpt>
      <trkpt lat="44.05436" lon="6.44033">
        <ele>1132.34</ele>
        <time>2018-06-19T13:18:31Z</time>
      </trkpt>
      <trkpt lat="44.05441" lon="6.44031">
        <ele>1132.36</ele>
        <time>2018-06-19T13:18:32Z</time>
      </trkpt>
      <trkpt lat="44.05448" lon="6.44031">
        <ele>1132.36</ele>
        <time>2018-06-19T13:18:33Z</time>
      </trkpt>
      <trkpt lat="44.05455" lon="6.44031">
        <ele>1132.38</ele>
        <time>2018-06-19T13:18:34Z</time>
      </trkpt>
      <trkpt lat="44.05464" lon="6.44033">
        <ele>1132.39</ele>
        <time>2018-06-19T13:18:35Z</time>
      </trkpt>
      <trkpt lat="44.05473" lon="6.44035">
        <ele>1132.42</ele>
        <time>2018-06-19T13:18:36Z</time>
      </trkpt>
      <trkpt lat="44.05483" lon="6.44039">
        <ele>1132.44</ele>
        <time>2018-06-19T13:18:37Z</time>
      </trkpt>
      <trkpt lat="44.05493" lon="6.44043">
        <ele>1132.46</ele>
        <time>2018-06-19T13:18:38Z</time>
      </trkpt>
      <trkpt lat="44.05505" lon="6.44047">
        <ele>1133.4</ele>
        <time>2018-06-19T13:18:39Z</time>
      </trkpt>
      <trkpt lat="44.05515" lon="6.44049">
        <ele>1133.48</ele>
        <time>2018-06-19T13:18:40Z</time>
      </trkpt>
      <trkpt lat="44.05526" lon="6.44049">
        <ele>1134.36</ele>
        <time>2018-06-19T13:18:41Z</time>
      </trkpt>
      <trkpt lat="44.05538" lon="6.44047">
        <ele>1135.19</ele>
        <time>2018-06-19T13:18:42Z</time>
      </trkpt>
      <trkpt lat="44.0555" lon="6.44044">
        <ele>1135.21</ele>
        <time>2018-06-19T13:18:43Z</time>
      </trkpt>
      <trkpt lat="44.05561" lon="6.4404">
        <ele>1135.21</ele>
        <time>2018-06-19T13:18:44Z</time>
      </trkpt>
      <trkpt lat="44.0557" lon="6.44034">
        <ele>1135.23</ele>
        <time>2018-06-19T13:18:45Z</time>
      </trkpt>
      <trkpt lat="44.05579" lon="6.44027">
        <ele>1136.17</ele>
        <time>2018-06-19T13:18:46Z</time>
      </trkpt>
      <trkpt lat="44.05588" lon="6.44019">
        <ele>1136.19</ele>
        <time>2018-06-19T13:18:47Z</time>
      </trkpt>
      <trkpt lat="44.0569" lon="6.43965">
        <ele>1137.31</ele>
        <time>2018-06-19T13:18:56Z</time>
      </trkpt>
      <trkpt lat="44.05759" lon="6.43931">
        <ele>1139.09</ele>
        <time>2018-06-19T13:19:02Z</time>
      </trkpt>
      <trkpt lat="44.05772" lon="6.43928">
        <ele>1139.1</ele>
        <time>2018-06-19T13:19:03Z</time>
      </trkpt>
      <trkpt lat="44.05844" lon="6.43919">
        <ele>1142.11</ele>
        <time>2018-06-19T13:19:09Z</time>
      </trkpt>
      <trkpt lat="44.05879" lon="6.43916">
        <ele>1145.18</ele>
        <time>2018-06-19T13:19:12Z</time>
      </trkpt>
      <trkpt lat="44.05892" lon="6.43915">
        <ele>1145.22</ele>
        <time>2018-06-19T13:19:13Z</time>
      </trkpt>
      <trkpt lat="44.05979" lon="6.43916">
        <ele>1146.85</ele>
        <time>2018-06-19T13:19:20Z</time>
      </trkpt>
      <trkpt lat="44.05988" lon="6.43922">
        <ele>1146.51</ele>
        <time>2018-06-19T13:19:21Z</time>
      </trkpt>
      <trkpt lat="44.05997" lon="6.43929">
        <ele>1147.63</ele>
        <time>2018-06-19T13:19:22Z</time>
      </trkpt>
      <trkpt lat="44.06053" lon="6.43973">
        <ele>1148.61</ele>
        <time>2018-06-19T13:19:28Z</time>
      </trkpt>
      <trkpt lat="44.06063" lon="6.43978">
        <ele>1148.61</ele>
        <time>2018-06-19T13:19:29Z</time>
      </trkpt>
      <trkpt lat="44.06073" lon="6.43982">
        <ele>1149.39</ele>
        <time>2018-06-19T13:19:30Z</time>
      </trkpt>
      <trkpt lat="44.06082" lon="6.43983">
        <ele>1149.38</ele>
        <time>2018-06-19T13:19:31Z</time>
      </trkpt>
      <trkpt lat="44.06092" lon="6.43984">
        <ele>1149.4</ele>
        <time>2018-06-19T13:19:32Z</time>
      </trkpt>
      <trkpt lat="44.0613" lon="6.43986">
        <ele>1151.49</ele>
        <time>2018-06-19T13:19:36Z</time>
      </trkpt>
      <trkpt lat="44.0614" lon="6.43984">
        <ele>1151.49</ele>
        <time>2018-06-19T13:19:37Z</time>
      </trkpt>
      <trkpt lat="44.06182" lon="6.4397">
        <ele>1152.75</ele>
        <time>2018-06-19T13:19:41Z</time>
      </trkpt>
      <trkpt lat="44.06248" lon="6.43938">
        <ele>1154.01</ele>
        <time>2018-06-19T13:19:47Z</time>
      </trkpt>
      <trkpt lat="44.06318" lon="6.43903">
        <ele>1156.45</ele>
        <time>2018-06-19T13:19:53Z</time>
      </trkpt>
      <trkpt lat="44.06389" lon="6.43869">
        <ele>1159.52</ele>
        <time>2018-06-19T13:19:59Z</time>
      </trkpt>
      <trkpt lat="44.06494" lon="6.43818">
        <ele>1163.28</ele>
        <time>2018-06-19T13:20:07Z</time>
      </trkpt>
      <trkpt lat="44.06507" lon="6.43815">
        <ele>1164.18</ele>
        <time>2018-06-19T13:20:08Z</time>
      </trkpt>
      <trkpt lat="44.06521" lon="6.43813">
        <ele>1164.22</ele>
        <time>2018-06-19T13:20:09Z</time>
      </trkpt>
      <trkpt lat="44.06572" lon="6.43804">
        <ele>1166.36</ele>
        <time>2018-06-19T13:20:13Z</time>
      </trkpt>
      <trkpt lat="44.06621" lon="6.43794">
        <ele>1167.99</ele>
        <time>2018-06-19T13:20:17Z</time>
      </trkpt>
      <trkpt lat="44.06645" lon="6.43789">
        <ele>1169.29</ele>
        <time>2018-06-19T13:20:19Z</time>
      </trkpt>
      <trkpt lat="44.0669" lon="6.4378">
        <ele>1171.44</ele>
        <time>2018-06-19T13:20:23Z</time>
      </trkpt>
      <trkpt lat="44.0673" lon="6.43785">
        <ele>1174.93</ele>
        <time>2018-06-19T13:20:27Z</time>
      </trkpt>
      <trkpt lat="44.06754" lon="6.43784">
        <ele>1175.96</ele>
        <time>2018-06-19T13:20:29Z</time>
      </trkpt>
      <trkpt lat="44.06776" lon="6.43779">
        <ele>1177.27</ele>
        <time>2018-06-19T13:20:31Z</time>
      </trkpt>
      <trkpt lat="44.06809" lon="6.43768">
        <ele>1178.1</ele>
        <time>2018-06-19T13:20:34Z</time>
      </trkpt>
      <trkpt lat="44.06886" lon="6.43768">
        <ele>1180.49</ele>
        <time>2018-06-19T13:20:41Z</time>
      </trkpt>
      <trkpt lat="44.06909" lon="6.43768">
        <ele>1181.88</ele>
        <time>2018-06-19T13:20:43Z</time>
      </trkpt>
      <trkpt lat="44.0694" lon="6.43771">
        <ele>1184.14</ele>
        <time>2018-06-19T13:20:46Z</time>
      </trkpt>
      <trkpt lat="44.0695" lon="6.4377">
        <ele>1185.39</ele>
        <time>2018-06-19T13:20:47Z</time>
      </trkpt>
      <trkpt lat="44.0696" lon="6.43767">
        <ele>1186.06</ele>
        <time>2018-06-19T13:20:48Z</time>
      </trkpt>
      <trkpt lat="44.0697" lon="6.43762">
        <ele>1186.06</ele>
        <time>2018-06-19T13:20:49Z</time>
      </trkpt>
      <trkpt lat="44.06981" lon="6.43756">
        <ele>1187.06</ele>
        <time>2018-06-19T13:20:50Z</time>
      </trkpt>
      <trkpt lat="44.06991" lon="6.43748">
        <ele>1187.13</ele>
        <time>2018-06-19T13:20:51Z</time>
      </trkpt>
      <trkpt lat="44.07001" lon="6.43739">
        <ele>1187.13</ele>
        <time>2018-06-19T13:20:52Z</time>
      </trkpt>
      <trkpt lat="44.07019" lon="6.43722">
        <ele>1188.58</ele>
        <time>2018-06-19T13:20:54Z</time>
      </trkpt>
      <trkpt lat="44.07035" lon="6.43706">
        <ele>1189.53</ele>
        <time>2018-06-19T13:20:56Z</time>
      </trkpt>
      <trkpt lat="44.07044" lon="6.43702">
        <ele>1190.38</ele>
        <time>2018-06-19T13:20:57Z</time>
      </trkpt>
      <trkpt lat="44.07053" lon="6.437">
        <ele>1190.47</ele>
        <time>2018-06-19T13:20:58Z</time>
      </trkpt>
      <trkpt lat="44.07062" lon="6.43699">
        <ele>1191.83</ele>
        <time>2018-06-19T13:20:59Z</time>
      </trkpt>
      <trkpt lat="44.07072" lon="6.43699">
        <ele>1191.9</ele>
        <time>2018-06-19T13:21:00Z</time>
      </trkpt>
      <trkpt lat="44.07082" lon="6.437">
        <ele>1192.99</ele>
        <time>2018-06-19T13:21:01Z</time>
      </trkpt>
      <trkpt lat="44.07093" lon="6.43703">
        <ele>1192.98</ele>
        <time>2018-06-19T13:21:02Z</time>
      </trkpt>
      <trkpt lat="44.07126" lon="6.43709">
        <ele>1196.78</ele>
        <time>2018-06-19T13:21:05Z</time>
      </trkpt>
      <trkpt lat="44.07137" lon="6.4371">
        <ele>1196.85</ele>
        <time>2018-06-19T13:21:06Z</time>
      </trkpt>
      <trkpt lat="44.07147" lon="6.4371">
        <ele>1197.86</ele>
        <time>2018-06-19T13:21:07Z</time>
      </trkpt>
      <trkpt lat="44.07157" lon="6.4371">
        <ele>1197.91</ele>
        <time>2018-06-19T13:21:08Z</time>
      </trkpt>
      <trkpt lat="44.07174" lon="6.43712">
        <ele>1199.08</ele>
        <time>2018-06-19T13:21:10Z</time>
      </trkpt>
      <trkpt lat="44.07181" lon="6.43713">
        <ele>1200.1</ele>
        <time>2018-06-19T13:21:11Z</time>
      </trkpt>
      <trkpt lat="44.07187" lon="6.43712">
        <ele>1200.11</ele>
        <time>2018-06-19T13:21:12Z</time>
      </trkpt>
      <trkpt lat="44.07193" lon="6.4371">
        <ele>1201.19</ele>
        <time>2018-06-19T13:21:13Z</time>
      </trkpt>
      <trkpt lat="44.072" lon="6.43707">
        <ele>1201.26</ele>
        <time>2018-06-19T13:21:14Z</time>
      </trkpt>
      <trkpt lat="44.07208" lon="6.43703">
        <ele>1202.15</ele>
        <time>2018-06-19T13:21:15Z</time>
      </trkpt>
      <trkpt lat="44.07247" lon="6.43679">
        <ele>1204.24</ele>
        <time>2018-06-19T13:21:20Z</time>
      </trkpt>
      <trkpt lat="44.07252" lon="6.43672">
        <ele>1205.54</ele>
        <time>2018-06-19T13:21:21Z</time>
      </trkpt>
      <trkpt lat="44.07256" lon="6.43663">
        <ele>1205.58</ele>
        <time>2018-06-19T13:21:22Z</time>
      </trkpt>
      <trkpt lat="44.07259" lon="6.43653">
        <ele>1206.27</ele>
        <time>2018-06-19T13:21:23Z</time>
      </trkpt>
      <trkpt lat="44.07261" lon="6.43641">
        <ele>1206.34</ele>
        <time>2018-06-19T13:21:24Z</time>
      </trkpt>
      <trkpt lat="44.07263" lon="6.43628">
        <ele>1207.59</ele>
        <time>2018-06-19T13:21:25Z</time>
      </trkpt>
      <trkpt lat="44.07264" lon="6.43614">
        <ele>1207.68</ele>
        <time>2018-06-19T13:21:26Z</time>
      </trkpt>
      <trkpt lat="44.07265" lon="6.436">
        <ele>1209.34</ele>
        <time>2018-06-19T13:21:27Z</time>
      </trkpt>
      <trkpt lat="44.07266" lon="6.43586">
        <ele>1210.25</ele>
        <time>2018-06-19T13:21:28Z</time>
      </trkpt>
      <trkpt lat="44.07266" lon="6.43572">
        <ele>1210.32</ele>
        <time>2018-06-19T13:21:29Z</time>
      </trkpt>
      <trkpt lat="44.07268" lon="6.4356">
        <ele>1211.47</ele>
        <time>2018-06-19T13:21:30Z</time>
      </trkpt>
      <trkpt lat="44.07271" lon="6.43548">
        <ele>1212.53</ele>
        <time>2018-06-19T13:21:31Z</time>
      </trkpt>
      <trkpt lat="44.07275" lon="6.43537">
        <ele>1213.47</ele>
        <time>2018-06-19T13:21:32Z</time>
      </trkpt>
      <trkpt lat="44.0728" lon="6.43528">
        <ele>1214.32</ele>
        <time>2018-06-19T13:21:33Z</time>
      </trkpt>
      <trkpt lat="44.07284" lon="6.43519">
        <ele>1215.54</ele>
        <time>2018-06-19T13:21:34Z</time>
      </trkpt>
      <trkpt lat="44.07289" lon="6.43513">
        <ele>1216.74</ele>
        <time>2018-06-19T13:21:35Z</time>
      </trkpt>
      <trkpt lat="44.07295" lon="6.43508">
        <ele>1217.98</ele>
        <time>2018-06-19T13:21:36Z</time>
      </trkpt>
      <trkpt lat="44.073" lon="6.43503">
        <ele>1219.28</ele>
        <time>2018-06-19T13:21:37Z</time>
      </trkpt>
      <trkpt lat="44.07305" lon="6.43497">
        <ele>1220.3</ele>
        <time>2018-06-19T13:21:38Z</time>
      </trkpt>
      <trkpt lat="44.07309" lon="6.4349">
        <ele>1221.18</ele>
        <time>2018-06-19T13:21:39Z</time>
      </trkpt>
      <trkpt lat="44.07319" lon="6.43473">
        <ele>1223.34</ele>
        <time>2018-06-19T13:21:41Z</time>
      </trkpt>
      <trkpt lat="44.07323" lon="6.43464">
        <ele>1224.6</ele>
        <time>2018-06-19T13:21:42Z</time>
      </trkpt>
      <trkpt lat="44.07327" lon="6.43454">
        <ele>1225.66</ele>
        <time>2018-06-19T13:21:43Z</time>
      </trkpt>
      <trkpt lat="44.07331" lon="6.43444">
        <ele>1227</ele>
        <time>2018-06-19T13:21:44Z</time>
      </trkpt>
      <trkpt lat="44.07335" lon="6.43435">
        <ele>1227.89</ele>
        <time>2018-06-19T13:21:45Z</time>
      </trkpt>
      <trkpt lat="44.07341" lon="6.43426">
        <ele>1229.02</ele>
        <time>2018-06-19T13:21:46Z</time>
      </trkpt>
      <trkpt lat="44.07347" lon="6.43417">
        <ele>1229.93</ele>
        <time>2018-06-19T13:21:47Z</time>
      </trkpt>
      <trkpt lat="44.07357" lon="6.43398">
        <ele>1232.81</ele>
        <time>2018-06-19T13:21:49Z</time>
      </trkpt>
      <trkpt lat="44.07362" lon="6.43387">
        <ele>1234.29</ele>
        <time>2018-06-19T13:21:50Z</time>
      </trkpt>
      <trkpt lat="44.07365" lon="6.43375">
        <ele>1236.03</ele>
        <time>2018-06-19T13:21:51Z</time>
      </trkpt>
      <trkpt lat="44.07375" lon="6.4334">
        <ele>1239.7</ele>
        <time>2018-06-19T13:21:54Z</time>
      </trkpt>
      <trkpt lat="44.07385" lon="6.43304">
        <ele>1243</ele>
        <time>2018-06-19T13:21:57Z</time>
      </trkpt>
      <trkpt lat="44.07387" lon="6.43295">
        <ele>1243</ele>
        <time>2018-06-19T13:21:58Z</time>
      </trkpt>
      <trkpt lat="44.07389" lon="6.43287">
        <ele>1244.11</ele>
        <time>2018-06-19T13:21:59Z</time>
      </trkpt>
      <trkpt lat="44.07392" lon="6.43281">
        <ele>1244.1</ele>
        <time>2018-06-19T13:22:00Z</time>
      </trkpt>
      <trkpt lat="44.07395" lon="6.43275">
        <ele>1245.19</ele>
        <time>2018-06-19T13:22:01Z</time>
      </trkpt>
      <trkpt lat="44.07399" lon="6.4327">
        <ele>1245.08</ele>
        <time>2018-06-19T13:22:02Z</time>
      </trkpt>
      <trkpt lat="44.07403" lon="6.43266">
        <ele>1246.52</ele>
        <time>2018-06-19T13:22:03Z</time>
      </trkpt>
      <trkpt lat="44.07407" lon="6.43263">
        <ele>1246.56</ele>
        <time>2018-06-19T13:22:04Z</time>
      </trkpt>
      <trkpt lat="44.07411" lon="6.43262">
        <ele>1247.77</ele>
        <time>2018-06-19T13:22:05Z</time>
      </trkpt>
      <trkpt lat="44.07415" lon="6.43263">
        <ele>1247.88</ele>
        <time>2018-06-19T13:22:06Z</time>
      </trkpt>
      <trkpt lat="44.07418" lon="6.43266">
        <ele>1249.05</ele>
        <time>2018-06-19T13:22:07Z</time>
      </trkpt>
      <trkpt lat="44.07421" lon="6.43273">
        <ele>1249.75</ele>
        <time>2018-06-19T13:22:08Z</time>
      </trkpt>
      <trkpt lat="44.07423" lon="6.43281">
        <ele>1249.74</ele>
        <time>2018-06-19T13:22:09Z</time>
      </trkpt>
      <trkpt lat="44.07424" lon="6.43291">
        <ele>1251.13</ele>
        <time>2018-06-19T13:22:10Z</time>
      </trkpt>
      <trkpt lat="44.07427" lon="6.43303">
        <ele>1251.11</ele>
        <time>2018-06-19T13:22:11Z</time>
      </trkpt>
      <trkpt lat="44.07433" lon="6.43351">
        <ele>1254.39</ele>
        <time>2018-06-19T13:22:15Z</time>
      </trkpt>
      <trkpt lat="44.07435" lon="6.43362">
        <ele>1254.37</ele>
        <time>2018-06-19T13:22:16Z</time>
      </trkpt>
      <trkpt lat="44.07437" lon="6.43373">
        <ele>1254.41</ele>
        <time>2018-06-19T13:22:17Z</time>
      </trkpt>
      <trkpt lat="44.0744" lon="6.43381">
        <ele>1255.55</ele>
        <time>2018-06-19T13:22:18Z</time>
      </trkpt>
      <trkpt lat="44.07443" lon="6.43389">
        <ele>1255.59</ele>
        <time>2018-06-19T13:22:19Z</time>
      </trkpt>
      <trkpt lat="44.07446" lon="6.43397">
        <ele>1256.4</ele>
        <time>2018-06-19T13:22:20Z</time>
      </trkpt>
      <trkpt lat="44.07452" lon="6.43405">
        <ele>1256.39</ele>
        <time>2018-06-19T13:22:21Z</time>
      </trkpt>
      <trkpt lat="44.07458" lon="6.43413">
        <ele>1257.64</ele>
        <time>2018-06-19T13:22:22Z</time>
      </trkpt>
      <trkpt lat="44.07475" lon="6.43442">
        <ele>1260.67</ele>
        <time>2018-06-19T13:22:25Z</time>
      </trkpt>
      <trkpt lat="44.07478" lon="6.43452">
        <ele>1260.67</ele>
        <time>2018-06-19T13:22:26Z</time>
      </trkpt>
      <trkpt lat="44.07489" lon="6.43482">
        <ele>1263.36</ele>
        <time>2018-06-19T13:22:29Z</time>
      </trkpt>
      <trkpt lat="44.07493" lon="6.43492">
        <ele>1264.46</ele>
        <time>2018-06-19T13:22:30Z</time>
      </trkpt>
      <trkpt lat="44.07498" lon="6.43499">
        <ele>1265.4</ele>
        <time>2018-06-19T13:22:31Z</time>
      </trkpt>
      <trkpt lat="44.07504" lon="6.43506">
        <ele>1266.48</ele>
        <time>2018-06-19T13:22:32Z</time>
      </trkpt>
      <trkpt lat="44.07511" lon="6.43511">
        <ele>1267.38</ele>
        <time>2018-06-19T13:22:33Z</time>
      </trkpt>
      <trkpt lat="44.07518" lon="6.43516">
        <ele>1268.4</ele>
        <time>2018-06-19T13:22:34Z</time>
      </trkpt>
      <trkpt lat="44.07525" lon="6.43522">
        <ele>1268.42</ele>
        <time>2018-06-19T13:22:35Z</time>
      </trkpt>
      <trkpt lat="44.07539" lon="6.43536">
        <ele>1271.27</ele>
        <time>2018-06-19T13:22:37Z</time>
      </trkpt>
      <trkpt lat="44.07544" lon="6.43544">
        <ele>1272.15</ele>
        <time>2018-06-19T13:22:38Z</time>
      </trkpt>
      <trkpt lat="44.07548" lon="6.43552">
        <ele>1272.15</ele>
        <time>2018-06-19T13:22:39Z</time>
      </trkpt>
      <trkpt lat="44.0755" lon="6.43559">
        <ele>1273.47</ele>
        <time>2018-06-19T13:22:40Z</time>
      </trkpt>
      <trkpt lat="44.07552" lon="6.43564">
        <ele>1273.48</ele>
        <time>2018-06-19T13:22:41Z</time>
      </trkpt>
      <trkpt lat="44.07554" lon="6.43566">
        <ele>1274.46</ele>
        <time>2018-06-19T13:22:42Z</time>
      </trkpt>
      <trkpt lat="44.07556" lon="6.43567">
        <ele>1274.43</ele>
        <time>2018-06-19T13:22:43Z</time>
      </trkpt>
      <trkpt lat="44.07558" lon="6.43566">
        <ele>1275.35</ele>
        <time>2018-06-19T13:22:44Z</time>
      </trkpt>
      <trkpt lat="44.07559" lon="6.43563">
        <ele>1275.43</ele>
        <time>2018-06-19T13:22:45Z</time>
      </trkpt>
      <trkpt lat="44.0756" lon="6.43557">
        <ele>1276.14</ele>
        <time>2018-06-19T13:22:46Z</time>
      </trkpt>
      <trkpt lat="44.07561" lon="6.43549">
        <ele>1276.2</ele>
        <time>2018-06-19T13:22:47Z</time>
      </trkpt>
      <trkpt lat="44.07565" lon="6.43529">
        <ele>1277.35</ele>
        <time>2018-06-19T13:22:49Z</time>
      </trkpt>
      <trkpt lat="44.07571" lon="6.43505">
        <ele>1278.97</ele>
        <time>2018-06-19T13:22:51Z</time>
      </trkpt>
      <trkpt lat="44.07573" lon="6.43491">
        <ele>1280.48</ele>
        <time>2018-06-19T13:22:52Z</time>
      </trkpt>
      <trkpt lat="44.07573" lon="6.43477">
        <ele>1281.5</ele>
        <time>2018-06-19T13:22:53Z</time>
      </trkpt>
      <trkpt lat="44.07572" lon="6.43464">
        <ele>1282.48</ele>
        <time>2018-06-19T13:22:54Z</time>
      </trkpt>
      <trkpt lat="44.07566" lon="6.43429">
        <ele>1284.77</ele>
        <time>2018-06-19T13:22:57Z</time>
      </trkpt>
      <trkpt lat="44.07566" lon="6.43418">
        <ele>1285.77</ele>
        <time>2018-06-19T13:22:58Z</time>
      </trkpt>
      <trkpt lat="44.07567" lon="6.43407">
        <ele>1286.63</ele>
        <time>2018-06-19T13:22:59Z</time>
      </trkpt>
      <trkpt lat="44.07568" lon="6.43396">
        <ele>1286.69</ele>
        <time>2018-06-19T13:23:00Z</time>
      </trkpt>
      <trkpt lat="44.07572" lon="6.43385">
        <ele>1288.27</ele>
        <time>2018-06-19T13:23:01Z</time>
      </trkpt>
      <trkpt lat="44.07576" lon="6.43375">
        <ele>1289.25</ele>
        <time>2018-06-19T13:23:02Z</time>
      </trkpt>
      <trkpt lat="44.0758" lon="6.43367">
        <ele>1289.98</ele>
        <time>2018-06-19T13:23:03Z</time>
      </trkpt>
      <trkpt lat="44.07586" lon="6.43361">
        <ele>1290.07</ele>
        <time>2018-06-19T13:23:04Z</time>
      </trkpt>
      <trkpt lat="44.07591" lon="6.43357">
        <ele>1290.86</ele>
        <time>2018-06-19T13:23:05Z</time>
      </trkpt>
      <trkpt lat="44.07596" lon="6.43355">
        <ele>1292.04</ele>
        <time>2018-06-19T13:23:06Z</time>
      </trkpt>
      <trkpt lat="44.07601" lon="6.43354">
        <ele>1292.15</ele>
        <time>2018-06-19T13:23:07Z</time>
      </trkpt>
      <trkpt lat="44.07605" lon="6.43355">
        <ele>1293.42</ele>
        <time>2018-06-19T13:23:08Z</time>
      </trkpt>
      <trkpt lat="44.07611" lon="6.43356">
        <ele>1293.56</ele>
        <time>2018-06-19T13:23:09Z</time>
      </trkpt>
      <trkpt lat="44.07616" lon="6.43357">
        <ele>1294.4</ele>
        <time>2018-06-19T13:23:10Z</time>
      </trkpt>
      <trkpt lat="44.07623" lon="6.43356">
        <ele>1295.39</ele>
        <time>2018-06-19T13:23:11Z</time>
      </trkpt>
      <trkpt lat="44.0763" lon="6.43353">
        <ele>1296.4</ele>
        <time>2018-06-19T13:23:12Z</time>
      </trkpt>
      <trkpt lat="44.07635" lon="6.43349">
        <ele>1296.49</ele>
        <time>2018-06-19T13:23:13Z</time>
      </trkpt>
      <trkpt lat="44.0764" lon="6.43345">
        <ele>1297.29</ele>
        <time>2018-06-19T13:23:14Z</time>
      </trkpt>
      <trkpt lat="44.07643" lon="6.4334">
        <ele>1297.38</ele>
        <time>2018-06-19T13:23:15Z</time>
      </trkpt>
      <trkpt lat="44.07643" lon="6.43336">
        <ele>1298.48</ele>
        <time>2018-06-19T13:23:16Z</time>
      </trkpt>
      <trkpt lat="44.07641" lon="6.4333">
        <ele>1299.47</ele>
        <time>2018-06-19T13:23:17Z</time>
      </trkpt>
      <trkpt lat="44.07639" lon="6.43325">
        <ele>1300.32</ele>
        <time>2018-06-19T13:23:18Z</time>
      </trkpt>
      <trkpt lat="44.07637" lon="6.43322">
        <ele>1300.41</ele>
        <time>2018-06-19T13:23:19Z</time>
      </trkpt>
      <trkpt lat="44.07637" lon="6.43319">
        <ele>1300.34</ele>
        <time>2018-06-19T13:23:20Z</time>
      </trkpt>
      <trkpt lat="44.07634" lon="6.43315">
        <ele>1300.63</ele>
        <time>2018-06-19T13:23:36Z</time>
      </trkpt>
      <trkpt lat="44.07637" lon="6.43314">
        <ele>1302.42</ele>
        <time>2018-06-19T13:25:22Z</time>
      </trkpt>
      <trkpt lat="44.07641" lon="6.43317">
        <ele>1302.43</ele>
        <time>2018-06-19T13:25:23Z</time>
      </trkpt>
      <trkpt lat="44.07647" lon="6.43321">
        <ele>1302.44</ele>
        <time>2018-06-19T13:25:24Z</time>
      </trkpt>
      <trkpt lat="44.07652" lon="6.43325">
        <ele>1302.45</ele>
        <time>2018-06-19T13:25:25Z</time>
      </trkpt>
      <trkpt lat="44.07656" lon="6.43329">
        <ele>1302.46</ele>
        <time>2018-06-19T13:25:26Z</time>
      </trkpt>
      <trkpt lat="44.0766" lon="6.43333">
        <ele>1302.49</ele>
        <time>2018-06-19T13:25:27Z</time>
      </trkpt>
      <trkpt lat="44.07671" lon="6.4335">
        <ele>1305.2</ele>
        <time>2018-06-19T13:25:30Z</time>
      </trkpt>
      <trkpt lat="44.07674" lon="6.43357">
        <ele>1306.51</ele>
        <time>2018-06-19T13:25:31Z</time>
      </trkpt>
      <trkpt lat="44.07674" lon="6.43364">
        <ele>1306.67</ele>
        <time>2018-06-19T13:25:32Z</time>
      </trkpt>
      <trkpt lat="44.07673" lon="6.43373">
        <ele>1307.72</ele>
        <time>2018-06-19T13:25:33Z</time>
      </trkpt>
      <trkpt lat="44.07669" lon="6.43382">
        <ele>1309.18</ele>
        <time>2018-06-19T13:25:34Z</time>
      </trkpt>
      <trkpt lat="44.07665" lon="6.4339">
        <ele>1310.3</ele>
        <time>2018-06-19T13:25:35Z</time>
      </trkpt>
      <trkpt lat="44.07661" lon="6.43398">
        <ele>1311.1</ele>
        <time>2018-06-19T13:25:36Z</time>
      </trkpt>
      <trkpt lat="44.07658" lon="6.43406">
        <ele>1311.11</ele>
        <time>2018-06-19T13:25:37Z</time>
      </trkpt>
      <trkpt lat="44.07655" lon="6.43415">
        <ele>1312.03</ele>
        <time>2018-06-19T13:25:38Z</time>
      </trkpt>
      <trkpt lat="44.07654" lon="6.43424">
        <ele>1312.15</ele>
        <time>2018-06-19T13:25:39Z</time>
      </trkpt>
      <trkpt lat="44.07653" lon="6.43434">
        <ele>1312.15</ele>
        <time>2018-06-19T13:25:40Z</time>
      </trkpt>
      <trkpt lat="44.07653" lon="6.43445">
        <ele>1313.34</ele>
        <time>2018-06-19T13:25:41Z</time>
      </trkpt>
      <trkpt lat="44.07654" lon="6.43455">
        <ele>1313.35</ele>
        <time>2018-06-19T13:25:42Z</time>
      </trkpt>
      <trkpt lat="44.07655" lon="6.43466">
        <ele>1314.25</ele>
        <time>2018-06-19T13:25:43Z</time>
      </trkpt>
      <trkpt lat="44.07656" lon="6.43523">
        <ele>1314.39</ele>
        <time>2018-06-19T13:25:51Z</time>
      </trkpt>
      <trkpt lat="44.07655" lon="6.43538">
        <ele>1314.31</ele>
        <time>2018-06-19T13:25:53Z</time>
      </trkpt>
      <trkpt lat="44.07637" lon="6.43612">
        <ele>1314.33</ele>
        <time>2018-06-19T13:26:01Z</time>
      </trkpt>
      <trkpt lat="44.07633" lon="6.43621">
        <ele>1314.33</ele>
        <time>2018-06-19T13:26:02Z</time>
      </trkpt>
      <trkpt lat="44.07629" lon="6.43629">
        <ele>1314.34</ele>
        <time>2018-06-19T13:26:03Z</time>
      </trkpt>
      <trkpt lat="44.07591" lon="6.43699">
        <ele>1315.38</ele>
        <time>2018-06-19T13:26:11Z</time>
      </trkpt>
      <trkpt lat="44.07588" lon="6.4371">
        <ele>1315.4</ele>
        <time>2018-06-19T13:26:12Z</time>
      </trkpt>
      <trkpt lat="44.07582" lon="6.4374">
        <ele>1315.44</ele>
        <time>2018-06-19T13:26:15Z</time>
      </trkpt>
      <trkpt lat="44.07582" lon="6.4375">
        <ele>1315.45</ele>
        <time>2018-06-19T13:26:16Z</time>
      </trkpt>
      <trkpt lat="44.07583" lon="6.4376">
        <ele>1316.29</ele>
        <time>2018-06-19T13:26:17Z</time>
      </trkpt>
      <trkpt lat="44.07586" lon="6.43769">
        <ele>1316.3</ele>
        <time>2018-06-19T13:26:18Z</time>
      </trkpt>
      <trkpt lat="44.0759" lon="6.43779">
        <ele>1317.15</ele>
        <time>2018-06-19T13:26:19Z</time>
      </trkpt>
      <trkpt lat="44.07593" lon="6.43787">
        <ele>1317.17</ele>
        <time>2018-06-19T13:26:20Z</time>
      </trkpt>
      <trkpt lat="44.07605" lon="6.43811">
        <ele>1318.85</ele>
        <time>2018-06-19T13:26:23Z</time>
      </trkpt>
      <trkpt lat="44.07616" lon="6.43837">
        <ele>1320.43</ele>
        <time>2018-06-19T13:26:26Z</time>
      </trkpt>
      <trkpt lat="44.07619" lon="6.43847">
        <ele>1321.67</ele>
        <time>2018-06-19T13:26:27Z</time>
      </trkpt>
      <trkpt lat="44.07621" lon="6.43858">
        <ele>1321.69</ele>
        <time>2018-06-19T13:26:28Z</time>
      </trkpt>
      <trkpt lat="44.07624" lon="6.43869">
        <ele>1322.82</ele>
        <time>2018-06-19T13:26:29Z</time>
      </trkpt>
      <trkpt lat="44.0763" lon="6.4389">
        <ele>1323.96</ele>
        <time>2018-06-19T13:26:31Z</time>
      </trkpt>
      <trkpt lat="44.07634" lon="6.43899">
        <ele>1324.81</ele>
        <time>2018-06-19T13:26:32Z</time>
      </trkpt>
      <trkpt lat="44.07638" lon="6.43907">
        <ele>1324.93</ele>
        <time>2018-06-19T13:26:33Z</time>
      </trkpt>
      <trkpt lat="44.07644" lon="6.43914">
        <ele>1326.32</ele>
        <time>2018-06-19T13:26:34Z</time>
      </trkpt>
      <trkpt lat="44.0765" lon="6.4392">
        <ele>1326.35</ele>
        <time>2018-06-19T13:26:35Z</time>
      </trkpt>
      <trkpt lat="44.07657" lon="6.43925">
        <ele>1327.42</ele>
        <time>2018-06-19T13:26:36Z</time>
      </trkpt>
      <trkpt lat="44.07664" lon="6.43929">
        <ele>1328.21</ele>
        <time>2018-06-19T13:26:37Z</time>
      </trkpt>
      <trkpt lat="44.07673" lon="6.43932">
        <ele>1328.23</ele>
        <time>2018-06-19T13:26:38Z</time>
      </trkpt>
      <trkpt lat="44.0768" lon="6.43934">
        <ele>1329.7</ele>
        <time>2018-06-19T13:26:39Z</time>
      </trkpt>
      <trkpt lat="44.07688" lon="6.43936">
        <ele>1329.59</ele>
        <time>2018-06-19T13:26:40Z</time>
      </trkpt>
      <trkpt lat="44.07704" lon="6.43942">
        <ele>1330.84</ele>
        <time>2018-06-19T13:26:42Z</time>
      </trkpt>
      <trkpt lat="44.07711" lon="6.43947">
        <ele>1332.16</ele>
        <time>2018-06-19T13:26:43Z</time>
      </trkpt>
      <trkpt lat="44.07718" lon="6.43952">
        <ele>1332.08</ele>
        <time>2018-06-19T13:26:44Z</time>
      </trkpt>
      <trkpt lat="44.07732" lon="6.43964">
        <ele>1333.79</ele>
        <time>2018-06-19T13:26:46Z</time>
      </trkpt>
      <trkpt lat="44.07739" lon="6.43972">
        <ele>1335.36</ele>
        <time>2018-06-19T13:26:47Z</time>
      </trkpt>
      <trkpt lat="44.07745" lon="6.4398">
        <ele>1335.44</ele>
        <time>2018-06-19T13:26:48Z</time>
      </trkpt>
      <trkpt lat="44.07759" lon="6.43998">
        <ele>1336.84</ele>
        <time>2018-06-19T13:26:50Z</time>
      </trkpt>
      <trkpt lat="44.0778" lon="6.44029">
        <ele>1339.82</ele>
        <time>2018-06-19T13:26:53Z</time>
      </trkpt>
      <trkpt lat="44.07786" lon="6.4404">
        <ele>1341.24</ele>
        <time>2018-06-19T13:26:54Z</time>
      </trkpt>
      <trkpt lat="44.07791" lon="6.44052">
        <ele>1342.18</ele>
        <time>2018-06-19T13:26:55Z</time>
      </trkpt>
      <trkpt lat="44.07795" lon="6.44064">
        <ele>1342.25</ele>
        <time>2018-06-19T13:26:56Z</time>
      </trkpt>
      <trkpt lat="44.07806" lon="6.44097">
        <ele>1345.84</ele>
        <time>2018-06-19T13:26:59Z</time>
      </trkpt>
      <trkpt lat="44.07811" lon="6.44105">
        <ele>1345.88</ele>
        <time>2018-06-19T13:27:00Z</time>
      </trkpt>
      <trkpt lat="44.07817" lon="6.44112">
        <ele>1347.39</ele>
        <time>2018-06-19T13:27:01Z</time>
      </trkpt>
      <trkpt lat="44.07836" lon="6.44136">
        <ele>1350.08</ele>
        <time>2018-06-19T13:27:04Z</time>
      </trkpt>
      <trkpt lat="44.07841" lon="6.44144">
        <ele>1350.05</ele>
        <time>2018-06-19T13:27:05Z</time>
      </trkpt>
      <trkpt lat="44.07844" lon="6.44152">
        <ele>1351.28</ele>
        <time>2018-06-19T13:27:06Z</time>
      </trkpt>
      <trkpt lat="44.07846" lon="6.44159">
        <ele>1350.57</ele>
        <time>2018-06-19T13:27:07Z</time>
      </trkpt>
      <trkpt lat="44.07847" lon="6.44166">
        <ele>1351.65</ele>
        <time>2018-06-19T13:27:08Z</time>
      </trkpt>
      <trkpt lat="44.07845" lon="6.44171">
        <ele>1351.74</ele>
        <time>2018-06-19T13:27:09Z</time>
      </trkpt>
      <trkpt lat="44.07839" lon="6.44176">
        <ele>1353.21</ele>
        <time>2018-06-19T13:27:10Z</time>
      </trkpt>
      <trkpt lat="44.07833" lon="6.4418">
        <ele>1354.32</ele>
        <time>2018-06-19T13:27:11Z</time>
      </trkpt>
      <trkpt lat="44.07826" lon="6.44183">
        <ele>1354.34</ele>
        <time>2018-06-19T13:27:12Z</time>
      </trkpt>
      <trkpt lat="44.07821" lon="6.44186">
        <ele>1355.5</ele>
        <time>2018-06-19T13:27:13Z</time>
      </trkpt>
      <trkpt lat="44.07817" lon="6.4419">
        <ele>1355.51</ele>
        <time>2018-06-19T13:27:14Z</time>
      </trkpt>
      <trkpt lat="44.07813" lon="6.44195">
        <ele>1356.46</ele>
        <time>2018-06-19T13:27:15Z</time>
      </trkpt>
      <trkpt lat="44.0781" lon="6.44201">
        <ele>1356.47</ele>
        <time>2018-06-19T13:27:16Z</time>
      </trkpt>
      <trkpt lat="44.07807" lon="6.4421">
        <ele>1357.89</ele>
        <time>2018-06-19T13:27:17Z</time>
      </trkpt>
      <trkpt lat="44.07805" lon="6.4422">
        <ele>1357.96</ele>
        <time>2018-06-19T13:27:18Z</time>
      </trkpt>
      <trkpt lat="44.07803" lon="6.44233">
        <ele>1359.32</ele>
        <time>2018-06-19T13:27:19Z</time>
      </trkpt>
      <trkpt lat="44.07801" lon="6.44245">
        <ele>1359.4</ele>
        <time>2018-06-19T13:27:20Z</time>
      </trkpt>
      <trkpt lat="44.07798" lon="6.44284">
        <ele>1362.69</ele>
        <time>2018-06-19T13:27:23Z</time>
      </trkpt>
      <trkpt lat="44.07797" lon="6.44308">
        <ele>1363.86</ele>
        <time>2018-06-19T13:27:25Z</time>
      </trkpt>
      <trkpt lat="44.07798" lon="6.44329">
        <ele>1367.01</ele>
        <time>2018-06-19T13:27:27Z</time>
      </trkpt>
      <trkpt lat="44.07799" lon="6.44343">
        <ele>1368.09</ele>
        <time>2018-06-19T13:27:29Z</time>
      </trkpt>
      <trkpt lat="44.0781" lon="6.44364">
        <ele>1368.16</ele>
        <time>2018-06-19T13:27:38Z</time>
      </trkpt>
      <trkpt lat="44.07813" lon="6.44364">
        <ele>1368.08</ele>
        <time>2018-06-19T13:27:52Z</time>
      </trkpt>
      <trkpt lat="44.07815" lon="6.44366">
        <ele>1368.09</ele>
        <time>2018-06-19T13:27:53Z</time>
      </trkpt>
      <trkpt lat="44.07835" lon="6.44382">
        <ele>1365.48</ele>
        <time>2018-06-19T13:27:58Z</time>
      </trkpt>
      <trkpt lat="44.07841" lon="6.44385">
        <ele>1363.97</ele>
        <time>2018-06-19T13:27:59Z</time>
      </trkpt>
      <trkpt lat="44.07847" lon="6.44386">
        <ele>1363.98</ele>
        <time>2018-06-19T13:28:00Z</time>
      </trkpt>
      <trkpt lat="44.07852" lon="6.44387">
        <ele>1363</ele>
        <time>2018-06-19T13:28:01Z</time>
      </trkpt>
      <trkpt lat="44.07879" lon="6.44388">
        <ele>1360.79</ele>
        <time>2018-06-19T13:28:05Z</time>
      </trkpt>
      <trkpt lat="44.07902" lon="6.44381">
        <ele>1357.77</ele>
        <time>2018-06-19T13:28:08Z</time>
      </trkpt>
      <trkpt lat="44.07917" lon="6.44378">
        <ele>1356.71</ele>
        <time>2018-06-19T13:28:10Z</time>
      </trkpt>
      <trkpt lat="44.0793" lon="6.44378">
        <ele>1354.25</ele>
        <time>2018-06-19T13:28:12Z</time>
      </trkpt>
      <trkpt lat="44.07937" lon="6.4438">
        <ele>1353.24</ele>
        <time>2018-06-19T13:28:13Z</time>
      </trkpt>
      <trkpt lat="44.07942" lon="6.44384">
        <ele>1353.16</ele>
        <time>2018-06-19T13:28:14Z</time>
      </trkpt>
      <trkpt lat="44.07946" lon="6.4439">
        <ele>1352.1</ele>
        <time>2018-06-19T13:28:15Z</time>
      </trkpt>
      <trkpt lat="44.07951" lon="6.44398">
        <ele>1352.19</ele>
        <time>2018-06-19T13:28:16Z</time>
      </trkpt>
      <trkpt lat="44.07967" lon="6.44425">
        <ele>1348.5</ele>
        <time>2018-06-19T13:28:19Z</time>
      </trkpt>
      <trkpt lat="44.07972" lon="6.44433">
        <ele>1347.51</ele>
        <time>2018-06-19T13:28:20Z</time>
      </trkpt>
      <trkpt lat="44.07978" lon="6.44439">
        <ele>1346.43</ele>
        <time>2018-06-19T13:28:21Z</time>
      </trkpt>
      <trkpt lat="44.07982" lon="6.44444">
        <ele>1345.42</ele>
        <time>2018-06-19T13:28:22Z</time>
      </trkpt>
      <trkpt lat="44.07986" lon="6.4445">
        <ele>1344.32</ele>
        <time>2018-06-19T13:28:23Z</time>
      </trkpt>
      <trkpt lat="44.07988" lon="6.44456">
        <ele>1344.22</ele>
        <time>2018-06-19T13:28:24Z</time>
      </trkpt>
      <trkpt lat="44.0799" lon="6.44464">
        <ele>1343.01</ele>
        <time>2018-06-19T13:28:25Z</time>
      </trkpt>
      <trkpt lat="44.07991" lon="6.44473">
        <ele>1342.93</ele>
        <time>2018-06-19T13:28:26Z</time>
      </trkpt>
      <trkpt lat="44.07992" lon="6.44484">
        <ele>1341.95</ele>
        <time>2018-06-19T13:28:27Z</time>
      </trkpt>
      <trkpt lat="44.07994" lon="6.44494">
        <ele>1341.23</ele>
        <time>2018-06-19T13:28:28Z</time>
      </trkpt>
      <trkpt lat="44.07998" lon="6.44504">
        <ele>1341.26</ele>
        <time>2018-06-19T13:28:29Z</time>
      </trkpt>
      <trkpt lat="44.08003" lon="6.44514">
        <ele>1340.15</ele>
        <time>2018-06-19T13:28:30Z</time>
      </trkpt>
      <trkpt lat="44.08008" lon="6.44523">
        <ele>1339.3</ele>
        <time>2018-06-19T13:28:31Z</time>
      </trkpt>
      <trkpt lat="44.08027" lon="6.44561">
        <ele>1335.28</ele>
        <time>2018-06-19T13:28:35Z</time>
      </trkpt>
      <trkpt lat="44.08043" lon="6.44595">
        <ele>1331.94</ele>
        <time>2018-06-19T13:28:38Z</time>
      </trkpt>
      <trkpt lat="44.08049" lon="6.44605">
        <ele>1331.85</ele>
        <time>2018-06-19T13:28:39Z</time>
      </trkpt>
      <trkpt lat="44.08067" lon="6.44632">
        <ele>1328.39</ele>
        <time>2018-06-19T13:28:42Z</time>
      </trkpt>
      <trkpt lat="44.08079" lon="6.44651">
        <ele>1327.5</ele>
        <time>2018-06-19T13:28:44Z</time>
      </trkpt>
      <trkpt lat="44.08084" lon="6.44662">
        <ele>1327.4</ele>
        <time>2018-06-19T13:28:45Z</time>
      </trkpt>
      <trkpt lat="44.08092" lon="6.44687">
        <ele>1324.13</ele>
        <time>2018-06-19T13:28:47Z</time>
      </trkpt>
      <trkpt lat="44.08104" lon="6.44724">
        <ele>1320.52</ele>
        <time>2018-06-19T13:28:50Z</time>
      </trkpt>
      <trkpt lat="44.08112" lon="6.44758">
        <ele>1317.37</ele>
        <time>2018-06-19T13:28:53Z</time>
      </trkpt>
      <trkpt lat="44.08113" lon="6.44769">
        <ele>1317.27</ele>
        <time>2018-06-19T13:28:54Z</time>
      </trkpt>
      <trkpt lat="44.08115" lon="6.44788">
        <ele>1315.98</ele>
        <time>2018-06-19T13:28:56Z</time>
      </trkpt>
      <trkpt lat="44.08117" lon="6.44808">
        <ele>1314.47</ele>
        <time>2018-06-19T13:28:58Z</time>
      </trkpt>
      <trkpt lat="44.08124" lon="6.44846">
        <ele>1311.08</ele>
        <time>2018-06-19T13:29:02Z</time>
      </trkpt>
      <trkpt lat="44.08126" lon="6.44854">
        <ele>1310.96</ele>
        <time>2018-06-19T13:29:03Z</time>
      </trkpt>
      <trkpt lat="44.0813" lon="6.44877">
        <ele>1309.25</ele>
        <time>2018-06-19T13:29:06Z</time>
      </trkpt>
      <trkpt lat="44.08137" lon="6.44918">
        <ele>1306.11</ele>
        <time>2018-06-19T13:29:11Z</time>
      </trkpt>
      <trkpt lat="44.08141" lon="6.44944">
        <ele>1304.96</ele>
        <time>2018-06-19T13:29:14Z</time>
      </trkpt>
      <trkpt lat="44.08141" lon="6.44953">
        <ele>1303.81</ele>
        <time>2018-06-19T13:29:15Z</time>
      </trkpt>
      <trkpt lat="44.0814" lon="6.44973">
        <ele>1302.83</ele>
        <time>2018-06-19T13:29:17Z</time>
      </trkpt>
      <trkpt lat="44.08139" lon="6.44996">
        <ele>1301.06</ele>
        <time>2018-06-19T13:29:19Z</time>
      </trkpt>
      <trkpt lat="44.08139" lon="6.45006">
        <ele>1301</ele>
        <time>2018-06-19T13:29:20Z</time>
      </trkpt>
      <trkpt lat="44.0814" lon="6.45016">
        <ele>1299.39</ele>
        <time>2018-06-19T13:29:21Z</time>
      </trkpt>
      <trkpt lat="44.08141" lon="6.45026">
        <ele>1299.39</ele>
        <time>2018-06-19T13:29:22Z</time>
      </trkpt>
      <trkpt lat="44.08147" lon="6.45054">
        <ele>1295.48</ele>
        <time>2018-06-19T13:29:25Z</time>
      </trkpt>
      <trkpt lat="44.08149" lon="6.45064">
        <ele>1295.48</ele>
        <time>2018-06-19T13:29:26Z</time>
      </trkpt>
      <trkpt lat="44.08154" lon="6.45084">
        <ele>1293.61</ele>
        <time>2018-06-19T13:29:28Z</time>
      </trkpt>
      <trkpt lat="44.08164" lon="6.45123">
        <ele>1289.94</ele>
        <time>2018-06-19T13:29:32Z</time>
      </trkpt>
      <trkpt lat="44.08167" lon="6.45132">
        <ele>1289.95</ele>
        <time>2018-06-19T13:29:33Z</time>
      </trkpt>
      <trkpt lat="44.08177" lon="6.4516">
        <ele>1287.99</ele>
        <time>2018-06-19T13:29:36Z</time>
      </trkpt>
      <trkpt lat="44.08187" lon="6.4518">
        <ele>1286.06</ele>
        <time>2018-06-19T13:29:39Z</time>
      </trkpt>
      <trkpt lat="44.08191" lon="6.45186">
        <ele>1285.28</ele>
        <time>2018-06-19T13:29:40Z</time>
      </trkpt>
      <trkpt lat="44.08195" lon="6.45192">
        <ele>1285.19</ele>
        <time>2018-06-19T13:29:41Z</time>
      </trkpt>
      <trkpt lat="44.082" lon="6.45196">
        <ele>1283.85</ele>
        <time>2018-06-19T13:29:42Z</time>
      </trkpt>
      <trkpt lat="44.08205" lon="6.452">
        <ele>1283.03</ele>
        <time>2018-06-19T13:29:43Z</time>
      </trkpt>
      <trkpt lat="44.0821" lon="6.45202">
        <ele>1283.12</ele>
        <time>2018-06-19T13:29:44Z</time>
      </trkpt>
      <trkpt lat="44.08214" lon="6.45203">
        <ele>1281.72</ele>
        <time>2018-06-19T13:29:45Z</time>
      </trkpt>
      <trkpt lat="44.08219" lon="6.45203">
        <ele>1281.71</ele>
        <time>2018-06-19T13:29:46Z</time>
      </trkpt>
      <trkpt lat="44.08223" lon="6.45202">
        <ele>1280.65</ele>
        <time>2018-06-19T13:29:47Z</time>
      </trkpt>
      <trkpt lat="44.08226" lon="6.45201">
        <ele>1280.6</ele>
        <time>2018-06-19T13:29:48Z</time>
      </trkpt>
      <trkpt lat="44.08229" lon="6.45202">
        <ele>1279.83</ele>
        <time>2018-06-19T13:29:49Z</time>
      </trkpt>
      <trkpt lat="44.0823" lon="6.45203">
        <ele>1279.79</ele>
        <time>2018-06-19T13:29:50Z</time>
      </trkpt>
      <trkpt lat="44.08231" lon="6.45205">
        <ele>1279.79</ele>
        <time>2018-06-19T13:29:51Z</time>
      </trkpt>
      <trkpt lat="44.08231" lon="6.45208">
        <ele>1279.04</ele>
        <time>2018-06-19T13:29:52Z</time>
      </trkpt>
      <trkpt lat="44.0823" lon="6.45211">
        <ele>1278.99</ele>
        <time>2018-06-19T13:29:53Z</time>
      </trkpt>
      <trkpt lat="44.08229" lon="6.45213">
        <ele>1279.02</ele>
        <time>2018-06-19T13:29:54Z</time>
      </trkpt>
      <trkpt lat="44.08227" lon="6.45215">
        <ele>1279.04</ele>
        <time>2018-06-19T13:29:55Z</time>
      </trkpt>
      <trkpt lat="44.08224" lon="6.45216">
        <ele>1277.84</ele>
        <time>2018-06-19T13:29:56Z</time>
      </trkpt>
      <trkpt lat="44.08214" lon="6.45219">
        <ele>1277.9</ele>
        <time>2018-06-19T13:29:58Z</time>
      </trkpt>
      <trkpt lat="44.08209" lon="6.45219">
        <ele>1276.68</ele>
        <time>2018-06-19T13:29:59Z</time>
      </trkpt>
      <trkpt lat="44.08202" lon="6.45218">
        <ele>1276.67</ele>
        <time>2018-06-19T13:30:00Z</time>
      </trkpt>
      <trkpt lat="44.08196" lon="6.45215">
        <ele>1275.02</ele>
        <time>2018-06-19T13:30:01Z</time>
      </trkpt>
      <trkpt lat="44.0819" lon="6.45211">
        <ele>1274.22</ele>
        <time>2018-06-19T13:30:02Z</time>
      </trkpt>
      <trkpt lat="44.08184" lon="6.45206">
        <ele>1273.77</ele>
        <time>2018-06-19T13:30:03Z</time>
      </trkpt>
      <trkpt lat="44.08159" lon="6.45184">
        <ele>1270.82</ele>
        <time>2018-06-19T13:30:08Z</time>
      </trkpt>
      <trkpt lat="44.08155" lon="6.45179">
        <ele>1270.81</ele>
        <time>2018-06-19T13:30:09Z</time>
      </trkpt>
      <trkpt lat="44.08152" lon="6.45173">
        <ele>1269.73</ele>
        <time>2018-06-19T13:30:10Z</time>
      </trkpt>
      <trkpt lat="44.08148" lon="6.45165">
        <ele>1269.73</ele>
        <time>2018-06-19T13:30:11Z</time>
      </trkpt>
      <trkpt lat="44.08145" lon="6.45156">
        <ele>1269.73</ele>
        <time>2018-06-19T13:30:12Z</time>
      </trkpt>
      <trkpt lat="44.08141" lon="6.45147">
        <ele>1268.57</ele>
        <time>2018-06-19T13:30:13Z</time>
      </trkpt>
      <trkpt lat="44.08126" lon="6.45114">
        <ele>1266.3</ele>
        <time>2018-06-19T13:30:17Z</time>
      </trkpt>
      <trkpt lat="44.08118" lon="6.45097">
        <ele>1265.05</ele>
        <time>2018-06-19T13:30:19Z</time>
      </trkpt>
      <trkpt lat="44.08101" lon="6.45061">
        <ele>1262.65</ele>
        <time>2018-06-19T13:30:23Z</time>
      </trkpt>
      <trkpt lat="44.08086" lon="6.45019">
        <ele>1260.45</ele>
        <time>2018-06-19T13:30:27Z</time>
      </trkpt>
      <trkpt lat="44.08062" lon="6.44915">
        <ele>1257.84</ele>
        <time>2018-06-19T13:30:37Z</time>
      </trkpt>
      <trkpt lat="44.08058" lon="6.44899">
        <ele>1257.91</ele>
        <time>2018-06-19T13:30:39Z</time>
      </trkpt>
      <trkpt lat="44.08055" lon="6.44895">
        <ele>1257.96</ele>
        <time>2018-06-19T13:30:40Z</time>
      </trkpt>
      <trkpt lat="44.08051" lon="6.44892">
        <ele>1257.98</ele>
        <time>2018-06-19T13:30:41Z</time>
      </trkpt>
      <trkpt lat="44.08047" lon="6.44893">
        <ele>1257.97</ele>
        <time>2018-06-19T13:30:42Z</time>
      </trkpt>
      <trkpt lat="44.08044" lon="6.44896">
        <ele>1257.94</ele>
        <time>2018-06-19T13:30:43Z</time>
      </trkpt>
      <trkpt lat="44.08041" lon="6.44901">
        <ele>1257.14</ele>
        <time>2018-06-19T13:30:44Z</time>
      </trkpt>
      <trkpt lat="44.08037" lon="6.4491">
        <ele>1257.13</ele>
        <time>2018-06-19T13:30:45Z</time>
      </trkpt>
      <trkpt lat="44.08032" lon="6.44922">
        <ele>1257.15</ele>
        <time>2018-06-19T13:30:46Z</time>
      </trkpt>
      <trkpt lat="44.08012" lon="6.4498">
        <ele>1255.08</ele>
        <time>2018-06-19T13:30:50Z</time>
      </trkpt>
      <trkpt lat="44.08008" lon="6.44996">
        <ele>1255.06</ele>
        <time>2018-06-19T13:30:51Z</time>
      </trkpt>
      <trkpt lat="44.08005" lon="6.45013">
        <ele>1255.07</ele>
        <time>2018-06-19T13:30:52Z</time>
      </trkpt>
      <trkpt lat="44.08004" lon="6.4503">
        <ele>1254.19</ele>
        <time>2018-06-19T13:30:53Z</time>
      </trkpt>
      <trkpt lat="44.08003" lon="6.45047">
        <ele>1253.95</ele>
        <time>2018-06-19T13:30:54Z</time>
      </trkpt>
      <trkpt lat="44.08003" lon="6.45063">
        <ele>1252.42</ele>
        <time>2018-06-19T13:30:55Z</time>
      </trkpt>
      <trkpt lat="44.08003" lon="6.45125">
        <ele>1248.24</ele>
        <time>2018-06-19T13:30:59Z</time>
      </trkpt>
      <trkpt lat="44.08007" lon="6.4517">
        <ele>1244.99</ele>
        <time>2018-06-19T13:31:02Z</time>
      </trkpt>
      <trkpt lat="44.08011" lon="6.45213">
        <ele>1241.64</ele>
        <time>2018-06-19T13:31:05Z</time>
      </trkpt>
      <trkpt lat="44.08018" lon="6.45268">
        <ele>1237.25</ele>
        <time>2018-06-19T13:31:09Z</time>
      </trkpt>
      <trkpt lat="44.08021" lon="6.45296">
        <ele>1236.47</ele>
        <time>2018-06-19T13:31:11Z</time>
      </trkpt>
      <trkpt lat="44.08026" lon="6.45322">
        <ele>1233.71</ele>
        <time>2018-06-19T13:31:13Z</time>
      </trkpt>
      <trkpt lat="44.08037" lon="6.45368">
        <ele>1229.95</ele>
        <time>2018-06-19T13:31:17Z</time>
      </trkpt>
      <trkpt lat="44.08038" lon="6.45377">
        <ele>1229</ele>
        <time>2018-06-19T13:31:18Z</time>
      </trkpt>
      <trkpt lat="44.08038" lon="6.45386">
        <ele>1228.8</ele>
        <time>2018-06-19T13:31:19Z</time>
      </trkpt>
      <trkpt lat="44.08037" lon="6.45395">
        <ele>1227.46</ele>
        <time>2018-06-19T13:31:20Z</time>
      </trkpt>
      <trkpt lat="44.08035" lon="6.45402">
        <ele>1226.53</ele>
        <time>2018-06-19T13:31:21Z</time>
      </trkpt>
      <trkpt lat="44.08033" lon="6.4541">
        <ele>1225.78</ele>
        <time>2018-06-19T13:31:22Z</time>
      </trkpt>
      <trkpt lat="44.0803" lon="6.45417">
        <ele>1225.81</ele>
        <time>2018-06-19T13:31:23Z</time>
      </trkpt>
      <trkpt lat="44.08026" lon="6.45424">
        <ele>1224.47</ele>
        <time>2018-06-19T13:31:24Z</time>
      </trkpt>
      <trkpt lat="44.08021" lon="6.4543">
        <ele>1224.4</ele>
        <time>2018-06-19T13:31:25Z</time>
      </trkpt>
      <trkpt lat="44.08017" lon="6.45437">
        <ele>1223.12</ele>
        <time>2018-06-19T13:31:26Z</time>
      </trkpt>
      <trkpt lat="44.08012" lon="6.45442">
        <ele>1223.06</ele>
        <time>2018-06-19T13:31:27Z</time>
      </trkpt>
      <trkpt lat="44.08009" lon="6.45451">
        <ele>1220.33</ele>
        <time>2018-06-19T13:31:29Z</time>
      </trkpt>
      <trkpt lat="44.0801" lon="6.45454">
        <ele>1220.24</ele>
        <time>2018-06-19T13:31:30Z</time>
      </trkpt>
      <trkpt lat="44.08012" lon="6.45455">
        <ele>1220.23</ele>
        <time>2018-06-19T13:31:31Z</time>
      </trkpt>
      <trkpt lat="44.08015" lon="6.45454">
        <ele>1220.19</ele>
        <time>2018-06-19T13:31:32Z</time>
      </trkpt>
      <trkpt lat="44.08018" lon="6.45451">
        <ele>1220.2</ele>
        <time>2018-06-19T13:31:33Z</time>
      </trkpt>
      <trkpt lat="44.08022" lon="6.45447">
        <ele>1220.26</ele>
        <time>2018-06-19T13:31:34Z</time>
      </trkpt>
      <trkpt lat="44.08026" lon="6.45442">
        <ele>1220.26</ele>
        <time>2018-06-19T13:31:35Z</time>
      </trkpt>
      <trkpt lat="44.08048" lon="6.4541">
        <ele>1217.07</ele>
        <time>2018-06-19T13:31:40Z</time>
      </trkpt>
      <trkpt lat="44.08052" lon="6.45403">
        <ele>1217</ele>
        <time>2018-06-19T13:31:41Z</time>
      </trkpt>
      <trkpt lat="44.08055" lon="6.45395">
        <ele>1215.84</ele>
        <time>2018-06-19T13:31:42Z</time>
      </trkpt>
      <trkpt lat="44.08058" lon="6.45387">
        <ele>1215.79</ele>
        <time>2018-06-19T13:31:43Z</time>
      </trkpt>
      <trkpt lat="44.0806" lon="6.45378">
        <ele>1214.27</ele>
        <time>2018-06-19T13:31:44Z</time>
      </trkpt>
      <trkpt lat="44.08062" lon="6.45369">
        <ele>1213.43</ele>
        <time>2018-06-19T13:31:45Z</time>
      </trkpt>
      <trkpt lat="44.08063" lon="6.45361">
        <ele>1213.46</ele>
        <time>2018-06-19T13:31:46Z</time>
      </trkpt>
      <trkpt lat="44.08064" lon="6.45353">
        <ele>1211.95</ele>
        <time>2018-06-19T13:31:47Z</time>
      </trkpt>
      <trkpt lat="44.08065" lon="6.45344">
        <ele>1211.94</ele>
        <time>2018-06-19T13:31:48Z</time>
      </trkpt>
      <trkpt lat="44.08065" lon="6.45328">
        <ele>1210.93</ele>
        <time>2018-06-19T13:31:50Z</time>
      </trkpt>
      <trkpt lat="44.08062" lon="6.45294">
        <ele>1208.54</ele>
        <time>2018-06-19T13:31:54Z</time>
      </trkpt>
      <trkpt lat="44.08061" lon="6.45278">
        <ele>1207.1</ele>
        <time>2018-06-19T13:31:56Z</time>
      </trkpt>
      <trkpt lat="44.08062" lon="6.45254">
        <ele>1205.06</ele>
        <time>2018-06-19T13:31:59Z</time>
      </trkpt>
      <trkpt lat="44.0807" lon="6.45236">
        <ele>1203.33</ele>
        <time>2018-06-19T13:32:04Z</time>
      </trkpt>
      <trkpt lat="44.08072" lon="6.45237">
        <ele>1202.41</ele>
        <time>2018-06-19T13:32:05Z</time>
      </trkpt>
      <trkpt lat="44.08087" lon="6.45254">
        <ele>1201.51</ele>
        <time>2018-06-19T13:32:09Z</time>
      </trkpt>
      <trkpt lat="44.08093" lon="6.45259">
        <ele>1201.52</ele>
        <time>2018-06-19T13:32:10Z</time>
      </trkpt>
      <trkpt lat="44.08112" lon="6.45276">
        <ele>1198.38</ele>
        <time>2018-06-19T13:32:13Z</time>
      </trkpt>
      <trkpt lat="44.08117" lon="6.45282">
        <ele>1197.65</ele>
        <time>2018-06-19T13:32:14Z</time>
      </trkpt>
      <trkpt lat="44.08122" lon="6.4529">
        <ele>1196.78</ele>
        <time>2018-06-19T13:32:15Z</time>
      </trkpt>
      <trkpt lat="44.08126" lon="6.45298">
        <ele>1196.82</ele>
        <time>2018-06-19T13:32:16Z</time>
      </trkpt>
      <trkpt lat="44.08139" lon="6.45335">
        <ele>1194.42</ele>
        <time>2018-06-19T13:32:20Z</time>
      </trkpt>
      <trkpt lat="44.08145" lon="6.45352">
        <ele>1192.33</ele>
        <time>2018-06-19T13:32:22Z</time>
      </trkpt>
      <trkpt lat="44.08148" lon="6.45359">
        <ele>1192.34</ele>
        <time>2018-06-19T13:32:23Z</time>
      </trkpt>
      <trkpt lat="44.08152" lon="6.45364">
        <ele>1190.67</ele>
        <time>2018-06-19T13:32:24Z</time>
      </trkpt>
      <trkpt lat="44.08156" lon="6.45367">
        <ele>1190.69</ele>
        <time>2018-06-19T13:32:25Z</time>
      </trkpt>
      <trkpt lat="44.08161" lon="6.4537">
        <ele>1190.69</ele>
        <time>2018-06-19T13:32:26Z</time>
      </trkpt>
      <trkpt lat="44.08168" lon="6.45371">
        <ele>1189.42</ele>
        <time>2018-06-19T13:32:27Z</time>
      </trkpt>
      <trkpt lat="44.08175" lon="6.45372">
        <ele>1188.68</ele>
        <time>2018-06-19T13:32:28Z</time>
      </trkpt>
      <trkpt lat="44.08182" lon="6.45373">
        <ele>1188.65</ele>
        <time>2018-06-19T13:32:29Z</time>
      </trkpt>
      <trkpt lat="44.08213" lon="6.45378">
        <ele>1186.24</ele>
        <time>2018-06-19T13:32:33Z</time>
      </trkpt>
      <trkpt lat="44.08229" lon="6.4538">
        <ele>1184.88</ele>
        <time>2018-06-19T13:32:35Z</time>
      </trkpt>
      <trkpt lat="44.08237" lon="6.45379">
        <ele>1183.57</ele>
        <time>2018-06-19T13:32:36Z</time>
      </trkpt>
      <trkpt lat="44.08246" lon="6.45379">
        <ele>1183.55</ele>
        <time>2018-06-19T13:32:37Z</time>
      </trkpt>
      <trkpt lat="44.08256" lon="6.4538">
        <ele>1182.38</ele>
        <time>2018-06-19T13:32:38Z</time>
      </trkpt>
      <trkpt lat="44.08266" lon="6.45381">
        <ele>1182.32</ele>
        <time>2018-06-19T13:32:39Z</time>
      </trkpt>
      <trkpt lat="44.08301" lon="6.45382">
        <ele>1178.79</ele>
        <time>2018-06-19T13:32:43Z</time>
      </trkpt>
      <trkpt lat="44.08308" lon="6.4538">
        <ele>1178.74</ele>
        <time>2018-06-19T13:32:44Z</time>
      </trkpt>
      <trkpt lat="44.08315" lon="6.45377">
        <ele>1178.68</ele>
        <time>2018-06-19T13:32:45Z</time>
      </trkpt>
      <trkpt lat="44.08321" lon="6.45376">
        <ele>1178.67</ele>
        <time>2018-06-19T13:32:46Z</time>
      </trkpt>
      <trkpt lat="44.08325" lon="6.45377">
        <ele>1177.9</ele>
        <time>2018-06-19T13:32:47Z</time>
      </trkpt>
      <trkpt lat="44.08326" lon="6.4538">
        <ele>1178.06</ele>
        <time>2018-06-19T13:32:48Z</time>
      </trkpt>
      <trkpt lat="44.08326" lon="6.45383">
        <ele>1178.05</ele>
        <time>2018-06-19T13:32:49Z</time>
      </trkpt>
      <trkpt lat="44.08325" lon="6.45387">
        <ele>1177.08</ele>
        <time>2018-06-19T13:32:50Z</time>
      </trkpt>
      <trkpt lat="44.08323" lon="6.45388">
        <ele>1177.06</ele>
        <time>2018-06-19T13:32:51Z</time>
      </trkpt>
      <trkpt lat="44.08321" lon="6.45388">
        <ele>1177.14</ele>
        <time>2018-06-19T13:32:52Z</time>
      </trkpt>
      <trkpt lat="44.08318" lon="6.45388">
        <ele>1176.38</ele>
        <time>2018-06-19T13:32:53Z</time>
      </trkpt>
      <trkpt lat="44.08313" lon="6.45388">
        <ele>1176.37</ele>
        <time>2018-06-19T13:32:54Z</time>
      </trkpt>
      <trkpt lat="44.08306" lon="6.45388">
        <ele>1176.38</ele>
        <time>2018-06-19T13:32:55Z</time>
      </trkpt>
      <trkpt lat="44.08299" lon="6.45391">
        <ele>1176.39</ele>
        <time>2018-06-19T13:32:56Z</time>
      </trkpt>
      <trkpt lat="44.0829" lon="6.45394">
        <ele>1175.32</ele>
        <time>2018-06-19T13:32:57Z</time>
      </trkpt>
      <trkpt lat="44.08281" lon="6.45397">
        <ele>1175.34</ele>
        <time>2018-06-19T13:32:58Z</time>
      </trkpt>
      <trkpt lat="44.08248" lon="6.45406">
        <ele>1173.11</ele>
        <time>2018-06-19T13:33:02Z</time>
      </trkpt>
      <trkpt lat="44.08241" lon="6.4541">
        <ele>1173.08</ele>
        <time>2018-06-19T13:33:03Z</time>
      </trkpt>
      <trkpt lat="44.08235" lon="6.45414">
        <ele>1171.85</ele>
        <time>2018-06-19T13:33:04Z</time>
      </trkpt>
      <trkpt lat="44.0823" lon="6.45421">
        <ele>1171.79</ele>
        <time>2018-06-19T13:33:05Z</time>
      </trkpt>
      <trkpt lat="44.08225" lon="6.45427">
        <ele>1170.88</ele>
        <time>2018-06-19T13:33:06Z</time>
      </trkpt>
      <trkpt lat="44.08185" lon="6.45475">
        <ele>1169.04</ele>
        <time>2018-06-19T13:33:12Z</time>
      </trkpt>
      <trkpt lat="44.08127" lon="6.45521">
        <ele>1166.67</ele>
        <time>2018-06-19T13:33:18Z</time>
      </trkpt>
      <trkpt lat="44.08119" lon="6.45529">
        <ele>1165.45</ele>
        <time>2018-06-19T13:33:19Z</time>
      </trkpt>
      <trkpt lat="44.08112" lon="6.45537">
        <ele>1164.54</ele>
        <time>2018-06-19T13:33:20Z</time>
      </trkpt>
      <trkpt lat="44.08106" lon="6.45545">
        <ele>1164.47</ele>
        <time>2018-06-19T13:33:21Z</time>
      </trkpt>
      <trkpt lat="44.08101" lon="6.45555">
        <ele>1163.43</ele>
        <time>2018-06-19T13:33:22Z</time>
      </trkpt>
      <trkpt lat="44.08096" lon="6.45565">
        <ele>1163.44</ele>
        <time>2018-06-19T13:33:23Z</time>
      </trkpt>
      <trkpt lat="44.08092" lon="6.45576">
        <ele>1162.04</ele>
        <time>2018-06-19T13:33:24Z</time>
      </trkpt>
      <trkpt lat="44.08088" lon="6.45586">
        <ele>1161.02</ele>
        <time>2018-06-19T13:33:25Z</time>
      </trkpt>
      <trkpt lat="44.08084" lon="6.45595">
        <ele>1160.24</ele>
        <time>2018-06-19T13:33:26Z</time>
      </trkpt>
      <trkpt lat="44.0808" lon="6.45604">
        <ele>1160.21</ele>
        <time>2018-06-19T13:33:27Z</time>
      </trkpt>
      <trkpt lat="44.08075" lon="6.45612">
        <ele>1159.11</ele>
        <time>2018-06-19T13:33:28Z</time>
      </trkpt>
      <trkpt lat="44.08069" lon="6.45619">
        <ele>1159.13</ele>
        <time>2018-06-19T13:33:29Z</time>
      </trkpt>
      <trkpt lat="44.08061" lon="6.45627">
        <ele>1157.73</ele>
        <time>2018-06-19T13:33:30Z</time>
      </trkpt>
      <trkpt lat="44.08052" lon="6.45634">
        <ele>1157.7</ele>
        <time>2018-06-19T13:33:31Z</time>
      </trkpt>
      <trkpt lat="44.08043" lon="6.45643">
        <ele>1156.3</ele>
        <time>2018-06-19T13:33:32Z</time>
      </trkpt>
      <trkpt lat="44.08032" lon="6.45654">
        <ele>1155.32</ele>
        <time>2018-06-19T13:33:33Z</time>
      </trkpt>
      <trkpt lat="44.08012" lon="6.45673">
        <ele>1154.49</ele>
        <time>2018-06-19T13:33:35Z</time>
      </trkpt>
      <trkpt lat="44.07986" lon="6.45702">
        <ele>1152.54</ele>
        <time>2018-06-19T13:33:38Z</time>
      </trkpt>
      <trkpt lat="44.07979" lon="6.45713">
        <ele>1152.51</ele>
        <time>2018-06-19T13:33:39Z</time>
      </trkpt>
      <trkpt lat="44.07973" lon="6.45725">
        <ele>1151.75</ele>
        <time>2018-06-19T13:33:40Z</time>
      </trkpt>
      <trkpt lat="44.0796" lon="6.45746">
        <ele>1150.34</ele>
        <time>2018-06-19T13:33:42Z</time>
      </trkpt>
      <trkpt lat="44.07945" lon="6.45765">
        <ele>1149.09</ele>
        <time>2018-06-19T13:33:44Z</time>
      </trkpt>
      <trkpt lat="44.07937" lon="6.45774">
        <ele>1148.01</ele>
        <time>2018-06-19T13:33:45Z</time>
      </trkpt>
      <trkpt lat="44.07915" lon="6.45802">
        <ele>1144.25</ele>
        <time>2018-06-19T13:33:48Z</time>
      </trkpt>
      <trkpt lat="44.07907" lon="6.45809">
        <ele>1143.57</ele>
        <time>2018-06-19T13:33:49Z</time>
      </trkpt>
      <trkpt lat="44.07887" lon="6.45829">
        <ele>1142.81</ele>
        <time>2018-06-19T13:33:52Z</time>
      </trkpt>
      <trkpt lat="44.07881" lon="6.45837">
        <ele>1142.81</ele>
        <time>2018-06-19T13:33:53Z</time>
      </trkpt>
      <trkpt lat="44.07876" lon="6.45846">
        <ele>1142.8</ele>
        <time>2018-06-19T13:33:54Z</time>
      </trkpt>
      <trkpt lat="44.07872" lon="6.45856">
        <ele>1141.98</ele>
        <time>2018-06-19T13:33:55Z</time>
      </trkpt>
      <trkpt lat="44.07867" lon="6.45868">
        <ele>1142.41</ele>
        <time>2018-06-19T13:33:56Z</time>
      </trkpt>
      <trkpt lat="44.07853" lon="6.45901">
        <ele>1142.36</ele>
        <time>2018-06-19T13:33:59Z</time>
      </trkpt>
      <trkpt lat="44.07851" lon="6.45912">
        <ele>1141.55</ele>
        <time>2018-06-19T13:34:00Z</time>
      </trkpt>
      <trkpt lat="44.07851" lon="6.45925">
        <ele>1141.56</ele>
        <time>2018-06-19T13:34:01Z</time>
      </trkpt>
      <trkpt lat="44.07853" lon="6.45939">
        <ele>1140.7</ele>
        <time>2018-06-19T13:34:02Z</time>
      </trkpt>
      <trkpt lat="44.07855" lon="6.45955">
        <ele>1140.71</ele>
        <time>2018-06-19T13:34:03Z</time>
      </trkpt>
      <trkpt lat="44.07862" lon="6.46009">
        <ele>1137.11</ele>
        <time>2018-06-19T13:34:06Z</time>
      </trkpt>
      <trkpt lat="44.07866" lon="6.46028">
        <ele>1136.18</ele>
        <time>2018-06-19T13:34:07Z</time>
      </trkpt>
      <trkpt lat="44.0788" lon="6.46087">
        <ele>1132.45</ele>
        <time>2018-06-19T13:34:10Z</time>
      </trkpt>
      <trkpt lat="44.0789" lon="6.46142">
        <ele>1129.36</ele>
        <time>2018-06-19T13:34:13Z</time>
      </trkpt>
      <trkpt lat="44.07899" lon="6.46195">
        <ele>1126.13</ele>
        <time>2018-06-19T13:34:16Z</time>
      </trkpt>
      <trkpt lat="44.07902" lon="6.46212">
        <ele>1126.17</ele>
        <time>2018-06-19T13:34:17Z</time>
      </trkpt>
      <trkpt lat="44.07909" lon="6.46262">
        <ele>1124.94</ele>
        <time>2018-06-19T13:34:20Z</time>
      </trkpt>
      <trkpt lat="44.0791" lon="6.46279">
        <ele>1123.77</ele>
        <time>2018-06-19T13:34:21Z</time>
      </trkpt>
      <trkpt lat="44.07911" lon="6.4633">
        <ele>1122.54</ele>
        <time>2018-06-19T13:34:24Z</time>
      </trkpt>
      <trkpt lat="44.07914" lon="6.46424">
        <ele>1119.24</ele>
        <time>2018-06-19T13:34:29Z</time>
      </trkpt>
      <trkpt lat="44.07913" lon="6.46443">
        <ele>1119.26</ele>
        <time>2018-06-19T13:34:30Z</time>
      </trkpt>
      <trkpt lat="44.07912" lon="6.46476">
        <ele>1118.75</ele>
        <time>2018-06-19T13:34:32Z</time>
      </trkpt>
      <trkpt lat="44.0791" lon="6.46491">
        <ele>1118.7</ele>
        <time>2018-06-19T13:34:33Z</time>
      </trkpt>
      <trkpt lat="44.07908" lon="6.46505">
        <ele>1118.76</ele>
        <time>2018-06-19T13:34:34Z</time>
      </trkpt>
      <trkpt lat="44.07906" lon="6.46517">
        <ele>1118.29</ele>
        <time>2018-06-19T13:34:35Z</time>
      </trkpt>
      <trkpt lat="44.07905" lon="6.4653">
        <ele>1118.35</ele>
        <time>2018-06-19T13:34:36Z</time>
      </trkpt>
      <trkpt lat="44.07905" lon="6.46543">
        <ele>1118.77</ele>
        <time>2018-06-19T13:34:37Z</time>
      </trkpt>
      <trkpt lat="44.07907" lon="6.46556">
        <ele>1118.77</ele>
        <time>2018-06-19T13:34:38Z</time>
      </trkpt>
      <trkpt lat="44.07909" lon="6.46571">
        <ele>1118.73</ele>
        <time>2018-06-19T13:34:39Z</time>
      </trkpt>
      <trkpt lat="44.07909" lon="6.46585">
        <ele>1118.78</ele>
        <time>2018-06-19T13:34:40Z</time>
      </trkpt>
      <trkpt lat="44.07909" lon="6.46599">
        <ele>1118.75</ele>
        <time>2018-06-19T13:34:41Z</time>
      </trkpt>
      <trkpt lat="44.07907" lon="6.46613">
        <ele>1117.77</ele>
        <time>2018-06-19T13:34:42Z</time>
      </trkpt>
      <trkpt lat="44.07904" lon="6.46627">
        <ele>1117.78</ele>
        <time>2018-06-19T13:34:43Z</time>
      </trkpt>
      <trkpt lat="44.07901" lon="6.46643">
        <ele>1117.76</ele>
        <time>2018-06-19T13:34:44Z</time>
      </trkpt>
      <trkpt lat="44.07884" lon="6.46712">
        <ele>1115.02</ele>
        <time>2018-06-19T13:34:49Z</time>
      </trkpt>
      <trkpt lat="44.07872" lon="6.46742">
        <ele>1111.58</ele>
        <time>2018-06-19T13:34:52Z</time>
      </trkpt>
      <trkpt lat="44.07863" lon="6.46759">
        <ele>1110.69</ele>
        <time>2018-06-19T13:34:54Z</time>
      </trkpt>
      <trkpt lat="44.07856" lon="6.46777">
        <ele>1109.53</ele>
        <time>2018-06-19T13:34:56Z</time>
      </trkpt>
      <trkpt lat="44.07853" lon="6.46788">
        <ele>1109.51</ele>
        <time>2018-06-19T13:34:57Z</time>
      </trkpt>
      <trkpt lat="44.07851" lon="6.46801">
        <ele>1109.5</ele>
        <time>2018-06-19T13:34:58Z</time>
      </trkpt>
      <trkpt lat="44.07849" lon="6.46816">
        <ele>1109.47</ele>
        <time>2018-06-19T13:34:59Z</time>
      </trkpt>
      <trkpt lat="44.07846" lon="6.46833">
        <ele>1109.51</ele>
        <time>2018-06-19T13:35:00Z</time>
      </trkpt>
      <trkpt lat="44.07825" lon="6.46959">
        <ele>1112.79</ele>
        <time>2018-06-19T13:35:08Z</time>
      </trkpt>
      <trkpt lat="44.07822" lon="6.46975">
        <ele>1112.85</ele>
        <time>2018-06-19T13:35:09Z</time>
      </trkpt>
      <trkpt lat="44.0781" lon="6.47084">
        <ele>1116.41</ele>
        <time>2018-06-19T13:35:16Z</time>
      </trkpt>
      <trkpt lat="44.07808" lon="6.471">
        <ele>1116.42</ele>
        <time>2018-06-19T13:35:17Z</time>
      </trkpt>
      <trkpt lat="44.07807" lon="6.47141">
        <ele>1117.42</ele>
        <time>2018-06-19T13:35:20Z</time>
      </trkpt>
      <trkpt lat="44.07809" lon="6.47153">
        <ele>1117.43</ele>
        <time>2018-06-19T13:35:21Z</time>
      </trkpt>
      <trkpt lat="44.07813" lon="6.47164">
        <ele>1117.4</ele>
        <time>2018-06-19T13:35:22Z</time>
      </trkpt>
      <trkpt lat="44.07866" lon="6.47311">
        <ele>1115.13</ele>
        <time>2018-06-19T13:35:33Z</time>
      </trkpt>
      <trkpt lat="44.07881" lon="6.47371">
        <ele>1113.83</ele>
        <time>2018-06-19T13:35:37Z</time>
      </trkpt>
      <trkpt lat="44.07896" lon="6.47415">
        <ele>1112.28</ele>
        <time>2018-06-19T13:35:40Z</time>
      </trkpt>
      <trkpt lat="44.07937" lon="6.47504">
        <ele>1108.96</ele>
        <time>2018-06-19T13:35:46Z</time>
      </trkpt>
      <trkpt lat="44.07946" lon="6.4752">
        <ele>1108.92</ele>
        <time>2018-06-19T13:35:47Z</time>
      </trkpt>
      <trkpt lat="44.07979" lon="6.4759">
        <ele>1105.71</ele>
        <time>2018-06-19T13:35:51Z</time>
      </trkpt>
      <trkpt lat="44.07994" lon="6.47623">
        <ele>1104.45</ele>
        <time>2018-06-19T13:35:53Z</time>
      </trkpt>
      <trkpt lat="44.08016" lon="6.47667">
        <ele>1102.22</ele>
        <time>2018-06-19T13:35:56Z</time>
      </trkpt>
      <trkpt lat="44.08076" lon="6.47799">
        <ele>1101.38</ele>
        <time>2018-06-19T13:36:06Z</time>
      </trkpt>
      <trkpt lat="44.08083" lon="6.47817">
        <ele>1101.42</ele>
        <time>2018-06-19T13:36:08Z</time>
      </trkpt>
      <trkpt lat="44.08091" lon="6.4784">
        <ele>1100.32</ele>
        <time>2018-06-19T13:36:11Z</time>
      </trkpt>
      <trkpt lat="44.08094" lon="6.47844">
        <ele>1099.31</ele>
        <time>2018-06-19T13:36:12Z</time>
      </trkpt>
      <trkpt lat="44.08098" lon="6.47846">
        <ele>1099.31</ele>
        <time>2018-06-19T13:36:13Z</time>
      </trkpt>
      <trkpt lat="44.08103" lon="6.47847">
        <ele>1099.32</ele>
        <time>2018-06-19T13:36:14Z</time>
      </trkpt>
      <trkpt lat="44.08109" lon="6.47847">
        <ele>1098.22</ele>
        <time>2018-06-19T13:36:15Z</time>
      </trkpt>
      <trkpt lat="44.08116" lon="6.47847">
        <ele>1098.22</ele>
        <time>2018-06-19T13:36:16Z</time>
      </trkpt>
      <trkpt lat="44.08181" lon="6.47844">
        <ele>1094.6</ele>
        <time>2018-06-19T13:36:23Z</time>
      </trkpt>
      <trkpt lat="44.082" lon="6.47843">
        <ele>1093.33</ele>
        <time>2018-06-19T13:36:25Z</time>
      </trkpt>
      <trkpt lat="44.08216" lon="6.47845">
        <ele>1091.82</ele>
        <time>2018-06-19T13:36:27Z</time>
      </trkpt>
      <trkpt lat="44.0822" lon="6.47851">
        <ele>1090.45</ele>
        <time>2018-06-19T13:36:28Z</time>
      </trkpt>
      <trkpt lat="44.08223" lon="6.47858">
        <ele>1090.51</ele>
        <time>2018-06-19T13:36:29Z</time>
      </trkpt>
      <trkpt lat="44.08232" lon="6.47885">
        <ele>1089.14</ele>
        <time>2018-06-19T13:36:37Z</time>
      </trkpt>
      <trkpt lat="44.08231" lon="6.47884">
        <ele>1088.43</ele>
        <time>2018-06-19T13:37:02Z</time>
      </trkpt>
      <trkpt lat="44.08233" lon="6.47885">
        <ele>1088.48</ele>
        <time>2018-06-19T13:37:28Z</time>
      </trkpt>
      <trkpt lat="44.08233" lon="6.47884">
        <ele>1088.47</ele>
        <time>2018-06-19T13:38:58Z</time>
      </trkpt>
      <trkpt lat="44.08231" lon="6.47884">
        <ele>1088.35</ele>
        <time>2018-06-19T13:40:18Z</time>
      </trkpt>
      <trkpt lat="44.08231" lon="6.47884">
        <ele>1088.18</ele>
        <time>2018-06-19T13:41:37Z</time>
      </trkpt>
      <trkpt lat="44.08232" lon="6.47882">
        <ele>1087.89</ele>
        <time>2018-06-19T13:43:17Z</time>
      </trkpt>
      <trkpt lat="44.08232" lon="6.47883">
        <ele>1087.63</ele>
        <time>2018-06-19T13:44:45Z</time>
      </trkpt>
      <trkpt lat="44.08236" lon="6.47883">
        <ele>1087.55</ele>
        <time>2018-06-19T13:45:25Z</time>
      </trkpt>
      <trkpt lat="44.08244" lon="6.47888">
        <ele>1087.56</ele>
        <time>2018-06-19T13:45:27Z</time>
      </trkpt>
      <trkpt lat="44.08249" lon="6.47889">
        <ele>1087.56</ele>
        <time>2018-06-19T13:45:28Z</time>
      </trkpt>
      <trkpt lat="44.08256" lon="6.4789">
        <ele>1087.56</ele>
        <time>2018-06-19T13:45:29Z</time>
      </trkpt>
      <trkpt lat="44.08291" lon="6.47902">
        <ele>1090.37</ele>
        <time>2018-06-19T13:45:33Z</time>
      </trkpt>
      <trkpt lat="44.08338" lon="6.47919">
        <ele>1092.56</ele>
        <time>2018-06-19T13:45:38Z</time>
      </trkpt>
      <trkpt lat="44.08358" lon="6.47926">
        <ele>1093.81</ele>
        <time>2018-06-19T13:45:40Z</time>
      </trkpt>
      <trkpt lat="44.08389" lon="6.47937">
        <ele>1095.52</ele>
        <time>2018-06-19T13:45:43Z</time>
      </trkpt>
      <trkpt lat="44.0849" lon="6.47955">
        <ele>1095.49</ele>
        <time>2018-06-19T13:45:52Z</time>
      </trkpt>
      <trkpt lat="44.08502" lon="6.47952">
        <ele>1095.48</ele>
        <time>2018-06-19T13:45:53Z</time>
      </trkpt>
      <trkpt lat="44.08514" lon="6.47947">
        <ele>1095.48</ele>
        <time>2018-06-19T13:45:54Z</time>
      </trkpt>
      <trkpt lat="44.08539" lon="6.47938">
        <ele>1095.49</ele>
        <time>2018-06-19T13:45:56Z</time>
      </trkpt>
      <trkpt lat="44.08551" lon="6.47938">
        <ele>1095.49</ele>
        <time>2018-06-19T13:45:57Z</time>
      </trkpt>
      <trkpt lat="44.08563" lon="6.47942">
        <ele>1095.49</ele>
        <time>2018-06-19T13:45:58Z</time>
      </trkpt>
      <trkpt lat="44.08574" lon="6.47947">
        <ele>1095.48</ele>
        <time>2018-06-19T13:45:59Z</time>
      </trkpt>
      <trkpt lat="44.08585" lon="6.47953">
        <ele>1095.47</ele>
        <time>2018-06-19T13:46:00Z</time>
      </trkpt>
      <trkpt lat="44.08594" lon="6.47962">
        <ele>1095.47</ele>
        <time>2018-06-19T13:46:01Z</time>
      </trkpt>
      <trkpt lat="44.08601" lon="6.47974">
        <ele>1095.47</ele>
        <time>2018-06-19T13:46:02Z</time>
      </trkpt>
      <trkpt lat="44.08607" lon="6.4799">
        <ele>1095.47</ele>
        <time>2018-06-19T13:46:03Z</time>
      </trkpt>
      <trkpt lat="44.0861" lon="6.48007">
        <ele>1095.47</ele>
        <time>2018-06-19T13:46:04Z</time>
      </trkpt>
      <trkpt lat="44.08613" lon="6.48026">
        <ele>1095.47</ele>
        <time>2018-06-19T13:46:05Z</time>
      </trkpt>
      <trkpt lat="44.08614" lon="6.48045">
        <ele>1095.47</ele>
        <time>2018-06-19T13:46:06Z</time>
      </trkpt>
      <trkpt lat="44.08629" lon="6.48304">
        <ele>1096.36</ele>
        <time>2018-06-19T13:46:20Z</time>
      </trkpt>
      <trkpt lat="44.08603" lon="6.48468">
        <ele>1099.48</ele>
        <time>2018-06-19T13:46:28Z</time>
      </trkpt>
      <trkpt lat="44.08588" lon="6.4854">
        <ele>1101.37</ele>
        <time>2018-06-19T13:46:31Z</time>
      </trkpt>
      <trkpt lat="44.08558" lon="6.48725">
        <ele>1101.36</ele>
        <time>2018-06-19T13:46:40Z</time>
      </trkpt>
      <trkpt lat="44.08557" lon="6.48741">
        <ele>1101.36</ele>
        <time>2018-06-19T13:46:41Z</time>
      </trkpt>
      <trkpt lat="44.08558" lon="6.48758">
        <ele>1101.41</ele>
        <time>2018-06-19T13:46:42Z</time>
      </trkpt>
      <trkpt lat="44.0856" lon="6.48776">
        <ele>1101.4</ele>
        <time>2018-06-19T13:46:43Z</time>
      </trkpt>
      <trkpt lat="44.08563" lon="6.48794">
        <ele>1102.37</ele>
        <time>2018-06-19T13:46:44Z</time>
      </trkpt>
      <trkpt lat="44.08567" lon="6.48813">
        <ele>1102.38</ele>
        <time>2018-06-19T13:46:45Z</time>
      </trkpt>
      <trkpt lat="44.08573" lon="6.48832">
        <ele>1103.25</ele>
        <time>2018-06-19T13:46:46Z</time>
      </trkpt>
      <trkpt lat="44.08581" lon="6.48851">
        <ele>1103.25</ele>
        <time>2018-06-19T13:46:47Z</time>
      </trkpt>
      <trkpt lat="44.08652" lon="6.49008">
        <ele>1105.33</ele>
        <time>2018-06-19T13:46:55Z</time>
      </trkpt>
      <trkpt lat="44.08658" lon="6.4903">
        <ele>1105.34</ele>
        <time>2018-06-19T13:46:56Z</time>
      </trkpt>
      <trkpt lat="44.08663" lon="6.49052">
        <ele>1105.37</ele>
        <time>2018-06-19T13:46:57Z</time>
      </trkpt>
      <trkpt lat="44.08674" lon="6.49095">
        <ele>1105.35</ele>
        <time>2018-06-19T13:46:59Z</time>
      </trkpt>
      <trkpt lat="44.08683" lon="6.49114">
        <ele>1105.31</ele>
        <time>2018-06-19T13:47:00Z</time>
      </trkpt>
      <trkpt lat="44.08732" lon="6.49264">
        <ele>1105.15</ele>
        <time>2018-06-19T13:47:07Z</time>
      </trkpt>
      <trkpt lat="44.0874" lon="6.49284">
        <ele>1106.46</ele>
        <time>2018-06-19T13:47:08Z</time>
      </trkpt>
      <trkpt lat="44.0875" lon="6.49304">
        <ele>1106.47</ele>
        <time>2018-06-19T13:47:09Z</time>
      </trkpt>
      <trkpt lat="44.08816" lon="6.49424">
        <ele>1108.38</ele>
        <time>2018-06-19T13:47:15Z</time>
      </trkpt>
      <trkpt lat="44.08829" lon="6.4944">
        <ele>1109.26</ele>
        <time>2018-06-19T13:47:16Z</time>
      </trkpt>
      <trkpt lat="44.08842" lon="6.49455">
        <ele>1110.24</ele>
        <time>2018-06-19T13:47:17Z</time>
      </trkpt>
      <trkpt lat="44.08886" lon="6.49495">
        <ele>1112.51</ele>
        <time>2018-06-19T13:47:20Z</time>
      </trkpt>
      <trkpt lat="44.08899" lon="6.4951">
        <ele>1113.52</ele>
        <time>2018-06-19T13:47:21Z</time>
      </trkpt>
      <trkpt lat="44.08911" lon="6.49526">
        <ele>1114.45</ele>
        <time>2018-06-19T13:47:22Z</time>
      </trkpt>
      <trkpt lat="44.08923" lon="6.49543">
        <ele>1114.47</ele>
        <time>2018-06-19T13:47:23Z</time>
      </trkpt>
      <trkpt lat="44.09005" lon="6.49703">
        <ele>1117.43</ele>
        <time>2018-06-19T13:47:31Z</time>
      </trkpt>
      <trkpt lat="44.09056" lon="6.49843">
        <ele>1121.25</ele>
        <time>2018-06-19T13:47:38Z</time>
      </trkpt>
      <trkpt lat="44.09057" lon="6.49864">
        <ele>1122.21</ele>
        <time>2018-06-19T13:47:39Z</time>
      </trkpt>
      <trkpt lat="44.09058" lon="6.49884">
        <ele>1122.29</ele>
        <time>2018-06-19T13:47:40Z</time>
      </trkpt>
      <trkpt lat="44.0906" lon="6.49917">
        <ele>1123.75</ele>
        <time>2018-06-19T13:47:42Z</time>
      </trkpt>
      <trkpt lat="44.09076" lon="6.50002">
        <ele>1123.44</ele>
        <time>2018-06-19T13:47:50Z</time>
      </trkpt>
      <trkpt lat="44.09084" lon="6.50043">
        <ele>1123.42</ele>
        <time>2018-06-19T13:47:54Z</time>
      </trkpt>
      <trkpt lat="44.09089" lon="6.50156">
        <ele>1123.43</ele>
        <time>2018-06-19T13:48:03Z</time>
      </trkpt>
      <trkpt lat="44.09088" lon="6.50169">
        <ele>1138.33984375</ele>
      </trkpt>
      <trkpt lat="44.09076" lon="6.50225">
        <ele>1137.01171875</ele>
      </trkpt>
      <trkpt lat="44.09046" lon="6.50263">
        <ele>1136.2265625</ele>
      </trkpt>
      <trkpt lat="44.08992" lon="6.50293">
        <ele>1135.15234375</ele>
      </trkpt>
      <trkpt lat="44.08923" lon="6.50299">
        <ele>1131.36328125</ele>
      </trkpt>
      <trkpt lat="44.08891" lon="6.50326">
        <ele>1128.91015625</ele>
      </trkpt>
      <trkpt lat="44.0888" lon="6.50363">
        <ele>1128.5625</ele>
      </trkpt>
      <trkpt lat="44.08864" lon="6.50798">
        <ele>1124.2578125</ele>
      </trkpt>
      <trkpt lat="44.08877" lon="6.50981">
        <ele>1126.4453125</ele>
      </trkpt>
      <trkpt lat="44.08876" lon="6.51079">
        <ele>1127.74609375</ele>
      </trkpt>
      <trkpt lat="44.089" lon="6.51178">
        <ele>1131.29296875</ele>
      </trkpt>
      <trkpt lat="44.08914" lon="6.51279">
        <ele>1134.9140625</ele>
      </trkpt>
      <trkpt lat="44.08918" lon="6.51338">
        <ele>1137.07421875</ele>
      </trkpt>
      <trkpt lat="44.08914" lon="6.51607">
        <ele>1144.4609375</ele>
      </trkpt>
      <trkpt lat="44.08999" lon="6.51981">
        <ele>1160.65625</ele>
      </trkpt>
      <trkpt lat="44.09004" lon="6.5201">
        <ele>1150.5</ele>
        <time>2018-06-19T13:52:25Z</time>
      </trkpt>
      <trkpt lat="44.09006" lon="6.52022">
        <ele>1150.5</ele>
        <time>2018-06-19T13:52:26Z</time>
      </trkpt>
      <trkpt lat="44.09008" lon="6.52036">
        <ele>1150.51</ele>
        <time>2018-06-19T13:52:27Z</time>
      </trkpt>
      <trkpt lat="44.09048" lon="6.52167">
        <ele>1149.74</ele>
        <time>2018-06-19T13:52:35Z</time>
      </trkpt>
      <trkpt lat="44.09053" lon="6.52188">
        <ele>1149.72</ele>
        <time>2018-06-19T13:52:36Z</time>
      </trkpt>
      <trkpt lat="44.09056" lon="6.5221">
        <ele>1148.45</ele>
        <time>2018-06-19T13:52:37Z</time>
      </trkpt>
      <trkpt lat="44.09058" lon="6.52233">
        <ele>1148.45</ele>
        <time>2018-06-19T13:52:38Z</time>
      </trkpt>
      <trkpt lat="44.09059" lon="6.52257">
        <ele>1148.48</ele>
        <time>2018-06-19T13:52:39Z</time>
      </trkpt>
      <trkpt lat="44.09058" lon="6.52282">
        <ele>1148.51</ele>
        <time>2018-06-19T13:52:40Z</time>
      </trkpt>
      <trkpt lat="44.09056" lon="6.52306">
        <ele>1148.5</ele>
        <time>2018-06-19T13:52:41Z</time>
      </trkpt>
      <trkpt lat="44.09051" lon="6.5233">
        <ele>1148.51</ele>
        <time>2018-06-19T13:52:42Z</time>
      </trkpt>
      <trkpt lat="44.09046" lon="6.52354">
        <ele>1148.51</ele>
        <time>2018-06-19T13:52:43Z</time>
      </trkpt>
      <trkpt lat="44.09022" lon="6.52473">
        <ele>1150.98</ele>
        <time>2018-06-19T13:52:48Z</time>
      </trkpt>
      <trkpt lat="44.09002" lon="6.5268">
        <ele>1151</ele>
        <time>2018-06-19T13:52:56Z</time>
      </trkpt>
      <trkpt lat="44.09" lon="6.52708">
        <ele>1151.02</ele>
        <time>2018-06-19T13:52:57Z</time>
      </trkpt>
      <trkpt lat="44.08991" lon="6.52869">
        <ele>1153.25</ele>
        <time>2018-06-19T13:53:03Z</time>
      </trkpt>
      <trkpt lat="44.08995" lon="6.5302">
        <ele>1156.32</ele>
        <time>2018-06-19T13:53:09Z</time>
      </trkpt>
      <trkpt lat="44.09" lon="6.53043">
        <ele>1157.41</ele>
        <time>2018-06-19T13:53:10Z</time>
      </trkpt>
      <trkpt lat="44.09007" lon="6.53066">
        <ele>1158.33</ele>
        <time>2018-06-19T13:53:11Z</time>
      </trkpt>
      <trkpt lat="44.09014" lon="6.53088">
        <ele>1158.29</ele>
        <time>2018-06-19T13:53:12Z</time>
      </trkpt>
      <trkpt lat="44.09067" lon="6.53236">
        <ele>1160.88</ele>
        <time>2018-06-19T13:53:19Z</time>
      </trkpt>
      <trkpt lat="44.09117" lon="6.53379">
        <ele>1160.59</ele>
        <time>2018-06-19T13:53:27Z</time>
      </trkpt>
      <trkpt lat="44.09122" lon="6.53402">
        <ele>1160.59</ele>
        <time>2018-06-19T13:53:31Z</time>
      </trkpt>
      <trkpt lat="44.09122" lon="6.53403">
        <ele>1160.6</ele>
        <time>2018-06-19T13:53:42Z</time>
      </trkpt>
      <trkpt lat="44.09121" lon="6.53399">
        <ele>1160.68</ele>
        <time>2018-06-19T13:54:12Z</time>
      </trkpt>
      <trkpt lat="44.09123" lon="6.53399">
        <ele>1160.69</ele>
        <time>2018-06-19T13:54:13Z</time>
      </trkpt>
      <trkpt lat="44.09123" lon="6.53395">
        <ele>1160.69</ele>
        <time>2018-06-19T13:54:14Z</time>
      </trkpt>
      <trkpt lat="44.09121" lon="6.53389">
        <ele>1160.69</ele>
        <time>2018-06-19T13:54:15Z</time>
      </trkpt>
      <trkpt lat="44.09119" lon="6.53381">
        <ele>1160.7</ele>
        <time>2018-06-19T13:54:16Z</time>
      </trkpt>
      <trkpt lat="44.09096" lon="6.53308">
        <ele>1160.72</ele>
        <time>2018-06-19T13:54:23Z</time>
      </trkpt>
      <trkpt lat="44.09092" lon="6.53303">
        <ele>1160.72</ele>
        <time>2018-06-19T13:54:24Z</time>
      </trkpt>
      <trkpt lat="44.09088" lon="6.533">
        <ele>1160.73</ele>
        <time>2018-06-19T13:54:25Z</time>
      </trkpt>
      <trkpt lat="44.09084" lon="6.53299">
        <ele>1160.73</ele>
        <time>2018-06-19T13:54:26Z</time>
      </trkpt>
      <trkpt lat="44.0908" lon="6.53299">
        <ele>1160.73</ele>
        <time>2018-06-19T13:54:27Z</time>
      </trkpt>
      <trkpt lat="44.09077" lon="6.53299">
        <ele>1160.72</ele>
        <time>2018-06-19T13:54:28Z</time>
      </trkpt>
      <trkpt lat="44.09066" lon="6.53301">
        <ele>1158.41</ele>
        <time>2018-06-19T13:54:31Z</time>
      </trkpt>
      <trkpt lat="44.09044" lon="6.53303">
        <ele>1157.43</ele>
        <time>2018-06-19T13:54:38Z</time>
      </trkpt>
      <trkpt lat="44.09043" lon="6.53305">
        <ele>1157.4</ele>
        <time>2018-06-19T13:54:39Z</time>
      </trkpt>
      <trkpt lat="44.09044" lon="6.53313">
        <ele>1157.61</ele>
        <time>2018-06-19T13:54:49Z</time>
      </trkpt>
      <trkpt lat="44.09045" lon="6.53314">
        <ele>1157.63</ele>
        <time>2018-06-19T13:54:57Z</time>
      </trkpt>
      <trkpt lat="44.09048" lon="6.53314">
        <ele>1157.64</ele>
        <time>2018-06-19T13:54:59Z</time>
      </trkpt>
      <trkpt lat="44.09051" lon="6.53312">
        <ele>1157.64</ele>
        <time>2018-06-19T13:55:00Z</time>
      </trkpt>
      <trkpt lat="44.09062" lon="6.53307">
        <ele>1157.65</ele>
        <time>2018-06-19T13:55:02Z</time>
      </trkpt>
      <trkpt lat="44.09082" lon="6.53302">
        <ele>1157.65</ele>
        <time>2018-06-19T13:55:05Z</time>
      </trkpt>
      <trkpt lat="44.09087" lon="6.53303">
        <ele>1157.67</ele>
        <time>2018-06-19T13:55:06Z</time>
      </trkpt>
      <trkpt lat="44.0909" lon="6.53305">
        <ele>1157.68</ele>
        <time>2018-06-19T13:55:07Z</time>
      </trkpt>
      <trkpt lat="44.09093" lon="6.53308">
        <ele>1157.69</ele>
        <time>2018-06-19T13:55:08Z</time>
      </trkpt>
      <trkpt lat="44.09095" lon="6.53311">
        <ele>1157.72</ele>
        <time>2018-06-19T13:55:09Z</time>
      </trkpt>
      <trkpt lat="44.09096" lon="6.53312">
        <ele>1160.05</ele>
        <time>2018-06-19T13:55:12Z</time>
      </trkpt>
      <trkpt lat="44.09097" lon="6.53313">
        <ele>1160.03</ele>
        <time>2018-06-19T13:55:45Z</time>
      </trkpt>
      <trkpt lat="44.09098" lon="6.53314">
        <ele>1160.05</ele>
        <time>2018-06-19T13:55:56Z</time>
      </trkpt>
      <trkpt lat="44.09099" lon="6.53316">
        <ele>1160.05</ele>
        <time>2018-06-19T13:55:57Z</time>
      </trkpt>
      <trkpt lat="44.091" lon="6.5332">
        <ele>1160.05</ele>
        <time>2018-06-19T13:55:58Z</time>
      </trkpt>
      <trkpt lat="44.09102" lon="6.53326">
        <ele>1160.05</ele>
        <time>2018-06-19T13:55:59Z</time>
      </trkpt>
      <trkpt lat="44.09105" lon="6.53333">
        <ele>1160.07</ele>
        <time>2018-06-19T13:56:00Z</time>
      </trkpt>
      <trkpt lat="44.09108" lon="6.53342">
        <ele>1160.07</ele>
        <time>2018-06-19T13:56:01Z</time>
      </trkpt>
      <trkpt lat="44.09127" lon="6.53409">
        <ele>1161.64</ele>
        <time>2018-06-19T13:56:06Z</time>
      </trkpt>
      <trkpt lat="44.09129" lon="6.53428">
        <ele>1161.67</ele>
        <time>2018-06-19T13:56:07Z</time>
      </trkpt>
      <trkpt lat="44.09135" lon="6.53484">
        <ele>1161.72</ele>
        <time>2018-06-19T13:56:10Z</time>
      </trkpt>
      <trkpt lat="44.09139" lon="6.53503">
        <ele>1161.73</ele>
        <time>2018-06-19T13:56:11Z</time>
      </trkpt>
      <trkpt lat="44.09165" lon="6.53598">
        <ele>1161.62</ele>
        <time>2018-06-19T13:56:16Z</time>
      </trkpt>
      <trkpt lat="44.09166" lon="6.53619">
        <ele>1161.64</ele>
        <time>2018-06-19T13:56:17Z</time>
      </trkpt>
      <trkpt lat="44.09165" lon="6.5364">
        <ele>1162.63</ele>
        <time>2018-06-19T13:56:18Z</time>
      </trkpt>
      <trkpt lat="44.09146" lon="6.53764">
        <ele>1162.62</ele>
        <time>2018-06-19T13:56:24Z</time>
      </trkpt>
      <trkpt lat="44.09146" lon="6.53784">
        <ele>1162.62</ele>
        <time>2018-06-19T13:56:25Z</time>
      </trkpt>
      <trkpt lat="44.09147" lon="6.53804">
        <ele>1162.6</ele>
        <time>2018-06-19T13:56:26Z</time>
      </trkpt>
      <trkpt lat="44.0915" lon="6.53825">
        <ele>1162.58</ele>
        <time>2018-06-19T13:56:27Z</time>
      </trkpt>
      <trkpt lat="44.09155" lon="6.53847">
        <ele>1162.61</ele>
        <time>2018-06-19T13:56:28Z</time>
      </trkpt>
      <trkpt lat="44.09161" lon="6.5387">
        <ele>1162.63</ele>
        <time>2018-06-19T13:56:29Z</time>
      </trkpt>
      <trkpt lat="44.09184" lon="6.54043">
        <ele>1165.56</ele>
        <time>2018-06-19T13:56:35Z</time>
      </trkpt>
      <trkpt lat="44.09195" lon="6.54132">
        <ele>1165.47</ele>
        <time>2018-06-19T13:56:38Z</time>
      </trkpt>
      <trkpt lat="44.09196" lon="6.5416">
        <ele>1165.44</ele>
        <time>2018-06-19T13:56:39Z</time>
      </trkpt>
      <trkpt lat="44.09195" lon="6.54186">
        <ele>1165.43</ele>
        <time>2018-06-19T13:56:40Z</time>
      </trkpt>
      <trkpt lat="44.09188" lon="6.54259">
        <ele>1162.94</ele>
        <time>2018-06-19T13:56:43Z</time>
      </trkpt>
      <trkpt lat="44.09183" lon="6.54281">
        <ele>1162.94</ele>
        <time>2018-06-19T13:56:44Z</time>
      </trkpt>
      <trkpt lat="44.09171" lon="6.54354">
        <ele>1162.98</ele>
        <time>2018-06-19T13:56:47Z</time>
      </trkpt>
      <trkpt lat="44.09172" lon="6.5438">
        <ele>1162.94</ele>
        <time>2018-06-19T13:56:48Z</time>
      </trkpt>
      <trkpt lat="44.09207" lon="6.54565">
        <ele>1161.14</ele>
        <time>2018-06-19T13:56:55Z</time>
      </trkpt>
      <trkpt lat="44.09215" lon="6.54587">
        <ele>1161.16</ele>
        <time>2018-06-19T13:56:56Z</time>
      </trkpt>
      <trkpt lat="44.09225" lon="6.54606">
        <ele>1160.27</ele>
        <time>2018-06-19T13:56:57Z</time>
      </trkpt>
      <trkpt lat="44.09237" lon="6.54622">
        <ele>1159.52</ele>
        <time>2018-06-19T13:56:58Z</time>
      </trkpt>
      <trkpt lat="44.0925" lon="6.54637">
        <ele>1159.52</ele>
        <time>2018-06-19T13:56:59Z</time>
      </trkpt>
      <trkpt lat="44.09264" lon="6.54651">
        <ele>1159.52</ele>
        <time>2018-06-19T13:57:00Z</time>
      </trkpt>
      <trkpt lat="44.09278" lon="6.54663">
        <ele>1158.13</ele>
        <time>2018-06-19T13:57:01Z</time>
      </trkpt>
      <trkpt lat="44.09293" lon="6.54674">
        <ele>1158.13</ele>
        <time>2018-06-19T13:57:02Z</time>
      </trkpt>
      <trkpt lat="44.09307" lon="6.54687">
        <ele>1158.14</ele>
        <time>2018-06-19T13:57:03Z</time>
      </trkpt>
      <trkpt lat="44.0932" lon="6.54703">
        <ele>1157.29</ele>
        <time>2018-06-19T13:57:04Z</time>
      </trkpt>
      <trkpt lat="44.0933" lon="6.54722">
        <ele>1157.26</ele>
        <time>2018-06-19T13:57:05Z</time>
      </trkpt>
      <trkpt lat="44.09412" lon="6.54899">
        <ele>1155.45</ele>
        <time>2018-06-19T13:57:13Z</time>
      </trkpt>
      <trkpt lat="44.09504" lon="6.55107">
        <ele>1154.39</ele>
        <time>2018-06-19T13:57:22Z</time>
      </trkpt>
      <trkpt lat="44.0958" lon="6.55298">
        <ele>1154.52</ele>
        <time>2018-06-19T13:57:31Z</time>
      </trkpt>
      <trkpt lat="44.09622" lon="6.55386">
        <ele>1151.18</ele>
        <time>2018-06-19T13:57:36Z</time>
      </trkpt>
      <trkpt lat="44.09647" lon="6.55431">
        <ele>1147.32</ele>
        <time>2018-06-19T13:57:39Z</time>
      </trkpt>
      <trkpt lat="44.09666" lon="6.5547">
        <ele>1144.19</ele>
        <time>2018-06-19T13:57:42Z</time>
      </trkpt>
      <trkpt lat="44.09672" lon="6.5549">
        <ele>1141.8</ele>
        <time>2018-06-19T13:57:44Z</time>
      </trkpt>
      <trkpt lat="44.09672" lon="6.55498">
        <ele>1140.74</ele>
        <time>2018-06-19T13:57:45Z</time>
      </trkpt>
      <trkpt lat="44.09668" lon="6.55505">
        <ele>1140.75</ele>
        <time>2018-06-19T13:57:46Z</time>
      </trkpt>
      <trkpt lat="44.09664" lon="6.5551">
        <ele>1139.89</ele>
        <time>2018-06-19T13:57:47Z</time>
      </trkpt>
      <trkpt lat="44.0966" lon="6.55513">
        <ele>1139.45</ele>
        <time>2018-06-19T13:57:48Z</time>
      </trkpt>
      <trkpt lat="44.09658" lon="6.55516">
        <ele>1138.13</ele>
        <time>2018-06-19T13:57:49Z</time>
      </trkpt>
      <trkpt lat="44.09656" lon="6.55519">
        <ele>1138.13</ele>
        <time>2018-06-19T13:57:50Z</time>
      </trkpt>
      <trkpt lat="44.09655" lon="6.55522">
        <ele>1138.05</ele>
        <time>2018-06-19T13:57:51Z</time>
      </trkpt>
      <trkpt lat="44.09655" lon="6.55525">
        <ele>1138.05</ele>
        <time>2018-06-19T13:57:52Z</time>
      </trkpt>
      <trkpt lat="44.09656" lon="6.55529">
        <ele>1138.14</ele>
        <time>2018-06-19T13:57:53Z</time>
      </trkpt>
      <trkpt lat="44.09657" lon="6.55531">
        <ele>1138.06</ele>
        <time>2018-06-19T13:57:54Z</time>
      </trkpt>
      <trkpt lat="44.09659" lon="6.55533">
        <ele>1137.98</ele>
        <time>2018-06-19T13:57:55Z</time>
      </trkpt>
      <trkpt lat="44.0966" lon="6.55535">
        <ele>1138.07</ele>
        <time>2018-06-19T13:57:56Z</time>
      </trkpt>
      <trkpt lat="44.09662" lon="6.55537">
        <ele>1138.04</ele>
        <time>2018-06-19T13:57:57Z</time>
      </trkpt>
      <trkpt lat="44.09664" lon="6.55539">
        <ele>1138.06</ele>
        <time>2018-06-19T13:57:58Z</time>
      </trkpt>
      <trkpt lat="44.09666" lon="6.55542">
        <ele>1138.08</ele>
        <time>2018-06-19T13:57:59Z</time>
      </trkpt>
      <trkpt lat="44.09669" lon="6.55545">
        <ele>1138.11</ele>
        <time>2018-06-19T13:58:00Z</time>
      </trkpt>
      <trkpt lat="44.09673" lon="6.55549">
        <ele>1138.12</ele>
        <time>2018-06-19T13:58:01Z</time>
      </trkpt>
      <trkpt lat="44.09676" lon="6.55554">
        <ele>1138.14</ele>
        <time>2018-06-19T13:58:02Z</time>
      </trkpt>
      <trkpt lat="44.09679" lon="6.5556">
        <ele>1138.14</ele>
        <time>2018-06-19T13:58:03Z</time>
      </trkpt>
      <trkpt lat="44.09695" lon="6.55605">
        <ele>1138.18</ele>
        <time>2018-06-19T13:58:09Z</time>
      </trkpt>
      <trkpt lat="44.09696" lon="6.55614">
        <ele>1138.18</ele>
        <time>2018-06-19T13:58:10Z</time>
      </trkpt>
      <trkpt lat="44.09698" lon="6.55649">
        <ele>1137.37</ele>
        <time>2018-06-19T13:58:13Z</time>
      </trkpt>
      <trkpt lat="44.09698" lon="6.55707">
        <ele>1134.61</ele>
        <time>2018-06-19T13:58:17Z</time>
      </trkpt>
      <trkpt lat="44.09699" lon="6.55755">
        <ele>1132.43</ele>
        <time>2018-06-19T13:58:20Z</time>
      </trkpt>
      <trkpt lat="44.09699" lon="6.55787">
        <ele>1131.02</ele>
        <time>2018-06-19T13:58:22Z</time>
      </trkpt>
      <trkpt lat="44.09697" lon="6.5582">
        <ele>1128.93</ele>
        <time>2018-06-19T13:58:24Z</time>
      </trkpt>
      <trkpt lat="44.09689" lon="6.55895">
        <ele>1124.92</ele>
        <time>2018-06-19T13:58:28Z</time>
      </trkpt>
      <trkpt lat="44.09683" lon="6.55948">
        <ele>1121.85</ele>
        <time>2018-06-19T13:58:31Z</time>
      </trkpt>
      <trkpt lat="44.09677" lon="6.56017">
        <ele>1119.1</ele>
        <time>2018-06-19T13:58:35Z</time>
      </trkpt>
      <trkpt lat="44.09678" lon="6.56035">
        <ele>1117.39</ele>
        <time>2018-06-19T13:58:36Z</time>
      </trkpt>
      <trkpt lat="44.09682" lon="6.56051">
        <ele>1116.46</ele>
        <time>2018-06-19T13:58:37Z</time>
      </trkpt>
      <trkpt lat="44.09687" lon="6.56067">
        <ele>1115.49</ele>
        <time>2018-06-19T13:58:38Z</time>
      </trkpt>
      <trkpt lat="44.09692" lon="6.56081">
        <ele>1115.59</ele>
        <time>2018-06-19T13:58:39Z</time>
      </trkpt>
      <trkpt lat="44.09693" lon="6.56094">
        <ele>1113.75</ele>
        <time>2018-06-19T13:58:40Z</time>
      </trkpt>
      <trkpt lat="44.09691" lon="6.56107">
        <ele>1112.76</ele>
        <time>2018-06-19T13:58:41Z</time>
      </trkpt>
      <trkpt lat="44.09686" lon="6.56118">
        <ele>1111.8</ele>
        <time>2018-06-19T13:58:42Z</time>
      </trkpt>
      <trkpt lat="44.09678" lon="6.56127">
        <ele>1111.8</ele>
        <time>2018-06-19T13:58:43Z</time>
      </trkpt>
      <trkpt lat="44.09668" lon="6.56135">
        <ele>1111.9</ele>
        <time>2018-06-19T13:58:44Z</time>
      </trkpt>
      <trkpt lat="44.09656" lon="6.56141">
        <ele>1110.49</ele>
        <time>2018-06-19T13:58:45Z</time>
      </trkpt>
      <trkpt lat="44.09642" lon="6.56148">
        <ele>1109.6</ele>
        <time>2018-06-19T13:58:46Z</time>
      </trkpt>
      <trkpt lat="44.09583" lon="6.56177">
        <ele>1106.69</ele>
        <time>2018-06-19T13:58:50Z</time>
      </trkpt>
      <trkpt lat="44.09553" lon="6.56193">
        <ele>1104.22</ele>
        <time>2018-06-19T13:58:52Z</time>
      </trkpt>
      <trkpt lat="44.09481" lon="6.56225">
        <ele>1101.18</ele>
        <time>2018-06-19T13:58:57Z</time>
      </trkpt>
      <trkpt lat="44.09467" lon="6.56226">
        <ele>1099.69</ele>
        <time>2018-06-19T13:58:58Z</time>
      </trkpt>
      <trkpt lat="44.0943" lon="6.56231">
        <ele>1096.72</ele>
        <time>2018-06-19T13:59:01Z</time>
      </trkpt>
      <trkpt lat="44.09424" lon="6.56237">
        <ele>1094.86</ele>
        <time>2018-06-19T13:59:02Z</time>
      </trkpt>
      <trkpt lat="44.09422" lon="6.56245">
        <ele>1093.68</ele>
        <time>2018-06-19T13:59:03Z</time>
      </trkpt>
      <trkpt lat="44.09425" lon="6.56254">
        <ele>1093.72</ele>
        <time>2018-06-19T13:59:04Z</time>
      </trkpt>
      <trkpt lat="44.0943" lon="6.56261">
        <ele>1092.83</ele>
        <time>2018-06-19T13:59:05Z</time>
      </trkpt>
      <trkpt lat="44.0944" lon="6.56265">
        <ele>1092.79</ele>
        <time>2018-06-19T13:59:06Z</time>
      </trkpt>
      <trkpt lat="44.09453" lon="6.5627">
        <ele>1092.83</ele>
        <time>2018-06-19T13:59:07Z</time>
      </trkpt>
      <trkpt lat="44.09466" lon="6.56278">
        <ele>1091.74</ele>
        <time>2018-06-19T13:59:08Z</time>
      </trkpt>
      <trkpt lat="44.09478" lon="6.56289">
        <ele>1091.72</ele>
        <time>2018-06-19T13:59:09Z</time>
      </trkpt>
      <trkpt lat="44.09502" lon="6.5631">
        <ele>1088.74</ele>
        <time>2018-06-19T13:59:11Z</time>
      </trkpt>
      <trkpt lat="44.09514" lon="6.5632">
        <ele>1087.59</ele>
        <time>2018-06-19T13:59:12Z</time>
      </trkpt>
      <trkpt lat="44.09525" lon="6.56332">
        <ele>1086.53</ele>
        <time>2018-06-19T13:59:13Z</time>
      </trkpt>
      <trkpt lat="44.09535" lon="6.56348">
        <ele>1085.86</ele>
        <time>2018-06-19T13:59:14Z</time>
      </trkpt>
      <trkpt lat="44.09544" lon="6.56367">
        <ele>1085.86</ele>
        <time>2018-06-19T13:59:15Z</time>
      </trkpt>
      <trkpt lat="44.0957" lon="6.56417">
        <ele>1083.52</ele>
        <time>2018-06-19T13:59:18Z</time>
      </trkpt>
      <trkpt lat="44.09579" lon="6.56431">
        <ele>1082.47</ele>
        <time>2018-06-19T13:59:19Z</time>
      </trkpt>
      <trkpt lat="44.09589" lon="6.56443">
        <ele>1082.49</ele>
        <time>2018-06-19T13:59:20Z</time>
      </trkpt>
      <trkpt lat="44.09625" lon="6.56492">
        <ele>1080.67</ele>
        <time>2018-06-19T13:59:25Z</time>
      </trkpt>
      <trkpt lat="44.09626" lon="6.56497">
        <ele>1079.84</ele>
        <time>2018-06-19T13:59:26Z</time>
      </trkpt>
      <trkpt lat="44.09628" lon="6.56506">
        <ele>1079.9</ele>
        <time>2018-06-19T13:59:33Z</time>
      </trkpt>
      <trkpt lat="44.0963" lon="6.56515">
        <ele>1079.93</ele>
        <time>2018-06-19T13:59:34Z</time>
      </trkpt>
      <trkpt lat="44.09635" lon="6.56525">
        <ele>1079.92</ele>
        <time>2018-06-19T13:59:35Z</time>
      </trkpt>
      <trkpt lat="44.09656" lon="6.56561">
        <ele>1082.7</ele>
        <time>2018-06-19T13:59:38Z</time>
      </trkpt>
      <trkpt lat="44.09666" lon="6.56572">
        <ele>1083.73</ele>
        <time>2018-06-19T13:59:39Z</time>
      </trkpt>
      <trkpt lat="44.097" lon="6.56609">
        <ele>1085.18</ele>
        <time>2018-06-19T13:59:42Z</time>
      </trkpt>
      <trkpt lat="44.0977" lon="6.56678">
        <ele>1087.61</ele>
        <time>2018-06-19T13:59:47Z</time>
      </trkpt>
      <trkpt lat="44.09875" lon="6.56744">
        <ele>1090.08</ele>
        <time>2018-06-19T13:59:53Z</time>
      </trkpt>
      <trkpt lat="44.09977" lon="6.56811">
        <ele>1089.64</ele>
        <time>2018-06-19T13:59:59Z</time>
      </trkpt>
      <trkpt lat="44.09991" lon="6.56826">
        <ele>1089.66</ele>
        <time>2018-06-19T14:00:00Z</time>
      </trkpt>
      <trkpt lat="44.10041" lon="6.5688">
        <ele>1089.62</ele>
        <time>2018-06-19T14:00:04Z</time>
      </trkpt>
      <trkpt lat="44.10055" lon="6.56889">
        <ele>1089.62</ele>
        <time>2018-06-19T14:00:05Z</time>
      </trkpt>
      <trkpt lat="44.10071" lon="6.56895">
        <ele>1089.62</ele>
        <time>2018-06-19T14:00:06Z</time>
      </trkpt>
      <trkpt lat="44.10087" lon="6.569">
        <ele>1089.62</ele>
        <time>2018-06-19T14:00:07Z</time>
      </trkpt>
      <trkpt lat="44.10105" lon="6.56904">
        <ele>1090.38</ele>
        <time>2018-06-19T14:00:08Z</time>
      </trkpt>
      <trkpt lat="44.10234" lon="6.56902">
        <ele>1091.35</ele>
        <time>2018-06-19T14:00:15Z</time>
      </trkpt>
      <trkpt lat="44.10271" lon="6.569">
        <ele>1091.36</ele>
        <time>2018-06-19T14:00:17Z</time>
      </trkpt>
      <trkpt lat="44.1029" lon="6.56907">
        <ele>1091.36</ele>
        <time>2018-06-19T14:00:18Z</time>
      </trkpt>
      <trkpt lat="44.10307" lon="6.56919">
        <ele>1091.37</ele>
        <time>2018-06-19T14:00:19Z</time>
      </trkpt>
      <trkpt lat="44.10324" lon="6.56933">
        <ele>1092.56</ele>
        <time>2018-06-19T14:00:20Z</time>
      </trkpt>
      <trkpt lat="44.1034" lon="6.56949">
        <ele>1092.59</ele>
        <time>2018-06-19T14:00:21Z</time>
      </trkpt>
      <trkpt lat="44.10356" lon="6.56967">
        <ele>1092.6</ele>
        <time>2018-06-19T14:00:22Z</time>
      </trkpt>
      <trkpt lat="44.10371" lon="6.56989">
        <ele>1093.36</ele>
        <time>2018-06-19T14:00:23Z</time>
      </trkpt>
      <trkpt lat="44.105" lon="6.57148">
        <ele>1094.26</ele>
        <time>2018-06-19T14:00:31Z</time>
      </trkpt>
      <trkpt lat="44.10707" lon="6.57375">
        <ele>1095.11</ele>
        <time>2018-06-19T14:00:43Z</time>
      </trkpt>
      <trkpt lat="44.1077" lon="6.57459">
        <ele>1097.53</ele>
        <time>2018-06-19T14:00:47Z</time>
      </trkpt>
      <trkpt lat="44.10916" lon="6.57693">
        <ele>1100.49</ele>
        <time>2018-06-19T14:00:57Z</time>
      </trkpt>
      <trkpt lat="44.10947" lon="6.57746">
        <ele>1101.39</ele>
        <time>2018-06-19T14:00:59Z</time>
      </trkpt>
      <trkpt lat="44.11013" lon="6.57849">
        <ele>1102.6</ele>
        <time>2018-06-19T14:01:03Z</time>
      </trkpt>
      <trkpt lat="44.11031" lon="6.57869">
        <ele>1102.55</ele>
        <time>2018-06-19T14:01:04Z</time>
      </trkpt>
      <trkpt lat="44.1105" lon="6.57886">
        <ele>1102.53</ele>
        <time>2018-06-19T14:01:05Z</time>
      </trkpt>
      <trkpt lat="44.1107" lon="6.57901">
        <ele>1102.54</ele>
        <time>2018-06-19T14:01:06Z</time>
      </trkpt>
      <trkpt lat="44.11091" lon="6.57913">
        <ele>1102.53</ele>
        <time>2018-06-19T14:01:07Z</time>
      </trkpt>
      <trkpt lat="44.11111" lon="6.57922">
        <ele>1102.55</ele>
        <time>2018-06-19T14:01:08Z</time>
      </trkpt>
      <trkpt lat="44.11133" lon="6.57929">
        <ele>1103.75</ele>
        <time>2018-06-19T14:01:09Z</time>
      </trkpt>
      <trkpt lat="44.11154" lon="6.57933">
        <ele>1103.78</ele>
        <time>2018-06-19T14:01:10Z</time>
      </trkpt>
      <trkpt lat="44.11176" lon="6.57936">
        <ele>1103.72</ele>
        <time>2018-06-19T14:01:11Z</time>
      </trkpt>
      <trkpt lat="44.11332" lon="6.57942">
        <ele>1106.78</ele>
        <time>2018-06-19T14:01:18Z</time>
      </trkpt>
      <trkpt lat="44.11355" lon="6.57943">
        <ele>1106.78</ele>
        <time>2018-06-19T14:01:19Z</time>
      </trkpt>
      <trkpt lat="44.11564" lon="6.57946">
        <ele>1110.4</ele>
        <time>2018-06-19T14:01:28Z</time>
      </trkpt>
      <trkpt lat="44.11587" lon="6.57947">
        <ele>1110.42</ele>
        <time>2018-06-19T14:01:29Z</time>
      </trkpt>
      <trkpt lat="44.11885" lon="6.57954">
        <ele>1113.82</ele>
        <time>2018-06-19T14:01:42Z</time>
      </trkpt>
      <trkpt lat="44.12065" lon="6.57989">
        <ele>1117.5</ele>
        <time>2018-06-19T14:01:50Z</time>
      </trkpt>
      <trkpt lat="44.12086" lon="6.58001">
        <ele>1117.5</ele>
        <time>2018-06-19T14:01:51Z</time>
      </trkpt>
      <trkpt lat="44.12241" lon="6.58049">
        <ele>1119.62</ele>
        <time>2018-06-19T14:01:58Z</time>
      </trkpt>
      <trkpt lat="44.12312" lon="6.5805">
        <ele>1121.06</ele>
        <time>2018-06-19T14:02:01Z</time>
      </trkpt>
      <trkpt lat="44.12407" lon="6.58052">
        <ele>1123.27</ele>
        <time>2018-06-19T14:02:05Z</time>
      </trkpt>
      <trkpt lat="44.1255" lon="6.58056">
        <ele>1125.23</ele>
        <time>2018-06-19T14:02:11Z</time>
      </trkpt>
      <trkpt lat="44.12742" lon="6.58062">
        <ele>1127.06</ele>
        <time>2018-06-19T14:02:19Z</time>
      </trkpt>
      <trkpt lat="44.12837" lon="6.58063">
        <ele>1129.42</ele>
        <time>2018-06-19T14:02:23Z</time>
      </trkpt>
      <trkpt lat="44.12933" lon="6.58067">
        <ele>1131.97</ele>
        <time>2018-06-19T14:02:27Z</time>
      </trkpt>
      <trkpt lat="44.12956" lon="6.58073">
        <ele>1132.97</ele>
        <time>2018-06-19T14:02:28Z</time>
      </trkpt>
      <trkpt lat="44.12978" lon="6.58082">
        <ele>1133</ele>
        <time>2018-06-19T14:02:29Z</time>
      </trkpt>
      <trkpt lat="44.13018" lon="6.58101">
        <ele>1134.1</ele>
        <time>2018-06-19T14:02:31Z</time>
      </trkpt>
      <trkpt lat="44.13038" lon="6.58107">
        <ele>1134.14</ele>
        <time>2018-06-19T14:02:32Z</time>
      </trkpt>
      <trkpt lat="44.13059" lon="6.5811">
        <ele>1134.13</ele>
        <time>2018-06-19T14:02:33Z</time>
      </trkpt>
      <trkpt lat="44.1308" lon="6.58111">
        <ele>1134.11</ele>
        <time>2018-06-19T14:02:34Z</time>
      </trkpt>
      <trkpt lat="44.13102" lon="6.58111">
        <ele>1134.08</ele>
        <time>2018-06-19T14:02:35Z</time>
      </trkpt>
      <trkpt lat="44.13124" lon="6.58115">
        <ele>1134.12</ele>
        <time>2018-06-19T14:02:36Z</time>
      </trkpt>
      <trkpt lat="44.13146" lon="6.58122">
        <ele>1134.18</ele>
        <time>2018-06-19T14:02:37Z</time>
      </trkpt>
      <trkpt lat="44.13165" lon="6.58135">
        <ele>1134.12</ele>
        <time>2018-06-19T14:02:38Z</time>
      </trkpt>
      <trkpt lat="44.13185" lon="6.58152">
        <ele>1134.14</ele>
        <time>2018-06-19T14:02:39Z</time>
      </trkpt>
      <trkpt lat="44.13204" lon="6.5817">
        <ele>1135.44</ele>
        <time>2018-06-19T14:02:40Z</time>
      </trkpt>
      <trkpt lat="44.13223" lon="6.58189">
        <ele>1135.48</ele>
        <time>2018-06-19T14:02:41Z</time>
      </trkpt>
      <trkpt lat="44.13349" lon="6.58324">
        <ele>1137.32</ele>
        <time>2018-06-19T14:02:48Z</time>
      </trkpt>
      <trkpt lat="44.13442" lon="6.58446">
        <ele>1138.27</ele>
        <time>2018-06-19T14:02:54Z</time>
      </trkpt>
      <trkpt lat="44.13603" lon="6.58673">
        <ele>1142.24</ele>
        <time>2018-06-19T14:03:05Z</time>
      </trkpt>
      <trkpt lat="44.13742" lon="6.58823">
        <ele>1143.25</ele>
        <time>2018-06-19T14:03:14Z</time>
      </trkpt>
      <trkpt lat="44.13885" lon="6.58971">
        <ele>1146.72</ele>
        <time>2018-06-19T14:03:24Z</time>
      </trkpt>
      <trkpt lat="44.13981" lon="6.59064">
        <ele>1149.86</ele>
        <time>2018-06-19T14:03:30Z</time>
      </trkpt>
      <trkpt lat="44.1403" lon="6.59112">
        <ele>1151.3</ele>
        <time>2018-06-19T14:03:33Z</time>
      </trkpt>
      <trkpt lat="44.14095" lon="6.59173">
        <ele>1152.58</ele>
        <time>2018-06-19T14:03:37Z</time>
      </trkpt>
      <trkpt lat="44.14292" lon="6.5935">
        <ele>1155.18</ele>
        <time>2018-06-19T14:03:50Z</time>
      </trkpt>
      <trkpt lat="44.14457" lon="6.59499">
        <ele>1159.3</ele>
        <time>2018-06-19T14:04:02Z</time>
      </trkpt>
      <trkpt lat="44.14473" lon="6.59513">
        <ele>1159.28</ele>
        <time>2018-06-19T14:04:03Z</time>
      </trkpt>
      <trkpt lat="44.14569" lon="6.59596">
        <ele>1161.42</ele>
        <time>2018-06-19T14:04:09Z</time>
      </trkpt>
      <trkpt lat="44.14639" lon="6.59658">
        <ele>1165.88</ele>
        <time>2018-06-19T14:04:13Z</time>
      </trkpt>
      <trkpt lat="44.14658" lon="6.59674">
        <ele>1165.98</ele>
        <time>2018-06-19T14:04:14Z</time>
      </trkpt>
      <trkpt lat="44.1484" lon="6.59793">
        <ele>1168.91</ele>
        <time>2018-06-19T14:04:23Z</time>
      </trkpt>
      <trkpt lat="44.14862" lon="6.59803">
        <ele>1168.83</ele>
        <time>2018-06-19T14:04:24Z</time>
      </trkpt>
      <trkpt lat="44.15035" lon="6.59853">
        <ele>1171.5</ele>
        <time>2018-06-19T14:04:32Z</time>
      </trkpt>
      <trkpt lat="44.15235" lon="6.59848">
        <ele>1173.25</ele>
        <time>2018-06-19T14:04:41Z</time>
      </trkpt>
      <trkpt lat="44.1528" lon="6.59846">
        <ele>1174.96</ele>
        <time>2018-06-19T14:04:43Z</time>
      </trkpt>
      <trkpt lat="44.15434" lon="6.59889">
        <ele>1178.04</ele>
        <time>2018-06-19T14:04:50Z</time>
      </trkpt>
      <trkpt lat="44.15475" lon="6.59915">
        <ele>1178.95</ele>
        <time>2018-06-19T14:04:52Z</time>
      </trkpt>
      <trkpt lat="44.15552" lon="6.59983">
        <ele>1180.29</ele>
        <time>2018-06-19T14:04:56Z</time>
      </trkpt>
      <trkpt lat="44.15645" lon="6.60078">
        <ele>1183.62</ele>
        <time>2018-06-19T14:05:01Z</time>
      </trkpt>
      <trkpt lat="44.15663" lon="6.60097">
        <ele>1183.7</ele>
        <time>2018-06-19T14:05:02Z</time>
      </trkpt>
      <trkpt lat="44.15718" lon="6.60155">
        <ele>1185.1</ele>
        <time>2018-06-19T14:05:05Z</time>
      </trkpt>
      <trkpt lat="44.15881" lon="6.60326">
        <ele>1186.51</ele>
        <time>2018-06-19T14:05:14Z</time>
      </trkpt>
      <trkpt lat="44.1602" lon="6.60514">
        <ele>1188.44</ele>
        <time>2018-06-19T14:05:23Z</time>
      </trkpt>
      <trkpt lat="44.1613" lon="6.60695">
        <ele>1191.44</ele>
        <time>2018-06-19T14:05:32Z</time>
      </trkpt>
      <trkpt lat="44.16143" lon="6.60715">
        <ele>1191.49</ele>
        <time>2018-06-19T14:05:33Z</time>
      </trkpt>
      <trkpt lat="44.16185" lon="6.60777">
        <ele>1192.94</ele>
        <time>2018-06-19T14:05:36Z</time>
      </trkpt>
      <trkpt lat="44.16234" lon="6.60828">
        <ele>1196.26</ele>
        <time>2018-06-19T14:05:39Z</time>
      </trkpt>
      <trkpt lat="44.16268" lon="6.60858">
        <ele>1197.53</ele>
        <time>2018-06-19T14:05:41Z</time>
      </trkpt>
      <trkpt lat="44.16339" lon="6.60902">
        <ele>1199.85</ele>
        <time>2018-06-19T14:05:45Z</time>
      </trkpt>
      <trkpt lat="44.16439" lon="6.60952">
        <ele>1202.11</ele>
        <time>2018-06-19T14:05:51Z</time>
      </trkpt>
      <trkpt lat="44.16489" lon="6.60979">
        <ele>1205.83</ele>
        <time>2018-06-19T14:05:54Z</time>
      </trkpt>
      <trkpt lat="44.16554" lon="6.61014">
        <ele>1208.06</ele>
        <time>2018-06-19T14:05:58Z</time>
      </trkpt>
      <trkpt lat="44.16754" lon="6.61115">
        <ele>1208.42</ele>
        <time>2018-06-19T14:06:09Z</time>
      </trkpt>
      <trkpt lat="44.16983" lon="6.61233">
        <ele>1209.42</ele>
        <time>2018-06-19T14:06:21Z</time>
      </trkpt>
      <trkpt lat="44.17021" lon="6.61253">
        <ele>1210.61</ele>
        <time>2018-06-19T14:06:23Z</time>
      </trkpt>
      <trkpt lat="44.17078" lon="6.61283">
        <ele>1212.28</ele>
        <time>2018-06-19T14:06:26Z</time>
      </trkpt>
      <trkpt lat="44.17167" lon="6.61341">
        <ele>1215.59</ele>
        <time>2018-06-19T14:06:31Z</time>
      </trkpt>
      <trkpt lat="44.172" lon="6.61372">
        <ele>1216.64</ele>
        <time>2018-06-19T14:06:33Z</time>
      </trkpt>
      <trkpt lat="44.17381" lon="6.61551">
        <ele>1220.1</ele>
        <time>2018-06-19T14:06:44Z</time>
      </trkpt>
      <trkpt lat="44.17435" lon="6.61605">
        <ele>1221.89</ele>
        <time>2018-06-19T14:06:47Z</time>
      </trkpt>
      <trkpt lat="44.17527" lon="6.61697">
        <ele>1223.46</ele>
        <time>2018-06-19T14:06:52Z</time>
      </trkpt>
      <trkpt lat="44.17657" lon="6.61814">
        <ele>1225.63</ele>
        <time>2018-06-19T14:07:00Z</time>
      </trkpt>
      <trkpt lat="44.17693" lon="6.61829">
        <ele>1227.44</ele>
        <time>2018-06-19T14:07:02Z</time>
      </trkpt>
      <trkpt lat="44.17734" lon="6.6184">
        <ele>1228.49</ele>
        <time>2018-06-19T14:07:04Z</time>
      </trkpt>
      <trkpt lat="44.17809" lon="6.61877">
        <ele>1229.66</ele>
        <time>2018-06-19T14:07:08Z</time>
      </trkpt>
      <trkpt lat="44.17826" lon="6.61892">
        <ele>1229.71</ele>
        <time>2018-06-19T14:07:09Z</time>
      </trkpt>
      <trkpt lat="44.17841" lon="6.61908">
        <ele>1230.59</ele>
        <time>2018-06-19T14:07:10Z</time>
      </trkpt>
      <trkpt lat="44.17884" lon="6.6196">
        <ele>1231.81</ele>
        <time>2018-06-19T14:07:13Z</time>
      </trkpt>
      <trkpt lat="44.17967" lon="6.62087">
        <ele>1231.6</ele>
        <time>2018-06-19T14:07:21Z</time>
      </trkpt>
      <trkpt lat="44.18012" lon="6.62206">
        <ele>1233.36</ele>
        <time>2018-06-19T14:07:29Z</time>
      </trkpt>
      <trkpt lat="44.18015" lon="6.62222">
        <ele>1234.78</ele>
        <time>2018-06-19T14:07:30Z</time>
      </trkpt>
      <trkpt lat="44.18015" lon="6.62239">
        <ele>1234.79</ele>
        <time>2018-06-19T14:07:31Z</time>
      </trkpt>
      <trkpt lat="44.18013" lon="6.62256">
        <ele>1234.79</ele>
        <time>2018-06-19T14:07:32Z</time>
      </trkpt>
      <trkpt lat="44.1801" lon="6.62273">
        <ele>1234.82</ele>
        <time>2018-06-19T14:07:33Z</time>
      </trkpt>
      <trkpt lat="44.18004" lon="6.62389">
        <ele>1237.11</ele>
        <time>2018-06-19T14:07:41Z</time>
      </trkpt>
      <trkpt lat="44.18002" lon="6.62401">
        <ele>1237.14</ele>
        <time>2018-06-19T14:07:42Z</time>
      </trkpt>
      <trkpt lat="44.17998" lon="6.6241">
        <ele>1237.14</ele>
        <time>2018-06-19T14:07:43Z</time>
      </trkpt>
      <trkpt lat="44.17992" lon="6.62419">
        <ele>1237.17</ele>
        <time>2018-06-19T14:07:44Z</time>
      </trkpt>
      <trkpt lat="44.17985" lon="6.62426">
        <ele>1237.16</ele>
        <time>2018-06-19T14:07:45Z</time>
      </trkpt>
      <trkpt lat="44.17977" lon="6.62433">
        <ele>1237.17</ele>
        <time>2018-06-19T14:07:46Z</time>
      </trkpt>
      <trkpt lat="44.17969" lon="6.62442">
        <ele>1237.18</ele>
        <time>2018-06-19T14:07:47Z</time>
      </trkpt>
      <trkpt lat="44.17961" lon="6.62452">
        <ele>1237.19</ele>
        <time>2018-06-19T14:07:48Z</time>
      </trkpt>
      <trkpt lat="44.17955" lon="6.62465">
        <ele>1237.21</ele>
        <time>2018-06-19T14:07:49Z</time>
      </trkpt>
      <trkpt lat="44.17951" lon="6.6248">
        <ele>1237.2</ele>
        <time>2018-06-19T14:07:50Z</time>
      </trkpt>
      <trkpt lat="44.1795" lon="6.62495">
        <ele>1237.22</ele>
        <time>2018-06-19T14:07:51Z</time>
      </trkpt>
      <trkpt lat="44.17949" lon="6.62509">
        <ele>1237.23</ele>
        <time>2018-06-19T14:07:52Z</time>
      </trkpt>
      <trkpt lat="44.1795" lon="6.62522">
        <ele>1237.23</ele>
        <time>2018-06-19T14:07:53Z</time>
      </trkpt>
      <trkpt lat="44.17951" lon="6.62533">
        <ele>1238.07</ele>
        <time>2018-06-19T14:07:54Z</time>
      </trkpt>
      <trkpt lat="44.17954" lon="6.62543">
        <ele>1238.07</ele>
        <time>2018-06-19T14:07:55Z</time>
      </trkpt>
      <trkpt lat="44.17956" lon="6.62552">
        <ele>1238.07</ele>
        <time>2018-06-19T14:07:56Z</time>
      </trkpt>
      <trkpt lat="44.1797" lon="6.62573">
        <ele>1238.12</ele>
        <time>2018-06-19T14:08:02Z</time>
      </trkpt>
      <trkpt lat="44.17975" lon="6.62575">
        <ele>1238.16</ele>
        <time>2018-06-19T14:08:03Z</time>
      </trkpt>
      <trkpt lat="44.17994" lon="6.62583">
        <ele>1239.98</ele>
        <time>2018-06-19T14:08:06Z</time>
      </trkpt>
      <trkpt lat="44.18" lon="6.62586">
        <ele>1239.99</ele>
        <time>2018-06-19T14:08:07Z</time>
      </trkpt>
      <trkpt lat="44.18038" lon="6.62597">
        <ele>1240.8</ele>
        <time>2018-06-19T14:08:13Z</time>
      </trkpt>
      <trkpt lat="44.18042" lon="6.62601">
        <ele>1240.79</ele>
        <time>2018-06-19T14:08:14Z</time>
      </trkpt>
      <trkpt lat="44.18047" lon="6.62606">
        <ele>1240.79</ele>
        <time>2018-06-19T14:08:15Z</time>
      </trkpt>
      <trkpt lat="44.1805" lon="6.62614">
        <ele>1240.79</ele>
        <time>2018-06-19T14:08:16Z</time>
      </trkpt>
      <trkpt lat="44.18053" lon="6.62624">
        <ele>1242</ele>
        <time>2018-06-19T14:08:17Z</time>
      </trkpt>
      <trkpt lat="44.18056" lon="6.62634">
        <ele>1242</ele>
        <time>2018-06-19T14:08:18Z</time>
      </trkpt>
      <trkpt lat="44.18063" lon="6.62668">
        <ele>1242.02</ele>
        <time>2018-06-19T14:08:21Z</time>
      </trkpt>
      <trkpt lat="44.18066" lon="6.62689">
        <ele>1242.97</ele>
        <time>2018-06-19T14:08:23Z</time>
      </trkpt>
      <trkpt lat="44.18069" lon="6.62698">
        <ele>1242.98</ele>
        <time>2018-06-19T14:08:24Z</time>
      </trkpt>
      <trkpt lat="44.18073" lon="6.62707">
        <ele>1242.99</ele>
        <time>2018-06-19T14:08:25Z</time>
      </trkpt>
      <trkpt lat="44.18077" lon="6.62714">
        <ele>1243</ele>
        <time>2018-06-19T14:08:26Z</time>
      </trkpt>
      <trkpt lat="44.18081" lon="6.62721">
        <ele>1243.02</ele>
        <time>2018-06-19T14:08:27Z</time>
      </trkpt>
      <trkpt lat="44.18086" lon="6.62728">
        <ele>1243.01</ele>
        <time>2018-06-19T14:08:28Z</time>
      </trkpt>
      <trkpt lat="44.18119" lon="6.62769">
        <ele>1244.11</ele>
        <time>2018-06-19T14:08:34Z</time>
      </trkpt>
      <trkpt lat="44.18126" lon="6.62773">
        <ele>1244.11</ele>
        <time>2018-06-19T14:08:35Z</time>
      </trkpt>
      <trkpt lat="44.18133" lon="6.62775">
        <ele>1244.09</ele>
        <time>2018-06-19T14:08:36Z</time>
      </trkpt>
      <trkpt lat="44.18202" lon="6.62766">
        <ele>1245.09</ele>
        <time>2018-06-19T14:08:43Z</time>
      </trkpt>
      <trkpt lat="44.18212" lon="6.62768">
        <ele>1245.07</ele>
        <time>2018-06-19T14:08:44Z</time>
      </trkpt>
      <trkpt lat="44.1822" lon="6.62773">
        <ele>1245.07</ele>
        <time>2018-06-19T14:08:45Z</time>
      </trkpt>
      <trkpt lat="44.18223" lon="6.62783">
        <ele>1245.04</ele>
        <time>2018-06-19T14:08:46Z</time>
      </trkpt>
      <trkpt lat="44.18224" lon="6.62795">
        <ele>1245.02</ele>
        <time>2018-06-19T14:08:47Z</time>
      </trkpt>
      <trkpt lat="44.18221" lon="6.62807">
        <ele>1245.01</ele>
        <time>2018-06-19T14:08:48Z</time>
      </trkpt>
      <trkpt lat="44.18216" lon="6.62817">
        <ele>1245.02</ele>
        <time>2018-06-19T14:08:49Z</time>
      </trkpt>
      <trkpt lat="44.18209" lon="6.62827">
        <ele>1245.02</ele>
        <time>2018-06-19T14:08:50Z</time>
      </trkpt>
      <trkpt lat="44.18201" lon="6.62836">
        <ele>1245.01</ele>
        <time>2018-06-19T14:08:51Z</time>
      </trkpt>
      <trkpt lat="44.18184" lon="6.62855">
        <ele>1245.01</ele>
        <time>2018-06-19T14:08:53Z</time>
      </trkpt>
      <trkpt lat="44.18177" lon="6.62865">
        <ele>1245.01</ele>
        <time>2018-06-19T14:08:54Z</time>
      </trkpt>
      <trkpt lat="44.18171" lon="6.62877">
        <ele>1245.92</ele>
        <time>2018-06-19T14:08:55Z</time>
      </trkpt>
      <trkpt lat="44.18167" lon="6.6289">
        <ele>1245.92</ele>
        <time>2018-06-19T14:08:56Z</time>
      </trkpt>
      <trkpt lat="44.18164" lon="6.62903">
        <ele>1245.93</ele>
        <time>2018-06-19T14:08:57Z</time>
      </trkpt>
      <trkpt lat="44.18162" lon="6.62915">
        <ele>1246.74</ele>
        <time>2018-06-19T14:08:58Z</time>
      </trkpt>
      <trkpt lat="44.18153" lon="6.6295">
        <ele>1246.71</ele>
        <time>2018-06-19T14:09:04Z</time>
      </trkpt>
      <trkpt lat="44.18153" lon="6.62949">
        <ele>1246.64</ele>
        <time>2018-06-19T14:09:19Z</time>
      </trkpt>
      <trkpt lat="44.18157" lon="6.6295">
        <ele>1247.47</ele>
        <time>2018-06-19T14:09:44Z</time>
      </trkpt>
      <trkpt lat="44.18157" lon="6.62953">
        <ele>1247.46</ele>
        <time>2018-06-19T14:09:45Z</time>
      </trkpt>
      <trkpt lat="44.18157" lon="6.62958">
        <ele>1247.46</ele>
        <time>2018-06-19T14:09:46Z</time>
      </trkpt>
      <trkpt lat="44.18157" lon="6.62982">
        <ele>1248.63</ele>
        <time>2018-06-19T14:09:49Z</time>
      </trkpt>
      <trkpt lat="44.18158" lon="6.63">
        <ele>1249.43</ele>
        <time>2018-06-19T14:09:51Z</time>
      </trkpt>
      <trkpt lat="44.18162" lon="6.63021">
        <ele>1251.1</ele>
        <time>2018-06-19T14:09:53Z</time>
      </trkpt>
      <trkpt lat="44.18164" lon="6.63032">
        <ele>1251.96</ele>
        <time>2018-06-19T14:09:54Z</time>
      </trkpt>
      <trkpt lat="44.18167" lon="6.63043">
        <ele>1251.98</ele>
        <time>2018-06-19T14:09:55Z</time>
      </trkpt>
      <trkpt lat="44.18172" lon="6.63051">
        <ele>1253</ele>
        <time>2018-06-19T14:09:56Z</time>
      </trkpt>
      <trkpt lat="44.18178" lon="6.63056">
        <ele>1253</ele>
        <time>2018-06-19T14:09:57Z</time>
      </trkpt>
      <trkpt lat="44.18187" lon="6.63058">
        <ele>1254.46</ele>
        <time>2018-06-19T14:09:58Z</time>
      </trkpt>
      <trkpt lat="44.18196" lon="6.6306">
        <ele>1254.48</ele>
        <time>2018-06-19T14:09:59Z</time>
      </trkpt>
      <trkpt lat="44.18207" lon="6.63061">
        <ele>1256.16</ele>
        <time>2018-06-19T14:10:00Z</time>
      </trkpt>
      <trkpt lat="44.18218" lon="6.63062">
        <ele>1256.18</ele>
        <time>2018-06-19T14:10:01Z</time>
      </trkpt>
      <trkpt lat="44.18229" lon="6.63062">
        <ele>1257</ele>
        <time>2018-06-19T14:10:02Z</time>
      </trkpt>
      <trkpt lat="44.18241" lon="6.6306">
        <ele>1257.79</ele>
        <time>2018-06-19T14:10:03Z</time>
      </trkpt>
      <trkpt lat="44.18253" lon="6.63053">
        <ele>1258.71</ele>
        <time>2018-06-19T14:10:04Z</time>
      </trkpt>
      <trkpt lat="44.18278" lon="6.63038">
        <ele>1259.75</ele>
        <time>2018-06-19T14:10:06Z</time>
      </trkpt>
      <trkpt lat="44.18302" lon="6.63023">
        <ele>1261.56</ele>
        <time>2018-06-19T14:10:08Z</time>
      </trkpt>
      <trkpt lat="44.18323" lon="6.6301">
        <ele>1263.15</ele>
        <time>2018-06-19T14:10:10Z</time>
      </trkpt>
      <trkpt lat="44.1834" lon="6.63003">
        <ele>1264.26</ele>
        <time>2018-06-19T14:10:12Z</time>
      </trkpt>
      <trkpt lat="44.18347" lon="6.63003">
        <ele>1265.22</ele>
        <time>2018-06-19T14:10:13Z</time>
      </trkpt>
      <trkpt lat="44.18353" lon="6.63005">
        <ele>1265.45</ele>
        <time>2018-06-19T14:10:14Z</time>
      </trkpt>
      <trkpt lat="44.18366" lon="6.63018">
        <ele>1261.140625</ele>
      </trkpt>
      <trkpt lat="44.1837" lon="6.63027">
        <ele>1261.34765625</ele>
      </trkpt>
      <trkpt lat="44.18379" lon="6.63053">
        <ele>1263.01953125</ele>
      </trkpt>
      <trkpt lat="44.18385" lon="6.63072">
        <ele>1265.14453125</ele>
      </trkpt>
      <trkpt lat="44.18409" lon="6.63149">
        <ele>1279.49609375</ele>
      </trkpt>
      <trkpt lat="44.18411" lon="6.63153">
        <ele>1280.234375</ele>
      </trkpt>
      <trkpt lat="44.18416" lon="6.63161">
        <ele>1283.1640625</ele>
      </trkpt>
      <trkpt lat="44.18421" lon="6.63168">
        <ele>1285.24609375</ele>
      </trkpt>
      <trkpt lat="44.18425" lon="6.63171">
        <ele>1286.26953125</ele>
      </trkpt>
      <trkpt lat="44.18436" lon="6.63177">
        <ele>1288.25390625</ele>
      </trkpt>
      <trkpt lat="44.18445" lon="6.6318">
        <ele>1289.10546875</ele>
      </trkpt>
      <trkpt lat="44.18455" lon="6.63182">
        <ele>1288.984375</ele>
      </trkpt>
      <trkpt lat="44.18464" lon="6.63182">
        <ele>1288.53515625</ele>
      </trkpt>
      <trkpt lat="44.18505" lon="6.63177">
        <ele>1284.23828125</ele>
      </trkpt>
      <trkpt lat="44.18519" lon="6.63178">
        <ele>1283.81640625</ele>
      </trkpt>
      <trkpt lat="44.18533" lon="6.6318">
        <ele>1283.8515625</ele>
      </trkpt>
      <trkpt lat="44.18543" lon="6.6318">
        <ele>1283.25390625</ele>
      </trkpt>
      <trkpt lat="44.18549" lon="6.63179">
        <ele>1282.5390625</ele>
      </trkpt>
      <trkpt lat="44.18599" lon="6.6317">
        <ele>1276.015625</ele>
      </trkpt>
      <trkpt lat="44.18606" lon="6.6317">
        <ele>1275.44140625</ele>
      </trkpt>
      <trkpt lat="44.18614" lon="6.6317">
        <ele>1274.671875</ele>
      </trkpt>
      <trkpt lat="44.18622" lon="6.63171">
        <ele>1274.29296875</ele>
      </trkpt>
      <trkpt lat="44.18635" lon="6.63175">
        <ele>1274.171875</ele>
      </trkpt>
      <trkpt lat="44.18642" lon="6.63178">
        <ele>1274.1953125</ele>
      </trkpt>
      <trkpt lat="44.1865" lon="6.63183">
        <ele>1274.48828125</ele>
      </trkpt>
      <trkpt lat="44.18657" lon="6.63189">
        <ele>1274.92578125</ele>
      </trkpt>
      <trkpt lat="44.18688" lon="6.6322">
        <ele>1275.82421875</ele>
      </trkpt>
      <trkpt lat="44.18697" lon="6.63227">
        <ele>1275.55078125</ele>
      </trkpt>
      <trkpt lat="44.18711" lon="6.63234">
        <ele>1275.20703125</ele>
      </trkpt>
      <trkpt lat="44.18715" lon="6.63237">
        <ele>1275.0625</ele>
      </trkpt>
      <trkpt lat="44.18724" lon="6.63244">
        <ele>1274.4296875</ele>
      </trkpt>
      <trkpt lat="44.18731" lon="6.63252">
        <ele>1273.75390625</ele>
      </trkpt>
      <trkpt lat="44.18741" lon="6.63265">
        <ele>1272.73828125</ele>
      </trkpt>
      <trkpt lat="44.18759" lon="6.63295">
        <ele>1275.57421875</ele>
      </trkpt>
      <trkpt lat="44.18773" lon="6.63315">
        <ele>1276.21484375</ele>
      </trkpt>
      <trkpt lat="44.18832" lon="6.63389">
        <ele>1276.1875</ele>
      </trkpt>
      <trkpt lat="44.18896" lon="6.63469">
        <ele>1284.9375</ele>
      </trkpt>
      <trkpt lat="44.18902" lon="6.63474">
        <ele>1285.6328125</ele>
      </trkpt>
      <trkpt lat="44.18906" lon="6.63478">
        <ele>1285.8984375</ele>
      </trkpt>
      <trkpt lat="44.1891" lon="6.63481">
        <ele>1286.1484375</ele>
      </trkpt>
      <trkpt lat="44.1892" lon="6.63484">
        <ele>1285.8515625</ele>
      </trkpt>
      <trkpt lat="44.18963" lon="6.63488">
        <ele>1286.28515625</ele>
      </trkpt>
      <trkpt lat="44.18983" lon="6.63493">
        <ele>1287.29296875</ele>
      </trkpt>
      <trkpt lat="44.18999" lon="6.63496">
        <ele>1288.15234375</ele>
      </trkpt>
      <trkpt lat="44.19032" lon="6.63504">
        <ele>1290.3046875</ele>
      </trkpt>
      <trkpt lat="44.19071" lon="6.63517">
        <ele>1292.2109375</ele>
      </trkpt>
      <trkpt lat="44.19084" lon="6.6352">
        <ele>1292.20703125</ele>
      </trkpt>
      <trkpt lat="44.19099" lon="6.63518">
        <ele>1291.70703125</ele>
      </trkpt>
      <trkpt lat="44.19114" lon="6.63515">
        <ele>1290.8203125</ele>
      </trkpt>
      <trkpt lat="44.1916" lon="6.63501">
        <ele>1287.99609375</ele>
      </trkpt>
      <trkpt lat="44.19225" lon="6.63479">
        <ele>1285.73828125</ele>
      </trkpt>
      <trkpt lat="44.19231" lon="6.63478">
        <ele>1285.92578125</ele>
      </trkpt>
      <trkpt lat="44.1924" lon="6.63476">
        <ele>1286.0703125</ele>
      </trkpt>
      <trkpt lat="44.19249" lon="6.63474">
        <ele>1286.41015625</ele>
      </trkpt>
      <trkpt lat="44.19264" lon="6.63476">
        <ele>1287.17578125</ele>
      </trkpt>
      <trkpt lat="44.19272" lon="6.63478">
        <ele>1287.765625</ele>
      </trkpt>
      <trkpt lat="44.19284" lon="6.6348">
        <ele>1288.50390625</ele>
      </trkpt>
      <trkpt lat="44.19294" lon="6.63483">
        <ele>1289.328125</ele>
      </trkpt>
      <trkpt lat="44.19305" lon="6.63486">
        <ele>1290.125</ele>
      </trkpt>
      <trkpt lat="44.19315" lon="6.63491">
        <ele>1290.578125</ele>
      </trkpt>
      <trkpt lat="44.19326" lon="6.63496">
        <ele>1290.95703125</ele>
      </trkpt>
      <trkpt lat="44.19334" lon="6.63502">
        <ele>1291.44140625</ele>
      </trkpt>
      <trkpt lat="44.19344" lon="6.6351">
        <ele>1291.92578125</ele>
      </trkpt>
      <trkpt lat="44.19352" lon="6.63517">
        <ele>1292.35546875</ele>
      </trkpt>
      <trkpt lat="44.19361" lon="6.63526">
        <ele>1292.8046875</ele>
      </trkpt>
      <trkpt lat="44.1937" lon="6.63533">
        <ele>1293.26171875</ele>
      </trkpt>
      <trkpt lat="44.19378" lon="6.63542">
        <ele>1293.87109375</ele>
      </trkpt>
      <trkpt lat="44.19386" lon="6.6355">
        <ele>1294.3359375</ele>
      </trkpt>
      <trkpt lat="44.19392" lon="6.63558">
        <ele>1294.9375</ele>
      </trkpt>
      <trkpt lat="44.19406" lon="6.63572">
        <ele>1295.96875</ele>
      </trkpt>
      <trkpt lat="44.19412" lon="6.63577">
        <ele>1296.390625</ele>
      </trkpt>
      <trkpt lat="44.1945" lon="6.63601">
        <ele>1302.625</ele>
      </trkpt>
      <trkpt lat="44.19465" lon="6.63606">
        <ele>1305.20703125</ele>
      </trkpt>
      <trkpt lat="44.19477" lon="6.6361">
        <ele>1307.22265625</ele>
      </trkpt>
      <trkpt lat="44.19491" lon="6.63612">
        <ele>1309.7265625</ele>
      </trkpt>
      <trkpt lat="44.19502" lon="6.63613">
        <ele>1311.60546875</ele>
      </trkpt>
      <trkpt lat="44.19512" lon="6.63613">
        <ele>1313.33203125</ele>
      </trkpt>
      <trkpt lat="44.19524" lon="6.63612">
        <ele>1315.04296875</ele>
      </trkpt>
      <trkpt lat="44.19535" lon="6.6361">
        <ele>1315.94921875</ele>
      </trkpt>
      <trkpt lat="44.19546" lon="6.63607">
        <ele>1316.36328125</ele>
      </trkpt>
      <trkpt lat="44.19567" lon="6.636">
        <ele>1316.1171875</ele>
      </trkpt>
      <trkpt lat="44.19608" lon="6.63587">
        <ele>1314.74609375</ele>
      </trkpt>
      <trkpt lat="44.19617" lon="6.63584">
        <ele>1314.28125</ele>
      </trkpt>
      <trkpt lat="44.19626" lon="6.63582">
        <ele>1314.02734375</ele>
      </trkpt>
      <trkpt lat="44.19636" lon="6.6358">
        <ele>1313.79296875</ele>
      </trkpt>
      <trkpt lat="44.19644" lon="6.63577">
        <ele>1313.21875</ele>
      </trkpt>
      <trkpt lat="44.19654" lon="6.63577">
        <ele>1312.75390625</ele>
      </trkpt>
      <trkpt lat="44.19661" lon="6.63579">
        <ele>1312.65625</ele>
      </trkpt>
      <trkpt lat="44.1967" lon="6.63582">
        <ele>1313.0234375</ele>
      </trkpt>
      <trkpt lat="44.19677" lon="6.63585">
        <ele>1313.421875</ele>
      </trkpt>
      <trkpt lat="44.19684" lon="6.63589">
        <ele>1314.12109375</ele>
      </trkpt>
      <trkpt lat="44.19715" lon="6.6361">
        <ele>1318.21875</ele>
      </trkpt>
      <trkpt lat="44.19723" lon="6.63614">
        <ele>1319.02734375</ele>
      </trkpt>
      <trkpt lat="44.1973" lon="6.63618">
        <ele>1319.83984375</ele>
      </trkpt>
      <trkpt lat="44.19742" lon="6.63624">
        <ele>1320.59375</ele>
      </trkpt>
      <trkpt lat="44.19772" lon="6.63631">
        <ele>1319.8203125</ele>
      </trkpt>
      <trkpt lat="44.19782" lon="6.63635">
        <ele>1320.2265625</ele>
      </trkpt>
      <trkpt lat="44.19788" lon="6.6364">
        <ele>1321.0390625</ele>
      </trkpt>
      <trkpt lat="44.19793" lon="6.63645">
        <ele>1322.390625</ele>
      </trkpt>
      <trkpt lat="44.19799" lon="6.63651">
        <ele>1324.1796875</ele>
      </trkpt>
      <trkpt lat="44.19808" lon="6.63665">
        <ele>1330.26953125</ele>
      </trkpt>
      <trkpt lat="44.19814" lon="6.63671">
        <ele>1333.3515625</ele>
      </trkpt>
      <trkpt lat="44.19818" lon="6.63675">
        <ele>1335.7734375</ele>
      </trkpt>
      <trkpt lat="44.19823" lon="6.63678">
        <ele>1337.703125</ele>
      </trkpt>
      <trkpt lat="44.19837" lon="6.63684">
        <ele>1341.140625</ele>
      </trkpt>
      <trkpt lat="44.19846" lon="6.63687">
        <ele>1343.140625</ele>
      </trkpt>
      <trkpt lat="44.19852" lon="6.63687">
        <ele>1343.5</ele>
      </trkpt>
      <trkpt lat="44.19859" lon="6.63686">
        <ele>1343.3671875</ele>
      </trkpt>
      <trkpt lat="44.19863" lon="6.63685">
        <ele>1343.16796875</ele>
      </trkpt>
      <trkpt lat="44.1987" lon="6.63682">
        <ele>1342.62890625</ele>
      </trkpt>
      <trkpt lat="44.19874" lon="6.63679">
        <ele>1342.296875</ele>
      </trkpt>
      <trkpt lat="44.19881" lon="6.63673">
        <ele>1340.63671875</ele>
      </trkpt>
      <trkpt lat="44.19899" lon="6.63655">
        <ele>1335.87890625</ele>
      </trkpt>
      <trkpt lat="44.19906" lon="6.63645">
        <ele>1333.66796875</ele>
      </trkpt>
      <trkpt lat="44.19914" lon="6.63633">
        <ele>1330.9765625</ele>
      </trkpt>
      <trkpt lat="44.1992" lon="6.63621">
        <ele>1328.0703125</ele>
      </trkpt>
      <trkpt lat="44.19925" lon="6.6361">
        <ele>1324.84765625</ele>
      </trkpt>
      <trkpt lat="44.19934" lon="6.63595">
        <ele>1321.33203125</ele>
      </trkpt>
      <trkpt lat="44.19944" lon="6.63588">
        <ele>1321.5078125</ele>
      </trkpt>
      <trkpt lat="44.19953" lon="6.63583">
        <ele>1321.9140625</ele>
      </trkpt>
      <trkpt lat="44.19988" lon="6.63576">
        <ele>1324.99609375</ele>
      </trkpt>
      <trkpt lat="44.19997" lon="6.63574">
        <ele>1325.32421875</ele>
      </trkpt>
      <trkpt lat="44.20039" lon="6.63562">
        <ele>1325.10546875</ele>
      </trkpt>
      <trkpt lat="44.20052" lon="6.63561">
        <ele>1324.70703125</ele>
      </trkpt>
      <trkpt lat="44.20059" lon="6.63561">
        <ele>1324.625</ele>
      </trkpt>
      <trkpt lat="44.20067" lon="6.63563">
        <ele>1325.0703125</ele>
      </trkpt>
      <trkpt lat="44.20081" lon="6.63568">
        <ele>1326</ele>
      </trkpt>
      <trkpt lat="44.20088" lon="6.63572">
        <ele>1326.8359375</ele>
      </trkpt>
      <trkpt lat="44.20097" lon="6.63576">
        <ele>1327.39453125</ele>
      </trkpt>
      <trkpt lat="44.20109" lon="6.63585">
        <ele>1328.72265625</ele>
      </trkpt>
      <trkpt lat="44.20113" lon="6.6359">
        <ele>1329.69921875</ele>
      </trkpt>
      <trkpt lat="44.2012" lon="6.63597">
        <ele>1330.84375</ele>
      </trkpt>
      <trkpt lat="44.20128" lon="6.63602">
        <ele>1332.0859375</ele>
      </trkpt>
      <trkpt lat="44.20137" lon="6.63605">
        <ele>1332.6875</ele>
      </trkpt>
      <trkpt lat="44.20152" lon="6.63609">
        <ele>1332.66015625</ele>
      </trkpt>
      <trkpt lat="44.20162" lon="6.63613">
        <ele>1333.20703125</ele>
      </trkpt>
      <trkpt lat="44.20179" lon="6.63619">
        <ele>1333.859375</ele>
      </trkpt>
      <trkpt lat="44.20185" lon="6.63625">
        <ele>1334.9453125</ele>
      </trkpt>
      <trkpt lat="44.20204" lon="6.63635">
        <ele>1335.9375</ele>
      </trkpt>
      <trkpt lat="44.20241" lon="6.63651">
        <ele>1334.77734375</ele>
      </trkpt>
      <trkpt lat="44.20271" lon="6.6367">
        <ele>1339.72265625</ele>
      </trkpt>
      <trkpt lat="44.20302" lon="6.63664">
        <ele>1339.5</ele>
      </trkpt>
      <trkpt lat="44.20334" lon="6.63636">
        <ele>1333.98046875</ele>
      </trkpt>
      <trkpt lat="44.20342" lon="6.63632">
        <ele>1333.44921875</ele>
      </trkpt>
      <trkpt lat="44.20352" lon="6.6363">
        <ele>1333.7109375</ele>
      </trkpt>
      <trkpt lat="44.20373" lon="6.63636">
        <ele>1336.5703125</ele>
      </trkpt>
      <trkpt lat="44.20461" lon="6.63653">
        <ele>1337.82421875</ele>
      </trkpt>
      <trkpt lat="44.20512" lon="6.63678">
        <ele>1342.32421875</ele>
      </trkpt>
      <trkpt lat="44.20548" lon="6.63685">
        <ele>1344.42578125</ele>
      </trkpt>
      <trkpt lat="44.20573" lon="6.63682">
        <ele>1344.48828125</ele>
      </trkpt>
      <trkpt lat="44.20615" lon="6.63673">
        <ele>1341.9453125</ele>
      </trkpt>
      <trkpt lat="44.20647" lon="6.63665">
        <ele>1338.32421875</ele>
      </trkpt>
      <trkpt lat="44.20656" lon="6.63662">
        <ele>1335.95703125</ele>
      </trkpt>
      <trkpt lat="44.20661" lon="6.63662">
        <ele>1335.22265625</ele>
      </trkpt>
      <trkpt lat="44.20667" lon="6.63663">
        <ele>1334.8671875</ele>
      </trkpt>
      <trkpt lat="44.20673" lon="6.63664">
        <ele>1334.3515625</ele>
      </trkpt>
      <trkpt lat="44.2068" lon="6.63669">
        <ele>1334.9140625</ele>
      </trkpt>
      <trkpt lat="44.20699" lon="6.63686">
        <ele>1337.64453125</ele>
      </trkpt>
      <trkpt lat="44.20746" lon="6.63722">
        <ele>1340.6328125</ele>
      </trkpt>
      <trkpt lat="44.20758" lon="6.63733">
        <ele>1342.29296875</ele>
      </trkpt>
      <trkpt lat="44.20769" lon="6.63742">
        <ele>1343.328125</ele>
      </trkpt>
      <trkpt lat="44.20778" lon="6.63748">
        <ele>1343.59765625</ele>
      </trkpt>
      <trkpt lat="44.20791" lon="6.63756">
        <ele>1343.328125</ele>
      </trkpt>
      <trkpt lat="44.20804" lon="6.63762">
        <ele>1342.44921875</ele>
      </trkpt>
      <trkpt lat="44.20809" lon="6.63764">
        <ele>1342.61328125</ele>
      </trkpt>
      <trkpt lat="44.20831" lon="6.63771">
        <ele>1343.9296875</ele>
      </trkpt>
      <trkpt lat="44.20853" lon="6.63776">
        <ele>1344.50390625</ele>
      </trkpt>
      <trkpt lat="44.20868" lon="6.63779">
        <ele>1345.28515625</ele>
      </trkpt>
      <trkpt lat="44.20887" lon="6.6378">
        <ele>1346.21875</ele>
      </trkpt>
      <trkpt lat="44.20894" lon="6.6378">
        <ele>1346.4453125</ele>
      </trkpt>
      <trkpt lat="44.20935" lon="6.63774">
        <ele>1345.890625</ele>
      </trkpt>
      <trkpt lat="44.20966" lon="6.63772">
        <ele>1346.8359375</ele>
      </trkpt>
      <trkpt lat="44.20977" lon="6.63771">
        <ele>1347.25</ele>
      </trkpt>
      <trkpt lat="44.20989" lon="6.63769">
        <ele>1348.16015625</ele>
      </trkpt>
      <trkpt lat="44.21001" lon="6.63766">
        <ele>1348.44921875</ele>
      </trkpt>
      <trkpt lat="44.21014" lon="6.63758">
        <ele>1347.2109375</ele>
      </trkpt>
      <trkpt lat="44.21021" lon="6.63754">
        <ele>1346.9765625</ele>
      </trkpt>
      <trkpt lat="44.21029" lon="6.63752">
        <ele>1347.19921875</ele>
      </trkpt>
      <trkpt lat="44.21088" lon="6.63741">
        <ele>1347.97265625</ele>
      </trkpt>
      <trkpt lat="44.21129" lon="6.63733">
        <ele>1348.0078125</ele>
      </trkpt>
      <trkpt lat="44.21147" lon="6.63725">
        <ele>1346.83203125</ele>
      </trkpt>
      <trkpt lat="44.21169" lon="6.63719">
        <ele>1346.13671875</ele>
      </trkpt>
      <trkpt lat="44.21186" lon="6.63717">
        <ele>1346.4453125</ele>
      </trkpt>
      <trkpt lat="44.21226" lon="6.63717">
        <ele>1349.140625</ele>
      </trkpt>
      <trkpt lat="44.21234" lon="6.63716">
        <ele>1349.44921875</ele>
      </trkpt>
      <trkpt lat="44.21243" lon="6.63714">
        <ele>1349.44921875</ele>
      </trkpt>
      <trkpt lat="44.21252" lon="6.63709">
        <ele>1349.04296875</ele>
      </trkpt>
      <trkpt lat="44.21281" lon="6.63693">
        <ele>1349.65234375</ele>
      </trkpt>
      <trkpt lat="44.21322" lon="6.63674">
        <ele>1351.9453125</ele>
      </trkpt>
      <trkpt lat="44.21365" lon="6.63663">
        <ele>1357.37890625</ele>
      </trkpt>
      <trkpt lat="44.21403" lon="6.63647">
        <ele>1359.6015625</ele>
      </trkpt>
      <trkpt lat="44.21449" lon="6.63614">
        <ele>1353.3203125</ele>
      </trkpt>
      <trkpt lat="44.21456" lon="6.63609">
        <ele>1352.234375</ele>
      </trkpt>
      <trkpt lat="44.21464" lon="6.63604">
        <ele>1351.48046875</ele>
      </trkpt>
      <trkpt lat="44.21472" lon="6.63601">
        <ele>1351.0546875</ele>
      </trkpt>
      <trkpt lat="44.21482" lon="6.63599">
        <ele>1350.95703125</ele>
      </trkpt>
      <trkpt lat="44.21493" lon="6.63599">
        <ele>1351.3203125</ele>
      </trkpt>
      <trkpt lat="44.21513" lon="6.63603">
        <ele>1352.75</ele>
      </trkpt>
      <trkpt lat="44.2153" lon="6.63606">
        <ele>1354.43359375</ele>
      </trkpt>
      <trkpt lat="44.21535" lon="6.63607">
        <ele>1356.0078125</ele>
      </trkpt>
      <trkpt lat="44.21546" lon="6.63607">
        <ele>1359.84765625</ele>
      </trkpt>
      <trkpt lat="44.21553" lon="6.63605">
        <ele>1361.5078125</ele>
      </trkpt>
      <trkpt lat="44.21565" lon="6.636">
        <ele>1364.1171875</ele>
      </trkpt>
      <trkpt lat="44.21572" lon="6.63592">
        <ele>1364.75390625</ele>
      </trkpt>
      <trkpt lat="44.21603" lon="6.63558">
        <ele>1366.5625</ele>
      </trkpt>
      <trkpt lat="44.21633" lon="6.63524">
        <ele>1367.07421875</ele>
      </trkpt>
      <trkpt lat="44.21664" lon="6.63497">
        <ele>1364.86328125</ele>
      </trkpt>
      <trkpt lat="44.21673" lon="6.63491">
        <ele>1363.765625</ele>
      </trkpt>
      <trkpt lat="44.21685" lon="6.63483">
        <ele>1362.73046875</ele>
      </trkpt>
      <trkpt lat="44.21697" lon="6.63479">
        <ele>1363.09375</ele>
      </trkpt>
      <trkpt lat="44.21705" lon="6.63476">
        <ele>1362.7421875</ele>
      </trkpt>
      <trkpt lat="44.21713" lon="6.63473">
        <ele>1362.4921875</ele>
      </trkpt>
      <trkpt lat="44.21764" lon="6.63465">
        <ele>1361.30078125</ele>
      </trkpt>
      <trkpt lat="44.21823" lon="6.63457">
        <ele>1360.265625</ele>
      </trkpt>
      <trkpt lat="44.22097" lon="6.63414">
        <ele>1353.734375</ele>
      </trkpt>
      <trkpt lat="44.22172" lon="6.63405">
        <ele>1355.4140625</ele>
      </trkpt>
      <trkpt lat="44.22235" lon="6.63394">
        <ele>1358.91796875</ele>
      </trkpt>
      <trkpt lat="44.22312" lon="6.63384">
        <ele>1363.8203125</ele>
      </trkpt>
      <trkpt lat="44.22364" lon="6.63375">
        <ele>1367.01171875</ele>
      </trkpt>
      <trkpt lat="44.22443" lon="6.63363">
        <ele>1380.49609375</ele>
      </trkpt>
      <trkpt lat="44.2248" lon="6.63357">
        <ele>1386.453125</ele>
      </trkpt>
      <trkpt lat="44.22523" lon="6.63348">
        <ele>1390.46484375</ele>
      </trkpt>
      <trkpt lat="44.2253" lon="6.63347">
        <ele>1391.2421875</ele>
      </trkpt>
      <trkpt lat="44.22575" lon="6.63327">
        <ele>1389.859375</ele>
      </trkpt>
      <trkpt lat="44.22614" lon="6.63307">
        <ele>1389.2421875</ele>
      </trkpt>
      <trkpt lat="44.22649" lon="6.63285">
        <ele>1389.453125</ele>
      </trkpt>
      <trkpt lat="44.22661" lon="6.63276">
        <ele>1389.33984375</ele>
      </trkpt>
      <trkpt lat="44.22671" lon="6.63268">
        <ele>1389.03515625</ele>
      </trkpt>
      <trkpt lat="44.2268" lon="6.6326">
        <ele>1388.6171875</ele>
      </trkpt>
      <trkpt lat="44.22696" lon="6.63243">
        <ele>1388.015625</ele>
      </trkpt>
      <trkpt lat="44.22703" lon="6.63233">
        <ele>1387.7265625</ele>
      </trkpt>
      <trkpt lat="44.22737" lon="6.63185">
        <ele>1386.4609375</ele>
      </trkpt>
      <trkpt lat="44.22766" lon="6.63145">
        <ele>1385.6796875</ele>
      </trkpt>
      <trkpt lat="44.22776" lon="6.63134">
        <ele>1386.09375</ele>
      </trkpt>
      <trkpt lat="44.22786" lon="6.63124">
        <ele>1386.375</ele>
      </trkpt>
      <trkpt lat="44.22795" lon="6.63115">
        <ele>1386.69921875</ele>
      </trkpt>
      <trkpt lat="44.22806" lon="6.63109">
        <ele>1387.18359375</ele>
      </trkpt>
      <trkpt lat="44.22841" lon="6.63087">
        <ele>1387.3203125</ele>
      </trkpt>
      <trkpt lat="44.22869" lon="6.63072">
        <ele>1387.80859375</ele>
      </trkpt>
      <trkpt lat="44.22897" lon="6.63055">
        <ele>1388.5</ele>
      </trkpt>
      <trkpt lat="44.22979" lon="6.62994">
        <ele>1392.98828125</ele>
      </trkpt>
      <trkpt lat="44.23014" lon="6.62966">
        <ele>1395.05078125</ele>
      </trkpt>
      <trkpt lat="44.23024" lon="6.62961">
        <ele>1395.77734375</ele>
      </trkpt>
      <trkpt lat="44.23036" lon="6.62955">
        <ele>1396.6640625</ele>
      </trkpt>
      <trkpt lat="44.23046" lon="6.62953">
        <ele>1397.515625</ele>
      </trkpt>
      <trkpt lat="44.23068" lon="6.6295">
        <ele>1399.1875</ele>
      </trkpt>
      <trkpt lat="44.23106" lon="6.62944">
        <ele>1401.359375</ele>
      </trkpt>
      <trkpt lat="44.23121" lon="6.62941">
        <ele>1401.9375</ele>
      </trkpt>
      <trkpt lat="44.23136" lon="6.62937">
        <ele>1402.44140625</ele>
      </trkpt>
      <trkpt lat="44.2317" lon="6.62921">
        <ele>1402.90234375</ele>
      </trkpt>
      <trkpt lat="44.23195" lon="6.62908">
        <ele>1402.7265625</ele>
      </trkpt>
      <trkpt lat="44.23212" lon="6.629">
        <ele>1402.33984375</ele>
      </trkpt>
      <trkpt lat="44.23223" lon="6.62896">
        <ele>1402.1484375</ele>
      </trkpt>
      <trkpt lat="44.23232" lon="6.62893">
        <ele>1401.98046875</ele>
      </trkpt>
      <trkpt lat="44.23239" lon="6.62892">
        <ele>1402.02734375</ele>
      </trkpt>
      <trkpt lat="44.23254" lon="6.62891">
        <ele>1402.1015625</ele>
      </trkpt>
      <trkpt lat="44.23267" lon="6.62891">
        <ele>1402.03125</ele>
      </trkpt>
      <trkpt lat="44.23281" lon="6.62894">
        <ele>1402.328125</ele>
      </trkpt>
      <trkpt lat="44.23309" lon="6.62902">
        <ele>1402.9453125</ele>
      </trkpt>
      <trkpt lat="44.23354" lon="6.62914">
        <ele>1403.7265625</ele>
      </trkpt>
      <trkpt lat="44.23403" lon="6.62927">
        <ele>1404.80859375</ele>
      </trkpt>
      <trkpt lat="44.23411" lon="6.62928">
        <ele>1404.90234375</ele>
      </trkpt>
      <trkpt lat="44.23448" lon="6.62928">
        <ele>1404.90234375</ele>
      </trkpt>
      <trkpt lat="44.23507" lon="6.62927">
        <ele>1406.07421875</ele>
      </trkpt>
      <trkpt lat="44.23542" lon="6.62927">
        <ele>1407.6171875</ele>
      </trkpt>
      <trkpt lat="44.23568" lon="6.62927">
        <ele>1409.0078125</ele>
      </trkpt>
      <trkpt lat="44.23577" lon="6.62924">
        <ele>1409.2421875</ele>
      </trkpt>
      <trkpt lat="44.23588" lon="6.6292">
        <ele>1409.703125</ele>
      </trkpt>
      <trkpt lat="44.23631" lon="6.62893">
        <ele>1410.8125</ele>
      </trkpt>
      <trkpt lat="44.23642" lon="6.62887">
        <ele>1410.90625</ele>
      </trkpt>
      <trkpt lat="44.23654" lon="6.62881">
        <ele>1411.14453125</ele>
      </trkpt>
      <trkpt lat="44.23662" lon="6.62879">
        <ele>1411.5</ele>
      </trkpt>
      <trkpt lat="44.23666" lon="6.62878">
        <ele>1411.66796875</ele>
      </trkpt>
      <trkpt lat="44.23678" lon="6.62877">
        <ele>1412.38671875</ele>
      </trkpt>
      <trkpt lat="44.23689" lon="6.62877">
        <ele>1413.19140625</ele>
      </trkpt>
      <trkpt lat="44.23712" lon="6.62883">
        <ele>1415.1796875</ele>
      </trkpt>
      <trkpt lat="44.23728" lon="6.62889">
        <ele>1416.7578125</ele>
      </trkpt>
      <trkpt lat="44.23738" lon="6.62892">
        <ele>1417.828125</ele>
      </trkpt>
      <trkpt lat="44.23747" lon="6.62893">
        <ele>1418.37890625</ele>
      </trkpt>
      <trkpt lat="44.23754" lon="6.62893">
        <ele>1418.42578125</ele>
      </trkpt>
      <trkpt lat="44.23762" lon="6.62892">
        <ele>1418.1328125</ele>
      </trkpt>
      <trkpt lat="44.23778" lon="6.62889">
        <ele>1417.31640625</ele>
      </trkpt>
      <trkpt lat="44.23784" lon="6.62887">
        <ele>1416.80859375</ele>
      </trkpt>
      <trkpt lat="44.23792" lon="6.62885">
        <ele>1416.5390625</ele>
      </trkpt>
      <trkpt lat="44.23798" lon="6.62885">
        <ele>1416.515625</ele>
      </trkpt>
      <trkpt lat="44.23805" lon="6.62888">
        <ele>1416.95703125</ele>
      </trkpt>
      <trkpt lat="44.23821" lon="6.62894">
        <ele>1418.21484375</ele>
      </trkpt>
      <trkpt lat="44.23857" lon="6.62914">
        <ele>1420.9296875</ele>
      </trkpt>
      <trkpt lat="44.23877" lon="6.62935">
        <ele>1423.67578125</ele>
      </trkpt>
      <trkpt lat="44.23896" lon="6.62951">
        <ele>1426</ele>
      </trkpt>
      <trkpt lat="44.23916" lon="6.62961">
        <ele>1425.99609375</ele>
      </trkpt>
      <trkpt lat="44.23948" lon="6.62974">
        <ele>1425.86328125</ele>
      </trkpt>
      <trkpt lat="44.23986" lon="6.62982">
        <ele>1423.99609375</ele>
      </trkpt>
      <trkpt lat="44.23994" lon="6.62981">
        <ele>1423.56640625</ele>
      </trkpt>
      <trkpt lat="44.24003" lon="6.62978">
        <ele>1422.98828125</ele>
      </trkpt>
      <trkpt lat="44.2401" lon="6.62974">
        <ele>1422.625</ele>
      </trkpt>
      <trkpt lat="44.24018" lon="6.62968">
        <ele>1422.22265625</ele>
      </trkpt>
      <trkpt lat="44.24025" lon="6.62961">
        <ele>1422.02734375</ele>
      </trkpt>
      <trkpt lat="44.24044" lon="6.62935">
        <ele>1423.8828125</ele>
      </trkpt>
      <trkpt lat="44.24051" lon="6.62924">
        <ele>1424.73046875</ele>
      </trkpt>
      <trkpt lat="44.24055" lon="6.62918">
        <ele>1425.359375</ele>
      </trkpt>
      <trkpt lat="44.2408" lon="6.62881">
        <ele>1428.62109375</ele>
      </trkpt>
      <trkpt lat="44.24099" lon="6.62852">
        <ele>1431.2265625</ele>
      </trkpt>
      <trkpt lat="44.24122" lon="6.62817">
        <ele>1433.19140625</ele>
      </trkpt>
      <trkpt lat="44.2413" lon="6.62804">
        <ele>1433.65234375</ele>
      </trkpt>
      <trkpt lat="44.24143" lon="6.62785">
        <ele>1434.6015625</ele>
      </trkpt>
      <trkpt lat="44.24157" lon="6.62764">
        <ele>1435.75</ele>
      </trkpt>
      <trkpt lat="44.24171" lon="6.62741">
        <ele>1436.09375</ele>
      </trkpt>
      <trkpt lat="44.24176" lon="6.62732">
        <ele>1436.1328125</ele>
      </trkpt>
      <trkpt lat="44.24183" lon="6.62722">
        <ele>1436.12890625</ele>
      </trkpt>
      <trkpt lat="44.24201" lon="6.62687">
        <ele>1436.421875</ele>
      </trkpt>
      <trkpt lat="44.24213" lon="6.62665">
        <ele>1437.390625</ele>
      </trkpt>
      <trkpt lat="44.24227" lon="6.62645">
        <ele>1438.36328125</ele>
      </trkpt>
      <trkpt lat="44.24238" lon="6.62629">
        <ele>1438.80859375</ele>
      </trkpt>
      <trkpt lat="44.24254" lon="6.6261">
        <ele>1439.5390625</ele>
      </trkpt>
      <trkpt lat="44.24275" lon="6.62591">
        <ele>1440.99609375</ele>
      </trkpt>
      <trkpt lat="44.24346" lon="6.62541">
        <ele>1443.26171875</ele>
      </trkpt>
      <trkpt lat="44.2436" lon="6.62531">
        <ele>1443.61328125</ele>
      </trkpt>
      <trkpt lat="44.24405" lon="6.625">
        <ele>1442.23828125</ele>
      </trkpt>
      <trkpt lat="44.24419" lon="6.62491">
        <ele>1441.2421875</ele>
      </trkpt>
      <trkpt lat="44.2444" lon="6.62476">
        <ele>1440.0390625</ele>
      </trkpt>
      <trkpt lat="44.2445" lon="6.62471">
        <ele>1439.94140625</ele>
      </trkpt>
      <trkpt lat="44.24459" lon="6.62468">
        <ele>1439.96875</ele>
      </trkpt>
      <trkpt lat="44.24498" lon="6.62465">
        <ele>1441.0390625</ele>
      </trkpt>
      <trkpt lat="44.24503" lon="6.62464">
        <ele>1441.078125</ele>
      </trkpt>
      <trkpt lat="44.24508" lon="6.62462">
        <ele>1440.921875</ele>
      </trkpt>
      <trkpt lat="44.24511" lon="6.62458">
        <ele>1440.57421875</ele>
      </trkpt>
      <trkpt lat="44.24515" lon="6.62454">
        <ele>1440.109375</ele>
      </trkpt>
      <trkpt lat="44.24518" lon="6.6245">
        <ele>1439.609375</ele>
      </trkpt>
      <trkpt lat="44.24522" lon="6.62444">
        <ele>1438.953125</ele>
      </trkpt>
      <trkpt lat="44.24524" lon="6.62439">
        <ele>1438.2578125</ele>
      </trkpt>
      <trkpt lat="44.24534" lon="6.62404">
        <ele>1435.55859375</ele>
      </trkpt>
      <trkpt lat="44.24544" lon="6.62367">
        <ele>1433.91015625</ele>
      </trkpt>
      <trkpt lat="44.24546" lon="6.6236">
        <ele>1434</ele>
      </trkpt>
      <trkpt lat="44.24547" lon="6.62352">
        <ele>1434.03125</ele>
      </trkpt>
      <trkpt lat="44.2456" lon="6.62305">
        <ele>1436.1796875</ele>
      </trkpt>
      <trkpt lat="44.24561" lon="6.62299">
        <ele>1436.81640625</ele>
      </trkpt>
      <trkpt lat="44.24561" lon="6.62291">
        <ele>1437.44140625</ele>
      </trkpt>
      <trkpt lat="44.24561" lon="6.6228">
        <ele>1438.3359375</ele>
      </trkpt>
      <trkpt lat="44.24558" lon="6.62271">
        <ele>1438.80078125</ele>
      </trkpt>
      <trkpt lat="44.24538" lon="6.62235">
        <ele>1439.73828125</ele>
      </trkpt>
      <trkpt lat="44.24533" lon="6.62227">
        <ele>1439.79296875</ele>
      </trkpt>
      <trkpt lat="44.24532" lon="6.62221">
        <ele>1440.0546875</ele>
      </trkpt>
      <trkpt lat="44.2453" lon="6.62216">
        <ele>1440.09375</ele>
      </trkpt>
      <trkpt lat="44.24529" lon="6.62205">
        <ele>1440.7109375</ele>
      </trkpt>
      <trkpt lat="44.24528" lon="6.62163">
        <ele>1443.5546875</ele>
      </trkpt>
      <trkpt lat="44.24526" lon="6.62148">
        <ele>1444.09765625</ele>
      </trkpt>
      <trkpt lat="44.2452" lon="6.62127">
        <ele>1444.19140625</ele>
      </trkpt>
      <trkpt lat="44.24516" lon="6.62114">
        <ele>1444.0390625</ele>
      </trkpt>
      <trkpt lat="44.24513" lon="6.62108">
        <ele>1443.75</ele>
      </trkpt>
      <trkpt lat="44.24507" lon="6.62096">
        <ele>1443.16015625</ele>
      </trkpt>
      <trkpt lat="44.24493" lon="6.62074">
        <ele>1442.625</ele>
      </trkpt>
      <trkpt lat="44.24484" lon="6.62055">
        <ele>1442.703125</ele>
      </trkpt>
      <trkpt lat="44.24481" lon="6.62044">
        <ele>1443.01171875</ele>
      </trkpt>
      <trkpt lat="44.24478" lon="6.62034">
        <ele>1443.4296875</ele>
      </trkpt>
      <trkpt lat="44.24472" lon="6.62008">
        <ele>1444.953125</ele>
      </trkpt>
      <trkpt lat="44.2447" lon="6.61995">
        <ele>1445.765625</ele>
      </trkpt>
      <trkpt lat="44.2447" lon="6.61986">
        <ele>1446.68359375</ele>
      </trkpt>
      <trkpt lat="44.24469" lon="6.61961">
        <ele>1447.74609375</ele>
      </trkpt>
      <trkpt lat="44.24475" lon="6.61885">
        <ele>1448.203125</ele>
      </trkpt>
      <trkpt lat="44.24475" lon="6.6188">
        <ele>1447.80859375</ele>
      </trkpt>
      <trkpt lat="44.24479" lon="6.61872">
        <ele>1448.1328125</ele>
      </trkpt>
      <trkpt lat="44.24483" lon="6.61864">
        <ele>1448.8359375</ele>
      </trkpt>
      <trkpt lat="44.24486" lon="6.61861">
        <ele>1449.5859375</ele>
      </trkpt>
      <trkpt lat="44.24493" lon="6.61857">
        <ele>1451.2890625</ele>
      </trkpt>
      <trkpt lat="44.24497" lon="6.61852">
        <ele>1452.3359375</ele>
      </trkpt>
      <trkpt lat="44.24503" lon="6.61847">
        <ele>1454.03125</ele>
      </trkpt>
      <trkpt lat="44.24509" lon="6.61839">
        <ele>1455.27734375</ele>
      </trkpt>
      <trkpt lat="44.24513" lon="6.61831">
        <ele>1456.15234375</ele>
      </trkpt>
      <trkpt lat="44.24515" lon="6.61821">
        <ele>1456.27734375</ele>
      </trkpt>
      <trkpt lat="44.24519" lon="6.61802">
        <ele>1458.19140625</ele>
      </trkpt>
      <trkpt lat="44.24523" lon="6.61783">
        <ele>1460.28515625</ele>
      </trkpt>
      <trkpt lat="44.24523" lon="6.61773">
        <ele>1460.703125</ele>
      </trkpt>
      <trkpt lat="44.24524" lon="6.6176">
        <ele>1462.015625</ele>
      </trkpt>
      <trkpt lat="44.24524" lon="6.61751">
        <ele>1462.921875</ele>
      </trkpt>
      <trkpt lat="44.24522" lon="6.61743">
        <ele>1462.69921875</ele>
      </trkpt>
      <trkpt lat="44.24514" lon="6.61719">
        <ele>1461.02734375</ele>
      </trkpt>
      <trkpt lat="44.2451" lon="6.61707">
        <ele>1459.8359375</ele>
      </trkpt>
      <trkpt lat="44.24503" lon="6.61695">
        <ele>1459.21875</ele>
      </trkpt>
      <trkpt lat="44.24495" lon="6.61684">
        <ele>1457.04296875</ele>
      </trkpt>
      <trkpt lat="44.24488" lon="6.61675">
        <ele>1455.6171875</ele>
      </trkpt>
      <trkpt lat="44.24483" lon="6.61666">
        <ele>1455.09375</ele>
      </trkpt>
      <trkpt lat="44.24479" lon="6.61656">
        <ele>1455.203125</ele>
      </trkpt>
      <trkpt lat="44.24474" lon="6.61645">
        <ele>1455.453125</ele>
      </trkpt>
      <trkpt lat="44.24473" lon="6.61641">
        <ele>1455.828125</ele>
      </trkpt>
      <trkpt lat="44.24472" lon="6.61637">
        <ele>1456.17578125</ele>
      </trkpt>
      <trkpt lat="44.24472" lon="6.61632">
        <ele>1457.1171875</ele>
      </trkpt>
      <trkpt lat="44.24475" lon="6.61617">
        <ele>1462.390625</ele>
      </trkpt>
      <trkpt lat="44.24475" lon="6.61612">
        <ele>1463.61328125</ele>
      </trkpt>
      <trkpt lat="44.24474" lon="6.61601">
        <ele>1465.359375</ele>
      </trkpt>
      <trkpt lat="44.24473" lon="6.61596">
        <ele>1465.671875</ele>
      </trkpt>
      <trkpt lat="44.24463" lon="6.61567">
        <ele>1461.4296875</ele>
      </trkpt>
      <trkpt lat="44.24461" lon="6.6156">
        <ele>1461.23828125</ele>
      </trkpt>
      <trkpt lat="44.24463" lon="6.61553">
        <ele>1462.18359375</ele>
      </trkpt>
      <trkpt lat="44.24464" lon="6.61546">
        <ele>1463.07421875</ele>
      </trkpt>
      <trkpt lat="44.24466" lon="6.61543">
        <ele>1464.328125</ele>
      </trkpt>
      <trkpt lat="44.24478" lon="6.61529">
        <ele>1471.41796875</ele>
      </trkpt>
      <trkpt lat="44.2448" lon="6.61526">
        <ele>1472.734375</ele>
      </trkpt>
      <trkpt lat="44.24482" lon="6.61514">
        <ele>1473.28515625</ele>
      </trkpt>
      <trkpt lat="44.24479" lon="6.61499">
        <ele>1470.125</ele>
      </trkpt>
      <trkpt lat="44.24478" lon="6.61491">
        <ele>1468.93359375</ele>
      </trkpt>
      <trkpt lat="44.24478" lon="6.61483">
        <ele>1468.4375</ele>
      </trkpt>
      <trkpt lat="44.24478" lon="6.61467">
        <ele>1467.32421875</ele>
      </trkpt>
      <trkpt lat="44.2448" lon="6.61452">
        <ele>1467.27734375</ele>
      </trkpt>
      <trkpt lat="44.24482" lon="6.61437">
        <ele>1467.0859375</ele>
      </trkpt>
      <trkpt lat="44.24485" lon="6.61423">
        <ele>1467.3671875</ele>
      </trkpt>
      <trkpt lat="44.24489" lon="6.61408">
        <ele>1468.0625</ele>
      </trkpt>
      <trkpt lat="44.24494" lon="6.61394">
        <ele>1468.8359375</ele>
      </trkpt>
      <trkpt lat="44.24498" lon="6.6138">
        <ele>1469.609375</ele>
      </trkpt>
      <trkpt lat="44.2451" lon="6.61353">
        <ele>1471.17578125</ele>
      </trkpt>
      <trkpt lat="44.2454" lon="6.61262">
        <ele>1477.6953125</ele>
      </trkpt>
      <trkpt lat="44.24554" lon="6.6123">
        <ele>1480.7734375</ele>
      </trkpt>
      <trkpt lat="44.24569" lon="6.61199">
        <ele>1483.734375</ele>
      </trkpt>
      <trkpt lat="44.2458" lon="6.61172">
        <ele>1480.71875</ele>
      </trkpt>
      <trkpt lat="44.24584" lon="6.61158">
        <ele>1478.01953125</ele>
      </trkpt>
      <trkpt lat="44.24591" lon="6.61129">
        <ele>1478.92578125</ele>
      </trkpt>
      <trkpt lat="44.24607" lon="6.61047">
        <ele>1482.9921875</ele>
      </trkpt>
      <trkpt lat="44.24613" lon="6.61023">
        <ele>1483.97265625</ele>
      </trkpt>
      <trkpt lat="44.24625" lon="6.60976">
        <ele>1485.37890625</ele>
      </trkpt>
      <trkpt lat="44.24631" lon="6.60952">
        <ele>1485.3125</ele>
      </trkpt>
      <trkpt lat="44.24656" lon="6.60879">
        <ele>1488.140625</ele>
      </trkpt>
      <trkpt lat="44.2468" lon="6.60806">
        <ele>1491.5</ele>
      </trkpt>
      <trkpt lat="44.24686" lon="6.60792">
        <ele>1491.92578125</ele>
      </trkpt>
      <trkpt lat="44.24691" lon="6.6077">
        <ele>1491.02734375</ele>
      </trkpt>
      <trkpt lat="44.24695" lon="6.60746">
        <ele>1490.64453125</ele>
      </trkpt>
      <trkpt lat="44.24698" lon="6.60734">
        <ele>1490.6015625</ele>
      </trkpt>
      <trkpt lat="44.24698" lon="6.60707">
        <ele>1488.20703125</ele>
      </trkpt>
      <trkpt lat="44.24696" lon="6.60682">
        <ele>1491.43359375</ele>
      </trkpt>
      <trkpt lat="44.24693" lon="6.60655">
        <ele>1493.8515625</ele>
      </trkpt>
      <trkpt lat="44.24691" lon="6.60641">
        <ele>1493.859375</ele>
      </trkpt>
      <trkpt lat="44.24688" lon="6.60626">
        <ele>1493.26171875</ele>
      </trkpt>
      <trkpt lat="44.24686" lon="6.60601">
        <ele>1493.5546875</ele>
      </trkpt>
      <trkpt lat="44.24686" lon="6.60573">
        <ele>1494.00390625</ele>
      </trkpt>
      <trkpt lat="44.24693" lon="6.60541">
        <ele>1498.0390625</ele>
      </trkpt>
      <trkpt lat="44.2471" lon="6.60509">
        <ele>1502.25</ele>
      </trkpt>
      <trkpt lat="44.24731" lon="6.60482">
        <ele>1507.71484375</ele>
      </trkpt>
      <trkpt lat="44.24777" lon="6.60429">
        <ele>1517.04296875</ele>
      </trkpt>
      <trkpt lat="44.24816" lon="6.6038">
        <ele>1521.33203125</ele>
      </trkpt>
      <trkpt lat="44.24821" lon="6.60374">
        <ele>1521.90625</ele>
      </trkpt>
      <trkpt lat="44.24828" lon="6.60366">
        <ele>1522.734375</ele>
      </trkpt>
      <trkpt lat="44.24834" lon="6.60359">
        <ele>1522.3828125</ele>
      </trkpt>
      <trkpt lat="44.24841" lon="6.6035">
        <ele>1522.5</ele>
      </trkpt>
      <trkpt lat="44.2485" lon="6.60339">
        <ele>1522.04296875</ele>
      </trkpt>
      <trkpt lat="44.2486" lon="6.60331">
        <ele>1522.75390625</ele>
      </trkpt>
      <trkpt lat="44.24869" lon="6.60322">
        <ele>1521.86328125</ele>
      </trkpt>
      <trkpt lat="44.24879" lon="6.60315">
        <ele>1521.9765625</ele>
      </trkpt>
      <trkpt lat="44.24885" lon="6.60307">
        <ele>1521.54296875</ele>
      </trkpt>
      <trkpt lat="44.2489" lon="6.60299">
        <ele>1520.19921875</ele>
      </trkpt>
      <trkpt lat="44.24893" lon="6.60288">
        <ele>1517.92578125</ele>
      </trkpt>
      <trkpt lat="44.24894" lon="6.60282">
        <ele>1516.3125</ele>
      </trkpt>
      <trkpt lat="44.24893" lon="6.60265">
        <ele>1511.10546875</ele>
      </trkpt>
      <trkpt lat="44.24892" lon="6.6025">
        <ele>1508.65234375</ele>
      </trkpt>
      <trkpt lat="44.24893" lon="6.60244">
        <ele>1508.2109375</ele>
      </trkpt>
      <trkpt lat="44.24894" lon="6.60236">
        <ele>1507.66015625</ele>
      </trkpt>
      <trkpt lat="44.24897" lon="6.60231">
        <ele>1508.2109375</ele>
      </trkpt>
      <trkpt lat="44.24899" lon="6.60226">
        <ele>1508.3984375</ele>
      </trkpt>
      <trkpt lat="44.24902" lon="6.6022">
        <ele>1509.05078125</ele>
      </trkpt>
      <trkpt lat="44.24914" lon="6.60208">
        <ele>1512.47265625</ele>
      </trkpt>
      <trkpt lat="44.24922" lon="6.60198">
        <ele>1514.14453125</ele>
      </trkpt>
      <trkpt lat="44.24927" lon="6.60186">
        <ele>1514.53515625</ele>
      </trkpt>
      <trkpt lat="44.24938" lon="6.60161">
        <ele>1514.90234375</ele>
      </trkpt>
      <trkpt lat="44.24941" lon="6.60154">
        <ele>1514.92578125</ele>
      </trkpt>
      <trkpt lat="44.24944" lon="6.6015">
        <ele>1515.03515625</ele>
      </trkpt>
      <trkpt lat="44.24948" lon="6.60146">
        <ele>1515.34765625</ele>
      </trkpt>
      <trkpt lat="44.24952" lon="6.60144">
        <ele>1516.328125</ele>
      </trkpt>
      <trkpt lat="44.24955" lon="6.60142">
        <ele>1516.89453125</ele>
      </trkpt>
      <trkpt lat="44.24959" lon="6.60141">
        <ele>1518.140625</ele>
      </trkpt>
      <trkpt lat="44.24964" lon="6.60141">
        <ele>1519.6953125</ele>
      </trkpt>
      <trkpt lat="44.24968" lon="6.6014">
        <ele>1520.92578125</ele>
      </trkpt>
      <trkpt lat="44.24973" lon="6.60138">
        <ele>1522.1953125</ele>
      </trkpt>
      <trkpt lat="44.24978" lon="6.60136">
        <ele>1523.05859375</ele>
      </trkpt>
      <trkpt lat="44.24982" lon="6.60131">
        <ele>1523.20703125</ele>
      </trkpt>
      <trkpt lat="44.24985" lon="6.60128">
        <ele>1523.28515625</ele>
      </trkpt>
      <trkpt lat="44.24993" lon="6.60122">
        <ele>1523.7265625</ele>
      </trkpt>
      <trkpt lat="44.25001" lon="6.60117">
        <ele>1525.1328125</ele>
      </trkpt>
      <trkpt lat="44.25005" lon="6.60116">
        <ele>1526.1796875</ele>
      </trkpt>
      <trkpt lat="44.25009" lon="6.60115">
        <ele>1526.86328125</ele>
      </trkpt>
      <trkpt lat="44.25013" lon="6.60113">
        <ele>1527.49609375</ele>
      </trkpt>
      <trkpt lat="44.25017" lon="6.60111">
        <ele>1528.109375</ele>
      </trkpt>
      <trkpt lat="44.2502" lon="6.60108">
        <ele>1527.95703125</ele>
      </trkpt>
      <trkpt lat="44.25027" lon="6.601">
        <ele>1527.25</ele>
      </trkpt>
      <trkpt lat="44.25032" lon="6.60096">
        <ele>1527.69921875</ele>
      </trkpt>
      <trkpt lat="44.2504" lon="6.60093">
        <ele>1529.3046875</ele>
      </trkpt>
      <trkpt lat="44.25082" lon="6.60077">
        <ele>1538.3125</ele>
      </trkpt>
      <trkpt lat="44.25097" lon="6.60064">
        <ele>1537.29296875</ele>
      </trkpt>
      <trkpt lat="44.2511" lon="6.60048">
        <ele>1534.16015625</ele>
      </trkpt>
      <trkpt lat="44.25118" lon="6.6004">
        <ele>1533.984375</ele>
      </trkpt>
      <trkpt lat="44.25127" lon="6.60035">
        <ele>1535.26171875</ele>
      </trkpt>
      <trkpt lat="44.25143" lon="6.60028">
        <ele>1539.640625</ele>
      </trkpt>
      <trkpt lat="44.25148" lon="6.60024">
        <ele>1540.70703125</ele>
      </trkpt>
      <trkpt lat="44.2515" lon="6.6002">
        <ele>1540.28125</ele>
      </trkpt>
      <trkpt lat="44.25153" lon="6.60009">
        <ele>1538.26953125</ele>
      </trkpt>
      <trkpt lat="44.25156" lon="6.60002">
        <ele>1536.87109375</ele>
      </trkpt>
      <trkpt lat="44.25159" lon="6.5999">
        <ele>1534.69921875</ele>
      </trkpt>
      <trkpt lat="44.25164" lon="6.59974">
        <ele>1532.97265625</ele>
      </trkpt>
      <trkpt lat="44.25169" lon="6.59964">
        <ele>1532.56640625</ele>
      </trkpt>
      <trkpt lat="44.25178" lon="6.59946">
        <ele>1532.5390625</ele>
      </trkpt>
      <trkpt lat="44.25188" lon="6.59929">
        <ele>1532.7578125</ele>
      </trkpt>
      <trkpt lat="44.25199" lon="6.59912">
        <ele>1533.51171875</ele>
      </trkpt>
      <trkpt lat="44.25225" lon="6.59883">
        <ele>1536.82421875</ele>
      </trkpt>
      <trkpt lat="44.25241" lon="6.5986">
        <ele>1536.41015625</ele>
      </trkpt>
      <trkpt lat="44.25264" lon="6.59831">
        <ele>1531.875</ele>
      </trkpt>
      <trkpt lat="44.2527" lon="6.59827">
        <ele>1531.11328125</ele>
      </trkpt>
      <trkpt lat="44.25278" lon="6.59826">
        <ele>1531.48046875</ele>
      </trkpt>
      <trkpt lat="44.25284" lon="6.59827">
        <ele>1532.45703125</ele>
      </trkpt>
      <trkpt lat="44.25296" lon="6.5983">
        <ele>1534.73046875</ele>
      </trkpt>
      <trkpt lat="44.25302" lon="6.59832">
        <ele>1536.03515625</ele>
      </trkpt>
      <trkpt lat="44.25315" lon="6.59838">
        <ele>1542.26953125</ele>
      </trkpt>
      <trkpt lat="44.25328" lon="6.59844">
        <ele>1547.63671875</ele>
      </trkpt>
      <trkpt lat="44.25334" lon="6.59845">
        <ele>1549.42578125</ele>
      </trkpt>
      <trkpt lat="44.25339" lon="6.59843">
        <ele>1550.5234375</ele>
      </trkpt>
      <trkpt lat="44.25343" lon="6.59838">
        <ele>1551.01171875</ele>
      </trkpt>
      <trkpt lat="44.25348" lon="6.59826">
        <ele>1550.2890625</ele>
      </trkpt>
      <trkpt lat="44.25348" lon="6.59817">
        <ele>1549.625</ele>
      </trkpt>
      <trkpt lat="44.25344" lon="6.59809">
        <ele>1548.7109375</ele>
      </trkpt>
      <trkpt lat="44.2534" lon="6.59803">
        <ele>1547.15234375</ele>
      </trkpt>
      <trkpt lat="44.25333" lon="6.59788">
        <ele>1544.16015625</ele>
      </trkpt>
      <trkpt lat="44.25326" lon="6.59773">
        <ele>1541.13671875</ele>
      </trkpt>
      <trkpt lat="44.25323" lon="6.59764">
        <ele>1539.4140625</ele>
      </trkpt>
      <trkpt lat="44.25321" lon="6.59756">
        <ele>1537.58984375</ele>
      </trkpt>
      <trkpt lat="44.25322" lon="6.59747">
        <ele>1537.49609375</ele>
      </trkpt>
      <trkpt lat="44.25324" lon="6.5974">
        <ele>1538.05078125</ele>
      </trkpt>
      <trkpt lat="44.25327" lon="6.59733">
        <ele>1539.25390625</ele>
      </trkpt>
      <trkpt lat="44.25343" lon="6.5972">
        <ele>1546.69140625</ele>
      </trkpt>
      <trkpt lat="44.25351" lon="6.59713">
        <ele>1549.984375</ele>
      </trkpt>
      <trkpt lat="44.25358" lon="6.59705">
        <ele>1552.8359375</ele>
      </trkpt>
      <trkpt lat="44.25364" lon="6.59699">
        <ele>1554.59375</ele>
      </trkpt>
      <trkpt lat="44.25367" lon="6.59689">
        <ele>1554.5</ele>
      </trkpt>
      <trkpt lat="44.2537" lon="6.59681">
        <ele>1554.60546875</ele>
      </trkpt>
      <trkpt lat="44.25378" lon="6.59664">
        <ele>1555.359375</ele>
      </trkpt>
      <trkpt lat="44.25387" lon="6.59647">
        <ele>1556.5546875</ele>
      </trkpt>
      <trkpt lat="44.25408" lon="6.59617">
        <ele>1556.16796875</ele>
      </trkpt>
      <trkpt lat="44.25415" lon="6.59611">
        <ele>1557.3671875</ele>
      </trkpt>
      <trkpt lat="44.25423" lon="6.59607">
        <ele>1559.359375</ele>
      </trkpt>
      <trkpt lat="44.25437" lon="6.59602">
        <ele>1564.45703125</ele>
      </trkpt>
      <trkpt lat="44.25446" lon="6.59597">
        <ele>1566.91796875</ele>
      </trkpt>
      <trkpt lat="44.25452" lon="6.59594">
        <ele>1568.09375</ele>
      </trkpt>
      <trkpt lat="44.2546" lon="6.59585">
        <ele>1568.41796875</ele>
      </trkpt>
      <trkpt lat="44.25467" lon="6.59575">
        <ele>1566.703125</ele>
      </trkpt>
      <trkpt lat="44.25475" lon="6.59564">
        <ele>1566.24609375</ele>
      </trkpt>
      <trkpt lat="44.2548" lon="6.59559">
        <ele>1566.64453125</ele>
      </trkpt>
      <trkpt lat="44.25484" lon="6.59555">
        <ele>1567.08984375</ele>
      </trkpt>
      <trkpt lat="44.25489" lon="6.59551">
        <ele>1568.171875</ele>
      </trkpt>
      <trkpt lat="44.25495" lon="6.59544">
        <ele>1568.4140625</ele>
      </trkpt>
      <trkpt lat="44.25497" lon="6.59539">
        <ele>1567.6015625</ele>
      </trkpt>
      <trkpt lat="44.25521" lon="6.59491">
        <ele>1564.81640625</ele>
      </trkpt>
      <trkpt lat="44.25525" lon="6.59485">
        <ele>1564.86328125</ele>
      </trkpt>
      <trkpt lat="44.25534" lon="6.59467">
        <ele>1564.45703125</ele>
      </trkpt>
      <trkpt lat="44.25539" lon="6.59461">
        <ele>1564.7890625</ele>
      </trkpt>
      <trkpt lat="44.25548" lon="6.59448">
        <ele>1566.00390625</ele>
      </trkpt>
      <trkpt lat="44.25557" lon="6.5944">
        <ele>1568.33203125</ele>
      </trkpt>
      <trkpt lat="44.25562" lon="6.59435">
        <ele>1569.5390625</ele>
      </trkpt>
      <trkpt lat="44.25564" lon="6.59432">
        <ele>1569.65625</ele>
      </trkpt>
      <trkpt lat="44.25571" lon="6.59423">
        <ele>1570.22265625</ele>
      </trkpt>
      <trkpt lat="44.25577" lon="6.59415">
        <ele>1570.7109375</ele>
      </trkpt>
      <trkpt lat="44.25583" lon="6.59406">
        <ele>1570.5703125</ele>
      </trkpt>
      <trkpt lat="44.25587" lon="6.59397">
        <ele>1569.8515625</ele>
      </trkpt>
      <trkpt lat="44.25591" lon="6.59389">
        <ele>1569.08203125</ele>
      </trkpt>
      <trkpt lat="44.25602" lon="6.59374">
        <ele>1569.41015625</ele>
      </trkpt>
      <trkpt lat="44.25608" lon="6.59366">
        <ele>1570.25</ele>
      </trkpt>
      <trkpt lat="44.25615" lon="6.5936">
        <ele>1571.43359375</ele>
      </trkpt>
      <trkpt lat="44.25621" lon="6.59352">
        <ele>1572.2109375</ele>
      </trkpt>
      <trkpt lat="44.25633" lon="6.59335">
        <ele>1572.3359375</ele>
      </trkpt>
      <trkpt lat="44.25638" lon="6.59327">
        <ele>1572.0546875</ele>
      </trkpt>
      <trkpt lat="44.25641" lon="6.59323">
        <ele>1572.015625</ele>
      </trkpt>
      <trkpt lat="44.25643" lon="6.59318">
        <ele>1571.4296875</ele>
      </trkpt>
      <trkpt lat="44.25645" lon="6.59315">
        <ele>1571.6796875</ele>
      </trkpt>
      <trkpt lat="44.25646" lon="6.59311">
        <ele>1571.08203125</ele>
      </trkpt>
      <trkpt lat="44.25648" lon="6.59303">
        <ele>1570.17578125</ele>
      </trkpt>
      <trkpt lat="44.2565" lon="6.59298">
        <ele>1569.84375</ele>
      </trkpt>
      <trkpt lat="44.25655" lon="6.59287">
        <ele>1569.1875</ele>
      </trkpt>
      <trkpt lat="44.25663" lon="6.59274">
        <ele>1570.19140625</ele>
      </trkpt>
      <trkpt lat="44.25673" lon="6.59256">
        <ele>1570.6484375</ele>
      </trkpt>
      <trkpt lat="44.25677" lon="6.59246">
        <ele>1570.55859375</ele>
      </trkpt>
      <trkpt lat="44.25686" lon="6.59227">
        <ele>1570.140625</ele>
      </trkpt>
      <trkpt lat="44.25692" lon="6.59214">
        <ele>1570.0234375</ele>
      </trkpt>
      <trkpt lat="44.25695" lon="6.59208">
        <ele>1569.9609375</ele>
      </trkpt>
      <trkpt lat="44.25704" lon="6.59197">
        <ele>1571.4296875</ele>
      </trkpt>
      <trkpt lat="44.25721" lon="6.59179">
        <ele>1575.1796875</ele>
      </trkpt>
      <trkpt lat="44.25726" lon="6.59172">
        <ele>1576.1640625</ele>
      </trkpt>
      <trkpt lat="44.25732" lon="6.59165">
        <ele>1576.87890625</ele>
      </trkpt>
      <trkpt lat="44.25743" lon="6.59149">
        <ele>1577.953125</ele>
      </trkpt>
      <trkpt lat="44.25771" lon="6.59107">
        <ele>1580.7890625</ele>
      </trkpt>
      <trkpt lat="44.25803" lon="6.59058">
        <ele>1582.8203125</ele>
      </trkpt>
      <trkpt lat="44.25813" lon="6.59041">
        <ele>1583.6875</ele>
      </trkpt>
      <trkpt lat="44.25822" lon="6.59023">
        <ele>1584.40234375</ele>
      </trkpt>
      <trkpt lat="44.25825" lon="6.59013">
        <ele>1584.109375</ele>
      </trkpt>
      <trkpt lat="44.2583" lon="6.58993">
        <ele>1582.77734375</ele>
      </trkpt>
      <trkpt lat="44.25838" lon="6.58954">
        <ele>1581.2109375</ele>
      </trkpt>
      <trkpt lat="44.25842" lon="6.58942">
        <ele>1581.9140625</ele>
      </trkpt>
      <trkpt lat="44.25847" lon="6.58929">
        <ele>1582.44921875</ele>
      </trkpt>
      <trkpt lat="44.25851" lon="6.58916">
        <ele>1582.03515625</ele>
      </trkpt>
      <trkpt lat="44.25856" lon="6.58904">
        <ele>1582.140625</ele>
      </trkpt>
      <trkpt lat="44.25859" lon="6.58899">
        <ele>1582.3203125</ele>
      </trkpt>
      <trkpt lat="44.25864" lon="6.58894">
        <ele>1582.1328125</ele>
      </trkpt>
      <trkpt lat="44.25869" lon="6.58888">
        <ele>1581.54296875</ele>
      </trkpt>
      <trkpt lat="44.25874" lon="6.58884">
        <ele>1581.3984375</ele>
      </trkpt>
      <trkpt lat="44.2588" lon="6.58879">
        <ele>1581.18359375</ele>
      </trkpt>
      <trkpt lat="44.25886" lon="6.58876">
        <ele>1581.36328125</ele>
      </trkpt>
      <trkpt lat="44.25893" lon="6.58874">
        <ele>1581.82421875</ele>
      </trkpt>
      <trkpt lat="44.25898" lon="6.58872">
        <ele>1582.07421875</ele>
      </trkpt>
      <trkpt lat="44.25916" lon="6.58869">
        <ele>1583.83984375</ele>
      </trkpt>
      <trkpt lat="44.25935" lon="6.58864">
        <ele>1584.98046875</ele>
      </trkpt>
      <trkpt lat="44.25942" lon="6.58862">
        <ele>1585.53515625</ele>
      </trkpt>
      <trkpt lat="44.25946" lon="6.5886">
        <ele>1585.7265625</ele>
      </trkpt>
      <trkpt lat="44.25957" lon="6.58855">
        <ele>1586.49609375</ele>
      </trkpt>
      <trkpt lat="44.25967" lon="6.58845">
        <ele>1586.95703125</ele>
      </trkpt>
      <trkpt lat="44.25974" lon="6.58834">
        <ele>1589.0234375</ele>
      </trkpt>
      <trkpt lat="44.25982" lon="6.58821">
        <ele>1592.484375</ele>
      </trkpt>
      <trkpt lat="44.25985" lon="6.58812">
        <ele>1594.140625</ele>
      </trkpt>
      <trkpt lat="44.25987" lon="6.58801">
        <ele>1595.10546875</ele>
      </trkpt>
      <trkpt lat="44.25994" lon="6.58768">
        <ele>1597.96484375</ele>
      </trkpt>
      <trkpt lat="44.26" lon="6.58734">
        <ele>1597.65625</ele>
      </trkpt>
      <trkpt lat="44.26008" lon="6.58717">
        <ele>1599.421875</ele>
      </trkpt>
      <trkpt lat="44.26017" lon="6.58701">
        <ele>1601.1484375</ele>
      </trkpt>
      <trkpt lat="44.26029" lon="6.58688">
        <ele>1603.2265625</ele>
      </trkpt>
      <trkpt lat="44.26042" lon="6.58677">
        <ele>1604.78125</ele>
      </trkpt>
      <trkpt lat="44.26055" lon="6.58668">
        <ele>1606.9921875</ele>
      </trkpt>
      <trkpt lat="44.26062" lon="6.58661">
        <ele>1607.66796875</ele>
      </trkpt>
      <trkpt lat="44.2607" lon="6.58655">
        <ele>1608.21875</ele>
      </trkpt>
      <trkpt lat="44.26076" lon="6.58649">
        <ele>1608.6640625</ele>
      </trkpt>
      <trkpt lat="44.26084" lon="6.58641">
        <ele>1609.3359375</ele>
      </trkpt>
      <trkpt lat="44.26089" lon="6.58633">
        <ele>1609.046875</ele>
      </trkpt>
      <trkpt lat="44.26095" lon="6.58623">
        <ele>1608.7734375</ele>
      </trkpt>
      <trkpt lat="44.26101" lon="6.58614">
        <ele>1608.2890625</ele>
      </trkpt>
      <trkpt lat="44.26111" lon="6.58595">
        <ele>1606.3359375</ele>
      </trkpt>
      <trkpt lat="44.2612" lon="6.5858">
        <ele>1606.3359375</ele>
      </trkpt>
      <trkpt lat="44.26126" lon="6.58572">
        <ele>1606.30078125</ele>
      </trkpt>
      <trkpt lat="44.26148" lon="6.58553">
        <ele>1608.359375</ele>
      </trkpt>
      <trkpt lat="44.26171" lon="6.58535">
        <ele>1610.5078125</ele>
      </trkpt>
      <trkpt lat="44.26197" lon="6.58512">
        <ele>1613.078125</ele>
      </trkpt>
      <trkpt lat="44.26226" lon="6.58494">
        <ele>1617.4921875</ele>
      </trkpt>
      <trkpt lat="44.26254" lon="6.58473">
        <ele>1620.76953125</ele>
      </trkpt>
      <trkpt lat="44.26282" lon="6.5844">
        <ele>1621.29296875</ele>
      </trkpt>
      <trkpt lat="44.26309" lon="6.58408">
        <ele>1623.7734375</ele>
      </trkpt>
      <trkpt lat="44.26322" lon="6.58393">
        <ele>1625.46484375</ele>
      </trkpt>
      <trkpt lat="44.26324" lon="6.58389">
        <ele>1625.65234375</ele>
      </trkpt>
      <trkpt lat="44.26325" lon="6.58384">
        <ele>1625.49609375</ele>
      </trkpt>
      <trkpt lat="44.26326" lon="6.58378">
        <ele>1625.359375</ele>
      </trkpt>
      <trkpt lat="44.26327" lon="6.58373">
        <ele>1625.4453125</ele>
      </trkpt>
      <trkpt lat="44.26327" lon="6.58368">
        <ele>1625.3359375</ele>
      </trkpt>
      <trkpt lat="44.26326" lon="6.58362">
        <ele>1624.92578125</ele>
      </trkpt>
      <trkpt lat="44.26316" lon="6.58329">
        <ele>1621.3203125</ele>
      </trkpt>
      <trkpt lat="44.26315" lon="6.58324">
        <ele>1620.84375</ele>
      </trkpt>
      <trkpt lat="44.26315" lon="6.58318">
        <ele>1620.34765625</ele>
      </trkpt>
      <trkpt lat="44.26315" lon="6.58313">
        <ele>1619.5625</ele>
      </trkpt>
      <trkpt lat="44.26316" lon="6.58307">
        <ele>1619.125</ele>
      </trkpt>
      <trkpt lat="44.26319" lon="6.58302">
        <ele>1619.0625</ele>
      </trkpt>
      <trkpt lat="44.26321" lon="6.58297">
        <ele>1619.0234375</ele>
      </trkpt>
      <trkpt lat="44.26324" lon="6.58292">
        <ele>1619.53125</ele>
      </trkpt>
      <trkpt lat="44.26328" lon="6.58288">
        <ele>1620.453125</ele>
      </trkpt>
      <trkpt lat="44.26334" lon="6.58284">
        <ele>1621.796875</ele>
      </trkpt>
      <trkpt lat="44.26339" lon="6.58281">
        <ele>1623.328125</ele>
      </trkpt>
      <trkpt lat="44.26344" lon="6.58277">
        <ele>1624.90234375</ele>
      </trkpt>
      <trkpt lat="44.26354" lon="6.58274">
        <ele>1628.09765625</ele>
      </trkpt>
      <trkpt lat="44.2638" lon="6.58266">
        <ele>1634.7265625</ele>
      </trkpt>
      <trkpt lat="44.26404" lon="6.58258">
        <ele>1638.640625</ele>
      </trkpt>
      <trkpt lat="44.2643" lon="6.58251">
        <ele>1641.93359375</ele>
      </trkpt>
      <trkpt lat="44.26456" lon="6.58244">
        <ele>1645.14453125</ele>
      </trkpt>
      <trkpt lat="44.2646" lon="6.58244">
        <ele>1646.0546875</ele>
      </trkpt>
      <trkpt lat="44.26473" lon="6.58241">
        <ele>1647.6640625</ele>
      </trkpt>
      <trkpt lat="44.26487" lon="6.58237">
        <ele>1648.8984375</ele>
      </trkpt>
      <trkpt lat="44.265" lon="6.58231">
        <ele>1649.53515625</ele>
      </trkpt>
      <trkpt lat="44.26514" lon="6.58226">
        <ele>1650.328125</ele>
      </trkpt>
      <trkpt lat="44.26527" lon="6.58218">
        <ele>1650.16015625</ele>
      </trkpt>
      <trkpt lat="44.26542" lon="6.5821">
        <ele>1650.20703125</ele>
      </trkpt>
      <trkpt lat="44.26631" lon="6.58148">
        <ele>1650.140625</ele>
      </trkpt>
      <trkpt lat="44.2666" lon="6.58128">
        <ele>1651.47265625</ele>
      </trkpt>
      <trkpt lat="44.26688" lon="6.58108">
        <ele>1652.36328125</ele>
      </trkpt>
      <trkpt lat="44.26715" lon="6.58085">
        <ele>1651.8203125</ele>
      </trkpt>
      <trkpt lat="44.26727" lon="6.58078">
        <ele>1652.34375</ele>
      </trkpt>
      <trkpt lat="44.26739" lon="6.58074">
        <ele>1653.5234375</ele>
      </trkpt>
      <trkpt lat="44.26753" lon="6.58071">
        <ele>1655.70703125</ele>
      </trkpt>
      <trkpt lat="44.2676" lon="6.58071">
        <ele>1656.98046875</ele>
      </trkpt>
      <trkpt lat="44.26774" lon="6.58074">
        <ele>1660.32421875</ele>
      </trkpt>
      <trkpt lat="44.26781" lon="6.58074">
        <ele>1661.8125</ele>
      </trkpt>
      <trkpt lat="44.26789" lon="6.58072">
        <ele>1663.0078125</ele>
      </trkpt>
      <trkpt lat="44.26797" lon="6.58071">
        <ele>1664.421875</ele>
      </trkpt>
      <trkpt lat="44.26805" lon="6.58069">
        <ele>1665.3046875</ele>
      </trkpt>
      <trkpt lat="44.26812" lon="6.58066">
        <ele>1665.75</ele>
      </trkpt>
      <trkpt lat="44.26822" lon="6.58064">
        <ele>1666.7890625</ele>
      </trkpt>
      <trkpt lat="44.26839" lon="6.5806">
        <ele>1668.234375</ele>
      </trkpt>
      <trkpt lat="44.26855" lon="6.58057">
        <ele>1670.01953125</ele>
      </trkpt>
      <trkpt lat="44.26872" lon="6.58055">
        <ele>1671.50390625</ele>
      </trkpt>
      <trkpt lat="44.2693" lon="6.58052">
        <ele>1677.30078125</ele>
      </trkpt>
      <trkpt lat="44.2697" lon="6.58047">
        <ele>1679.58203125</ele>
      </trkpt>
      <trkpt lat="44.2699" lon="6.58044">
        <ele>1681.015625</ele>
      </trkpt>
      <trkpt lat="44.27074" lon="6.58025">
        <ele>1685.50390625</ele>
      </trkpt>
      <trkpt lat="44.27138" lon="6.58009">
        <ele>1688.484375</ele>
      </trkpt>
      <trkpt lat="44.27145" lon="6.58007">
        <ele>1688.9140625</ele>
      </trkpt>
      <trkpt lat="44.27157" lon="6.58001">
        <ele>1689.21875</ele>
      </trkpt>
      <trkpt lat="44.27162" lon="6.57996">
        <ele>1689.12890625</ele>
      </trkpt>
      <trkpt lat="44.27173" lon="6.57987">
        <ele>1688.94921875</ele>
      </trkpt>
      <trkpt lat="44.27178" lon="6.5798">
        <ele>1688.4921875</ele>
      </trkpt>
      <trkpt lat="44.27196" lon="6.57953">
        <ele>1686.29296875</ele>
      </trkpt>
      <trkpt lat="44.27216" lon="6.57928">
        <ele>1683.984375</ele>
      </trkpt>
      <trkpt lat="44.27227" lon="6.57919">
        <ele>1683.8359375</ele>
      </trkpt>
      <trkpt lat="44.27234" lon="6.57916">
        <ele>1684.2265625</ele>
      </trkpt>
      <trkpt lat="44.27247" lon="6.5791">
        <ele>1685.3984375</ele>
      </trkpt>
      <trkpt lat="44.27253" lon="6.57909">
        <ele>1685.703125</ele>
      </trkpt>
      <trkpt lat="44.27267" lon="6.57908">
        <ele>1686.62890625</ele>
      </trkpt>
      <trkpt lat="44.27275" lon="6.57909">
        <ele>1687.50390625</ele>
      </trkpt>
      <trkpt lat="44.27282" lon="6.57912">
        <ele>1688.578125</ele>
      </trkpt>
      <trkpt lat="44.27289" lon="6.57914">
        <ele>1689.5234375</ele>
      </trkpt>
      <trkpt lat="44.27296" lon="6.57918">
        <ele>1690.921875</ele>
      </trkpt>
      <trkpt lat="44.27302" lon="6.57922">
        <ele>1692.1640625</ele>
      </trkpt>
      <trkpt lat="44.27309" lon="6.57929">
        <ele>1693.07421875</ele>
      </trkpt>
      <trkpt lat="44.27326" lon="6.57946">
        <ele>1695.734375</ele>
      </trkpt>
      <trkpt lat="44.2734" lon="6.57957">
        <ele>1697.73828125</ele>
      </trkpt>
      <trkpt lat="44.27348" lon="6.57961">
        <ele>1698.6484375</ele>
      </trkpt>
      <trkpt lat="44.27354" lon="6.57965">
        <ele>1699.63671875</ele>
      </trkpt>
      <trkpt lat="44.27359" lon="6.57967">
        <ele>1700.3046875</ele>
      </trkpt>
      <trkpt lat="44.27367" lon="6.57968">
        <ele>1701.36328125</ele>
      </trkpt>
      <trkpt lat="44.27374" lon="6.57969">
        <ele>1702.43359375</ele>
      </trkpt>
      <trkpt lat="44.27385" lon="6.57969">
        <ele>1703.59375</ele>
      </trkpt>
      <trkpt lat="44.2739" lon="6.57969">
        <ele>1704.171875</ele>
      </trkpt>
      <trkpt lat="44.27409" lon="6.57965">
        <ele>1704.9296875</ele>
      </trkpt>
      <trkpt lat="44.27422" lon="6.57962">
        <ele>1706.453125</ele>
      </trkpt>
      <trkpt lat="44.27436" lon="6.57957">
        <ele>1708.33203125</ele>
      </trkpt>
      <trkpt lat="44.27448" lon="6.57951">
        <ele>1709.9921875</ele>
      </trkpt>
      <trkpt lat="44.27456" lon="6.57944">
        <ele>1709.77734375</ele>
      </trkpt>
      <trkpt lat="44.27471" lon="6.57927">
        <ele>1708.24609375</ele>
      </trkpt>
      <trkpt lat="44.27477" lon="6.57918">
        <ele>1706.203125</ele>
      </trkpt>
      <trkpt lat="44.27495" lon="6.57891">
        <ele>1699.1953125</ele>
      </trkpt>
      <trkpt lat="44.275" lon="6.57886">
        <ele>1698.0078125</ele>
      </trkpt>
      <trkpt lat="44.27504" lon="6.5788">
        <ele>1696.6640625</ele>
      </trkpt>
      <trkpt lat="44.2751" lon="6.57876">
        <ele>1695.81640625</ele>
      </trkpt>
      <trkpt lat="44.27515" lon="6.57873">
        <ele>1695.33203125</ele>
      </trkpt>
      <trkpt lat="44.2752" lon="6.5787">
        <ele>1694.8515625</ele>
      </trkpt>
      <trkpt lat="44.27527" lon="6.57868">
        <ele>1694.41796875</ele>
      </trkpt>
      <trkpt lat="44.27532" lon="6.57866">
        <ele>1693.56640625</ele>
      </trkpt>
      <trkpt lat="44.27542" lon="6.57866">
        <ele>1692.70703125</ele>
      </trkpt>
      <trkpt lat="44.27551" lon="6.57869">
        <ele>1692.41796875</ele>
      </trkpt>
      <trkpt lat="44.27556" lon="6.57871">
        <ele>1692.5390625</ele>
      </trkpt>
      <trkpt lat="44.27564" lon="6.57876">
        <ele>1692.8203125</ele>
      </trkpt>
      <trkpt lat="44.27605" lon="6.5791">
        <ele>1698.34375</ele>
      </trkpt>
      <trkpt lat="44.27608" lon="6.57913">
        <ele>1698.328125</ele>
      </trkpt>
      <trkpt lat="44.27613" lon="6.57915">
        <ele>1698.0859375</ele>
      </trkpt>
      <trkpt lat="44.27616" lon="6.57917">
        <ele>1697.9453125</ele>
      </trkpt>
      <trkpt lat="44.2762" lon="6.57917">
        <ele>1697.22265625</ele>
      </trkpt>
      <trkpt lat="44.27624" lon="6.57917">
        <ele>1696.49609375</ele>
      </trkpt>
      <trkpt lat="44.27629" lon="6.57915">
        <ele>1695.51953125</ele>
      </trkpt>
      <trkpt lat="44.27632" lon="6.57913">
        <ele>1694.77734375</ele>
      </trkpt>
      <trkpt lat="44.27635" lon="6.57908">
        <ele>1693.8984375</ele>
      </trkpt>
      <trkpt lat="44.2764" lon="6.579">
        <ele>1694.4453125</ele>
      </trkpt>
      <trkpt lat="44.27643" lon="6.57894">
        <ele>1694.578125</ele>
      </trkpt>
      <trkpt lat="44.27646" lon="6.57884">
        <ele>1694.54296875</ele>
      </trkpt>
      <trkpt lat="44.27647" lon="6.57875">
        <ele>1694.2109375</ele>
      </trkpt>
      <trkpt lat="44.27649" lon="6.57871">
        <ele>1694.73046875</ele>
      </trkpt>
      <trkpt lat="44.27653" lon="6.57863">
        <ele>1695.70703125</ele>
      </trkpt>
      <trkpt lat="44.27659" lon="6.57858">
        <ele>1696.93359375</ele>
      </trkpt>
      <trkpt lat="44.27666" lon="6.57854">
        <ele>1698.65625</ele>
      </trkpt>
      <trkpt lat="44.2767" lon="6.57851">
        <ele>1699.60546875</ele>
      </trkpt>
      <trkpt lat="44.27679" lon="6.5785">
        <ele>1701.65234375</ele>
      </trkpt>
      <trkpt lat="44.27708" lon="6.57847">
        <ele>1709.00390625</ele>
      </trkpt>
      <trkpt lat="44.27714" lon="6.57845">
        <ele>1710.546875</ele>
      </trkpt>
      <trkpt lat="44.27718" lon="6.57844">
        <ele>1711.30859375</ele>
      </trkpt>
      <trkpt lat="44.27721" lon="6.57843">
        <ele>1712.0625</ele>
      </trkpt>
      <trkpt lat="44.27727" lon="6.57839">
        <ele>1713.28125</ele>
      </trkpt>
      <trkpt lat="44.27733" lon="6.57834">
        <ele>1714.1640625</ele>
      </trkpt>
      <trkpt lat="44.27748" lon="6.57817">
        <ele>1715.6875</ele>
      </trkpt>
      <trkpt lat="44.27755" lon="6.5781">
        <ele>1716.73828125</ele>
      </trkpt>
      <trkpt lat="44.27771" lon="6.57795">
        <ele>1719.03125</ele>
      </trkpt>
      <trkpt lat="44.2778" lon="6.57788">
        <ele>1720.43359375</ele>
      </trkpt>
      <trkpt lat="44.27786" lon="6.57783">
        <ele>1721.37890625</ele>
      </trkpt>
      <trkpt lat="44.27791" lon="6.57779">
        <ele>1721.87890625</ele>
      </trkpt>
      <trkpt lat="44.27796" lon="6.57772">
        <ele>1722.3203125</ele>
      </trkpt>
      <trkpt lat="44.27799" lon="6.57766">
        <ele>1722.16796875</ele>
      </trkpt>
      <trkpt lat="44.27804" lon="6.57756">
        <ele>1722.296875</ele>
      </trkpt>
      <trkpt lat="44.27816" lon="6.57726">
        <ele>1724.33203125</ele>
      </trkpt>
      <trkpt lat="44.27823" lon="6.57714">
        <ele>1726.04296875</ele>
      </trkpt>
      <trkpt lat="44.27837" lon="6.57691">
        <ele>1729.34375</ele>
      </trkpt>
      <trkpt lat="44.2793" lon="6.57552">
        <ele>1740.98828125</ele>
      </trkpt>
      <trkpt lat="44.27938" lon="6.57542">
        <ele>1741.31640625</ele>
      </trkpt>
      <trkpt lat="44.27945" lon="6.57533">
        <ele>1741.6171875</ele>
      </trkpt>
      <trkpt lat="44.27954" lon="6.57524">
        <ele>1742.43359375</ele>
      </trkpt>
      <trkpt lat="44.27962" lon="6.57517">
        <ele>1743.3828125</ele>
      </trkpt>
      <trkpt lat="44.27978" lon="6.57505">
        <ele>1744.62890625</ele>
      </trkpt>
      <trkpt lat="44.27985" lon="6.575">
        <ele>1744.625</ele>
      </trkpt>
      <trkpt lat="44.2799" lon="6.57494">
        <ele>1744.30078125</ele>
      </trkpt>
      <trkpt lat="44.27997" lon="6.57487">
        <ele>1743.5546875</ele>
      </trkpt>
      <trkpt lat="44.28001" lon="6.5748">
        <ele>1742.71484375</ele>
      </trkpt>
      <trkpt lat="44.28006" lon="6.57472">
        <ele>1741.47265625</ele>
      </trkpt>
      <trkpt lat="44.28022" lon="6.57454">
        <ele>1740.19921875</ele>
      </trkpt>
      <trkpt lat="44.2804" lon="6.57438">
        <ele>1739.05859375</ele>
      </trkpt>
      <trkpt lat="44.28058" lon="6.57424">
        <ele>1738.8828125</ele>
      </trkpt>
      <trkpt lat="44.28087" lon="6.57415">
        <ele>1742.52734375</ele>
      </trkpt>
      <trkpt lat="44.28102" lon="6.57411">
        <ele>1744.34375</ele>
      </trkpt>
      <trkpt lat="44.28117" lon="6.57406">
        <ele>1746.16015625</ele>
      </trkpt>
      <trkpt lat="44.28147" lon="6.57398">
        <ele>1749.09375</ele>
      </trkpt>
      <trkpt lat="44.28155" lon="6.57397">
        <ele>1749.98828125</ele>
      </trkpt>
      <trkpt lat="44.28163" lon="6.57393">
        <ele>1750.18359375</ele>
      </trkpt>
      <trkpt lat="44.2819" lon="6.57382">
        <ele>1750.9296875</ele>
      </trkpt>
      <trkpt lat="44.28223" lon="6.57368">
        <ele>1750.5078125</ele>
      </trkpt>
      <trkpt lat="44.28236" lon="6.5736">
        <ele>1750.09765625</ele>
      </trkpt>
      <trkpt lat="44.28248" lon="6.57354">
        <ele>1749.78125</ele>
      </trkpt>
      <trkpt lat="44.28266" lon="6.57346">
        <ele>1748.9453125</ele>
      </trkpt>
      <trkpt lat="44.28283" lon="6.57341">
        <ele>1748.52734375</ele>
      </trkpt>
      <trkpt lat="44.2829" lon="6.57338">
        <ele>1748.18359375</ele>
      </trkpt>
      <trkpt lat="44.28295" lon="6.57336">
        <ele>1748.171875</ele>
      </trkpt>
      <trkpt lat="44.28307" lon="6.57334">
        <ele>1748.0625</ele>
      </trkpt>
      <trkpt lat="44.28319" lon="6.57334">
        <ele>1748.11328125</ele>
      </trkpt>
      <trkpt lat="44.28372" lon="6.57338">
        <ele>1749.421875</ele>
      </trkpt>
      <trkpt lat="44.2839" lon="6.57339">
        <ele>1750.28515625</ele>
      </trkpt>
      <trkpt lat="44.28396" lon="6.57341">
        <ele>1750.79296875</ele>
      </trkpt>
      <trkpt lat="44.284" lon="6.57343">
        <ele>1751.2421875</ele>
      </trkpt>
      <trkpt lat="44.28405" lon="6.57347">
        <ele>1751.9921875</ele>
      </trkpt>
      <trkpt lat="44.2841" lon="6.5735">
        <ele>1752.53515625</ele>
      </trkpt>
      <trkpt lat="44.28414" lon="6.57356">
        <ele>1753.40234375</ele>
      </trkpt>
      <trkpt lat="44.28417" lon="6.57361">
        <ele>1754.4140625</ele>
      </trkpt>
      <trkpt lat="44.2842" lon="6.57368">
        <ele>1755.5703125</ele>
      </trkpt>
      <trkpt lat="44.28423" lon="6.57374">
        <ele>1756.62890625</ele>
      </trkpt>
      <trkpt lat="44.28425" lon="6.57382">
        <ele>1758.00390625</ele>
      </trkpt>
      <trkpt lat="44.28426" lon="6.57391">
        <ele>1759.76953125</ele>
      </trkpt>
      <trkpt lat="44.2843" lon="6.5742">
        <ele>1765.2890625</ele>
      </trkpt>
      <trkpt lat="44.28433" lon="6.57424">
        <ele>1766.48046875</ele>
      </trkpt>
      <trkpt lat="44.28437" lon="6.57428">
        <ele>1767.49609375</ele>
      </trkpt>
      <trkpt lat="44.28441" lon="6.57431">
        <ele>1768.6796875</ele>
      </trkpt>
      <trkpt lat="44.28444" lon="6.57433">
        <ele>1769.55078125</ele>
      </trkpt>
      <trkpt lat="44.28448" lon="6.57434">
        <ele>1770.44140625</ele>
      </trkpt>
      <trkpt lat="44.28453" lon="6.57435">
        <ele>1771.328125</ele>
      </trkpt>
      <trkpt lat="44.28457" lon="6.57435">
        <ele>1771.9453125</ele>
      </trkpt>
      <trkpt lat="44.28461" lon="6.57434">
        <ele>1772.29296875</ele>
      </trkpt>
      <trkpt lat="44.28465" lon="6.57432">
        <ele>1772.41796875</ele>
      </trkpt>
      <trkpt lat="44.28469" lon="6.5743">
        <ele>1772.4921875</ele>
      </trkpt>
      <trkpt lat="44.28473" lon="6.57427">
        <ele>1773.046875</ele>
      </trkpt>
      <trkpt lat="44.28476" lon="6.57422">
        <ele>1773.0390625</ele>
      </trkpt>
      <trkpt lat="44.28486" lon="6.57404">
        <ele>1771.52734375</ele>
      </trkpt>
      <trkpt lat="44.28491" lon="6.57397">
        <ele>1771.05859375</ele>
      </trkpt>
      <trkpt lat="44.28496" lon="6.57393">
        <ele>1771.26171875</ele>
      </trkpt>
      <trkpt lat="44.28499" lon="6.5739">
        <ele>1771.1875</ele>
      </trkpt>
      <trkpt lat="44.28506" lon="6.57387">
        <ele>1772</ele>
      </trkpt>
      <trkpt lat="44.2853" lon="6.57385">
        <ele>1777.02734375</ele>
      </trkpt>
      <trkpt lat="44.28536" lon="6.57382">
        <ele>1778.08203125</ele>
      </trkpt>
      <trkpt lat="44.28541" lon="6.57378">
        <ele>1778.42578125</ele>
      </trkpt>
      <trkpt lat="44.2856" lon="6.57358">
        <ele>1778.1328125</ele>
      </trkpt>
      <trkpt lat="44.28576" lon="6.57342">
        <ele>1777.0546875</ele>
      </trkpt>
      <trkpt lat="44.28591" lon="6.57331">
        <ele>1777.43359375</ele>
      </trkpt>
      <trkpt lat="44.286" lon="6.57327">
        <ele>1778.27734375</ele>
      </trkpt>
      <trkpt lat="44.28616" lon="6.57319">
        <ele>1780.10546875</ele>
      </trkpt>
      <trkpt lat="44.28623" lon="6.57316">
        <ele>1781.13671875</ele>
      </trkpt>
      <trkpt lat="44.28652" lon="6.57308">
        <ele>1784.4765625</ele>
      </trkpt>
      <trkpt lat="44.28659" lon="6.57306">
        <ele>1785.25</ele>
      </trkpt>
      <trkpt lat="44.28684" lon="6.57302">
        <ele>1788.17578125</ele>
      </trkpt>
      <trkpt lat="44.287" lon="6.57301">
        <ele>1790.3125</ele>
      </trkpt>
      <trkpt lat="44.28717" lon="6.573">
        <ele>1792.32421875</ele>
      </trkpt>
      <trkpt lat="44.28725" lon="6.57299">
        <ele>1793.20703125</ele>
      </trkpt>
      <trkpt lat="44.28735" lon="6.57297">
        <ele>1793.8515625</ele>
      </trkpt>
      <trkpt lat="44.28743" lon="6.57294">
        <ele>1793.9375</ele>
      </trkpt>
      <trkpt lat="44.28751" lon="6.57289">
        <ele>1793.3125</ele>
      </trkpt>
      <trkpt lat="44.2877" lon="6.57279">
        <ele>1791.85546875</ele>
      </trkpt>
      <trkpt lat="44.28794" lon="6.57266">
        <ele>1790.7421875</ele>
      </trkpt>
      <trkpt lat="44.28805" lon="6.57262">
        <ele>1791.375</ele>
      </trkpt>
      <trkpt lat="44.28808" lon="6.57262">
        <ele>1791.7265625</ele>
      </trkpt>
      <trkpt lat="44.28823" lon="6.57258">
        <ele>1792.31640625</ele>
      </trkpt>
      <trkpt lat="44.28851" lon="6.57248">
        <ele>1793.12109375</ele>
      </trkpt>
      <trkpt lat="44.28874" lon="6.57241">
        <ele>1793.921875</ele>
      </trkpt>
      <trkpt lat="44.28898" lon="6.57233">
        <ele>1794.875</ele>
      </trkpt>
      <trkpt lat="44.28921" lon="6.57227">
        <ele>1796.359375</ele>
      </trkpt>
      <trkpt lat="44.28924" lon="6.57232">
        <ele>1797.69140625</ele>
      </trkpt>
      <trkpt lat="44.28927" lon="6.57237">
        <ele>1798.9453125</ele>
      </trkpt>
      <trkpt lat="44.2893" lon="6.57238">
        <ele>1799.56640625</ele>
      </trkpt>
      <trkpt lat="44.28934" lon="6.57236">
        <ele>1799.6796875</ele>
      </trkpt>
      <trkpt lat="44.28939" lon="6.57238">
        <ele>1800.6484375</ele>
      </trkpt>
      <trkpt lat="44.28942" lon="6.57238">
        <ele>1801.0546875</ele>
      </trkpt>
      <trkpt lat="44.28946" lon="6.57237">
        <ele>1801.3828125</ele>
      </trkpt>
      <trkpt lat="44.28953" lon="6.5723">
        <ele>1800.91796875</ele>
      </trkpt>
      <trkpt lat="44.28958" lon="6.57225">
        <ele>1800.53125</ele>
      </trkpt>
      <trkpt lat="44.28962" lon="6.5722">
        <ele>1800.0078125</ele>
      </trkpt>
      <trkpt lat="44.28967" lon="6.57214">
        <ele>1799.48828125</ele>
      </trkpt>
      <trkpt lat="44.2897" lon="6.5721">
        <ele>1799.23046875</ele>
      </trkpt>
      <trkpt lat="44.28974" lon="6.57207">
        <ele>1799.6640625</ele>
      </trkpt>
      <trkpt lat="44.28978" lon="6.57203">
        <ele>1800.0625</ele>
      </trkpt>
      <trkpt lat="44.28983" lon="6.57202">
        <ele>1800.77734375</ele>
      </trkpt>
      <trkpt lat="44.28987" lon="6.572">
        <ele>1801.296875</ele>
      </trkpt>
      <trkpt lat="44.29027" lon="6.57194">
        <ele>1807.96875</ele>
      </trkpt>
      <trkpt lat="44.29036" lon="6.57189">
        <ele>1809.05859375</ele>
      </trkpt>
      <trkpt lat="44.29046" lon="6.57185">
        <ele>1810.12109375</ele>
      </trkpt>
      <trkpt lat="44.29056" lon="6.5718">
        <ele>1810.9140625</ele>
      </trkpt>
      <trkpt lat="44.29064" lon="6.57173">
        <ele>1811.20703125</ele>
      </trkpt>
      <trkpt lat="44.29073" lon="6.57167">
        <ele>1811.46484375</ele>
      </trkpt>
      <trkpt lat="44.29082" lon="6.57159">
        <ele>1811.765625</ele>
      </trkpt>
      <trkpt lat="44.2909" lon="6.57151">
        <ele>1811.83203125</ele>
      </trkpt>
      <trkpt lat="44.29098" lon="6.57141">
        <ele>1812.34765625</ele>
      </trkpt>
      <trkpt lat="44.29122" lon="6.57113">
        <ele>1813.84765625</ele>
      </trkpt>
      <trkpt lat="44.29145" lon="6.57084">
        <ele>1814.79296875</ele>
      </trkpt>
      <trkpt lat="44.29175" lon="6.57046">
        <ele>1813.7734375</ele>
      </trkpt>
      <trkpt lat="44.29194" lon="6.57021">
        <ele>1811.9140625</ele>
      </trkpt>
      <trkpt lat="44.29198" lon="6.57017">
        <ele>1811.59765625</ele>
      </trkpt>
      <trkpt lat="44.29203" lon="6.57012">
        <ele>1811.25390625</ele>
      </trkpt>
      <trkpt lat="44.29208" lon="6.57009">
        <ele>1811.2421875</ele>
      </trkpt>
      <trkpt lat="44.29213" lon="6.57007">
        <ele>1811.4375</ele>
      </trkpt>
      <trkpt lat="44.29219" lon="6.57006">
        <ele>1811.84765625</ele>
      </trkpt>
      <trkpt lat="44.29224" lon="6.57005">
        <ele>1812.25390625</ele>
      </trkpt>
      <trkpt lat="44.29229" lon="6.57006">
        <ele>1813.12890625</ele>
      </trkpt>
      <trkpt lat="44.29235" lon="6.57007">
        <ele>1814.01171875</ele>
      </trkpt>
      <trkpt lat="44.2924" lon="6.57008">
        <ele>1814.90234375</ele>
      </trkpt>
      <trkpt lat="44.29249" lon="6.57011">
        <ele>1816.80859375</ele>
      </trkpt>
      <trkpt lat="44.29258" lon="6.57011">
        <ele>1818.33984375</ele>
      </trkpt>
      <trkpt lat="44.29267" lon="6.5701">
        <ele>1819.4375</ele>
      </trkpt>
      <trkpt lat="44.29284" lon="6.57">
        <ele>1819.375</ele>
      </trkpt>
      <trkpt lat="44.29291" lon="6.56993">
        <ele>1818.65625</ele>
      </trkpt>
      <trkpt lat="44.29297" lon="6.56987">
        <ele>1818.015625</ele>
      </trkpt>
      <trkpt lat="44.29301" lon="6.56978">
        <ele>1816.92578125</ele>
      </trkpt>
      <trkpt lat="44.29311" lon="6.56958">
        <ele>1813.89453125</ele>
      </trkpt>
      <trkpt lat="44.29315" lon="6.56952">
        <ele>1813.1796875</ele>
      </trkpt>
      <trkpt lat="44.29322" lon="6.56949">
        <ele>1813.08203125</ele>
      </trkpt>
      <trkpt lat="44.29328" lon="6.56947">
        <ele>1813.1796875</ele>
      </trkpt>
      <trkpt lat="44.29331" lon="6.56947">
        <ele>1813.47265625</ele>
      </trkpt>
      <trkpt lat="44.29343" lon="6.5695">
        <ele>1815.34765625</ele>
      </trkpt>
      <trkpt lat="44.29353" lon="6.56951">
        <ele>1816.54296875</ele>
      </trkpt>
      <trkpt lat="44.29371" lon="6.56951">
        <ele>1818.2890625</ele>
      </trkpt>
      <trkpt lat="44.29389" lon="6.56948">
        <ele>1819.02734375</ele>
      </trkpt>
      <trkpt lat="44.29412" lon="6.56947">
        <ele>1820.72265625</ele>
      </trkpt>
      <trkpt lat="44.29443" lon="6.56945">
        <ele>1824.64453125</ele>
      </trkpt>
      <trkpt lat="44.29478" lon="6.56944">
        <ele>1829.5703125</ele>
      </trkpt>
      <trkpt lat="44.29487" lon="6.56944">
        <ele>1830.78125</ele>
      </trkpt>
      <trkpt lat="44.29504" lon="6.56943">
        <ele>1832.97265625</ele>
      </trkpt>
      <trkpt lat="44.29512" lon="6.56941">
        <ele>1833.61328125</ele>
      </trkpt>
      <trkpt lat="44.29547" lon="6.5693">
        <ele>1835.1953125</ele>
      </trkpt>
      <trkpt lat="44.29564" lon="6.56924">
        <ele>1835.73046875</ele>
      </trkpt>
      <trkpt lat="44.29568" lon="6.56924">
        <ele>1836.078125</ele>
      </trkpt>
      <trkpt lat="44.29574" lon="6.56924">
        <ele>1836.5078125</ele>
      </trkpt>
      <trkpt lat="44.29578" lon="6.56926">
        <ele>1836.98828125</ele>
      </trkpt>
      <trkpt lat="44.29583" lon="6.56927">
        <ele>1837.7109375</ele>
      </trkpt>
      <trkpt lat="44.29588" lon="6.5693">
        <ele>1838.578125</ele>
      </trkpt>
      <trkpt lat="44.29612" lon="6.56962">
        <ele>1844.23046875</ele>
      </trkpt>
      <trkpt lat="44.29616" lon="6.56965">
        <ele>1844.87109375</ele>
      </trkpt>
      <trkpt lat="44.29619" lon="6.56968">
        <ele>1845.5078125</ele>
      </trkpt>
      <trkpt lat="44.29623" lon="6.5697">
        <ele>1846.06640625</ele>
      </trkpt>
      <trkpt lat="44.29626" lon="6.56971">
        <ele>1846.51171875</ele>
      </trkpt>
      <trkpt lat="44.29631" lon="6.56971">
        <ele>1846.9765625</ele>
      </trkpt>
      <trkpt lat="44.29635" lon="6.5697">
        <ele>1847.390625</ele>
      </trkpt>
      <trkpt lat="44.29639" lon="6.56966">
        <ele>1847.953125</ele>
      </trkpt>
      <trkpt lat="44.29652" lon="6.56958">
        <ele>1849.73046875</ele>
      </trkpt>
      <trkpt lat="44.29668" lon="6.56944">
        <ele>1851.66015625</ele>
      </trkpt>
      <trkpt lat="44.29722" lon="6.56913">
        <ele>1858.12890625</ele>
      </trkpt>
      <trkpt lat="44.29739" lon="6.56904">
        <ele>1859.88671875</ele>
      </trkpt>
      <trkpt lat="44.29756" lon="6.56893">
        <ele>1861.3671875</ele>
      </trkpt>
      <trkpt lat="44.29772" lon="6.56882">
        <ele>1862.37109375</ele>
      </trkpt>
      <trkpt lat="44.29796" lon="6.56859">
        <ele>1862.93359375</ele>
      </trkpt>
      <trkpt lat="44.29814" lon="6.56842">
        <ele>1863.80078125</ele>
      </trkpt>
      <trkpt lat="44.29832" lon="6.56824">
        <ele>1864.32421875</ele>
      </trkpt>
      <trkpt lat="44.2984" lon="6.56817">
        <ele>1864.57421875</ele>
      </trkpt>
      <trkpt lat="44.29856" lon="6.56804">
        <ele>1865.05078125</ele>
      </trkpt>
      <trkpt lat="44.29865" lon="6.56799">
        <ele>1865.87890625</ele>
      </trkpt>
      <trkpt lat="44.29899" lon="6.56783">
        <ele>1869.734375</ele>
      </trkpt>
      <trkpt lat="44.29907" lon="6.56776">
        <ele>1870.1171875</ele>
      </trkpt>
      <trkpt lat="44.29912" lon="6.56772">
        <ele>1870.06640625</ele>
      </trkpt>
      <trkpt lat="44.29919" lon="6.56762">
        <ele>1870.17578125</ele>
      </trkpt>
      <trkpt lat="44.29922" lon="6.56757">
        <ele>1870.1171875</ele>
      </trkpt>
      <trkpt lat="44.29928" lon="6.56745">
        <ele>1869.5546875</ele>
      </trkpt>
      <trkpt lat="44.29934" lon="6.56726">
        <ele>1868.046875</ele>
      </trkpt>
      <trkpt lat="44.29936" lon="6.5672">
        <ele>1867.546875</ele>
      </trkpt>
      <trkpt lat="44.29944" lon="6.56715">
        <ele>1868.7421875</ele>
      </trkpt>
      <trkpt lat="44.29948" lon="6.56715">
        <ele>1869.82421875</ele>
      </trkpt>
      <trkpt lat="44.29954" lon="6.56718">
        <ele>1871.69921875</ele>
      </trkpt>
      <trkpt lat="44.29958" lon="6.56725">
        <ele>1873.828125</ele>
      </trkpt>
      <trkpt lat="44.29959" lon="6.56735">
        <ele>1875.66015625</ele>
      </trkpt>
      <trkpt lat="44.29954" lon="6.56773">
        <ele>1880.90234375</ele>
      </trkpt>
      <trkpt lat="44.29947" lon="6.56804">
        <ele>1885.78515625</ele>
      </trkpt>
      <trkpt lat="44.29944" lon="6.56816">
        <ele>1887.39453125</ele>
      </trkpt>
      <trkpt lat="44.29942" lon="6.56821">
        <ele>1887.93359375</ele>
      </trkpt>
      <trkpt lat="44.29937" lon="6.56832">
        <ele>1889.60546875</ele>
      </trkpt>
      <trkpt lat="44.29933" lon="6.56842">
        <ele>1890.91796875</ele>
      </trkpt>
      <trkpt lat="44.29922" lon="6.56863">
        <ele>1893.05859375</ele>
      </trkpt>
      <trkpt lat="44.29914" lon="6.56884">
        <ele>1895.4296875</ele>
      </trkpt>
      <trkpt lat="44.29906" lon="6.56894">
        <ele>1896.12109375</ele>
      </trkpt>
      <trkpt lat="44.29898" lon="6.56906">
        <ele>1896.64453125</ele>
      </trkpt>
      <trkpt lat="44.29884" lon="6.56922">
        <ele>1896.15625</ele>
      </trkpt>
      <trkpt lat="44.29872" lon="6.56946">
        <ele>1898.109375</ele>
      </trkpt>
      <trkpt lat="44.29869" lon="6.5695">
        <ele>1898.046875</ele>
      </trkpt>
      <trkpt lat="44.29862" lon="6.56955">
        <ele>1896.69921875</ele>
      </trkpt>
      <trkpt lat="44.29856" lon="6.5696">
        <ele>1895.59765625</ele>
      </trkpt>
      <trkpt lat="44.29852" lon="6.56967">
        <ele>1896.13671875</ele>
      </trkpt>
      <trkpt lat="44.29851" lon="6.56972">
        <ele>1896.84765625</ele>
      </trkpt>
      <trkpt lat="44.29846" lon="6.56982">
        <ele>1898.0390625</ele>
      </trkpt>
      <trkpt lat="44.29845" lon="6.5699">
        <ele>1899.515625</ele>
      </trkpt>
      <trkpt lat="44.29842" lon="6.57009">
        <ele>1903.703125</ele>
      </trkpt>
      <trkpt lat="44.29841" lon="6.57015">
        <ele>1904.78125</ele>
      </trkpt>
      <trkpt lat="44.29839" lon="6.57019">
        <ele>1905.15234375</ele>
      </trkpt>
      <trkpt lat="44.29833" lon="6.57032">
        <ele>1906.58203125</ele>
      </trkpt>
      <trkpt lat="44.2983" lon="6.57041">
        <ele>1907.87890625</ele>
      </trkpt>
      <trkpt lat="44.29827" lon="6.57051">
        <ele>1908.93359375</ele>
      </trkpt>
      <trkpt lat="44.29823" lon="6.57076">
        <ele>1912.89453125</ele>
      </trkpt>
      <trkpt lat="44.29817" lon="6.57092">
        <ele>1914.30859375</ele>
      </trkpt>
      <trkpt lat="44.29806" lon="6.57123">
        <ele>1915.27734375</ele>
      </trkpt>
      <trkpt lat="44.298" lon="6.57139">
        <ele>1915.80078125</ele>
      </trkpt>
      <trkpt lat="44.29782" lon="6.57207">
        <ele>1918.92578125</ele>
      </trkpt>
      <trkpt lat="44.2978" lon="6.57223">
        <ele>1920.30078125</ele>
      </trkpt>
      <trkpt lat="44.2978" lon="6.57227">
        <ele>1920.85546875</ele>
      </trkpt>
      <trkpt lat="44.29778" lon="6.57232">
        <ele>1920.85546875</ele>
      </trkpt>
      <trkpt lat="44.29771" lon="6.57241">
        <ele>1919.96484375</ele>
      </trkpt>
      <trkpt lat="44.29766" lon="6.57245">
        <ele>1918.8984375</ele>
      </trkpt>
      <trkpt lat="44.29741" lon="6.57252">
        <ele>1912.3203125</ele>
      </trkpt>
      <trkpt lat="44.29735" lon="6.57254">
        <ele>1910.65234375</ele>
      </trkpt>
      <trkpt lat="44.2973" lon="6.57258">
        <ele>1909.9453125</ele>
      </trkpt>
      <trkpt lat="44.29729" lon="6.57262">
        <ele>1910.234375</ele>
      </trkpt>
      <trkpt lat="44.29728" lon="6.57269">
        <ele>1910.74609375</ele>
      </trkpt>
      <trkpt lat="44.29734" lon="6.57273">
        <ele>1913.046875</ele>
      </trkpt>
      <trkpt lat="44.29737" lon="6.57274">
        <ele>1914.265625</ele>
      </trkpt>
      <trkpt lat="44.29741" lon="6.57274">
        <ele>1915.7109375</ele>
      </trkpt>
      <trkpt lat="44.29749" lon="6.57272">
        <ele>1917.78515625</ele>
      </trkpt>
      <trkpt lat="44.29771" lon="6.57265">
        <ele>1923.19921875</ele>
      </trkpt>
      <trkpt lat="44.29789" lon="6.57259">
        <ele>1927.84375</ele>
      </trkpt>
      <trkpt lat="44.29793" lon="6.57258">
        <ele>1928.66796875</ele>
      </trkpt>
      <trkpt lat="44.29796" lon="6.57259">
        <ele>1929.7421875</ele>
      </trkpt>
      <trkpt lat="44.29799" lon="6.57266">
        <ele>1931.3984375</ele>
      </trkpt>
      <trkpt lat="44.29799" lon="6.5727">
        <ele>1932.06640625</ele>
      </trkpt>
      <trkpt lat="44.29798" lon="6.57275">
        <ele>1932.62109375</ele>
      </trkpt>
      <trkpt lat="44.29796" lon="6.5728">
        <ele>1932.68359375</ele>
      </trkpt>
      <trkpt lat="44.29792" lon="6.57283">
        <ele>1931.94140625</ele>
      </trkpt>
      <trkpt lat="44.29781" lon="6.57287">
        <ele>1929.45703125</ele>
      </trkpt>
      <trkpt lat="44.29762" lon="6.57289">
        <ele>1924.08203125</ele>
      </trkpt>
      <trkpt lat="44.29753" lon="6.57291">
        <ele>1921.859375</ele>
      </trkpt>
      <trkpt lat="44.2975" lon="6.57294">
        <ele>1921.21875</ele>
      </trkpt>
      <trkpt lat="44.29747" lon="6.57299">
        <ele>1921.03515625</ele>
      </trkpt>
      <trkpt lat="44.29745" lon="6.57304">
        <ele>1921.48828125</ele>
      </trkpt>
      <trkpt lat="44.29745" lon="6.57309">
        <ele>1922.10546875</ele>
      </trkpt>
      <trkpt lat="44.29748" lon="6.57312">
        <ele>1923.21875</ele>
      </trkpt>
      <trkpt lat="44.29751" lon="6.57314">
        <ele>1924.5078125</ele>
      </trkpt>
      <trkpt lat="44.29756" lon="6.57314">
        <ele>1926.13671875</ele>
      </trkpt>
      <trkpt lat="44.29769" lon="6.57313">
        <ele>1929.8828125</ele>
      </trkpt>
      <trkpt lat="44.29787" lon="6.57313">
        <ele>1935.41796875</ele>
      </trkpt>
      <trkpt lat="44.298" lon="6.57309">
        <ele>1938.625</ele>
      </trkpt>
      <trkpt lat="44.29814" lon="6.57301">
        <ele>1942.88671875</ele>
      </trkpt>
      <trkpt lat="44.29818" lon="6.57298">
        <ele>1944.12890625</ele>
      </trkpt>
      <trkpt lat="44.29822" lon="6.57295">
        <ele>1944.96484375</ele>
      </trkpt>
      <trkpt lat="44.29825" lon="6.5729">
        <ele>1945.671875</ele>
      </trkpt>
      <trkpt lat="44.29826" lon="6.57285">
        <ele>1945.37109375</ele>
      </trkpt>
      <trkpt lat="44.29827" lon="6.5728">
        <ele>1945.08203125</ele>
      </trkpt>
      <trkpt lat="44.29828" lon="6.57262">
        <ele>1943.40234375</ele>
      </trkpt>
      <trkpt lat="44.2983" lon="6.57257">
        <ele>1943.91015625</ele>
      </trkpt>
      <trkpt lat="44.29834" lon="6.57255">
        <ele>1945.64453125</ele>
      </trkpt>
      <trkpt lat="44.29838" lon="6.57255">
        <ele>1947.0703125</ele>
      </trkpt>
      <trkpt lat="44.29841" lon="6.57268">
        <ele>1949.47265625</ele>
      </trkpt>
      <trkpt lat="44.2984" lon="6.5728">
        <ele>1950.4765625</ele>
      </trkpt>
      <trkpt lat="44.29834" lon="6.57294">
        <ele>1950.03515625</ele>
      </trkpt>
      <trkpt lat="44.2983" lon="6.57305">
        <ele>1949.87109375</ele>
      </trkpt>
      <trkpt lat="44.29821" lon="6.57332">
        <ele>1949.79296875</ele>
      </trkpt>
      <trkpt lat="44.29815" lon="6.57341">
        <ele>1948.8671875</ele>
      </trkpt>
      <trkpt lat="44.2981" lon="6.57346">
        <ele>1947.49609375</ele>
      </trkpt>
      <trkpt lat="44.29807" lon="6.57348">
        <ele>1946.52734375</ele>
      </trkpt>
      <trkpt lat="44.29793" lon="6.57354">
        <ele>1941.9609375</ele>
      </trkpt>
      <trkpt lat="44.29789" lon="6.57356">
        <ele>1941</ele>
      </trkpt>
      <trkpt lat="44.29787" lon="6.57359">
        <ele>1940.51953125</ele>
      </trkpt>
      <trkpt lat="44.29785" lon="6.57367">
        <ele>1940.421875</ele>
      </trkpt>
      <trkpt lat="44.29785" lon="6.57376">
        <ele>1941.34375</ele>
      </trkpt>
      <trkpt lat="44.29785" lon="6.57387">
        <ele>1941.3203125</ele>
      </trkpt>
      <trkpt lat="44.29787" lon="6.57398">
        <ele>1942.15625</ele>
      </trkpt>
      <trkpt lat="44.2979" lon="6.57407">
        <ele>1943.59765625</ele>
      </trkpt>
      <trkpt lat="44.29793" lon="6.57415">
        <ele>1944.625</ele>
      </trkpt>
      <trkpt lat="44.29795" lon="6.57419">
        <ele>1945.6953125</ele>
      </trkpt>
      <trkpt lat="44.298" lon="6.57424">
        <ele>1948.44140625</ele>
      </trkpt>
      <trkpt lat="44.29802" lon="6.57428">
        <ele>1949.52734375</ele>
      </trkpt>
      <trkpt lat="44.29806" lon="6.57435">
        <ele>1951.0546875</ele>
      </trkpt>
      <trkpt lat="44.29808" lon="6.57443">
        <ele>1951.82421875</ele>
      </trkpt>
      <trkpt lat="44.29809" lon="6.57447">
        <ele>1952.203125</ele>
      </trkpt>
      <trkpt lat="44.29809" lon="6.57452">
        <ele>1952.03515625</ele>
      </trkpt>
      <trkpt lat="44.29812" lon="6.57462">
        <ele>1953.3046875</ele>
      </trkpt>
      <trkpt lat="44.29813" lon="6.57466">
        <ele>1953.70703125</ele>
      </trkpt>
      <trkpt lat="44.29822" lon="6.57485">
        <ele>1957.5</ele>
      </trkpt>
      <trkpt lat="44.29823" lon="6.57489">
        <ele>1957.98046875</ele>
      </trkpt>
      <trkpt lat="44.29825" lon="6.57496">
        <ele>1959.41015625</ele>
      </trkpt>
      <trkpt lat="44.29825" lon="6.57502">
        <ele>1959.66015625</ele>
      </trkpt>
      <trkpt lat="44.29825" lon="6.57506">
        <ele>1959.859375</ele>
      </trkpt>
      <trkpt lat="44.29821" lon="6.57525">
        <ele>1958.640625</ele>
      </trkpt>
      <trkpt lat="44.29816" lon="6.57553">
        <ele>1958.35546875</ele>
      </trkpt>
      <trkpt lat="44.29813" lon="6.57581">
        <ele>1959.60546875</ele>
      </trkpt>
      <trkpt lat="44.29812" lon="6.57605">
        <ele>1961.3984375</ele>
      </trkpt>
      <trkpt lat="44.29811" lon="6.57613">
        <ele>1961.63671875</ele>
      </trkpt>
      <trkpt lat="44.29809" lon="6.57622">
        <ele>1961.41796875</ele>
      </trkpt>
      <trkpt lat="44.29802" lon="6.57641">
        <ele>1960.3359375</ele>
      </trkpt>
      <trkpt lat="44.298" lon="6.57652">
        <ele>1960.3984375</ele>
      </trkpt>
      <trkpt lat="44.29796" lon="6.57692">
        <ele>1960.16015625</ele>
      </trkpt>
      <trkpt lat="44.29796" lon="6.57697">
        <ele>1960.34375</ele>
      </trkpt>
      <trkpt lat="44.29798" lon="6.577">
        <ele>1961.02734375</ele>
      </trkpt>
      <trkpt lat="44.29802" lon="6.57703">
        <ele>1962.4296875</ele>
      </trkpt>
      <trkpt lat="44.29807" lon="6.57702">
        <ele>1964.1875</ele>
      </trkpt>
      <trkpt lat="44.29811" lon="6.57699">
        <ele>1965.91015625</ele>
      </trkpt>
      <trkpt lat="44.29812" lon="6.57693">
        <ele>1966.23828125</ele>
      </trkpt>
      <trkpt lat="44.29813" lon="6.57659">
        <ele>1966.08203125</ele>
      </trkpt>
      <trkpt lat="44.29814" lon="6.5765">
        <ele>1966.02734375</ele>
      </trkpt>
      <trkpt lat="44.29815" lon="6.57645">
        <ele>1966.12890625</ele>
      </trkpt>
      <trkpt lat="44.29816" lon="6.57641">
        <ele>1966.23828125</ele>
      </trkpt>
      <trkpt lat="44.29838" lon="6.57608">
        <ele>1973.11328125</ele>
      </trkpt>
      <trkpt lat="44.29842" lon="6.57598">
        <ele>1974.390625</ele>
      </trkpt>
      <trkpt lat="44.29846" lon="6.57589">
        <ele>1975.56640625</ele>
      </trkpt>
      <trkpt lat="44.29851" lon="6.57579">
        <ele>1976.796875</ele>
      </trkpt>
      <trkpt lat="44.29866" lon="6.57518">
        <ele>1980.08203125</ele>
      </trkpt>
      <trkpt lat="44.29868" lon="6.57504">
        <ele>1980.578125</ele>
      </trkpt>
      <trkpt lat="44.29869" lon="6.57493">
        <ele>1980.7109375</ele>
      </trkpt>
      <trkpt lat="44.2987" lon="6.57489">
        <ele>1981.0546875</ele>
      </trkpt>
      <trkpt lat="44.29869" lon="6.5747">
        <ele>1980.48046875</ele>
      </trkpt>
      <trkpt lat="44.29877" lon="6.57426">
        <ele>1983.390625</ele>
      </trkpt>
      <trkpt lat="44.29881" lon="6.57421">
        <ele>1984.39453125</ele>
      </trkpt>
      <trkpt lat="44.29885" lon="6.57419">
        <ele>1986.05859375</ele>
      </trkpt>
      <trkpt lat="44.29889" lon="6.57421">
        <ele>1988.10546875</ele>
      </trkpt>
      <trkpt lat="44.29892" lon="6.57427">
        <ele>1989.98046875</ele>
      </trkpt>
      <trkpt lat="44.29892" lon="6.57432">
        <ele>1990.46484375</ele>
      </trkpt>
      <trkpt lat="44.29886" lon="6.57454">
        <ele>1987.9609375</ele>
      </trkpt>
      <trkpt lat="44.29885" lon="6.57459">
        <ele>1987.53125</ele>
      </trkpt>
      <trkpt lat="44.29885" lon="6.57467">
        <ele>1987.609375</ele>
      </trkpt>
      <trkpt lat="44.29886" lon="6.57476">
        <ele>1988.16796875</ele>
      </trkpt>
      <trkpt lat="44.29887" lon="6.57481">
        <ele>1988.69921875</ele>
      </trkpt>
      <trkpt lat="44.29889" lon="6.57492">
        <ele>1989.828125</ele>
      </trkpt>
      <trkpt lat="44.29892" lon="6.57506">
        <ele>1991.61328125</ele>
      </trkpt>
      <trkpt lat="44.29898" lon="6.57533">
        <ele>1994.60546875</ele>
      </trkpt>
      <trkpt lat="44.29901" lon="6.5756">
        <ele>1997.15625</ele>
      </trkpt>
      <trkpt lat="44.29903" lon="6.57576">
        <ele>1998.9921875</ele>
      </trkpt>
      <trkpt lat="44.29904" lon="6.57609">
        <ele>2001.44921875</ele>
      </trkpt>
      <trkpt lat="44.29905" lon="6.57625">
        <ele>2003.0234375</ele>
      </trkpt>
      <trkpt lat="44.29905" lon="6.57641">
        <ele>2004.14453125</ele>
      </trkpt>
      <trkpt lat="44.29904" lon="6.57665">
        <ele>2004.96875</ele>
      </trkpt>
      <trkpt lat="44.29904" lon="6.57673">
        <ele>2005.2578125</ele>
      </trkpt>
      <trkpt lat="44.29906" lon="6.57688">
        <ele>2006.7109375</ele>
      </trkpt>
      <trkpt lat="44.29909" lon="6.57696">
        <ele>2007.92578125</ele>
      </trkpt>
      <trkpt lat="44.29912" lon="6.57708">
        <ele>2009.78125</ele>
      </trkpt>
      <trkpt lat="44.29914" lon="6.57715">
        <ele>2011.0859375</ele>
      </trkpt>
      <trkpt lat="44.29914" lon="6.57719">
        <ele>2011.2421875</ele>
      </trkpt>
      <trkpt lat="44.29913" lon="6.57728">
        <ele>2011.02734375</ele>
      </trkpt>
      <trkpt lat="44.29911" lon="6.57741">
        <ele>2010.484375</ele>
      </trkpt>
      <trkpt lat="44.29912" lon="6.57753">
        <ele>2011.40234375</ele>
      </trkpt>
      <trkpt lat="44.29914" lon="6.57769">
        <ele>2012.96875</ele>
      </trkpt>
      <trkpt lat="44.29916" lon="6.57786">
        <ele>2014.34375</ele>
      </trkpt>
      <trkpt lat="44.29916" lon="6.57802">
        <ele>2014.65625</ele>
      </trkpt>
      <trkpt lat="44.29915" lon="6.57817">
        <ele>2014.40625</ele>
      </trkpt>
      <trkpt lat="44.29916" lon="6.57833">
        <ele>2015.04296875</ele>
      </trkpt>
      <trkpt lat="44.29924" lon="6.57874">
        <ele>2019.01171875</ele>
      </trkpt>
      <trkpt lat="44.29925" lon="6.57888">
        <ele>2019.5390625</ele>
      </trkpt>
      <trkpt lat="44.29926" lon="6.57901">
        <ele>2020.0390625</ele>
      </trkpt>
      <trkpt lat="44.29926" lon="6.57915">
        <ele>2019.9765625</ele>
      </trkpt>
      <trkpt lat="44.29926" lon="6.57978">
        <ele>2018.2578125</ele>
      </trkpt>
      <trkpt lat="44.29928" lon="6.57983">
        <ele>2019.14453125</ele>
      </trkpt>
      <trkpt lat="44.29932" lon="6.57986">
        <ele>2021.23046875</ele>
      </trkpt>
      <trkpt lat="44.29936" lon="6.57986">
        <ele>2023.39453125</ele>
      </trkpt>
      <trkpt lat="44.29941" lon="6.57981">
        <ele>2025.71484375</ele>
      </trkpt>
      <trkpt lat="44.29942" lon="6.57975">
        <ele>2026.48828125</ele>
      </trkpt>
      <trkpt lat="44.29941" lon="6.57969">
        <ele>2026.140625</ele>
      </trkpt>
      <trkpt lat="44.29937" lon="6.57952">
        <ele>2025.13671875</ele>
      </trkpt>
      <trkpt lat="44.29936" lon="6.57946">
        <ele>2024.828125</ele>
      </trkpt>
      <trkpt lat="44.29936" lon="6.57938">
        <ele>2025.09765625</ele>
      </trkpt>
      <trkpt lat="44.29936" lon="6.57932">
        <ele>2025.3125</ele>
      </trkpt>
      <trkpt lat="44.29942" lon="6.57899">
        <ele>2028.33984375</ele>
      </trkpt>
      <trkpt lat="44.29944" lon="6.57877">
        <ele>2029.66796875</ele>
      </trkpt>
      <trkpt lat="44.29946" lon="6.57854">
        <ele>2030.53515625</ele>
      </trkpt>
      <trkpt lat="44.29951" lon="6.5783">
        <ele>2032.99609375</ele>
      </trkpt>
      <trkpt lat="44.29954" lon="6.57819">
        <ele>2033.8984375</ele>
      </trkpt>
      <trkpt lat="44.29957" lon="6.57811">
        <ele>2035.2421875</ele>
      </trkpt>
      <trkpt lat="44.29959" lon="6.57802">
        <ele>2036.03125</ele>
      </trkpt>
      <trkpt lat="44.29961" lon="6.57794">
        <ele>2036.80859375</ele>
      </trkpt>
      <trkpt lat="44.29962" lon="6.57784">
        <ele>2037.0078125</ele>
      </trkpt>
      <trkpt lat="44.29963" lon="6.57768">
        <ele>2036.9765625</ele>
      </trkpt>
      <trkpt lat="44.29965" lon="6.57755">
        <ele>2037.5625</ele>
      </trkpt>
      <trkpt lat="44.29972" lon="6.57738">
        <ele>2040.03515625</ele>
      </trkpt>
      <trkpt lat="44.2998" lon="6.57718">
        <ele>2043.515625</ele>
      </trkpt>
      <trkpt lat="44.29986" lon="6.577">
        <ele>2045.50390625</ele>
      </trkpt>
      <trkpt lat="44.29987" lon="6.57691">
        <ele>2045.67578125</ele>
      </trkpt>
      <trkpt lat="44.2999" lon="6.57671">
        <ele>2046.546875</ele>
      </trkpt>
      <trkpt lat="44.2999" lon="6.57644">
        <ele>2045.125</ele>
      </trkpt>
      <trkpt lat="44.29991" lon="6.57637">
        <ele>2045.046875</ele>
      </trkpt>
      <trkpt lat="44.29994" lon="6.57621">
        <ele>2045.29296875</ele>
      </trkpt>
      <trkpt lat="44.29996" lon="6.57612">
        <ele>2045.61328125</ele>
      </trkpt>
      <trkpt lat="44.30003" lon="6.57598">
        <ele>2047.453125</ele>
      </trkpt>
      <trkpt lat="44.30025" lon="6.5756">
        <ele>2053.08984375</ele>
      </trkpt>
      <trkpt lat="44.30029" lon="6.57556">
        <ele>2054.15625</ele>
      </trkpt>
      <trkpt lat="44.30033" lon="6.57555">
        <ele>2055.9921875</ele>
      </trkpt>
      <trkpt lat="44.30037" lon="6.57559">
        <ele>2058.3125</ele>
      </trkpt>
      <trkpt lat="44.30039" lon="6.57563">
        <ele>2059.7578125</ele>
      </trkpt>
      <trkpt lat="44.30039" lon="6.57569">
        <ele>2060.46875</ele>
      </trkpt>
      <trkpt lat="44.30037" lon="6.57575">
        <ele>2060.12109375</ele>
      </trkpt>
      <trkpt lat="44.3002" lon="6.57601">
        <ele>2055.80859375</ele>
      </trkpt>
      <trkpt lat="44.30017" lon="6.57608">
        <ele>2054.8671875</ele>
      </trkpt>
      <trkpt lat="44.30015" lon="6.57614">
        <ele>2054.41796875</ele>
      </trkpt>
      <trkpt lat="44.30013" lon="6.57621">
        <ele>2053.9609375</ele>
      </trkpt>
      <trkpt lat="44.30012" lon="6.57628">
        <ele>2054.09765625</ele>
      </trkpt>
      <trkpt lat="44.30012" lon="6.57636">
        <ele>2054.74609375</ele>
      </trkpt>
      <trkpt lat="44.30013" lon="6.57643">
        <ele>2055.9140625</ele>
      </trkpt>
      <trkpt lat="44.30018" lon="6.57691">
        <ele>2060.80859375</ele>
      </trkpt>
      <trkpt lat="44.3002" lon="6.5773">
        <ele>2062.94140625</ele>
      </trkpt>
      <trkpt lat="44.30023" lon="6.57768">
        <ele>2065.1484375</ele>
      </trkpt>
      <trkpt lat="44.30025" lon="6.57787">
        <ele>2066.45703125</ele>
      </trkpt>
      <trkpt lat="44.30032" lon="6.57868">
        <ele>2070.84375</ele>
      </trkpt>
      <trkpt lat="44.30037" lon="6.5793">
        <ele>2073.15625</ele>
      </trkpt>
      <trkpt lat="44.30039" lon="6.57943">
        <ele>2073.23046875</ele>
      </trkpt>
      <trkpt lat="44.30043" lon="6.57954">
        <ele>2073.6015625</ele>
      </trkpt>
      <trkpt lat="44.30046" lon="6.57966">
        <ele>2073.921875</ele>
      </trkpt>
      <trkpt lat="44.3005" lon="6.57978">
        <ele>2074.625</ele>
      </trkpt>
      <trkpt lat="44.30054" lon="6.5799">
        <ele>2075.01171875</ele>
      </trkpt>
      <trkpt lat="44.30059" lon="6.58001">
        <ele>2074.265625</ele>
      </trkpt>
      <trkpt lat="44.30064" lon="6.58011">
        <ele>2073.90625</ele>
      </trkpt>
      <trkpt lat="44.30071" lon="6.58021">
        <ele>2074.171875</ele>
      </trkpt>
      <trkpt lat="44.30083" lon="6.58041">
        <ele>2073.98828125</ele>
      </trkpt>
      <trkpt lat="44.30091" lon="6.58051">
        <ele>2073.5546875</ele>
      </trkpt>
      <trkpt lat="44.30106" lon="6.58069">
        <ele>2072.5</ele>
      </trkpt>
      <trkpt lat="44.30113" lon="6.58078">
        <ele>2072.0078125</ele>
      </trkpt>
      <trkpt lat="44.30131" lon="6.58093">
        <ele>2072.04296875</ele>
      </trkpt>
      <trkpt lat="44.30134" lon="6.58097">
        <ele>2071.53515625</ele>
      </trkpt>
      <trkpt lat="44.30138" lon="6.58101">
        <ele>2071.96484375</ele>
      </trkpt>
      <trkpt lat="44.30143" lon="6.58105">
        <ele>2073.23046875</ele>
      </trkpt>
      <trkpt lat="44.30148" lon="6.58107">
        <ele>2074.27734375</ele>
      </trkpt>
      <trkpt lat="44.30153" lon="6.58109">
        <ele>2075.63671875</ele>
      </trkpt>
      <trkpt lat="44.30164" lon="6.58112">
        <ele>2078.44140625</ele>
      </trkpt>
      <trkpt lat="44.3017" lon="6.58116">
        <ele>2079.79296875</ele>
      </trkpt>
      <trkpt lat="44.30174" lon="6.5812">
        <ele>2080.3125</ele>
      </trkpt>
      <trkpt lat="44.30176" lon="6.58124">
        <ele>2080.359375</ele>
      </trkpt>
      <trkpt lat="44.30179" lon="6.58129">
        <ele>2080.55859375</ele>
      </trkpt>
      <trkpt lat="44.30182" lon="6.58134">
        <ele>2080.8828125</ele>
      </trkpt>
      <trkpt lat="44.30184" lon="6.58138">
        <ele>2080.890625</ele>
      </trkpt>
      <trkpt lat="44.30191" lon="6.58144">
        <ele>2081.76953125</ele>
      </trkpt>
      <trkpt lat="44.30198" lon="6.58149">
        <ele>2083.21875</ele>
      </trkpt>
      <trkpt lat="44.30237" lon="6.58164">
        <ele>2093.7890625</ele>
      </trkpt>
      <trkpt lat="44.30263" lon="6.58172">
        <ele>2100.25390625</ele>
      </trkpt>
      <trkpt lat="44.30266" lon="6.58174">
        <ele>2101.12890625</ele>
      </trkpt>
      <trkpt lat="44.3027" lon="6.5818">
        <ele>2102.625</ele>
      </trkpt>
      <trkpt lat="44.30271" lon="6.58184">
        <ele>2103.37109375</ele>
      </trkpt>
      <trkpt lat="44.30272" lon="6.58188">
        <ele>2104.125</ele>
      </trkpt>
      <trkpt lat="44.30272" lon="6.58195">
        <ele>2104.93359375</ele>
      </trkpt>
      <trkpt lat="44.30271" lon="6.582">
        <ele>2105.3828125</ele>
      </trkpt>
      <trkpt lat="44.30269" lon="6.58204">
        <ele>2105.46484375</ele>
      </trkpt>
      <trkpt lat="44.30267" lon="6.58208">
        <ele>2105.40234375</ele>
      </trkpt>
      <trkpt lat="44.30263" lon="6.58212">
        <ele>2105.265625</ele>
      </trkpt>
      <trkpt lat="44.30253" lon="6.58215">
        <ele>2104.046875</ele>
      </trkpt>
      <trkpt lat="44.30244" lon="6.58217">
        <ele>2102.7734375</ele>
      </trkpt>
      <trkpt lat="44.30235" lon="6.58221">
        <ele>2101.44921875</ele>
      </trkpt>
      <trkpt lat="44.30227" lon="6.58226">
        <ele>2101.25390625</ele>
      </trkpt>
      <trkpt lat="44.30219" lon="6.58234">
        <ele>2101.796875</ele>
      </trkpt>
      <trkpt lat="44.30197" lon="6.5826">
        <ele>2104.87109375</ele>
      </trkpt>
      <trkpt lat="44.30194" lon="6.58265">
        <ele>2105.5234375</ele>
      </trkpt>
      <trkpt lat="44.30192" lon="6.5827">
        <ele>2106.59375</ele>
      </trkpt>
      <trkpt lat="44.3019" lon="6.58275">
        <ele>2107.609375</ele>
      </trkpt>
      <trkpt lat="44.30187" lon="6.58284">
        <ele>2109.52734375</ele>
      </trkpt>
      <trkpt lat="44.30185" lon="6.58291">
        <ele>2111.1796875</ele>
      </trkpt>
      <trkpt lat="44.30182" lon="6.58297">
        <ele>2112.0703125</ele>
      </trkpt>
      <trkpt lat="44.30179" lon="6.58299">
        <ele>2112.08984375</ele>
      </trkpt>
      <trkpt lat="44.30175" lon="6.58301">
        <ele>2111.93359375</ele>
      </trkpt>
      <trkpt lat="44.30171" lon="6.58301">
        <ele>2111.37109375</ele>
      </trkpt>
      <trkpt lat="44.30165" lon="6.58301">
        <ele>2110.2421875</ele>
      </trkpt>
      <trkpt lat="44.30158" lon="6.58303">
        <ele>2109.73828125</ele>
      </trkpt>
      <trkpt lat="44.30155" lon="6.58304">
        <ele>2109.4921875</ele>
      </trkpt>
      <trkpt lat="44.3015" lon="6.5831">
        <ele>2110.15234375</ele>
      </trkpt>
      <trkpt lat="44.30143" lon="6.5832">
        <ele>2112.28125</ele>
      </trkpt>
      <trkpt lat="44.3013" lon="6.58339">
        <ele>2113.9609375</ele>
      </trkpt>
      <trkpt lat="44.30123" lon="6.58348">
        <ele>2114.57421875</ele>
      </trkpt>
      <trkpt lat="44.30104" lon="6.58369">
        <ele>2114.0859375</ele>
      </trkpt>
      <trkpt lat="44.30101" lon="6.58373">
        <ele>2114.14453125</ele>
      </trkpt>
      <trkpt lat="44.30098" lon="6.58378">
        <ele>2114.63671875</ele>
      </trkpt>
      <trkpt lat="44.30096" lon="6.58384">
        <ele>2114.94921875</ele>
      </trkpt>
      <trkpt lat="44.30083" lon="6.5841">
        <ele>2115.38671875</ele>
      </trkpt>
      <trkpt lat="44.3008" lon="6.58419">
        <ele>2115.62890625</ele>
      </trkpt>
      <trkpt lat="44.30079" lon="6.58423">
        <ele>2115.90234375</ele>
      </trkpt>
      <trkpt lat="44.30079" lon="6.58429">
        <ele>2116.6796875</ele>
      </trkpt>
      <trkpt lat="44.3008" lon="6.58468">
        <ele>2121.484375</ele>
      </trkpt>
      <trkpt lat="44.30081" lon="6.58478">
        <ele>2122.9140625</ele>
      </trkpt>
      <trkpt lat="44.30088" lon="6.58494">
        <ele>2126.9609375</ele>
      </trkpt>
      <trkpt lat="44.30089" lon="6.58499">
        <ele>2127.90625</ele>
      </trkpt>
      <trkpt lat="44.3009" lon="6.58505">
        <ele>2128.8515625</ele>
      </trkpt>
      <trkpt lat="44.30091" lon="6.58509">
        <ele>2129.67578125</ele>
      </trkpt>
      <trkpt lat="44.30091" lon="6.58514">
        <ele>2130.234375</ele>
      </trkpt>
      <trkpt lat="44.30087" lon="6.58532">
        <ele>2130.5390625</ele>
      </trkpt>
      <trkpt lat="44.30086" lon="6.58536">
        <ele>2130.62109375</ele>
      </trkpt>
      <trkpt lat="44.30083" lon="6.5854">
        <ele>2130.33984375</ele>
      </trkpt>
      <trkpt lat="44.30081" lon="6.58545">
        <ele>2130.25390625</ele>
      </trkpt>
      <trkpt lat="44.30078" lon="6.58548">
        <ele>2130.015625</ele>
      </trkpt>
      <trkpt lat="44.30075" lon="6.5855">
        <ele>2129.7421875</ele>
      </trkpt>
      <trkpt lat="44.30067" lon="6.58553">
        <ele>2128.66015625</ele>
      </trkpt>
      <trkpt lat="44.30064" lon="6.58555">
        <ele>2128.390625</ele>
      </trkpt>
      <trkpt lat="44.30059" lon="6.58563">
        <ele>2128.93359375</ele>
      </trkpt>
      <trkpt lat="44.30057" lon="6.58566">
        <ele>2129.203125</ele>
      </trkpt>
      <trkpt lat="44.30053" lon="6.58576">
        <ele>2130.82421875</ele>
      </trkpt>
      <trkpt lat="44.30052" lon="6.58585">
        <ele>2132.9921875</ele>
      </trkpt>
      <trkpt lat="44.30053" lon="6.58594">
        <ele>2135.42578125</ele>
      </trkpt>
      <trkpt lat="44.30051" lon="6.586">
        <ele>2136.65234375</ele>
      </trkpt>
      <trkpt lat="44.30049" lon="6.58606">
        <ele>2137.9375</ele>
      </trkpt>
      <trkpt lat="44.30045" lon="6.58609">
        <ele>2137.92578125</ele>
      </trkpt>
      <trkpt lat="44.30036" lon="6.58613">
        <ele>2137.1328125</ele>
      </trkpt>
      <trkpt lat="44.30031" lon="6.58617">
        <ele>2137.14453125</ele>
      </trkpt>
      <trkpt lat="44.30021" lon="6.58633">
        <ele>2139.33203125</ele>
      </trkpt>
      <trkpt lat="44.30017" lon="6.5864">
        <ele>2140.28125</ele>
      </trkpt>
      <trkpt lat="44.3001" lon="6.58652">
        <ele>2141.71484375</ele>
      </trkpt>
      <trkpt lat="44.30004" lon="6.58665">
        <ele>2144.15625</ele>
      </trkpt>
      <trkpt lat="44.29998" lon="6.58683">
        <ele>2148.71875</ele>
      </trkpt>
      <trkpt lat="44.29994" lon="6.58689">
        <ele>2149.9296875</ele>
      </trkpt>
      <trkpt lat="44.2999" lon="6.58694">
        <ele>2149.89453125</ele>
      </trkpt>
      <trkpt lat="44.29986" lon="6.58696">
        <ele>2149.0390625</ele>
      </trkpt>
      <trkpt lat="44.29983" lon="6.58697">
        <ele>2148.1875</ele>
      </trkpt>
      <trkpt lat="44.29974" lon="6.58702">
        <ele>2146.8125</ele>
      </trkpt>
      <trkpt lat="44.2994" lon="6.58741">
        <ele>2151.5703125</ele>
      </trkpt>
      <trkpt lat="44.29935" lon="6.58744">
        <ele>2151.58984375</ele>
      </trkpt>
      <trkpt lat="44.29931" lon="6.58746">
        <ele>2151.16796875</ele>
      </trkpt>
      <trkpt lat="44.29927" lon="6.58748">
        <ele>2150.7421875</ele>
      </trkpt>
      <trkpt lat="44.29921" lon="6.58748">
        <ele>2149.12890625</ele>
      </trkpt>
      <trkpt lat="44.29914" lon="6.58747">
        <ele>2146.44140625</ele>
      </trkpt>
      <trkpt lat="44.29911" lon="6.58748">
        <ele>2146.0625</ele>
      </trkpt>
      <trkpt lat="44.29904" lon="6.58751">
        <ele>2145.7265625</ele>
      </trkpt>
      <trkpt lat="44.29902" lon="6.58756">
        <ele>2147.40625</ele>
      </trkpt>
      <trkpt lat="44.29903" lon="6.58763">
        <ele>2150.51953125</ele>
      </trkpt>
      <trkpt lat="44.29906" lon="6.58769">
        <ele>2153.3828125</ele>
      </trkpt>
      <trkpt lat="44.2991" lon="6.58771">
        <ele>2154.953125</ele>
      </trkpt>
      <trkpt lat="44.29914" lon="6.5877">
        <ele>2155.54296875</ele>
      </trkpt>
      <trkpt lat="44.29965" lon="6.58736">
        <ele>2157.03125</ele>
      </trkpt>
      <trkpt lat="44.29989" lon="6.58722">
        <ele>2160.390625</ele>
      </trkpt>
      <trkpt lat="44.30006" lon="6.5871">
        <ele>2162.3046875</ele>
      </trkpt>
      <trkpt lat="44.30022" lon="6.58698">
        <ele>2164.01171875</ele>
      </trkpt>
      <trkpt lat="44.30049" lon="6.58678">
        <ele>2164.13671875</ele>
      </trkpt>
      <trkpt lat="44.30058" lon="6.58672">
        <ele>2164.49609375</ele>
      </trkpt>
      <trkpt lat="44.30065" lon="6.58669">
        <ele>2165.3828125</ele>
      </trkpt>
      <trkpt lat="44.30074" lon="6.58668">
        <ele>2167.48046875</ele>
      </trkpt>
      <trkpt lat="44.3008" lon="6.58668">
        <ele>2169.3125</ele>
      </trkpt>
      <trkpt lat="44.30083" lon="6.58667">
        <ele>2169.6484375</ele>
      </trkpt>
      <trkpt lat="44.30089" lon="6.58664">
        <ele>2169.59765625</ele>
      </trkpt>
      <trkpt lat="44.30095" lon="6.58658">
        <ele>2168.91015625</ele>
      </trkpt>
      <trkpt lat="44.30101" lon="6.58656">
        <ele>2169.34375</ele>
      </trkpt>
      <trkpt lat="44.30105" lon="6.58654">
        <ele>2169.53515625</ele>
      </trkpt>
      <trkpt lat="44.30115" lon="6.58653">
        <ele>2171.609375</ele>
      </trkpt>
      <trkpt lat="44.30124" lon="6.58651">
        <ele>2173.34375</ele>
      </trkpt>
      <trkpt lat="44.3013" lon="6.58648">
        <ele>2173.65625</ele>
      </trkpt>
      <trkpt lat="44.30134" lon="6.58645">
        <ele>2174.0625</ele>
      </trkpt>
      <trkpt lat="44.30148" lon="6.58641">
        <ele>2177.7265625</ele>
      </trkpt>
      <trkpt lat="44.30153" lon="6.58638">
        <ele>2178.65625</ele>
      </trkpt>
      <trkpt lat="44.30157" lon="6.58633">
        <ele>2178.52734375</ele>
      </trkpt>
      <trkpt lat="44.3016" lon="6.58629">
        <ele>2178.296875</ele>
      </trkpt>
      <trkpt lat="44.30161" lon="6.58625">
        <ele>2177.33984375</ele>
      </trkpt>
      <trkpt lat="44.30166" lon="6.58617">
        <ele>2176.96484375</ele>
      </trkpt>
      <trkpt lat="44.30168" lon="6.58614">
        <ele>2176.75390625</ele>
      </trkpt>
      <trkpt lat="44.30171" lon="6.58612">
        <ele>2177.28515625</ele>
      </trkpt>
      <trkpt lat="44.30183" lon="6.58605">
        <ele>2179.3828125</ele>
      </trkpt>
      <trkpt lat="44.30189" lon="6.58599">
        <ele>2179.7578125</ele>
      </trkpt>
      <trkpt lat="44.30191" lon="6.58594">
        <ele>2179.609375</ele>
      </trkpt>
      <trkpt lat="44.30191" lon="6.5859">
        <ele>2178.83203125</ele>
      </trkpt>
      <trkpt lat="44.30194" lon="6.58567">
        <ele>2176.1015625</ele>
      </trkpt>
      <trkpt lat="44.30197" lon="6.58554">
        <ele>2175.03515625</ele>
      </trkpt>
      <trkpt lat="44.302" lon="6.58542">
        <ele>2174.13671875</ele>
      </trkpt>
      <trkpt lat="44.30206" lon="6.58532">
        <ele>2174.68359375</ele>
      </trkpt>
      <trkpt lat="44.30212" lon="6.58519">
        <ele>2175.13671875</ele>
      </trkpt>
      <trkpt lat="44.30214" lon="6.58512">
        <ele>2174.90234375</ele>
      </trkpt>
      <trkpt lat="44.30216" lon="6.58501">
        <ele>2173.765625</ele>
      </trkpt>
      <trkpt lat="44.3022" lon="6.58479">
        <ele>2170.7890625</ele>
      </trkpt>
      <trkpt lat="44.30222" lon="6.58475">
        <ele>2170.48046875</ele>
      </trkpt>
      <trkpt lat="44.30225" lon="6.58469">
        <ele>2170.23828125</ele>
      </trkpt>
      <trkpt lat="44.30228" lon="6.58468">
        <ele>2170.96875</ele>
      </trkpt>
      <trkpt lat="44.30234" lon="6.58468">
        <ele>2172.609375</ele>
      </trkpt>
      <trkpt lat="44.30237" lon="6.58468">
        <ele>2173.58984375</ele>
      </trkpt>
      <trkpt lat="44.30241" lon="6.58474">
        <ele>2176.234375</ele>
      </trkpt>
      <trkpt lat="44.30243" lon="6.58477">
        <ele>2177.70703125</ele>
      </trkpt>
      <trkpt lat="44.30244" lon="6.58484">
        <ele>2179.9296875</ele>
      </trkpt>
      <trkpt lat="44.30243" lon="6.58492">
        <ele>2181.23046875</ele>
      </trkpt>
      <trkpt lat="44.30234" lon="6.58516">
        <ele>2182.37109375</ele>
      </trkpt>
      <trkpt lat="44.30228" lon="6.58528">
        <ele>2182.70703125</ele>
      </trkpt>
      <trkpt lat="44.30224" lon="6.58541">
        <ele>2183.28515625</ele>
      </trkpt>
      <trkpt lat="44.30221" lon="6.58556">
        <ele>2185.09375</ele>
      </trkpt>
      <trkpt lat="44.30218" lon="6.5861">
        <ele>2195.703125</ele>
      </trkpt>
      <trkpt lat="44.30215" lon="6.58622">
        <ele>2198.078125</ele>
      </trkpt>
      <trkpt lat="44.30211" lon="6.58633">
        <ele>2199.3046875</ele>
      </trkpt>
      <trkpt lat="44.30208" lon="6.58638">
        <ele>2199.5078125</ele>
      </trkpt>
      <trkpt lat="44.30201" lon="6.58646">
        <ele>2199.3828125</ele>
      </trkpt>
      <trkpt lat="44.30195" lon="6.58657">
        <ele>2200.1796875</ele>
      </trkpt>
      <trkpt lat="44.3018" lon="6.58684">
        <ele>2204.52734375</ele>
      </trkpt>
      <trkpt lat="44.30174" lon="6.5869">
        <ele>2204.8125</ele>
      </trkpt>
      <trkpt lat="44.30162" lon="6.58699">
        <ele>2204.3046875</ele>
      </trkpt>
      <trkpt lat="44.30157" lon="6.58703">
        <ele>2204.625</ele>
      </trkpt>
      <trkpt lat="44.30151" lon="6.58713">
        <ele>2206.58984375</ele>
      </trkpt>
      <trkpt lat="44.30147" lon="6.58717">
        <ele>2207.1796875</ele>
      </trkpt>
      <trkpt lat="44.30143" lon="6.58719">
        <ele>2207.1640625</ele>
      </trkpt>
      <trkpt lat="44.30139" lon="6.5872">
        <ele>2206.35546875</ele>
      </trkpt>
      <trkpt lat="44.30136" lon="6.5872">
        <ele>2205.390625</ele>
      </trkpt>
      <trkpt lat="44.30133" lon="6.5872">
        <ele>2204.515625</ele>
      </trkpt>
      <trkpt lat="44.30127" lon="6.58723">
        <ele>2204.2265625</ele>
      </trkpt>
      <trkpt lat="44.30124" lon="6.58725">
        <ele>2204.4375</ele>
      </trkpt>
      <trkpt lat="44.30118" lon="6.58734">
        <ele>2207.28125</ele>
      </trkpt>
      <trkpt lat="44.30116" lon="6.58738">
        <ele>2208.2265625</ele>
      </trkpt>
      <trkpt lat="44.30112" lon="6.5874">
        <ele>2208.44140625</ele>
      </trkpt>
      <trkpt lat="44.30109" lon="6.58741">
        <ele>2208.16796875</ele>
      </trkpt>
      <trkpt lat="44.30106" lon="6.58741">
        <ele>2207.4140625</ele>
      </trkpt>
      <trkpt lat="44.30102" lon="6.5874">
        <ele>2205.92578125</ele>
      </trkpt>
      <trkpt lat="44.30093" lon="6.5874">
        <ele>2203.91796875</ele>
      </trkpt>
      <trkpt lat="44.30087" lon="6.58743">
        <ele>2203.859375</ele>
      </trkpt>
      <trkpt lat="44.30083" lon="6.58745">
        <ele>2204.07421875</ele>
      </trkpt>
      <trkpt lat="44.30064" lon="6.58767">
        <ele>2207.33984375</ele>
      </trkpt>
      <trkpt lat="44.30059" lon="6.58773">
        <ele>2208.07421875</ele>
      </trkpt>
      <trkpt lat="44.30055" lon="6.58781">
        <ele>2210.0234375</ele>
      </trkpt>
      <trkpt lat="44.30045" lon="6.58814">
        <ele>2219.9375</ele>
      </trkpt>
      <trkpt lat="44.30043" lon="6.58818">
        <ele>2220.94140625</ele>
      </trkpt>
      <trkpt lat="44.30036" lon="6.58826">
        <ele>2221.84765625</ele>
      </trkpt>
      <trkpt lat="44.3003" lon="6.5883">
        <ele>2221.4609375</ele>
      </trkpt>
      <trkpt lat="44.30021" lon="6.58831">
        <ele>2218.84375</ele>
      </trkpt>
      <trkpt lat="44.30015" lon="6.58832">
        <ele>2216.77734375</ele>
      </trkpt>
      <trkpt lat="44.30008" lon="6.58836">
        <ele>2216.16015625</ele>
      </trkpt>
      <trkpt lat="44.30005" lon="6.58842">
        <ele>2217.30078125</ele>
      </trkpt>
      <trkpt lat="44.29998" lon="6.58863">
        <ele>2223.984375</ele>
      </trkpt>
      <trkpt lat="44.29992" lon="6.58871">
        <ele>2225.2421875</ele>
      </trkpt>
      <trkpt lat="44.29988" lon="6.58875">
        <ele>2225.47265625</ele>
      </trkpt>
      <trkpt lat="44.29942" lon="6.58901">
        <ele>2221.13671875</ele>
      </trkpt>
      <trkpt lat="44.2992" lon="6.58916">
        <ele>2220.80078125</ele>
      </trkpt>
      <trkpt lat="44.29901" lon="6.58933">
        <ele>2221.77734375</ele>
      </trkpt>
      <trkpt lat="44.29891" lon="6.58943">
        <ele>2221.7109375</ele>
      </trkpt>
      <trkpt lat="44.29882" lon="6.58952">
        <ele>2221.58203125</ele>
      </trkpt>
      <trkpt lat="44.2988" lon="6.58957">
        <ele>2222.21875</ele>
      </trkpt>
      <trkpt lat="44.29875" lon="6.58965">
        <ele>2223.47265625</ele>
      </trkpt>
      <trkpt lat="44.29872" lon="6.58975">
        <ele>2225.3984375</ele>
      </trkpt>
      <trkpt lat="44.29871" lon="6.5898">
        <ele>2226.703125</ele>
      </trkpt>
      <trkpt lat="44.29871" lon="6.59021">
        <ele>2234.99609375</ele>
      </trkpt>
      <trkpt lat="44.2987" lon="6.59028">
        <ele>2235.98046875</ele>
      </trkpt>
      <trkpt lat="44.29869" lon="6.59037">
        <ele>2237.16015625</ele>
      </trkpt>
      <trkpt lat="44.29867" lon="6.59045">
        <ele>2237.703125</ele>
      </trkpt>
      <trkpt lat="44.29865" lon="6.59052">
        <ele>2237.99609375</ele>
      </trkpt>
      <trkpt lat="44.29862" lon="6.59058">
        <ele>2238.171875</ele>
      </trkpt>
      <trkpt lat="44.29858" lon="6.59065">
        <ele>2237.68359375</ele>
      </trkpt>
      <trkpt lat="44.29855" lon="6.59071">
        <ele>2237.50390625</ele>
      </trkpt>
      <trkpt lat="44.29851" lon="6.59077">
        <ele>2236.7265625</ele>
      </trkpt>
      <trkpt lat="44.29842" lon="6.59085">
        <ele>2234.96484375</ele>
      </trkpt>
      <trkpt lat="44.29827" lon="6.59102">
        <ele>2232.05859375</ele>
      </trkpt>
      <trkpt lat="44.29819" lon="6.59112">
        <ele>2229.9921875</ele>
      </trkpt>
      <trkpt lat="44.29804" lon="6.59132">
        <ele>2226.4921875</ele>
      </trkpt>
      <trkpt lat="44.29803" lon="6.59137">
        <ele>2226.46875</ele>
      </trkpt>
      <trkpt lat="44.29802" lon="6.59142">
        <ele>2226.53125</ele>
      </trkpt>
      <trkpt lat="44.29802" lon="6.59146">
        <ele>2226.8359375</ele>
      </trkpt>
      <trkpt lat="44.29802" lon="6.59152">
        <ele>2227.2109375</ele>
      </trkpt>
      <trkpt lat="44.29803" lon="6.59161">
        <ele>2228.1796875</ele>
      </trkpt>
      <trkpt lat="44.29808" lon="6.5917">
        <ele>2229.90234375</ele>
      </trkpt>
      <trkpt lat="44.2981" lon="6.59174">
        <ele>2230.7421875</ele>
      </trkpt>
      <trkpt lat="44.29813" lon="6.59178">
        <ele>2231.77734375</ele>
      </trkpt>
      <trkpt lat="44.29832" lon="6.59193">
        <ele>2237.4765625</ele>
      </trkpt>
      <trkpt lat="44.29839" lon="6.59197">
        <ele>2239.2578125</ele>
      </trkpt>
      <trkpt lat="44.29844" lon="6.59203">
        <ele>2240.83984375</ele>
      </trkpt>
      <trkpt lat="44.29851" lon="6.59215">
        <ele>2243.25</ele>
      </trkpt>
      <trkpt lat="44.29853" lon="6.59219">
        <ele>2244.21875</ele>
      </trkpt>
      <trkpt lat="44.29854" lon="6.59229">
        <ele>2245.5234375</ele>
      </trkpt>
      <trkpt lat="44.29854" lon="6.59239">
        <ele>2246.58203125</ele>
      </trkpt>
      <trkpt lat="44.29853" lon="6.59247">
        <ele>2247.30078125</ele>
      </trkpt>
      <trkpt lat="44.29851" lon="6.59257">
        <ele>2247.9296875</ele>
      </trkpt>
      <trkpt lat="44.29848" lon="6.5926">
        <ele>2247.859375</ele>
      </trkpt>
      <trkpt lat="44.29843" lon="6.59268">
        <ele>2247.6328125</ele>
      </trkpt>
      <trkpt lat="44.29807" lon="6.59311">
        <ele>2247.17578125</ele>
      </trkpt>
      <trkpt lat="44.29799" lon="6.59317">
        <ele>2247.26171875</ele>
      </trkpt>
      <trkpt lat="44.2979" lon="6.59323">
        <ele>2247.26953125</ele>
      </trkpt>
      <trkpt lat="44.29782" lon="6.59329">
        <ele>2246.8828125</ele>
      </trkpt>
      <trkpt lat="44.29734" lon="6.59353">
        <ele>2244.3984375</ele>
      </trkpt>
      <trkpt lat="44.2973" lon="6.59356">
        <ele>2244.27734375</ele>
      </trkpt>
      <trkpt lat="44.29726" lon="6.59361">
        <ele>2244.2734375</ele>
      </trkpt>
      <trkpt lat="44.29724" lon="6.59366">
        <ele>2244.4375</ele>
      </trkpt>
      <trkpt lat="44.29725" lon="6.59391">
        <ele>2244.453125</ele>
      </trkpt>
      <trkpt lat="44.29728" lon="6.59411">
        <ele>2243.73828125</ele>
      </trkpt>
      <trkpt lat="44.29728" lon="6.59418">
        <ele>2243.42578125</ele>
      </trkpt>
      <trkpt lat="44.29727" lon="6.59425">
        <ele>2242.984375</ele>
      </trkpt>
      <trkpt lat="44.29724" lon="6.59431">
        <ele>2242.4921875</ele>
      </trkpt>
      <trkpt lat="44.2972" lon="6.59436">
        <ele>2241.52734375</ele>
      </trkpt>
      <trkpt lat="44.2969" lon="6.59452">
        <ele>2237.38671875</ele>
      </trkpt>
      <trkpt lat="44.29681" lon="6.59459">
        <ele>2236.26953125</ele>
      </trkpt>
      <trkpt lat="44.29674" lon="6.59467">
        <ele>2234.828125</ele>
      </trkpt>
      <trkpt lat="44.29669" lon="6.59475">
        <ele>2233.60546875</ele>
      </trkpt>
      <trkpt lat="44.29667" lon="6.59483">
        <ele>2232.296875</ele>
      </trkpt>
      <trkpt lat="44.29667" lon="6.59488">
        <ele>2231.64453125</ele>
      </trkpt>
      <trkpt lat="44.29668" lon="6.59492">
        <ele>2230.71484375</ele>
      </trkpt>
      <trkpt lat="44.2967" lon="6.595">
        <ele>2228.875</ele>
      </trkpt>
      <trkpt lat="44.29684" lon="6.59522">
        <ele>2225.03125</ele>
      </trkpt>
      <trkpt lat="44.29697" lon="6.59536">
        <ele>2222.95703125</ele>
      </trkpt>
      <trkpt lat="44.29736" lon="6.59572">
        <ele>2217.1484375</ele>
      </trkpt>
      <trkpt lat="44.29768" lon="6.59605">
        <ele>2212.1171875</ele>
      </trkpt>
      <trkpt lat="44.29778" lon="6.59612">
        <ele>2211.0546875</ele>
      </trkpt>
      <trkpt lat="44.29782" lon="6.59615">
        <ele>2210.609375</ele>
      </trkpt>
      <trkpt lat="44.29792" lon="6.59621">
        <ele>2210.046875</ele>
      </trkpt>
      <trkpt lat="44.29812" lon="6.59627">
        <ele>2208.01953125</ele>
      </trkpt>
      <trkpt lat="44.29831" lon="6.59634">
        <ele>2204.28515625</ele>
      </trkpt>
      <trkpt lat="44.29841" lon="6.59635">
        <ele>2202.9140625</ele>
      </trkpt>
      <trkpt lat="44.29851" lon="6.59634">
        <ele>2202.1015625</ele>
      </trkpt>
      <trkpt lat="44.29873" lon="6.59627">
        <ele>2198.8125</ele>
      </trkpt>
      <trkpt lat="44.29892" lon="6.59623">
        <ele>2195.0546875</ele>
      </trkpt>
      <trkpt lat="44.29898" lon="6.59621">
        <ele>2194.3359375</ele>
      </trkpt>
      <trkpt lat="44.29903" lon="6.59618">
        <ele>2193.640625</ele>
      </trkpt>
      <trkpt lat="44.29907" lon="6.59615">
        <ele>2193.578125</ele>
      </trkpt>
      <trkpt lat="44.29912" lon="6.59611">
        <ele>2193.890625</ele>
      </trkpt>
      <trkpt lat="44.29919" lon="6.59601">
        <ele>2195.4921875</ele>
      </trkpt>
      <trkpt lat="44.29924" lon="6.59598">
        <ele>2195.71484375</ele>
      </trkpt>
      <trkpt lat="44.29928" lon="6.59596">
        <ele>2195.52734375</ele>
      </trkpt>
      <trkpt lat="44.29933" lon="6.59594">
        <ele>2195.15625</ele>
      </trkpt>
      <trkpt lat="44.29937" lon="6.59593">
        <ele>2194.67578125</ele>
      </trkpt>
      <trkpt lat="44.29943" lon="6.59593">
        <ele>2193.6484375</ele>
      </trkpt>
      <trkpt lat="44.29947" lon="6.59593">
        <ele>2192.828125</ele>
      </trkpt>
      <trkpt lat="44.29956" lon="6.5959">
        <ele>2192.296875</ele>
      </trkpt>
      <trkpt lat="44.29963" lon="6.59585">
        <ele>2192.41796875</ele>
      </trkpt>
      <trkpt lat="44.29973" lon="6.59577">
        <ele>2194.6328125</ele>
      </trkpt>
      <trkpt lat="44.29979" lon="6.59575">
        <ele>2195.2890625</ele>
      </trkpt>
      <trkpt lat="44.29983" lon="6.59573">
        <ele>2195.6171875</ele>
      </trkpt>
      <trkpt lat="44.29986" lon="6.59575">
        <ele>2195.17578125</ele>
      </trkpt>
      <trkpt lat="44.2999" lon="6.59576">
        <ele>2194.7109375</ele>
      </trkpt>
      <trkpt lat="44.30004" lon="6.59582">
        <ele>2192.140625</ele>
      </trkpt>
      <trkpt lat="44.3001" lon="6.59583">
        <ele>2191.63671875</ele>
      </trkpt>
      <trkpt lat="44.30016" lon="6.59584">
        <ele>2191.15625</ele>
      </trkpt>
      <trkpt lat="44.30032" lon="6.59584">
        <ele>2191.859375</ele>
      </trkpt>
      <trkpt lat="44.30039" lon="6.59585">
        <ele>2192.19921875</ele>
      </trkpt>
      <trkpt lat="44.30043" lon="6.59587">
        <ele>2191.77734375</ele>
      </trkpt>
      <trkpt lat="44.3005" lon="6.59592">
        <ele>2191.078125</ele>
      </trkpt>
      <trkpt lat="44.30061" lon="6.59601">
        <ele>2188.91015625</ele>
      </trkpt>
      <trkpt lat="44.30067" lon="6.59606">
        <ele>2188.05078125</ele>
      </trkpt>
      <trkpt lat="44.30079" lon="6.59613">
        <ele>2186.61328125</ele>
      </trkpt>
      <trkpt lat="44.30086" lon="6.59616">
        <ele>2185.72265625</ele>
      </trkpt>
      <trkpt lat="44.30112" lon="6.59634">
        <ele>2180.8515625</ele>
      </trkpt>
      <trkpt lat="44.30138" lon="6.59651">
        <ele>2175.6484375</ele>
      </trkpt>
      <trkpt lat="44.30142" lon="6.59654">
        <ele>2174.1484375</ele>
      </trkpt>
      <trkpt lat="44.30148" lon="6.59657">
        <ele>2172.41796875</ele>
      </trkpt>
      <trkpt lat="44.30156" lon="6.59661">
        <ele>2170.02734375</ele>
      </trkpt>
      <trkpt lat="44.30162" lon="6.59662">
        <ele>2169.1640625</ele>
      </trkpt>
      <trkpt lat="44.30167" lon="6.59662">
        <ele>2168.7109375</ele>
      </trkpt>
      <trkpt lat="44.30219" lon="6.59654">
        <ele>2165.2109375</ele>
      </trkpt>
      <trkpt lat="44.3023" lon="6.5965">
        <ele>2164.66015625</ele>
      </trkpt>
      <trkpt lat="44.30242" lon="6.59644">
        <ele>2164.37109375</ele>
      </trkpt>
      <trkpt lat="44.30254" lon="6.59639">
        <ele>2163.51953125</ele>
      </trkpt>
      <trkpt lat="44.30265" lon="6.59631">
        <ele>2163.30078125</ele>
      </trkpt>
      <trkpt lat="44.3034" lon="6.5958">
        <ele>2157.875</ele>
      </trkpt>
      <trkpt lat="44.30344" lon="6.59577">
        <ele>2157.578125</ele>
      </trkpt>
      <trkpt lat="44.30353" lon="6.59568">
        <ele>2157.62890625</ele>
      </trkpt>
      <trkpt lat="44.30381" lon="6.59529">
        <ele>2162.9296875</ele>
      </trkpt>
      <trkpt lat="44.30384" lon="6.59526">
        <ele>2163.33203125</ele>
      </trkpt>
      <trkpt lat="44.30387" lon="6.59523">
        <ele>2163.7578125</ele>
      </trkpt>
      <trkpt lat="44.3039" lon="6.59522">
        <ele>2163.50390625</ele>
      </trkpt>
      <trkpt lat="44.30395" lon="6.59521">
        <ele>2163.05078125</ele>
      </trkpt>
      <trkpt lat="44.30399" lon="6.59521">
        <ele>2162.24609375</ele>
      </trkpt>
      <trkpt lat="44.30403" lon="6.59522">
        <ele>2161.06640625</ele>
      </trkpt>
      <trkpt lat="44.3041" lon="6.59521">
        <ele>2160.23046875</ele>
      </trkpt>
      <trkpt lat="44.30416" lon="6.5952">
        <ele>2159.12890625</ele>
      </trkpt>
      <trkpt lat="44.30421" lon="6.59517">
        <ele>2158.9375</ele>
      </trkpt>
      <trkpt lat="44.30433" lon="6.5951">
        <ele>2158.28125</ele>
      </trkpt>
      <trkpt lat="44.30437" lon="6.59508">
        <ele>2157.97265625</ele>
      </trkpt>
      <trkpt lat="44.30448" lon="6.59505">
        <ele>2156.42578125</ele>
      </trkpt>
      <trkpt lat="44.30454" lon="6.59505">
        <ele>2155.07421875</ele>
      </trkpt>
      <trkpt lat="44.30459" lon="6.59505">
        <ele>2153.71875</ele>
      </trkpt>
      <trkpt lat="44.30485" lon="6.59509">
        <ele>2143.85546875</ele>
      </trkpt>
      <trkpt lat="44.30492" lon="6.5951">
        <ele>2140.81640625</ele>
      </trkpt>
      <trkpt lat="44.30495" lon="6.5951">
        <ele>2139.671875</ele>
      </trkpt>
      <trkpt lat="44.30503" lon="6.59508">
        <ele>2137.69921875</ele>
      </trkpt>
      <trkpt lat="44.30509" lon="6.59504">
        <ele>2136.76171875</ele>
      </trkpt>
      <trkpt lat="44.30511" lon="6.595">
        <ele>2137.0078125</ele>
      </trkpt>
      <trkpt lat="44.3054" lon="6.59455">
        <ele>2144.1875</ele>
      </trkpt>
      <trkpt lat="44.30544" lon="6.59452">
        <ele>2144.6484375</ele>
      </trkpt>
      <trkpt lat="44.30549" lon="6.59446">
        <ele>2145.8046875</ele>
      </trkpt>
      <trkpt lat="44.30557" lon="6.59443">
        <ele>2145.421875</ele>
      </trkpt>
      <trkpt lat="44.30569" lon="6.59438">
        <ele>2144.359375</ele>
      </trkpt>
      <trkpt lat="44.30582" lon="6.59437">
        <ele>2143.76953125</ele>
      </trkpt>
      <trkpt lat="44.30598" lon="6.59437">
        <ele>2146.95703125</ele>
      </trkpt>
      <trkpt lat="44.30602" lon="6.59438">
        <ele>2147.20703125</ele>
      </trkpt>
      <trkpt lat="44.30607" lon="6.5944">
        <ele>2147.49609375</ele>
      </trkpt>
      <trkpt lat="44.3061" lon="6.59443">
        <ele>2147.36328125</ele>
      </trkpt>
      <trkpt lat="44.30619" lon="6.59451">
        <ele>2145.97265625</ele>
      </trkpt>
      <trkpt lat="44.30625" lon="6.59456">
        <ele>2145.3125</ele>
      </trkpt>
      <trkpt lat="44.30632" lon="6.5946">
        <ele>2145.4296875</ele>
      </trkpt>
      <trkpt lat="44.30639" lon="6.59464">
        <ele>2146.203125</ele>
      </trkpt>
      <trkpt lat="44.30647" lon="6.59467">
        <ele>2147.703125</ele>
      </trkpt>
      <trkpt lat="44.30653" lon="6.59472">
        <ele>2148.46484375</ele>
      </trkpt>
      <trkpt lat="44.30655" lon="6.59475">
        <ele>2148.08984375</ele>
      </trkpt>
      <trkpt lat="44.30679" lon="6.59506">
        <ele>2145.93359375</ele>
      </trkpt>
      <trkpt lat="44.30681" lon="6.5951">
        <ele>2145.234375</ele>
      </trkpt>
      <trkpt lat="44.30689" lon="6.59524">
        <ele>2143.0625</ele>
      </trkpt>
      <trkpt lat="44.3069" lon="6.59532">
        <ele>2140.8203125</ele>
      </trkpt>
      <trkpt lat="44.30695" lon="6.59547">
        <ele>2136.93359375</ele>
      </trkpt>
      <trkpt lat="44.30698" lon="6.59554">
        <ele>2135.33203125</ele>
      </trkpt>
      <trkpt lat="44.30702" lon="6.59562">
        <ele>2133.87109375</ele>
      </trkpt>
      <trkpt lat="44.30707" lon="6.59569">
        <ele>2132.3515625</ele>
      </trkpt>
      <trkpt lat="44.30712" lon="6.59576">
        <ele>2131.27734375</ele>
      </trkpt>
      <trkpt lat="44.30719" lon="6.59582">
        <ele>2130.30859375</ele>
      </trkpt>
      <trkpt lat="44.30724" lon="6.59587">
        <ele>2129.4375</ele>
      </trkpt>
      <trkpt lat="44.3073" lon="6.59593">
        <ele>2128.671875</ele>
      </trkpt>
      <trkpt lat="44.30737" lon="6.59597">
        <ele>2128.19921875</ele>
      </trkpt>
      <trkpt lat="44.30743" lon="6.59601">
        <ele>2127.61328125</ele>
      </trkpt>
      <trkpt lat="44.30759" lon="6.59609">
        <ele>2126.1796875</ele>
      </trkpt>
      <trkpt lat="44.30776" lon="6.59617">
        <ele>2124.32421875</ele>
      </trkpt>
      <trkpt lat="44.30784" lon="6.59624">
        <ele>2122.546875</ele>
      </trkpt>
      <trkpt lat="44.30793" lon="6.59628">
        <ele>2121.6171875</ele>
      </trkpt>
      <trkpt lat="44.30809" lon="6.59631">
        <ele>2122.60546875</ele>
      </trkpt>
      <trkpt lat="44.30816" lon="6.59632">
        <ele>2123.66015625</ele>
      </trkpt>
      <trkpt lat="44.30831" lon="6.59632">
        <ele>2126.53125</ele>
      </trkpt>
      <trkpt lat="44.30835" lon="6.59634">
        <ele>2126.98046875</ele>
      </trkpt>
      <trkpt lat="44.3084" lon="6.59635">
        <ele>2127.4296875</ele>
      </trkpt>
      <trkpt lat="44.30848" lon="6.59639">
        <ele>2127.59765625</ele>
      </trkpt>
      <trkpt lat="44.30856" lon="6.59645">
        <ele>2126.84375</ele>
      </trkpt>
      <trkpt lat="44.3087" lon="6.59662">
        <ele>2123.45703125</ele>
      </trkpt>
      <trkpt lat="44.30885" lon="6.59681">
        <ele>2119.74609375</ele>
      </trkpt>
      <trkpt lat="44.30889" lon="6.59686">
        <ele>2118.6640625</ele>
      </trkpt>
      <trkpt lat="44.30894" lon="6.5969">
        <ele>2118.21484375</ele>
      </trkpt>
      <trkpt lat="44.309" lon="6.59695">
        <ele>2117.77734375</ele>
      </trkpt>
      <trkpt lat="44.30905" lon="6.59698">
        <ele>2117.74609375</ele>
      </trkpt>
      <trkpt lat="44.30911" lon="6.59701">
        <ele>2117.7265625</ele>
      </trkpt>
      <trkpt lat="44.30917" lon="6.59703">
        <ele>2117.3671875</ele>
      </trkpt>
      <trkpt lat="44.30937" lon="6.59708">
        <ele>2116.90234375</ele>
      </trkpt>
      <trkpt lat="44.30946" lon="6.59712">
        <ele>2115.96484375</ele>
      </trkpt>
      <trkpt lat="44.30955" lon="6.59718">
        <ele>2114.3046875</ele>
      </trkpt>
      <trkpt lat="44.30958" lon="6.59721">
        <ele>2113.43359375</ele>
      </trkpt>
      <trkpt lat="44.30967" lon="6.59733">
        <ele>2110.0859375</ele>
      </trkpt>
      <trkpt lat="44.30971" lon="6.59738">
        <ele>2108.17578125</ele>
      </trkpt>
      <trkpt lat="44.30975" lon="6.5974">
        <ele>2106.8125</ele>
      </trkpt>
      <trkpt lat="44.30982" lon="6.59744">
        <ele>2104.31640625</ele>
      </trkpt>
      <trkpt lat="44.31001" lon="6.5975">
        <ele>2099.72265625</ele>
      </trkpt>
      <trkpt lat="44.31014" lon="6.59755">
        <ele>2096.734375</ele>
      </trkpt>
      <trkpt lat="44.31021" lon="6.59755">
        <ele>2095.6875</ele>
      </trkpt>
      <trkpt lat="44.31028" lon="6.59755">
        <ele>2093.125</ele>
      </trkpt>
      <trkpt lat="44.31034" lon="6.59755">
        <ele>2090.125</ele>
      </trkpt>
      <trkpt lat="44.31041" lon="6.59753">
        <ele>2087.09375</ele>
      </trkpt>
      <trkpt lat="44.31048" lon="6.5975">
        <ele>2084.5234375</ele>
      </trkpt>
      <trkpt lat="44.31051" lon="6.59748">
        <ele>2083.44140625</ele>
      </trkpt>
      <trkpt lat="44.31053" lon="6.59745">
        <ele>2083.0703125</ele>
      </trkpt>
      <trkpt lat="44.31056" lon="6.59742">
        <ele>2082.15234375</ele>
      </trkpt>
      <trkpt lat="44.31059" lon="6.59738">
        <ele>2081.93359375</ele>
      </trkpt>
      <trkpt lat="44.31061" lon="6.59733">
        <ele>2081.69140625</ele>
      </trkpt>
      <trkpt lat="44.31062" lon="6.59728">
        <ele>2082.16015625</ele>
      </trkpt>
      <trkpt lat="44.31062" lon="6.59724">
        <ele>2082.96875</ele>
      </trkpt>
      <trkpt lat="44.31062" lon="6.59718">
        <ele>2083.98046875</ele>
      </trkpt>
      <trkpt lat="44.31062" lon="6.5971">
        <ele>2085.59375</ele>
      </trkpt>
      <trkpt lat="44.3106" lon="6.59691">
        <ele>2086.84375</ele>
      </trkpt>
      <trkpt lat="44.31056" lon="6.59674">
        <ele>2088.79296875</ele>
      </trkpt>
      <trkpt lat="44.31036" lon="6.59603">
        <ele>2095.13671875</ele>
      </trkpt>
      <trkpt lat="44.31016" lon="6.59527">
        <ele>2094.1640625</ele>
      </trkpt>
      <trkpt lat="44.31014" lon="6.59513">
        <ele>2093.0625</ele>
      </trkpt>
      <trkpt lat="44.31011" lon="6.595">
        <ele>2092.171875</ele>
      </trkpt>
      <trkpt lat="44.31009" lon="6.59478">
        <ele>2090</ele>
      </trkpt>
      <trkpt lat="44.31008" lon="6.5946">
        <ele>2088.421875</ele>
      </trkpt>
      <trkpt lat="44.31009" lon="6.59441">
        <ele>2085.27734375</ele>
      </trkpt>
      <trkpt lat="44.31011" lon="6.59433">
        <ele>2082.6953125</ele>
      </trkpt>
      <trkpt lat="44.31016" lon="6.59384">
        <ele>2077.3359375</ele>
      </trkpt>
      <trkpt lat="44.31022" lon="6.59335">
        <ele>2073.1484375</ele>
      </trkpt>
      <trkpt lat="44.31023" lon="6.59319">
        <ele>2072.7578125</ele>
      </trkpt>
      <trkpt lat="44.31022" lon="6.59303">
        <ele>2074.078125</ele>
      </trkpt>
      <trkpt lat="44.31022" lon="6.59299">
        <ele>2074.30859375</ele>
      </trkpt>
      <trkpt lat="44.31023" lon="6.59289">
        <ele>2074.43359375</ele>
      </trkpt>
      <trkpt lat="44.31025" lon="6.59281">
        <ele>2074.2578125</ele>
      </trkpt>
      <trkpt lat="44.31026" lon="6.59276">
        <ele>2074.203125</ele>
      </trkpt>
      <trkpt lat="44.31036" lon="6.5926">
        <ele>2073.3671875</ele>
      </trkpt>
      <trkpt lat="44.31041" lon="6.59253">
        <ele>2073.6796875</ele>
      </trkpt>
      <trkpt lat="44.31047" lon="6.59247">
        <ele>2073.61328125</ele>
      </trkpt>
      <trkpt lat="44.31053" lon="6.59244">
        <ele>2072.859375</ele>
      </trkpt>
      <trkpt lat="44.31122" lon="6.59235">
        <ele>2070.29296875</ele>
      </trkpt>
      <trkpt lat="44.31132" lon="6.59235">
        <ele>2070.46875</ele>
      </trkpt>
      <trkpt lat="44.31141" lon="6.59239">
        <ele>2070.4140625</ele>
      </trkpt>
      <trkpt lat="44.31146" lon="6.59242">
        <ele>2069.953125</ele>
      </trkpt>
      <trkpt lat="44.3115" lon="6.59245">
        <ele>2069.48828125</ele>
      </trkpt>
      <trkpt lat="44.31157" lon="6.59252">
        <ele>2068.4453125</ele>
      </trkpt>
      <trkpt lat="44.31166" lon="6.59257">
        <ele>2067.82421875</ele>
      </trkpt>
      <trkpt lat="44.31242" lon="6.59294">
        <ele>2060.34765625</ele>
      </trkpt>
      <trkpt lat="44.31252" lon="6.59301">
        <ele>2058.1796875</ele>
      </trkpt>
      <trkpt lat="44.3126" lon="6.59307">
        <ele>2055.82421875</ele>
      </trkpt>
      <trkpt lat="44.31274" lon="6.59315">
        <ele>2052.86328125</ele>
      </trkpt>
      <trkpt lat="44.31287" lon="6.5932">
        <ele>2050.55859375</ele>
      </trkpt>
      <trkpt lat="44.31346" lon="6.59329">
        <ele>2041.76171875</ele>
      </trkpt>
      <trkpt lat="44.31353" lon="6.59329">
        <ele>2040.96875</ele>
      </trkpt>
      <trkpt lat="44.31359" lon="6.59329">
        <ele>2039.76171875</ele>
      </trkpt>
      <trkpt lat="44.31365" lon="6.59328">
        <ele>2038.50390625</ele>
      </trkpt>
      <trkpt lat="44.31372" lon="6.59326">
        <ele>2037.515625</ele>
      </trkpt>
      <trkpt lat="44.31377" lon="6.59322">
        <ele>2037.03515625</ele>
      </trkpt>
      <trkpt lat="44.31384" lon="6.59319">
        <ele>2036.28515625</ele>
      </trkpt>
      <trkpt lat="44.31464" lon="6.59257">
        <ele>2032.6875</ele>
      </trkpt>
      <trkpt lat="44.31471" lon="6.59254">
        <ele>2032.84375</ele>
      </trkpt>
      <trkpt lat="44.31496" lon="6.59245">
        <ele>2033.90234375</ele>
      </trkpt>
      <trkpt lat="44.31501" lon="6.59243">
        <ele>2034.484375</ele>
      </trkpt>
      <trkpt lat="44.31505" lon="6.59243">
        <ele>2034.125</ele>
      </trkpt>
      <trkpt lat="44.31515" lon="6.59247">
        <ele>2031.296875</ele>
      </trkpt>
      <trkpt lat="44.31524" lon="6.5925">
        <ele>2029.046875</ele>
      </trkpt>
      <trkpt lat="44.31534" lon="6.59252">
        <ele>2028.515625</ele>
      </trkpt>
      <trkpt lat="44.31539" lon="6.5925">
        <ele>2029.05859375</ele>
      </trkpt>
      <trkpt lat="44.3155" lon="6.59252">
        <ele>2028.50390625</ele>
      </trkpt>
      <trkpt lat="44.31555" lon="6.59253">
        <ele>2027.93359375</ele>
      </trkpt>
      <trkpt lat="44.31569" lon="6.59258">
        <ele>2024.96875</ele>
      </trkpt>
      <trkpt lat="44.31574" lon="6.59259">
        <ele>2024.3359375</ele>
      </trkpt>
      <trkpt lat="44.31578" lon="6.59259">
        <ele>2024.296875</ele>
      </trkpt>
      <trkpt lat="44.316" lon="6.59256">
        <ele>2026.30078125</ele>
      </trkpt>
      <trkpt lat="44.31606" lon="6.59256">
        <ele>2026.34765625</ele>
      </trkpt>
      <trkpt lat="44.31618" lon="6.59257">
        <ele>2025.8984375</ele>
      </trkpt>
      <trkpt lat="44.31623" lon="6.59258">
        <ele>2025.40234375</ele>
      </trkpt>
      <trkpt lat="44.31646" lon="6.59264">
        <ele>2023.58984375</ele>
      </trkpt>
      <trkpt lat="44.3165" lon="6.59266">
        <ele>2023.58984375</ele>
      </trkpt>
      <trkpt lat="44.31654" lon="6.59264">
        <ele>2024.51171875</ele>
      </trkpt>
      <trkpt lat="44.31658" lon="6.59263">
        <ele>2025.45703125</ele>
      </trkpt>
      <trkpt lat="44.31673" lon="6.59262">
        <ele>2027.4921875</ele>
      </trkpt>
      <trkpt lat="44.31681" lon="6.59262">
        <ele>2028.26171875</ele>
      </trkpt>
      <trkpt lat="44.31693" lon="6.59263">
        <ele>2029.14453125</ele>
      </trkpt>
      <trkpt lat="44.31699" lon="6.59266">
        <ele>2029.1328125</ele>
      </trkpt>
      <trkpt lat="44.31705" lon="6.5927">
        <ele>2028.33203125</ele>
      </trkpt>
      <trkpt lat="44.31708" lon="6.59272">
        <ele>2028.01953125</ele>
      </trkpt>
      <trkpt lat="44.31712" lon="6.59279">
        <ele>2026.0546875</ele>
      </trkpt>
      <trkpt lat="44.31715" lon="6.5929">
        <ele>2022.91796875</ele>
      </trkpt>
      <trkpt lat="44.31718" lon="6.59298">
        <ele>2020.9140625</ele>
      </trkpt>
      <trkpt lat="44.31721" lon="6.59301">
        <ele>2020.1953125</ele>
      </trkpt>
      <trkpt lat="44.31725" lon="6.59306">
        <ele>2019.140625</ele>
      </trkpt>
      <trkpt lat="44.31741" lon="6.59314">
        <ele>2019.49609375</ele>
      </trkpt>
      <trkpt lat="44.31752" lon="6.59315">
        <ele>2021.8359375</ele>
      </trkpt>
      <trkpt lat="44.31757" lon="6.59314">
        <ele>2023.65234375</ele>
      </trkpt>
      <trkpt lat="44.31769" lon="6.59313">
        <ele>2027.2421875</ele>
      </trkpt>
      <trkpt lat="44.31774" lon="6.59313">
        <ele>2028.734375</ele>
      </trkpt>
      <trkpt lat="44.3178" lon="6.59316">
        <ele>2029.390625</ele>
      </trkpt>
      <trkpt lat="44.3181" lon="6.59337">
        <ele>2036.4296875</ele>
      </trkpt>
      <trkpt lat="44.31817" lon="6.59347">
        <ele>2038.9375</ele>
      </trkpt>
      <trkpt lat="44.31821" lon="6.59355">
        <ele>2040.0859375</ele>
      </trkpt>
      <trkpt lat="44.31824" lon="6.59362">
        <ele>2040.0546875</ele>
      </trkpt>
      <trkpt lat="44.31824" lon="6.59366">
        <ele>2039.34765625</ele>
      </trkpt>
      <trkpt lat="44.31824" lon="6.59371">
        <ele>2038.640625</ele>
      </trkpt>
      <trkpt lat="44.31818" lon="6.59379">
        <ele>2034.10546875</ele>
      </trkpt>
      <trkpt lat="44.31814" lon="6.59381">
        <ele>2031.25390625</ele>
      </trkpt>
      <trkpt lat="44.3181" lon="6.59382">
        <ele>2028.58203125</ele>
      </trkpt>
      <trkpt lat="44.31804" lon="6.5938">
        <ele>2025.86328125</ele>
      </trkpt>
      <trkpt lat="44.31791" lon="6.59367">
        <ele>2022.515625</ele>
      </trkpt>
      <trkpt lat="44.31788" lon="6.59362">
        <ele>2022.41015625</ele>
      </trkpt>
      <trkpt lat="44.31784" lon="6.59357">
        <ele>2021.98828125</ele>
      </trkpt>
      <trkpt lat="44.3178" lon="6.59352">
        <ele>2021.4140625</ele>
      </trkpt>
      <trkpt lat="44.31772" lon="6.59346">
        <ele>2020.30859375</ele>
      </trkpt>
      <trkpt lat="44.31766" lon="6.59344">
        <ele>2018.69140625</ele>
      </trkpt>
      <trkpt lat="44.31759" lon="6.59344">
        <ele>2016.59375</ele>
      </trkpt>
      <trkpt lat="44.31753" lon="6.59346">
        <ele>2013.9453125</ele>
      </trkpt>
      <trkpt lat="44.31733" lon="6.59359">
        <ele>2005.4375</ele>
      </trkpt>
      <trkpt lat="44.31729" lon="6.59361">
        <ele>2003.95703125</ele>
      </trkpt>
      <trkpt lat="44.31722" lon="6.59363">
        <ele>2001.796875</ele>
      </trkpt>
      <trkpt lat="44.31714" lon="6.59363">
        <ele>2000.23828125</ele>
      </trkpt>
      <trkpt lat="44.31697" lon="6.59355">
        <ele>1999.25</ele>
      </trkpt>
      <trkpt lat="44.31694" lon="6.5935">
        <ele>1999.90234375</ele>
      </trkpt>
      <trkpt lat="44.3169" lon="6.59346">
        <ele>2000.35546875</ele>
      </trkpt>
      <trkpt lat="44.31686" lon="6.5934">
        <ele>2001.79296875</ele>
      </trkpt>
      <trkpt lat="44.31683" lon="6.59333">
        <ele>2003.28125</ele>
      </trkpt>
      <trkpt lat="44.3168" lon="6.5933">
        <ele>2003.796875</ele>
      </trkpt>
      <trkpt lat="44.31676" lon="6.59327">
        <ele>2004.1640625</ele>
      </trkpt>
      <trkpt lat="44.31671" lon="6.59326">
        <ele>2003.87109375</ele>
      </trkpt>
      <trkpt lat="44.31653" lon="6.59334">
        <ele>1998.35546875</ele>
      </trkpt>
      <trkpt lat="44.31642" lon="6.59338">
        <ele>1995.26953125</ele>
      </trkpt>
      <trkpt lat="44.31633" lon="6.5934">
        <ele>1993.4609375</ele>
      </trkpt>
      <trkpt lat="44.3162" lon="6.59341">
        <ele>1992.546875</ele>
      </trkpt>
      <trkpt lat="44.31603" lon="6.59345">
        <ele>1990.3046875</ele>
      </trkpt>
      <trkpt lat="44.31587" lon="6.59356">
        <ele>1985.76171875</ele>
      </trkpt>
      <trkpt lat="44.31577" lon="6.59361">
        <ele>1983.5078125</ele>
      </trkpt>
      <trkpt lat="44.31564" lon="6.59362">
        <ele>1984.6875</ele>
      </trkpt>
      <trkpt lat="44.31555" lon="6.59362">
        <ele>1985.7265625</ele>
      </trkpt>
      <trkpt lat="44.31548" lon="6.59362">
        <ele>1986.640625</ele>
      </trkpt>
      <trkpt lat="44.31544" lon="6.59363">
        <ele>1986.8359375</ele>
      </trkpt>
      <trkpt lat="44.31539" lon="6.59366">
        <ele>1986.40234375</ele>
      </trkpt>
      <trkpt lat="44.31533" lon="6.59374">
        <ele>1985.0703125</ele>
      </trkpt>
      <trkpt lat="44.31529" lon="6.59384">
        <ele>1982.89453125</ele>
      </trkpt>
      <trkpt lat="44.31526" lon="6.5939">
        <ele>1981.34375</ele>
      </trkpt>
      <trkpt lat="44.31525" lon="6.59394">
        <ele>1980.26171875</ele>
      </trkpt>
      <trkpt lat="44.31523" lon="6.59404">
        <ele>1977.796875</ele>
      </trkpt>
      <trkpt lat="44.31522" lon="6.59415">
        <ele>1974.87109375</ele>
      </trkpt>
      <trkpt lat="44.31521" lon="6.5942">
        <ele>1973.6640625</ele>
      </trkpt>
      <trkpt lat="44.31517" lon="6.59429">
        <ele>1972.578125</ele>
      </trkpt>
      <trkpt lat="44.31511" lon="6.59436">
        <ele>1971.93359375</ele>
      </trkpt>
      <trkpt lat="44.31466" lon="6.59473">
        <ele>1974.76171875</ele>
      </trkpt>
      <trkpt lat="44.31464" lon="6.59477">
        <ele>1973.9140625</ele>
      </trkpt>
      <trkpt lat="44.31464" lon="6.59483">
        <ele>1971.828125</ele>
      </trkpt>
      <trkpt lat="44.31466" lon="6.59488">
        <ele>1969.8828125</ele>
      </trkpt>
      <trkpt lat="44.31471" lon="6.5949">
        <ele>1967.69921875</ele>
      </trkpt>
      <trkpt lat="44.31523" lon="6.59452">
        <ele>1962.7734375</ele>
      </trkpt>
      <trkpt lat="44.31527" lon="6.59448">
        <ele>1963.58984375</ele>
      </trkpt>
      <trkpt lat="44.31531" lon="6.59444">
        <ele>1964.546875</ele>
      </trkpt>
      <trkpt lat="44.31534" lon="6.59438">
        <ele>1965.84375</ele>
      </trkpt>
      <trkpt lat="44.31537" lon="6.59433">
        <ele>1967.12109375</ele>
      </trkpt>
      <trkpt lat="44.31539" lon="6.59428">
        <ele>1968.3984375</ele>
      </trkpt>
      <trkpt lat="44.3154" lon="6.59421">
        <ele>1970.12109375</ele>
      </trkpt>
      <trkpt lat="44.31541" lon="6.59415">
        <ele>1971.84375</ele>
      </trkpt>
      <trkpt lat="44.31543" lon="6.59408">
        <ele>1973.57421875</ele>
      </trkpt>
      <trkpt lat="44.31545" lon="6.59403">
        <ele>1974.828125</ele>
      </trkpt>
      <trkpt lat="44.31547" lon="6.59397">
        <ele>1976.08984375</ele>
      </trkpt>
      <trkpt lat="44.31549" lon="6.59393">
        <ele>1977.0390625</ele>
      </trkpt>
      <trkpt lat="44.31554" lon="6.59391">
        <ele>1976.87890625</ele>
      </trkpt>
      <trkpt lat="44.31563" lon="6.59396">
        <ele>1973.98046875</ele>
      </trkpt>
      <trkpt lat="44.31569" lon="6.59403">
        <ele>1971.05859375</ele>
      </trkpt>
      <trkpt lat="44.31577" lon="6.59407">
        <ele>1968.59765625</ele>
      </trkpt>
      <trkpt lat="44.31581" lon="6.59408">
        <ele>1968.33203125</ele>
      </trkpt>
      <trkpt lat="44.31585" lon="6.59409">
        <ele>1968.23828125</ele>
      </trkpt>
      <trkpt lat="44.31594" lon="6.59408">
        <ele>1969.02734375</ele>
      </trkpt>
      <trkpt lat="44.31613" lon="6.59406">
        <ele>1970.73046875</ele>
      </trkpt>
      <trkpt lat="44.31633" lon="6.59403">
        <ele>1972.7578125</ele>
      </trkpt>
      <trkpt lat="44.31637" lon="6.59404">
        <ele>1973.13671875</ele>
      </trkpt>
      <trkpt lat="44.31642" lon="6.59405">
        <ele>1973.7734375</ele>
      </trkpt>
      <trkpt lat="44.31647" lon="6.59407">
        <ele>1973.890625</ele>
      </trkpt>
      <trkpt lat="44.31651" lon="6.5941">
        <ele>1973.67578125</ele>
      </trkpt>
      <trkpt lat="44.31654" lon="6.59414">
        <ele>1973.26953125</ele>
      </trkpt>
      <trkpt lat="44.31658" lon="6.59419">
        <ele>1972.40234375</ele>
      </trkpt>
      <trkpt lat="44.31666" lon="6.59431">
        <ele>1970.140625</ele>
      </trkpt>
      <trkpt lat="44.3167" lon="6.59437">
        <ele>1969.14453125</ele>
      </trkpt>
      <trkpt lat="44.31679" lon="6.59447">
        <ele>1968.08203125</ele>
      </trkpt>
      <trkpt lat="44.31698" lon="6.59465">
        <ele>1967.51171875</ele>
      </trkpt>
      <trkpt lat="44.31711" lon="6.5948">
        <ele>1967.19921875</ele>
      </trkpt>
      <trkpt lat="44.31715" lon="6.59484">
        <ele>1967.33203125</ele>
      </trkpt>
      <trkpt lat="44.31725" lon="6.59492">
        <ele>1967.875</ele>
      </trkpt>
      <trkpt lat="44.31729" lon="6.59495">
        <ele>1968.03515625</ele>
      </trkpt>
      <trkpt lat="44.3174" lon="6.59505">
        <ele>1967.78125</ele>
      </trkpt>
      <trkpt lat="44.31749" lon="6.59517">
        <ele>1967.2734375</ele>
      </trkpt>
      <trkpt lat="44.3176" lon="6.59536">
        <ele>1967.68359375</ele>
      </trkpt>
      <trkpt lat="44.31765" lon="6.59541">
        <ele>1968.53125</ele>
      </trkpt>
      <trkpt lat="44.3177" lon="6.59547">
        <ele>1970</ele>
      </trkpt>
      <trkpt lat="44.3178" lon="6.59555">
        <ele>1972.95703125</ele>
      </trkpt>
      <trkpt lat="44.31784" lon="6.59559">
        <ele>1974.1171875</ele>
      </trkpt>
      <trkpt lat="44.31788" lon="6.59566">
        <ele>1974.58203125</ele>
      </trkpt>
      <trkpt lat="44.31791" lon="6.59572">
        <ele>1974.40625</ele>
      </trkpt>
      <trkpt lat="44.31795" lon="6.59579">
        <ele>1974.23046875</ele>
      </trkpt>
      <trkpt lat="44.31797" lon="6.59586">
        <ele>1973.07421875</ele>
      </trkpt>
      <trkpt lat="44.3181" lon="6.59616">
        <ele>1972.6328125</ele>
      </trkpt>
      <trkpt lat="44.31814" lon="6.59627">
        <ele>1972.2265625</ele>
      </trkpt>
      <trkpt lat="44.31818" lon="6.59639">
        <ele>1971.2734375</ele>
      </trkpt>
      <trkpt lat="44.31825" lon="6.59662">
        <ele>1967.515625</ele>
      </trkpt>
      <trkpt lat="44.3183" lon="6.59687">
        <ele>1961.9921875</ele>
      </trkpt>
      <trkpt lat="44.31832" lon="6.59696">
        <ele>1959.96875</ele>
      </trkpt>
      <trkpt lat="44.31833" lon="6.59704">
        <ele>1957.390625</ele>
      </trkpt>
      <trkpt lat="44.31833" lon="6.59714">
        <ele>1953.484375</ele>
      </trkpt>
      <trkpt lat="44.31833" lon="6.59724">
        <ele>1949.09375</ele>
      </trkpt>
      <trkpt lat="44.31832" lon="6.59732">
        <ele>1944.8828125</ele>
      </trkpt>
      <trkpt lat="44.3183" lon="6.59745">
        <ele>1938.5703125</ele>
      </trkpt>
      <trkpt lat="44.31831" lon="6.59749">
        <ele>1936.91015625</ele>
      </trkpt>
      <trkpt lat="44.31832" lon="6.59756">
        <ele>1934.25</ele>
      </trkpt>
      <trkpt lat="44.31834" lon="6.59759">
        <ele>1933.1953125</ele>
      </trkpt>
      <trkpt lat="44.31839" lon="6.59763">
        <ele>1931.94140625</ele>
      </trkpt>
      <trkpt lat="44.31842" lon="6.59764">
        <ele>1931.95703125</ele>
      </trkpt>
      <trkpt lat="44.31889" lon="6.59774">
        <ele>1929.19921875</ele>
      </trkpt>
      <trkpt lat="44.31903" lon="6.59778">
        <ele>1927.06640625</ele>
      </trkpt>
      <trkpt lat="44.31917" lon="6.59786">
        <ele>1923.9609375</ele>
      </trkpt>
      <trkpt lat="44.31926" lon="6.59789">
        <ele>1923.390625</ele>
      </trkpt>
      <trkpt lat="44.31929" lon="6.59789">
        <ele>1923.76171875</ele>
      </trkpt>
      <trkpt lat="44.31937" lon="6.59788">
        <ele>1925.19921875</ele>
      </trkpt>
      <trkpt lat="44.31947" lon="6.59784">
        <ele>1927.9375</ele>
      </trkpt>
      <trkpt lat="44.31959" lon="6.59781">
        <ele>1930.21484375</ele>
      </trkpt>
      <trkpt lat="44.31982" lon="6.59778">
        <ele>1939.09375</ele>
      </trkpt>
      <trkpt lat="44.32003" lon="6.59778">
        <ele>1948.62890625</ele>
      </trkpt>
      <trkpt lat="44.32006" lon="6.59779">
        <ele>1949.8984375</ele>
      </trkpt>
      <trkpt lat="44.3201" lon="6.59784">
        <ele>1951.015625</ele>
      </trkpt>
      <trkpt lat="44.32012" lon="6.5979">
        <ele>1950.734375</ele>
      </trkpt>
      <trkpt lat="44.32014" lon="6.59797">
        <ele>1949.96875</ele>
      </trkpt>
      <trkpt lat="44.32011" lon="6.59809">
        <ele>1946.1953125</ele>
      </trkpt>
      <trkpt lat="44.3201" lon="6.59815">
        <ele>1944.48046875</ele>
      </trkpt>
      <trkpt lat="44.32009" lon="6.59819">
        <ele>1942.9609375</ele>
      </trkpt>
      <trkpt lat="44.32009" lon="6.59824">
        <ele>1942.0625</ele>
      </trkpt>
      <trkpt lat="44.32009" lon="6.59829">
        <ele>1941.390625</ele>
      </trkpt>
      <trkpt lat="44.3201" lon="6.59834">
        <ele>1941.1875</ele>
      </trkpt>
      <trkpt lat="44.32018" lon="6.59859">
        <ele>1941.96484375</ele>
      </trkpt>
      <trkpt lat="44.32025" lon="6.59885">
        <ele>1943.01953125</ele>
      </trkpt>
      <trkpt lat="44.32027" lon="6.59896">
        <ele>1942.6640625</ele>
      </trkpt>
      <trkpt lat="44.32027" lon="6.59908">
        <ele>1940.8984375</ele>
      </trkpt>
      <trkpt lat="44.32027" lon="6.59915">
        <ele>1939.9375</ele>
      </trkpt>
      <trkpt lat="44.32023" lon="6.59938">
        <ele>1933.54296875</ele>
      </trkpt>
      <trkpt lat="44.32022" lon="6.59946">
        <ele>1931.546875</ele>
      </trkpt>
      <trkpt lat="44.32022" lon="6.59961">
        <ele>1928.83203125</ele>
      </trkpt>
      <trkpt lat="44.32024" lon="6.59976">
        <ele>1927.21484375</ele>
      </trkpt>
      <trkpt lat="44.32026" lon="6.59983">
        <ele>1926.8828125</ele>
      </trkpt>
      <trkpt lat="44.32031" lon="6.60007">
        <ele>1920.84375</ele>
      </trkpt>
      <trkpt lat="44.32033" lon="6.6003">
        <ele>1912.828125</ele>
      </trkpt>
      <trkpt lat="44.32035" lon="6.60043">
        <ele>1908.40234375</ele>
      </trkpt>
      <trkpt lat="44.32036" lon="6.6005">
        <ele>1904.98828125</ele>
      </trkpt>
      <trkpt lat="44.32038" lon="6.60056">
        <ele>1901.8515625</ele>
      </trkpt>
      <trkpt lat="44.32041" lon="6.60063">
        <ele>1898.96484375</ele>
      </trkpt>
      <trkpt lat="44.32045" lon="6.60068">
        <ele>1896.65234375</ele>
      </trkpt>
      <trkpt lat="44.32048" lon="6.60072">
        <ele>1894.92578125</ele>
      </trkpt>
      <trkpt lat="44.32052" lon="6.60077">
        <ele>1893.421875</ele>
      </trkpt>
      <trkpt lat="44.32056" lon="6.60081">
        <ele>1891.86328125</ele>
      </trkpt>
      <trkpt lat="44.32062" lon="6.60084">
        <ele>1891.1640625</ele>
      </trkpt>
      <trkpt lat="44.32067" lon="6.60086">
        <ele>1891.0859375</ele>
      </trkpt>
      <trkpt lat="44.32071" lon="6.60087">
        <ele>1891.40625</ele>
      </trkpt>
      <trkpt lat="44.32084" lon="6.60088">
        <ele>1893.71875</ele>
      </trkpt>
      <trkpt lat="44.32099" lon="6.60091">
        <ele>1895.93359375</ele>
      </trkpt>
      <trkpt lat="44.32107" lon="6.60092">
        <ele>1897.0859375</ele>
      </trkpt>
      <trkpt lat="44.32121" lon="6.60097">
        <ele>1897.41015625</ele>
      </trkpt>
      <trkpt lat="44.32135" lon="6.601">
        <ele>1900.08984375</ele>
      </trkpt>
      <trkpt lat="44.3215" lon="6.60099">
        <ele>1907.765625</ele>
      </trkpt>
      <trkpt lat="44.32169" lon="6.60096">
        <ele>1918.40234375</ele>
      </trkpt>
      <trkpt lat="44.32176" lon="6.60097">
        <ele>1921.0625</ele>
      </trkpt>
      <trkpt lat="44.32179" lon="6.60098">
        <ele>1922.21875</ele>
      </trkpt>
      <trkpt lat="44.32183" lon="6.60105">
        <ele>1922.20703125</ele>
      </trkpt>
      <trkpt lat="44.32185" lon="6.60108">
        <ele>1922.20703125</ele>
      </trkpt>
      <trkpt lat="44.32186" lon="6.60115">
        <ele>1920.29296875</ele>
      </trkpt>
      <trkpt lat="44.32187" lon="6.6012">
        <ele>1919.42578125</ele>
      </trkpt>
      <trkpt lat="44.32186" lon="6.60139">
        <ele>1912.625</ele>
      </trkpt>
      <trkpt lat="44.32185" lon="6.60165">
        <ele>1902.97265625</ele>
      </trkpt>
      <trkpt lat="44.32185" lon="6.60173">
        <ele>1899.6171875</ele>
      </trkpt>
      <trkpt lat="44.32186" lon="6.60181">
        <ele>1897.171875</ele>
      </trkpt>
      <trkpt lat="44.32188" lon="6.60188">
        <ele>1895.18359375</ele>
      </trkpt>
      <trkpt lat="44.32189" lon="6.60192">
        <ele>1893.828125</ele>
      </trkpt>
      <trkpt lat="44.32192" lon="6.60197">
        <ele>1892.78515625</ele>
      </trkpt>
      <trkpt lat="44.32195" lon="6.602">
        <ele>1892.47265625</ele>
      </trkpt>
      <trkpt lat="44.32197" lon="6.60203">
        <ele>1891.80078125</ele>
      </trkpt>
      <trkpt lat="44.322" lon="6.60205">
        <ele>1891.86328125</ele>
      </trkpt>
      <trkpt lat="44.32204" lon="6.60208">
        <ele>1892.2109375</ele>
      </trkpt>
      <trkpt lat="44.32218" lon="6.60217">
        <ele>1890.484375</ele>
      </trkpt>
      <trkpt lat="44.32225" lon="6.60224">
        <ele>1888.3046875</ele>
      </trkpt>
      <trkpt lat="44.32238" lon="6.60235">
        <ele>1884.53515625</ele>
      </trkpt>
      <trkpt lat="44.3225" lon="6.60246">
        <ele>1880.953125</ele>
      </trkpt>
      <trkpt lat="44.32263" lon="6.60256">
        <ele>1878.59375</ele>
      </trkpt>
      <trkpt lat="44.32271" lon="6.6026">
        <ele>1877.94921875</ele>
      </trkpt>
      <trkpt lat="44.3228" lon="6.60264">
        <ele>1877.63671875</ele>
      </trkpt>
      <trkpt lat="44.32296" lon="6.6027">
        <ele>1878.84765625</ele>
      </trkpt>
      <trkpt lat="44.32311" lon="6.60272">
        <ele>1882.3671875</ele>
      </trkpt>
      <trkpt lat="44.32317" lon="6.60272">
        <ele>1884.48046875</ele>
      </trkpt>
      <trkpt lat="44.32328" lon="6.60274">
        <ele>1886.94140625</ele>
      </trkpt>
      <trkpt lat="44.32338" lon="6.60278">
        <ele>1888.17578125</ele>
      </trkpt>
      <trkpt lat="44.32347" lon="6.60285">
        <ele>1888.7109375</ele>
      </trkpt>
      <trkpt lat="44.32351" lon="6.60291">
        <ele>1887.546875</ele>
      </trkpt>
      <trkpt lat="44.32356" lon="6.60295">
        <ele>1887.32421875</ele>
      </trkpt>
      <trkpt lat="44.32361" lon="6.60299">
        <ele>1887.4296875</ele>
      </trkpt>
      <trkpt lat="44.32369" lon="6.603">
        <ele>1889.0078125</ele>
      </trkpt>
      <trkpt lat="44.32374" lon="6.60304">
        <ele>1888.75</ele>
      </trkpt>
      <trkpt lat="44.32378" lon="6.60309">
        <ele>1887.8203125</ele>
      </trkpt>
      <trkpt lat="44.3238" lon="6.60314">
        <ele>1886.74609375</ele>
      </trkpt>
      <trkpt lat="44.32383" lon="6.60319">
        <ele>1885.2734375</ele>
      </trkpt>
      <trkpt lat="44.32391" lon="6.60368">
        <ele>1869.71875</ele>
      </trkpt>
      <trkpt lat="44.32392" lon="6.60375">
        <ele>1867.58203125</ele>
      </trkpt>
      <trkpt lat="44.32394" lon="6.6038">
        <ele>1865.86328125</ele>
      </trkpt>
      <trkpt lat="44.32399" lon="6.60388">
        <ele>1863.53125</ele>
      </trkpt>
      <trkpt lat="44.32405" lon="6.60395">
        <ele>1861.3125</ele>
      </trkpt>
      <trkpt lat="44.3241" lon="6.604">
        <ele>1860.12890625</ele>
      </trkpt>
      <trkpt lat="44.32419" lon="6.60403">
        <ele>1858.21875</ele>
      </trkpt>
      <trkpt lat="44.3245" lon="6.60402">
        <ele>1857.01953125</ele>
      </trkpt>
      <trkpt lat="44.3249" lon="6.60396">
        <ele>1854.9296875</ele>
      </trkpt>
      <trkpt lat="44.32527" lon="6.60391">
        <ele>1850.3046875</ele>
      </trkpt>
      <trkpt lat="44.32533" lon="6.6039">
        <ele>1849.03515625</ele>
      </trkpt>
      <trkpt lat="44.32539" lon="6.60386">
        <ele>1848.49609375</ele>
      </trkpt>
      <trkpt lat="44.32575" lon="6.60358">
        <ele>1844.96875</ele>
      </trkpt>
      <trkpt lat="44.32594" lon="6.60337">
        <ele>1840.41015625</ele>
      </trkpt>
      <trkpt lat="44.32598" lon="6.60332">
        <ele>1839.34375</ele>
      </trkpt>
      <trkpt lat="44.32613" lon="6.60315">
        <ele>1834.734375</ele>
      </trkpt>
      <trkpt lat="44.32636" lon="6.60265">
        <ele>1832.3671875</ele>
      </trkpt>
      <trkpt lat="44.32643" lon="6.60236">
        <ele>1833.8984375</ele>
      </trkpt>
      <trkpt lat="44.32644" lon="6.60216">
        <ele>1838.14453125</ele>
      </trkpt>
      <trkpt lat="44.32647" lon="6.60206">
        <ele>1839.07421875</ele>
      </trkpt>
      <trkpt lat="44.32662" lon="6.60187">
        <ele>1833.4296875</ele>
      </trkpt>
      <trkpt lat="44.32673" lon="6.60156">
        <ele>1832.2734375</ele>
      </trkpt>
      <trkpt lat="44.32679" lon="6.60146">
        <ele>1830.69140625</ele>
      </trkpt>
      <trkpt lat="44.3271" lon="6.60114">
        <ele>1816.54296875</ele>
      </trkpt>
      <trkpt lat="44.32713" lon="6.60109">
        <ele>1815.796875</ele>
      </trkpt>
      <trkpt lat="44.32716" lon="6.60102">
        <ele>1815.41015625</ele>
      </trkpt>
      <trkpt lat="44.32719" lon="6.60096">
        <ele>1815.10546875</ele>
      </trkpt>
      <trkpt lat="44.32724" lon="6.60057">
        <ele>1824.40234375</ele>
      </trkpt>
      <trkpt lat="44.32727" lon="6.60046">
        <ele>1826.15234375</ele>
      </trkpt>
      <trkpt lat="44.3273" lon="6.60038">
        <ele>1826.93359375</ele>
      </trkpt>
      <trkpt lat="44.32734" lon="6.60033">
        <ele>1826.5</ele>
      </trkpt>
      <trkpt lat="44.32738" lon="6.60029">
        <ele>1825.87109375</ele>
      </trkpt>
      <trkpt lat="44.32742" lon="6.60026">
        <ele>1824.625</ele>
      </trkpt>
      <trkpt lat="44.32746" lon="6.60024">
        <ele>1822.703125</ele>
      </trkpt>
      <trkpt lat="44.3275" lon="6.60023">
        <ele>1820.91796875</ele>
      </trkpt>
      <trkpt lat="44.32781" lon="6.60019">
        <ele>1800.9765625</ele>
      </trkpt>
      <trkpt lat="44.32784" lon="6.60019">
        <ele>1798.734375</ele>
      </trkpt>
      <trkpt lat="44.32787" lon="6.60018">
        <ele>1796.875</ele>
      </trkpt>
      <trkpt lat="44.32792" lon="6.60013">
        <ele>1794.6328125</ele>
      </trkpt>
      <trkpt lat="44.32795" lon="6.6001">
        <ele>1794.2421875</ele>
      </trkpt>
      <trkpt lat="44.32796" lon="6.60005">
        <ele>1795.34375</ele>
      </trkpt>
      <trkpt lat="44.32797" lon="6.59999">
        <ele>1796.4296875</ele>
      </trkpt>
      <trkpt lat="44.32798" lon="6.5994">
        <ele>1810.078125</ele>
      </trkpt>
      <trkpt lat="44.32797" lon="6.59899">
        <ele>1816.98828125</ele>
      </trkpt>
      <trkpt lat="44.32797" lon="6.59894">
        <ele>1817.5234375</ele>
      </trkpt>
      <trkpt lat="44.32799" lon="6.59888">
        <ele>1816.68359375</ele>
      </trkpt>
      <trkpt lat="44.32802" lon="6.59883">
        <ele>1814.5</ele>
      </trkpt>
      <trkpt lat="44.32825" lon="6.5984">
        <ele>1801.48828125</ele>
      </trkpt>
      <trkpt lat="44.32835" lon="6.59809">
        <ele>1796.7890625</ele>
      </trkpt>
      <trkpt lat="44.32839" lon="6.59794">
        <ele>1795.01953125</ele>
      </trkpt>
      <trkpt lat="44.32839" lon="6.59744">
        <ele>1796.44140625</ele>
      </trkpt>
      <trkpt lat="44.32836" lon="6.59704">
        <ele>1797.94921875</ele>
      </trkpt>
      <trkpt lat="44.32836" lon="6.59699">
        <ele>1797.40234375</ele>
      </trkpt>
      <trkpt lat="44.32833" lon="6.59689">
        <ele>1799.04296875</ele>
      </trkpt>
      <trkpt lat="44.3283" lon="6.59684">
        <ele>1801.0625</ele>
      </trkpt>
      <trkpt lat="44.32812" lon="6.59674">
        <ele>1814.390625</ele>
      </trkpt>
      <trkpt lat="44.32809" lon="6.59669">
        <ele>1816.14453125</ele>
      </trkpt>
      <trkpt lat="44.32806" lon="6.59665">
        <ele>1817.17578125</ele>
      </trkpt>
      <trkpt lat="44.32804" lon="6.59655">
        <ele>1817.3515625</ele>
      </trkpt>
      <trkpt lat="44.3281" lon="6.59592">
        <ele>1799.84765625</ele>
      </trkpt>
      <trkpt lat="44.32812" lon="6.59576">
        <ele>1796.25</ele>
      </trkpt>
      <trkpt lat="44.32826" lon="6.59526">
        <ele>1780.0859375</ele>
      </trkpt>
      <trkpt lat="44.32828" lon="6.59495">
        <ele>1776.66015625</ele>
      </trkpt>
      <trkpt lat="44.32825" lon="6.5946">
        <ele>1778.08984375</ele>
      </trkpt>
      <trkpt lat="44.32815" lon="6.59402">
        <ele>1784.28125</ele>
      </trkpt>
      <trkpt lat="44.32813" lon="6.59391">
        <ele>1785.6640625</ele>
      </trkpt>
      <trkpt lat="44.32812" lon="6.59379">
        <ele>1786.20703125</ele>
      </trkpt>
      <trkpt lat="44.32811" lon="6.5937">
        <ele>1786.71875</ele>
      </trkpt>
      <trkpt lat="44.32811" lon="6.59359">
        <ele>1786.421875</ele>
      </trkpt>
      <trkpt lat="44.32813" lon="6.59344">
        <ele>1784.65234375</ele>
      </trkpt>
      <trkpt lat="44.32811" lon="6.59334">
        <ele>1785.734375</ele>
      </trkpt>
      <trkpt lat="44.32777" lon="6.59256">
        <ele>1796.6875</ele>
      </trkpt>
      <trkpt lat="44.32776" lon="6.59252">
        <ele>1796.765625</ele>
      </trkpt>
      <trkpt lat="44.32776" lon="6.59246">
        <ele>1796.23828125</ele>
      </trkpt>
      <trkpt lat="44.32777" lon="6.59241">
        <ele>1795.23828125</ele>
      </trkpt>
      <trkpt lat="44.32778" lon="6.59235">
        <ele>1794.26171875</ele>
      </trkpt>
      <trkpt lat="44.3278" lon="6.59231">
        <ele>1793.40625</ele>
      </trkpt>
      <trkpt lat="44.32782" lon="6.59227">
        <ele>1792.12890625</ele>
      </trkpt>
      <trkpt lat="44.32813" lon="6.59205">
        <ele>1779.91015625</ele>
      </trkpt>
      <trkpt lat="44.32818" lon="6.592">
        <ele>1778.61328125</ele>
      </trkpt>
      <trkpt lat="44.32828" lon="6.59188">
        <ele>1776.40625</ele>
      </trkpt>
      <trkpt lat="44.32832" lon="6.59182">
        <ele>1775.49609375</ele>
      </trkpt>
      <trkpt lat="44.32841" lon="6.59168">
        <ele>1773.703125</ele>
      </trkpt>
      <trkpt lat="44.32847" lon="6.59152">
        <ele>1772.69140625</ele>
      </trkpt>
      <trkpt lat="44.32859" lon="6.5912">
        <ele>1770.125</ele>
      </trkpt>
      <trkpt lat="44.3286" lon="6.59111">
        <ele>1770.171875</ele>
      </trkpt>
      <trkpt lat="44.32861" lon="6.59104">
        <ele>1770.1640625</ele>
      </trkpt>
      <trkpt lat="44.32861" lon="6.59095">
        <ele>1770.66015625</ele>
      </trkpt>
      <trkpt lat="44.3286" lon="6.59069">
        <ele>1772.60546875</ele>
      </trkpt>
      <trkpt lat="44.32861" lon="6.59063">
        <ele>1772.6015625</ele>
      </trkpt>
      <trkpt lat="44.32863" lon="6.59057">
        <ele>1772.16015625</ele>
      </trkpt>
      <trkpt lat="44.3287" lon="6.59053">
        <ele>1770.16015625</ele>
      </trkpt>
      <trkpt lat="44.32879" lon="6.59054">
        <ele>1766.67578125</ele>
      </trkpt>
      <trkpt lat="44.32883" lon="6.59055">
        <ele>1765.453125</ele>
      </trkpt>
      <trkpt lat="44.32885" lon="6.5906">
        <ele>1764.3359375</ele>
      </trkpt>
      <trkpt lat="44.32886" lon="6.59065">
        <ele>1763.5</ele>
      </trkpt>
      <trkpt lat="44.32891" lon="6.59138">
        <ele>1755.94921875</ele>
      </trkpt>
      <trkpt lat="44.32892" lon="6.59153">
        <ele>1754.515625</ele>
      </trkpt>
      <trkpt lat="44.32892" lon="6.59164">
        <ele>1753.8671875</ele>
      </trkpt>
      <trkpt lat="44.32891" lon="6.59173">
        <ele>1753.7265625</ele>
      </trkpt>
      <trkpt lat="44.32886" lon="6.59193">
        <ele>1754.71875</ele>
      </trkpt>
      <trkpt lat="44.32886" lon="6.59198">
        <ele>1754.38671875</ele>
      </trkpt>
      <trkpt lat="44.32886" lon="6.5921">
        <ele>1753.65234375</ele>
      </trkpt>
      <trkpt lat="44.32889" lon="6.59227">
        <ele>1751.06640625</ele>
      </trkpt>
      <trkpt lat="44.32889" lon="6.59231">
        <ele>1750.73828125</ele>
      </trkpt>
      <trkpt lat="44.32889" lon="6.5924">
        <ele>1750.08203125</ele>
      </trkpt>
      <trkpt lat="44.32884" lon="6.59253">
        <ele>1751.375</ele>
      </trkpt>
      <trkpt lat="44.32876" lon="6.59273">
        <ele>1752.953125</ele>
      </trkpt>
      <trkpt lat="44.32873" lon="6.59283">
        <ele>1753.53125</ele>
      </trkpt>
      <trkpt lat="44.32869" lon="6.59304">
        <ele>1753.79296875</ele>
      </trkpt>
      <trkpt lat="44.32869" lon="6.59308">
        <ele>1753.44140625</ele>
      </trkpt>
      <trkpt lat="44.32869" lon="6.59313">
        <ele>1753.09375</ele>
      </trkpt>
      <trkpt lat="44.32872" lon="6.59319">
        <ele>1750.83984375</ele>
      </trkpt>
      <trkpt lat="44.32877" lon="6.59322">
        <ele>1747.63671875</ele>
      </trkpt>
      <trkpt lat="44.32883" lon="6.59323">
        <ele>1744.609375</ele>
      </trkpt>
      <trkpt lat="44.32888" lon="6.59319">
        <ele>1742.1875</ele>
      </trkpt>
      <trkpt lat="44.32924" lon="6.59268">
        <ele>1731.6015625</ele>
      </trkpt>
      <trkpt lat="44.32927" lon="6.59264">
        <ele>1731.09765625</ele>
      </trkpt>
      <trkpt lat="44.32928" lon="6.59256">
        <ele>1731.4453125</ele>
      </trkpt>
      <trkpt lat="44.32927" lon="6.59244">
        <ele>1733.1484375</ele>
      </trkpt>
      <trkpt lat="44.32922" lon="6.59228">
        <ele>1736.75390625</ele>
      </trkpt>
      <trkpt lat="44.32921" lon="6.59219">
        <ele>1738.08203125</ele>
      </trkpt>
      <trkpt lat="44.32923" lon="6.59211">
        <ele>1737.94921875</ele>
      </trkpt>
      <trkpt lat="44.32927" lon="6.59203">
        <ele>1736.96484375</ele>
      </trkpt>
      <trkpt lat="44.32944" lon="6.59181">
        <ele>1730.453125</ele>
      </trkpt>
      <trkpt lat="44.32946" lon="6.59175">
        <ele>1729.77734375</ele>
      </trkpt>
      <trkpt lat="44.32948" lon="6.59169">
        <ele>1729.16015625</ele>
      </trkpt>
      <trkpt lat="44.32949" lon="6.59163">
        <ele>1729.0234375</ele>
      </trkpt>
      <trkpt lat="44.3295" lon="6.59156">
        <ele>1728.88671875</ele>
      </trkpt>
      <trkpt lat="44.32949" lon="6.59149">
        <ele>1729.94140625</ele>
      </trkpt>
      <trkpt lat="44.32949" lon="6.59141">
        <ele>1730.578125</ele>
      </trkpt>
      <trkpt lat="44.3295" lon="6.59134">
        <ele>1730.73828125</ele>
      </trkpt>
      <trkpt lat="44.32951" lon="6.59126">
        <ele>1730.90234375</ele>
      </trkpt>
      <trkpt lat="44.32953" lon="6.59119">
        <ele>1730.6015625</ele>
      </trkpt>
      <trkpt lat="44.32956" lon="6.59112">
        <ele>1730.21875</ele>
      </trkpt>
      <trkpt lat="44.32988" lon="6.59035">
        <ele>1728.54296875</ele>
      </trkpt>
      <trkpt lat="44.32995" lon="6.59024">
        <ele>1728.76171875</ele>
      </trkpt>
      <trkpt lat="44.33004" lon="6.59014">
        <ele>1728.48046875</ele>
      </trkpt>
      <trkpt lat="44.33028" lon="6.58998">
        <ele>1725.1640625</ele>
      </trkpt>
      <trkpt lat="44.33038" lon="6.58994">
        <ele>1723.578125</ele>
      </trkpt>
      <trkpt lat="44.33043" lon="6.58993">
        <ele>1722.27734375</ele>
      </trkpt>
      <trkpt lat="44.33049" lon="6.58992">
        <ele>1720.98046875</ele>
      </trkpt>
      <trkpt lat="44.3307" lon="6.58987">
        <ele>1716.17578125</ele>
      </trkpt>
      <trkpt lat="44.33077" lon="6.58983">
        <ele>1715.015625</ele>
      </trkpt>
      <trkpt lat="44.33083" lon="6.5898">
        <ele>1713.6328125</ele>
      </trkpt>
      <trkpt lat="44.3309" lon="6.58975">
        <ele>1712.63671875</ele>
      </trkpt>
      <trkpt lat="44.33095" lon="6.58969">
        <ele>1711.875</ele>
      </trkpt>
      <trkpt lat="44.33105" lon="6.58958">
        <ele>1710.578125</ele>
      </trkpt>
      <trkpt lat="44.33108" lon="6.58951">
        <ele>1710.484375</ele>
      </trkpt>
      <trkpt lat="44.3311" lon="6.58944">
        <ele>1710.9375</ele>
      </trkpt>
      <trkpt lat="44.33111" lon="6.58935">
        <ele>1711.98046875</ele>
      </trkpt>
      <trkpt lat="44.3311" lon="6.58891">
        <ele>1713.61328125</ele>
      </trkpt>
      <trkpt lat="44.33108" lon="6.58886">
        <ele>1714.72265625</ele>
      </trkpt>
      <trkpt lat="44.33107" lon="6.5888">
        <ele>1715.32421875</ele>
      </trkpt>
      <trkpt lat="44.33105" lon="6.58875">
        <ele>1716.1328125</ele>
      </trkpt>
      <trkpt lat="44.33101" lon="6.5887">
        <ele>1716.484375</ele>
      </trkpt>
      <trkpt lat="44.33059" lon="6.58817">
        <ele>1722.65625</ele>
      </trkpt>
      <trkpt lat="44.33053" lon="6.58812">
        <ele>1722.9453125</ele>
      </trkpt>
      <trkpt lat="44.33048" lon="6.58807">
        <ele>1723.6171875</ele>
      </trkpt>
      <trkpt lat="44.33031" lon="6.58802">
        <ele>1728.5859375</ele>
      </trkpt>
      <trkpt lat="44.3302" lon="6.58795">
        <ele>1730.578125</ele>
      </trkpt>
      <trkpt lat="44.33011" lon="6.58784">
        <ele>1731.375</ele>
      </trkpt>
      <trkpt lat="44.33009" lon="6.58776">
        <ele>1730.1484375</ele>
      </trkpt>
      <trkpt lat="44.33008" lon="6.58771">
        <ele>1729.06640625</ele>
      </trkpt>
      <trkpt lat="44.33009" lon="6.58767">
        <ele>1727.26953125</ele>
      </trkpt>
      <trkpt lat="44.3301" lon="6.58762">
        <ele>1726.41015625</ele>
      </trkpt>
      <trkpt lat="44.33011" lon="6.58758">
        <ele>1725.9921875</ele>
      </trkpt>
      <trkpt lat="44.33052" lon="6.58741">
        <ele>1709.34375</ele>
      </trkpt>
      <trkpt lat="44.33066" lon="6.58737">
        <ele>1703.89453125</ele>
      </trkpt>
      <trkpt lat="44.3308" lon="6.5873">
        <ele>1698.88671875</ele>
      </trkpt>
      <trkpt lat="44.33108" lon="6.58707">
        <ele>1692.72265625</ele>
      </trkpt>
      <trkpt lat="44.33113" lon="6.58698">
        <ele>1692.97265625</ele>
      </trkpt>
      <trkpt lat="44.33118" lon="6.58689">
        <ele>1693.484375</ele>
      </trkpt>
      <trkpt lat="44.33122" lon="6.58679">
        <ele>1694.390625</ele>
      </trkpt>
      <trkpt lat="44.33125" lon="6.58665">
        <ele>1696.2265625</ele>
      </trkpt>
      <trkpt lat="44.33128" lon="6.58651">
        <ele>1697.81640625</ele>
      </trkpt>
      <trkpt lat="44.33134" lon="6.58637">
        <ele>1698.0546875</ele>
      </trkpt>
      <trkpt lat="44.33138" lon="6.58624">
        <ele>1698.375</ele>
      </trkpt>
      <trkpt lat="44.33143" lon="6.58614">
        <ele>1697.765625</ele>
      </trkpt>
      <trkpt lat="44.33146" lon="6.58609">
        <ele>1697.296875</ele>
      </trkpt>
      <trkpt lat="44.33161" lon="6.58589">
        <ele>1693.4921875</ele>
      </trkpt>
      <trkpt lat="44.33169" lon="6.58578">
        <ele>1691.23046875</ele>
      </trkpt>
      <trkpt lat="44.3318" lon="6.5856">
        <ele>1688.16015625</ele>
      </trkpt>
      <trkpt lat="44.33185" lon="6.58552">
        <ele>1686.53515625</ele>
      </trkpt>
      <trkpt lat="44.33188" lon="6.58543">
        <ele>1685.83203125</ele>
      </trkpt>
      <trkpt lat="44.33192" lon="6.58535">
        <ele>1685.609375</ele>
      </trkpt>
      <trkpt lat="44.33197" lon="6.58516">
        <ele>1686.09765625</ele>
      </trkpt>
      <trkpt lat="44.33198" lon="6.58508">
        <ele>1686.640625</ele>
      </trkpt>
      <trkpt lat="44.33198" lon="6.58504">
        <ele>1687.078125</ele>
      </trkpt>
      <trkpt lat="44.33197" lon="6.58496">
        <ele>1688.00390625</ele>
      </trkpt>
      <trkpt lat="44.33185" lon="6.58466">
        <ele>1693.59765625</ele>
      </trkpt>
      <trkpt lat="44.33185" lon="6.58462">
        <ele>1694.12109375</ele>
      </trkpt>
      <trkpt lat="44.33184" lon="6.58458">
        <ele>1694.9921875</ele>
      </trkpt>
      <trkpt lat="44.33192" lon="6.58444">
        <ele>1695.5</ele>
      </trkpt>
      <trkpt lat="44.33198" lon="6.58435">
        <ele>1696.734375</ele>
      </trkpt>
      <trkpt lat="44.33213" lon="6.58444">
        <ele>1695.24609375</ele>
      </trkpt>
      <trkpt lat="44.33232" lon="6.58455">
        <ele>1692.1640625</ele>
      </trkpt>
      <trkpt lat="44.33238" lon="6.5846">
        <ele>1690.83984375</ele>
      </trkpt>
      <trkpt lat="44.33243" lon="6.58467">
        <ele>1688.52734375</ele>
      </trkpt>
      <trkpt lat="44.33259" lon="6.58501">
        <ele>1678.66796875</ele>
      </trkpt>
      <trkpt lat="44.33266" lon="6.58507">
        <ele>1676.30078125</ele>
      </trkpt>
      <trkpt lat="44.33272" lon="6.58511">
        <ele>1674.3828125</ele>
      </trkpt>
      <trkpt lat="44.3328" lon="6.58513">
        <ele>1672.8984375</ele>
      </trkpt>
      <trkpt lat="44.33287" lon="6.58513">
        <ele>1672.05078125</ele>
      </trkpt>
      <trkpt lat="44.333" lon="6.58511">
        <ele>1671.28125</ele>
      </trkpt>
      <trkpt lat="44.33358" lon="6.58501">
        <ele>1663.8828125</ele>
      </trkpt>
      <trkpt lat="44.33362" lon="6.58498">
        <ele>1663.8203125</ele>
      </trkpt>
      <trkpt lat="44.33365" lon="6.58496">
        <ele>1664.0078125</ele>
      </trkpt>
      <trkpt lat="44.33401" lon="6.58463">
        <ele>1667.97265625</ele>
      </trkpt>
      <trkpt lat="44.33407" lon="6.5846">
        <ele>1667.625</ele>
      </trkpt>
      <trkpt lat="44.33419" lon="6.58452">
        <ele>1666.96875</ele>
      </trkpt>
      <trkpt lat="44.33425" lon="6.5845">
        <ele>1665.87109375</ele>
      </trkpt>
      <trkpt lat="44.33438" lon="6.58448">
        <ele>1662.96875</ele>
      </trkpt>
      <trkpt lat="44.33472" lon="6.58447">
        <ele>1654.37890625</ele>
      </trkpt>
      <trkpt lat="44.33476" lon="6.58446">
        <ele>1653.6953125</ele>
      </trkpt>
      <trkpt lat="44.33484" lon="6.58444">
        <ele>1652.2421875</ele>
      </trkpt>
      <trkpt lat="44.33491" lon="6.58438">
        <ele>1651.84765625</ele>
      </trkpt>
      <trkpt lat="44.33498" lon="6.58431">
        <ele>1651.40234375</ele>
      </trkpt>
      <trkpt lat="44.33501" lon="6.58427">
        <ele>1651.80859375</ele>
      </trkpt>
      <trkpt lat="44.33531" lon="6.58369">
        <ele>1657.85546875</ele>
      </trkpt>
      <trkpt lat="44.33551" lon="6.58332">
        <ele>1663.49609375</ele>
      </trkpt>
      <trkpt lat="44.33554" lon="6.58328">
        <ele>1663.81640625</ele>
      </trkpt>
      <trkpt lat="44.3356" lon="6.58322">
        <ele>1663.94921875</ele>
      </trkpt>
      <trkpt lat="44.33566" lon="6.58318">
        <ele>1664.1015625</ele>
      </trkpt>
      <trkpt lat="44.33569" lon="6.58317">
        <ele>1663.96484375</ele>
      </trkpt>
      <trkpt lat="44.336" lon="6.58311">
        <ele>1673.20703125</ele>
      </trkpt>
      <trkpt lat="44.33607" lon="6.58309">
        <ele>1675.82421875</ele>
      </trkpt>
      <trkpt lat="44.33612" lon="6.58304">
        <ele>1678.24609375</ele>
      </trkpt>
      <trkpt lat="44.33617" lon="6.58299">
        <ele>1680.61328125</ele>
      </trkpt>
      <trkpt lat="44.33631" lon="6.58286">
        <ele>1685.75390625</ele>
      </trkpt>
      <trkpt lat="44.33645" lon="6.58295">
        <ele>1696.2109375</ele>
      </trkpt>
      <trkpt lat="44.33646" lon="6.58306">
        <ele>1696.7109375</ele>
      </trkpt>
      <trkpt lat="44.33648" lon="6.58317">
        <ele>1697.28515625</ele>
      </trkpt>
      <trkpt lat="44.33646" lon="6.58341">
        <ele>1698.20703125</ele>
      </trkpt>
      <trkpt lat="44.33643" lon="6.5835">
        <ele>1696.3828125</ele>
      </trkpt>
      <trkpt lat="44.33641" lon="6.58354">
        <ele>1694.8359375</ele>
      </trkpt>
      <trkpt lat="44.33627" lon="6.58371">
        <ele>1685.77734375</ele>
      </trkpt>
      <trkpt lat="44.33624" lon="6.58378">
        <ele>1684.45703125</ele>
      </trkpt>
      <trkpt lat="44.33622" lon="6.58388">
        <ele>1683.75</ele>
      </trkpt>
      <trkpt lat="44.33611" lon="6.58464">
        <ele>1681.71484375</ele>
      </trkpt>
      <trkpt lat="44.33612" lon="6.58475">
        <ele>1683.33984375</ele>
      </trkpt>
      <trkpt lat="44.33615" lon="6.58496">
        <ele>1688.48828125</ele>
      </trkpt>
      <trkpt lat="44.33615" lon="6.58503">
        <ele>1689.890625</ele>
      </trkpt>
      <trkpt lat="44.33583" lon="6.5857">
        <ele>1681.8984375</ele>
      </trkpt>
      <trkpt lat="44.33554" lon="6.58639">
        <ele>1680.83203125</ele>
      </trkpt>
      <trkpt lat="44.33539" lon="6.58678">
        <ele>1680.30078125</ele>
      </trkpt>
      <trkpt lat="44.33531" lon="6.58693">
        <ele>1677.8671875</ele>
      </trkpt>
      <trkpt lat="44.33514" lon="6.58717">
        <ele>1672.1328125</ele>
      </trkpt>
      <trkpt lat="44.3351" lon="6.58725">
        <ele>1670.59375</ele>
      </trkpt>
      <trkpt lat="44.33508" lon="6.58733">
        <ele>1670.609375</ele>
      </trkpt>
      <trkpt lat="44.33504" lon="6.58763">
        <ele>1672.63671875</ele>
      </trkpt>
      <trkpt lat="44.33503" lon="6.5877">
        <ele>1672.65625</ele>
      </trkpt>
      <trkpt lat="44.33496" lon="6.58791">
        <ele>1670.11328125</ele>
      </trkpt>
      <trkpt lat="44.33494" lon="6.58802">
        <ele>1669.515625</ele>
      </trkpt>
      <trkpt lat="44.33482" lon="6.5893">
        <ele>1658.640625</ele>
      </trkpt>
      <trkpt lat="44.33482" lon="6.58946">
        <ele>1655.8359375</ele>
      </trkpt>
      <trkpt lat="44.33483" lon="6.58962">
        <ele>1653.52734375</ele>
      </trkpt>
      <trkpt lat="44.33491" lon="6.5901">
        <ele>1646.265625</ele>
      </trkpt>
      <trkpt lat="44.33494" lon="6.59025">
        <ele>1643.2578125</ele>
      </trkpt>
      <trkpt lat="44.33499" lon="6.59039">
        <ele>1641.45703125</ele>
      </trkpt>
      <trkpt lat="44.33509" lon="6.59058">
        <ele>1637.62109375</ele>
      </trkpt>
      <trkpt lat="44.33513" lon="6.59068">
        <ele>1634.9296875</ele>
      </trkpt>
      <trkpt lat="44.33521" lon="6.59087">
        <ele>1628.546875</ele>
      </trkpt>
      <trkpt lat="44.33524" lon="6.59098">
        <ele>1624.5859375</ele>
      </trkpt>
      <trkpt lat="44.33526" lon="6.59102">
        <ele>1624.76171875</ele>
      </trkpt>
      <trkpt lat="44.33531" lon="6.59107">
        <ele>1626.109375</ele>
      </trkpt>
      <trkpt lat="44.33534" lon="6.59111">
        <ele>1627.0546875</ele>
      </trkpt>
      <trkpt lat="44.33538" lon="6.59114">
        <ele>1628.76171875</ele>
      </trkpt>
      <trkpt lat="44.33546" lon="6.59116">
        <ele>1632.3125</ele>
      </trkpt>
      <trkpt lat="44.33561" lon="6.59117">
        <ele>1639.8984375</ele>
      </trkpt>
      <trkpt lat="44.33567" lon="6.59119">
        <ele>1643.16015625</ele>
      </trkpt>
      <trkpt lat="44.33571" lon="6.59121">
        <ele>1645.3359375</ele>
      </trkpt>
      <trkpt lat="44.33593" lon="6.59138">
        <ele>1657.04296875</ele>
      </trkpt>
      <trkpt lat="44.33595" lon="6.59141">
        <ele>1658.3828125</ele>
      </trkpt>
      <trkpt lat="44.33597" lon="6.59145">
        <ele>1659.81640625</ele>
      </trkpt>
      <trkpt lat="44.33598" lon="6.59153">
        <ele>1660.8515625</ele>
      </trkpt>
      <trkpt lat="44.33598" lon="6.59157">
        <ele>1662.15234375</ele>
      </trkpt>
      <trkpt lat="44.33597" lon="6.59161">
        <ele>1663.1484375</ele>
      </trkpt>
      <trkpt lat="44.33586" lon="6.59193">
        <ele>1667.86328125</ele>
      </trkpt>
      <trkpt lat="44.33583" lon="6.59198">
        <ele>1667.61328125</ele>
      </trkpt>
      <trkpt lat="44.3358" lon="6.592">
        <ele>1666.171875</ele>
      </trkpt>
      <trkpt lat="44.33564" lon="6.59209">
        <ele>1657.43359375</ele>
      </trkpt>
      <trkpt lat="44.33555" lon="6.59215">
        <ele>1653.5078125</ele>
      </trkpt>
      <trkpt lat="44.33543" lon="6.59228">
        <ele>1649.57421875</ele>
      </trkpt>
      <trkpt lat="44.33527" lon="6.59243">
        <ele>1642.97265625</ele>
      </trkpt>
      <trkpt lat="44.33523" lon="6.59248">
        <ele>1641.6484375</ele>
      </trkpt>
      <trkpt lat="44.33521" lon="6.59255">
        <ele>1642.328125</ele>
      </trkpt>
      <trkpt lat="44.33519" lon="6.59261">
        <ele>1642.80859375</ele>
      </trkpt>
      <trkpt lat="44.33517" lon="6.59296">
        <ele>1645.9765625</ele>
      </trkpt>
      <trkpt lat="44.33516" lon="6.59326">
        <ele>1647.89453125</ele>
      </trkpt>
      <trkpt lat="44.33514" lon="6.59334">
        <ele>1646.75390625</ele>
      </trkpt>
      <trkpt lat="44.33513" lon="6.59343">
        <ele>1645.62109375</ele>
      </trkpt>
      <trkpt lat="44.33503" lon="6.59392">
        <ele>1632.44140625</ele>
      </trkpt>
      <trkpt lat="44.33502" lon="6.59403">
        <ele>1629.62109375</ele>
      </trkpt>
      <trkpt lat="44.33507" lon="6.59425">
        <ele>1630.3046875</ele>
      </trkpt>
      <trkpt lat="44.33513" lon="6.59456">
        <ele>1629.69921875</ele>
      </trkpt>
      <trkpt lat="44.33517" lon="6.59482">
        <ele>1627.32421875</ele>
      </trkpt>
      <trkpt lat="44.33519" lon="6.59492">
        <ele>1628.8671875</ele>
      </trkpt>
      <trkpt lat="44.33522" lon="6.59499">
        <ele>1632.71484375</ele>
      </trkpt>
      <trkpt lat="44.33525" lon="6.59505">
        <ele>1636.30859375</ele>
      </trkpt>
      <trkpt lat="44.33529" lon="6.59508">
        <ele>1640.55078125</ele>
      </trkpt>
      <trkpt lat="44.33532" lon="6.59517">
        <ele>1643.73046875</ele>
      </trkpt>
      <trkpt lat="44.33532" lon="6.59523">
        <ele>1644.703125</ele>
      </trkpt>
      <trkpt lat="44.33532" lon="6.59534">
        <ele>1646.32421875</ele>
      </trkpt>
      <trkpt lat="44.33529" lon="6.59543">
        <ele>1645.85546875</ele>
      </trkpt>
      <trkpt lat="44.33527" lon="6.59548">
        <ele>1644.57421875</ele>
      </trkpt>
      <trkpt lat="44.33512" lon="6.59585">
        <ele>1636.0234375</ele>
      </trkpt>
      <trkpt lat="44.33508" lon="6.59603">
        <ele>1633.63671875</ele>
      </trkpt>
      <trkpt lat="44.33503" lon="6.59664">
        <ele>1628.3359375</ele>
      </trkpt>
      <trkpt lat="44.33504" lon="6.59669">
        <ele>1629.55859375</ele>
      </trkpt>
      <trkpt lat="44.33505" lon="6.59674">
        <ele>1630.78125</ele>
      </trkpt>
      <trkpt lat="44.33509" lon="6.59683">
        <ele>1635.11328125</ele>
      </trkpt>
      <trkpt lat="44.33512" lon="6.59688">
        <ele>1638.3046875</ele>
      </trkpt>
      <trkpt lat="44.33513" lon="6.59696">
        <ele>1639.5859375</ele>
      </trkpt>
      <trkpt lat="44.33512" lon="6.59704">
        <ele>1638.9296875</ele>
      </trkpt>
      <trkpt lat="44.33511" lon="6.5971">
        <ele>1638.19140625</ele>
      </trkpt>
      <trkpt lat="44.3351" lon="6.59714">
        <ele>1637.71484375</ele>
      </trkpt>
      <trkpt lat="44.33484" lon="6.59765">
        <ele>1623.8828125</ele>
      </trkpt>
      <trkpt lat="44.3348" lon="6.59777">
        <ele>1622.7578125</ele>
      </trkpt>
      <trkpt lat="44.33478" lon="6.59811">
        <ele>1627.703125</ele>
      </trkpt>
      <trkpt lat="44.33476" lon="6.59817">
        <ele>1627.8046875</ele>
      </trkpt>
      <trkpt lat="44.33475" lon="6.59822">
        <ele>1628.2578125</ele>
      </trkpt>
      <trkpt lat="44.33472" lon="6.59827">
        <ele>1627.39453125</ele>
      </trkpt>
      <trkpt lat="44.33468" lon="6.5983">
        <ele>1626.47265625</ele>
      </trkpt>
      <trkpt lat="44.33453" lon="6.59845">
        <ele>1621.66796875</ele>
      </trkpt>
      <trkpt lat="44.33417" lon="6.59879">
        <ele>1609.4140625</ele>
      </trkpt>
      <trkpt lat="44.33415" lon="6.59883">
        <ele>1608.08203125</ele>
      </trkpt>
      <trkpt lat="44.33411" lon="6.5989">
        <ele>1606.23046875</ele>
      </trkpt>
      <trkpt lat="44.33409" lon="6.59897">
        <ele>1604.83203125</ele>
      </trkpt>
      <trkpt lat="44.33409" lon="6.59907">
        <ele>1604.48046875</ele>
      </trkpt>
      <trkpt lat="44.3341" lon="6.59915">
        <ele>1604.79296875</ele>
      </trkpt>
      <trkpt lat="44.33414" lon="6.59922">
        <ele>1605.5546875</ele>
      </trkpt>
      <trkpt lat="44.33415" lon="6.59927">
        <ele>1605.6015625</ele>
      </trkpt>
      <trkpt lat="44.33416" lon="6.59937">
        <ele>1603.74609375</ele>
      </trkpt>
      <trkpt lat="44.33415" lon="6.59948">
        <ele>1599.9609375</ele>
      </trkpt>
      <trkpt lat="44.33414" lon="6.59953">
        <ele>1598</ele>
      </trkpt>
      <trkpt lat="44.33411" lon="6.5996">
        <ele>1595.56640625</ele>
      </trkpt>
      <trkpt lat="44.33409" lon="6.59968">
        <ele>1592.34765625</ele>
      </trkpt>
      <trkpt lat="44.33409" lon="6.59974">
        <ele>1590.71484375</ele>
      </trkpt>
      <trkpt lat="44.33409" lon="6.5998">
        <ele>1588.7578125</ele>
      </trkpt>
      <trkpt lat="44.33411" lon="6.5999">
        <ele>1585.4296875</ele>
      </trkpt>
      <trkpt lat="44.33413" lon="6.59994">
        <ele>1583.05859375</ele>
      </trkpt>
      <trkpt lat="44.33415" lon="6.6">
        <ele>1579.47265625</ele>
      </trkpt>
      <trkpt lat="44.33418" lon="6.60006">
        <ele>1576.453125</ele>
      </trkpt>
      <trkpt lat="44.33422" lon="6.6001">
        <ele>1573.984375</ele>
      </trkpt>
      <trkpt lat="44.33438" lon="6.6002">
        <ele>1567.98828125</ele>
      </trkpt>
      <trkpt lat="44.33459" lon="6.60026">
        <ele>1563.25390625</ele>
      </trkpt>
      <trkpt lat="44.33475" lon="6.60029">
        <ele>1559.92578125</ele>
      </trkpt>
      <trkpt lat="44.3348" lon="6.60029">
        <ele>1559.421875</ele>
      </trkpt>
      <trkpt lat="44.33487" lon="6.60027">
        <ele>1560.26953125</ele>
      </trkpt>
      <trkpt lat="44.3352" lon="6.60005">
        <ele>1572.1328125</ele>
      </trkpt>
      <trkpt lat="44.33524" lon="6.60004">
        <ele>1573.05078125</ele>
      </trkpt>
      <trkpt lat="44.33528" lon="6.60004">
        <ele>1573.46484375</ele>
      </trkpt>
      <trkpt lat="44.33534" lon="6.60004">
        <ele>1573.98046875</ele>
      </trkpt>
      <trkpt lat="44.33538" lon="6.60007">
        <ele>1572.4453125</ele>
      </trkpt>
      <trkpt lat="44.33543" lon="6.60011">
        <ele>1570.5078125</ele>
      </trkpt>
      <trkpt lat="44.33546" lon="6.60014">
        <ele>1568.91015625</ele>
      </trkpt>
      <trkpt lat="44.33548" lon="6.60018">
        <ele>1567.36328125</ele>
      </trkpt>
      <trkpt lat="44.33553" lon="6.60021">
        <ele>1566.37109375</ele>
      </trkpt>
      <trkpt lat="44.33557" lon="6.60021">
        <ele>1567.046875</ele>
      </trkpt>
      <trkpt lat="44.33577" lon="6.6002">
        <ele>1570.67578125</ele>
      </trkpt>
      <trkpt lat="44.33583" lon="6.60022">
        <ele>1572.796875</ele>
      </trkpt>
      <trkpt lat="44.33593" lon="6.60027">
        <ele>1575.59375</ele>
      </trkpt>
      <trkpt lat="44.33596" lon="6.60027">
        <ele>1577.27734375</ele>
      </trkpt>
      <trkpt lat="44.33604" lon="6.60025">
        <ele>1581.796875</ele>
      </trkpt>
      <trkpt lat="44.3361" lon="6.60021">
        <ele>1586.05078125</ele>
      </trkpt>
      <trkpt lat="44.33624" lon="6.60005">
        <ele>1594.7890625</ele>
      </trkpt>
      <trkpt lat="44.33628" lon="6.60003">
        <ele>1596.55859375</ele>
      </trkpt>
      <trkpt lat="44.33635" lon="6.6">
        <ele>1600.015625</ele>
      </trkpt>
      <trkpt lat="44.33639" lon="6.60002">
        <ele>1603.1875</ele>
      </trkpt>
      <trkpt lat="44.33643" lon="6.60003">
        <ele>1606.41015625</ele>
      </trkpt>
      <trkpt lat="44.33646" lon="6.60005">
        <ele>1608.87890625</ele>
      </trkpt>
      <trkpt lat="44.33651" lon="6.60009">
        <ele>1612.34765625</ele>
      </trkpt>
      <trkpt lat="44.33656" lon="6.60029">
        <ele>1618.02734375</ele>
      </trkpt>
      <trkpt lat="44.33654" lon="6.60043">
        <ele>1617.03515625</ele>
      </trkpt>
      <trkpt lat="44.33644" lon="6.60073">
        <ele>1614.6953125</ele>
      </trkpt>
      <trkpt lat="44.33626" lon="6.6012">
        <ele>1611.125</ele>
      </trkpt>
      <trkpt lat="44.33622" lon="6.6013">
        <ele>1611.15234375</ele>
      </trkpt>
      <trkpt lat="44.33619" lon="6.60146">
        <ele>1613.69140625</ele>
      </trkpt>
      <trkpt lat="44.33614" lon="6.60151">
        <ele>1611.7734375</ele>
      </trkpt>
      <trkpt lat="44.33595" lon="6.60166">
        <ele>1601.62890625</ele>
      </trkpt>
      <trkpt lat="44.33592" lon="6.60171">
        <ele>1600.64453125</ele>
      </trkpt>
      <trkpt lat="44.33587" lon="6.60203">
        <ele>1606.14453125</ele>
      </trkpt>
      <trkpt lat="44.33579" lon="6.60242">
        <ele>1601.26953125</ele>
      </trkpt>
      <trkpt lat="44.3357" lon="6.60264">
        <ele>1594.66796875</ele>
      </trkpt>
      <trkpt lat="44.33568" lon="6.60272">
        <ele>1593.18359375</ele>
      </trkpt>
      <trkpt lat="44.33568" lon="6.60277">
        <ele>1593.44921875</ele>
      </trkpt>
      <trkpt lat="44.33568" lon="6.60283">
        <ele>1593.71484375</ele>
      </trkpt>
      <trkpt lat="44.33569" lon="6.60288">
        <ele>1594.8671875</ele>
      </trkpt>
      <trkpt lat="44.33576" lon="6.60323">
        <ele>1602.1875</ele>
      </trkpt>
      <trkpt lat="44.33575" lon="6.60334">
        <ele>1603.8046875</ele>
      </trkpt>
      <trkpt lat="44.33572" lon="6.60341">
        <ele>1603.50390625</ele>
      </trkpt>
      <trkpt lat="44.33569" lon="6.60347">
        <ele>1602.2265625</ele>
      </trkpt>
      <trkpt lat="44.33565" lon="6.60351">
        <ele>1599.4765625</ele>
      </trkpt>
      <trkpt lat="44.33563" lon="6.60356">
        <ele>1598.4921875</ele>
      </trkpt>
      <trkpt lat="44.33561" lon="6.6036">
        <ele>1597.4609375</ele>
      </trkpt>
      <trkpt lat="44.33558" lon="6.60366">
        <ele>1596.78125</ele>
      </trkpt>
      <trkpt lat="44.33557" lon="6.60374">
        <ele>1597.2109375</ele>
      </trkpt>
      <trkpt lat="44.3356" lon="6.60403">
        <ele>1609.61328125</ele>
      </trkpt>
      <trkpt lat="44.33558" lon="6.60415">
        <ele>1612.88671875</ele>
      </trkpt>
      <trkpt lat="44.33555" lon="6.60419">
        <ele>1611.1484375</ele>
      </trkpt>
      <trkpt lat="44.3354" lon="6.60431">
        <ele>1599.4375</ele>
      </trkpt>
      <trkpt lat="44.33538" lon="6.60435">
        <ele>1598.1328125</ele>
      </trkpt>
      <trkpt lat="44.33536" lon="6.60442">
        <ele>1597.51171875</ele>
      </trkpt>
      <trkpt lat="44.33536" lon="6.60447">
        <ele>1598.4609375</ele>
      </trkpt>
      <trkpt lat="44.33533" lon="6.60492">
        <ele>1604.96484375</ele>
      </trkpt>
      <trkpt lat="44.33531" lon="6.60501">
        <ele>1604.89453125</ele>
      </trkpt>
      <trkpt lat="44.33521" lon="6.60513">
        <ele>1597.76171875</ele>
      </trkpt>
      <trkpt lat="44.33517" lon="6.60527">
        <ele>1597.1796875</ele>
      </trkpt>
      <trkpt lat="44.33513" lon="6.60562">
        <ele>1602.29296875</ele>
      </trkpt>
      <trkpt lat="44.33509" lon="6.60568">
        <ele>1599.76953125</ele>
      </trkpt>
      <trkpt lat="44.33482" lon="6.60588">
        <ele>1580.01953125</ele>
      </trkpt>
      <trkpt lat="44.33478" lon="6.60594">
        <ele>1577.4375</ele>
      </trkpt>
      <trkpt lat="44.33476" lon="6.60601">
        <ele>1576.59765625</ele>
      </trkpt>
      <trkpt lat="44.33475" lon="6.60609">
        <ele>1575.99609375</ele>
      </trkpt>
      <trkpt lat="44.33475" lon="6.60617">
        <ele>1576.40625</ele>
      </trkpt>
      <trkpt lat="44.33487" lon="6.60679">
        <ele>1590.5234375</ele>
      </trkpt>
      <trkpt lat="44.33486" lon="6.60695">
        <ele>1591.14453125</ele>
      </trkpt>
      <trkpt lat="44.33482" lon="6.60711">
        <ele>1590.5703125</ele>
      </trkpt>
      <trkpt lat="44.33476" lon="6.60728">
        <ele>1589.29296875</ele>
      </trkpt>
      <trkpt lat="44.33466" lon="6.60741">
        <ele>1586.3828125</ele>
      </trkpt>
      <trkpt lat="44.33453" lon="6.6075">
        <ele>1581.53125</ele>
      </trkpt>
      <trkpt lat="44.33445" lon="6.60756">
        <ele>1578.4921875</ele>
      </trkpt>
      <trkpt lat="44.33437" lon="6.60756">
        <ele>1574.59765625</ele>
      </trkpt>
      <trkpt lat="44.33419" lon="6.60757">
        <ele>1565.5625</ele>
      </trkpt>
      <trkpt lat="44.33416" lon="6.60758">
        <ele>1564.34375</ele>
      </trkpt>
      <trkpt lat="44.3341" lon="6.60763">
        <ele>1563.9140625</ele>
      </trkpt>
      <trkpt lat="44.33408" lon="6.60766">
        <ele>1563.38671875</ele>
      </trkpt>
      <trkpt lat="44.33401" lon="6.60809">
        <ele>1568.953125</ele>
      </trkpt>
      <trkpt lat="44.33393" lon="6.60841">
        <ele>1568.0546875</ele>
      </trkpt>
      <trkpt lat="44.33381" lon="6.60864">
        <ele>1564.65625</ele>
      </trkpt>
      <trkpt lat="44.33379" lon="6.60867">
        <ele>1564.2109375</ele>
      </trkpt>
      <trkpt lat="44.33376" lon="6.60868">
        <ele>1563.18359375</ele>
      </trkpt>
      <trkpt lat="44.33372" lon="6.60868">
        <ele>1561.65234375</ele>
      </trkpt>
      <trkpt lat="44.33357" lon="6.60872">
        <ele>1557.0078125</ele>
      </trkpt>
      <trkpt lat="44.33351" lon="6.60878">
        <ele>1554.7734375</ele>
      </trkpt>
      <trkpt lat="44.33347" lon="6.60883">
        <ele>1551.78125</ele>
      </trkpt>
      <trkpt lat="44.33335" lon="6.60916">
        <ele>1547.25390625</ele>
      </trkpt>
      <trkpt lat="44.33318" lon="6.60953">
        <ele>1541.5234375</ele>
      </trkpt>
      <trkpt lat="44.33312" lon="6.60962">
        <ele>1539.45703125</ele>
      </trkpt>
      <trkpt lat="44.33301" lon="6.60974">
        <ele>1536.84765625</ele>
      </trkpt>
      <trkpt lat="44.33298" lon="6.60979">
        <ele>1536.125</ele>
      </trkpt>
      <trkpt lat="44.33296" lon="6.60985">
        <ele>1535.66015625</ele>
      </trkpt>
      <trkpt lat="44.33296" lon="6.60991">
        <ele>1534.88671875</ele>
      </trkpt>
      <trkpt lat="44.33298" lon="6.60996">
        <ele>1534.65625</ele>
      </trkpt>
      <trkpt lat="44.333" lon="6.61">
        <ele>1534.37109375</ele>
      </trkpt>
      <trkpt lat="44.33322" lon="6.61019">
        <ele>1534.00390625</ele>
      </trkpt>
      <trkpt lat="44.33352" lon="6.61035">
        <ele>1533.78515625</ele>
      </trkpt>
      <trkpt lat="44.33367" lon="6.61049">
        <ele>1531.5078125</ele>
      </trkpt>
      <trkpt lat="44.33383" lon="6.61071">
        <ele>1526.8046875</ele>
      </trkpt>
      <trkpt lat="44.33409" lon="6.6111">
        <ele>1516.5078125</ele>
      </trkpt>
      <trkpt lat="44.33426" lon="6.61133">
        <ele>1506.140625</ele>
      </trkpt>
      <trkpt lat="44.33435" lon="6.61139">
        <ele>1503.80078125</ele>
      </trkpt>
      <trkpt lat="44.33443" lon="6.61143">
        <ele>1501.96875</ele>
      </trkpt>
      <trkpt lat="44.33451" lon="6.61145">
        <ele>1501.046875</ele>
      </trkpt>
      <trkpt lat="44.3346" lon="6.61145">
        <ele>1501.00390625</ele>
      </trkpt>
      <trkpt lat="44.33512" lon="6.61142">
        <ele>1502.0859375</ele>
      </trkpt>
      <trkpt lat="44.33563" lon="6.61137">
        <ele>1504.5234375</ele>
      </trkpt>
      <trkpt lat="44.33584" lon="6.61141">
        <ele>1503.4296875</ele>
      </trkpt>
      <trkpt lat="44.33626" lon="6.61151">
        <ele>1501.70703125</ele>
      </trkpt>
      <trkpt lat="44.33655" lon="6.61163">
        <ele>1499.69921875</ele>
      </trkpt>
      <trkpt lat="44.33687" lon="6.61185">
        <ele>1493.16015625</ele>
      </trkpt>
      <trkpt lat="44.3371" lon="6.61203">
        <ele>1485.44921875</ele>
      </trkpt>
      <trkpt lat="44.33718" lon="6.61205">
        <ele>1484.91015625</ele>
      </trkpt>
      <trkpt lat="44.33742" lon="6.61206">
        <ele>1486.0703125</ele>
      </trkpt>
      <trkpt lat="44.33763" lon="6.61218">
        <ele>1478.90625</ele>
      </trkpt>
      <trkpt lat="44.33812" lon="6.61219">
        <ele>1478.671875</ele>
      </trkpt>
      <trkpt lat="44.33823" lon="6.61224">
        <ele>1476.68359375</ele>
      </trkpt>
      <trkpt lat="44.33845" lon="6.61236">
        <ele>1470.09375</ele>
      </trkpt>
      <trkpt lat="44.33851" lon="6.61236">
        <ele>1470.55859375</ele>
      </trkpt>
      <trkpt lat="44.33877" lon="6.61224">
        <ele>1486.57421875</ele>
      </trkpt>
      <trkpt lat="44.33881" lon="6.61224">
        <ele>1488.05078125</ele>
      </trkpt>
      <trkpt lat="44.33886" lon="6.61224">
        <ele>1489.52734375</ele>
      </trkpt>
      <trkpt lat="44.33892" lon="6.61227">
        <ele>1489.9296875</ele>
      </trkpt>
      <trkpt lat="44.33897" lon="6.6123">
        <ele>1490.0078125</ele>
      </trkpt>
      <trkpt lat="44.33922" lon="6.6126">
        <ele>1486.80859375</ele>
      </trkpt>
      <trkpt lat="44.33945" lon="6.6129">
        <ele>1487.59765625</ele>
      </trkpt>
      <trkpt lat="44.33952" lon="6.61309">
        <ele>1483.15234375</ele>
      </trkpt>
      <trkpt lat="44.33964" lon="6.61345">
        <ele>1471.17578125</ele>
      </trkpt>
      <trkpt lat="44.33991" lon="6.61391">
        <ele>1454.85546875</ele>
      </trkpt>
      <trkpt lat="44.33995" lon="6.61397">
        <ele>1452.0390625</ele>
      </trkpt>
      <trkpt lat="44.34002" lon="6.61403">
        <ele>1450.98046875</ele>
      </trkpt>
      <trkpt lat="44.34007" lon="6.61408">
        <ele>1449.3359375</ele>
      </trkpt>
      <trkpt lat="44.34019" lon="6.61415">
        <ele>1449.69140625</ele>
      </trkpt>
      <trkpt lat="44.34085" lon="6.61437">
        <ele>1476.23046875</ele>
      </trkpt>
      <trkpt lat="44.34092" lon="6.6144">
        <ele>1477.72265625</ele>
      </trkpt>
      <trkpt lat="44.34096" lon="6.61446">
        <ele>1476.640625</ele>
      </trkpt>
      <trkpt lat="44.34098" lon="6.61451">
        <ele>1474.3515625</ele>
      </trkpt>
      <trkpt lat="44.341" lon="6.61454">
        <ele>1473.3359375</ele>
      </trkpt>
      <trkpt lat="44.34102" lon="6.61464">
        <ele>1468.12890625</ele>
      </trkpt>
      <trkpt lat="44.34102" lon="6.61474">
        <ele>1461.92578125</ele>
      </trkpt>
      <trkpt lat="44.34103" lon="6.61481">
        <ele>1457.484375</ele>
      </trkpt>
      <trkpt lat="44.34106" lon="6.61489">
        <ele>1453.4375</ele>
      </trkpt>
      <trkpt lat="44.34109" lon="6.61495">
        <ele>1450.4375</ele>
      </trkpt>
      <trkpt lat="44.34114" lon="6.61499">
        <ele>1449.28125</ele>
      </trkpt>
      <trkpt lat="44.34145" lon="6.61524">
        <ele>1438.26953125</ele>
      </trkpt>
      <trkpt lat="44.34164" lon="6.61537">
        <ele>1430.875</ele>
      </trkpt>
      <trkpt lat="44.34171" lon="6.61538">
        <ele>1430.90625</ele>
      </trkpt>
      <trkpt lat="44.34197" lon="6.61529">
        <ele>1440.73828125</ele>
      </trkpt>
      <trkpt lat="44.34204" lon="6.61529">
        <ele>1441.8203125</ele>
      </trkpt>
      <trkpt lat="44.34209" lon="6.6153">
        <ele>1441.609375</ele>
      </trkpt>
      <trkpt lat="44.34215" lon="6.61534">
        <ele>1440.04296875</ele>
      </trkpt>
      <trkpt lat="44.34219" lon="6.61538">
        <ele>1437.33984375</ele>
      </trkpt>
      <trkpt lat="44.34226" lon="6.61545">
        <ele>1432.7109375</ele>
      </trkpt>
      <trkpt lat="44.3423" lon="6.6155">
        <ele>1430.26171875</ele>
      </trkpt>
      <trkpt lat="44.34237" lon="6.61554">
        <ele>1428.078125</ele>
      </trkpt>
      <trkpt lat="44.34242" lon="6.61556">
        <ele>1427.265625</ele>
      </trkpt>
      <trkpt lat="44.34247" lon="6.61558">
        <ele>1427.140625</ele>
      </trkpt>
      <trkpt lat="44.34253" lon="6.61558">
        <ele>1428.6875</ele>
      </trkpt>
      <trkpt lat="44.34282" lon="6.61557">
        <ele>1437.80859375</ele>
      </trkpt>
      <trkpt lat="44.34298" lon="6.61564">
        <ele>1437.80859375</ele>
      </trkpt>
      <trkpt lat="44.34328" lon="6.61593">
        <ele>1426.6171875</ele>
      </trkpt>
      <trkpt lat="44.34368" lon="6.6163">
        <ele>1407.51953125</ele>
      </trkpt>
      <trkpt lat="44.34377" lon="6.61637">
        <ele>1402.49609375</ele>
      </trkpt>
      <trkpt lat="44.34381" lon="6.61638">
        <ele>1401.47265625</ele>
      </trkpt>
      <trkpt lat="44.34388" lon="6.61641">
        <ele>1398.87890625</ele>
      </trkpt>
      <trkpt lat="44.34394" lon="6.61642">
        <ele>1397.74609375</ele>
      </trkpt>
      <trkpt lat="44.34402" lon="6.61641">
        <ele>1397.96875</ele>
      </trkpt>
      <trkpt lat="44.34408" lon="6.6164">
        <ele>1398.24609375</ele>
      </trkpt>
      <trkpt lat="44.34416" lon="6.61638">
        <ele>1399.50390625</ele>
      </trkpt>
      <trkpt lat="44.34421" lon="6.61633">
        <ele>1402.203125</ele>
      </trkpt>
      <trkpt lat="44.34435" lon="6.61624">
        <ele>1408.12890625</ele>
      </trkpt>
      <trkpt lat="44.34451" lon="6.61603">
        <ele>1420.4921875</ele>
      </trkpt>
      <trkpt lat="44.34455" lon="6.61601">
        <ele>1421.68359375</ele>
      </trkpt>
      <trkpt lat="44.34459" lon="6.616">
        <ele>1422.23828125</ele>
      </trkpt>
      <trkpt lat="44.34462" lon="6.616">
        <ele>1422.12890625</ele>
      </trkpt>
      <trkpt lat="44.34469" lon="6.61601">
        <ele>1422.6875</ele>
      </trkpt>
      <trkpt lat="44.34473" lon="6.61603">
        <ele>1422.30078125</ele>
      </trkpt>
      <trkpt lat="44.34484" lon="6.61615">
        <ele>1418.47265625</ele>
      </trkpt>
      <trkpt lat="44.34503" lon="6.61618">
        <ele>1421.7578125</ele>
      </trkpt>
      <trkpt lat="44.34507" lon="6.6162">
        <ele>1421.68359375</ele>
      </trkpt>
      <trkpt lat="44.3451" lon="6.61623">
        <ele>1421.296875</ele>
      </trkpt>
      <trkpt lat="44.34514" lon="6.61629">
        <ele>1418.58984375</ele>
      </trkpt>
      <trkpt lat="44.34517" lon="6.61636">
        <ele>1415.265625</ele>
      </trkpt>
      <trkpt lat="44.34519" lon="6.61641">
        <ele>1412.59765625</ele>
      </trkpt>
      <trkpt lat="44.34523" lon="6.61649">
        <ele>1408.1484375</ele>
      </trkpt>
      <trkpt lat="44.34525" lon="6.61653">
        <ele>1406.453125</ele>
      </trkpt>
      <trkpt lat="44.34533" lon="6.61659">
        <ele>1403.5859375</ele>
      </trkpt>
      <trkpt lat="44.34539" lon="6.61662">
        <ele>1402.40625</ele>
      </trkpt>
      <trkpt lat="44.34566" lon="6.61666">
        <ele>1403.3984375</ele>
      </trkpt>
      <trkpt lat="44.34592" lon="6.61674">
        <ele>1397.66015625</ele>
      </trkpt>
      <trkpt lat="44.34608" lon="6.61682">
        <ele>1391.44140625</ele>
      </trkpt>
      <trkpt lat="44.34618" lon="6.61686">
        <ele>1387.7265625</ele>
      </trkpt>
      <trkpt lat="44.3463" lon="6.61685">
        <ele>1387.4609375</ele>
      </trkpt>
      <trkpt lat="44.34658" lon="6.61677">
        <ele>1386.046875</ele>
      </trkpt>
      <trkpt lat="44.34691" lon="6.61664">
        <ele>1385.57421875</ele>
      </trkpt>
      <trkpt lat="44.34724" lon="6.61646">
        <ele>1383.73828125</ele>
      </trkpt>
      <trkpt lat="44.3477" lon="6.6162">
        <ele>1387.484375</ele>
      </trkpt>
      <trkpt lat="44.34779" lon="6.61617">
        <ele>1387.6953125</ele>
      </trkpt>
      <trkpt lat="44.34787" lon="6.61616">
        <ele>1386.9375</ele>
      </trkpt>
      <trkpt lat="44.34797" lon="6.61618">
        <ele>1383.73046875</ele>
      </trkpt>
      <trkpt lat="44.34806" lon="6.61623">
        <ele>1380.1484375</ele>
      </trkpt>
      <trkpt lat="44.34816" lon="6.6163">
        <ele>1374.8671875</ele>
      </trkpt>
      <trkpt lat="44.34821" lon="6.61633">
        <ele>1372.5859375</ele>
      </trkpt>
      <trkpt lat="44.34827" lon="6.61636">
        <ele>1370.98828125</ele>
      </trkpt>
      <trkpt lat="44.34834" lon="6.61636">
        <ele>1370.5546875</ele>
      </trkpt>
      <trkpt lat="44.34838" lon="6.61636">
        <ele>1370.3046875</ele>
      </trkpt>
      <trkpt lat="44.34845" lon="6.61633">
        <ele>1371.15625</ele>
      </trkpt>
      <trkpt lat="44.34902" lon="6.61624">
        <ele>1372.0390625</ele>
      </trkpt>
      <trkpt lat="44.34966" lon="6.61615">
        <ele>1368.77734375</ele>
      </trkpt>
      <trkpt lat="44.35042" lon="6.61598">
        <ele>1350.7890625</ele>
      </trkpt>
      <trkpt lat="44.3505" lon="6.61597">
        <ele>1346.83984375</ele>
      </trkpt>
      <trkpt lat="44.35054" lon="6.61595">
        <ele>1344.8828125</ele>
      </trkpt>
      <trkpt lat="44.35059" lon="6.61589">
        <ele>1343</ele>
      </trkpt>
      <trkpt lat="44.35062" lon="6.61583">
        <ele>1343.1796875</ele>
      </trkpt>
      <trkpt lat="44.35064" lon="6.61578">
        <ele>1343.0703125</ele>
      </trkpt>
      <trkpt lat="44.35064" lon="6.61572">
        <ele>1344.2578125</ele>
      </trkpt>
      <trkpt lat="44.35063" lon="6.61544">
        <ele>1351.15234375</ele>
      </trkpt>
      <trkpt lat="44.3508" lon="6.61486">
        <ele>1348.21484375</ele>
      </trkpt>
      <trkpt lat="44.35093" lon="6.61453">
        <ele>1348.34375</ele>
      </trkpt>
      <trkpt lat="44.35096" lon="6.61447">
        <ele>1348.16796875</ele>
      </trkpt>
      <trkpt lat="44.351" lon="6.61441">
        <ele>1347.20703125</ele>
      </trkpt>
      <trkpt lat="44.35104" lon="6.61437">
        <ele>1346.04296875</ele>
      </trkpt>
      <trkpt lat="44.35109" lon="6.61435">
        <ele>1344.34765625</ele>
      </trkpt>
      <trkpt lat="44.35113" lon="6.61433">
        <ele>1342.6875</ele>
      </trkpt>
      <trkpt lat="44.35117" lon="6.61432">
        <ele>1340.74609375</ele>
      </trkpt>
      <trkpt lat="44.35124" lon="6.61431">
        <ele>1337.69921875</ele>
      </trkpt>
      <trkpt lat="44.35182" lon="6.6142">
        <ele>1346.58203125</ele>
      </trkpt>
      <trkpt lat="44.35211" lon="6.61416">
        <ele>1362.96875</ele>
      </trkpt>
      <trkpt lat="44.35216" lon="6.61417">
        <ele>1365.6875</ele>
      </trkpt>
      <trkpt lat="44.3522" lon="6.61419">
        <ele>1367.4609375</ele>
      </trkpt>
      <trkpt lat="44.35224" lon="6.61423">
        <ele>1367.97265625</ele>
      </trkpt>
      <trkpt lat="44.35227" lon="6.61426">
        <ele>1368.8828125</ele>
      </trkpt>
      <trkpt lat="44.35229" lon="6.61431">
        <ele>1368.87890625</ele>
      </trkpt>
      <trkpt lat="44.35235" lon="6.61462">
        <ele>1364.640625</ele>
      </trkpt>
      <trkpt lat="44.3524" lon="6.61469">
        <ele>1365.5625</ele>
      </trkpt>
      <trkpt lat="44.35244" lon="6.61476">
        <ele>1366.6328125</ele>
      </trkpt>
      <trkpt lat="44.35256" lon="6.61489">
        <ele>1369.9140625</ele>
      </trkpt>
      <trkpt lat="44.35258" lon="6.61493">
        <ele>1369.93359375</ele>
      </trkpt>
      <trkpt lat="44.3526" lon="6.61497">
        <ele>1369.9296875</ele>
      </trkpt>
      <trkpt lat="44.35261" lon="6.61504">
        <ele>1368.73046875</ele>
      </trkpt>
      <trkpt lat="44.35261" lon="6.61508">
        <ele>1367.54296875</ele>
      </trkpt>
      <trkpt lat="44.3526" lon="6.61515">
        <ele>1364.90625</ele>
      </trkpt>
      <trkpt lat="44.35258" lon="6.61522">
        <ele>1362.03515625</ele>
      </trkpt>
      <trkpt lat="44.35257" lon="6.61527">
        <ele>1360.03125</ele>
      </trkpt>
      <trkpt lat="44.35257" lon="6.61537">
        <ele>1357.41015625</ele>
      </trkpt>
      <trkpt lat="44.35257" lon="6.61546">
        <ele>1354.90625</ele>
      </trkpt>
      <trkpt lat="44.3526" lon="6.61561">
        <ele>1352.67578125</ele>
      </trkpt>
      <trkpt lat="44.35268" lon="6.61592">
        <ele>1348.40234375</ele>
      </trkpt>
      <trkpt lat="44.35288" lon="6.61634">
        <ele>1347.26953125</ele>
      </trkpt>
      <trkpt lat="44.35304" lon="6.61666">
        <ele>1345.37890625</ele>
      </trkpt>
      <trkpt lat="44.35326" lon="6.61699">
        <ele>1341.65625</ele>
      </trkpt>
      <trkpt lat="44.35344" lon="6.61723">
        <ele>1338.6015625</ele>
      </trkpt>
      <trkpt lat="44.35362" lon="6.61739">
        <ele>1337.23046875</ele>
      </trkpt>
      <trkpt lat="44.35435" lon="6.61779">
        <ele>1334.2265625</ele>
      </trkpt>
      <trkpt lat="44.35446" lon="6.61786">
        <ele>1333.91796875</ele>
      </trkpt>
      <trkpt lat="44.35462" lon="6.61803">
        <ele>1331.2890625</ele>
      </trkpt>
      <trkpt lat="44.3548" lon="6.61829">
        <ele>1327.1171875</ele>
      </trkpt>
      <trkpt lat="44.35514" lon="6.61878">
        <ele>1322.28125</ele>
      </trkpt>
      <trkpt lat="44.35528" lon="6.61896">
        <ele>1320.23046875</ele>
      </trkpt>
      <trkpt lat="44.3556" lon="6.61937">
        <ele>1314.83203125</ele>
      </trkpt>
      <trkpt lat="44.35578" lon="6.61962">
        <ele>1311.046875</ele>
      </trkpt>
      <trkpt lat="44.35588" lon="6.61979">
        <ele>1306.76953125</ele>
      </trkpt>
      <trkpt lat="44.35606" lon="6.62013">
        <ele>1297.66796875</ele>
      </trkpt>
      <trkpt lat="44.35609" lon="6.62019">
        <ele>1296.23046875</ele>
      </trkpt>
      <trkpt lat="44.35613" lon="6.62024">
        <ele>1294.75390625</ele>
      </trkpt>
      <trkpt lat="44.35616" lon="6.62026">
        <ele>1294.109375</ele>
      </trkpt>
      <trkpt lat="44.35619" lon="6.62028">
        <ele>1293.46875</ele>
      </trkpt>
      <trkpt lat="44.35625" lon="6.62029">
        <ele>1293</ele>
      </trkpt>
      <trkpt lat="44.3563" lon="6.6203">
        <ele>1292.53515625</ele>
      </trkpt>
      <trkpt lat="44.35633" lon="6.62029">
        <ele>1292.0390625</ele>
      </trkpt>
      <trkpt lat="44.35637" lon="6.62029">
        <ele>1291.16796875</ele>
      </trkpt>
      <trkpt lat="44.35641" lon="6.62026">
        <ele>1290.76171875</ele>
      </trkpt>
      <trkpt lat="44.35651" lon="6.62019">
        <ele>1289.9140625</ele>
      </trkpt>
      <trkpt lat="44.3566" lon="6.62008">
        <ele>1289.81640625</ele>
      </trkpt>
      <trkpt lat="44.3567" lon="6.61996">
        <ele>1289.97265625</ele>
      </trkpt>
      <trkpt lat="44.3568" lon="6.61981">
        <ele>1291.09765625</ele>
      </trkpt>
      <trkpt lat="44.35686" lon="6.61969">
        <ele>1292.78125</ele>
      </trkpt>
      <trkpt lat="44.35691" lon="6.61953">
        <ele>1299.1796875</ele>
      </trkpt>
      <trkpt lat="44.35695" lon="6.61949">
        <ele>1301.6328125</ele>
      </trkpt>
      <trkpt lat="44.35697" lon="6.61946">
        <ele>1303.3984375</ele>
      </trkpt>
      <trkpt lat="44.35701" lon="6.61943">
        <ele>1305.66015625</ele>
      </trkpt>
      <trkpt lat="44.35706" lon="6.61942">
        <ele>1308.01171875</ele>
      </trkpt>
      <trkpt lat="44.35712" lon="6.61942">
        <ele>1310.03125</ele>
      </trkpt>
      <trkpt lat="44.35715" lon="6.61945">
        <ele>1310.5234375</ele>
      </trkpt>
      <trkpt lat="44.35719" lon="6.61948">
        <ele>1311.0234375</ele>
      </trkpt>
      <trkpt lat="44.35721" lon="6.61952">
        <ele>1310.33203125</ele>
      </trkpt>
      <trkpt lat="44.35736" lon="6.61985">
        <ele>1303.45703125</ele>
      </trkpt>
      <trkpt lat="44.3574" lon="6.6199">
        <ele>1302.84375</ele>
      </trkpt>
      <trkpt lat="44.35746" lon="6.61996">
        <ele>1303.1171875</ele>
      </trkpt>
      <trkpt lat="44.35757" lon="6.62004">
        <ele>1305.41796875</ele>
      </trkpt>
      <trkpt lat="44.35763" lon="6.6201">
        <ele>1306.03125</ele>
      </trkpt>
      <trkpt lat="44.35768" lon="6.62019">
        <ele>1304.76953125</ele>
      </trkpt>
      <trkpt lat="44.35772" lon="6.62029">
        <ele>1302.6484375</ele>
      </trkpt>
      <trkpt lat="44.35775" lon="6.62036">
        <ele>1301.66015625</ele>
      </trkpt>
      <trkpt lat="44.35779" lon="6.62041">
        <ele>1301.5859375</ele>
      </trkpt>
      <trkpt lat="44.35787" lon="6.62048">
        <ele>1302.66015625</ele>
      </trkpt>
      <trkpt lat="44.35791" lon="6.62054">
        <ele>1302.140625</ele>
      </trkpt>
      <trkpt lat="44.35795" lon="6.62064">
        <ele>1300.26171875</ele>
      </trkpt>
      <trkpt lat="44.35803" lon="6.62091">
        <ele>1291.64453125</ele>
      </trkpt>
      <trkpt lat="44.35807" lon="6.62101">
        <ele>1288.890625</ele>
      </trkpt>
      <trkpt lat="44.3581" lon="6.62108">
        <ele>1287.03515625</ele>
      </trkpt>
      <trkpt lat="44.35816" lon="6.62115">
        <ele>1285.33203125</ele>
      </trkpt>
      <trkpt lat="44.35819" lon="6.62122">
        <ele>1283.48046875</ele>
      </trkpt>
      <trkpt lat="44.35823" lon="6.62128">
        <ele>1281.93359375</ele>
      </trkpt>
      <trkpt lat="44.35827" lon="6.62138">
        <ele>1278.6875</ele>
      </trkpt>
      <trkpt lat="44.35831" lon="6.62146">
        <ele>1276.21484375</ele>
      </trkpt>
      <trkpt lat="44.35834" lon="6.62152">
        <ele>1274.8203125</ele>
      </trkpt>
      <trkpt lat="44.35839" lon="6.62157">
        <ele>1273.95703125</ele>
      </trkpt>
      <trkpt lat="44.35845" lon="6.62161">
        <ele>1273.5078125</ele>
      </trkpt>
      <trkpt lat="44.35849" lon="6.62163">
        <ele>1273.69921875</ele>
      </trkpt>
      <trkpt lat="44.35881" lon="6.62177">
        <ele>1272.98828125</ele>
      </trkpt>
      <trkpt lat="44.35899" lon="6.62181">
        <ele>1274.703125</ele>
      </trkpt>
      <trkpt lat="44.35916" lon="6.62183">
        <ele>1275.80859375</ele>
      </trkpt>
      <trkpt lat="44.35921" lon="6.62185">
        <ele>1275.30078125</ele>
      </trkpt>
      <trkpt lat="44.35925" lon="6.62187">
        <ele>1274.73828125</ele>
      </trkpt>
      <trkpt lat="44.35931" lon="6.62191">
        <ele>1273.4296875</ele>
      </trkpt>
      <trkpt lat="44.35937" lon="6.62198">
        <ele>1271.41796875</ele>
      </trkpt>
      <trkpt lat="44.35957" lon="6.62231">
        <ele>1259.703125</ele>
      </trkpt>
      <trkpt lat="44.35963" lon="6.62235">
        <ele>1258.44921875</ele>
      </trkpt>
      <trkpt lat="44.35967" lon="6.62237">
        <ele>1257.73046875</ele>
      </trkpt>
      <trkpt lat="44.3597" lon="6.62238">
        <ele>1257.3515625</ele>
      </trkpt>
      <trkpt lat="44.35975" lon="6.62237">
        <ele>1257.875</ele>
      </trkpt>
      <trkpt lat="44.3598" lon="6.62235">
        <ele>1258.84375</ele>
      </trkpt>
      <trkpt lat="44.35985" lon="6.6223">
        <ele>1261.08984375</ele>
      </trkpt>
      <trkpt lat="44.36" lon="6.62208">
        <ele>1269.6875</ele>
      </trkpt>
      <trkpt lat="44.36009" lon="6.62199">
        <ele>1272.9296875</ele>
      </trkpt>
      <trkpt lat="44.36012" lon="6.62198">
        <ele>1273.265625</ele>
      </trkpt>
      <trkpt lat="44.36015" lon="6.62197">
        <ele>1273.59375</ele>
      </trkpt>
      <trkpt lat="44.3602" lon="6.62198">
        <ele>1273.2109375</ele>
      </trkpt>
      <trkpt lat="44.36023" lon="6.62198">
        <ele>1273.1328125</ele>
      </trkpt>
      <trkpt lat="44.36027" lon="6.622">
        <ele>1272.34375</ele>
      </trkpt>
      <trkpt lat="44.36031" lon="6.62206">
        <ele>1270.20703125</ele>
      </trkpt>
      <trkpt lat="44.36033" lon="6.62211">
        <ele>1268.68359375</ele>
      </trkpt>
      <trkpt lat="44.36037" lon="6.62221">
        <ele>1264.74609375</ele>
      </trkpt>
      <trkpt lat="44.3604" lon="6.62244">
        <ele>1256.66015625</ele>
      </trkpt>
      <trkpt lat="44.36043" lon="6.6225">
        <ele>1254.4296875</ele>
      </trkpt>
      <trkpt lat="44.36046" lon="6.62255">
        <ele>1252.99609375</ele>
      </trkpt>
      <trkpt lat="44.3605" lon="6.62258">
        <ele>1251.9609375</ele>
      </trkpt>
      <trkpt lat="44.36053" lon="6.62259">
        <ele>1251.69140625</ele>
      </trkpt>
      <trkpt lat="44.36114" lon="6.62269">
        <ele>1248.0546875</ele>
      </trkpt>
      <trkpt lat="44.36122" lon="6.6227">
        <ele>1247.5234375</ele>
      </trkpt>
      <trkpt lat="44.36129" lon="6.62269">
        <ele>1247.59375</ele>
      </trkpt>
      <trkpt lat="44.36139" lon="6.62266">
        <ele>1247.69140625</ele>
      </trkpt>
      <trkpt lat="44.36148" lon="6.62263">
        <ele>1248.02734375</ele>
      </trkpt>
      <trkpt lat="44.3616" lon="6.62256">
        <ele>1249.62890625</ele>
      </trkpt>
      <trkpt lat="44.36171" lon="6.62247">
        <ele>1251.66015625</ele>
      </trkpt>
      <trkpt lat="44.36176" lon="6.62244">
        <ele>1252.375</ele>
      </trkpt>
      <trkpt lat="44.36183" lon="6.62241">
        <ele>1253.05078125</ele>
      </trkpt>
      <trkpt lat="44.36189" lon="6.62238">
        <ele>1253.46484375</ele>
      </trkpt>
      <trkpt lat="44.36196" lon="6.6224">
        <ele>1252.953125</ele>
      </trkpt>
      <trkpt lat="44.36202" lon="6.62242">
        <ele>1252.1015625</ele>
      </trkpt>
      <trkpt lat="44.36208" lon="6.62247">
        <ele>1250.234375</ele>
      </trkpt>
      <trkpt lat="44.36215" lon="6.62251">
        <ele>1248.6796875</ele>
      </trkpt>
      <trkpt lat="44.36242" lon="6.6226">
        <ele>1245.06640625</ele>
      </trkpt>
      <trkpt lat="44.36248" lon="6.6226">
        <ele>1245.640625</ele>
      </trkpt>
      <trkpt lat="44.36255" lon="6.6226">
        <ele>1246.21484375</ele>
      </trkpt>
      <trkpt lat="44.36262" lon="6.62259">
        <ele>1247.22265625</ele>
      </trkpt>
      <trkpt lat="44.36265" lon="6.62257">
        <ele>1248.1875</ele>
      </trkpt>
      <trkpt lat="44.36271" lon="6.62256">
        <ele>1248.99609375</ele>
      </trkpt>
      <trkpt lat="44.36275" lon="6.62256">
        <ele>1249.37109375</ele>
      </trkpt>
      <trkpt lat="44.36283" lon="6.62259">
        <ele>1249.03125</ele>
      </trkpt>
      <trkpt lat="44.36286" lon="6.62262">
        <ele>1248.31640625</ele>
      </trkpt>
      <trkpt lat="44.3629" lon="6.62265">
        <ele>1247.796875</ele>
      </trkpt>
      <trkpt lat="44.36293" lon="6.62272">
        <ele>1246.35546875</ele>
      </trkpt>
      <trkpt lat="44.36298" lon="6.62281">
        <ele>1244.1015625</ele>
      </trkpt>
      <trkpt lat="44.36305" lon="6.6231">
        <ele>1236.6796875</ele>
      </trkpt>
      <trkpt lat="44.36309" lon="6.62321">
        <ele>1234.05859375</ele>
      </trkpt>
      <trkpt lat="44.36315" lon="6.62334">
        <ele>1231.1015625</ele>
      </trkpt>
      <trkpt lat="44.36322" lon="6.62346">
        <ele>1228.53125</ele>
      </trkpt>
      <trkpt lat="44.36329" lon="6.62354">
        <ele>1226.71484375</ele>
      </trkpt>
      <trkpt lat="44.36336" lon="6.62362">
        <ele>1225.2265625</ele>
      </trkpt>
      <trkpt lat="44.36344" lon="6.62367">
        <ele>1224.28125</ele>
      </trkpt>
      <trkpt lat="44.36354" lon="6.62373">
        <ele>1223.44140625</ele>
      </trkpt>
      <trkpt lat="44.36365" lon="6.62378">
        <ele>1222.2109375</ele>
      </trkpt>
      <trkpt lat="44.36379" lon="6.62382">
        <ele>1221.3046875</ele>
      </trkpt>
      <trkpt lat="44.36452" lon="6.62396">
        <ele>1218.05859375</ele>
      </trkpt>
      <trkpt lat="44.36469" lon="6.624">
        <ele>1216.99609375</ele>
      </trkpt>
      <trkpt lat="44.36489" lon="6.62407">
        <ele>1215.6875</ele>
      </trkpt>
      <trkpt lat="44.36505" lon="6.62413">
        <ele>1214.46484375</ele>
      </trkpt>
      <trkpt lat="44.36521" lon="6.6242">
        <ele>1213.3828125</ele>
      </trkpt>
      <trkpt lat="44.36568" lon="6.62447">
        <ele>1208.765625</ele>
      </trkpt>
      <trkpt lat="44.36581" lon="6.62455">
        <ele>1207.14453125</ele>
      </trkpt>
      <trkpt lat="44.36634" lon="6.62488">
        <ele>1199.875</ele>
      </trkpt>
      <trkpt lat="44.36647" lon="6.62495">
        <ele>1197.2734375</ele>
      </trkpt>
      <trkpt lat="44.36658" lon="6.625">
        <ele>1195.06640625</ele>
      </trkpt>
      <trkpt lat="44.36678" lon="6.62508">
        <ele>1191.48828125</ele>
      </trkpt>
      <trkpt lat="44.36691" lon="6.6251">
        <ele>1189.578125</ele>
      </trkpt>
      <trkpt lat="44.36707" lon="6.6251">
        <ele>1187.421875</ele>
      </trkpt>
      <trkpt lat="44.36716" lon="6.6251">
        <ele>1186.26953125</ele>
      </trkpt>
      <trkpt lat="44.36728" lon="6.62508">
        <ele>1185.296875</ele>
      </trkpt>
      <trkpt lat="44.36741" lon="6.62503">
        <ele>1184.81640625</ele>
      </trkpt>
      <trkpt lat="44.36752" lon="6.62499">
        <ele>1184.2578125</ele>
      </trkpt>
      <trkpt lat="44.36764" lon="6.62493">
        <ele>1184.2109375</ele>
      </trkpt>
      <trkpt lat="44.3679" lon="6.62476">
        <ele>1184.87109375</ele>
      </trkpt>
      <trkpt lat="44.36809" lon="6.62465">
        <ele>1185.1171875</ele>
      </trkpt>
      <trkpt lat="44.36852" lon="6.62441">
        <ele>1185.09375</ele>
      </trkpt>
      <trkpt lat="44.36862" lon="6.62437">
        <ele>1185</ele>
      </trkpt>
      <trkpt lat="44.3687" lon="6.62434">
        <ele>1184.734375</ele>
      </trkpt>
      <trkpt lat="44.36883" lon="6.62432">
        <ele>1183.640625</ele>
      </trkpt>
      <trkpt lat="44.36894" lon="6.62432">
        <ele>1182.30078125</ele>
      </trkpt>
      <trkpt lat="44.36982" lon="6.62433">
        <ele>1172.421875</ele>
      </trkpt>
      <trkpt lat="44.37014" lon="6.62433">
        <ele>1169.00390625</ele>
      </trkpt>
      <trkpt lat="44.3707" lon="6.62433">
        <ele>1162.2109375</ele>
      </trkpt>
      <trkpt lat="44.37086" lon="6.62429">
        <ele>1160.9765625</ele>
      </trkpt>
      <trkpt lat="44.37102" lon="6.62424">
        <ele>1160.1953125</ele>
      </trkpt>
      <trkpt lat="44.37118" lon="6.62418">
        <ele>1159.3046875</ele>
      </trkpt>
      <trkpt lat="44.37128" lon="6.62412">
        <ele>1158.78125</ele>
      </trkpt>
      <trkpt lat="44.37139" lon="6.62406">
        <ele>1158.375</ele>
      </trkpt>
      <trkpt lat="44.37153" lon="6.62395">
        <ele>1157.9609375</ele>
      </trkpt>
      <trkpt lat="44.37171" lon="6.62379">
        <ele>1157.2578125</ele>
      </trkpt>
      <trkpt lat="44.37184" lon="6.62365">
        <ele>1156.6875</ele>
      </trkpt>
      <trkpt lat="44.37232" lon="6.62304">
        <ele>1154.61328125</ele>
      </trkpt>
      <trkpt lat="44.37241" lon="6.62292">
        <ele>1153.9921875</ele>
      </trkpt>
      <trkpt lat="44.37247" lon="6.6228">
        <ele>1153.97265625</ele>
      </trkpt>
      <trkpt lat="44.37272" lon="6.62236">
        <ele>1154.171875</ele>
      </trkpt>
      <trkpt lat="44.37276" lon="6.6223">
        <ele>1154.10546875</ele>
      </trkpt>
      <trkpt lat="44.37281" lon="6.62226">
        <ele>1153.80078125</ele>
      </trkpt>
      <trkpt lat="44.37289" lon="6.62221">
        <ele>1153.25390625</ele>
      </trkpt>
      <trkpt lat="44.37293" lon="6.62219">
        <ele>1152.91015625</ele>
      </trkpt>
      <trkpt lat="44.37299" lon="6.62219">
        <ele>1152.3984375</ele>
      </trkpt>
      <trkpt lat="44.37306" lon="6.62219">
        <ele>1151.75</ele>
      </trkpt>
      <trkpt lat="44.3731" lon="6.62221">
        <ele>1151.3125</ele>
      </trkpt>
      <trkpt lat="44.37315" lon="6.62225">
        <ele>1150.84765625</ele>
      </trkpt>
      <trkpt lat="44.37319" lon="6.62227">
        <ele>1150.42578125</ele>
      </trkpt>
      <trkpt lat="44.37322" lon="6.62231">
        <ele>1150.03515625</ele>
      </trkpt>
      <trkpt lat="44.37364" lon="6.62273">
        <ele>1146.30859375</ele>
      </trkpt>
      <trkpt lat="44.37387" lon="6.62293">
        <ele>1144.79296875</ele>
      </trkpt>
      <trkpt lat="44.37408" lon="6.62314">
        <ele>1143.0625</ele>
      </trkpt>
      <trkpt lat="44.37415" lon="6.62321">
        <ele>1142.5703125</ele>
      </trkpt>
      <trkpt lat="44.37454" lon="6.62367">
        <ele>1141.234375</ele>
      </trkpt>
      <trkpt lat="44.37497" lon="6.62459">
        <ele>1139.69921875</ele>
      </trkpt>
      <trkpt lat="44.3753" lon="6.62706">
        <ele>1140.5546875</ele>
      </trkpt>
      <trkpt lat="44.37568" lon="6.62771">
        <ele>1141.73828125</ele>
      </trkpt>
      <trkpt lat="44.37758" lon="6.62823">
        <ele>1136.0859375</ele>
      </trkpt>
      <trkpt lat="44.37936" lon="6.62882">
        <ele>1134.62109375</ele>
      </trkpt>
      <trkpt lat="44.38088" lon="6.62971">
        <ele>1132.4921875</ele>
      </trkpt>
      <trkpt lat="44.38207" lon="6.63116">
        <ele>1131.81640625</ele>
      </trkpt>
      <trkpt lat="44.38286" lon="6.63381">
        <ele>1125.34375</ele>
      </trkpt>
      <trkpt lat="44.38304" lon="6.63677">
        <ele>1126.85546875</ele>
      </trkpt>
      <trkpt lat="44.38385" lon="6.64242">
        <ele>1130</ele>
      </trkpt>
      <trkpt lat="44.38425" lon="6.64507">
        <ele>1132</ele>
      </trkpt>
      <trkpt lat="44.38455" lon="6.64714">
        <ele>1133</ele>
      </trkpt>
      <trkpt lat="44.38447" lon="6.64807">
        <ele>1133.82421875</ele>
      </trkpt>
      <trkpt lat="44.38449" lon="6.64842">
        <ele>1134</ele>
      </trkpt>
      <trkpt lat="44.38486" lon="6.64876">
        <ele>1134</ele>
      </trkpt>
      <trkpt lat="44.3849" lon="6.64883">
        <ele>1125.59</ele>
        <time>2018-06-20T07:50:39Z</time>
      </trkpt>
      <trkpt lat="44.38488" lon="6.64893">
        <ele>1125.6</ele>
        <time>2018-06-20T07:50:40Z</time>
      </trkpt>
      <trkpt lat="44.38485" lon="6.64905">
        <ele>1125.61</ele>
        <time>2018-06-20T07:50:41Z</time>
      </trkpt>
      <trkpt lat="44.38458" lon="6.65024">
        <ele>1127.25</ele>
        <time>2018-06-20T07:50:49Z</time>
      </trkpt>
      <trkpt lat="44.38442" lon="6.65142">
        <ele>1127.32</ele>
        <time>2018-06-20T07:51:00Z</time>
      </trkpt>
      <trkpt lat="44.38436" lon="6.65181">
        <ele>1127.37</ele>
        <time>2018-06-20T07:51:07Z</time>
      </trkpt>
      <trkpt lat="44.38426" lon="6.65295">
        <ele>1128.59</ele>
        <time>2018-06-20T07:51:15Z</time>
      </trkpt>
      <trkpt lat="44.38405" lon="6.65555">
        <ele>1130.62</ele>
        <time>2018-06-20T07:51:29Z</time>
      </trkpt>
      <trkpt lat="44.38401" lon="6.6578">
        <ele>1131.54</ele>
        <time>2018-06-20T07:51:43Z</time>
      </trkpt>
      <trkpt lat="44.38424" lon="6.65935">
        <ele>1133.28</ele>
        <time>2018-06-20T07:51:51Z</time>
      </trkpt>
      <trkpt lat="44.38496" lon="6.66096">
        <ele>1135.27</ele>
        <time>2018-06-20T07:51:59Z</time>
      </trkpt>
      <trkpt lat="44.38636" lon="6.66327">
        <ele>1137.06</ele>
        <time>2018-06-20T07:52:11Z</time>
      </trkpt>
      <trkpt lat="44.3887" lon="6.66676">
        <ele>1138.91</ele>
        <time>2018-06-20T07:52:30Z</time>
      </trkpt>
      <trkpt lat="44.38947" lon="6.66776">
        <ele>1139.72</ele>
        <time>2018-06-20T07:52:38Z</time>
      </trkpt>
      <trkpt lat="44.38959" lon="6.66787">
        <ele>1139.73</ele>
        <time>2018-06-20T07:52:40Z</time>
      </trkpt>
      <trkpt lat="44.38968" lon="6.66797">
        <ele>1139.76</ele>
        <time>2018-06-20T07:52:44Z</time>
      </trkpt>
      <trkpt lat="44.38973" lon="6.66798">
        <ele>1139.78</ele>
        <time>2018-06-20T07:52:45Z</time>
      </trkpt>
      <trkpt lat="44.3898" lon="6.66798">
        <ele>1139.78</ele>
        <time>2018-06-20T07:52:46Z</time>
      </trkpt>
      <trkpt lat="44.38987" lon="6.66798">
        <ele>1139.79</ele>
        <time>2018-06-20T07:52:47Z</time>
      </trkpt>
      <trkpt lat="44.38992" lon="6.66797">
        <ele>1139.79</ele>
        <time>2018-06-20T07:52:48Z</time>
      </trkpt>
      <trkpt lat="44.38996" lon="6.66796">
        <ele>1139.79</ele>
        <time>2018-06-20T07:52:49Z</time>
      </trkpt>
      <trkpt lat="44.38997" lon="6.66795">
        <ele>1139.81</ele>
        <time>2018-06-20T07:52:50Z</time>
      </trkpt>
      <trkpt lat="44.38999" lon="6.66803">
        <ele>1146.15</ele>
        <time>2018-06-20T08:07:45Z</time>
      </trkpt>
      <trkpt lat="44.39001" lon="6.66821">
        <ele>1146.16</ele>
        <time>2018-06-20T08:07:46Z</time>
      </trkpt>
      <trkpt lat="44.39005" lon="6.6684">
        <ele>1146.13</ele>
        <time>2018-06-20T08:07:47Z</time>
      </trkpt>
      <trkpt lat="44.3901" lon="6.66859">
        <ele>1147.05</ele>
        <time>2018-06-20T08:07:48Z</time>
      </trkpt>
      <trkpt lat="44.39034" lon="6.66956">
        <ele>1148.62</ele>
        <time>2018-06-20T08:07:53Z</time>
      </trkpt>
      <trkpt lat="44.39041" lon="6.66975">
        <ele>1149.97</ele>
        <time>2018-06-20T08:07:54Z</time>
      </trkpt>
      <trkpt lat="44.39052" lon="6.66991">
        <ele>1150.05</ele>
        <time>2018-06-20T08:07:55Z</time>
      </trkpt>
      <trkpt lat="44.39065" lon="6.67005">
        <ele>1150.06</ele>
        <time>2018-06-20T08:07:56Z</time>
      </trkpt>
      <trkpt lat="44.39078" lon="6.67017">
        <ele>1150.02</ele>
        <time>2018-06-20T08:07:57Z</time>
      </trkpt>
      <trkpt lat="44.39105" lon="6.67045">
        <ele>1150.08</ele>
        <time>2018-06-20T08:07:59Z</time>
      </trkpt>
      <trkpt lat="44.39116" lon="6.67063">
        <ele>1150.05</ele>
        <time>2018-06-20T08:08:00Z</time>
      </trkpt>
      <trkpt lat="44.39125" lon="6.67083">
        <ele>1150.08</ele>
        <time>2018-06-20T08:08:01Z</time>
      </trkpt>
      <trkpt lat="44.39132" lon="6.67104">
        <ele>1150.09</ele>
        <time>2018-06-20T08:08:02Z</time>
      </trkpt>
      <trkpt lat="44.39136" lon="6.67126">
        <ele>1151.32</ele>
        <time>2018-06-20T08:08:03Z</time>
      </trkpt>
      <trkpt lat="44.39138" lon="6.6715">
        <ele>1152.08</ele>
        <time>2018-06-20T08:08:04Z</time>
      </trkpt>
      <trkpt lat="44.39139" lon="6.67174">
        <ele>1151.98</ele>
        <time>2018-06-20T08:08:05Z</time>
      </trkpt>
      <trkpt lat="44.39139" lon="6.67198">
        <ele>1152.01</ele>
        <time>2018-06-20T08:08:06Z</time>
      </trkpt>
      <trkpt lat="44.39141" lon="6.67347">
        <ele>1155.03</ele>
        <time>2018-06-20T08:08:12Z</time>
      </trkpt>
      <trkpt lat="44.39146" lon="6.67636">
        <ele>1159.03</ele>
        <time>2018-06-20T08:08:23Z</time>
      </trkpt>
      <trkpt lat="44.39152" lon="6.67906">
        <ele>1162.28</ele>
        <time>2018-06-20T08:08:33Z</time>
      </trkpt>
      <trkpt lat="44.39152" lon="6.67935">
        <ele>1162.22</ele>
        <time>2018-06-20T08:08:34Z</time>
      </trkpt>
      <trkpt lat="44.39157" lon="6.68177">
        <ele>1165.26</ele>
        <time>2018-06-20T08:08:42Z</time>
      </trkpt>
      <trkpt lat="44.39165" lon="6.68326">
        <ele>1166.35</ele>
        <time>2018-06-20T08:08:47Z</time>
      </trkpt>
      <trkpt lat="44.39171" lon="6.68355">
        <ele>1166.4</ele>
        <time>2018-06-20T08:08:48Z</time>
      </trkpt>
      <trkpt lat="44.39261" lon="6.68664">
        <ele>1167.21</ele>
        <time>2018-06-20T08:08:59Z</time>
      </trkpt>
      <trkpt lat="44.39274" lon="6.68688">
        <ele>1167.2</ele>
        <time>2018-06-20T08:09:00Z</time>
      </trkpt>
      <trkpt lat="44.3933" lon="6.68778">
        <ele>1168.95</ele>
        <time>2018-06-20T08:09:04Z</time>
      </trkpt>
      <trkpt lat="44.39358" lon="6.68823">
        <ele>1170.21</ele>
        <time>2018-06-20T08:09:06Z</time>
      </trkpt>
      <trkpt lat="44.39545" lon="6.69081">
        <ele>1170.36</ele>
        <time>2018-06-20T08:09:18Z</time>
      </trkpt>
      <trkpt lat="44.39693" lon="6.69213">
        <ele>1173.62</ele>
        <time>2018-06-20T08:09:26Z</time>
      </trkpt>
      <trkpt lat="44.39711" lon="6.69228">
        <ele>1173.63</ele>
        <time>2018-06-20T08:09:27Z</time>
      </trkpt>
      <trkpt lat="44.39935" lon="6.69419">
        <ele>1175.31</ele>
        <time>2018-06-20T08:09:39Z</time>
      </trkpt>
      <trkpt lat="44.3995" lon="6.6944">
        <ele>1175.3</ele>
        <time>2018-06-20T08:09:40Z</time>
      </trkpt>
      <trkpt lat="44.39963" lon="6.69463">
        <ele>1176.47</ele>
        <time>2018-06-20T08:09:41Z</time>
      </trkpt>
      <trkpt lat="44.39974" lon="6.69489">
        <ele>1176.49</ele>
        <time>2018-06-20T08:09:42Z</time>
      </trkpt>
      <trkpt lat="44.39984" lon="6.69516">
        <ele>1177.46</ele>
        <time>2018-06-20T08:09:43Z</time>
      </trkpt>
      <trkpt lat="44.40142" lon="6.69977">
        <ele>1181.21</ele>
        <time>2018-06-20T08:10:00Z</time>
      </trkpt>
      <trkpt lat="44.40203" lon="6.70126">
        <ele>1181.87</ele>
        <time>2018-06-20T08:10:06Z</time>
      </trkpt>
      <trkpt lat="44.40218" lon="6.70143">
        <ele>1181.88</ele>
        <time>2018-06-20T08:10:07Z</time>
      </trkpt>
      <trkpt lat="44.40235" lon="6.70157">
        <ele>1181.89</ele>
        <time>2018-06-20T08:10:08Z</time>
      </trkpt>
      <trkpt lat="44.40253" lon="6.70167">
        <ele>1181.88</ele>
        <time>2018-06-20T08:10:09Z</time>
      </trkpt>
      <trkpt lat="44.40273" lon="6.70175">
        <ele>1181.88</ele>
        <time>2018-06-20T08:10:10Z</time>
      </trkpt>
      <trkpt lat="44.40357" lon="6.7021">
        <ele>1181.86</ele>
        <time>2018-06-20T08:10:14Z</time>
      </trkpt>
      <trkpt lat="44.40376" lon="6.70226">
        <ele>1181.87</ele>
        <time>2018-06-20T08:10:15Z</time>
      </trkpt>
      <trkpt lat="44.40391" lon="6.70246">
        <ele>1181.86</ele>
        <time>2018-06-20T08:10:16Z</time>
      </trkpt>
      <trkpt lat="44.40403" lon="6.70269">
        <ele>1181.86</ele>
        <time>2018-06-20T08:10:17Z</time>
      </trkpt>
      <trkpt lat="44.40412" lon="6.70295">
        <ele>1181.86</ele>
        <time>2018-06-20T08:10:18Z</time>
      </trkpt>
      <trkpt lat="44.4042" lon="6.70323">
        <ele>1181.86</ele>
        <time>2018-06-20T08:10:19Z</time>
      </trkpt>
      <trkpt lat="44.40427" lon="6.70352">
        <ele>1181.87</ele>
        <time>2018-06-20T08:10:20Z</time>
      </trkpt>
      <trkpt lat="44.40483" lon="6.70584">
        <ele>1179.52</ele>
        <time>2018-06-20T08:10:28Z</time>
      </trkpt>
      <trkpt lat="44.40486" lon="6.70614">
        <ele>1179.52</ele>
        <time>2018-06-20T08:10:29Z</time>
      </trkpt>
      <trkpt lat="44.40487" lon="6.70644">
        <ele>1179.56</ele>
        <time>2018-06-20T08:10:30Z</time>
      </trkpt>
      <trkpt lat="44.40488" lon="6.70892">
        <ele>1182.11</ele>
        <time>2018-06-20T08:10:38Z</time>
      </trkpt>
      <trkpt lat="44.40487" lon="6.70983">
        <ele>1184.26</ele>
        <time>2018-06-20T08:10:41Z</time>
      </trkpt>
      <trkpt lat="44.40486" lon="6.71103">
        <ele>1186.47</ele>
        <time>2018-06-20T08:10:45Z</time>
      </trkpt>
      <trkpt lat="44.40488" lon="6.71162">
        <ele>1187.78</ele>
        <time>2018-06-20T08:10:47Z</time>
      </trkpt>
      <trkpt lat="44.40505" lon="6.7128">
        <ele>1190.84</ele>
        <time>2018-06-20T08:10:51Z</time>
      </trkpt>
      <trkpt lat="44.4051" lon="6.71311">
        <ele>1190.8</ele>
        <time>2018-06-20T08:10:52Z</time>
      </trkpt>
      <trkpt lat="44.40525" lon="6.71403">
        <ele>1194.02</ele>
        <time>2018-06-20T08:10:55Z</time>
      </trkpt>
      <trkpt lat="44.4053" lon="6.71434">
        <ele>1194.04</ele>
        <time>2018-06-20T08:10:56Z</time>
      </trkpt>
      <trkpt lat="44.4054" lon="6.71496">
        <ele>1195.78</ele>
        <time>2018-06-20T08:10:58Z</time>
      </trkpt>
      <trkpt lat="44.40552" lon="6.71589">
        <ele>1197.46</ele>
        <time>2018-06-20T08:11:01Z</time>
      </trkpt>
      <trkpt lat="44.40584" lon="6.71793">
        <ele>1201.07</ele>
        <time>2018-06-20T08:11:08Z</time>
      </trkpt>
      <trkpt lat="44.40597" lon="6.71847">
        <ele>1202.48</ele>
        <time>2018-06-20T08:11:10Z</time>
      </trkpt>
      <trkpt lat="44.40629" lon="6.71951">
        <ele>1206.05</ele>
        <time>2018-06-20T08:11:14Z</time>
      </trkpt>
      <trkpt lat="44.40711" lon="6.72218">
        <ele>1209.37</ele>
        <time>2018-06-20T08:11:24Z</time>
      </trkpt>
      <trkpt lat="44.40828" lon="6.72476">
        <ele>1210.19</ele>
        <time>2018-06-20T08:11:34Z</time>
      </trkpt>
      <trkpt lat="44.4099" lon="6.72765">
        <ele>1211.92</ele>
        <time>2018-06-20T08:11:46Z</time>
      </trkpt>
      <trkpt lat="44.41106" lon="6.72868">
        <ele>1211.85</ele>
        <time>2018-06-20T08:11:53Z</time>
      </trkpt>
      <trkpt lat="44.4116" lon="6.72888">
        <ele>1209.17</ele>
        <time>2018-06-20T08:11:56Z</time>
      </trkpt>
      <trkpt lat="44.41333" lon="6.72909">
        <ele>1208.22</ele>
        <time>2018-06-20T08:12:06Z</time>
      </trkpt>
      <trkpt lat="44.41349" lon="6.72903">
        <ele>1208.2</ele>
        <time>2018-06-20T08:12:07Z</time>
      </trkpt>
      <trkpt lat="44.4147" lon="6.72848">
        <ele>1207.4</ele>
        <time>2018-06-20T08:12:16Z</time>
      </trkpt>
      <trkpt lat="44.41545" lon="6.72829">
        <ele>1207.41</ele>
        <time>2018-06-20T08:12:21Z</time>
      </trkpt>
      <trkpt lat="44.41561" lon="6.72831">
        <ele>1207.41</ele>
        <time>2018-06-20T08:12:22Z</time>
      </trkpt>
      <trkpt lat="44.41666" lon="6.72875">
        <ele>1207.44</ele>
        <time>2018-06-20T08:12:30Z</time>
      </trkpt>
      <trkpt lat="44.41735" lon="6.72966">
        <ele>1206.42</ele>
        <time>2018-06-20T08:12:38Z</time>
      </trkpt>
      <trkpt lat="44.41827" lon="6.73111">
        <ele>1205.66</ele>
        <time>2018-06-20T08:12:50Z</time>
      </trkpt>
      <trkpt lat="44.41835" lon="6.7313">
        <ele>1205.65</ele>
        <time>2018-06-20T08:12:51Z</time>
      </trkpt>
      <trkpt lat="44.41841" lon="6.7315">
        <ele>1205.67</ele>
        <time>2018-06-20T08:12:52Z</time>
      </trkpt>
      <trkpt lat="44.41846" lon="6.7317">
        <ele>1205.67</ele>
        <time>2018-06-20T08:12:53Z</time>
      </trkpt>
      <trkpt lat="44.4185" lon="6.73189">
        <ele>1205.67</ele>
        <time>2018-06-20T08:12:54Z</time>
      </trkpt>
      <trkpt lat="44.41871" lon="6.7329">
        <ele>1205.71</ele>
        <time>2018-06-20T08:13:01Z</time>
      </trkpt>
      <trkpt lat="44.41877" lon="6.73312">
        <ele>1205.73</ele>
        <time>2018-06-20T08:13:03Z</time>
      </trkpt>
      <trkpt lat="44.41881" lon="6.73321">
        <ele>1205.73</ele>
        <time>2018-06-20T08:13:04Z</time>
      </trkpt>
      <trkpt lat="44.41886" lon="6.73328">
        <ele>1205.74</ele>
        <time>2018-06-20T08:13:05Z</time>
      </trkpt>
      <trkpt lat="44.41892" lon="6.73334">
        <ele>1205.74</ele>
        <time>2018-06-20T08:13:06Z</time>
      </trkpt>
      <trkpt lat="44.41897" lon="6.73338">
        <ele>1205.74</ele>
        <time>2018-06-20T08:13:07Z</time>
      </trkpt>
      <trkpt lat="44.41902" lon="6.73342">
        <ele>1205.74</ele>
        <time>2018-06-20T08:13:08Z</time>
      </trkpt>
      <trkpt lat="44.41918" lon="6.73357">
        <ele>1205.74</ele>
        <time>2018-06-20T08:13:11Z</time>
      </trkpt>
      <trkpt lat="44.4193" lon="6.73367">
        <ele>1205.77</ele>
        <time>2018-06-20T08:13:13Z</time>
      </trkpt>
      <trkpt lat="44.41936" lon="6.73374">
        <ele>1205.78</ele>
        <time>2018-06-20T08:13:14Z</time>
      </trkpt>
      <trkpt lat="44.41942" lon="6.73382">
        <ele>1205.79</ele>
        <time>2018-06-20T08:13:15Z</time>
      </trkpt>
      <trkpt lat="44.41949" lon="6.73393">
        <ele>1205.8</ele>
        <time>2018-06-20T08:13:16Z</time>
      </trkpt>
      <trkpt lat="44.41955" lon="6.73405">
        <ele>1205.81</ele>
        <time>2018-06-20T08:13:17Z</time>
      </trkpt>
      <trkpt lat="44.4196" lon="6.73417">
        <ele>1205.82</ele>
        <time>2018-06-20T08:13:18Z</time>
      </trkpt>
      <trkpt lat="44.42007" lon="6.73546">
        <ele>1208.23</ele>
        <time>2018-06-20T08:13:27Z</time>
      </trkpt>
      <trkpt lat="44.42011" lon="6.73562">
        <ele>1208.23</ele>
        <time>2018-06-20T08:13:28Z</time>
      </trkpt>
      <trkpt lat="44.42012" lon="6.73579">
        <ele>1208.25</ele>
        <time>2018-06-20T08:13:29Z</time>
      </trkpt>
      <trkpt lat="44.42013" lon="6.73595">
        <ele>1208.25</ele>
        <time>2018-06-20T08:13:30Z</time>
      </trkpt>
      <trkpt lat="44.42014" lon="6.73611">
        <ele>1208.27</ele>
        <time>2018-06-20T08:13:31Z</time>
      </trkpt>
      <trkpt lat="44.42017" lon="6.73625">
        <ele>1208.3</ele>
        <time>2018-06-20T08:13:32Z</time>
      </trkpt>
      <trkpt lat="44.42022" lon="6.73638">
        <ele>1209.12</ele>
        <time>2018-06-20T08:13:33Z</time>
      </trkpt>
      <trkpt lat="44.42029" lon="6.73648">
        <ele>1209.27</ele>
        <time>2018-06-20T08:13:34Z</time>
      </trkpt>
      <trkpt lat="44.42036" lon="6.73656">
        <ele>1209.27</ele>
        <time>2018-06-20T08:13:35Z</time>
      </trkpt>
      <trkpt lat="44.42042" lon="6.73663">
        <ele>1209.13</ele>
        <time>2018-06-20T08:13:36Z</time>
      </trkpt>
      <trkpt lat="44.42046" lon="6.73671">
        <ele>1209.13</ele>
        <time>2018-06-20T08:13:37Z</time>
      </trkpt>
      <trkpt lat="44.42048" lon="6.7368">
        <ele>1209.15</ele>
        <time>2018-06-20T08:13:38Z</time>
      </trkpt>
      <trkpt lat="44.42047" lon="6.7369">
        <ele>1209.16</ele>
        <time>2018-06-20T08:13:39Z</time>
      </trkpt>
      <trkpt lat="44.42044" lon="6.73701">
        <ele>1209.16</ele>
        <time>2018-06-20T08:13:40Z</time>
      </trkpt>
      <trkpt lat="44.4204" lon="6.73713">
        <ele>1209.18</ele>
        <time>2018-06-20T08:13:41Z</time>
      </trkpt>
      <trkpt lat="44.42032" lon="6.73739">
        <ele>1210.38</ele>
        <time>2018-06-20T08:13:43Z</time>
      </trkpt>
      <trkpt lat="44.42014" lon="6.73844">
        <ele>1212.33</ele>
        <time>2018-06-20T08:13:52Z</time>
      </trkpt>
      <trkpt lat="44.41996" lon="6.7395">
        <ele>1213.22</ele>
        <time>2018-06-20T08:14:02Z</time>
      </trkpt>
      <trkpt lat="44.41991" lon="6.73961">
        <ele>1213.22</ele>
        <time>2018-06-20T08:14:03Z</time>
      </trkpt>
      <trkpt lat="44.41984" lon="6.73972">
        <ele>1213.22</ele>
        <time>2018-06-20T08:14:04Z</time>
      </trkpt>
      <trkpt lat="44.41976" lon="6.73983">
        <ele>1213.23</ele>
        <time>2018-06-20T08:14:05Z</time>
      </trkpt>
      <trkpt lat="44.41966" lon="6.73994">
        <ele>1213.24</ele>
        <time>2018-06-20T08:14:06Z</time>
      </trkpt>
      <trkpt lat="44.41956" lon="6.74003">
        <ele>1213.25</ele>
        <time>2018-06-20T08:14:07Z</time>
      </trkpt>
      <trkpt lat="44.41945" lon="6.74011">
        <ele>1213.26</ele>
        <time>2018-06-20T08:14:08Z</time>
      </trkpt>
      <trkpt lat="44.41853" lon="6.74076">
        <ele>1216.08</ele>
        <time>2018-06-20T08:14:17Z</time>
      </trkpt>
      <trkpt lat="44.41832" lon="6.74098">
        <ele>1215.94</ele>
        <time>2018-06-20T08:14:23Z</time>
      </trkpt>
      <trkpt lat="44.41777" lon="6.7414">
        <ele>1218.82</ele>
        <time>2018-06-20T08:14:32Z</time>
      </trkpt>
      <trkpt lat="44.41729" lon="6.74175">
        <ele>1221.93</ele>
        <time>2018-06-20T08:14:38Z</time>
      </trkpt>
      <trkpt lat="44.41722" lon="6.74183">
        <ele>1221.96</ele>
        <time>2018-06-20T08:14:39Z</time>
      </trkpt>
      <trkpt lat="44.41688" lon="6.74228">
        <ele>1225.19</ele>
        <time>2018-06-20T08:14:44Z</time>
      </trkpt>
      <trkpt lat="44.41623" lon="6.74308">
        <ele>1228.03</ele>
        <time>2018-06-20T08:14:53Z</time>
      </trkpt>
      <trkpt lat="44.41615" lon="6.74314">
        <ele>1228.01</ele>
        <time>2018-06-20T08:14:54Z</time>
      </trkpt>
      <trkpt lat="44.41599" lon="6.74324">
        <ele>1229.3</ele>
        <time>2018-06-20T08:14:56Z</time>
      </trkpt>
      <trkpt lat="44.41592" lon="6.7433">
        <ele>1230.1</ele>
        <time>2018-06-20T08:14:57Z</time>
      </trkpt>
      <trkpt lat="44.41585" lon="6.74338">
        <ele>1230.14</ele>
        <time>2018-06-20T08:14:58Z</time>
      </trkpt>
      <trkpt lat="44.41578" lon="6.74347">
        <ele>1231.34</ele>
        <time>2018-06-20T08:14:59Z</time>
      </trkpt>
      <trkpt lat="44.41572" lon="6.74358">
        <ele>1231.34</ele>
        <time>2018-06-20T08:15:00Z</time>
      </trkpt>
      <trkpt lat="44.41567" lon="6.74371">
        <ele>1232.77</ele>
        <time>2018-06-20T08:15:01Z</time>
      </trkpt>
      <trkpt lat="44.41562" lon="6.74384">
        <ele>1232.71</ele>
        <time>2018-06-20T08:15:02Z</time>
      </trkpt>
      <trkpt lat="44.41558" lon="6.74398">
        <ele>1233.63</ele>
        <time>2018-06-20T08:15:03Z</time>
      </trkpt>
      <trkpt lat="44.41542" lon="6.74445">
        <ele>1235.27</ele>
        <time>2018-06-20T08:15:06Z</time>
      </trkpt>
      <trkpt lat="44.41528" lon="6.74478">
        <ele>1237.88</ele>
        <time>2018-06-20T08:15:08Z</time>
      </trkpt>
      <trkpt lat="44.41523" lon="6.74496">
        <ele>1237.88</ele>
        <time>2018-06-20T08:15:09Z</time>
      </trkpt>
      <trkpt lat="44.4152" lon="6.74516">
        <ele>1238.81</ele>
        <time>2018-06-20T08:15:10Z</time>
      </trkpt>
      <trkpt lat="44.41519" lon="6.74536">
        <ele>1240.13</ele>
        <time>2018-06-20T08:15:11Z</time>
      </trkpt>
      <trkpt lat="44.41519" lon="6.74557">
        <ele>1241.16</ele>
        <time>2018-06-20T08:15:12Z</time>
      </trkpt>
      <trkpt lat="44.41517" lon="6.74578">
        <ele>1241.11</ele>
        <time>2018-06-20T08:15:13Z</time>
      </trkpt>
      <trkpt lat="44.41514" lon="6.74597">
        <ele>1242.27</ele>
        <time>2018-06-20T08:15:14Z</time>
      </trkpt>
      <trkpt lat="44.4151" lon="6.74614">
        <ele>1243.11</ele>
        <time>2018-06-20T08:15:15Z</time>
      </trkpt>
      <trkpt lat="44.41505" lon="6.7463">
        <ele>1243.18</ele>
        <time>2018-06-20T08:15:16Z</time>
      </trkpt>
      <trkpt lat="44.415" lon="6.74645">
        <ele>1244.08</ele>
        <time>2018-06-20T08:15:17Z</time>
      </trkpt>
      <trkpt lat="44.41487" lon="6.74688">
        <ele>1245.24</ele>
        <time>2018-06-20T08:15:20Z</time>
      </trkpt>
      <trkpt lat="44.41482" lon="6.74717">
        <ele>1246.52</ele>
        <time>2018-06-20T08:15:22Z</time>
      </trkpt>
      <trkpt lat="44.41475" lon="6.7476">
        <ele>1249.1</ele>
        <time>2018-06-20T08:15:25Z</time>
      </trkpt>
      <trkpt lat="44.41471" lon="6.74773">
        <ele>1249.06</ele>
        <time>2018-06-20T08:15:26Z</time>
      </trkpt>
      <trkpt lat="44.41466" lon="6.74785">
        <ele>1249.08</ele>
        <time>2018-06-20T08:15:27Z</time>
      </trkpt>
      <trkpt lat="44.41455" lon="6.74817">
        <ele>1250.01</ele>
        <time>2018-06-20T08:15:30Z</time>
      </trkpt>
      <trkpt lat="44.41453" lon="6.74828">
        <ele>1250.93</ele>
        <time>2018-06-20T08:15:31Z</time>
      </trkpt>
      <trkpt lat="44.41452" lon="6.74839">
        <ele>1251.77</ele>
        <time>2018-06-20T08:15:32Z</time>
      </trkpt>
      <trkpt lat="44.41452" lon="6.74851">
        <ele>1251.93</ele>
        <time>2018-06-20T08:15:33Z</time>
      </trkpt>
      <trkpt lat="44.41455" lon="6.74863">
        <ele>1253.25</ele>
        <time>2018-06-20T08:15:34Z</time>
      </trkpt>
      <trkpt lat="44.41459" lon="6.74875">
        <ele>1254.22</ele>
        <time>2018-06-20T08:15:35Z</time>
      </trkpt>
      <trkpt lat="44.41465" lon="6.74889">
        <ele>1255.19</ele>
        <time>2018-06-20T08:15:36Z</time>
      </trkpt>
      <trkpt lat="44.41478" lon="6.74919">
        <ele>1256.24</ele>
        <time>2018-06-20T08:15:38Z</time>
      </trkpt>
      <trkpt lat="44.41495" lon="6.74969">
        <ele>1259.82</ele>
        <time>2018-06-20T08:15:41Z</time>
      </trkpt>
      <trkpt lat="44.41503" lon="6.74986">
        <ele>1259.75</ele>
        <time>2018-06-20T08:15:42Z</time>
      </trkpt>
      <trkpt lat="44.41524" lon="6.75037">
        <ele>1263.16</ele>
        <time>2018-06-20T08:15:45Z</time>
      </trkpt>
      <trkpt lat="44.41532" lon="6.75051">
        <ele>1263.13</ele>
        <time>2018-06-20T08:15:46Z</time>
      </trkpt>
      <trkpt lat="44.41541" lon="6.75065">
        <ele>1264.59</ele>
        <time>2018-06-20T08:15:47Z</time>
      </trkpt>
      <trkpt lat="44.41547" lon="6.75079">
        <ele>1265.28</ele>
        <time>2018-06-20T08:15:48Z</time>
      </trkpt>
      <trkpt lat="44.41548" lon="6.75093">
        <ele>1265.37</ele>
        <time>2018-06-20T08:15:49Z</time>
      </trkpt>
      <trkpt lat="44.41547" lon="6.75104">
        <ele>1265.44</ele>
        <time>2018-06-20T08:15:50Z</time>
      </trkpt>
      <trkpt lat="44.41541" lon="6.75111">
        <ele>1266.24</ele>
        <time>2018-06-20T08:15:51Z</time>
      </trkpt>
      <trkpt lat="44.41533" lon="6.75117">
        <ele>1266.18</ele>
        <time>2018-06-20T08:15:52Z</time>
      </trkpt>
      <trkpt lat="44.41524" lon="6.75124">
        <ele>1267.41</ele>
        <time>2018-06-20T08:15:53Z</time>
      </trkpt>
      <trkpt lat="44.41514" lon="6.75132">
        <ele>1267.38</ele>
        <time>2018-06-20T08:15:54Z</time>
      </trkpt>
      <trkpt lat="44.41503" lon="6.75137">
        <ele>1267.55</ele>
        <time>2018-06-20T08:15:55Z</time>
      </trkpt>
      <trkpt lat="44.41492" lon="6.7514">
        <ele>1267.56</ele>
        <time>2018-06-20T08:15:56Z</time>
      </trkpt>
      <trkpt lat="44.4148" lon="6.75143">
        <ele>1269.02</ele>
        <time>2018-06-20T08:15:57Z</time>
      </trkpt>
      <trkpt lat="44.4147" lon="6.75147">
        <ele>1269.05</ele>
        <time>2018-06-20T08:15:58Z</time>
      </trkpt>
      <trkpt lat="44.41463" lon="6.75156">
        <ele>1269.97</ele>
        <time>2018-06-20T08:15:59Z</time>
      </trkpt>
      <trkpt lat="44.41461" lon="6.75167">
        <ele>1270.03</ele>
        <time>2018-06-20T08:16:00Z</time>
      </trkpt>
      <trkpt lat="44.41462" lon="6.7518">
        <ele>1271.27</ele>
        <time>2018-06-20T08:16:01Z</time>
      </trkpt>
      <trkpt lat="44.41467" lon="6.75194">
        <ele>1271.27</ele>
        <time>2018-06-20T08:16:02Z</time>
      </trkpt>
      <trkpt lat="44.41474" lon="6.75207">
        <ele>1273.2</ele>
        <time>2018-06-20T08:16:03Z</time>
      </trkpt>
      <trkpt lat="44.41494" lon="6.75249">
        <ele>1276.39</ele>
        <time>2018-06-20T08:16:06Z</time>
      </trkpt>
      <trkpt lat="44.41498" lon="6.75262">
        <ele>1276.46</ele>
        <time>2018-06-20T08:16:07Z</time>
      </trkpt>
      <trkpt lat="44.41499" lon="6.75274">
        <ele>1277.35</ele>
        <time>2018-06-20T08:16:08Z</time>
      </trkpt>
      <trkpt lat="44.41498" lon="6.75284">
        <ele>1277.36</ele>
        <time>2018-06-20T08:16:09Z</time>
      </trkpt>
      <trkpt lat="44.41491" lon="6.75288">
        <ele>1277.3</ele>
        <time>2018-06-20T08:16:10Z</time>
      </trkpt>
      <trkpt lat="44.41485" lon="6.75287">
        <ele>1278.79</ele>
        <time>2018-06-20T08:16:11Z</time>
      </trkpt>
      <trkpt lat="44.41479" lon="6.75284">
        <ele>1279.68</ele>
        <time>2018-06-20T08:16:12Z</time>
      </trkpt>
      <trkpt lat="44.41474" lon="6.75275">
        <ele>1279.67</ele>
        <time>2018-06-20T08:16:13Z</time>
      </trkpt>
      <trkpt lat="44.41468" lon="6.75262">
        <ele>1281.76</ele>
        <time>2018-06-20T08:16:14Z</time>
      </trkpt>
      <trkpt lat="44.4146" lon="6.75246">
        <ele>1282.6</ele>
        <time>2018-06-20T08:16:15Z</time>
      </trkpt>
      <trkpt lat="44.4145" lon="6.75231">
        <ele>1283.18</ele>
        <time>2018-06-20T08:16:16Z</time>
      </trkpt>
      <trkpt lat="44.4144" lon="6.75219">
        <ele>1284.6</ele>
        <time>2018-06-20T08:16:17Z</time>
      </trkpt>
      <trkpt lat="44.41429" lon="6.75209">
        <ele>1285.49</ele>
        <time>2018-06-20T08:16:18Z</time>
      </trkpt>
      <trkpt lat="44.41418" lon="6.752">
        <ele>1285.5</ele>
        <time>2018-06-20T08:16:19Z</time>
      </trkpt>
      <trkpt lat="44.41406" lon="6.75192">
        <ele>1288.09</ele>
        <time>2018-06-20T08:16:20Z</time>
      </trkpt>
      <trkpt lat="44.41394" lon="6.75184">
        <ele>1288.17</ele>
        <time>2018-06-20T08:16:21Z</time>
      </trkpt>
      <trkpt lat="44.41371" lon="6.75168">
        <ele>1289.46</ele>
        <time>2018-06-20T08:16:23Z</time>
      </trkpt>
      <trkpt lat="44.41348" lon="6.75153">
        <ele>1290.75</ele>
        <time>2018-06-20T08:16:25Z</time>
      </trkpt>
      <trkpt lat="44.41326" lon="6.75138">
        <ele>1293.26</ele>
        <time>2018-06-20T08:16:27Z</time>
      </trkpt>
      <trkpt lat="44.41305" lon="6.75123">
        <ele>1294.62</ele>
        <time>2018-06-20T08:16:29Z</time>
      </trkpt>
      <trkpt lat="44.41296" lon="6.75118">
        <ele>1294.61</ele>
        <time>2018-06-20T08:16:30Z</time>
      </trkpt>
      <trkpt lat="44.41287" lon="6.75116">
        <ele>1295.63</ele>
        <time>2018-06-20T08:16:31Z</time>
      </trkpt>
      <trkpt lat="44.4128" lon="6.75119">
        <ele>1295.66</ele>
        <time>2018-06-20T08:16:32Z</time>
      </trkpt>
      <trkpt lat="44.41275" lon="6.75125">
        <ele>1296.45</ele>
        <time>2018-06-20T08:16:33Z</time>
      </trkpt>
      <trkpt lat="44.41275" lon="6.75133">
        <ele>1296.43</ele>
        <time>2018-06-20T08:16:34Z</time>
      </trkpt>
      <trkpt lat="44.4128" lon="6.7514">
        <ele>1297.33</ele>
        <time>2018-06-20T08:16:35Z</time>
      </trkpt>
      <trkpt lat="44.41287" lon="6.75145">
        <ele>1297.33</ele>
        <time>2018-06-20T08:16:36Z</time>
      </trkpt>
      <trkpt lat="44.41296" lon="6.75149">
        <ele>1298.7</ele>
        <time>2018-06-20T08:16:37Z</time>
      </trkpt>
      <trkpt lat="44.41306" lon="6.75153">
        <ele>1298.73</ele>
        <time>2018-06-20T08:16:38Z</time>
      </trkpt>
      <trkpt lat="44.41315" lon="6.75161">
        <ele>1300.62</ele>
        <time>2018-06-20T08:16:39Z</time>
      </trkpt>
      <trkpt lat="44.41322" lon="6.75171">
        <ele>1300.62</ele>
        <time>2018-06-20T08:16:40Z</time>
      </trkpt>
      <trkpt lat="44.41327" lon="6.75185">
        <ele>1301.88</ele>
        <time>2018-06-20T08:16:41Z</time>
      </trkpt>
      <trkpt lat="44.4133" lon="6.752">
        <ele>1301.89</ele>
        <time>2018-06-20T08:16:42Z</time>
      </trkpt>
      <trkpt lat="44.41333" lon="6.75216">
        <ele>1304</ele>
        <time>2018-06-20T08:16:43Z</time>
      </trkpt>
      <trkpt lat="44.41336" lon="6.75233">
        <ele>1306.07</ele>
        <time>2018-06-20T08:16:44Z</time>
      </trkpt>
      <trkpt lat="44.41341" lon="6.7525">
        <ele>1306.87</ele>
        <time>2018-06-20T08:16:45Z</time>
      </trkpt>
      <trkpt lat="44.41347" lon="6.75267">
        <ele>1307.99</ele>
        <time>2018-06-20T08:16:46Z</time>
      </trkpt>
      <trkpt lat="44.41362" lon="6.75319">
        <ele>1310.9</ele>
        <time>2018-06-20T08:16:49Z</time>
      </trkpt>
      <trkpt lat="44.41363" lon="6.75336">
        <ele>1311.91</ele>
        <time>2018-06-20T08:16:50Z</time>
      </trkpt>
      <trkpt lat="44.41364" lon="6.75353">
        <ele>1311.92</ele>
        <time>2018-06-20T08:16:51Z</time>
      </trkpt>
      <trkpt lat="44.41365" lon="6.7538">
        <ele>1313.36</ele>
        <time>2018-06-20T08:16:53Z</time>
      </trkpt>
      <trkpt lat="44.41366" lon="6.75392">
        <ele>1314.08</ele>
        <time>2018-06-20T08:16:54Z</time>
      </trkpt>
      <trkpt lat="44.41364" lon="6.75402">
        <ele>1314.19</ele>
        <time>2018-06-20T08:16:55Z</time>
      </trkpt>
      <trkpt lat="44.41359" lon="6.75409">
        <ele>1314.17</ele>
        <time>2018-06-20T08:16:56Z</time>
      </trkpt>
      <trkpt lat="44.41352" lon="6.75411">
        <ele>1315.91</ele>
        <time>2018-06-20T08:16:57Z</time>
      </trkpt>
      <trkpt lat="44.41345" lon="6.75407">
        <ele>1316.84</ele>
        <time>2018-06-20T08:16:58Z</time>
      </trkpt>
      <trkpt lat="44.41339" lon="6.75397">
        <ele>1317.68</ele>
        <time>2018-06-20T08:16:59Z</time>
      </trkpt>
      <trkpt lat="44.41333" lon="6.75385">
        <ele>1317.73</ele>
        <time>2018-06-20T08:17:00Z</time>
      </trkpt>
      <trkpt lat="44.41319" lon="6.7536">
        <ele>1319.34</ele>
        <time>2018-06-20T08:17:02Z</time>
      </trkpt>
      <trkpt lat="44.41296" lon="6.75325">
        <ele>1322.81</ele>
        <time>2018-06-20T08:17:05Z</time>
      </trkpt>
      <trkpt lat="44.41282" lon="6.753">
        <ele>1323.81</ele>
        <time>2018-06-20T08:17:07Z</time>
      </trkpt>
      <trkpt lat="44.41266" lon="6.75278">
        <ele>1325.94</ele>
        <time>2018-06-20T08:17:09Z</time>
      </trkpt>
      <trkpt lat="44.41258" lon="6.75273">
        <ele>1325.99</ele>
        <time>2018-06-20T08:17:10Z</time>
      </trkpt>
      <trkpt lat="44.41249" lon="6.75273">
        <ele>1326.76</ele>
        <time>2018-06-20T08:17:11Z</time>
      </trkpt>
      <trkpt lat="44.4124" lon="6.75275">
        <ele>1326.79</ele>
        <time>2018-06-20T08:17:12Z</time>
      </trkpt>
      <trkpt lat="44.41238" lon="6.75285">
        <ele>1327.8</ele>
        <time>2018-06-20T08:17:13Z</time>
      </trkpt>
      <trkpt lat="44.41239" lon="6.75299">
        <ele>1327.71</ele>
        <time>2018-06-20T08:17:14Z</time>
      </trkpt>
      <trkpt lat="44.41245" lon="6.75314">
        <ele>1329.12</ele>
        <time>2018-06-20T08:17:15Z</time>
      </trkpt>
      <trkpt lat="44.41253" lon="6.75329">
        <ele>1330.1</ele>
        <time>2018-06-20T08:17:16Z</time>
      </trkpt>
      <trkpt lat="44.41261" lon="6.75345">
        <ele>1331.3</ele>
        <time>2018-06-20T08:17:17Z</time>
      </trkpt>
      <trkpt lat="44.41269" lon="6.75364">
        <ele>1332.35</ele>
        <time>2018-06-20T08:17:18Z</time>
      </trkpt>
      <trkpt lat="44.41288" lon="6.75421">
        <ele>1336.32</ele>
        <time>2018-06-20T08:17:21Z</time>
      </trkpt>
      <trkpt lat="44.41305" lon="6.75476">
        <ele>1339.09</ele>
        <time>2018-06-20T08:17:24Z</time>
      </trkpt>
      <trkpt lat="44.41308" lon="6.75495">
        <ele>1339.18</ele>
        <time>2018-06-20T08:17:25Z</time>
      </trkpt>
      <trkpt lat="44.41307" lon="6.75515">
        <ele>1340.68</ele>
        <time>2018-06-20T08:17:26Z</time>
      </trkpt>
      <trkpt lat="44.41304" lon="6.75535">
        <ele>1342.3</ele>
        <time>2018-06-20T08:17:27Z</time>
      </trkpt>
      <trkpt lat="44.41298" lon="6.75555">
        <ele>1343.34</ele>
        <time>2018-06-20T08:17:28Z</time>
      </trkpt>
      <trkpt lat="44.41293" lon="6.75571">
        <ele>1343.44</ele>
        <time>2018-06-20T08:17:29Z</time>
      </trkpt>
      <trkpt lat="44.41286" lon="6.75583">
        <ele>1343.45</ele>
        <time>2018-06-20T08:17:30Z</time>
      </trkpt>
      <trkpt lat="44.41279" lon="6.7559">
        <ele>1344.59</ele>
        <time>2018-06-20T08:17:31Z</time>
      </trkpt>
      <trkpt lat="44.41276" lon="6.75597">
        <ele>1352.12109375</ele>
      </trkpt>
      <trkpt lat="44.4127" lon="6.75603">
        <ele>1353.4921875</ele>
      </trkpt>
      <trkpt lat="44.41264" lon="6.75605">
        <ele>1354.84375</ele>
      </trkpt>
      <trkpt lat="44.41257" lon="6.75603">
        <ele>1356.06640625</ele>
      </trkpt>
      <trkpt lat="44.41242" lon="6.75579">
        <ele>1357.98828125</ele>
      </trkpt>
      <trkpt lat="44.41231" lon="6.7558">
        <ele>1360.53515625</ele>
      </trkpt>
      <trkpt lat="44.41226" lon="6.75592">
        <ele>1362.26171875</ele>
      </trkpt>
      <trkpt lat="44.41223" lon="6.7561">
        <ele>1363.73828125</ele>
      </trkpt>
      <trkpt lat="44.41232" lon="6.75662">
        <ele>1364.09765625</ele>
      </trkpt>
      <trkpt lat="44.41231" lon="6.75674">
        <ele>1365.5859375</ele>
      </trkpt>
      <trkpt lat="44.41221" lon="6.75691">
        <ele>1369.2578125</ele>
      </trkpt>
      <trkpt lat="44.41218" lon="6.75693">
        <ele>1359.47</ele>
        <time>2018-06-20T08:19:50Z</time>
      </trkpt>
      <trkpt lat="44.41216" lon="6.75709">
        <ele>1359.54</ele>
        <time>2018-06-20T08:20:04Z</time>
      </trkpt>
      <trkpt lat="44.41213" lon="6.75719">
        <ele>1359.58</ele>
        <time>2018-06-20T08:20:06Z</time>
      </trkpt>
      <trkpt lat="44.41212" lon="6.75725">
        <ele>1359.6</ele>
        <time>2018-06-20T08:20:07Z</time>
      </trkpt>
      <trkpt lat="44.41212" lon="6.75732">
        <ele>1359.6</ele>
        <time>2018-06-20T08:20:08Z</time>
      </trkpt>
      <trkpt lat="44.41212" lon="6.75739">
        <ele>1361.9</ele>
        <time>2018-06-20T08:20:09Z</time>
      </trkpt>
      <trkpt lat="44.41213" lon="6.75745">
        <ele>1361.93</ele>
        <time>2018-06-20T08:20:10Z</time>
      </trkpt>
      <trkpt lat="44.41217" lon="6.75751">
        <ele>1361.97</ele>
        <time>2018-06-20T08:20:11Z</time>
      </trkpt>
      <trkpt lat="44.41221" lon="6.75758">
        <ele>1363.24</ele>
        <time>2018-06-20T08:20:12Z</time>
      </trkpt>
      <trkpt lat="44.41239" lon="6.75778">
        <ele>1365.09</ele>
        <time>2018-06-20T08:20:15Z</time>
      </trkpt>
      <trkpt lat="44.41258" lon="6.75795">
        <ele>1366.92</ele>
        <time>2018-06-20T08:20:18Z</time>
      </trkpt>
      <trkpt lat="44.41265" lon="6.758">
        <ele>1366.88</ele>
        <time>2018-06-20T08:20:19Z</time>
      </trkpt>
      <trkpt lat="44.41298" lon="6.75826">
        <ele>1367.8</ele>
        <time>2018-06-20T08:20:24Z</time>
      </trkpt>
      <trkpt lat="44.41304" lon="6.75834">
        <ele>1367.81</ele>
        <time>2018-06-20T08:20:25Z</time>
      </trkpt>
      <trkpt lat="44.41321" lon="6.75853">
        <ele>1370.47</ele>
        <time>2018-06-20T08:20:28Z</time>
      </trkpt>
      <trkpt lat="44.41328" lon="6.75857">
        <ele>1371.62</ele>
        <time>2018-06-20T08:20:29Z</time>
      </trkpt>
      <trkpt lat="44.41351" lon="6.75867">
        <ele>1375.1</ele>
        <time>2018-06-20T08:20:32Z</time>
      </trkpt>
      <trkpt lat="44.41358" lon="6.75871">
        <ele>1376.14</ele>
        <time>2018-06-20T08:20:33Z</time>
      </trkpt>
      <trkpt lat="44.41364" lon="6.75876">
        <ele>1377.16</ele>
        <time>2018-06-20T08:20:34Z</time>
      </trkpt>
      <trkpt lat="44.41368" lon="6.75883">
        <ele>1378.19</ele>
        <time>2018-06-20T08:20:35Z</time>
      </trkpt>
      <trkpt lat="44.41373" lon="6.75891">
        <ele>1379.28</ele>
        <time>2018-06-20T08:20:36Z</time>
      </trkpt>
      <trkpt lat="44.41376" lon="6.75899">
        <ele>1380.03</ele>
        <time>2018-06-20T08:20:37Z</time>
      </trkpt>
      <trkpt lat="44.4138" lon="6.75906">
        <ele>1380.07</ele>
        <time>2018-06-20T08:20:38Z</time>
      </trkpt>
      <trkpt lat="44.41385" lon="6.75911">
        <ele>1380.09</ele>
        <time>2018-06-20T08:20:39Z</time>
      </trkpt>
      <trkpt lat="44.41391" lon="6.75914">
        <ele>1380.11</ele>
        <time>2018-06-20T08:20:40Z</time>
      </trkpt>
      <trkpt lat="44.41437" lon="6.75939">
        <ele>1383.1</ele>
        <time>2018-06-20T08:20:46Z</time>
      </trkpt>
      <trkpt lat="44.41442" lon="6.75945">
        <ele>1383.1</ele>
        <time>2018-06-20T08:20:47Z</time>
      </trkpt>
      <trkpt lat="44.41446" lon="6.75952">
        <ele>1384.41</ele>
        <time>2018-06-20T08:20:48Z</time>
      </trkpt>
      <trkpt lat="44.41447" lon="6.75959">
        <ele>1385.21</ele>
        <time>2018-06-20T08:20:49Z</time>
      </trkpt>
      <trkpt lat="44.41448" lon="6.75967">
        <ele>1385.23</ele>
        <time>2018-06-20T08:20:50Z</time>
      </trkpt>
      <trkpt lat="44.41448" lon="6.75976">
        <ele>1386.82</ele>
        <time>2018-06-20T08:20:51Z</time>
      </trkpt>
      <trkpt lat="44.41447" lon="6.75988">
        <ele>1387.73</ele>
        <time>2018-06-20T08:20:52Z</time>
      </trkpt>
      <trkpt lat="44.41446" lon="6.76">
        <ele>1387.59</ele>
        <time>2018-06-20T08:20:53Z</time>
      </trkpt>
      <trkpt lat="44.41444" lon="6.76024">
        <ele>1388.78</ele>
        <time>2018-06-20T08:20:55Z</time>
      </trkpt>
      <trkpt lat="44.41445" lon="6.76037">
        <ele>1388.8</ele>
        <time>2018-06-20T08:20:56Z</time>
      </trkpt>
      <trkpt lat="44.41446" lon="6.7605">
        <ele>1389.89</ele>
        <time>2018-06-20T08:20:57Z</time>
      </trkpt>
      <trkpt lat="44.41448" lon="6.76075">
        <ele>1392.06</ele>
        <time>2018-06-20T08:20:59Z</time>
      </trkpt>
      <trkpt lat="44.41447" lon="6.76086">
        <ele>1392.29</ele>
        <time>2018-06-20T08:21:00Z</time>
      </trkpt>
      <trkpt lat="44.41445" lon="6.76097">
        <ele>1392.36</ele>
        <time>2018-06-20T08:21:01Z</time>
      </trkpt>
      <trkpt lat="44.41441" lon="6.76107">
        <ele>1393.08</ele>
        <time>2018-06-20T08:21:02Z</time>
      </trkpt>
      <trkpt lat="44.41437" lon="6.76116">
        <ele>1393.15</ele>
        <time>2018-06-20T08:21:03Z</time>
      </trkpt>
      <trkpt lat="44.41431" lon="6.76126">
        <ele>1394.65</ele>
        <time>2018-06-20T08:21:04Z</time>
      </trkpt>
      <trkpt lat="44.41425" lon="6.76136">
        <ele>1395.52</ele>
        <time>2018-06-20T08:21:05Z</time>
      </trkpt>
      <trkpt lat="44.41412" lon="6.76158">
        <ele>1396.44</ele>
        <time>2018-06-20T08:21:07Z</time>
      </trkpt>
      <trkpt lat="44.41402" lon="6.7618">
        <ele>1397.34</ele>
        <time>2018-06-20T08:21:09Z</time>
      </trkpt>
      <trkpt lat="44.41395" lon="6.76202">
        <ele>1398.7</ele>
        <time>2018-06-20T08:21:11Z</time>
      </trkpt>
      <trkpt lat="44.41394" lon="6.76213">
        <ele>1400.06</ele>
        <time>2018-06-20T08:21:12Z</time>
      </trkpt>
      <trkpt lat="44.41394" lon="6.76225">
        <ele>1400.21</ele>
        <time>2018-06-20T08:21:13Z</time>
      </trkpt>
      <trkpt lat="44.41396" lon="6.76236">
        <ele>1401.25</ele>
        <time>2018-06-20T08:21:14Z</time>
      </trkpt>
      <trkpt lat="44.414" lon="6.76246">
        <ele>1401.19</ele>
        <time>2018-06-20T08:21:15Z</time>
      </trkpt>
      <trkpt lat="44.41405" lon="6.76255">
        <ele>1402.38</ele>
        <time>2018-06-20T08:21:16Z</time>
      </trkpt>
      <trkpt lat="44.41422" lon="6.76288">
        <ele>1405.44</ele>
        <time>2018-06-20T08:21:19Z</time>
      </trkpt>
      <trkpt lat="44.41443" lon="6.76336">
        <ele>1409.45</ele>
        <time>2018-06-20T08:21:23Z</time>
      </trkpt>
      <trkpt lat="44.41453" lon="6.76357">
        <ele>1411.72</ele>
        <time>2018-06-20T08:21:25Z</time>
      </trkpt>
      <trkpt lat="44.41456" lon="6.7637">
        <ele>1412.99</ele>
        <time>2018-06-20T08:21:26Z</time>
      </trkpt>
      <trkpt lat="44.41458" lon="6.76383">
        <ele>1414.31</ele>
        <time>2018-06-20T08:21:27Z</time>
      </trkpt>
      <trkpt lat="44.41458" lon="6.76396">
        <ele>1415.31</ele>
        <time>2018-06-20T08:21:28Z</time>
      </trkpt>
      <trkpt lat="44.41457" lon="6.76409">
        <ele>1416.41</ele>
        <time>2018-06-20T08:21:29Z</time>
      </trkpt>
      <trkpt lat="44.41456" lon="6.76421">
        <ele>1417.54</ele>
        <time>2018-06-20T08:21:30Z</time>
      </trkpt>
      <trkpt lat="44.41455" lon="6.76433">
        <ele>1417.55</ele>
        <time>2018-06-20T08:21:31Z</time>
      </trkpt>
      <trkpt lat="44.41455" lon="6.76443">
        <ele>1418.75</ele>
        <time>2018-06-20T08:21:32Z</time>
      </trkpt>
      <trkpt lat="44.41458" lon="6.76451">
        <ele>1418.89</ele>
        <time>2018-06-20T08:21:33Z</time>
      </trkpt>
      <trkpt lat="44.41464" lon="6.76458">
        <ele>1420.24</ele>
        <time>2018-06-20T08:21:34Z</time>
      </trkpt>
      <trkpt lat="44.4147" lon="6.76463">
        <ele>1421.07</ele>
        <time>2018-06-20T08:21:35Z</time>
      </trkpt>
      <trkpt lat="44.41478" lon="6.76468">
        <ele>1421.71</ele>
        <time>2018-06-20T08:21:36Z</time>
      </trkpt>
      <trkpt lat="44.41488" lon="6.76472">
        <ele>1422.81</ele>
        <time>2018-06-20T08:21:37Z</time>
      </trkpt>
      <trkpt lat="44.41507" lon="6.76481">
        <ele>1424.66</ele>
        <time>2018-06-20T08:21:39Z</time>
      </trkpt>
      <trkpt lat="44.41513" lon="6.76487">
        <ele>1425.51</ele>
        <time>2018-06-20T08:21:40Z</time>
      </trkpt>
      <trkpt lat="44.41518" lon="6.76493">
        <ele>1425.66</ele>
        <time>2018-06-20T08:21:41Z</time>
      </trkpt>
      <trkpt lat="44.41522" lon="6.76497">
        <ele>1425.67</ele>
        <time>2018-06-20T08:21:42Z</time>
      </trkpt>
      <trkpt lat="44.41526" lon="6.765">
        <ele>1425.82</ele>
        <time>2018-06-20T08:21:48Z</time>
      </trkpt>
      <trkpt lat="44.41538" lon="6.76506">
        <ele>1427.94</ele>
        <time>2018-06-20T08:21:53Z</time>
      </trkpt>
      <trkpt lat="44.41544" lon="6.76507">
        <ele>1427.96</ele>
        <time>2018-06-20T08:21:54Z</time>
      </trkpt>
      <trkpt lat="44.4155" lon="6.76508">
        <ele>1429.04</ele>
        <time>2018-06-20T08:21:55Z</time>
      </trkpt>
      <trkpt lat="44.41556" lon="6.7651">
        <ele>1429.08</ele>
        <time>2018-06-20T08:21:56Z</time>
      </trkpt>
      <trkpt lat="44.41562" lon="6.76513">
        <ele>1430.16</ele>
        <time>2018-06-20T08:21:57Z</time>
      </trkpt>
      <trkpt lat="44.41566" lon="6.76519">
        <ele>1430.17</ele>
        <time>2018-06-20T08:21:58Z</time>
      </trkpt>
      <trkpt lat="44.4157" lon="6.76526">
        <ele>1431.3</ele>
        <time>2018-06-20T08:21:59Z</time>
      </trkpt>
      <trkpt lat="44.41572" lon="6.76534">
        <ele>1431.32</ele>
        <time>2018-06-20T08:22:00Z</time>
      </trkpt>
      <trkpt lat="44.41573" lon="6.76541">
        <ele>1432.2</ele>
        <time>2018-06-20T08:22:01Z</time>
      </trkpt>
      <trkpt lat="44.41573" lon="6.76549">
        <ele>1432.24</ele>
        <time>2018-06-20T08:22:02Z</time>
      </trkpt>
      <trkpt lat="44.41571" lon="6.76558">
        <ele>1433.22</ele>
        <time>2018-06-20T08:22:03Z</time>
      </trkpt>
      <trkpt lat="44.41568" lon="6.76566">
        <ele>1433.26</ele>
        <time>2018-06-20T08:22:04Z</time>
      </trkpt>
      <trkpt lat="44.41565" lon="6.76575">
        <ele>1434.59</ele>
        <time>2018-06-20T08:22:05Z</time>
      </trkpt>
      <trkpt lat="44.41562" lon="6.76584">
        <ele>1434.58</ele>
        <time>2018-06-20T08:22:06Z</time>
      </trkpt>
      <trkpt lat="44.41558" lon="6.76612">
        <ele>1437.79</ele>
        <time>2018-06-20T08:22:09Z</time>
      </trkpt>
      <trkpt lat="44.41559" lon="6.7662">
        <ele>1437.83</ele>
        <time>2018-06-20T08:22:10Z</time>
      </trkpt>
      <trkpt lat="44.41562" lon="6.76628">
        <ele>1439.16</ele>
        <time>2018-06-20T08:22:11Z</time>
      </trkpt>
      <trkpt lat="44.41565" lon="6.76634">
        <ele>1439.13</ele>
        <time>2018-06-20T08:22:12Z</time>
      </trkpt>
      <trkpt lat="44.41569" lon="6.7664">
        <ele>1440.38</ele>
        <time>2018-06-20T08:22:13Z</time>
      </trkpt>
      <trkpt lat="44.41574" lon="6.76645">
        <ele>1440.42</ele>
        <time>2018-06-20T08:22:14Z</time>
      </trkpt>
      <trkpt lat="44.41579" lon="6.76649">
        <ele>1441.87</ele>
        <time>2018-06-20T08:22:15Z</time>
      </trkpt>
      <trkpt lat="44.41583" lon="6.76654">
        <ele>1442.69</ele>
        <time>2018-06-20T08:22:16Z</time>
      </trkpt>
      <trkpt lat="44.41587" lon="6.7666">
        <ele>1442.1</ele>
        <time>2018-06-20T08:22:17Z</time>
      </trkpt>
      <trkpt lat="44.41591" lon="6.76666">
        <ele>1443.44</ele>
        <time>2018-06-20T08:22:18Z</time>
      </trkpt>
      <trkpt lat="44.41593" lon="6.76673">
        <ele>1443.45</ele>
        <time>2018-06-20T08:22:19Z</time>
      </trkpt>
      <trkpt lat="44.41594" lon="6.76682">
        <ele>1444.6</ele>
        <time>2018-06-20T08:22:20Z</time>
      </trkpt>
      <trkpt lat="44.41594" lon="6.76691">
        <ele>1444.57</ele>
        <time>2018-06-20T08:22:21Z</time>
      </trkpt>
      <trkpt lat="44.41595" lon="6.76701">
        <ele>1445.74</ele>
        <time>2018-06-20T08:22:22Z</time>
      </trkpt>
      <trkpt lat="44.41597" lon="6.76712">
        <ele>1445.78</ele>
        <time>2018-06-20T08:22:23Z</time>
      </trkpt>
      <trkpt lat="44.41599" lon="6.76723">
        <ele>1447.26</ele>
        <time>2018-06-20T08:22:24Z</time>
      </trkpt>
      <trkpt lat="44.41601" lon="6.76734">
        <ele>1447.26</ele>
        <time>2018-06-20T08:22:25Z</time>
      </trkpt>
      <trkpt lat="44.41609" lon="6.76767">
        <ele>1449.63</ele>
        <time>2018-06-20T08:22:28Z</time>
      </trkpt>
      <trkpt lat="44.4161" lon="6.76779">
        <ele>1450.86</ele>
        <time>2018-06-20T08:22:29Z</time>
      </trkpt>
      <trkpt lat="44.41612" lon="6.76791">
        <ele>1451.71</ele>
        <time>2018-06-20T08:22:30Z</time>
      </trkpt>
      <trkpt lat="44.41614" lon="6.76803">
        <ele>1452.59</ele>
        <time>2018-06-20T08:22:31Z</time>
      </trkpt>
      <trkpt lat="44.41617" lon="6.76815">
        <ele>1453.32</ele>
        <time>2018-06-20T08:22:32Z</time>
      </trkpt>
      <trkpt lat="44.41621" lon="6.76826">
        <ele>1453.35</ele>
        <time>2018-06-20T08:22:33Z</time>
      </trkpt>
      <trkpt lat="44.41625" lon="6.76837">
        <ele>1454.85</ele>
        <time>2018-06-20T08:22:34Z</time>
      </trkpt>
      <trkpt lat="44.41628" lon="6.76848">
        <ele>1454.89</ele>
        <time>2018-06-20T08:22:35Z</time>
      </trkpt>
      <trkpt lat="44.41631" lon="6.76861">
        <ele>1456.31</ele>
        <time>2018-06-20T08:22:36Z</time>
      </trkpt>
      <trkpt lat="44.41633" lon="6.76874">
        <ele>1456.35</ele>
        <time>2018-06-20T08:22:37Z</time>
      </trkpt>
      <trkpt lat="44.41639" lon="6.76898">
        <ele>1457.69</ele>
        <time>2018-06-20T08:22:39Z</time>
      </trkpt>
      <trkpt lat="44.41657" lon="6.76949">
        <ele>1460.11</ele>
        <time>2018-06-20T08:22:43Z</time>
      </trkpt>
      <trkpt lat="44.41659" lon="6.76961">
        <ele>1461.31</ele>
        <time>2018-06-20T08:22:44Z</time>
      </trkpt>
      <trkpt lat="44.41661" lon="6.76972">
        <ele>1461.31</ele>
        <time>2018-06-20T08:22:45Z</time>
      </trkpt>
      <trkpt lat="44.41661" lon="6.76983">
        <ele>1462.8</ele>
        <time>2018-06-20T08:22:46Z</time>
      </trkpt>
      <trkpt lat="44.41659" lon="6.76995">
        <ele>1462.87</ele>
        <time>2018-06-20T08:22:47Z</time>
      </trkpt>
      <trkpt lat="44.41656" lon="6.77007">
        <ele>1464.37</ele>
        <time>2018-06-20T08:22:48Z</time>
      </trkpt>
      <trkpt lat="44.41654" lon="6.77019">
        <ele>1465.28</ele>
        <time>2018-06-20T08:22:49Z</time>
      </trkpt>
      <trkpt lat="44.41653" lon="6.77032">
        <ele>1465.23</ele>
        <time>2018-06-20T08:22:50Z</time>
      </trkpt>
      <trkpt lat="44.41652" lon="6.77045">
        <ele>1465.99</ele>
        <time>2018-06-20T08:22:51Z</time>
      </trkpt>
      <trkpt lat="44.41651" lon="6.77079">
        <ele>1467.34</ele>
        <time>2018-06-20T08:22:54Z</time>
      </trkpt>
      <trkpt lat="44.41651" lon="6.77103">
        <ele>1467.55</ele>
        <time>2018-06-20T08:22:57Z</time>
      </trkpt>
      <trkpt lat="44.41649" lon="6.77106">
        <ele>1467.56</ele>
        <time>2018-06-20T08:22:58Z</time>
      </trkpt>
      <trkpt lat="44.41647" lon="6.77106">
        <ele>1467.57</ele>
        <time>2018-06-20T08:22:59Z</time>
      </trkpt>
      <trkpt lat="44.41645" lon="6.77104">
        <ele>1468.59</ele>
        <time>2018-06-20T08:23:00Z</time>
      </trkpt>
      <trkpt lat="44.41643" lon="6.771">
        <ele>1468.6</ele>
        <time>2018-06-20T08:23:01Z</time>
      </trkpt>
      <trkpt lat="44.41641" lon="6.77092">
        <ele>1469.48</ele>
        <time>2018-06-20T08:23:02Z</time>
      </trkpt>
      <trkpt lat="44.4164" lon="6.77082">
        <ele>1469.47</ele>
        <time>2018-06-20T08:23:03Z</time>
      </trkpt>
      <trkpt lat="44.41639" lon="6.7707">
        <ele>1470.67</ele>
        <time>2018-06-20T08:23:04Z</time>
      </trkpt>
      <trkpt lat="44.41635" lon="6.77046">
        <ele>1471.71</ele>
        <time>2018-06-20T08:23:06Z</time>
      </trkpt>
      <trkpt lat="44.41629" lon="6.77002">
        <ele>1474.97</ele>
        <time>2018-06-20T08:23:09Z</time>
      </trkpt>
      <trkpt lat="44.41625" lon="6.76974">
        <ele>1475.63</ele>
        <time>2018-06-20T08:23:11Z</time>
      </trkpt>
      <trkpt lat="44.41622" lon="6.76963">
        <ele>1475.68</ele>
        <time>2018-06-20T08:23:12Z</time>
      </trkpt>
      <trkpt lat="44.41619" lon="6.76954">
        <ele>1476.52</ele>
        <time>2018-06-20T08:23:13Z</time>
      </trkpt>
      <trkpt lat="44.41614" lon="6.76946">
        <ele>1477.36</ele>
        <time>2018-06-20T08:23:14Z</time>
      </trkpt>
      <trkpt lat="44.41609" lon="6.76939">
        <ele>1478.22</ele>
        <time>2018-06-20T08:23:15Z</time>
      </trkpt>
      <trkpt lat="44.41597" lon="6.7692">
        <ele>1479.07</ele>
        <time>2018-06-20T08:23:17Z</time>
      </trkpt>
      <trkpt lat="44.41594" lon="6.76909">
        <ele>1480.49</ele>
        <time>2018-06-20T08:23:18Z</time>
      </trkpt>
      <trkpt lat="44.41586" lon="6.76889">
        <ele>1482.41</ele>
        <time>2018-06-20T08:23:20Z</time>
      </trkpt>
      <trkpt lat="44.41582" lon="6.7688">
        <ele>1482.38</ele>
        <time>2018-06-20T08:23:21Z</time>
      </trkpt>
      <trkpt lat="44.41577" lon="6.76872">
        <ele>1483.43</ele>
        <time>2018-06-20T08:23:22Z</time>
      </trkpt>
      <trkpt lat="44.41572" lon="6.76867">
        <ele>1483.4</ele>
        <time>2018-06-20T08:23:23Z</time>
      </trkpt>
      <trkpt lat="44.41566" lon="6.76865">
        <ele>1483.44</ele>
        <time>2018-06-20T08:23:24Z</time>
      </trkpt>
      <trkpt lat="44.41558" lon="6.76864">
        <ele>1484.47</ele>
        <time>2018-06-20T08:23:25Z</time>
      </trkpt>
      <trkpt lat="44.41549" lon="6.76863">
        <ele>1484.51</ele>
        <time>2018-06-20T08:23:26Z</time>
      </trkpt>
      <trkpt lat="44.4154" lon="6.76861">
        <ele>1485.43</ele>
        <time>2018-06-20T08:23:27Z</time>
      </trkpt>
      <trkpt lat="44.41532" lon="6.76856">
        <ele>1485.47</ele>
        <time>2018-06-20T08:23:28Z</time>
      </trkpt>
      <trkpt lat="44.41498" lon="6.7683">
        <ele>1487.75</ele>
        <time>2018-06-20T08:23:32Z</time>
      </trkpt>
      <trkpt lat="44.4147" lon="6.76811">
        <ele>1490.12</ele>
        <time>2018-06-20T08:23:35Z</time>
      </trkpt>
      <trkpt lat="44.41461" lon="6.76803">
        <ele>1491.06</ele>
        <time>2018-06-20T08:23:36Z</time>
      </trkpt>
      <trkpt lat="44.41454" lon="6.76794">
        <ele>1491.06</ele>
        <time>2018-06-20T08:23:37Z</time>
      </trkpt>
      <trkpt lat="44.41448" lon="6.76783">
        <ele>1492.08</ele>
        <time>2018-06-20T08:23:38Z</time>
      </trkpt>
      <trkpt lat="44.41436" lon="6.76765">
        <ele>1492.85</ele>
        <time>2018-06-20T08:23:40Z</time>
      </trkpt>
      <trkpt lat="44.41429" lon="6.76758">
        <ele>1494.35</ele>
        <time>2018-06-20T08:23:41Z</time>
      </trkpt>
      <trkpt lat="44.41422" lon="6.76752">
        <ele>1494.46</ele>
        <time>2018-06-20T08:23:42Z</time>
      </trkpt>
      <trkpt lat="44.41405" lon="6.76739">
        <ele>1497.46</ele>
        <time>2018-06-20T08:23:44Z</time>
      </trkpt>
      <trkpt lat="44.41396" lon="6.76732">
        <ele>1496.88</ele>
        <time>2018-06-20T08:23:45Z</time>
      </trkpt>
      <trkpt lat="44.41379" lon="6.76717">
        <ele>1497.69</ele>
        <time>2018-06-20T08:23:47Z</time>
      </trkpt>
      <trkpt lat="44.41372" lon="6.76707">
        <ele>1498.61</ele>
        <time>2018-06-20T08:23:48Z</time>
      </trkpt>
      <trkpt lat="44.41368" lon="6.76697">
        <ele>1499.57</ele>
        <time>2018-06-20T08:23:49Z</time>
      </trkpt>
      <trkpt lat="44.41364" lon="6.76687">
        <ele>1499.57</ele>
        <time>2018-06-20T08:23:50Z</time>
      </trkpt>
      <trkpt lat="44.4136" lon="6.76675">
        <ele>1500.67</ele>
        <time>2018-06-20T08:23:51Z</time>
      </trkpt>
      <trkpt lat="44.41343" lon="6.76641">
        <ele>1501.19</ele>
        <time>2018-06-20T08:23:56Z</time>
      </trkpt>
      <trkpt lat="44.4134" lon="6.76642">
        <ele>1500.61</ele>
        <time>2018-06-20T08:23:57Z</time>
      </trkpt>
      <trkpt lat="44.41337" lon="6.76644">
        <ele>1500.97</ele>
        <time>2018-06-20T08:23:58Z</time>
      </trkpt>
      <trkpt lat="44.41334" lon="6.76649">
        <ele>1502.63</ele>
        <time>2018-06-20T08:23:59Z</time>
      </trkpt>
      <trkpt lat="44.41334" lon="6.76655">
        <ele>1502.63</ele>
        <time>2018-06-20T08:24:00Z</time>
      </trkpt>
      <trkpt lat="44.41337" lon="6.76664">
        <ele>1503.78</ele>
        <time>2018-06-20T08:24:01Z</time>
      </trkpt>
      <trkpt lat="44.4134" lon="6.76672">
        <ele>1503.84</ele>
        <time>2018-06-20T08:24:02Z</time>
      </trkpt>
      <trkpt lat="44.41344" lon="6.76682">
        <ele>1505.5</ele>
        <time>2018-06-20T08:24:03Z</time>
      </trkpt>
      <trkpt lat="44.41356" lon="6.76719">
        <ele>1507.75</ele>
        <time>2018-06-20T08:24:06Z</time>
      </trkpt>
      <trkpt lat="44.41367" lon="6.76744">
        <ele>1510.37</ele>
        <time>2018-06-20T08:24:08Z</time>
      </trkpt>
      <trkpt lat="44.4139" lon="6.76793">
        <ele>1513.42</ele>
        <time>2018-06-20T08:24:12Z</time>
      </trkpt>
      <trkpt lat="44.41394" lon="6.76803">
        <ele>1514.5</ele>
        <time>2018-06-20T08:24:13Z</time>
      </trkpt>
      <trkpt lat="44.41396" lon="6.76814">
        <ele>1515.35</ele>
        <time>2018-06-20T08:24:14Z</time>
      </trkpt>
      <trkpt lat="44.41403" lon="6.76849">
        <ele>1517.33</ele>
        <time>2018-06-20T08:24:17Z</time>
      </trkpt>
      <trkpt lat="44.41406" lon="6.76861">
        <ele>1518.93</ele>
        <time>2018-06-20T08:24:18Z</time>
      </trkpt>
      <trkpt lat="44.41414" lon="6.76874">
        <ele>1520.42</ele>
        <time>2018-06-20T08:24:19Z</time>
      </trkpt>
      <trkpt lat="44.41423" lon="6.76884">
        <ele>1522.03</ele>
        <time>2018-06-20T08:24:20Z</time>
      </trkpt>
      <trkpt lat="44.41431" lon="6.76892">
        <ele>1523.46</ele>
        <time>2018-06-20T08:24:21Z</time>
      </trkpt>
      <trkpt lat="44.41439" lon="6.769">
        <ele>1523.45</ele>
        <time>2018-06-20T08:24:22Z</time>
      </trkpt>
      <trkpt lat="44.41445" lon="6.76908">
        <ele>1524.53</ele>
        <time>2018-06-20T08:24:23Z</time>
      </trkpt>
      <trkpt lat="44.41451" lon="6.76915">
        <ele>1524.52</ele>
        <time>2018-06-20T08:24:24Z</time>
      </trkpt>
      <trkpt lat="44.41455" lon="6.76923">
        <ele>1525.46</ele>
        <time>2018-06-20T08:24:25Z</time>
      </trkpt>
      <trkpt lat="44.41458" lon="6.76932">
        <ele>1525.54</ele>
        <time>2018-06-20T08:24:26Z</time>
      </trkpt>
      <trkpt lat="44.41462" lon="6.76944">
        <ele>1526.61</ele>
        <time>2018-06-20T08:24:27Z</time>
      </trkpt>
      <trkpt lat="44.41464" lon="6.76957">
        <ele>1527.41</ele>
        <time>2018-06-20T08:24:28Z</time>
      </trkpt>
      <trkpt lat="44.41467" lon="6.76971">
        <ele>1528.32</ele>
        <time>2018-06-20T08:24:29Z</time>
      </trkpt>
      <trkpt lat="44.4147" lon="6.76987">
        <ele>1529.14</ele>
        <time>2018-06-20T08:24:30Z</time>
      </trkpt>
      <trkpt lat="44.41475" lon="6.77002">
        <ele>1530.07</ele>
        <time>2018-06-20T08:24:31Z</time>
      </trkpt>
      <trkpt lat="44.41478" lon="6.77017">
        <ele>1530.08</ele>
        <time>2018-06-20T08:24:32Z</time>
      </trkpt>
      <trkpt lat="44.41481" lon="6.77032">
        <ele>1532.27</ele>
        <time>2018-06-20T08:24:33Z</time>
      </trkpt>
      <trkpt lat="44.4149" lon="6.77072">
        <ele>1533.81</ele>
        <time>2018-06-20T08:24:36Z</time>
      </trkpt>
      <trkpt lat="44.41496" lon="6.77088">
        <ele>1535.48</ele>
        <time>2018-06-20T08:24:38Z</time>
      </trkpt>
      <trkpt lat="44.41498" lon="6.77096">
        <ele>1535.5</ele>
        <time>2018-06-20T08:24:39Z</time>
      </trkpt>
      <trkpt lat="44.41499" lon="6.77104">
        <ele>1536.37</ele>
        <time>2018-06-20T08:24:40Z</time>
      </trkpt>
      <trkpt lat="44.41499" lon="6.77112">
        <ele>1536.37</ele>
        <time>2018-06-20T08:24:41Z</time>
      </trkpt>
      <trkpt lat="44.41497" lon="6.77122">
        <ele>1537.35</ele>
        <time>2018-06-20T08:24:42Z</time>
      </trkpt>
      <trkpt lat="44.41492" lon="6.77131">
        <ele>1537.29</ele>
        <time>2018-06-20T08:24:43Z</time>
      </trkpt>
      <trkpt lat="44.41486" lon="6.7714">
        <ele>1538.68</ele>
        <time>2018-06-20T08:24:44Z</time>
      </trkpt>
      <trkpt lat="44.41479" lon="6.77148">
        <ele>1539.82</ele>
        <time>2018-06-20T08:24:45Z</time>
      </trkpt>
      <trkpt lat="44.41471" lon="6.77156">
        <ele>1539.77</ele>
        <time>2018-06-20T08:24:46Z</time>
      </trkpt>
      <trkpt lat="44.41465" lon="6.77164">
        <ele>1541.16</ele>
        <time>2018-06-20T08:24:47Z</time>
      </trkpt>
      <trkpt lat="44.4146" lon="6.77174">
        <ele>1542.09</ele>
        <time>2018-06-20T08:24:48Z</time>
      </trkpt>
      <trkpt lat="44.41456" lon="6.77185">
        <ele>1543.07</ele>
        <time>2018-06-20T08:24:49Z</time>
      </trkpt>
      <trkpt lat="44.41453" lon="6.77197">
        <ele>1543</ele>
        <time>2018-06-20T08:24:50Z</time>
      </trkpt>
      <trkpt lat="44.41452" lon="6.7721">
        <ele>1544.48</ele>
        <time>2018-06-20T08:24:51Z</time>
      </trkpt>
      <trkpt lat="44.41453" lon="6.77224">
        <ele>1545.43</ele>
        <time>2018-06-20T08:24:52Z</time>
      </trkpt>
      <trkpt lat="44.41457" lon="6.77239">
        <ele>1546.45</ele>
        <time>2018-06-20T08:24:53Z</time>
      </trkpt>
      <trkpt lat="44.41465" lon="6.77267">
        <ele>1547.73</ele>
        <time>2018-06-20T08:24:55Z</time>
      </trkpt>
      <trkpt lat="44.41476" lon="6.77305">
        <ele>1549.64</ele>
        <time>2018-06-20T08:24:58Z</time>
      </trkpt>
      <trkpt lat="44.41477" lon="6.77316">
        <ele>1549.74</ele>
        <time>2018-06-20T08:24:59Z</time>
      </trkpt>
      <trkpt lat="44.41477" lon="6.77327">
        <ele>1549.74</ele>
        <time>2018-06-20T08:25:00Z</time>
      </trkpt>
      <trkpt lat="44.41472" lon="6.77385">
        <ele>1553.13</ele>
        <time>2018-06-20T08:25:04Z</time>
      </trkpt>
      <trkpt lat="44.41465" lon="6.7743">
        <ele>1556.23</ele>
        <time>2018-06-20T08:25:07Z</time>
      </trkpt>
      <trkpt lat="44.41464" lon="6.77444">
        <ele>1557.99</ele>
        <time>2018-06-20T08:25:08Z</time>
      </trkpt>
      <trkpt lat="44.41461" lon="6.77482">
        <ele>1560.05</ele>
        <time>2018-06-20T08:25:11Z</time>
      </trkpt>
      <trkpt lat="44.41461" lon="6.77494">
        <ele>1560.79</ele>
        <time>2018-06-20T08:25:12Z</time>
      </trkpt>
      <trkpt lat="44.41462" lon="6.77506">
        <ele>1561.67</ele>
        <time>2018-06-20T08:25:13Z</time>
      </trkpt>
      <trkpt lat="44.41464" lon="6.77516">
        <ele>1561.76</ele>
        <time>2018-06-20T08:25:14Z</time>
      </trkpt>
      <trkpt lat="44.41467" lon="6.77526">
        <ele>1563.78</ele>
        <time>2018-06-20T08:25:15Z</time>
      </trkpt>
      <trkpt lat="44.41471" lon="6.77535">
        <ele>1564.5</ele>
        <time>2018-06-20T08:25:16Z</time>
      </trkpt>
      <trkpt lat="44.41474" lon="6.77543">
        <ele>1565.46</ele>
        <time>2018-06-20T08:25:17Z</time>
      </trkpt>
      <trkpt lat="44.41476" lon="6.77553">
        <ele>1565.46</ele>
        <time>2018-06-20T08:25:18Z</time>
      </trkpt>
      <trkpt lat="44.41482" lon="6.77573">
        <ele>1566.7</ele>
        <time>2018-06-20T08:25:20Z</time>
      </trkpt>
      <trkpt lat="44.41487" lon="6.77585">
        <ele>1568.67</ele>
        <time>2018-06-20T08:25:21Z</time>
      </trkpt>
      <trkpt lat="44.41493" lon="6.77598">
        <ele>1568.7</ele>
        <time>2018-06-20T08:25:22Z</time>
      </trkpt>
      <trkpt lat="44.41504" lon="6.77619">
        <ele>1569.66</ele>
        <time>2018-06-20T08:25:24Z</time>
      </trkpt>
      <trkpt lat="44.41508" lon="6.77629">
        <ele>1569.66</ele>
        <time>2018-06-20T08:25:25Z</time>
      </trkpt>
      <trkpt lat="44.41509" lon="6.77637">
        <ele>1571.18</ele>
        <time>2018-06-20T08:25:26Z</time>
      </trkpt>
      <trkpt lat="44.41507" lon="6.77645">
        <ele>1571.25</ele>
        <time>2018-06-20T08:25:27Z</time>
      </trkpt>
      <trkpt lat="44.41504" lon="6.77651">
        <ele>1571.95</ele>
        <time>2018-06-20T08:25:28Z</time>
      </trkpt>
      <trkpt lat="44.41499" lon="6.77656">
        <ele>1572.92</ele>
        <time>2018-06-20T08:25:29Z</time>
      </trkpt>
      <trkpt lat="44.41493" lon="6.77659">
        <ele>1572.94</ele>
        <time>2018-06-20T08:25:30Z</time>
      </trkpt>
      <trkpt lat="44.41485" lon="6.77661">
        <ele>1574.33</ele>
        <time>2018-06-20T08:25:31Z</time>
      </trkpt>
      <trkpt lat="44.41477" lon="6.77662">
        <ele>1574.41</ele>
        <time>2018-06-20T08:25:32Z</time>
      </trkpt>
      <trkpt lat="44.41468" lon="6.77663">
        <ele>1575.67</ele>
        <time>2018-06-20T08:25:33Z</time>
      </trkpt>
      <trkpt lat="44.41441" lon="6.77667">
        <ele>1577.85</ele>
        <time>2018-06-20T08:25:36Z</time>
      </trkpt>
      <trkpt lat="44.41425" lon="6.77673">
        <ele>1579.37</ele>
        <time>2018-06-20T08:25:38Z</time>
      </trkpt>
      <trkpt lat="44.41418" lon="6.77677">
        <ele>1580.8</ele>
        <time>2018-06-20T08:25:39Z</time>
      </trkpt>
      <trkpt lat="44.41414" lon="6.77685">
        <ele>1581.6</ele>
        <time>2018-06-20T08:25:40Z</time>
      </trkpt>
      <trkpt lat="44.41411" lon="6.77694">
        <ele>1581.63</ele>
        <time>2018-06-20T08:25:41Z</time>
      </trkpt>
      <trkpt lat="44.4141" lon="6.77704">
        <ele>1583.11</ele>
        <time>2018-06-20T08:25:42Z</time>
      </trkpt>
      <trkpt lat="44.41412" lon="6.77715">
        <ele>1583.1</ele>
        <time>2018-06-20T08:25:43Z</time>
      </trkpt>
      <trkpt lat="44.41417" lon="6.77725">
        <ele>1584.51</ele>
        <time>2018-06-20T08:25:44Z</time>
      </trkpt>
      <trkpt lat="44.41422" lon="6.77735">
        <ele>1585.56</ele>
        <time>2018-06-20T08:25:45Z</time>
      </trkpt>
      <trkpt lat="44.41429" lon="6.77744">
        <ele>1586.59</ele>
        <time>2018-06-20T08:25:46Z</time>
      </trkpt>
      <trkpt lat="44.41436" lon="6.77752">
        <ele>1587.77</ele>
        <time>2018-06-20T08:25:47Z</time>
      </trkpt>
      <trkpt lat="44.41444" lon="6.77759">
        <ele>1589.09</ele>
        <time>2018-06-20T08:25:48Z</time>
      </trkpt>
      <trkpt lat="44.41453" lon="6.77766">
        <ele>1589.95</ele>
        <time>2018-06-20T08:25:49Z</time>
      </trkpt>
      <trkpt lat="44.41462" lon="6.77772">
        <ele>1591.42</ele>
        <time>2018-06-20T08:25:50Z</time>
      </trkpt>
      <trkpt lat="44.4147" lon="6.77779">
        <ele>1592.5</ele>
        <time>2018-06-20T08:25:51Z</time>
      </trkpt>
      <trkpt lat="44.41476" lon="6.77785">
        <ele>1593.61</ele>
        <time>2018-06-20T08:25:52Z</time>
      </trkpt>
      <trkpt lat="44.41482" lon="6.77791">
        <ele>1594.69</ele>
        <time>2018-06-20T08:25:53Z</time>
      </trkpt>
      <trkpt lat="44.41486" lon="6.77797">
        <ele>1594.74</ele>
        <time>2018-06-20T08:25:54Z</time>
      </trkpt>
      <trkpt lat="44.41489" lon="6.77804">
        <ele>1595.62</ele>
        <time>2018-06-20T08:25:55Z</time>
      </trkpt>
      <trkpt lat="44.41489" lon="6.7781">
        <ele>1595.56</ele>
        <time>2018-06-20T08:25:56Z</time>
      </trkpt>
      <trkpt lat="44.41489" lon="6.77816">
        <ele>1596.51</ele>
        <time>2018-06-20T08:25:57Z</time>
      </trkpt>
      <trkpt lat="44.41486" lon="6.77822">
        <ele>1596.54</ele>
        <time>2018-06-20T08:25:58Z</time>
      </trkpt>
      <trkpt lat="44.41482" lon="6.7783">
        <ele>1598.03</ele>
        <time>2018-06-20T08:25:59Z</time>
      </trkpt>
      <trkpt lat="44.41477" lon="6.77838">
        <ele>1599.23</ele>
        <time>2018-06-20T08:26:00Z</time>
      </trkpt>
      <trkpt lat="44.41474" lon="6.7785">
        <ele>1600.35</ele>
        <time>2018-06-20T08:26:01Z</time>
      </trkpt>
      <trkpt lat="44.41471" lon="6.77864">
        <ele>1601.68</ele>
        <time>2018-06-20T08:26:02Z</time>
      </trkpt>
      <trkpt lat="44.41466" lon="6.77893">
        <ele>1603.17</ele>
        <time>2018-06-20T08:26:04Z</time>
      </trkpt>
      <trkpt lat="44.41463" lon="6.77906">
        <ele>1605.05</ele>
        <time>2018-06-20T08:26:05Z</time>
      </trkpt>
      <trkpt lat="44.41458" lon="6.77919">
        <ele>1605.86</ele>
        <time>2018-06-20T08:26:06Z</time>
      </trkpt>
      <trkpt lat="44.41453" lon="6.7793">
        <ele>1605.91</ele>
        <time>2018-06-20T08:26:07Z</time>
      </trkpt>
      <trkpt lat="44.41443" lon="6.77946">
        <ele>1606.97</ele>
        <time>2018-06-20T08:26:09Z</time>
      </trkpt>
      <trkpt lat="44.41436" lon="6.77952">
        <ele>1607.99</ele>
        <time>2018-06-20T08:26:10Z</time>
      </trkpt>
      <trkpt lat="44.41429" lon="6.77957">
        <ele>1608</ele>
        <time>2018-06-20T08:26:11Z</time>
      </trkpt>
      <trkpt lat="44.41421" lon="6.77961">
        <ele>1609.22</ele>
        <time>2018-06-20T08:26:12Z</time>
      </trkpt>
      <trkpt lat="44.41412" lon="6.77965">
        <ele>1610.8</ele>
        <time>2018-06-20T08:26:13Z</time>
      </trkpt>
      <trkpt lat="44.41403" lon="6.7797">
        <ele>1611.47</ele>
        <time>2018-06-20T08:26:14Z</time>
      </trkpt>
      <trkpt lat="44.41373" lon="6.7799">
        <ele>1615.65</ele>
        <time>2018-06-20T08:26:17Z</time>
      </trkpt>
      <trkpt lat="44.41352" lon="6.78005">
        <ele>1616.62</ele>
        <time>2018-06-20T08:26:19Z</time>
      </trkpt>
      <trkpt lat="44.41345" lon="6.78012">
        <ele>1617.79</ele>
        <time>2018-06-20T08:26:20Z</time>
      </trkpt>
      <trkpt lat="44.41339" lon="6.78019">
        <ele>1617.87</ele>
        <time>2018-06-20T08:26:21Z</time>
      </trkpt>
      <trkpt lat="44.41337" lon="6.78025">
        <ele>1618.79</ele>
        <time>2018-06-20T08:26:22Z</time>
      </trkpt>
      <trkpt lat="44.41336" lon="6.78032">
        <ele>1618.8</ele>
        <time>2018-06-20T08:26:23Z</time>
      </trkpt>
      <trkpt lat="44.41338" lon="6.7804">
        <ele>1619.93</ele>
        <time>2018-06-20T08:26:24Z</time>
      </trkpt>
      <trkpt lat="44.41343" lon="6.78048">
        <ele>1619.93</ele>
        <time>2018-06-20T08:26:25Z</time>
      </trkpt>
      <trkpt lat="44.4135" lon="6.78058">
        <ele>1621.29</ele>
        <time>2018-06-20T08:26:26Z</time>
      </trkpt>
      <trkpt lat="44.41355" lon="6.7807">
        <ele>1622.17</ele>
        <time>2018-06-20T08:26:27Z</time>
      </trkpt>
      <trkpt lat="44.41361" lon="6.78082">
        <ele>1623.19</ele>
        <time>2018-06-20T08:26:28Z</time>
      </trkpt>
      <trkpt lat="44.41366" lon="6.78096">
        <ele>1623.2</ele>
        <time>2018-06-20T08:26:29Z</time>
      </trkpt>
      <trkpt lat="44.41376" lon="6.78126">
        <ele>1626.86</ele>
        <time>2018-06-20T08:26:31Z</time>
      </trkpt>
      <trkpt lat="44.41384" lon="6.78154">
        <ele>1627.79</ele>
        <time>2018-06-20T08:26:33Z</time>
      </trkpt>
      <trkpt lat="44.41388" lon="6.78166">
        <ele>1627.76</ele>
        <time>2018-06-20T08:26:34Z</time>
      </trkpt>
      <trkpt lat="44.41394" lon="6.78176">
        <ele>1629.4</ele>
        <time>2018-06-20T08:26:35Z</time>
      </trkpt>
      <trkpt lat="44.414" lon="6.78184">
        <ele>1630.46</ele>
        <time>2018-06-20T08:26:36Z</time>
      </trkpt>
      <trkpt lat="44.41404" lon="6.78193">
        <ele>1631.28</ele>
        <time>2018-06-20T08:26:37Z</time>
      </trkpt>
      <trkpt lat="44.41407" lon="6.78201">
        <ele>1631.36</ele>
        <time>2018-06-20T08:26:38Z</time>
      </trkpt>
      <trkpt lat="44.41407" lon="6.78208">
        <ele>1632.22</ele>
        <time>2018-06-20T08:26:39Z</time>
      </trkpt>
      <trkpt lat="44.41405" lon="6.78214">
        <ele>1632.23</ele>
        <time>2018-06-20T08:26:40Z</time>
      </trkpt>
      <trkpt lat="44.41402" lon="6.78219">
        <ele>1632.26</ele>
        <time>2018-06-20T08:26:41Z</time>
      </trkpt>
      <trkpt lat="44.41397" lon="6.78223">
        <ele>1633.3</ele>
        <time>2018-06-20T08:26:42Z</time>
      </trkpt>
      <trkpt lat="44.41392" lon="6.78227">
        <ele>1633.41</ele>
        <time>2018-06-20T08:26:43Z</time>
      </trkpt>
      <trkpt lat="44.41385" lon="6.78232">
        <ele>1634.98</ele>
        <time>2018-06-20T08:26:44Z</time>
      </trkpt>
      <trkpt lat="44.41378" lon="6.78237">
        <ele>1636.08</ele>
        <time>2018-06-20T08:26:45Z</time>
      </trkpt>
      <trkpt lat="44.41371" lon="6.78243">
        <ele>1636.93</ele>
        <time>2018-06-20T08:26:46Z</time>
      </trkpt>
      <trkpt lat="44.41365" lon="6.78251">
        <ele>1637.86</ele>
        <time>2018-06-20T08:26:47Z</time>
      </trkpt>
      <trkpt lat="44.41352" lon="6.78267">
        <ele>1638.82</ele>
        <time>2018-06-20T08:26:49Z</time>
      </trkpt>
      <trkpt lat="44.41338" lon="6.78281">
        <ele>1640.81</ele>
        <time>2018-06-20T08:26:51Z</time>
      </trkpt>
      <trkpt lat="44.4133" lon="6.78285">
        <ele>1640.76</ele>
        <time>2018-06-20T08:26:52Z</time>
      </trkpt>
      <trkpt lat="44.41322" lon="6.78287">
        <ele>1642.19</ele>
        <time>2018-06-20T08:26:53Z</time>
      </trkpt>
      <trkpt lat="44.41314" lon="6.78288">
        <ele>1642.3</ele>
        <time>2018-06-20T08:26:54Z</time>
      </trkpt>
      <trkpt lat="44.41305" lon="6.78288">
        <ele>1644.11</ele>
        <time>2018-06-20T08:26:55Z</time>
      </trkpt>
      <trkpt lat="44.41297" lon="6.78288">
        <ele>1645.15</ele>
        <time>2018-06-20T08:26:56Z</time>
      </trkpt>
      <trkpt lat="44.4129" lon="6.78291">
        <ele>1645.16</ele>
        <time>2018-06-20T08:26:57Z</time>
      </trkpt>
      <trkpt lat="44.41286" lon="6.78297">
        <ele>1646.23</ele>
        <time>2018-06-20T08:26:58Z</time>
      </trkpt>
      <trkpt lat="44.41283" lon="6.78305">
        <ele>1646.25</ele>
        <time>2018-06-20T08:26:59Z</time>
      </trkpt>
      <trkpt lat="44.41281" lon="6.78315">
        <ele>1647.94</ele>
        <time>2018-06-20T08:27:00Z</time>
      </trkpt>
      <trkpt lat="44.4128" lon="6.78327">
        <ele>1649.38</ele>
        <time>2018-06-20T08:27:01Z</time>
      </trkpt>
      <trkpt lat="44.41279" lon="6.7834">
        <ele>1650.56</ele>
        <time>2018-06-20T08:27:02Z</time>
      </trkpt>
      <trkpt lat="44.41279" lon="6.78354">
        <ele>1650.64</ele>
        <time>2018-06-20T08:27:03Z</time>
      </trkpt>
      <trkpt lat="44.41277" lon="6.78383">
        <ele>1653.87</ele>
        <time>2018-06-20T08:27:05Z</time>
      </trkpt>
      <trkpt lat="44.41275" lon="6.78395">
        <ele>1653.95</ele>
        <time>2018-06-20T08:27:06Z</time>
      </trkpt>
      <trkpt lat="44.41274" lon="6.78406">
        <ele>1655.53</ele>
        <time>2018-06-20T08:27:07Z</time>
      </trkpt>
      <trkpt lat="44.41275" lon="6.78415">
        <ele>1656.32</ele>
        <time>2018-06-20T08:27:08Z</time>
      </trkpt>
      <trkpt lat="44.41276" lon="6.78421">
        <ele>1656.4</ele>
        <time>2018-06-20T08:27:09Z</time>
      </trkpt>
      <trkpt lat="44.41278" lon="6.78425">
        <ele>1656.34</ele>
        <time>2018-06-20T08:27:10Z</time>
      </trkpt>
      <trkpt lat="44.4128" lon="6.78428">
        <ele>1656.43</ele>
        <time>2018-06-20T08:27:11Z</time>
      </trkpt>
      <trkpt lat="44.41285" lon="6.78428">
        <ele>1657.37</ele>
        <time>2018-06-20T08:27:12Z</time>
      </trkpt>
      <trkpt lat="44.41291" lon="6.78427">
        <ele>1657.37</ele>
        <time>2018-06-20T08:27:13Z</time>
      </trkpt>
      <trkpt lat="44.41299" lon="6.78423">
        <ele>1657.32</ele>
        <time>2018-06-20T08:27:14Z</time>
      </trkpt>
      <trkpt lat="44.41307" lon="6.78421">
        <ele>1658.23</ele>
        <time>2018-06-20T08:27:15Z</time>
      </trkpt>
      <trkpt lat="44.41313" lon="6.78421">
        <ele>1658.12</ele>
        <time>2018-06-20T08:27:16Z</time>
      </trkpt>
      <trkpt lat="44.41319" lon="6.78423">
        <ele>1658.19</ele>
        <time>2018-06-20T08:27:17Z</time>
      </trkpt>
      <trkpt lat="44.41345" lon="6.78436">
        <ele>1660.21</ele>
        <time>2018-06-20T08:27:21Z</time>
      </trkpt>
      <trkpt lat="44.41366" lon="6.78456">
        <ele>1662.2</ele>
        <time>2018-06-20T08:27:29Z</time>
      </trkpt>
      <trkpt lat="44.41375" lon="6.7846">
        <ele>1662.96</ele>
        <time>2018-06-20T08:27:45Z</time>
      </trkpt>
      <trkpt lat="44.4138" lon="6.78463">
        <ele>1662.96</ele>
        <time>2018-06-20T08:27:46Z</time>
      </trkpt>
      <trkpt lat="44.41386" lon="6.78466">
        <ele>1664.38</ele>
        <time>2018-06-20T08:27:47Z</time>
      </trkpt>
      <trkpt lat="44.41393" lon="6.78469">
        <ele>1664.4</ele>
        <time>2018-06-20T08:27:48Z</time>
      </trkpt>
      <trkpt lat="44.41407" lon="6.78477">
        <ele>1666.34</ele>
        <time>2018-06-20T08:27:50Z</time>
      </trkpt>
      <trkpt lat="44.41413" lon="6.78484">
        <ele>1666.38</ele>
        <time>2018-06-20T08:27:51Z</time>
      </trkpt>
      <trkpt lat="44.41419" lon="6.78492">
        <ele>1667.34</ele>
        <time>2018-06-20T08:27:52Z</time>
      </trkpt>
      <trkpt lat="44.41424" lon="6.78501">
        <ele>1667.36</ele>
        <time>2018-06-20T08:27:53Z</time>
      </trkpt>
      <trkpt lat="44.41431" lon="6.7851">
        <ele>1669.03</ele>
        <time>2018-06-20T08:27:54Z</time>
      </trkpt>
      <trkpt lat="44.41443" lon="6.78526">
        <ele>1670.02</ele>
        <time>2018-06-20T08:27:56Z</time>
      </trkpt>
      <trkpt lat="44.4145" lon="6.78533">
        <ele>1671.07</ele>
        <time>2018-06-20T08:27:57Z</time>
      </trkpt>
      <trkpt lat="44.41457" lon="6.78538">
        <ele>1671.91</ele>
        <time>2018-06-20T08:27:58Z</time>
      </trkpt>
      <trkpt lat="44.41465" lon="6.78542">
        <ele>1672.02</ele>
        <time>2018-06-20T08:27:59Z</time>
      </trkpt>
      <trkpt lat="44.41473" lon="6.78546">
        <ele>1673.3</ele>
        <time>2018-06-20T08:28:00Z</time>
      </trkpt>
      <trkpt lat="44.41483" lon="6.78549">
        <ele>1673.38</ele>
        <time>2018-06-20T08:28:01Z</time>
      </trkpt>
      <trkpt lat="44.41516" lon="6.78555">
        <ele>1675.84</ele>
        <time>2018-06-20T08:28:05Z</time>
      </trkpt>
      <trkpt lat="44.41524" lon="6.78558">
        <ele>1676.9</ele>
        <time>2018-06-20T08:28:06Z</time>
      </trkpt>
      <trkpt lat="44.4153" lon="6.78563">
        <ele>1677.03</ele>
        <time>2018-06-20T08:28:07Z</time>
      </trkpt>
      <trkpt lat="44.41535" lon="6.78571">
        <ele>1678.02</ele>
        <time>2018-06-20T08:28:08Z</time>
      </trkpt>
      <trkpt lat="44.41538" lon="6.7858">
        <ele>1678.07</ele>
        <time>2018-06-20T08:28:09Z</time>
      </trkpt>
      <trkpt lat="44.41542" lon="6.7859">
        <ele>1679.14</ele>
        <time>2018-06-20T08:28:10Z</time>
      </trkpt>
      <trkpt lat="44.41547" lon="6.78602">
        <ele>1679.26</ele>
        <time>2018-06-20T08:28:11Z</time>
      </trkpt>
      <trkpt lat="44.41553" lon="6.78611">
        <ele>1680.82</ele>
        <time>2018-06-20T08:28:12Z</time>
      </trkpt>
      <trkpt lat="44.4156" lon="6.78619">
        <ele>1680.89</ele>
        <time>2018-06-20T08:28:13Z</time>
      </trkpt>
      <trkpt lat="44.41567" lon="6.78625">
        <ele>1682.01</ele>
        <time>2018-06-20T08:28:14Z</time>
      </trkpt>
      <trkpt lat="44.41574" lon="6.7863">
        <ele>1682.01</ele>
        <time>2018-06-20T08:28:15Z</time>
      </trkpt>
      <trkpt lat="44.4158" lon="6.78635">
        <ele>1682.93</ele>
        <time>2018-06-20T08:28:16Z</time>
      </trkpt>
      <trkpt lat="44.41584" lon="6.78641">
        <ele>1683.46</ele>
        <time>2018-06-20T08:28:17Z</time>
      </trkpt>
      <trkpt lat="44.41587" lon="6.78647">
        <ele>1683.46</ele>
        <time>2018-06-20T08:28:18Z</time>
      </trkpt>
      <trkpt lat="44.41589" lon="6.78654">
        <ele>1684.32</ele>
        <time>2018-06-20T08:28:19Z</time>
      </trkpt>
      <trkpt lat="44.41589" lon="6.78662">
        <ele>1684.39</ele>
        <time>2018-06-20T08:28:20Z</time>
      </trkpt>
      <trkpt lat="44.41589" lon="6.7867">
        <ele>1685.21</ele>
        <time>2018-06-20T08:28:21Z</time>
      </trkpt>
      <trkpt lat="44.41587" lon="6.78679">
        <ele>1685.98</ele>
        <time>2018-06-20T08:28:22Z</time>
      </trkpt>
      <trkpt lat="44.41585" lon="6.78689">
        <ele>1686.01</ele>
        <time>2018-06-20T08:28:23Z</time>
      </trkpt>
      <trkpt lat="44.41578" lon="6.78737">
        <ele>1689.72</ele>
        <time>2018-06-20T08:28:27Z</time>
      </trkpt>
      <trkpt lat="44.41578" lon="6.78749">
        <ele>1690.79</ele>
        <time>2018-06-20T08:28:28Z</time>
      </trkpt>
      <trkpt lat="44.4158" lon="6.78762">
        <ele>1690.86</ele>
        <time>2018-06-20T08:28:29Z</time>
      </trkpt>
      <trkpt lat="44.41582" lon="6.78789">
        <ele>1692.38</ele>
        <time>2018-06-20T08:28:31Z</time>
      </trkpt>
      <trkpt lat="44.41587" lon="6.78814">
        <ele>1694.61</ele>
        <time>2018-06-20T08:28:33Z</time>
      </trkpt>
      <trkpt lat="44.41592" lon="6.78825">
        <ele>1695.62</ele>
        <time>2018-06-20T08:28:34Z</time>
      </trkpt>
      <trkpt lat="44.41599" lon="6.78833">
        <ele>1696.77</ele>
        <time>2018-06-20T08:28:35Z</time>
      </trkpt>
      <trkpt lat="44.41612" lon="6.78849">
        <ele>1697.79</ele>
        <time>2018-06-20T08:28:37Z</time>
      </trkpt>
      <trkpt lat="44.41617" lon="6.78857">
        <ele>1698.84</ele>
        <time>2018-06-20T08:28:38Z</time>
      </trkpt>
      <trkpt lat="44.41621" lon="6.78867">
        <ele>1698.98</ele>
        <time>2018-06-20T08:28:39Z</time>
      </trkpt>
      <trkpt lat="44.41623" lon="6.78878">
        <ele>1699.92</ele>
        <time>2018-06-20T08:28:40Z</time>
      </trkpt>
      <trkpt lat="44.41624" lon="6.78889">
        <ele>1700.01</ele>
        <time>2018-06-20T08:28:41Z</time>
      </trkpt>
      <trkpt lat="44.41623" lon="6.789">
        <ele>1700.87</ele>
        <time>2018-06-20T08:28:42Z</time>
      </trkpt>
      <trkpt lat="44.41622" lon="6.78925">
        <ele>1702.25</ele>
        <time>2018-06-20T08:28:44Z</time>
      </trkpt>
      <trkpt lat="44.41623" lon="6.78937">
        <ele>1702.31</ele>
        <time>2018-06-20T08:28:45Z</time>
      </trkpt>
      <trkpt lat="44.41627" lon="6.78972">
        <ele>1702.33</ele>
        <time>2018-06-20T08:28:48Z</time>
      </trkpt>
      <trkpt lat="44.41626" lon="6.78983">
        <ele>1702.35</ele>
        <time>2018-06-20T08:28:49Z</time>
      </trkpt>
      <trkpt lat="44.41625" lon="6.78996">
        <ele>1702.29</ele>
        <time>2018-06-20T08:28:50Z</time>
      </trkpt>
      <trkpt lat="44.41623" lon="6.7902">
        <ele>1702.25</ele>
        <time>2018-06-20T08:28:52Z</time>
      </trkpt>
      <trkpt lat="44.41625" lon="6.79044">
        <ele>1702.25</ele>
        <time>2018-06-20T08:28:54Z</time>
      </trkpt>
      <trkpt lat="44.41629" lon="6.79057">
        <ele>1702.27</ele>
        <time>2018-06-20T08:28:55Z</time>
      </trkpt>
      <trkpt lat="44.41645" lon="6.79096">
        <ele>1702.3</ele>
        <time>2018-06-20T08:28:58Z</time>
      </trkpt>
      <trkpt lat="44.4169" lon="6.79213">
        <ele>1705.37</ele>
        <time>2018-06-20T08:29:06Z</time>
      </trkpt>
      <trkpt lat="44.41696" lon="6.79229">
        <ele>1705.41</ele>
        <time>2018-06-20T08:29:07Z</time>
      </trkpt>
      <trkpt lat="44.41715" lon="6.7931">
        <ele>1707.5</ele>
        <time>2018-06-20T08:29:12Z</time>
      </trkpt>
      <trkpt lat="44.41723" lon="6.79343">
        <ele>1708.37</ele>
        <time>2018-06-20T08:29:14Z</time>
      </trkpt>
      <trkpt lat="44.41725" lon="6.79361">
        <ele>1709.25</ele>
        <time>2018-06-20T08:29:15Z</time>
      </trkpt>
      <trkpt lat="44.41727" lon="6.79379">
        <ele>1709.32</ele>
        <time>2018-06-20T08:29:16Z</time>
      </trkpt>
      <trkpt lat="44.41732" lon="6.79436">
        <ele>1712.95</ele>
        <time>2018-06-20T08:29:19Z</time>
      </trkpt>
      <trkpt lat="44.41734" lon="6.79454">
        <ele>1712.97</ele>
        <time>2018-06-20T08:29:20Z</time>
      </trkpt>
      <trkpt lat="44.41738" lon="6.79471">
        <ele>1713.99</ele>
        <time>2018-06-20T08:29:21Z</time>
      </trkpt>
      <trkpt lat="44.41742" lon="6.79485">
        <ele>1713.98</ele>
        <time>2018-06-20T08:29:22Z</time>
      </trkpt>
      <trkpt lat="44.4175" lon="6.79511">
        <ele>1715.85</ele>
        <time>2018-06-20T08:29:24Z</time>
      </trkpt>
      <trkpt lat="44.41752" lon="6.79523">
        <ele>1715.86</ele>
        <time>2018-06-20T08:29:25Z</time>
      </trkpt>
      <trkpt lat="44.41755" lon="6.79549">
        <ele>1717.1</ele>
        <time>2018-06-20T08:29:27Z</time>
      </trkpt>
      <trkpt lat="44.41754" lon="6.79561">
        <ele>1717.05</ele>
        <time>2018-06-20T08:29:28Z</time>
      </trkpt>
      <trkpt lat="44.41752" lon="6.79573">
        <ele>1717.05</ele>
        <time>2018-06-20T08:29:29Z</time>
      </trkpt>
      <trkpt lat="44.41745" lon="6.796">
        <ele>1718.77</ele>
        <time>2018-06-20T08:29:31Z</time>
      </trkpt>
      <trkpt lat="44.41741" lon="6.79616">
        <ele>1719.81</ele>
        <time>2018-06-20T08:29:32Z</time>
      </trkpt>
      <trkpt lat="44.41737" lon="6.79632">
        <ele>1719.9</ele>
        <time>2018-06-20T08:29:33Z</time>
      </trkpt>
      <trkpt lat="44.41716" lon="6.79712">
        <ele>1719.74</ele>
        <time>2018-06-20T08:29:39Z</time>
      </trkpt>
      <trkpt lat="44.4171" lon="6.79756">
        <ele>1719.61</ele>
        <time>2018-06-20T08:29:42Z</time>
      </trkpt>
      <trkpt lat="44.41703" lon="6.79798">
        <ele>1716.91</ele>
        <time>2018-06-20T08:29:46Z</time>
      </trkpt>
      <trkpt lat="44.41703" lon="6.79806">
        <ele>1716.23</ele>
        <time>2018-06-20T08:29:52Z</time>
      </trkpt>
      <trkpt lat="44.41707" lon="6.79815">
        <ele>1715.59</ele>
        <time>2018-06-20T08:30:23Z</time>
      </trkpt>
      <trkpt lat="44.41703" lon="6.79834">
        <ele>1715.98</ele>
        <time>2018-06-20T08:30:47Z</time>
      </trkpt>
      <trkpt lat="44.41702" lon="6.79849">
        <ele>1716.01</ele>
        <time>2018-06-20T08:30:49Z</time>
      </trkpt>
      <trkpt lat="44.41702" lon="6.79867">
        <ele>1718.51</ele>
        <time>2018-06-20T08:30:51Z</time>
      </trkpt>
      <trkpt lat="44.41705" lon="6.79877">
        <ele>1718.53</ele>
        <time>2018-06-20T08:30:52Z</time>
      </trkpt>
      <trkpt lat="44.41709" lon="6.79886">
        <ele>1719.46</ele>
        <time>2018-06-20T08:30:53Z</time>
      </trkpt>
      <trkpt lat="44.41714" lon="6.79896">
        <ele>1719.5</ele>
        <time>2018-06-20T08:30:54Z</time>
      </trkpt>
      <trkpt lat="44.4172" lon="6.79906">
        <ele>1720.62</ele>
        <time>2018-06-20T08:30:55Z</time>
      </trkpt>
      <trkpt lat="44.41734" lon="6.79934">
        <ele>1720.71</ele>
        <time>2018-06-20T08:30:58Z</time>
      </trkpt>
      <trkpt lat="44.41737" lon="6.79944">
        <ele>1720.7</ele>
        <time>2018-06-20T08:30:59Z</time>
      </trkpt>
      <trkpt lat="44.41739" lon="6.79954">
        <ele>1720.74</ele>
        <time>2018-06-20T08:31:00Z</time>
      </trkpt>
      <trkpt lat="44.4174" lon="6.79962">
        <ele>1720.75</ele>
        <time>2018-06-20T08:31:01Z</time>
      </trkpt>
      <trkpt lat="44.41741" lon="6.79971">
        <ele>1720.79</ele>
        <time>2018-06-20T08:31:02Z</time>
      </trkpt>
      <trkpt lat="44.41741" lon="6.7998">
        <ele>1720.8</ele>
        <time>2018-06-20T08:31:03Z</time>
      </trkpt>
      <trkpt lat="44.41739" lon="6.8">
        <ele>1720.81</ele>
        <time>2018-06-20T08:31:05Z</time>
      </trkpt>
      <trkpt lat="44.41727" lon="6.80055">
        <ele>1720.72</ele>
        <time>2018-06-20T08:31:10Z</time>
      </trkpt>
      <trkpt lat="44.41723" lon="6.80064">
        <ele>1720.72</ele>
        <time>2018-06-20T08:31:11Z</time>
      </trkpt>
      <trkpt lat="44.41718" lon="6.80073">
        <ele>1720.73</ele>
        <time>2018-06-20T08:31:12Z</time>
      </trkpt>
      <trkpt lat="44.41709" lon="6.80086">
        <ele>1718.43</ele>
        <time>2018-06-20T08:31:14Z</time>
      </trkpt>
      <trkpt lat="44.41707" lon="6.80093">
        <ele>1718.41</ele>
        <time>2018-06-20T08:31:15Z</time>
      </trkpt>
      <trkpt lat="44.41706" lon="6.801">
        <ele>1717.42</ele>
        <time>2018-06-20T08:31:16Z</time>
      </trkpt>
      <trkpt lat="44.41706" lon="6.80108">
        <ele>1717.56</ele>
        <time>2018-06-20T08:31:17Z</time>
      </trkpt>
      <trkpt lat="44.41709" lon="6.80116">
        <ele>1717.56</ele>
        <time>2018-06-20T08:31:18Z</time>
      </trkpt>
      <trkpt lat="44.41714" lon="6.80125">
        <ele>1717.56</ele>
        <time>2018-06-20T08:31:19Z</time>
      </trkpt>
      <trkpt lat="44.41719" lon="6.80135">
        <ele>1717.57</ele>
        <time>2018-06-20T08:31:20Z</time>
      </trkpt>
      <trkpt lat="44.41725" lon="6.80146">
        <ele>1717.58</ele>
        <time>2018-06-20T08:31:21Z</time>
      </trkpt>
      <trkpt lat="44.41729" lon="6.80158">
        <ele>1717.6</ele>
        <time>2018-06-20T08:31:22Z</time>
      </trkpt>
      <trkpt lat="44.41743" lon="6.80205">
        <ele>1717.63</ele>
        <time>2018-06-20T08:31:26Z</time>
      </trkpt>
      <trkpt lat="44.41748" lon="6.80229">
        <ele>1717.67</ele>
        <time>2018-06-20T08:31:28Z</time>
      </trkpt>
      <trkpt lat="44.41749" lon="6.8024">
        <ele>1717.69</ele>
        <time>2018-06-20T08:31:29Z</time>
      </trkpt>
      <trkpt lat="44.41748" lon="6.80263">
        <ele>1717.71</ele>
        <time>2018-06-20T08:31:31Z</time>
      </trkpt>
      <trkpt lat="44.41744" lon="6.80302">
        <ele>1716.87</ele>
        <time>2018-06-20T08:31:34Z</time>
      </trkpt>
      <trkpt lat="44.41738" lon="6.80322">
        <ele>1716.89</ele>
        <time>2018-06-20T08:31:36Z</time>
      </trkpt>
      <trkpt lat="44.41733" lon="6.80332">
        <ele>1716.89</ele>
        <time>2018-06-20T08:31:37Z</time>
      </trkpt>
      <trkpt lat="44.4173" lon="6.80345">
        <ele>1716.91</ele>
        <time>2018-06-20T08:31:38Z</time>
      </trkpt>
      <trkpt lat="44.41728" lon="6.80359">
        <ele>1716.92</ele>
        <time>2018-06-20T08:31:39Z</time>
      </trkpt>
      <trkpt lat="44.41725" lon="6.80375">
        <ele>1716.94</ele>
        <time>2018-06-20T08:31:40Z</time>
      </trkpt>
      <trkpt lat="44.41719" lon="6.80408">
        <ele>1716.98</ele>
        <time>2018-06-20T08:31:42Z</time>
      </trkpt>
      <trkpt lat="44.41715" lon="6.80456">
        <ele>1717.02</ele>
        <time>2018-06-20T08:31:45Z</time>
      </trkpt>
      <trkpt lat="44.41701" lon="6.80553">
        <ele>1717.19</ele>
        <time>2018-06-20T08:31:52Z</time>
      </trkpt>
      <trkpt lat="44.41693" lon="6.80582">
        <ele>1720.62</ele>
        <time>2018-06-20T08:31:54Z</time>
      </trkpt>
      <trkpt lat="44.41681" lon="6.80627">
        <ele>1725.21</ele>
        <time>2018-06-20T08:31:57Z</time>
      </trkpt>
      <trkpt lat="44.41668" lon="6.80664">
        <ele>1727.78</ele>
        <time>2018-06-20T08:32:00Z</time>
      </trkpt>
      <trkpt lat="44.41663" lon="6.80674">
        <ele>1728.57</ele>
        <time>2018-06-20T08:32:01Z</time>
      </trkpt>
      <trkpt lat="44.41653" lon="6.80692">
        <ele>1728.63</ele>
        <time>2018-06-20T08:32:03Z</time>
      </trkpt>
      <trkpt lat="44.41644" lon="6.80698">
        <ele>1728.61</ele>
        <time>2018-06-20T08:32:04Z</time>
      </trkpt>
      <trkpt lat="44.41596" lon="6.80738">
        <ele>1729.56</ele>
        <time>2018-06-20T08:32:09Z</time>
      </trkpt>
      <trkpt lat="44.41587" lon="6.8075">
        <ele>1729.57</ele>
        <time>2018-06-20T08:32:10Z</time>
      </trkpt>
      <trkpt lat="44.41579" lon="6.80763">
        <ele>1729.61</ele>
        <time>2018-06-20T08:32:11Z</time>
      </trkpt>
      <trkpt lat="44.41573" lon="6.80777">
        <ele>1729.6</ele>
        <time>2018-06-20T08:32:12Z</time>
      </trkpt>
      <trkpt lat="44.41568" lon="6.8079">
        <ele>1729.59</ele>
        <time>2018-06-20T08:32:13Z</time>
      </trkpt>
      <trkpt lat="44.41565" lon="6.80805">
        <ele>1729.62</ele>
        <time>2018-06-20T08:32:14Z</time>
      </trkpt>
      <trkpt lat="44.41562" lon="6.80818">
        <ele>1729.6</ele>
        <time>2018-06-20T08:32:15Z</time>
      </trkpt>
      <trkpt lat="44.41557" lon="6.80831">
        <ele>1729.63</ele>
        <time>2018-06-20T08:32:16Z</time>
      </trkpt>
      <trkpt lat="44.41553" lon="6.80843">
        <ele>1729.64</ele>
        <time>2018-06-20T08:32:17Z</time>
      </trkpt>
      <trkpt lat="44.41548" lon="6.80854">
        <ele>1729.65</ele>
        <time>2018-06-20T08:32:18Z</time>
      </trkpt>
      <trkpt lat="44.41544" lon="6.80864">
        <ele>1729.66</ele>
        <time>2018-06-20T08:32:19Z</time>
      </trkpt>
      <trkpt lat="44.41539" lon="6.80872">
        <ele>1729.66</ele>
        <time>2018-06-20T08:32:20Z</time>
      </trkpt>
      <trkpt lat="44.41533" lon="6.8088">
        <ele>1729.68</ele>
        <time>2018-06-20T08:32:21Z</time>
      </trkpt>
      <trkpt lat="44.41518" lon="6.80898">
        <ele>1729.68</ele>
        <time>2018-06-20T08:32:23Z</time>
      </trkpt>
      <trkpt lat="44.41476" lon="6.80958">
        <ele>1729.76</ele>
        <time>2018-06-20T08:32:28Z</time>
      </trkpt>
      <trkpt lat="44.41468" lon="6.80972">
        <ele>1729.78</ele>
        <time>2018-06-20T08:32:29Z</time>
      </trkpt>
      <trkpt lat="44.41402" lon="6.8107">
        <ele>1729.87</ele>
        <time>2018-06-20T08:32:38Z</time>
      </trkpt>
      <trkpt lat="44.41394" lon="6.81075">
        <ele>1729.87</ele>
        <time>2018-06-20T08:32:39Z</time>
      </trkpt>
      <trkpt lat="44.41386" lon="6.81079">
        <ele>1729.88</ele>
        <time>2018-06-20T08:32:40Z</time>
      </trkpt>
      <trkpt lat="44.41377" lon="6.8108">
        <ele>1729.89</ele>
        <time>2018-06-20T08:32:41Z</time>
      </trkpt>
      <trkpt lat="44.41368" lon="6.8108">
        <ele>1729.91</ele>
        <time>2018-06-20T08:32:42Z</time>
      </trkpt>
      <trkpt lat="44.4136" lon="6.81078">
        <ele>1729.91</ele>
        <time>2018-06-20T08:32:43Z</time>
      </trkpt>
      <trkpt lat="44.41353" lon="6.8108">
        <ele>1729.93</ele>
        <time>2018-06-20T08:32:44Z</time>
      </trkpt>
      <trkpt lat="44.41349" lon="6.81083">
        <ele>1729.95</ele>
        <time>2018-06-20T08:32:45Z</time>
      </trkpt>
      <trkpt lat="44.41345" lon="6.81089">
        <ele>1729.99</ele>
        <time>2018-06-20T08:32:46Z</time>
      </trkpt>
      <trkpt lat="44.41343" lon="6.81096">
        <ele>1731.06</ele>
        <time>2018-06-20T08:32:47Z</time>
      </trkpt>
      <trkpt lat="44.4134" lon="6.81103">
        <ele>1731.08</ele>
        <time>2018-06-20T08:32:48Z</time>
      </trkpt>
      <trkpt lat="44.41337" lon="6.8111">
        <ele>1731.1</ele>
        <time>2018-06-20T08:32:49Z</time>
      </trkpt>
      <trkpt lat="44.41332" lon="6.81113">
        <ele>1731.12</ele>
        <time>2018-06-20T08:32:50Z</time>
      </trkpt>
      <trkpt lat="44.41326" lon="6.81115">
        <ele>1732.07</ele>
        <time>2018-06-20T08:32:51Z</time>
      </trkpt>
      <trkpt lat="44.41319" lon="6.81117">
        <ele>1732.07</ele>
        <time>2018-06-20T08:32:52Z</time>
      </trkpt>
      <trkpt lat="44.41312" lon="6.81119">
        <ele>1732.84</ele>
        <time>2018-06-20T08:32:53Z</time>
      </trkpt>
      <trkpt lat="44.41307" lon="6.81123">
        <ele>1732.84</ele>
        <time>2018-06-20T08:32:54Z</time>
      </trkpt>
      <trkpt lat="44.41304" lon="6.81128">
        <ele>1732.85</ele>
        <time>2018-06-20T08:32:55Z</time>
      </trkpt>
      <trkpt lat="44.41303" lon="6.81135">
        <ele>1732.89</ele>
        <time>2018-06-20T08:32:56Z</time>
      </trkpt>
      <trkpt lat="44.41303" lon="6.81144">
        <ele>1732.92</ele>
        <time>2018-06-20T08:32:57Z</time>
      </trkpt>
      <trkpt lat="44.41304" lon="6.81156">
        <ele>1732.93</ele>
        <time>2018-06-20T08:32:58Z</time>
      </trkpt>
      <trkpt lat="44.41307" lon="6.8117">
        <ele>1732.94</ele>
        <time>2018-06-20T08:32:59Z</time>
      </trkpt>
      <trkpt lat="44.41311" lon="6.81191">
        <ele>1730.67</ele>
        <time>2018-06-20T08:33:01Z</time>
      </trkpt>
      <trkpt lat="44.41311" lon="6.812">
        <ele>1730.66</ele>
        <time>2018-06-20T08:33:02Z</time>
      </trkpt>
      <trkpt lat="44.41309" lon="6.81207">
        <ele>1730.63</ele>
        <time>2018-06-20T08:33:03Z</time>
      </trkpt>
      <trkpt lat="44.41306" lon="6.81214">
        <ele>1730.62</ele>
        <time>2018-06-20T08:33:04Z</time>
      </trkpt>
      <trkpt lat="44.41302" lon="6.81223">
        <ele>1730.6</ele>
        <time>2018-06-20T08:33:05Z</time>
      </trkpt>
      <trkpt lat="44.41299" lon="6.81234">
        <ele>1730.59</ele>
        <time>2018-06-20T08:33:06Z</time>
      </trkpt>
      <trkpt lat="44.41297" lon="6.81247">
        <ele>1730.59</ele>
        <time>2018-06-20T08:33:07Z</time>
      </trkpt>
      <trkpt lat="44.41294" lon="6.81261">
        <ele>1730.6</ele>
        <time>2018-06-20T08:33:08Z</time>
      </trkpt>
      <trkpt lat="44.4129" lon="6.81273">
        <ele>1730.6</ele>
        <time>2018-06-20T08:33:09Z</time>
      </trkpt>
      <trkpt lat="44.41288" lon="6.81287">
        <ele>1730.62</ele>
        <time>2018-06-20T08:33:10Z</time>
      </trkpt>
      <trkpt lat="44.41282" lon="6.81317">
        <ele>1733.95</ele>
        <time>2018-06-20T08:33:12Z</time>
      </trkpt>
      <trkpt lat="44.41277" lon="6.81331">
        <ele>1733.98</ele>
        <time>2018-06-20T08:33:13Z</time>
      </trkpt>
      <trkpt lat="44.41239" lon="6.81406">
        <ele>1736.54</ele>
        <time>2018-06-20T08:33:19Z</time>
      </trkpt>
      <trkpt lat="44.41233" lon="6.81418">
        <ele>1737.45</ele>
        <time>2018-06-20T08:33:20Z</time>
      </trkpt>
      <trkpt lat="44.41222" lon="6.81447">
        <ele>1738.9</ele>
        <time>2018-06-20T08:33:23Z</time>
      </trkpt>
      <trkpt lat="44.41217" lon="6.81455">
        <ele>1738.96</ele>
        <time>2018-06-20T08:33:24Z</time>
      </trkpt>
      <trkpt lat="44.41212" lon="6.81463">
        <ele>1740.72</ele>
        <time>2018-06-20T08:33:25Z</time>
      </trkpt>
      <trkpt lat="44.41198" lon="6.81479">
        <ele>1742.04</ele>
        <time>2018-06-20T08:33:27Z</time>
      </trkpt>
      <trkpt lat="44.41179" lon="6.815">
        <ele>1744.7</ele>
        <time>2018-06-20T08:33:30Z</time>
      </trkpt>
      <trkpt lat="44.41169" lon="6.81512">
        <ele>1746.17</ele>
        <time>2018-06-20T08:33:32Z</time>
      </trkpt>
      <trkpt lat="44.41165" lon="6.8152">
        <ele>1748.07</ele>
        <time>2018-06-20T08:33:33Z</time>
      </trkpt>
      <trkpt lat="44.41159" lon="6.81528">
        <ele>1749.64</ele>
        <time>2018-06-20T08:33:34Z</time>
      </trkpt>
      <trkpt lat="44.41153" lon="6.81536">
        <ele>1749.66</ele>
        <time>2018-06-20T08:33:35Z</time>
      </trkpt>
      <trkpt lat="44.41147" lon="6.81545">
        <ele>1750.86</ele>
        <time>2018-06-20T08:33:36Z</time>
      </trkpt>
      <trkpt lat="44.41143" lon="6.81554">
        <ele>1750.87</ele>
        <time>2018-06-20T08:33:37Z</time>
      </trkpt>
      <trkpt lat="44.41141" lon="6.81565">
        <ele>1750.91</ele>
        <time>2018-06-20T08:33:38Z</time>
      </trkpt>
      <trkpt lat="44.41139" lon="6.81577">
        <ele>1751.67</ele>
        <time>2018-06-20T08:33:39Z</time>
      </trkpt>
      <trkpt lat="44.41137" lon="6.81589">
        <ele>1751.68</ele>
        <time>2018-06-20T08:33:40Z</time>
      </trkpt>
      <trkpt lat="44.41133" lon="6.81599">
        <ele>1753.1</ele>
        <time>2018-06-20T08:33:41Z</time>
      </trkpt>
      <trkpt lat="44.41128" lon="6.81606">
        <ele>1753.11</ele>
        <time>2018-06-20T08:33:42Z</time>
      </trkpt>
      <trkpt lat="44.41124" lon="6.81612">
        <ele>1753.91</ele>
        <time>2018-06-20T08:33:43Z</time>
      </trkpt>
      <trkpt lat="44.4112" lon="6.81619">
        <ele>1753.98</ele>
        <time>2018-06-20T08:33:44Z</time>
      </trkpt>
      <trkpt lat="44.41117" lon="6.81628">
        <ele>1754.9</ele>
        <time>2018-06-20T08:33:45Z</time>
      </trkpt>
      <trkpt lat="44.41113" lon="6.81638">
        <ele>1755.88</ele>
        <time>2018-06-20T08:33:46Z</time>
      </trkpt>
      <trkpt lat="44.41109" lon="6.81648">
        <ele>1757.07</ele>
        <time>2018-06-20T08:33:47Z</time>
      </trkpt>
      <trkpt lat="44.41101" lon="6.81668">
        <ele>1759.32</ele>
        <time>2018-06-20T08:33:49Z</time>
      </trkpt>
      <trkpt lat="44.41096" lon="6.81678">
        <ele>1759.31</ele>
        <time>2018-06-20T08:33:50Z</time>
      </trkpt>
      <trkpt lat="44.41091" lon="6.81686">
        <ele>1760.95</ele>
        <time>2018-06-20T08:33:51Z</time>
      </trkpt>
      <trkpt lat="44.41086" lon="6.81692">
        <ele>1760.9</ele>
        <time>2018-06-20T08:33:52Z</time>
      </trkpt>
      <trkpt lat="44.4108" lon="6.81698">
        <ele>1761.86</ele>
        <time>2018-06-20T08:33:53Z</time>
      </trkpt>
      <trkpt lat="44.41073" lon="6.81702">
        <ele>1761.82</ele>
        <time>2018-06-20T08:33:54Z</time>
      </trkpt>
      <trkpt lat="44.41065" lon="6.81707">
        <ele>1761.89</ele>
        <time>2018-06-20T08:33:55Z</time>
      </trkpt>
      <trkpt lat="44.41059" lon="6.81714">
        <ele>1763.11</ele>
        <time>2018-06-20T08:33:56Z</time>
      </trkpt>
      <trkpt lat="44.41052" lon="6.81722">
        <ele>1763.14</ele>
        <time>2018-06-20T08:33:57Z</time>
      </trkpt>
      <trkpt lat="44.41046" lon="6.81731">
        <ele>1763.18</ele>
        <time>2018-06-20T08:33:58Z</time>
      </trkpt>
      <trkpt lat="44.41022" lon="6.81779">
        <ele>1764.15</ele>
        <time>2018-06-20T08:34:03Z</time>
      </trkpt>
      <trkpt lat="44.41019" lon="6.81788">
        <ele>1764.08</ele>
        <time>2018-06-20T08:34:04Z</time>
      </trkpt>
      <trkpt lat="44.40988" lon="6.81852">
        <ele>1765.47</ele>
        <time>2018-06-20T08:34:10Z</time>
      </trkpt>
      <trkpt lat="44.40982" lon="6.81859">
        <ele>1765.48</ele>
        <time>2018-06-20T08:34:11Z</time>
      </trkpt>
      <trkpt lat="44.40975" lon="6.81866">
        <ele>1766.72</ele>
        <time>2018-06-20T08:34:12Z</time>
      </trkpt>
      <trkpt lat="44.40969" lon="6.81873">
        <ele>1766.74</ele>
        <time>2018-06-20T08:34:13Z</time>
      </trkpt>
      <trkpt lat="44.40963" lon="6.81882">
        <ele>1767.48</ele>
        <time>2018-06-20T08:34:14Z</time>
      </trkpt>
      <trkpt lat="44.40957" lon="6.81891">
        <ele>1767.5</ele>
        <time>2018-06-20T08:34:15Z</time>
      </trkpt>
      <trkpt lat="44.40947" lon="6.81907">
        <ele>1768.77</ele>
        <time>2018-06-20T08:34:17Z</time>
      </trkpt>
      <trkpt lat="44.40943" lon="6.81914">
        <ele>1768.78</ele>
        <time>2018-06-20T08:34:18Z</time>
      </trkpt>
      <trkpt lat="44.40939" lon="6.8192">
        <ele>1768.82</ele>
        <time>2018-06-20T08:34:19Z</time>
      </trkpt>
      <trkpt lat="44.40934" lon="6.81926">
        <ele>1768.81</ele>
        <time>2018-06-20T08:34:20Z</time>
      </trkpt>
      <trkpt lat="44.4093" lon="6.8193">
        <ele>1768.85</ele>
        <time>2018-06-20T08:34:21Z</time>
      </trkpt>
      <trkpt lat="44.40925" lon="6.81932">
        <ele>1768.86</ele>
        <time>2018-06-20T08:34:22Z</time>
      </trkpt>
      <trkpt lat="44.40919" lon="6.81932">
        <ele>1768.91</ele>
        <time>2018-06-20T08:34:23Z</time>
      </trkpt>
      <trkpt lat="44.40914" lon="6.81934">
        <ele>1768.86</ele>
        <time>2018-06-20T08:34:24Z</time>
      </trkpt>
      <trkpt lat="44.4091" lon="6.81939">
        <ele>1768.83</ele>
        <time>2018-06-20T08:34:25Z</time>
      </trkpt>
      <trkpt lat="44.40907" lon="6.81946">
        <ele>1768.88</ele>
        <time>2018-06-20T08:34:26Z</time>
      </trkpt>
      <trkpt lat="44.40904" lon="6.81954">
        <ele>1768.89</ele>
        <time>2018-06-20T08:34:27Z</time>
      </trkpt>
      <trkpt lat="44.409" lon="6.81962">
        <ele>1770.03</ele>
        <time>2018-06-20T08:34:28Z</time>
      </trkpt>
      <trkpt lat="44.40895" lon="6.81968">
        <ele>1769.99</ele>
        <time>2018-06-20T08:34:29Z</time>
      </trkpt>
      <trkpt lat="44.40889" lon="6.81972">
        <ele>1769.95</ele>
        <time>2018-06-20T08:34:30Z</time>
      </trkpt>
      <trkpt lat="44.40883" lon="6.81974">
        <ele>1769.91</ele>
        <time>2018-06-20T08:34:31Z</time>
      </trkpt>
      <trkpt lat="44.40875" lon="6.81976">
        <ele>1769.9</ele>
        <time>2018-06-20T08:34:32Z</time>
      </trkpt>
      <trkpt lat="44.40866" lon="6.81979">
        <ele>1769.9</ele>
        <time>2018-06-20T08:34:33Z</time>
      </trkpt>
      <trkpt lat="44.40858" lon="6.81985">
        <ele>1769.91</ele>
        <time>2018-06-20T08:34:34Z</time>
      </trkpt>
      <trkpt lat="44.4085" lon="6.81993">
        <ele>1769.92</ele>
        <time>2018-06-20T08:34:35Z</time>
      </trkpt>
      <trkpt lat="44.40842" lon="6.82003">
        <ele>1769.93</ele>
        <time>2018-06-20T08:34:36Z</time>
      </trkpt>
      <trkpt lat="44.40835" lon="6.82014">
        <ele>1769.95</ele>
        <time>2018-06-20T08:34:37Z</time>
      </trkpt>
      <trkpt lat="44.40829" lon="6.82027">
        <ele>1769.95</ele>
        <time>2018-06-20T08:34:38Z</time>
      </trkpt>
      <trkpt lat="44.40824" lon="6.82041">
        <ele>1769.97</ele>
        <time>2018-06-20T08:34:39Z</time>
      </trkpt>
      <trkpt lat="44.40819" lon="6.82054">
        <ele>1769.98</ele>
        <time>2018-06-20T08:34:40Z</time>
      </trkpt>
      <trkpt lat="44.40813" lon="6.82066">
        <ele>1770.03</ele>
        <time>2018-06-20T08:34:41Z</time>
      </trkpt>
      <trkpt lat="44.40806" lon="6.82076">
        <ele>1770.08</ele>
        <time>2018-06-20T08:34:42Z</time>
      </trkpt>
      <trkpt lat="44.40799" lon="6.82087">
        <ele>1770.09</ele>
        <time>2018-06-20T08:34:43Z</time>
      </trkpt>
      <trkpt lat="44.40793" lon="6.82099">
        <ele>1770.18</ele>
        <time>2018-06-20T08:34:44Z</time>
      </trkpt>
      <trkpt lat="44.40787" lon="6.82112">
        <ele>1770.85</ele>
        <time>2018-06-20T08:34:45Z</time>
      </trkpt>
      <trkpt lat="44.40782" lon="6.82125">
        <ele>1770.98</ele>
        <time>2018-06-20T08:34:46Z</time>
      </trkpt>
      <trkpt lat="44.40776" lon="6.82135">
        <ele>1771.64</ele>
        <time>2018-06-20T08:34:47Z</time>
      </trkpt>
      <trkpt lat="44.4077" lon="6.82145">
        <ele>1773.08</ele>
        <time>2018-06-20T08:34:48Z</time>
      </trkpt>
      <trkpt lat="44.40763" lon="6.82154">
        <ele>1773.09</ele>
        <time>2018-06-20T08:34:49Z</time>
      </trkpt>
      <trkpt lat="44.40758" lon="6.82164">
        <ele>1773.12</ele>
        <time>2018-06-20T08:34:50Z</time>
      </trkpt>
      <trkpt lat="44.40753" lon="6.82176">
        <ele>1773.98</ele>
        <time>2018-06-20T08:34:51Z</time>
      </trkpt>
      <trkpt lat="44.40749" lon="6.82188">
        <ele>1773.99</ele>
        <time>2018-06-20T08:34:52Z</time>
      </trkpt>
      <trkpt lat="44.40745" lon="6.82201">
        <ele>1775.13</ele>
        <time>2018-06-20T08:34:53Z</time>
      </trkpt>
      <trkpt lat="44.40729" lon="6.82248">
        <ele>1777.15</ele>
        <time>2018-06-20T08:34:56Z</time>
      </trkpt>
      <trkpt lat="44.40714" lon="6.82287">
        <ele>1779.48</ele>
        <time>2018-06-20T08:34:59Z</time>
      </trkpt>
      <trkpt lat="44.40692" lon="6.82319">
        <ele>1781.58</ele>
        <time>2018-06-20T08:35:02Z</time>
      </trkpt>
      <trkpt lat="44.40663" lon="6.82355">
        <ele>1781.68</ele>
        <time>2018-06-20T08:35:06Z</time>
      </trkpt>
      <trkpt lat="44.40656" lon="6.82365">
        <ele>1781.66</ele>
        <time>2018-06-20T08:35:07Z</time>
      </trkpt>
      <trkpt lat="44.40649" lon="6.82373">
        <ele>1781.65</ele>
        <time>2018-06-20T08:35:08Z</time>
      </trkpt>
      <trkpt lat="44.40641" lon="6.82378">
        <ele>1781.67</ele>
        <time>2018-06-20T08:35:09Z</time>
      </trkpt>
      <trkpt lat="44.40634" lon="6.82381">
        <ele>1781.73</ele>
        <time>2018-06-20T08:35:10Z</time>
      </trkpt>
      <trkpt lat="44.40627" lon="6.82383">
        <ele>1781.57</ele>
        <time>2018-06-20T08:35:11Z</time>
      </trkpt>
      <trkpt lat="44.4062" lon="6.82385">
        <ele>1781.51</ele>
        <time>2018-06-20T08:35:12Z</time>
      </trkpt>
      <trkpt lat="44.40613" lon="6.82388">
        <ele>1781.51</ele>
        <time>2018-06-20T08:35:13Z</time>
      </trkpt>
      <trkpt lat="44.40608" lon="6.82393">
        <ele>1781.5</ele>
        <time>2018-06-20T08:35:14Z</time>
      </trkpt>
      <trkpt lat="44.4056" lon="6.8245">
        <ele>1782.36</ele>
        <time>2018-06-20T08:35:21Z</time>
      </trkpt>
      <trkpt lat="44.40552" lon="6.82465">
        <ele>1783.28</ele>
        <time>2018-06-20T08:35:22Z</time>
      </trkpt>
      <trkpt lat="44.40545" lon="6.82482">
        <ele>1784.52</ele>
        <time>2018-06-20T08:35:23Z</time>
      </trkpt>
      <trkpt lat="44.40532" lon="6.82512">
        <ele>1785.5</ele>
        <time>2018-06-20T08:35:25Z</time>
      </trkpt>
      <trkpt lat="44.40527" lon="6.82525">
        <ele>1786.85</ele>
        <time>2018-06-20T08:35:26Z</time>
      </trkpt>
      <trkpt lat="44.40523" lon="6.82537">
        <ele>1786.94</ele>
        <time>2018-06-20T08:35:27Z</time>
      </trkpt>
      <trkpt lat="44.40515" lon="6.82557">
        <ele>1788.14</ele>
        <time>2018-06-20T08:35:29Z</time>
      </trkpt>
      <trkpt lat="44.4051" lon="6.82566">
        <ele>1789.19</ele>
        <time>2018-06-20T08:35:30Z</time>
      </trkpt>
      <trkpt lat="44.40503" lon="6.82574">
        <ele>1789.26</ele>
        <time>2018-06-20T08:35:31Z</time>
      </trkpt>
      <trkpt lat="44.40488" lon="6.82592">
        <ele>1792.78</ele>
        <time>2018-06-20T08:35:33Z</time>
      </trkpt>
      <trkpt lat="44.40482" lon="6.82602">
        <ele>1792.86</ele>
        <time>2018-06-20T08:35:34Z</time>
      </trkpt>
      <trkpt lat="44.40475" lon="6.82611">
        <ele>1794.17</ele>
        <time>2018-06-20T08:35:35Z</time>
      </trkpt>
      <trkpt lat="44.40467" lon="6.82618">
        <ele>1795.16</ele>
        <time>2018-06-20T08:35:36Z</time>
      </trkpt>
      <trkpt lat="44.40458" lon="6.82624">
        <ele>1796.24</ele>
        <time>2018-06-20T08:35:37Z</time>
      </trkpt>
      <trkpt lat="44.40448" lon="6.82629">
        <ele>1797.35</ele>
        <time>2018-06-20T08:35:38Z</time>
      </trkpt>
      <trkpt lat="44.40439" lon="6.82634">
        <ele>1798.63</ele>
        <time>2018-06-20T08:35:39Z</time>
      </trkpt>
      <trkpt lat="44.4043" lon="6.82641">
        <ele>1800.1</ele>
        <time>2018-06-20T08:35:40Z</time>
      </trkpt>
      <trkpt lat="44.40422" lon="6.8265">
        <ele>1801</ele>
        <time>2018-06-20T08:35:41Z</time>
      </trkpt>
      <trkpt lat="44.40415" lon="6.82659">
        <ele>1801.88</ele>
        <time>2018-06-20T08:35:42Z</time>
      </trkpt>
      <trkpt lat="44.40408" lon="6.82668">
        <ele>1802</ele>
        <time>2018-06-20T08:35:43Z</time>
      </trkpt>
      <trkpt lat="44.40401" lon="6.82676">
        <ele>1803.39</ele>
        <time>2018-06-20T08:35:44Z</time>
      </trkpt>
      <trkpt lat="44.40394" lon="6.82682">
        <ele>1803.36</ele>
        <time>2018-06-20T08:35:45Z</time>
      </trkpt>
      <trkpt lat="44.40386" lon="6.82685">
        <ele>1804.15</ele>
        <time>2018-06-20T08:35:46Z</time>
      </trkpt>
      <trkpt lat="44.40356" lon="6.82688">
        <ele>1805.91</ele>
        <time>2018-06-20T08:35:49Z</time>
      </trkpt>
      <trkpt lat="44.40332" lon="6.82687">
        <ele>1807.13</ele>
        <time>2018-06-20T08:35:51Z</time>
      </trkpt>
      <trkpt lat="44.40313" lon="6.82689">
        <ele>1808.04</ele>
        <time>2018-06-20T08:35:53Z</time>
      </trkpt>
      <trkpt lat="44.40306" lon="6.82692">
        <ele>1809.3</ele>
        <time>2018-06-20T08:35:54Z</time>
      </trkpt>
      <trkpt lat="44.40299" lon="6.82696">
        <ele>1809.33</ele>
        <time>2018-06-20T08:35:55Z</time>
      </trkpt>
      <trkpt lat="44.40286" lon="6.82708">
        <ele>1810.95</ele>
        <time>2018-06-20T08:35:57Z</time>
      </trkpt>
      <trkpt lat="44.40276" lon="6.82717">
        <ele>1812.36</ele>
        <time>2018-06-20T08:35:59Z</time>
      </trkpt>
      <trkpt lat="44.40271" lon="6.8272">
        <ele>1813.19</ele>
        <time>2018-06-20T08:36:00Z</time>
      </trkpt>
      <trkpt lat="44.40265" lon="6.82721">
        <ele>1813.12</ele>
        <time>2018-06-20T08:36:01Z</time>
      </trkpt>
      <trkpt lat="44.40259" lon="6.82721">
        <ele>1813.2</ele>
        <time>2018-06-20T08:36:02Z</time>
      </trkpt>
      <trkpt lat="44.40252" lon="6.8272">
        <ele>1813.12</ele>
        <time>2018-06-20T08:36:03Z</time>
      </trkpt>
      <trkpt lat="44.40244" lon="6.82717">
        <ele>1814</ele>
        <time>2018-06-20T08:36:04Z</time>
      </trkpt>
      <trkpt lat="44.40236" lon="6.82714">
        <ele>1814.04</ele>
        <time>2018-06-20T08:36:05Z</time>
      </trkpt>
      <trkpt lat="44.40217" lon="6.82708">
        <ele>1815.97</ele>
        <time>2018-06-20T08:36:07Z</time>
      </trkpt>
      <trkpt lat="44.40208" lon="6.82707">
        <ele>1815.94</ele>
        <time>2018-06-20T08:36:08Z</time>
      </trkpt>
      <trkpt lat="44.40199" lon="6.82708">
        <ele>1816.48</ele>
        <time>2018-06-20T08:36:09Z</time>
      </trkpt>
      <trkpt lat="44.40149" lon="6.82724">
        <ele>1818.92</ele>
        <time>2018-06-20T08:36:14Z</time>
      </trkpt>
      <trkpt lat="44.40132" lon="6.82731">
        <ele>1819.86</ele>
        <time>2018-06-20T08:36:16Z</time>
      </trkpt>
      <trkpt lat="44.40123" lon="6.82732">
        <ele>1821.16</ele>
        <time>2018-06-20T08:36:17Z</time>
      </trkpt>
      <trkpt lat="44.40114" lon="6.82732">
        <ele>1821.18</ele>
        <time>2018-06-20T08:36:18Z</time>
      </trkpt>
      <trkpt lat="44.40083" lon="6.82727">
        <ele>1825.07</ele>
        <time>2018-06-20T08:36:21Z</time>
      </trkpt>
      <trkpt lat="44.40048" lon="6.82715">
        <ele>1828.77</ele>
        <time>2018-06-20T08:36:24Z</time>
      </trkpt>
      <trkpt lat="44.40038" lon="6.82709">
        <ele>1830.25</ele>
        <time>2018-06-20T08:36:25Z</time>
      </trkpt>
      <trkpt lat="44.40029" lon="6.82702">
        <ele>1831.81</ele>
        <time>2018-06-20T08:36:26Z</time>
      </trkpt>
      <trkpt lat="44.40012" lon="6.8269">
        <ele>1833.01</ele>
        <time>2018-06-20T08:36:28Z</time>
      </trkpt>
      <trkpt lat="44.40004" lon="6.82688">
        <ele>1834.86</ele>
        <time>2018-06-20T08:36:29Z</time>
      </trkpt>
      <trkpt lat="44.39994" lon="6.82689">
        <ele>1834.87</ele>
        <time>2018-06-20T08:36:30Z</time>
      </trkpt>
      <trkpt lat="44.39984" lon="6.82692">
        <ele>1836.75</ele>
        <time>2018-06-20T08:36:31Z</time>
      </trkpt>
      <trkpt lat="44.39974" lon="6.82695">
        <ele>1836.7</ele>
        <time>2018-06-20T08:36:32Z</time>
      </trkpt>
      <trkpt lat="44.39951" lon="6.82704">
        <ele>1838.24</ele>
        <time>2018-06-20T08:36:34Z</time>
      </trkpt>
      <trkpt lat="44.39916" lon="6.82714">
        <ele>1840.73</ele>
        <time>2018-06-20T08:36:37Z</time>
      </trkpt>
      <trkpt lat="44.39906" lon="6.82719">
        <ele>1841.7</ele>
        <time>2018-06-20T08:36:38Z</time>
      </trkpt>
      <trkpt lat="44.39897" lon="6.82726">
        <ele>1841.69</ele>
        <time>2018-06-20T08:36:39Z</time>
      </trkpt>
      <trkpt lat="44.3988" lon="6.82739">
        <ele>1843.03</ele>
        <time>2018-06-20T08:36:41Z</time>
      </trkpt>
      <trkpt lat="44.3987" lon="6.82743">
        <ele>1844.1</ele>
        <time>2018-06-20T08:36:42Z</time>
      </trkpt>
      <trkpt lat="44.39854" lon="6.82752">
        <ele>1844.04</ele>
        <time>2018-06-20T08:36:44Z</time>
      </trkpt>
      <trkpt lat="44.39847" lon="6.82759">
        <ele>1844.93</ele>
        <time>2018-06-20T08:36:45Z</time>
      </trkpt>
      <trkpt lat="44.3984" lon="6.82767">
        <ele>1844.88</ele>
        <time>2018-06-20T08:36:46Z</time>
      </trkpt>
      <trkpt lat="44.39823" lon="6.82783">
        <ele>1844.82</ele>
        <time>2018-06-20T08:36:48Z</time>
      </trkpt>
      <trkpt lat="44.39814" lon="6.8279">
        <ele>1844.85</ele>
        <time>2018-06-20T08:36:49Z</time>
      </trkpt>
      <trkpt lat="44.39804" lon="6.82795">
        <ele>1844.87</ele>
        <time>2018-06-20T08:36:50Z</time>
      </trkpt>
      <trkpt lat="44.39793" lon="6.828">
        <ele>1844.86</ele>
        <time>2018-06-20T08:36:51Z</time>
      </trkpt>
      <trkpt lat="44.39782" lon="6.82805">
        <ele>1844.8</ele>
        <time>2018-06-20T08:36:52Z</time>
      </trkpt>
      <trkpt lat="44.39742" lon="6.82823">
        <ele>1844.79</ele>
        <time>2018-06-20T08:36:56Z</time>
      </trkpt>
      <trkpt lat="44.39731" lon="6.8283">
        <ele>1844.8</ele>
        <time>2018-06-20T08:36:57Z</time>
      </trkpt>
      <trkpt lat="44.397" lon="6.8285">
        <ele>1845.9</ele>
        <time>2018-06-20T08:37:00Z</time>
      </trkpt>
      <trkpt lat="44.3969" lon="6.82854">
        <ele>1846.91</ele>
        <time>2018-06-20T08:37:01Z</time>
      </trkpt>
      <trkpt lat="44.3967" lon="6.82863">
        <ele>1846.94</ele>
        <time>2018-06-20T08:37:03Z</time>
      </trkpt>
      <trkpt lat="44.39652" lon="6.82874">
        <ele>1847.99</ele>
        <time>2018-06-20T08:37:05Z</time>
      </trkpt>
      <trkpt lat="44.39643" lon="6.8288">
        <ele>1849.1</ele>
        <time>2018-06-20T08:37:06Z</time>
      </trkpt>
      <trkpt lat="44.396" lon="6.82917">
        <ele>1852.76</ele>
        <time>2018-06-20T08:37:11Z</time>
      </trkpt>
      <trkpt lat="44.39574" lon="6.82945">
        <ele>1855.91</ele>
        <time>2018-06-20T08:37:14Z</time>
      </trkpt>
      <trkpt lat="44.39537" lon="6.82972">
        <ele>1859.93</ele>
        <time>2018-06-20T08:37:18Z</time>
      </trkpt>
      <trkpt lat="44.39527" lon="6.82976">
        <ele>1859.93</ele>
        <time>2018-06-20T08:37:19Z</time>
      </trkpt>
      <trkpt lat="44.39517" lon="6.82979">
        <ele>1860.95</ele>
        <time>2018-06-20T08:37:20Z</time>
      </trkpt>
      <trkpt lat="44.39507" lon="6.82981">
        <ele>1861.1</ele>
        <time>2018-06-20T08:37:21Z</time>
      </trkpt>
      <trkpt lat="44.39497" lon="6.82984">
        <ele>1862</ele>
        <time>2018-06-20T08:37:22Z</time>
      </trkpt>
      <trkpt lat="44.39487" lon="6.82988">
        <ele>1862.9</ele>
        <time>2018-06-20T08:37:23Z</time>
      </trkpt>
      <trkpt lat="44.39476" lon="6.82992">
        <ele>1863.99</ele>
        <time>2018-06-20T08:37:24Z</time>
      </trkpt>
      <trkpt lat="44.39465" lon="6.82994">
        <ele>1864</ele>
        <time>2018-06-20T08:37:25Z</time>
      </trkpt>
      <trkpt lat="44.39455" lon="6.82996">
        <ele>1865.5</ele>
        <time>2018-06-20T08:37:26Z</time>
      </trkpt>
      <trkpt lat="44.39447" lon="6.83">
        <ele>1865.59</ele>
        <time>2018-06-20T08:37:27Z</time>
      </trkpt>
      <trkpt lat="44.3944" lon="6.83003">
        <ele>1866.63</ele>
        <time>2018-06-20T08:37:28Z</time>
      </trkpt>
      <trkpt lat="44.39435" lon="6.83005">
        <ele>1866.69</ele>
        <time>2018-06-20T08:37:29Z</time>
      </trkpt>
      <trkpt lat="44.39431" lon="6.83006">
        <ele>1866.7</ele>
        <time>2018-06-20T08:37:30Z</time>
      </trkpt>
      <trkpt lat="44.39424" lon="6.83004">
        <ele>1867.26</ele>
        <time>2018-06-20T08:37:39Z</time>
      </trkpt>
      <trkpt lat="44.39413" lon="6.83005">
        <ele>1867.41</ele>
        <time>2018-06-20T08:37:51Z</time>
      </trkpt>
      <trkpt lat="44.39353" lon="6.83026">
        <ele>1868.32</ele>
        <time>2018-06-20T08:37:58Z</time>
      </trkpt>
      <trkpt lat="44.39264" lon="6.8307">
        <ele>1869.29</ele>
        <time>2018-06-20T08:38:07Z</time>
      </trkpt>
      <trkpt lat="44.39255" lon="6.83075">
        <ele>1869.31</ele>
        <time>2018-06-20T08:38:08Z</time>
      </trkpt>
      <trkpt lat="44.39246" lon="6.83079">
        <ele>1869.33</ele>
        <time>2018-06-20T08:38:09Z</time>
      </trkpt>
      <trkpt lat="44.39238" lon="6.83082">
        <ele>1869.32</ele>
        <time>2018-06-20T08:38:10Z</time>
      </trkpt>
      <trkpt lat="44.39231" lon="6.83083">
        <ele>1869.34</ele>
        <time>2018-06-20T08:38:11Z</time>
      </trkpt>
      <trkpt lat="44.39223" lon="6.83082">
        <ele>1869.33</ele>
        <time>2018-06-20T08:38:12Z</time>
      </trkpt>
      <trkpt lat="44.39217" lon="6.8308">
        <ele>1869.35</ele>
        <time>2018-06-20T08:38:13Z</time>
      </trkpt>
      <trkpt lat="44.39209" lon="6.83079">
        <ele>1869.34</ele>
        <time>2018-06-20T08:38:14Z</time>
      </trkpt>
      <trkpt lat="44.39201" lon="6.83078">
        <ele>1869.37</ele>
        <time>2018-06-20T08:38:15Z</time>
      </trkpt>
      <trkpt lat="44.39192" lon="6.83078">
        <ele>1869.38</ele>
        <time>2018-06-20T08:38:16Z</time>
      </trkpt>
      <trkpt lat="44.39182" lon="6.83079">
        <ele>1869.4</ele>
        <time>2018-06-20T08:38:17Z</time>
      </trkpt>
      <trkpt lat="44.39077" lon="6.83114">
        <ele>1869.49</ele>
        <time>2018-06-20T08:38:27Z</time>
      </trkpt>
      <trkpt lat="44.39067" lon="6.8312">
        <ele>1870.35</ele>
        <time>2018-06-20T08:38:28Z</time>
      </trkpt>
      <trkpt lat="44.39003" lon="6.83181">
        <ele>1870.43</ele>
        <time>2018-06-20T08:38:35Z</time>
      </trkpt>
      <trkpt lat="44.38982" lon="6.83205">
        <ele>1870.44</ele>
        <time>2018-06-20T08:38:39Z</time>
      </trkpt>
      <trkpt lat="44.38979" lon="6.83207">
        <ele>1870.44</ele>
        <time>2018-06-20T08:38:40Z</time>
      </trkpt>
      <trkpt lat="44.38975" lon="6.83208">
        <ele>1870.45</ele>
        <time>2018-06-20T08:38:41Z</time>
      </trkpt>
      <trkpt lat="44.38971" lon="6.83208">
        <ele>1870.45</ele>
        <time>2018-06-20T08:38:42Z</time>
      </trkpt>
      <trkpt lat="44.38967" lon="6.83208">
        <ele>1870.47</ele>
        <time>2018-06-20T08:38:43Z</time>
      </trkpt>
      <trkpt lat="44.38962" lon="6.83208">
        <ele>1870.53</ele>
        <time>2018-06-20T08:38:44Z</time>
      </trkpt>
      <trkpt lat="44.38908" lon="6.83211">
        <ele>1871.62</ele>
        <time>2018-06-20T08:38:51Z</time>
      </trkpt>
      <trkpt lat="44.38848" lon="6.83221">
        <ele>1871.73</ele>
        <time>2018-06-20T08:39:00Z</time>
      </trkpt>
      <trkpt lat="44.38771" lon="6.83238">
        <ele>1873.65</ele>
        <time>2018-06-20T08:39:11Z</time>
      </trkpt>
      <trkpt lat="44.38749" lon="6.83251">
        <ele>1873.68</ele>
        <time>2018-06-20T08:39:21Z</time>
      </trkpt>
      <trkpt lat="44.38747" lon="6.83252">
        <ele>1873.7</ele>
        <time>2018-06-20T08:39:22Z</time>
      </trkpt>
      <trkpt lat="44.38745" lon="6.83252">
        <ele>1873.71</ele>
        <time>2018-06-20T08:39:23Z</time>
      </trkpt>
      <trkpt lat="44.38744" lon="6.8325">
        <ele>1873.71</ele>
        <time>2018-06-20T08:39:24Z</time>
      </trkpt>
      <trkpt lat="44.38744" lon="6.83247">
        <ele>1873.72</ele>
        <time>2018-06-20T08:39:25Z</time>
      </trkpt>
      <trkpt lat="44.38744" lon="6.83246">
        <ele>1873.87</ele>
        <time>2018-06-20T08:39:38Z</time>
      </trkpt>
      <trkpt lat="44.38746" lon="6.83246">
        <ele>1874.38</ele>
        <time>2018-06-20T08:40:25Z</time>
      </trkpt>
      <trkpt lat="44.38746" lon="6.83247">
        <ele>1875.08</ele>
        <time>2018-06-20T08:41:36Z</time>
      </trkpt>
      <trkpt lat="44.38744" lon="6.83247">
        <ele>1875.89</ele>
        <time>2018-06-20T08:43:03Z</time>
      </trkpt>
      <trkpt lat="44.38744" lon="6.83245">
        <ele>1876.59</ele>
        <time>2018-06-20T08:44:27Z</time>
      </trkpt>
      <trkpt lat="44.38742" lon="6.83246">
        <ele>1877.13</ele>
        <time>2018-06-20T08:45:47Z</time>
      </trkpt>
      <trkpt lat="44.38743" lon="6.83246">
        <ele>1877.56</ele>
        <time>2018-06-20T08:46:51Z</time>
      </trkpt>
      <trkpt lat="44.38745" lon="6.83249">
        <ele>1877.71</ele>
        <time>2018-06-20T08:47:12Z</time>
      </trkpt>
      <trkpt lat="44.38746" lon="6.83248">
        <ele>1877.76</ele>
        <time>2018-06-20T08:47:19Z</time>
      </trkpt>
      <trkpt lat="44.38748" lon="6.83247">
        <ele>1877.76</ele>
        <time>2018-06-20T08:47:20Z</time>
      </trkpt>
      <trkpt lat="44.38751" lon="6.83246">
        <ele>1877.77</ele>
        <time>2018-06-20T08:47:21Z</time>
      </trkpt>
      <trkpt lat="44.38762" lon="6.83244">
        <ele>1877.81</ele>
        <time>2018-06-20T08:47:24Z</time>
      </trkpt>
      <trkpt lat="44.3877" lon="6.83241">
        <ele>1877.83</ele>
        <time>2018-06-20T08:47:26Z</time>
      </trkpt>
      <trkpt lat="44.38774" lon="6.83241">
        <ele>1877.83</ele>
        <time>2018-06-20T08:47:27Z</time>
      </trkpt>
      <trkpt lat="44.38827" lon="6.83229">
        <ele>1875.59</ele>
        <time>2018-06-20T08:47:37Z</time>
      </trkpt>
      <trkpt lat="44.3884" lon="6.83227">
        <ele>1875.6</ele>
        <time>2018-06-20T08:47:40Z</time>
      </trkpt>
      <trkpt lat="44.38868" lon="6.8322">
        <ele>1874.98</ele>
        <time>2018-06-20T08:47:46Z</time>
      </trkpt>
      <trkpt lat="44.38873" lon="6.83219">
        <ele>1874.98</ele>
        <time>2018-06-20T08:47:47Z</time>
      </trkpt>
      <trkpt lat="44.38887" lon="6.83216">
        <ele>1875</ele>
        <time>2018-06-20T08:47:50Z</time>
      </trkpt>
      <trkpt lat="44.38891" lon="6.83215">
        <ele>1875.01</ele>
        <time>2018-06-20T08:47:51Z</time>
      </trkpt>
      <trkpt lat="44.38921" lon="6.83212">
        <ele>1875.11</ele>
        <time>2018-06-20T08:48:01Z</time>
      </trkpt>
      <trkpt lat="44.38932" lon="6.83213">
        <ele>1874.65</ele>
        <time>2018-06-20T08:48:28Z</time>
      </trkpt>
      <trkpt lat="44.38941" lon="6.83212">
        <ele>1874.67</ele>
        <time>2018-06-20T08:48:30Z</time>
      </trkpt>
      <trkpt lat="44.3898" lon="6.83208">
        <ele>1874.75</ele>
        <time>2018-06-20T08:48:38Z</time>
      </trkpt>
      <trkpt lat="44.38984" lon="6.83204">
        <ele>1874.76</ele>
        <time>2018-06-20T08:48:39Z</time>
      </trkpt>
      <trkpt lat="44.38989" lon="6.83199">
        <ele>1874.77</ele>
        <time>2018-06-20T08:48:40Z</time>
      </trkpt>
      <trkpt lat="44.38996" lon="6.83193">
        <ele>1874.78</ele>
        <time>2018-06-20T08:48:41Z</time>
      </trkpt>
      <trkpt lat="44.39003" lon="6.83186">
        <ele>1874.8</ele>
        <time>2018-06-20T08:48:42Z</time>
      </trkpt>
      <trkpt lat="44.39051" lon="6.83135">
        <ele>1874.85</ele>
        <time>2018-06-20T08:48:48Z</time>
      </trkpt>
      <trkpt lat="44.39062" lon="6.83127">
        <ele>1874.88</ele>
        <time>2018-06-20T08:48:49Z</time>
      </trkpt>
      <trkpt lat="44.39084" lon="6.83114">
        <ele>1874.9</ele>
        <time>2018-06-20T08:48:51Z</time>
      </trkpt>
      <trkpt lat="44.39097" lon="6.8311">
        <ele>1874.9</ele>
        <time>2018-06-20T08:48:52Z</time>
      </trkpt>
      <trkpt lat="44.39122" lon="6.83104">
        <ele>1874.91</ele>
        <time>2018-06-20T08:48:54Z</time>
      </trkpt>
      <trkpt lat="44.39133" lon="6.83099">
        <ele>1874.91</ele>
        <time>2018-06-20T08:48:55Z</time>
      </trkpt>
      <trkpt lat="44.39157" lon="6.8309">
        <ele>1874.9</ele>
        <time>2018-06-20T08:48:57Z</time>
      </trkpt>
      <trkpt lat="44.39192" lon="6.83083">
        <ele>1874.94</ele>
        <time>2018-06-20T08:49:00Z</time>
      </trkpt>
      <trkpt lat="44.39203" lon="6.83084">
        <ele>1874.95</ele>
        <time>2018-06-20T08:49:01Z</time>
      </trkpt>
      <trkpt lat="44.39236" lon="6.83087">
        <ele>1874.97</ele>
        <time>2018-06-20T08:49:04Z</time>
      </trkpt>
      <trkpt lat="44.39246" lon="6.83085">
        <ele>1874.98</ele>
        <time>2018-06-20T08:49:05Z</time>
      </trkpt>
      <trkpt lat="44.39256" lon="6.83082">
        <ele>1874.99</ele>
        <time>2018-06-20T08:49:06Z</time>
      </trkpt>
      <trkpt lat="44.39265" lon="6.83078">
        <ele>1874.99</ele>
        <time>2018-06-20T08:49:07Z</time>
      </trkpt>
      <trkpt lat="44.39274" lon="6.83071">
        <ele>1875</ele>
        <time>2018-06-20T08:49:08Z</time>
      </trkpt>
      <trkpt lat="44.39282" lon="6.83063">
        <ele>1875.01</ele>
        <time>2018-06-20T08:49:09Z</time>
      </trkpt>
      <trkpt lat="44.3929" lon="6.83055">
        <ele>1875.03</ele>
        <time>2018-06-20T08:49:10Z</time>
      </trkpt>
      <trkpt lat="44.39299" lon="6.83049">
        <ele>1875.04</ele>
        <time>2018-06-20T08:49:11Z</time>
      </trkpt>
      <trkpt lat="44.39389" lon="6.83016">
        <ele>1875.09</ele>
        <time>2018-06-20T08:49:18Z</time>
      </trkpt>
      <trkpt lat="44.39456" lon="6.82982">
        <ele>1874.37</ele>
        <time>2018-06-20T08:49:25Z</time>
      </trkpt>
      <trkpt lat="44.3952" lon="6.82954">
        <ele>1873.56</ele>
        <time>2018-06-20T08:49:34Z</time>
      </trkpt>
      <trkpt lat="44.39526" lon="6.82951">
        <ele>1873.56</ele>
        <time>2018-06-20T08:49:35Z</time>
      </trkpt>
      <trkpt lat="44.39531" lon="6.82948">
        <ele>1873.57</ele>
        <time>2018-06-20T08:49:36Z</time>
      </trkpt>
      <trkpt lat="44.39535" lon="6.82944">
        <ele>1873.59</ele>
        <time>2018-06-20T08:49:37Z</time>
      </trkpt>
      <trkpt lat="44.3955" lon="6.82925">
        <ele>1873.63</ele>
        <time>2018-06-20T08:49:40Z</time>
      </trkpt>
      <trkpt lat="44.39555" lon="6.82917">
        <ele>1873.63</ele>
        <time>2018-06-20T08:49:41Z</time>
      </trkpt>
      <trkpt lat="44.39574" lon="6.82897">
        <ele>1873.73</ele>
        <time>2018-06-20T08:49:44Z</time>
      </trkpt>
      <trkpt lat="44.39615" lon="6.82864">
        <ele>1873.77</ele>
        <time>2018-06-20T08:49:49Z</time>
      </trkpt>
      <trkpt lat="44.39632" lon="6.8285">
        <ele>1873.77</ele>
        <time>2018-06-20T08:49:51Z</time>
      </trkpt>
      <trkpt lat="44.39689" lon="6.82819">
        <ele>1873.83</ele>
        <time>2018-06-20T08:49:58Z</time>
      </trkpt>
      <trkpt lat="44.39702" lon="6.82809">
        <ele>1873.85</ele>
        <time>2018-06-20T08:50:00Z</time>
      </trkpt>
      <trkpt lat="44.39762" lon="6.82756">
        <ele>1873.91</ele>
        <time>2018-06-20T08:50:08Z</time>
      </trkpt>
      <trkpt lat="44.3977" lon="6.82753">
        <ele>1873.91</ele>
        <time>2018-06-20T08:50:09Z</time>
      </trkpt>
      <trkpt lat="44.39777" lon="6.82752">
        <ele>1873.92</ele>
        <time>2018-06-20T08:50:10Z</time>
      </trkpt>
      <trkpt lat="44.39785" lon="6.8275">
        <ele>1873.14</ele>
        <time>2018-06-20T08:50:11Z</time>
      </trkpt>
      <trkpt lat="44.39792" lon="6.82747">
        <ele>1873.15</ele>
        <time>2018-06-20T08:50:12Z</time>
      </trkpt>
      <trkpt lat="44.39798" lon="6.82742">
        <ele>1873.15</ele>
        <time>2018-06-20T08:50:13Z</time>
      </trkpt>
      <trkpt lat="44.39803" lon="6.82736">
        <ele>1873.17</ele>
        <time>2018-06-20T08:50:14Z</time>
      </trkpt>
      <trkpt lat="44.39808" lon="6.82729">
        <ele>1873.17</ele>
        <time>2018-06-20T08:50:15Z</time>
      </trkpt>
      <trkpt lat="44.39812" lon="6.82721">
        <ele>1873.18</ele>
        <time>2018-06-20T08:50:16Z</time>
      </trkpt>
      <trkpt lat="44.39817" lon="6.82712">
        <ele>1873.2</ele>
        <time>2018-06-20T08:50:17Z</time>
      </trkpt>
      <trkpt lat="44.39823" lon="6.82704">
        <ele>1873.2</ele>
        <time>2018-06-20T08:50:18Z</time>
      </trkpt>
      <trkpt lat="44.39829" lon="6.82697">
        <ele>1873.2</ele>
        <time>2018-06-20T08:50:19Z</time>
      </trkpt>
      <trkpt lat="44.39836" lon="6.82692">
        <ele>1873.21</ele>
        <time>2018-06-20T08:50:20Z</time>
      </trkpt>
      <trkpt lat="44.39844" lon="6.82687">
        <ele>1873.21</ele>
        <time>2018-06-20T08:50:21Z</time>
      </trkpt>
      <trkpt lat="44.39852" lon="6.82683">
        <ele>1873.22</ele>
        <time>2018-06-20T08:50:22Z</time>
      </trkpt>
      <trkpt lat="44.39861" lon="6.8268">
        <ele>1873.23</ele>
        <time>2018-06-20T08:50:23Z</time>
      </trkpt>
      <trkpt lat="44.3987" lon="6.82678">
        <ele>1873.24</ele>
        <time>2018-06-20T08:50:24Z</time>
      </trkpt>
      <trkpt lat="44.39956" lon="6.82647">
        <ele>1873.37</ele>
        <time>2018-06-20T08:50:33Z</time>
      </trkpt>
      <trkpt lat="44.40038" lon="6.82612">
        <ele>1872.46</ele>
        <time>2018-06-20T08:50:42Z</time>
      </trkpt>
      <trkpt lat="44.40045" lon="6.82611">
        <ele>1872.46</ele>
        <time>2018-06-20T08:50:43Z</time>
      </trkpt>
      <trkpt lat="44.4007" lon="6.82609">
        <ele>1872.49</ele>
        <time>2018-06-20T08:50:46Z</time>
      </trkpt>
      <trkpt lat="44.40078" lon="6.82606">
        <ele>1872.5</ele>
        <time>2018-06-20T08:50:47Z</time>
      </trkpt>
      <trkpt lat="44.40087" lon="6.82603">
        <ele>1872.51</ele>
        <time>2018-06-20T08:50:48Z</time>
      </trkpt>
      <trkpt lat="44.40097" lon="6.82597">
        <ele>1872.51</ele>
        <time>2018-06-20T08:50:49Z</time>
      </trkpt>
      <trkpt lat="44.40106" lon="6.82592">
        <ele>1872.54</ele>
        <time>2018-06-20T08:50:50Z</time>
      </trkpt>
      <trkpt lat="44.40159" lon="6.82571">
        <ele>1872.61</ele>
        <time>2018-06-20T08:50:56Z</time>
      </trkpt>
      <trkpt lat="44.40167" lon="6.82565">
        <ele>1872.61</ele>
        <time>2018-06-20T08:50:57Z</time>
      </trkpt>
      <trkpt lat="44.40175" lon="6.82558">
        <ele>1872.62</ele>
        <time>2018-06-20T08:50:58Z</time>
      </trkpt>
      <trkpt lat="44.40241" lon="6.82504">
        <ele>1871.82</ele>
        <time>2018-06-20T08:51:06Z</time>
      </trkpt>
      <trkpt lat="44.4025" lon="6.82499">
        <ele>1871.83</ele>
        <time>2018-06-20T08:51:07Z</time>
      </trkpt>
      <trkpt lat="44.40258" lon="6.82495">
        <ele>1871.11</ele>
        <time>2018-06-20T08:51:08Z</time>
      </trkpt>
      <trkpt lat="44.40265" lon="6.82492">
        <ele>1871.11</ele>
        <time>2018-06-20T08:51:09Z</time>
      </trkpt>
      <trkpt lat="44.40271" lon="6.82491">
        <ele>1871.11</ele>
        <time>2018-06-20T08:51:10Z</time>
      </trkpt>
      <trkpt lat="44.40277" lon="6.82493">
        <ele>1870.36</ele>
        <time>2018-06-20T08:51:11Z</time>
      </trkpt>
      <trkpt lat="44.40283" lon="6.82497">
        <ele>1870.37</ele>
        <time>2018-06-20T08:51:12Z</time>
      </trkpt>
      <trkpt lat="44.40288" lon="6.82503">
        <ele>1870.38</ele>
        <time>2018-06-20T08:51:13Z</time>
      </trkpt>
      <trkpt lat="44.40294" lon="6.82509">
        <ele>1870.38</ele>
        <time>2018-06-20T08:51:14Z</time>
      </trkpt>
      <trkpt lat="44.403" lon="6.82512">
        <ele>1870.4</ele>
        <time>2018-06-20T08:51:15Z</time>
      </trkpt>
      <trkpt lat="44.40305" lon="6.82514">
        <ele>1870.4</ele>
        <time>2018-06-20T08:51:16Z</time>
      </trkpt>
      <trkpt lat="44.40309" lon="6.82514">
        <ele>1869.64</ele>
        <time>2018-06-20T08:51:17Z</time>
      </trkpt>
      <trkpt lat="44.40313" lon="6.82512">
        <ele>1869.63</ele>
        <time>2018-06-20T08:51:18Z</time>
      </trkpt>
      <trkpt lat="44.40317" lon="6.82509">
        <ele>1869.64</ele>
        <time>2018-06-20T08:51:19Z</time>
      </trkpt>
      <trkpt lat="44.40351" lon="6.82483">
        <ele>1869.7</ele>
        <time>2018-06-20T08:51:24Z</time>
      </trkpt>
      <trkpt lat="44.40374" lon="6.82464">
        <ele>1869.78</ele>
        <time>2018-06-20T08:51:27Z</time>
      </trkpt>
      <trkpt lat="44.40381" lon="6.82456">
        <ele>1869.79</ele>
        <time>2018-06-20T08:51:28Z</time>
      </trkpt>
      <trkpt lat="44.40387" lon="6.82448">
        <ele>1869.81</ele>
        <time>2018-06-20T08:51:29Z</time>
      </trkpt>
      <trkpt lat="44.40393" lon="6.82439">
        <ele>1869.82</ele>
        <time>2018-06-20T08:51:30Z</time>
      </trkpt>
      <trkpt lat="44.40397" lon="6.82431">
        <ele>1869.83</ele>
        <time>2018-06-20T08:51:31Z</time>
      </trkpt>
      <trkpt lat="44.40412" lon="6.82404">
        <ele>1869.84</ele>
        <time>2018-06-20T08:51:34Z</time>
      </trkpt>
      <trkpt lat="44.40418" lon="6.82396">
        <ele>1869.85</ele>
        <time>2018-06-20T08:51:35Z</time>
      </trkpt>
      <trkpt lat="44.40425" lon="6.8239">
        <ele>1869.86</ele>
        <time>2018-06-20T08:51:36Z</time>
      </trkpt>
      <trkpt lat="44.40432" lon="6.82384">
        <ele>1869.86</ele>
        <time>2018-06-20T08:51:37Z</time>
      </trkpt>
      <trkpt lat="44.40438" lon="6.82378">
        <ele>1869.87</ele>
        <time>2018-06-20T08:51:38Z</time>
      </trkpt>
      <trkpt lat="44.40444" lon="6.82369">
        <ele>1869.88</ele>
        <time>2018-06-20T08:51:39Z</time>
      </trkpt>
      <trkpt lat="44.4045" lon="6.82359">
        <ele>1869.89</ele>
        <time>2018-06-20T08:51:40Z</time>
      </trkpt>
      <trkpt lat="44.40456" lon="6.82348">
        <ele>1869.9</ele>
        <time>2018-06-20T08:51:41Z</time>
      </trkpt>
      <trkpt lat="44.40461" lon="6.82336">
        <ele>1869.91</ele>
        <time>2018-06-20T08:51:42Z</time>
      </trkpt>
      <trkpt lat="44.40466" lon="6.82323">
        <ele>1869.91</ele>
        <time>2018-06-20T08:51:43Z</time>
      </trkpt>
      <trkpt lat="44.40507" lon="6.82216">
        <ele>1869.96</ele>
        <time>2018-06-20T08:51:52Z</time>
      </trkpt>
      <trkpt lat="44.40509" lon="6.82203">
        <ele>1869.97</ele>
        <time>2018-06-20T08:51:53Z</time>
      </trkpt>
      <trkpt lat="44.40514" lon="6.82181">
        <ele>1869.98</ele>
        <time>2018-06-20T08:51:55Z</time>
      </trkpt>
      <trkpt lat="44.40518" lon="6.82172">
        <ele>1869.98</ele>
        <time>2018-06-20T08:51:56Z</time>
      </trkpt>
      <trkpt lat="44.40523" lon="6.82166">
        <ele>1869.99</ele>
        <time>2018-06-20T08:51:57Z</time>
      </trkpt>
      <trkpt lat="44.40531" lon="6.8216">
        <ele>1870</ele>
        <time>2018-06-20T08:51:58Z</time>
      </trkpt>
      <trkpt lat="44.40539" lon="6.82154">
        <ele>1870</ele>
        <time>2018-06-20T08:51:59Z</time>
      </trkpt>
      <trkpt lat="44.40546" lon="6.82146">
        <ele>1870</ele>
        <time>2018-06-20T08:52:00Z</time>
      </trkpt>
      <trkpt lat="44.40553" lon="6.82137">
        <ele>1870.02</ele>
        <time>2018-06-20T08:52:01Z</time>
      </trkpt>
      <trkpt lat="44.4056" lon="6.82127">
        <ele>1870.03</ele>
        <time>2018-06-20T08:52:02Z</time>
      </trkpt>
      <trkpt lat="44.40629" lon="6.82018">
        <ele>1870.1</ele>
        <time>2018-06-20T08:52:11Z</time>
      </trkpt>
      <trkpt lat="44.40674" lon="6.81957">
        <ele>1870.18</ele>
        <time>2018-06-20T08:52:17Z</time>
      </trkpt>
      <trkpt lat="44.4069" lon="6.81946">
        <ele>1870.19</ele>
        <time>2018-06-20T08:52:19Z</time>
      </trkpt>
      <trkpt lat="44.40698" lon="6.8194">
        <ele>1870.21</ele>
        <time>2018-06-20T08:52:20Z</time>
      </trkpt>
      <trkpt lat="44.40705" lon="6.81933">
        <ele>1872.54</ele>
        <time>2018-06-20T08:52:21Z</time>
      </trkpt>
      <trkpt lat="44.40712" lon="6.81926">
        <ele>1872.54</ele>
        <time>2018-06-20T08:52:22Z</time>
      </trkpt>
      <trkpt lat="44.40729" lon="6.81909">
        <ele>1873.72</ele>
        <time>2018-06-20T08:52:25Z</time>
      </trkpt>
      <trkpt lat="44.40734" lon="6.81901">
        <ele>1873.6</ele>
        <time>2018-06-20T08:52:26Z</time>
      </trkpt>
      <trkpt lat="44.40738" lon="6.81893">
        <ele>1873.63</ele>
        <time>2018-06-20T08:52:27Z</time>
      </trkpt>
      <trkpt lat="44.40742" lon="6.81884">
        <ele>1873.63</ele>
        <time>2018-06-20T08:52:28Z</time>
      </trkpt>
      <trkpt lat="44.40744" lon="6.81874">
        <ele>1873.75</ele>
        <time>2018-06-20T08:52:29Z</time>
      </trkpt>
      <trkpt lat="44.40747" lon="6.81863">
        <ele>1871.37</ele>
        <time>2018-06-20T08:52:30Z</time>
      </trkpt>
      <trkpt lat="44.4075" lon="6.81852">
        <ele>1871.37</ele>
        <time>2018-06-20T08:52:31Z</time>
      </trkpt>
      <trkpt lat="44.40755" lon="6.81816">
        <ele>1869.88</ele>
        <time>2018-06-20T08:52:34Z</time>
      </trkpt>
      <trkpt lat="44.40755" lon="6.81804">
        <ele>1869.88</ele>
        <time>2018-06-20T08:52:35Z</time>
      </trkpt>
      <trkpt lat="44.40753" lon="6.81761">
        <ele>1869.86</ele>
        <time>2018-06-20T08:52:39Z</time>
      </trkpt>
      <trkpt lat="44.40755" lon="6.81749">
        <ele>1869.88</ele>
        <time>2018-06-20T08:52:40Z</time>
      </trkpt>
      <trkpt lat="44.40757" lon="6.81737">
        <ele>1869.89</ele>
        <time>2018-06-20T08:52:41Z</time>
      </trkpt>
      <trkpt lat="44.40761" lon="6.81726">
        <ele>1869.87</ele>
        <time>2018-06-20T08:52:42Z</time>
      </trkpt>
      <trkpt lat="44.40765" lon="6.81717">
        <ele>1869.88</ele>
        <time>2018-06-20T08:52:43Z</time>
      </trkpt>
      <trkpt lat="44.40771" lon="6.81708">
        <ele>1869.85</ele>
        <time>2018-06-20T08:52:44Z</time>
      </trkpt>
      <trkpt lat="44.40777" lon="6.817">
        <ele>1869.86</ele>
        <time>2018-06-20T08:52:45Z</time>
      </trkpt>
      <trkpt lat="44.40787" lon="6.81681">
        <ele>1869.91</ele>
        <time>2018-06-20T08:52:47Z</time>
      </trkpt>
      <trkpt lat="44.40791" lon="6.81671">
        <ele>1869.16</ele>
        <time>2018-06-20T08:52:48Z</time>
      </trkpt>
      <trkpt lat="44.40801" lon="6.81638">
        <ele>1869.22</ele>
        <time>2018-06-20T08:52:51Z</time>
      </trkpt>
      <trkpt lat="44.40802" lon="6.81626">
        <ele>1869.25</ele>
        <time>2018-06-20T08:52:52Z</time>
      </trkpt>
      <trkpt lat="44.40807" lon="6.81586">
        <ele>1869.29</ele>
        <time>2018-06-20T08:52:55Z</time>
      </trkpt>
      <trkpt lat="44.40809" lon="6.8156">
        <ele>1869.31</ele>
        <time>2018-06-20T08:52:57Z</time>
      </trkpt>
      <trkpt lat="44.40811" lon="6.81549">
        <ele>1869.3</ele>
        <time>2018-06-20T08:52:58Z</time>
      </trkpt>
      <trkpt lat="44.40814" lon="6.81539">
        <ele>1869.29</ele>
        <time>2018-06-20T08:52:59Z</time>
      </trkpt>
      <trkpt lat="44.40819" lon="6.81528">
        <ele>1869.29</ele>
        <time>2018-06-20T08:53:00Z</time>
      </trkpt>
      <trkpt lat="44.40823" lon="6.81517">
        <ele>1869.3</ele>
        <time>2018-06-20T08:53:01Z</time>
      </trkpt>
      <trkpt lat="44.40828" lon="6.81507">
        <ele>1869.31</ele>
        <time>2018-06-20T08:53:02Z</time>
      </trkpt>
      <trkpt lat="44.40832" lon="6.81496">
        <ele>1869.31</ele>
        <time>2018-06-20T08:53:03Z</time>
      </trkpt>
      <trkpt lat="44.40835" lon="6.81486">
        <ele>1869.32</ele>
        <time>2018-06-20T08:53:04Z</time>
      </trkpt>
      <trkpt lat="44.40838" lon="6.81475">
        <ele>1869.35</ele>
        <time>2018-06-20T08:53:05Z</time>
      </trkpt>
      <trkpt lat="44.40842" lon="6.81465">
        <ele>1869.36</ele>
        <time>2018-06-20T08:53:06Z</time>
      </trkpt>
      <trkpt lat="44.40847" lon="6.81456">
        <ele>1869.38</ele>
        <time>2018-06-20T08:53:07Z</time>
      </trkpt>
      <trkpt lat="44.40853" lon="6.81447">
        <ele>1869.38</ele>
        <time>2018-06-20T08:53:08Z</time>
      </trkpt>
      <trkpt lat="44.40904" lon="6.81344">
        <ele>1869.44</ele>
        <time>2018-06-20T08:53:18Z</time>
      </trkpt>
      <trkpt lat="44.40909" lon="6.81333">
        <ele>1869.44</ele>
        <time>2018-06-20T08:53:19Z</time>
      </trkpt>
      <trkpt lat="44.40916" lon="6.81324">
        <ele>1869.44</ele>
        <time>2018-06-20T08:53:20Z</time>
      </trkpt>
      <trkpt lat="44.40935" lon="6.81293">
        <ele>1869.45</ele>
        <time>2018-06-20T08:53:23Z</time>
      </trkpt>
      <trkpt lat="44.40951" lon="6.81261">
        <ele>1869.46</ele>
        <time>2018-06-20T08:53:26Z</time>
      </trkpt>
      <trkpt lat="44.40958" lon="6.81252">
        <ele>1869.47</ele>
        <time>2018-06-20T08:53:27Z</time>
      </trkpt>
      <trkpt lat="44.41" lon="6.81193">
        <ele>1869.45</ele>
        <time>2018-06-20T08:53:34Z</time>
      </trkpt>
      <trkpt lat="44.41003" lon="6.81183">
        <ele>1869.45</ele>
        <time>2018-06-20T08:53:35Z</time>
      </trkpt>
      <trkpt lat="44.41005" lon="6.81172">
        <ele>1869.44</ele>
        <time>2018-06-20T08:53:36Z</time>
      </trkpt>
      <trkpt lat="44.41006" lon="6.81161">
        <ele>1868.64</ele>
        <time>2018-06-20T08:53:37Z</time>
      </trkpt>
      <trkpt lat="44.41007" lon="6.81148">
        <ele>1868.62</ele>
        <time>2018-06-20T08:53:38Z</time>
      </trkpt>
      <trkpt lat="44.41008" lon="6.81137">
        <ele>1868.61</ele>
        <time>2018-06-20T08:53:39Z</time>
      </trkpt>
      <trkpt lat="44.4101" lon="6.81127">
        <ele>1867.79</ele>
        <time>2018-06-20T08:53:40Z</time>
      </trkpt>
      <trkpt lat="44.41013" lon="6.8112">
        <ele>1867.81</ele>
        <time>2018-06-20T08:53:41Z</time>
      </trkpt>
      <trkpt lat="44.41017" lon="6.81112">
        <ele>1867.8</ele>
        <time>2018-06-20T08:53:42Z</time>
      </trkpt>
      <trkpt lat="44.41023" lon="6.81106">
        <ele>1867.8</ele>
        <time>2018-06-20T08:53:43Z</time>
      </trkpt>
      <trkpt lat="44.41037" lon="6.81091">
        <ele>1867.81</ele>
        <time>2018-06-20T08:53:46Z</time>
      </trkpt>
      <trkpt lat="44.4104" lon="6.81084">
        <ele>1867.8</ele>
        <time>2018-06-20T08:53:47Z</time>
      </trkpt>
      <trkpt lat="44.41041" lon="6.81076">
        <ele>1867.89</ele>
        <time>2018-06-20T08:53:48Z</time>
      </trkpt>
      <trkpt lat="44.41045" lon="6.81059">
        <ele>1867.89</ele>
        <time>2018-06-20T08:53:50Z</time>
      </trkpt>
      <trkpt lat="44.41045" lon="6.81047">
        <ele>1867.88</ele>
        <time>2018-06-20T08:53:51Z</time>
      </trkpt>
      <trkpt lat="44.41046" lon="6.81035">
        <ele>1867.89</ele>
        <time>2018-06-20T08:53:52Z</time>
      </trkpt>
      <trkpt lat="44.41047" lon="6.81023">
        <ele>1867.89</ele>
        <time>2018-06-20T08:53:53Z</time>
      </trkpt>
      <trkpt lat="44.41049" lon="6.81012">
        <ele>1867.88</ele>
        <time>2018-06-20T08:53:54Z</time>
      </trkpt>
      <trkpt lat="44.41052" lon="6.81003">
        <ele>1867.89</ele>
        <time>2018-06-20T08:53:55Z</time>
      </trkpt>
      <trkpt lat="44.41056" lon="6.80994">
        <ele>1867.88</ele>
        <time>2018-06-20T08:53:56Z</time>
      </trkpt>
      <trkpt lat="44.4106" lon="6.80984">
        <ele>1867.88</ele>
        <time>2018-06-20T08:53:57Z</time>
      </trkpt>
      <trkpt lat="44.41066" lon="6.80975">
        <ele>1867.89</ele>
        <time>2018-06-20T08:53:58Z</time>
      </trkpt>
      <trkpt lat="44.41082" lon="6.80948">
        <ele>1870.39</ele>
        <time>2018-06-20T08:54:01Z</time>
      </trkpt>
      <trkpt lat="44.41086" lon="6.80939">
        <ele>1870.39</ele>
        <time>2018-06-20T08:54:02Z</time>
      </trkpt>
      <trkpt lat="44.41089" lon="6.8093">
        <ele>1870.39</ele>
        <time>2018-06-20T08:54:03Z</time>
      </trkpt>
      <trkpt lat="44.41099" lon="6.80914">
        <ele>1870.39</ele>
        <time>2018-06-20T08:54:05Z</time>
      </trkpt>
      <trkpt lat="44.41106" lon="6.80906">
        <ele>1870.4</ele>
        <time>2018-06-20T08:54:06Z</time>
      </trkpt>
      <trkpt lat="44.41114" lon="6.80898">
        <ele>1870.39</ele>
        <time>2018-06-20T08:54:07Z</time>
      </trkpt>
      <trkpt lat="44.41149" lon="6.80861">
        <ele>1867.85</ele>
        <time>2018-06-20T08:54:12Z</time>
      </trkpt>
      <trkpt lat="44.41172" lon="6.80841">
        <ele>1867.84</ele>
        <time>2018-06-20T08:54:15Z</time>
      </trkpt>
      <trkpt lat="44.412" lon="6.80791">
        <ele>1867.84</ele>
        <time>2018-06-20T08:54:20Z</time>
      </trkpt>
      <trkpt lat="44.41222" lon="6.80719">
        <ele>1867.86</ele>
        <time>2018-06-20T08:54:26Z</time>
      </trkpt>
      <trkpt lat="44.41223" lon="6.80708">
        <ele>1867.84</ele>
        <time>2018-06-20T08:54:27Z</time>
      </trkpt>
      <trkpt lat="44.41225" lon="6.8068">
        <ele>1867</ele>
        <time>2018-06-20T08:54:30Z</time>
      </trkpt>
      <trkpt lat="44.41227" lon="6.80672">
        <ele>1867</ele>
        <time>2018-06-20T08:54:31Z</time>
      </trkpt>
      <trkpt lat="44.41231" lon="6.80665">
        <ele>1867.01</ele>
        <time>2018-06-20T08:54:32Z</time>
      </trkpt>
      <trkpt lat="44.41237" lon="6.8066">
        <ele>1867.01</ele>
        <time>2018-06-20T08:54:33Z</time>
      </trkpt>
      <trkpt lat="44.41244" lon="6.80658">
        <ele>1866.2</ele>
        <time>2018-06-20T08:54:34Z</time>
      </trkpt>
      <trkpt lat="44.41252" lon="6.8066">
        <ele>1866.2</ele>
        <time>2018-06-20T08:54:35Z</time>
      </trkpt>
      <trkpt lat="44.4126" lon="6.80663">
        <ele>1866.21</ele>
        <time>2018-06-20T08:54:36Z</time>
      </trkpt>
      <trkpt lat="44.41268" lon="6.80665">
        <ele>1866.22</ele>
        <time>2018-06-20T08:54:37Z</time>
      </trkpt>
      <trkpt lat="44.41277" lon="6.80667">
        <ele>1866.34</ele>
        <time>2018-06-20T08:54:38Z</time>
      </trkpt>
      <trkpt lat="44.41284" lon="6.80668">
        <ele>1866.33</ele>
        <time>2018-06-20T08:54:39Z</time>
      </trkpt>
      <trkpt lat="44.41291" lon="6.80667">
        <ele>1865.52</ele>
        <time>2018-06-20T08:54:40Z</time>
      </trkpt>
      <trkpt lat="44.41298" lon="6.80665">
        <ele>1865.51</ele>
        <time>2018-06-20T08:54:41Z</time>
      </trkpt>
      <trkpt lat="44.41303" lon="6.80661">
        <ele>1865.51</ele>
        <time>2018-06-20T08:54:42Z</time>
      </trkpt>
      <trkpt lat="44.41307" lon="6.80655">
        <ele>1865.52</ele>
        <time>2018-06-20T08:54:43Z</time>
      </trkpt>
      <trkpt lat="44.4131" lon="6.80646">
        <ele>1865.52</ele>
        <time>2018-06-20T08:54:44Z</time>
      </trkpt>
      <trkpt lat="44.41313" lon="6.80637">
        <ele>1865.5</ele>
        <time>2018-06-20T08:54:45Z</time>
      </trkpt>
      <trkpt lat="44.41316" lon="6.80627">
        <ele>1865.52</ele>
        <time>2018-06-20T08:54:46Z</time>
      </trkpt>
      <trkpt lat="44.4132" lon="6.80615">
        <ele>1865.54</ele>
        <time>2018-06-20T08:54:47Z</time>
      </trkpt>
      <trkpt lat="44.41325" lon="6.80606">
        <ele>1865.51</ele>
        <time>2018-06-20T08:54:48Z</time>
      </trkpt>
      <trkpt lat="44.41331" lon="6.80596">
        <ele>1865.51</ele>
        <time>2018-06-20T08:54:49Z</time>
      </trkpt>
      <trkpt lat="44.41338" lon="6.80585">
        <ele>1865.52</ele>
        <time>2018-06-20T08:54:50Z</time>
      </trkpt>
      <trkpt lat="44.41345" lon="6.80574">
        <ele>1865.55</ele>
        <time>2018-06-20T08:54:51Z</time>
      </trkpt>
      <trkpt lat="44.41357" lon="6.80554">
        <ele>1865.54</ele>
        <time>2018-06-20T08:54:53Z</time>
      </trkpt>
      <trkpt lat="44.41362" lon="6.80545">
        <ele>1865.54</ele>
        <time>2018-06-20T08:54:54Z</time>
      </trkpt>
      <trkpt lat="44.41384" lon="6.80508">
        <ele>1865.54</ele>
        <time>2018-06-20T08:54:58Z</time>
      </trkpt>
      <trkpt lat="44.41388" lon="6.80497">
        <ele>1864.76</ele>
        <time>2018-06-20T08:54:59Z</time>
      </trkpt>
      <trkpt lat="44.41428" lon="6.80396">
        <ele>1864.72</ele>
        <time>2018-06-20T08:55:07Z</time>
      </trkpt>
      <trkpt lat="44.41437" lon="6.8038">
        <ele>1864.71</ele>
        <time>2018-06-20T08:55:09Z</time>
      </trkpt>
      <trkpt lat="44.4144" lon="6.80371">
        <ele>1864.71</ele>
        <time>2018-06-20T08:55:10Z</time>
      </trkpt>
      <trkpt lat="44.41441" lon="6.80361">
        <ele>1864.71</ele>
        <time>2018-06-20T08:55:11Z</time>
      </trkpt>
      <trkpt lat="44.4145" lon="6.8024">
        <ele>1864.79</ele>
        <time>2018-06-20T08:55:20Z</time>
      </trkpt>
      <trkpt lat="44.41443" lon="6.80126">
        <ele>1864.83</ele>
        <time>2018-06-20T08:55:29Z</time>
      </trkpt>
      <trkpt lat="44.41437" lon="6.80102">
        <ele>1864.79</ele>
        <time>2018-06-20T08:55:32Z</time>
      </trkpt>
      <trkpt lat="44.41412" lon="6.80019">
        <ele>1863.88</ele>
        <time>2018-06-20T08:55:42Z</time>
      </trkpt>
      <trkpt lat="44.41408" lon="6.80011">
        <ele>1863.88</ele>
        <time>2018-06-20T08:55:43Z</time>
      </trkpt>
      <trkpt lat="44.41395" lon="6.79983">
        <ele>1863.88</ele>
        <time>2018-06-20T08:55:46Z</time>
      </trkpt>
      <trkpt lat="44.41392" lon="6.79972">
        <ele>1863.88</ele>
        <time>2018-06-20T08:55:47Z</time>
      </trkpt>
      <trkpt lat="44.41391" lon="6.79959">
        <ele>1863.89</ele>
        <time>2018-06-20T08:55:48Z</time>
      </trkpt>
      <trkpt lat="44.41392" lon="6.79946">
        <ele>1863.89</ele>
        <time>2018-06-20T08:55:49Z</time>
      </trkpt>
      <trkpt lat="44.41393" lon="6.79932">
        <ele>1863.9</ele>
        <time>2018-06-20T08:55:50Z</time>
      </trkpt>
      <trkpt lat="44.41395" lon="6.79919">
        <ele>1863.9</ele>
        <time>2018-06-20T08:55:51Z</time>
      </trkpt>
      <trkpt lat="44.41406" lon="6.79851">
        <ele>1863.9</ele>
        <time>2018-06-20T08:55:57Z</time>
      </trkpt>
      <trkpt lat="44.41406" lon="6.79845">
        <ele>1863.9</ele>
        <time>2018-06-20T08:55:58Z</time>
      </trkpt>
      <trkpt lat="44.41407" lon="6.79833">
        <ele>1863.06</ele>
        <time>2018-06-20T08:56:07Z</time>
      </trkpt>
      <trkpt lat="44.41407" lon="6.79832">
        <ele>1863.18</ele>
        <time>2018-06-20T08:56:26Z</time>
      </trkpt>
      <trkpt lat="44.41406" lon="6.7983">
        <ele>1863.19</ele>
        <time>2018-06-20T08:56:27Z</time>
      </trkpt>
      <trkpt lat="44.41403" lon="6.79811">
        <ele>1863.19</ele>
        <time>2018-06-20T08:56:34Z</time>
      </trkpt>
      <trkpt lat="44.41402" lon="6.79784">
        <ele>1863.15</ele>
        <time>2018-06-20T08:56:54Z</time>
      </trkpt>
      <trkpt lat="44.41402" lon="6.79776">
        <ele>1863.16</ele>
        <time>2018-06-20T08:56:55Z</time>
      </trkpt>
      <trkpt lat="44.414" lon="6.79768">
        <ele>1863.16</ele>
        <time>2018-06-20T08:56:56Z</time>
      </trkpt>
      <trkpt lat="44.41389" lon="6.79727">
        <ele>1863.15</ele>
        <time>2018-06-20T08:57:00Z</time>
      </trkpt>
      <trkpt lat="44.41387" lon="6.79716">
        <ele>1863.16</ele>
        <time>2018-06-20T08:57:01Z</time>
      </trkpt>
      <trkpt lat="44.41386" lon="6.79705">
        <ele>1863.16</ele>
        <time>2018-06-20T08:57:02Z</time>
      </trkpt>
      <trkpt lat="44.41387" lon="6.79694">
        <ele>1863.16</ele>
        <time>2018-06-20T08:57:03Z</time>
      </trkpt>
      <trkpt lat="44.4139" lon="6.79685">
        <ele>1863.16</ele>
        <time>2018-06-20T08:57:04Z</time>
      </trkpt>
      <trkpt lat="44.41394" lon="6.79675">
        <ele>1863.16</ele>
        <time>2018-06-20T08:57:05Z</time>
      </trkpt>
      <trkpt lat="44.41398" lon="6.79664">
        <ele>1863.16</ele>
        <time>2018-06-20T08:57:06Z</time>
      </trkpt>
      <trkpt lat="44.4142" lon="6.79615">
        <ele>1863.17</ele>
        <time>2018-06-20T08:57:10Z</time>
      </trkpt>
      <trkpt lat="44.41423" lon="6.79603">
        <ele>1863.17</ele>
        <time>2018-06-20T08:57:11Z</time>
      </trkpt>
      <trkpt lat="44.41452" lon="6.79509">
        <ele>1863.17</ele>
        <time>2018-06-20T08:57:18Z</time>
      </trkpt>
      <trkpt lat="44.41455" lon="6.79496">
        <ele>1863.16</ele>
        <time>2018-06-20T08:57:19Z</time>
      </trkpt>
      <trkpt lat="44.41456" lon="6.79483">
        <ele>1863.16</ele>
        <time>2018-06-20T08:57:20Z</time>
      </trkpt>
      <trkpt lat="44.41457" lon="6.79469">
        <ele>1863.17</ele>
        <time>2018-06-20T08:57:21Z</time>
      </trkpt>
      <trkpt lat="44.41457" lon="6.79454">
        <ele>1863.17</ele>
        <time>2018-06-20T08:57:22Z</time>
      </trkpt>
      <trkpt lat="44.41456" lon="6.79438">
        <ele>1863.17</ele>
        <time>2018-06-20T08:57:23Z</time>
      </trkpt>
      <trkpt lat="44.41451" lon="6.79349">
        <ele>1863.12</ele>
        <time>2018-06-20T08:57:29Z</time>
      </trkpt>
      <trkpt lat="44.41448" lon="6.79338">
        <ele>1863.12</ele>
        <time>2018-06-20T08:57:30Z</time>
      </trkpt>
      <trkpt lat="44.41444" lon="6.79329">
        <ele>1863.11</ele>
        <time>2018-06-20T08:57:31Z</time>
      </trkpt>
      <trkpt lat="44.41438" lon="6.7932">
        <ele>1863.14</ele>
        <time>2018-06-20T08:57:32Z</time>
      </trkpt>
      <trkpt lat="44.41431" lon="6.79313">
        <ele>1863.14</ele>
        <time>2018-06-20T08:57:33Z</time>
      </trkpt>
      <trkpt lat="44.41423" lon="6.79307">
        <ele>1863.14</ele>
        <time>2018-06-20T08:57:34Z</time>
      </trkpt>
      <trkpt lat="44.41414" lon="6.79301">
        <ele>1863.15</ele>
        <time>2018-06-20T08:57:35Z</time>
      </trkpt>
      <trkpt lat="44.41405" lon="6.79298">
        <ele>1863.21</ele>
        <time>2018-06-20T08:57:36Z</time>
      </trkpt>
      <trkpt lat="44.41394" lon="6.79297">
        <ele>1863.21</ele>
        <time>2018-06-20T08:57:37Z</time>
      </trkpt>
      <trkpt lat="44.41383" lon="6.79297">
        <ele>1863.22</ele>
        <time>2018-06-20T08:57:38Z</time>
      </trkpt>
      <trkpt lat="44.41268" lon="6.79282">
        <ele>1863.27</ele>
        <time>2018-06-20T08:57:48Z</time>
      </trkpt>
      <trkpt lat="44.41258" lon="6.79276">
        <ele>1863.28</ele>
        <time>2018-06-20T08:57:49Z</time>
      </trkpt>
      <trkpt lat="44.41249" lon="6.79268">
        <ele>1863.29</ele>
        <time>2018-06-20T08:57:50Z</time>
      </trkpt>
      <trkpt lat="44.41241" lon="6.7926">
        <ele>1863.29</ele>
        <time>2018-06-20T08:57:51Z</time>
      </trkpt>
      <trkpt lat="44.41234" lon="6.79251">
        <ele>1863.29</ele>
        <time>2018-06-20T08:57:52Z</time>
      </trkpt>
      <trkpt lat="44.41228" lon="6.79241">
        <ele>1863.3</ele>
        <time>2018-06-20T08:57:53Z</time>
      </trkpt>
      <trkpt lat="44.41225" lon="6.79229">
        <ele>1863.29</ele>
        <time>2018-06-20T08:57:54Z</time>
      </trkpt>
      <trkpt lat="44.41223" lon="6.79216">
        <ele>1863.29</ele>
        <time>2018-06-20T08:57:55Z</time>
      </trkpt>
      <trkpt lat="44.41223" lon="6.79201">
        <ele>1863.3</ele>
        <time>2018-06-20T08:57:56Z</time>
      </trkpt>
      <trkpt lat="44.41223" lon="6.79187">
        <ele>1863.3</ele>
        <time>2018-06-20T08:57:57Z</time>
      </trkpt>
      <trkpt lat="44.41223" lon="6.79176">
        <ele>1863.32</ele>
        <time>2018-06-20T08:57:58Z</time>
      </trkpt>
      <trkpt lat="44.41221" lon="6.79166">
        <ele>1862.55</ele>
        <time>2018-06-20T08:57:59Z</time>
      </trkpt>
      <trkpt lat="44.41217" lon="6.79157">
        <ele>1862.55</ele>
        <time>2018-06-20T08:58:00Z</time>
      </trkpt>
      <trkpt lat="44.41213" lon="6.79149">
        <ele>1862.56</ele>
        <time>2018-06-20T08:58:01Z</time>
      </trkpt>
      <trkpt lat="44.41206" lon="6.7914">
        <ele>1862.55</ele>
        <time>2018-06-20T08:58:02Z</time>
      </trkpt>
      <trkpt lat="44.41198" lon="6.79132">
        <ele>1862.57</ele>
        <time>2018-06-20T08:58:03Z</time>
      </trkpt>
      <trkpt lat="44.4119" lon="6.79124">
        <ele>1862.58</ele>
        <time>2018-06-20T08:58:04Z</time>
      </trkpt>
      <trkpt lat="44.41181" lon="6.79117">
        <ele>1862.58</ele>
        <time>2018-06-20T08:58:05Z</time>
      </trkpt>
      <trkpt lat="44.4116" lon="6.79098">
        <ele>1862.62</ele>
        <time>2018-06-20T08:58:08Z</time>
      </trkpt>
      <trkpt lat="44.4115" lon="6.7908">
        <ele>1862.62</ele>
        <time>2018-06-20T08:58:10Z</time>
      </trkpt>
      <trkpt lat="44.4114" lon="6.79056">
        <ele>1862.65</ele>
        <time>2018-06-20T08:58:12Z</time>
      </trkpt>
      <trkpt lat="44.41134" lon="6.79044">
        <ele>1862.66</ele>
        <time>2018-06-20T08:58:13Z</time>
      </trkpt>
      <trkpt lat="44.41127" lon="6.79032">
        <ele>1862.68</ele>
        <time>2018-06-20T08:58:14Z</time>
      </trkpt>
      <trkpt lat="44.4112" lon="6.79021">
        <ele>1862.67</ele>
        <time>2018-06-20T08:58:15Z</time>
      </trkpt>
      <trkpt lat="44.41111" lon="6.79012">
        <ele>1862.67</ele>
        <time>2018-06-20T08:58:16Z</time>
      </trkpt>
      <trkpt lat="44.41103" lon="6.79004">
        <ele>1862.67</ele>
        <time>2018-06-20T08:58:17Z</time>
      </trkpt>
      <trkpt lat="44.41095" lon="6.78998">
        <ele>1862.65</ele>
        <time>2018-06-20T08:58:18Z</time>
      </trkpt>
      <trkpt lat="44.41086" lon="6.78993">
        <ele>1861.85</ele>
        <time>2018-06-20T08:58:19Z</time>
      </trkpt>
      <trkpt lat="44.41077" lon="6.78988">
        <ele>1861.83</ele>
        <time>2018-06-20T08:58:20Z</time>
      </trkpt>
      <trkpt lat="44.41048" lon="6.7897">
        <ele>1861.96</ele>
        <time>2018-06-20T08:58:23Z</time>
      </trkpt>
      <trkpt lat="44.41039" lon="6.78963">
        <ele>1861.95</ele>
        <time>2018-06-20T08:58:24Z</time>
      </trkpt>
      <trkpt lat="44.41033" lon="6.78953">
        <ele>1861.97</ele>
        <time>2018-06-20T08:58:25Z</time>
      </trkpt>
      <trkpt lat="44.41028" lon="6.78941">
        <ele>1861.98</ele>
        <time>2018-06-20T08:58:26Z</time>
      </trkpt>
      <trkpt lat="44.41025" lon="6.78928">
        <ele>1861.99</ele>
        <time>2018-06-20T08:58:27Z</time>
      </trkpt>
      <trkpt lat="44.41022" lon="6.78915">
        <ele>1862</ele>
        <time>2018-06-20T08:58:28Z</time>
      </trkpt>
      <trkpt lat="44.4102" lon="6.78903">
        <ele>1862.01</ele>
        <time>2018-06-20T08:58:29Z</time>
      </trkpt>
      <trkpt lat="44.41016" lon="6.78893">
        <ele>1862.01</ele>
        <time>2018-06-20T08:58:30Z</time>
      </trkpt>
      <trkpt lat="44.41011" lon="6.78885">
        <ele>1862.01</ele>
        <time>2018-06-20T08:58:31Z</time>
      </trkpt>
      <trkpt lat="44.41006" lon="6.7888">
        <ele>1862.01</ele>
        <time>2018-06-20T08:58:32Z</time>
      </trkpt>
      <trkpt lat="44.41" lon="6.78876">
        <ele>1862.01</ele>
        <time>2018-06-20T08:58:33Z</time>
      </trkpt>
      <trkpt lat="44.40994" lon="6.78871">
        <ele>1862.02</ele>
        <time>2018-06-20T08:58:34Z</time>
      </trkpt>
      <trkpt lat="44.40989" lon="6.78865">
        <ele>1862.04</ele>
        <time>2018-06-20T08:58:35Z</time>
      </trkpt>
      <trkpt lat="44.40944" lon="6.78799">
        <ele>1862.12</ele>
        <time>2018-06-20T08:58:42Z</time>
      </trkpt>
      <trkpt lat="44.40935" lon="6.78784">
        <ele>1862.12</ele>
        <time>2018-06-20T08:58:44Z</time>
      </trkpt>
      <trkpt lat="44.40933" lon="6.78776">
        <ele>1862.12</ele>
        <time>2018-06-20T08:58:45Z</time>
      </trkpt>
      <trkpt lat="44.40933" lon="6.78767">
        <ele>1861.37</ele>
        <time>2018-06-20T08:58:46Z</time>
      </trkpt>
      <trkpt lat="44.40934" lon="6.78757">
        <ele>1861.38</ele>
        <time>2018-06-20T08:58:47Z</time>
      </trkpt>
      <trkpt lat="44.40938" lon="6.78747">
        <ele>1861.39</ele>
        <time>2018-06-20T08:58:48Z</time>
      </trkpt>
      <trkpt lat="44.40943" lon="6.78737">
        <ele>1861.4</ele>
        <time>2018-06-20T08:58:49Z</time>
      </trkpt>
      <trkpt lat="44.40948" lon="6.78728">
        <ele>1861.4</ele>
        <time>2018-06-20T08:58:50Z</time>
      </trkpt>
      <trkpt lat="44.40953" lon="6.7872">
        <ele>1861.41</ele>
        <time>2018-06-20T08:58:51Z</time>
      </trkpt>
      <trkpt lat="44.40966" lon="6.78699">
        <ele>1861.44</ele>
        <time>2018-06-20T08:58:54Z</time>
      </trkpt>
      <trkpt lat="44.40969" lon="6.78691">
        <ele>1861.43</ele>
        <time>2018-06-20T08:58:55Z</time>
      </trkpt>
      <trkpt lat="44.40972" lon="6.78682">
        <ele>1861.43</ele>
        <time>2018-06-20T08:58:56Z</time>
      </trkpt>
      <trkpt lat="44.40974" lon="6.78672">
        <ele>1861.42</ele>
        <time>2018-06-20T08:58:57Z</time>
      </trkpt>
      <trkpt lat="44.40975" lon="6.78662">
        <ele>1861.43</ele>
        <time>2018-06-20T08:58:58Z</time>
      </trkpt>
      <trkpt lat="44.40974" lon="6.78653">
        <ele>1861.45</ele>
        <time>2018-06-20T08:58:59Z</time>
      </trkpt>
      <trkpt lat="44.40972" lon="6.78643">
        <ele>1861.46</ele>
        <time>2018-06-20T08:59:00Z</time>
      </trkpt>
      <trkpt lat="44.40969" lon="6.78634">
        <ele>1861.47</ele>
        <time>2018-06-20T08:59:01Z</time>
      </trkpt>
      <trkpt lat="44.40965" lon="6.78623">
        <ele>1861.49</ele>
        <time>2018-06-20T08:59:02Z</time>
      </trkpt>
      <trkpt lat="44.40961" lon="6.78612">
        <ele>1861.5</ele>
        <time>2018-06-20T08:59:03Z</time>
      </trkpt>
      <trkpt lat="44.40958" lon="6.78599">
        <ele>1861.51</ele>
        <time>2018-06-20T08:59:04Z</time>
      </trkpt>
      <trkpt lat="44.40916" lon="6.78466">
        <ele>1861.6</ele>
        <time>2018-06-20T08:59:14Z</time>
      </trkpt>
      <trkpt lat="44.40909" lon="6.7844">
        <ele>1861.61</ele>
        <time>2018-06-20T08:59:16Z</time>
      </trkpt>
      <trkpt lat="44.40907" lon="6.78426">
        <ele>1861.61</ele>
        <time>2018-06-20T08:59:17Z</time>
      </trkpt>
      <trkpt lat="44.40895" lon="6.78297">
        <ele>1861.66</ele>
        <time>2018-06-20T08:59:25Z</time>
      </trkpt>
      <trkpt lat="44.40912" lon="6.78163">
        <ele>1860.92</ele>
        <time>2018-06-20T08:59:34Z</time>
      </trkpt>
      <trkpt lat="44.40913" lon="6.78151">
        <ele>1860.92</ele>
        <time>2018-06-20T08:59:35Z</time>
      </trkpt>
      <trkpt lat="44.40912" lon="6.7814">
        <ele>1860.12</ele>
        <time>2018-06-20T08:59:36Z</time>
      </trkpt>
      <trkpt lat="44.40909" lon="6.78128">
        <ele>1860.12</ele>
        <time>2018-06-20T08:59:37Z</time>
      </trkpt>
      <trkpt lat="44.40905" lon="6.78116">
        <ele>1860.11</ele>
        <time>2018-06-20T08:59:38Z</time>
      </trkpt>
      <trkpt lat="44.409" lon="6.78105">
        <ele>1860.14</ele>
        <time>2018-06-20T08:59:39Z</time>
      </trkpt>
      <trkpt lat="44.40893" lon="6.78094">
        <ele>1860.14</ele>
        <time>2018-06-20T08:59:40Z</time>
      </trkpt>
      <trkpt lat="44.40886" lon="6.78083">
        <ele>1860.14</ele>
        <time>2018-06-20T08:59:41Z</time>
      </trkpt>
      <trkpt lat="44.40878" lon="6.78071">
        <ele>1860.16</ele>
        <time>2018-06-20T08:59:42Z</time>
      </trkpt>
      <trkpt lat="44.4087" lon="6.78057">
        <ele>1860.18</ele>
        <time>2018-06-20T08:59:43Z</time>
      </trkpt>
      <trkpt lat="44.40842" lon="6.78009">
        <ele>1860.19</ele>
        <time>2018-06-20T08:59:47Z</time>
      </trkpt>
      <trkpt lat="44.40837" lon="6.77997">
        <ele>1860.18</ele>
        <time>2018-06-20T08:59:48Z</time>
      </trkpt>
      <trkpt lat="44.40834" lon="6.77986">
        <ele>1860.16</ele>
        <time>2018-06-20T08:59:49Z</time>
      </trkpt>
      <trkpt lat="44.4083" lon="6.77972">
        <ele>1860.19</ele>
        <time>2018-06-20T08:59:50Z</time>
      </trkpt>
      <trkpt lat="44.40828" lon="6.77956">
        <ele>1860.22</ele>
        <time>2018-06-20T08:59:51Z</time>
      </trkpt>
      <trkpt lat="44.40825" lon="6.7794">
        <ele>1860.22</ele>
        <time>2018-06-20T08:59:52Z</time>
      </trkpt>
      <trkpt lat="44.40811" lon="6.77845">
        <ele>1860.33</ele>
        <time>2018-06-20T09:00:00Z</time>
      </trkpt>
      <trkpt lat="44.40803" lon="6.77819">
        <ele>1859.57</ele>
        <time>2018-06-20T09:00:05Z</time>
      </trkpt>
      <trkpt lat="44.408" lon="6.77818">
        <ele>1858.62</ele>
        <time>2018-06-20T09:00:06Z</time>
      </trkpt>
      <trkpt lat="44.40797" lon="6.77819">
        <ele>1858.63</ele>
        <time>2018-06-20T09:00:07Z</time>
      </trkpt>
      <trkpt lat="44.40795" lon="6.77821">
        <ele>1858.62</ele>
        <time>2018-06-20T09:00:08Z</time>
      </trkpt>
      <trkpt lat="44.40793" lon="6.77823">
        <ele>1858.65</ele>
        <time>2018-06-20T09:00:09Z</time>
      </trkpt>
      <trkpt lat="44.40792" lon="6.77824">
        <ele>1858.68</ele>
        <time>2018-06-20T09:00:10Z</time>
      </trkpt>
      <trkpt lat="44.40785" lon="6.77838">
        <ele>1856.85</ele>
        <time>2018-06-20T09:00:20Z</time>
      </trkpt>
      <trkpt lat="44.40779" lon="6.77849">
        <ele>1856.83</ele>
        <time>2018-06-20T09:00:22Z</time>
      </trkpt>
      <trkpt lat="44.40726" lon="6.77917">
        <ele>1853.05</ele>
        <time>2018-06-20T09:00:33Z</time>
      </trkpt>
      <trkpt lat="44.40686" lon="6.77949">
        <ele>1849.93</ele>
        <time>2018-06-20T09:00:39Z</time>
      </trkpt>
      <trkpt lat="44.40645" lon="6.77979">
        <ele>1846.17</ele>
        <time>2018-06-20T09:00:44Z</time>
      </trkpt>
      <trkpt lat="44.40623" lon="6.78002">
        <ele>1844.26</ele>
        <time>2018-06-20T09:00:47Z</time>
      </trkpt>
      <trkpt lat="44.40609" lon="6.78015">
        <ele>1842.78</ele>
        <time>2018-06-20T09:00:49Z</time>
      </trkpt>
      <trkpt lat="44.40584" lon="6.78033">
        <ele>1840.95</ele>
        <time>2018-06-20T09:00:52Z</time>
      </trkpt>
      <trkpt lat="44.40556" lon="6.78049">
        <ele>1838.82</ele>
        <time>2018-06-20T09:00:55Z</time>
      </trkpt>
      <trkpt lat="44.4051" lon="6.78085">
        <ele>1835.2</ele>
        <time>2018-06-20T09:01:00Z</time>
      </trkpt>
      <trkpt lat="44.4049" lon="6.78096">
        <ele>1834.15</ele>
        <time>2018-06-20T09:01:02Z</time>
      </trkpt>
      <trkpt lat="44.40463" lon="6.7811">
        <ele>1831.93</ele>
        <time>2018-06-20T09:01:05Z</time>
      </trkpt>
      <trkpt lat="44.40455" lon="6.7811">
        <ele>1830.59</ele>
        <time>2018-06-20T09:01:06Z</time>
      </trkpt>
      <trkpt lat="44.40447" lon="6.78108">
        <ele>1830.63</ele>
        <time>2018-06-20T09:01:07Z</time>
      </trkpt>
      <trkpt lat="44.40439" lon="6.78105">
        <ele>1829.45</ele>
        <time>2018-06-20T09:01:08Z</time>
      </trkpt>
      <trkpt lat="44.40431" lon="6.78103">
        <ele>1829.43</ele>
        <time>2018-06-20T09:01:09Z</time>
      </trkpt>
      <trkpt lat="44.40423" lon="6.78101">
        <ele>1828.41</ele>
        <time>2018-06-20T09:01:10Z</time>
      </trkpt>
      <trkpt lat="44.40415" lon="6.78102">
        <ele>1828.48</ele>
        <time>2018-06-20T09:01:11Z</time>
      </trkpt>
      <trkpt lat="44.40407" lon="6.78105">
        <ele>1827.09</ele>
        <time>2018-06-20T09:01:12Z</time>
      </trkpt>
      <trkpt lat="44.40399" lon="6.7811">
        <ele>1827.1</ele>
        <time>2018-06-20T09:01:13Z</time>
      </trkpt>
      <trkpt lat="44.40392" lon="6.78117">
        <ele>1825.88</ele>
        <time>2018-06-20T09:01:14Z</time>
      </trkpt>
      <trkpt lat="44.40384" lon="6.78124">
        <ele>1825.81</ele>
        <time>2018-06-20T09:01:15Z</time>
      </trkpt>
      <trkpt lat="44.40376" lon="6.78132">
        <ele>1824.34</ele>
        <time>2018-06-20T09:01:16Z</time>
      </trkpt>
      <trkpt lat="44.40368" lon="6.7814">
        <ele>1823.2</ele>
        <time>2018-06-20T09:01:17Z</time>
      </trkpt>
      <trkpt lat="44.40359" lon="6.78147">
        <ele>1823.23</ele>
        <time>2018-06-20T09:01:18Z</time>
      </trkpt>
      <trkpt lat="44.40349" lon="6.78153">
        <ele>1821.79</ele>
        <time>2018-06-20T09:01:19Z</time>
      </trkpt>
      <trkpt lat="44.40339" lon="6.78156">
        <ele>1821</ele>
        <time>2018-06-20T09:01:20Z</time>
      </trkpt>
      <trkpt lat="44.40294" lon="6.78167">
        <ele>1817.92</ele>
        <time>2018-06-20T09:01:24Z</time>
      </trkpt>
      <trkpt lat="44.40284" lon="6.78172">
        <ele>1817.09</ele>
        <time>2018-06-20T09:01:25Z</time>
      </trkpt>
      <trkpt lat="44.40275" lon="6.78177">
        <ele>1816.33</ele>
        <time>2018-06-20T09:01:26Z</time>
      </trkpt>
      <trkpt lat="44.40248" lon="6.78195">
        <ele>1812.53</ele>
        <time>2018-06-20T09:01:30Z</time>
      </trkpt>
      <trkpt lat="44.40242" lon="6.78195">
        <ele>1812.55</ele>
        <time>2018-06-20T09:01:31Z</time>
      </trkpt>
      <trkpt lat="44.40237" lon="6.78192">
        <ele>1811.55</ele>
        <time>2018-06-20T09:01:32Z</time>
      </trkpt>
      <trkpt lat="44.40233" lon="6.78187">
        <ele>1811.44</ele>
        <time>2018-06-20T09:01:33Z</time>
      </trkpt>
      <trkpt lat="44.40228" lon="6.78181">
        <ele>1811.56</ele>
        <time>2018-06-20T09:01:34Z</time>
      </trkpt>
      <trkpt lat="44.40223" lon="6.78175">
        <ele>1810.67</ele>
        <time>2018-06-20T09:01:35Z</time>
      </trkpt>
      <trkpt lat="44.40216" lon="6.7817">
        <ele>1810.68</ele>
        <time>2018-06-20T09:01:36Z</time>
      </trkpt>
      <trkpt lat="44.40208" lon="6.78167">
        <ele>1809.7</ele>
        <time>2018-06-20T09:01:37Z</time>
      </trkpt>
      <trkpt lat="44.402" lon="6.78167">
        <ele>1808.87</ele>
        <time>2018-06-20T09:01:38Z</time>
      </trkpt>
      <trkpt lat="44.40191" lon="6.78169">
        <ele>1807.88</ele>
        <time>2018-06-20T09:01:39Z</time>
      </trkpt>
      <trkpt lat="44.40183" lon="6.78172">
        <ele>1807.87</ele>
        <time>2018-06-20T09:01:40Z</time>
      </trkpt>
      <trkpt lat="44.40158" lon="6.78177">
        <ele>1805.11</ele>
        <time>2018-06-20T09:01:43Z</time>
      </trkpt>
      <trkpt lat="44.4015" lon="6.78176">
        <ele>1804.21</ele>
        <time>2018-06-20T09:01:44Z</time>
      </trkpt>
      <trkpt lat="44.40143" lon="6.78174">
        <ele>1804.19</ele>
        <time>2018-06-20T09:01:45Z</time>
      </trkpt>
      <trkpt lat="44.40136" lon="6.78173">
        <ele>1802.98</ele>
        <time>2018-06-20T09:01:46Z</time>
      </trkpt>
      <trkpt lat="44.40129" lon="6.78172">
        <ele>1803.03</ele>
        <time>2018-06-20T09:01:47Z</time>
      </trkpt>
      <trkpt lat="44.40122" lon="6.78173">
        <ele>1801.49</ele>
        <time>2018-06-20T09:01:48Z</time>
      </trkpt>
      <trkpt lat="44.40117" lon="6.78173">
        <ele>1801.47</ele>
        <time>2018-06-20T09:01:49Z</time>
      </trkpt>
      <trkpt lat="44.40114" lon="6.78172">
        <ele>1800.33</ele>
        <time>2018-06-20T09:01:50Z</time>
      </trkpt>
      <trkpt lat="44.40111" lon="6.7817">
        <ele>1800.3</ele>
        <time>2018-06-20T09:01:51Z</time>
      </trkpt>
      <trkpt lat="44.4011" lon="6.78167">
        <ele>1800.26</ele>
        <time>2018-06-20T09:01:52Z</time>
      </trkpt>
      <trkpt lat="44.40111" lon="6.78162">
        <ele>1800.31</ele>
        <time>2018-06-20T09:01:53Z</time>
      </trkpt>
      <trkpt lat="44.40112" lon="6.78158">
        <ele>1800.27</ele>
        <time>2018-06-20T09:01:54Z</time>
      </trkpt>
      <trkpt lat="44.40115" lon="6.78156">
        <ele>1799.11</ele>
        <time>2018-06-20T09:01:55Z</time>
      </trkpt>
      <trkpt lat="44.40119" lon="6.78154">
        <ele>1799.12</ele>
        <time>2018-06-20T09:01:56Z</time>
      </trkpt>
      <trkpt lat="44.40123" lon="6.78154">
        <ele>1798.33</ele>
        <time>2018-06-20T09:01:57Z</time>
      </trkpt>
      <trkpt lat="44.40128" lon="6.78153">
        <ele>1798.38</ele>
        <time>2018-06-20T09:01:58Z</time>
      </trkpt>
      <trkpt lat="44.40135" lon="6.78152">
        <ele>1797.36</ele>
        <time>2018-06-20T09:01:59Z</time>
      </trkpt>
      <trkpt lat="44.40176" lon="6.78142">
        <ele>1793.59</ele>
        <time>2018-06-20T09:02:04Z</time>
      </trkpt>
      <trkpt lat="44.40183" lon="6.78138">
        <ele>1792.69</ele>
        <time>2018-06-20T09:02:05Z</time>
      </trkpt>
      <trkpt lat="44.4019" lon="6.78132">
        <ele>1792.75</ele>
        <time>2018-06-20T09:02:06Z</time>
      </trkpt>
      <trkpt lat="44.40197" lon="6.78128">
        <ele>1791.31</ele>
        <time>2018-06-20T09:02:07Z</time>
      </trkpt>
      <trkpt lat="44.40217" lon="6.78118">
        <ele>1788.05</ele>
        <time>2018-06-20T09:02:10Z</time>
      </trkpt>
      <trkpt lat="44.40226" lon="6.78113">
        <ele>1786.52</ele>
        <time>2018-06-20T09:02:12Z</time>
      </trkpt>
      <trkpt lat="44.40228" lon="6.78109">
        <ele>1785.13</ele>
        <time>2018-06-20T09:02:13Z</time>
      </trkpt>
      <trkpt lat="44.40229" lon="6.78105">
        <ele>1785.05</ele>
        <time>2018-06-20T09:02:14Z</time>
      </trkpt>
      <trkpt lat="44.40229" lon="6.781">
        <ele>1784.16</ele>
        <time>2018-06-20T09:02:15Z</time>
      </trkpt>
      <trkpt lat="44.40227" lon="6.78098">
        <ele>1784.24</ele>
        <time>2018-06-20T09:02:16Z</time>
      </trkpt>
      <trkpt lat="44.40225" lon="6.78097">
        <ele>1784.22</ele>
        <time>2018-06-20T09:02:17Z</time>
      </trkpt>
      <trkpt lat="44.40221" lon="6.78096">
        <ele>1784.16</ele>
        <time>2018-06-20T09:02:18Z</time>
      </trkpt>
      <trkpt lat="44.4021" lon="6.78094">
        <ele>1782.91</ele>
        <time>2018-06-20T09:02:20Z</time>
      </trkpt>
      <trkpt lat="44.40202" lon="6.78092">
        <ele>1781.8</ele>
        <time>2018-06-20T09:02:21Z</time>
      </trkpt>
      <trkpt lat="44.40195" lon="6.78087">
        <ele>1781.81</ele>
        <time>2018-06-20T09:02:22Z</time>
      </trkpt>
      <trkpt lat="44.40188" lon="6.78081">
        <ele>1780.39</ele>
        <time>2018-06-20T09:02:23Z</time>
      </trkpt>
      <trkpt lat="44.40175" lon="6.7807">
        <ele>1778.77</ele>
        <time>2018-06-20T09:02:25Z</time>
      </trkpt>
      <trkpt lat="44.40168" lon="6.78066">
        <ele>1778.69</ele>
        <time>2018-06-20T09:02:26Z</time>
      </trkpt>
      <trkpt lat="44.40158" lon="6.78057">
        <ele>1777.09</ele>
        <time>2018-06-20T09:02:28Z</time>
      </trkpt>
      <trkpt lat="44.40154" lon="6.78053">
        <ele>1776.1</ele>
        <time>2018-06-20T09:02:29Z</time>
      </trkpt>
      <trkpt lat="44.40153" lon="6.78048">
        <ele>1776.13</ele>
        <time>2018-06-20T09:02:30Z</time>
      </trkpt>
      <trkpt lat="44.40154" lon="6.78044">
        <ele>1774.86</ele>
        <time>2018-06-20T09:02:31Z</time>
      </trkpt>
      <trkpt lat="44.40156" lon="6.78042">
        <ele>1774.85</ele>
        <time>2018-06-20T09:02:32Z</time>
      </trkpt>
      <trkpt lat="44.4016" lon="6.78041">
        <ele>1773.74</ele>
        <time>2018-06-20T09:02:33Z</time>
      </trkpt>
      <trkpt lat="44.40163" lon="6.78042">
        <ele>1773.77</ele>
        <time>2018-06-20T09:02:34Z</time>
      </trkpt>
      <trkpt lat="44.40168" lon="6.78042">
        <ele>1772.95</ele>
        <time>2018-06-20T09:02:35Z</time>
      </trkpt>
      <trkpt lat="44.40173" lon="6.78043">
        <ele>1772.97</ele>
        <time>2018-06-20T09:02:36Z</time>
      </trkpt>
      <trkpt lat="44.40179" lon="6.78042">
        <ele>1772.1</ele>
        <time>2018-06-20T09:02:37Z</time>
      </trkpt>
      <trkpt lat="44.40184" lon="6.78041">
        <ele>1772.13</ele>
        <time>2018-06-20T09:02:38Z</time>
      </trkpt>
      <trkpt lat="44.40189" lon="6.78039">
        <ele>1770.84</ele>
        <time>2018-06-20T09:02:39Z</time>
      </trkpt>
      <trkpt lat="44.40192" lon="6.78036">
        <ele>1770.91</ele>
        <time>2018-06-20T09:02:40Z</time>
      </trkpt>
      <trkpt lat="44.40194" lon="6.78031">
        <ele>1769.89</ele>
        <time>2018-06-20T09:02:41Z</time>
      </trkpt>
      <trkpt lat="44.40193" lon="6.78027">
        <ele>1769.88</ele>
        <time>2018-06-20T09:02:42Z</time>
      </trkpt>
      <trkpt lat="44.40191" lon="6.78023">
        <ele>1769.28</ele>
        <time>2018-06-20T09:02:43Z</time>
      </trkpt>
      <trkpt lat="44.40187" lon="6.7802">
        <ele>1769.22</ele>
        <time>2018-06-20T09:02:44Z</time>
      </trkpt>
      <trkpt lat="44.40182" lon="6.78017">
        <ele>1769.25</ele>
        <time>2018-06-20T09:02:45Z</time>
      </trkpt>
      <trkpt lat="44.40177" lon="6.78016">
        <ele>1768.17</ele>
        <time>2018-06-20T09:02:46Z</time>
      </trkpt>
      <trkpt lat="44.40173" lon="6.78014">
        <ele>1768.16</ele>
        <time>2018-06-20T09:02:47Z</time>
      </trkpt>
      <trkpt lat="44.4017" lon="6.7801">
        <ele>1767.05</ele>
        <time>2018-06-20T09:02:48Z</time>
      </trkpt>
      <trkpt lat="44.40168" lon="6.78006">
        <ele>1767.01</ele>
        <time>2018-06-20T09:02:49Z</time>
      </trkpt>
      <trkpt lat="44.40168" lon="6.78002">
        <ele>1765.98</ele>
        <time>2018-06-20T09:02:50Z</time>
      </trkpt>
      <trkpt lat="44.40171" lon="6.77998">
        <ele>1765.94</ele>
        <time>2018-06-20T09:02:51Z</time>
      </trkpt>
      <trkpt lat="44.40176" lon="6.77996">
        <ele>1765.23</ele>
        <time>2018-06-20T09:02:52Z</time>
      </trkpt>
      <trkpt lat="44.40183" lon="6.77994">
        <ele>1765.16</ele>
        <time>2018-06-20T09:02:53Z</time>
      </trkpt>
      <trkpt lat="44.4019" lon="6.77993">
        <ele>1764.32</ele>
        <time>2018-06-20T09:02:54Z</time>
      </trkpt>
      <trkpt lat="44.40198" lon="6.7799">
        <ele>1764.25</ele>
        <time>2018-06-20T09:02:55Z</time>
      </trkpt>
      <trkpt lat="44.40206" lon="6.77985">
        <ele>1763.11</ele>
        <time>2018-06-20T09:02:56Z</time>
      </trkpt>
      <trkpt lat="44.40213" lon="6.77979">
        <ele>1763.05</ele>
        <time>2018-06-20T09:02:57Z</time>
      </trkpt>
      <trkpt lat="44.40219" lon="6.77971">
        <ele>1761.62</ele>
        <time>2018-06-20T09:02:58Z</time>
      </trkpt>
      <trkpt lat="44.40225" lon="6.77963">
        <ele>1760.77</ele>
        <time>2018-06-20T09:02:59Z</time>
      </trkpt>
      <trkpt lat="44.40231" lon="6.77953">
        <ele>1759.25</ele>
        <time>2018-06-20T09:03:00Z</time>
      </trkpt>
      <trkpt lat="44.40236" lon="6.77943">
        <ele>1758.17</ele>
        <time>2018-06-20T09:03:01Z</time>
      </trkpt>
      <trkpt lat="44.4024" lon="6.77931">
        <ele>1756.91</ele>
        <time>2018-06-20T09:03:02Z</time>
      </trkpt>
      <trkpt lat="44.40243" lon="6.77919">
        <ele>1755.45</ele>
        <time>2018-06-20T09:03:03Z</time>
      </trkpt>
      <trkpt lat="44.40253" lon="6.77886">
        <ele>1752.13</ele>
        <time>2018-06-20T09:03:06Z</time>
      </trkpt>
      <trkpt lat="44.40255" lon="6.77877">
        <ele>1751.09</ele>
        <time>2018-06-20T09:03:07Z</time>
      </trkpt>
      <trkpt lat="44.40256" lon="6.77869">
        <ele>1750.08</ele>
        <time>2018-06-20T09:03:08Z</time>
      </trkpt>
      <trkpt lat="44.40256" lon="6.77863">
        <ele>1750.02</ele>
        <time>2018-06-20T09:03:09Z</time>
      </trkpt>
      <trkpt lat="44.40255" lon="6.77857">
        <ele>1748.89</ele>
        <time>2018-06-20T09:03:10Z</time>
      </trkpt>
      <trkpt lat="44.40252" lon="6.77853">
        <ele>1748.86</ele>
        <time>2018-06-20T09:03:11Z</time>
      </trkpt>
      <trkpt lat="44.40249" lon="6.7785">
        <ele>1748.79</ele>
        <time>2018-06-20T09:03:12Z</time>
      </trkpt>
      <trkpt lat="44.40245" lon="6.77848">
        <ele>1748.02</ele>
        <time>2018-06-20T09:03:13Z</time>
      </trkpt>
      <trkpt lat="44.4024" lon="6.77848">
        <ele>1748.01</ele>
        <time>2018-06-20T09:03:14Z</time>
      </trkpt>
      <trkpt lat="44.40235" lon="6.77851">
        <ele>1747.86</ele>
        <time>2018-06-20T09:03:15Z</time>
      </trkpt>
      <trkpt lat="44.4023" lon="6.77856">
        <ele>1747.05</ele>
        <time>2018-06-20T09:03:16Z</time>
      </trkpt>
      <trkpt lat="44.40225" lon="6.77863">
        <ele>1747.06</ele>
        <time>2018-06-20T09:03:17Z</time>
      </trkpt>
      <trkpt lat="44.4022" lon="6.7787">
        <ele>1747.04</ele>
        <time>2018-06-20T09:03:18Z</time>
      </trkpt>
      <trkpt lat="44.40206" lon="6.77891">
        <ele>1745.21</ele>
        <time>2018-06-20T09:03:21Z</time>
      </trkpt>
      <trkpt lat="44.40202" lon="6.77893">
        <ele>1745.23</ele>
        <time>2018-06-20T09:03:22Z</time>
      </trkpt>
      <trkpt lat="44.40198" lon="6.77894">
        <ele>1744.43</ele>
        <time>2018-06-20T09:03:23Z</time>
      </trkpt>
      <trkpt lat="44.40195" lon="6.77893">
        <ele>1744.48</ele>
        <time>2018-06-20T09:03:24Z</time>
      </trkpt>
      <trkpt lat="44.40193" lon="6.7789">
        <ele>1744.47</ele>
        <time>2018-06-20T09:03:25Z</time>
      </trkpt>
      <trkpt lat="44.40192" lon="6.77887">
        <ele>1744.53</ele>
        <time>2018-06-20T09:03:26Z</time>
      </trkpt>
      <trkpt lat="44.40191" lon="6.77882">
        <ele>1744.49</ele>
        <time>2018-06-20T09:03:27Z</time>
      </trkpt>
      <trkpt lat="44.40192" lon="6.77877">
        <ele>1744.53</ele>
        <time>2018-06-20T09:03:28Z</time>
      </trkpt>
      <trkpt lat="44.40192" lon="6.77869">
        <ele>1744.55</ele>
        <time>2018-06-20T09:03:29Z</time>
      </trkpt>
      <trkpt lat="44.40196" lon="6.77836">
        <ele>1744.6</ele>
        <time>2018-06-20T09:03:32Z</time>
      </trkpt>
      <trkpt lat="44.40196" lon="6.77824">
        <ele>1746.95</ele>
        <time>2018-06-20T09:03:33Z</time>
      </trkpt>
      <trkpt lat="44.40195" lon="6.77812">
        <ele>1746.96</ele>
        <time>2018-06-20T09:03:34Z</time>
      </trkpt>
      <trkpt lat="44.40194" lon="6.778">
        <ele>1746.97</ele>
        <time>2018-06-20T09:03:35Z</time>
      </trkpt>
      <trkpt lat="44.40192" lon="6.77789">
        <ele>1746.99</ele>
        <time>2018-06-20T09:03:36Z</time>
      </trkpt>
      <trkpt lat="44.40188" lon="6.77781">
        <ele>1746.99</ele>
        <time>2018-06-20T09:03:37Z</time>
      </trkpt>
      <trkpt lat="44.40183" lon="6.77773">
        <ele>1747.02</ele>
        <time>2018-06-20T09:03:38Z</time>
      </trkpt>
      <trkpt lat="44.40176" lon="6.77766">
        <ele>1748.12</ele>
        <time>2018-06-20T09:03:39Z</time>
      </trkpt>
      <trkpt lat="44.40169" lon="6.7776">
        <ele>1748.96</ele>
        <time>2018-06-20T09:03:40Z</time>
      </trkpt>
      <trkpt lat="44.40162" lon="6.77758">
        <ele>1748.96</ele>
        <time>2018-06-20T09:03:41Z</time>
      </trkpt>
      <trkpt lat="44.40154" lon="6.77758">
        <ele>1750.1</ele>
        <time>2018-06-20T09:03:42Z</time>
      </trkpt>
      <trkpt lat="44.40147" lon="6.77761">
        <ele>1750.14</ele>
        <time>2018-06-20T09:03:43Z</time>
      </trkpt>
      <trkpt lat="44.40139" lon="6.77766">
        <ele>1751.63</ele>
        <time>2018-06-20T09:03:44Z</time>
      </trkpt>
      <trkpt lat="44.40131" lon="6.77771">
        <ele>1752.63</ele>
        <time>2018-06-20T09:03:45Z</time>
      </trkpt>
      <trkpt lat="44.40123" lon="6.77776">
        <ele>1752.6</ele>
        <time>2018-06-20T09:03:46Z</time>
      </trkpt>
      <trkpt lat="44.40117" lon="6.77781">
        <ele>1753.55</ele>
        <time>2018-06-20T09:03:47Z</time>
      </trkpt>
      <trkpt lat="44.40113" lon="6.77788">
        <ele>1753.57</ele>
        <time>2018-06-20T09:03:48Z</time>
      </trkpt>
      <trkpt lat="44.40108" lon="6.77796">
        <ele>1753.56</ele>
        <time>2018-06-20T09:03:49Z</time>
      </trkpt>
      <trkpt lat="44.40101" lon="6.7781">
        <ele>1753.58</ele>
        <time>2018-06-20T09:03:51Z</time>
      </trkpt>
      <trkpt lat="44.40097" lon="6.77814">
        <ele>1753.57</ele>
        <time>2018-06-20T09:03:52Z</time>
      </trkpt>
      <trkpt lat="44.40093" lon="6.77816">
        <ele>1753.59</ele>
        <time>2018-06-20T09:03:53Z</time>
      </trkpt>
      <trkpt lat="44.4009" lon="6.77815">
        <ele>1753.62</ele>
        <time>2018-06-20T09:03:54Z</time>
      </trkpt>
      <trkpt lat="44.40087" lon="6.77813">
        <ele>1753.65</ele>
        <time>2018-06-20T09:03:55Z</time>
      </trkpt>
      <trkpt lat="44.40086" lon="6.7781">
        <ele>1753.64</ele>
        <time>2018-06-20T09:03:56Z</time>
      </trkpt>
      <trkpt lat="44.40084" lon="6.77805">
        <ele>1753.62</ele>
        <time>2018-06-20T09:03:57Z</time>
      </trkpt>
      <trkpt lat="44.40083" lon="6.77798">
        <ele>1753.63</ele>
        <time>2018-06-20T09:03:58Z</time>
      </trkpt>
      <trkpt lat="44.40083" lon="6.77789">
        <ele>1753.62</ele>
        <time>2018-06-20T09:03:59Z</time>
      </trkpt>
      <trkpt lat="44.40083" lon="6.77779">
        <ele>1753.65</ele>
        <time>2018-06-20T09:04:00Z</time>
      </trkpt>
      <trkpt lat="44.40084" lon="6.77768">
        <ele>1755.35</ele>
        <time>2018-06-20T09:04:01Z</time>
      </trkpt>
      <trkpt lat="44.40085" lon="6.77756">
        <ele>1756.24</ele>
        <time>2018-06-20T09:04:02Z</time>
      </trkpt>
      <trkpt lat="44.40086" lon="6.77744">
        <ele>1756.26</ele>
        <time>2018-06-20T09:04:03Z</time>
      </trkpt>
      <trkpt lat="44.4009" lon="6.77724">
        <ele>1757.54</ele>
        <time>2018-06-20T09:04:05Z</time>
      </trkpt>
      <trkpt lat="44.40091" lon="6.77702">
        <ele>1757.53</ele>
        <time>2018-06-20T09:04:07Z</time>
      </trkpt>
      <trkpt lat="44.40091" lon="6.7769">
        <ele>1757.54</ele>
        <time>2018-06-20T09:04:08Z</time>
      </trkpt>
      <trkpt lat="44.4009" lon="6.77676">
        <ele>1757.53</ele>
        <time>2018-06-20T09:04:09Z</time>
      </trkpt>
      <trkpt lat="44.40088" lon="6.77663">
        <ele>1757.53</ele>
        <time>2018-06-20T09:04:10Z</time>
      </trkpt>
      <trkpt lat="44.40085" lon="6.77648">
        <ele>1755.18</ele>
        <time>2018-06-20T09:04:11Z</time>
      </trkpt>
      <trkpt lat="44.40084" lon="6.77634">
        <ele>1755.19</ele>
        <time>2018-06-20T09:04:12Z</time>
      </trkpt>
      <trkpt lat="44.40082" lon="6.77606">
        <ele>1753.57</ele>
        <time>2018-06-20T09:04:14Z</time>
      </trkpt>
      <trkpt lat="44.40082" lon="6.77592">
        <ele>1752.22</ele>
        <time>2018-06-20T09:04:15Z</time>
      </trkpt>
      <trkpt lat="44.40084" lon="6.77578">
        <ele>1752.19</ele>
        <time>2018-06-20T09:04:16Z</time>
      </trkpt>
      <trkpt lat="44.40086" lon="6.77564">
        <ele>1752.19</ele>
        <time>2018-06-20T09:04:17Z</time>
      </trkpt>
      <trkpt lat="44.40089" lon="6.77552">
        <ele>1752.09</ele>
        <time>2018-06-20T09:04:18Z</time>
      </trkpt>
      <trkpt lat="44.40093" lon="6.77529">
        <ele>1752.03</ele>
        <time>2018-06-20T09:04:20Z</time>
      </trkpt>
      <trkpt lat="44.40093" lon="6.77517">
        <ele>1751.99</ele>
        <time>2018-06-20T09:04:21Z</time>
      </trkpt>
      <trkpt lat="44.40092" lon="6.77505">
        <ele>1752.01</ele>
        <time>2018-06-20T09:04:22Z</time>
      </trkpt>
      <trkpt lat="44.40081" lon="6.77423">
        <ele>1751.28</ele>
        <time>2018-06-20T09:04:28Z</time>
      </trkpt>
      <trkpt lat="44.40078" lon="6.77411">
        <ele>1750.21</ele>
        <time>2018-06-20T09:04:29Z</time>
      </trkpt>
      <trkpt lat="44.40073" lon="6.774">
        <ele>1748.94</ele>
        <time>2018-06-20T09:04:30Z</time>
      </trkpt>
      <trkpt lat="44.40066" lon="6.77391">
        <ele>1748.91</ele>
        <time>2018-06-20T09:04:31Z</time>
      </trkpt>
      <trkpt lat="44.40058" lon="6.77381">
        <ele>1748.06</ele>
        <time>2018-06-20T09:04:32Z</time>
      </trkpt>
      <trkpt lat="44.40049" lon="6.77372">
        <ele>1748.04</ele>
        <time>2018-06-20T09:04:33Z</time>
      </trkpt>
      <trkpt lat="44.40039" lon="6.77363">
        <ele>1746.77</ele>
        <time>2018-06-20T09:04:34Z</time>
      </trkpt>
      <trkpt lat="44.40029" lon="6.77356">
        <ele>1746.76</ele>
        <time>2018-06-20T09:04:35Z</time>
      </trkpt>
      <trkpt lat="44.40017" lon="6.77349">
        <ele>1745.78</ele>
        <time>2018-06-20T09:04:36Z</time>
      </trkpt>
      <trkpt lat="44.39978" lon="6.77324">
        <ele>1745.79</ele>
        <time>2018-06-20T09:04:40Z</time>
      </trkpt>
      <trkpt lat="44.39968" lon="6.77323">
        <ele>1744.62</ele>
        <time>2018-06-20T09:04:41Z</time>
      </trkpt>
      <trkpt lat="44.39959" lon="6.77323">
        <ele>1744.58</ele>
        <time>2018-06-20T09:04:42Z</time>
      </trkpt>
      <trkpt lat="44.3995" lon="6.77326">
        <ele>1744.61</ele>
        <time>2018-06-20T09:04:43Z</time>
      </trkpt>
      <trkpt lat="44.3994" lon="6.7733">
        <ele>1744.58</ele>
        <time>2018-06-20T09:04:44Z</time>
      </trkpt>
      <trkpt lat="44.39919" lon="6.77337">
        <ele>1743.28</ele>
        <time>2018-06-20T09:04:46Z</time>
      </trkpt>
      <trkpt lat="44.39908" lon="6.77339">
        <ele>1741.89</ele>
        <time>2018-06-20T09:04:47Z</time>
      </trkpt>
      <trkpt lat="44.39875" lon="6.77345">
        <ele>1739.07</ele>
        <time>2018-06-20T09:04:50Z</time>
      </trkpt>
      <trkpt lat="44.39851" lon="6.77354">
        <ele>1737.94</ele>
        <time>2018-06-20T09:04:52Z</time>
      </trkpt>
      <trkpt lat="44.39827" lon="6.77363">
        <ele>1734.96</ele>
        <time>2018-06-20T09:04:54Z</time>
      </trkpt>
      <trkpt lat="44.39784" lon="6.77389">
        <ele>1731.14</ele>
        <time>2018-06-20T09:04:58Z</time>
      </trkpt>
      <trkpt lat="44.39736" lon="6.77418">
        <ele>1728</ele>
        <time>2018-06-20T09:05:03Z</time>
      </trkpt>
      <trkpt lat="44.39716" lon="6.77426">
        <ele>1726.92</ele>
        <time>2018-06-20T09:05:05Z</time>
      </trkpt>
      <trkpt lat="44.39697" lon="6.77433">
        <ele>1726.01</ele>
        <time>2018-06-20T09:05:07Z</time>
      </trkpt>
      <trkpt lat="44.39667" lon="6.77437">
        <ele>1723.83</ele>
        <time>2018-06-20T09:05:10Z</time>
      </trkpt>
      <trkpt lat="44.39658" lon="6.77436">
        <ele>1722.92</ele>
        <time>2018-06-20T09:05:11Z</time>
      </trkpt>
      <trkpt lat="44.3965" lon="6.77434">
        <ele>1722.95</ele>
        <time>2018-06-20T09:05:12Z</time>
      </trkpt>
      <trkpt lat="44.39627" lon="6.77423">
        <ele>1720.68</ele>
        <time>2018-06-20T09:05:15Z</time>
      </trkpt>
      <trkpt lat="44.39619" lon="6.77422">
        <ele>1719.77</ele>
        <time>2018-06-20T09:05:16Z</time>
      </trkpt>
      <trkpt lat="44.3961" lon="6.77422">
        <ele>1718.94</ele>
        <time>2018-06-20T09:05:17Z</time>
      </trkpt>
      <trkpt lat="44.39601" lon="6.77424">
        <ele>1718.83</ele>
        <time>2018-06-20T09:05:18Z</time>
      </trkpt>
      <trkpt lat="44.39564" lon="6.77427">
        <ele>1715.31</ele>
        <time>2018-06-20T09:05:21Z</time>
      </trkpt>
      <trkpt lat="44.39523" lon="6.77429">
        <ele>1713.64</ele>
        <time>2018-06-20T09:05:24Z</time>
      </trkpt>
      <trkpt lat="44.39488" lon="6.77432">
        <ele>1709.88</ele>
        <time>2018-06-20T09:05:27Z</time>
      </trkpt>
      <trkpt lat="44.3948" lon="6.77434">
        <ele>1709.05</ele>
        <time>2018-06-20T09:05:28Z</time>
      </trkpt>
      <trkpt lat="44.39472" lon="6.77439">
        <ele>1707.96</ele>
        <time>2018-06-20T09:05:29Z</time>
      </trkpt>
      <trkpt lat="44.39465" lon="6.77445">
        <ele>1707.93</ele>
        <time>2018-06-20T09:05:30Z</time>
      </trkpt>
      <trkpt lat="44.39448" lon="6.77457">
        <ele>1706.26</ele>
        <time>2018-06-20T09:05:32Z</time>
      </trkpt>
      <trkpt lat="44.39433" lon="6.77465">
        <ele>1704.4</ele>
        <time>2018-06-20T09:05:34Z</time>
      </trkpt>
      <trkpt lat="44.39427" lon="6.77464">
        <ele>1703.41</ele>
        <time>2018-06-20T09:05:35Z</time>
      </trkpt>
      <trkpt lat="44.39424" lon="6.7746">
        <ele>1702.49</ele>
        <time>2018-06-20T09:05:36Z</time>
      </trkpt>
      <trkpt lat="44.39423" lon="6.77455">
        <ele>1702.49</ele>
        <time>2018-06-20T09:05:37Z</time>
      </trkpt>
      <trkpt lat="44.39425" lon="6.77449">
        <ele>1701.81</ele>
        <time>2018-06-20T09:05:38Z</time>
      </trkpt>
      <trkpt lat="44.39428" lon="6.77443">
        <ele>1701.48</ele>
        <time>2018-06-20T09:05:39Z</time>
      </trkpt>
      <trkpt lat="44.39433" lon="6.77439">
        <ele>1701.45</ele>
        <time>2018-06-20T09:05:40Z</time>
      </trkpt>
      <trkpt lat="44.39439" lon="6.77434">
        <ele>1701.5</ele>
        <time>2018-06-20T09:05:41Z</time>
      </trkpt>
      <trkpt lat="44.39447" lon="6.77428">
        <ele>1701.47</ele>
        <time>2018-06-20T09:05:42Z</time>
      </trkpt>
      <trkpt lat="44.39457" lon="6.77421">
        <ele>1700.61</ele>
        <time>2018-06-20T09:05:43Z</time>
      </trkpt>
      <trkpt lat="44.39466" lon="6.77412">
        <ele>1700.73</ele>
        <time>2018-06-20T09:05:44Z</time>
      </trkpt>
      <trkpt lat="44.39514" lon="6.77371">
        <ele>1698.02</ele>
        <time>2018-06-20T09:05:50Z</time>
      </trkpt>
      <trkpt lat="44.39522" lon="6.77367">
        <ele>1696.59</ele>
        <time>2018-06-20T09:05:51Z</time>
      </trkpt>
      <trkpt lat="44.39531" lon="6.77366">
        <ele>1696.63</ele>
        <time>2018-06-20T09:05:52Z</time>
      </trkpt>
      <trkpt lat="44.39541" lon="6.77365">
        <ele>1695.47</ele>
        <time>2018-06-20T09:05:53Z</time>
      </trkpt>
      <trkpt lat="44.39551" lon="6.77365">
        <ele>1695.5</ele>
        <time>2018-06-20T09:05:54Z</time>
      </trkpt>
      <trkpt lat="44.39607" lon="6.77362">
        <ele>1692.43</ele>
        <time>2018-06-20T09:05:59Z</time>
      </trkpt>
      <trkpt lat="44.39658" lon="6.7736">
        <ele>1688.55</ele>
        <time>2018-06-20T09:06:04Z</time>
      </trkpt>
      <trkpt lat="44.39667" lon="6.77357">
        <ele>1688.55</ele>
        <time>2018-06-20T09:06:05Z</time>
      </trkpt>
      <trkpt lat="44.39677" lon="6.77351">
        <ele>1687.21</ele>
        <time>2018-06-20T09:06:06Z</time>
      </trkpt>
      <trkpt lat="44.39687" lon="6.77343">
        <ele>1687.25</ele>
        <time>2018-06-20T09:06:07Z</time>
      </trkpt>
      <trkpt lat="44.39697" lon="6.77334">
        <ele>1685.63</ele>
        <time>2018-06-20T09:06:08Z</time>
      </trkpt>
      <trkpt lat="44.39707" lon="6.77325">
        <ele>1685.58</ele>
        <time>2018-06-20T09:06:09Z</time>
      </trkpt>
      <trkpt lat="44.39723" lon="6.77311">
        <ele>1682.55</ele>
        <time>2018-06-20T09:06:11Z</time>
      </trkpt>
      <trkpt lat="44.39727" lon="6.77305">
        <ele>1681.62</ele>
        <time>2018-06-20T09:06:12Z</time>
      </trkpt>
      <trkpt lat="44.3973" lon="6.77299">
        <ele>1681.62</ele>
        <time>2018-06-20T09:06:13Z</time>
      </trkpt>
      <trkpt lat="44.3973" lon="6.77295">
        <ele>1680.35</ele>
        <time>2018-06-20T09:06:14Z</time>
      </trkpt>
      <trkpt lat="44.3973" lon="6.77292">
        <ele>1680.3</ele>
        <time>2018-06-20T09:06:15Z</time>
      </trkpt>
      <trkpt lat="44.39728" lon="6.77289">
        <ele>1680.38</ele>
        <time>2018-06-20T09:06:16Z</time>
      </trkpt>
      <trkpt lat="44.39725" lon="6.77288">
        <ele>1680.27</ele>
        <time>2018-06-20T09:06:17Z</time>
      </trkpt>
      <trkpt lat="44.39721" lon="6.77288">
        <ele>1679.47</ele>
        <time>2018-06-20T09:06:18Z</time>
      </trkpt>
      <trkpt lat="44.39717" lon="6.77289">
        <ele>1679.49</ele>
        <time>2018-06-20T09:06:19Z</time>
      </trkpt>
      <trkpt lat="44.39711" lon="6.7729">
        <ele>1679.39</ele>
        <time>2018-06-20T09:06:20Z</time>
      </trkpt>
      <trkpt lat="44.39705" lon="6.77291">
        <ele>1679.43</ele>
        <time>2018-06-20T09:06:21Z</time>
      </trkpt>
      <trkpt lat="44.39698" lon="6.77293">
        <ele>1679.46</ele>
        <time>2018-06-20T09:06:22Z</time>
      </trkpt>
      <trkpt lat="44.39689" lon="6.77294">
        <ele>1678.7</ele>
        <time>2018-06-20T09:06:23Z</time>
      </trkpt>
      <trkpt lat="44.3968" lon="6.77295">
        <ele>1678.68</ele>
        <time>2018-06-20T09:06:24Z</time>
      </trkpt>
      <trkpt lat="44.3967" lon="6.77296">
        <ele>1677.28</ele>
        <time>2018-06-20T09:06:25Z</time>
      </trkpt>
      <trkpt lat="44.39661" lon="6.77295">
        <ele>1677.21</ele>
        <time>2018-06-20T09:06:26Z</time>
      </trkpt>
      <trkpt lat="44.39651" lon="6.77292">
        <ele>1676.2</ele>
        <time>2018-06-20T09:06:27Z</time>
      </trkpt>
      <trkpt lat="44.39633" lon="6.77287">
        <ele>1676.29</ele>
        <time>2018-06-20T09:06:29Z</time>
      </trkpt>
      <trkpt lat="44.39623" lon="6.77287">
        <ele>1675.06</ele>
        <time>2018-06-20T09:06:30Z</time>
      </trkpt>
      <trkpt lat="44.39605" lon="6.77287">
        <ele>1674.06</ele>
        <time>2018-06-20T09:06:32Z</time>
      </trkpt>
      <trkpt lat="44.39585" lon="6.77287">
        <ele>1672.39</ele>
        <time>2018-06-20T09:06:34Z</time>
      </trkpt>
      <trkpt lat="44.39563" lon="6.77287">
        <ele>1670.85</ele>
        <time>2018-06-20T09:06:36Z</time>
      </trkpt>
      <trkpt lat="44.3951" lon="6.77279">
        <ele>1667.13</ele>
        <time>2018-06-20T09:06:41Z</time>
      </trkpt>
      <trkpt lat="44.39484" lon="6.77271">
        <ele>1664.97</ele>
        <time>2018-06-20T09:06:44Z</time>
      </trkpt>
      <trkpt lat="44.39475" lon="6.77269">
        <ele>1663.71</ele>
        <time>2018-06-20T09:06:45Z</time>
      </trkpt>
      <trkpt lat="44.39465" lon="6.77269">
        <ele>1663.68</ele>
        <time>2018-06-20T09:06:46Z</time>
      </trkpt>
      <trkpt lat="44.39445" lon="6.77271">
        <ele>1662.55</ele>
        <time>2018-06-20T09:06:48Z</time>
      </trkpt>
      <trkpt lat="44.39435" lon="6.77274">
        <ele>1661.53</ele>
        <time>2018-06-20T09:06:49Z</time>
      </trkpt>
      <trkpt lat="44.39425" lon="6.77279">
        <ele>1661.43</ele>
        <time>2018-06-20T09:06:50Z</time>
      </trkpt>
      <trkpt lat="44.39398" lon="6.77292">
        <ele>1659.42</ele>
        <time>2018-06-20T09:06:53Z</time>
      </trkpt>
      <trkpt lat="44.39374" lon="6.773">
        <ele>1656.18</ele>
        <time>2018-06-20T09:06:56Z</time>
      </trkpt>
      <trkpt lat="44.39369" lon="6.77304">
        <ele>1656.16</ele>
        <time>2018-06-20T09:06:57Z</time>
      </trkpt>
      <trkpt lat="44.39364" lon="6.77309">
        <ele>1654.77</ele>
        <time>2018-06-20T09:06:58Z</time>
      </trkpt>
      <trkpt lat="44.39359" lon="6.77315">
        <ele>1654.69</ele>
        <time>2018-06-20T09:06:59Z</time>
      </trkpt>
      <trkpt lat="44.39348" lon="6.7733">
        <ele>1653.42</ele>
        <time>2018-06-20T09:07:01Z</time>
      </trkpt>
      <trkpt lat="44.39316" lon="6.7739">
        <ele>1649.96</ele>
        <time>2018-06-20T09:07:06Z</time>
      </trkpt>
      <trkpt lat="44.39309" lon="6.77402">
        <ele>1650.06</ele>
        <time>2018-06-20T09:07:07Z</time>
      </trkpt>
      <trkpt lat="44.39295" lon="6.77423">
        <ele>1648.24</ele>
        <time>2018-06-20T09:07:09Z</time>
      </trkpt>
      <trkpt lat="44.3928" lon="6.77443">
        <ele>1646.94</ele>
        <time>2018-06-20T09:07:11Z</time>
      </trkpt>
      <trkpt lat="44.39268" lon="6.77465">
        <ele>1645.49</ele>
        <time>2018-06-20T09:07:13Z</time>
      </trkpt>
      <trkpt lat="44.39254" lon="6.77487">
        <ele>1644.19</ele>
        <time>2018-06-20T09:07:15Z</time>
      </trkpt>
      <trkpt lat="44.39217" lon="6.77531">
        <ele>1641.19</ele>
        <time>2018-06-20T09:07:20Z</time>
      </trkpt>
      <trkpt lat="44.39189" lon="6.7755">
        <ele>1638.42</ele>
        <time>2018-06-20T09:07:24Z</time>
      </trkpt>
      <trkpt lat="44.39178" lon="6.77554">
        <ele>1636.83</ele>
        <time>2018-06-20T09:07:26Z</time>
      </trkpt>
      <trkpt lat="44.39165" lon="6.77552">
        <ele>1634.91</ele>
        <time>2018-06-20T09:07:33Z</time>
      </trkpt>
      <trkpt lat="44.39155" lon="6.77552">
        <ele>1639.3984375</ele>
      </trkpt>
      <trkpt lat="44.39152" lon="6.77589">
        <ele>1645.9453125</ele>
      </trkpt>
      <trkpt lat="44.3915" lon="6.77598">
        <ele>1646.56640625</ele>
      </trkpt>
      <trkpt lat="44.3914" lon="6.77634">
        <ele>1648.61328125</ele>
      </trkpt>
      <trkpt lat="44.39133" lon="6.77657">
        <ele>1648.921875</ele>
      </trkpt>
      <trkpt lat="44.39129" lon="6.77673">
        <ele>1648.82421875</ele>
      </trkpt>
      <trkpt lat="44.39126" lon="6.77691">
        <ele>1649.76171875</ele>
      </trkpt>
      <trkpt lat="44.39124" lon="6.77696">
        <ele>1649.73046875</ele>
      </trkpt>
      <trkpt lat="44.39119" lon="6.77707">
        <ele>1650.62109375</ele>
      </trkpt>
      <trkpt lat="44.39115" lon="6.77716">
        <ele>1651.3125</ele>
      </trkpt>
      <trkpt lat="44.39111" lon="6.77722">
        <ele>1651.76171875</ele>
      </trkpt>
      <trkpt lat="44.39105" lon="6.77729">
        <ele>1652.171875</ele>
      </trkpt>
      <trkpt lat="44.3909" lon="6.77744">
        <ele>1653.375</ele>
      </trkpt>
      <trkpt lat="44.39072" lon="6.77762">
        <ele>1656.609375</ele>
      </trkpt>
      <trkpt lat="44.39068" lon="6.77765">
        <ele>1657.29296875</ele>
      </trkpt>
      <trkpt lat="44.39062" lon="6.77768">
        <ele>1657.85546875</ele>
      </trkpt>
      <trkpt lat="44.39057" lon="6.77772">
        <ele>1658.38671875</ele>
      </trkpt>
      <trkpt lat="44.3903" lon="6.77779">
        <ele>1658.10546875</ele>
      </trkpt>
      <trkpt lat="44.39024" lon="6.77782">
        <ele>1658.37109375</ele>
      </trkpt>
      <trkpt lat="44.39017" lon="6.77788">
        <ele>1659.1796875</ele>
      </trkpt>
      <trkpt lat="44.39014" lon="6.77793">
        <ele>1660.33984375</ele>
      </trkpt>
      <trkpt lat="44.39012" lon="6.77797">
        <ele>1661.3046875</ele>
      </trkpt>
      <trkpt lat="44.39004" lon="6.77806">
        <ele>1662.9453125</ele>
      </trkpt>
      <trkpt lat="44.39" lon="6.7781">
        <ele>1663.703125</ele>
      </trkpt>
      <trkpt lat="44.38993" lon="6.77815">
        <ele>1664.07421875</ele>
      </trkpt>
      <trkpt lat="44.3896" lon="6.77823">
        <ele>1663.26171875</ele>
      </trkpt>
      <trkpt lat="44.38957" lon="6.77824">
        <ele>1663.98828125</ele>
      </trkpt>
      <trkpt lat="44.38953" lon="6.77824">
        <ele>1664.6484375</ele>
      </trkpt>
      <trkpt lat="44.38946" lon="6.77823">
        <ele>1665.3984375</ele>
      </trkpt>
      <trkpt lat="44.38942" lon="6.77822">
        <ele>1665.80859375</ele>
      </trkpt>
      <trkpt lat="44.38937" lon="6.7782">
        <ele>1666.12890625</ele>
      </trkpt>
      <trkpt lat="44.38893" lon="6.77793">
        <ele>1664.5390625</ele>
      </trkpt>
      <trkpt lat="44.38885" lon="6.77792">
        <ele>1665.1328125</ele>
      </trkpt>
      <trkpt lat="44.38878" lon="6.77793">
        <ele>1666.46875</ele>
      </trkpt>
      <trkpt lat="44.38872" lon="6.77795">
        <ele>1667.92578125</ele>
      </trkpt>
      <trkpt lat="44.38869" lon="6.77797">
        <ele>1669.1171875</ele>
      </trkpt>
      <trkpt lat="44.38863" lon="6.77805">
        <ele>1672.7265625</ele>
      </trkpt>
      <trkpt lat="44.38857" lon="6.77809">
        <ele>1675.07421875</ele>
      </trkpt>
      <trkpt lat="44.38849" lon="6.77821">
        <ele>1678.94921875</ele>
      </trkpt>
      <trkpt lat="44.38841" lon="6.77836">
        <ele>1682.36328125</ele>
      </trkpt>
      <trkpt lat="44.38836" lon="6.77842">
        <ele>1683.73828125</ele>
      </trkpt>
      <trkpt lat="44.38833" lon="6.77846">
        <ele>1684.41796875</ele>
      </trkpt>
      <trkpt lat="44.38828" lon="6.77848">
        <ele>1684.72265625</ele>
      </trkpt>
      <trkpt lat="44.38819" lon="6.77851">
        <ele>1684.9921875</ele>
      </trkpt>
      <trkpt lat="44.38811" lon="6.77854">
        <ele>1685.48828125</ele>
      </trkpt>
      <trkpt lat="44.38808" lon="6.7786">
        <ele>1687.01953125</ele>
      </trkpt>
      <trkpt lat="44.38808" lon="6.77864">
        <ele>1688.41796875</ele>
      </trkpt>
      <trkpt lat="44.3881" lon="6.77869">
        <ele>1689.90234375</ele>
      </trkpt>
      <trkpt lat="44.38815" lon="6.77873">
        <ele>1690.89453125</ele>
      </trkpt>
      <trkpt lat="44.3882" lon="6.77871">
        <ele>1690.90234375</ele>
      </trkpt>
      <trkpt lat="44.38834" lon="6.77863">
        <ele>1689.5234375</ele>
      </trkpt>
      <trkpt lat="44.38841" lon="6.77859">
        <ele>1688.734375</ele>
      </trkpt>
      <trkpt lat="44.38847" lon="6.77855">
        <ele>1688.1796875</ele>
      </trkpt>
      <trkpt lat="44.38852" lon="6.77849">
        <ele>1686.5546875</ele>
      </trkpt>
      <trkpt lat="44.38859" lon="6.77838">
        <ele>1682.671875</ele>
      </trkpt>
      <trkpt lat="44.38861" lon="6.77835">
        <ele>1681.484375</ele>
      </trkpt>
      <trkpt lat="44.38864" lon="6.77831">
        <ele>1679.8515625</ele>
      </trkpt>
      <trkpt lat="44.38868" lon="6.77829">
        <ele>1678.63671875</ele>
      </trkpt>
      <trkpt lat="44.38875" lon="6.77825">
        <ele>1676.82421875</ele>
      </trkpt>
      <trkpt lat="44.38878" lon="6.77825">
        <ele>1676.34375</ele>
      </trkpt>
      <trkpt lat="44.38884" lon="6.77826">
        <ele>1675.66015625</ele>
      </trkpt>
      <trkpt lat="44.38889" lon="6.77829">
        <ele>1675.5703125</ele>
      </trkpt>
      <trkpt lat="44.38896" lon="6.77836">
        <ele>1676.359375</ele>
      </trkpt>
      <trkpt lat="44.38899" lon="6.77841">
        <ele>1677.234375</ele>
      </trkpt>
      <trkpt lat="44.38901" lon="6.77847">
        <ele>1678.265625</ele>
      </trkpt>
      <trkpt lat="44.38904" lon="6.77852">
        <ele>1679.2890625</ele>
      </trkpt>
      <trkpt lat="44.38907" lon="6.77861">
        <ele>1680.9375</ele>
      </trkpt>
      <trkpt lat="44.38914" lon="6.77877">
        <ele>1683.17578125</ele>
      </trkpt>
      <trkpt lat="44.38921" lon="6.7789">
        <ele>1684.71484375</ele>
      </trkpt>
      <trkpt lat="44.38938" lon="6.77915">
        <ele>1686.7890625</ele>
      </trkpt>
      <trkpt lat="44.38941" lon="6.77923">
        <ele>1687.80078125</ele>
      </trkpt>
      <trkpt lat="44.38946" lon="6.77938">
        <ele>1690.45703125</ele>
      </trkpt>
      <trkpt lat="44.38945" lon="6.77942">
        <ele>1691.72265625</ele>
      </trkpt>
      <trkpt lat="44.38943" lon="6.77945">
        <ele>1692.921875</ele>
      </trkpt>
      <trkpt lat="44.3894" lon="6.77948">
        <ele>1694.0625</ele>
      </trkpt>
      <trkpt lat="44.38935" lon="6.77944">
        <ele>1694.29296875</ele>
      </trkpt>
      <trkpt lat="44.3893" lon="6.77941">
        <ele>1694.33203125</ele>
      </trkpt>
      <trkpt lat="44.38926" lon="6.77937">
        <ele>1694.12109375</ele>
      </trkpt>
      <trkpt lat="44.38923" lon="6.77932">
        <ele>1693.45703125</ele>
      </trkpt>
      <trkpt lat="44.38919" lon="6.77925">
        <ele>1692.7578125</ele>
      </trkpt>
      <trkpt lat="44.38914" lon="6.77919">
        <ele>1692.11328125</ele>
      </trkpt>
      <trkpt lat="44.3891" lon="6.77912">
        <ele>1691.578125</ele>
      </trkpt>
      <trkpt lat="44.38905" lon="6.77907">
        <ele>1691.40625</ele>
      </trkpt>
      <trkpt lat="44.38899" lon="6.77904">
        <ele>1691.578125</ele>
      </trkpt>
      <trkpt lat="44.38894" lon="6.77899">
        <ele>1691.5234375</ele>
      </trkpt>
      <trkpt lat="44.38889" lon="6.77899">
        <ele>1692.390625</ele>
      </trkpt>
      <trkpt lat="44.38883" lon="6.77899">
        <ele>1693.26171875</ele>
      </trkpt>
      <trkpt lat="44.38879" lon="6.77902">
        <ele>1694.421875</ele>
      </trkpt>
      <trkpt lat="44.38874" lon="6.77905">
        <ele>1695.984375</ele>
      </trkpt>
      <trkpt lat="44.3887" lon="6.77908">
        <ele>1697.203125</ele>
      </trkpt>
      <trkpt lat="44.38867" lon="6.77912">
        <ele>1698.65234375</ele>
      </trkpt>
      <trkpt lat="44.38865" lon="6.77917">
        <ele>1699.92578125</ele>
      </trkpt>
      <trkpt lat="44.38854" lon="6.77947">
        <ele>1709.078125</ele>
      </trkpt>
      <trkpt lat="44.38852" lon="6.77953">
        <ele>1711.06640625</ele>
      </trkpt>
      <trkpt lat="44.38847" lon="6.77963">
        <ele>1713.78515625</ele>
      </trkpt>
      <trkpt lat="44.38842" lon="6.77967">
        <ele>1715.00390625</ele>
      </trkpt>
      <trkpt lat="44.38838" lon="6.77971">
        <ele>1716.2578125</ele>
      </trkpt>
      <trkpt lat="44.38821" lon="6.77981">
        <ele>1719.75</ele>
      </trkpt>
      <trkpt lat="44.38817" lon="6.77981">
        <ele>1719.93359375</ele>
      </trkpt>
      <trkpt lat="44.38813" lon="6.77981">
        <ele>1720.0703125</ele>
      </trkpt>
      <trkpt lat="44.38809" lon="6.77979">
        <ele>1719.515625</ele>
      </trkpt>
      <trkpt lat="44.38802" lon="6.77973">
        <ele>1718.0546875</ele>
      </trkpt>
      <trkpt lat="44.38798" lon="6.77971">
        <ele>1717.51171875</ele>
      </trkpt>
      <trkpt lat="44.38793" lon="6.7797">
        <ele>1717.18359375</ele>
      </trkpt>
      <trkpt lat="44.38789" lon="6.7797">
        <ele>1717.0234375</ele>
      </trkpt>
      <trkpt lat="44.38757" lon="6.77981">
        <ele>1719.5625</ele>
      </trkpt>
      <trkpt lat="44.38753" lon="6.77983">
        <ele>1720.2890625</ele>
      </trkpt>
      <trkpt lat="44.38752" lon="6.77987">
        <ele>1721.921875</ele>
      </trkpt>
      <trkpt lat="44.38753" lon="6.77995">
        <ele>1724.86328125</ele>
      </trkpt>
      <trkpt lat="44.38758" lon="6.77999">
        <ele>1726.6171875</ele>
      </trkpt>
      <trkpt lat="44.38761" lon="6.77999">
        <ele>1726.68359375</ele>
      </trkpt>
      <trkpt lat="44.38779" lon="6.77993">
        <ele>1724.67578125</ele>
      </trkpt>
      <trkpt lat="44.38787" lon="6.77994">
        <ele>1725.2578125</ele>
      </trkpt>
      <trkpt lat="44.3879" lon="6.77995">
        <ele>1725.7265625</ele>
      </trkpt>
      <trkpt lat="44.38797" lon="6.78006">
        <ele>1729.5859375</ele>
      </trkpt>
      <trkpt lat="44.38802" lon="6.7801">
        <ele>1730.77734375</ele>
      </trkpt>
      <trkpt lat="44.38805" lon="6.78013">
        <ele>1731.63671875</ele>
      </trkpt>
      <trkpt lat="44.38809" lon="6.78014">
        <ele>1731.64453125</ele>
      </trkpt>
      <trkpt lat="44.38815" lon="6.78015">
        <ele>1731.54296875</ele>
      </trkpt>
      <trkpt lat="44.3882" lon="6.78014">
        <ele>1730.72265625</ele>
      </trkpt>
      <trkpt lat="44.38828" lon="6.78014">
        <ele>1729.984375</ele>
      </trkpt>
      <trkpt lat="44.38849" lon="6.78016">
        <ele>1728.86328125</ele>
      </trkpt>
      <trkpt lat="44.38864" lon="6.78018">
        <ele>1726.97265625</ele>
      </trkpt>
      <trkpt lat="44.38877" lon="6.78023">
        <ele>1725.88671875</ele>
      </trkpt>
      <trkpt lat="44.38887" lon="6.78029">
        <ele>1725.8125</ele>
      </trkpt>
      <trkpt lat="44.38927" lon="6.78068">
        <ele>1728.51953125</ele>
      </trkpt>
      <trkpt lat="44.38927" lon="6.78075">
        <ele>1730.49609375</ele>
      </trkpt>
      <trkpt lat="44.38923" lon="6.78081">
        <ele>1732.828125</ele>
      </trkpt>
      <trkpt lat="44.38919" lon="6.78082">
        <ele>1734.03515625</ele>
      </trkpt>
      <trkpt lat="44.38914" lon="6.78079">
        <ele>1734.09375</ele>
      </trkpt>
      <trkpt lat="44.38908" lon="6.78068">
        <ele>1732.57421875</ele>
      </trkpt>
      <trkpt lat="44.38905" lon="6.78065">
        <ele>1732.3828125</ele>
      </trkpt>
      <trkpt lat="44.389" lon="6.7806">
        <ele>1732.109375</ele>
      </trkpt>
      <trkpt lat="44.38895" lon="6.78059">
        <ele>1732.92578125</ele>
      </trkpt>
      <trkpt lat="44.38841" lon="6.78062">
        <ele>1744.2265625</ele>
      </trkpt>
      <trkpt lat="44.38828" lon="6.78064">
        <ele>1746.10546875</ele>
      </trkpt>
      <trkpt lat="44.38822" lon="6.78061">
        <ele>1746.15234375</ele>
      </trkpt>
      <trkpt lat="44.38815" lon="6.78061">
        <ele>1747.03515625</ele>
      </trkpt>
      <trkpt lat="44.38804" lon="6.78065">
        <ele>1749.39453125</ele>
      </trkpt>
      <trkpt lat="44.38784" lon="6.78074">
        <ele>1754.14453125</ele>
      </trkpt>
      <trkpt lat="44.38775" lon="6.78077">
        <ele>1755.71484375</ele>
      </trkpt>
      <trkpt lat="44.38765" lon="6.78079">
        <ele>1756.546875</ele>
      </trkpt>
      <trkpt lat="44.38746" lon="6.78081">
        <ele>1758.2734375</ele>
      </trkpt>
      <trkpt lat="44.38739" lon="6.78082">
        <ele>1759.0078125</ele>
      </trkpt>
      <trkpt lat="44.38733" lon="6.78084">
        <ele>1760.1875</ele>
      </trkpt>
      <trkpt lat="44.38729" lon="6.78086">
        <ele>1761.28125</ele>
      </trkpt>
      <trkpt lat="44.3871" lon="6.781">
        <ele>1767.83203125</ele>
      </trkpt>
      <trkpt lat="44.38702" lon="6.78104">
        <ele>1770.19921875</ele>
      </trkpt>
      <trkpt lat="44.38694" lon="6.78104">
        <ele>1770.7734375</ele>
      </trkpt>
      <trkpt lat="44.38687" lon="6.78104">
        <ele>1771.3515625</ele>
      </trkpt>
      <trkpt lat="44.38674" lon="6.78101">
        <ele>1774.0078125</ele>
      </trkpt>
      <trkpt lat="44.38657" lon="6.78082">
        <ele>1771.3828125</ele>
      </trkpt>
      <trkpt lat="44.38631" lon="6.78053">
        <ele>1764.34765625</ele>
      </trkpt>
      <trkpt lat="44.38615" lon="6.78039">
        <ele>1760.99609375</ele>
      </trkpt>
      <trkpt lat="44.38607" lon="6.78038">
        <ele>1762.4375</ele>
      </trkpt>
      <trkpt lat="44.38588" lon="6.78043">
        <ele>1770.7578125</ele>
      </trkpt>
      <trkpt lat="44.3857" lon="6.78047">
        <ele>1777.66796875</ele>
      </trkpt>
      <trkpt lat="44.38558" lon="6.78048">
        <ele>1779.5859375</ele>
      </trkpt>
      <trkpt lat="44.38552" lon="6.78048">
        <ele>1780.296875</ele>
      </trkpt>
      <trkpt lat="44.38544" lon="6.78046">
        <ele>1780.015625</ele>
      </trkpt>
      <trkpt lat="44.38511" lon="6.78041">
        <ele>1781.4765625</ele>
      </trkpt>
      <trkpt lat="44.38507" lon="6.7804">
        <ele>1781.59375</ele>
      </trkpt>
      <trkpt lat="44.385" lon="6.78037">
        <ele>1781.13671875</ele>
      </trkpt>
      <trkpt lat="44.38495" lon="6.78031">
        <ele>1779.73828125</ele>
      </trkpt>
      <trkpt lat="44.38492" lon="6.78026">
        <ele>1778.74609375</ele>
      </trkpt>
      <trkpt lat="44.3848" lon="6.78002">
        <ele>1774.765625</ele>
      </trkpt>
      <trkpt lat="44.38477" lon="6.77999">
        <ele>1774.69921875</ele>
      </trkpt>
      <trkpt lat="44.38472" lon="6.77995">
        <ele>1774.68359375</ele>
      </trkpt>
      <trkpt lat="44.38468" lon="6.77993">
        <ele>1775.24609375</ele>
      </trkpt>
      <trkpt lat="44.38465" lon="6.77992">
        <ele>1775.8125</ele>
      </trkpt>
      <trkpt lat="44.38459" lon="6.77992">
        <ele>1776.5859375</ele>
      </trkpt>
      <trkpt lat="44.38454" lon="6.77993">
        <ele>1777.1328125</ele>
      </trkpt>
      <trkpt lat="44.38442" lon="6.77999">
        <ele>1779.37890625</ele>
      </trkpt>
      <trkpt lat="44.38432" lon="6.78008">
        <ele>1782.28515625</ele>
      </trkpt>
      <trkpt lat="44.38423" lon="6.78013">
        <ele>1784.38671875</ele>
      </trkpt>
      <trkpt lat="44.38399" lon="6.78025">
        <ele>1789.16015625</ele>
      </trkpt>
      <trkpt lat="44.38389" lon="6.78033">
        <ele>1791.6171875</ele>
      </trkpt>
      <trkpt lat="44.38383" lon="6.78039">
        <ele>1793.1640625</ele>
      </trkpt>
      <trkpt lat="44.38374" lon="6.7805">
        <ele>1796.2578125</ele>
      </trkpt>
      <trkpt lat="44.38369" lon="6.78054">
        <ele>1797.4921875</ele>
      </trkpt>
      <trkpt lat="44.38366" lon="6.78054">
        <ele>1797.4921875</ele>
      </trkpt>
      <trkpt lat="44.38361" lon="6.78054">
        <ele>1797.4921875</ele>
      </trkpt>
      <trkpt lat="44.38357" lon="6.78052">
        <ele>1796.875</ele>
      </trkpt>
      <trkpt lat="44.38351" lon="6.78047">
        <ele>1795.6328125</ele>
      </trkpt>
      <trkpt lat="44.38344" lon="6.78044">
        <ele>1794.64453125</ele>
      </trkpt>
      <trkpt lat="44.38339" lon="6.78043">
        <ele>1794.30859375</ele>
      </trkpt>
      <trkpt lat="44.38331" lon="6.78043">
        <ele>1794.2421875</ele>
      </trkpt>
      <trkpt lat="44.38322" lon="6.78045">
        <ele>1794.75390625</ele>
      </trkpt>
      <trkpt lat="44.38315" lon="6.78047">
        <ele>1795.25390625</ele>
      </trkpt>
      <trkpt lat="44.383" lon="6.78056">
        <ele>1797.28125</ele>
      </trkpt>
      <trkpt lat="44.38291" lon="6.7806">
        <ele>1798.21484375</ele>
      </trkpt>
      <trkpt lat="44.38287" lon="6.78061">
        <ele>1798.3984375</ele>
      </trkpt>
      <trkpt lat="44.38281" lon="6.7806">
        <ele>1798.03125</ele>
      </trkpt>
      <trkpt lat="44.38277" lon="6.78057">
        <ele>1797.1796875</ele>
      </trkpt>
      <trkpt lat="44.38273" lon="6.78052">
        <ele>1795.8359375</ele>
      </trkpt>
      <trkpt lat="44.38271" lon="6.78048">
        <ele>1795.046875</ele>
      </trkpt>
      <trkpt lat="44.38261" lon="6.78032">
        <ele>1791.24609375</ele>
      </trkpt>
      <trkpt lat="44.38257" lon="6.7803">
        <ele>1790.7890625</ele>
      </trkpt>
      <trkpt lat="44.38252" lon="6.78028">
        <ele>1790.3828125</ele>
      </trkpt>
      <trkpt lat="44.382" lon="6.78032">
        <ele>1794.90625</ele>
      </trkpt>
      <trkpt lat="44.38191" lon="6.78036">
        <ele>1796.484375</ele>
      </trkpt>
      <trkpt lat="44.38171" lon="6.78045">
        <ele>1800.4609375</ele>
      </trkpt>
      <trkpt lat="44.38162" lon="6.78047">
        <ele>1801.62890625</ele>
      </trkpt>
      <trkpt lat="44.38157" lon="6.78047">
        <ele>1802</ele>
      </trkpt>
      <trkpt lat="44.3815" lon="6.78045">
        <ele>1801.83984375</ele>
      </trkpt>
      <trkpt lat="44.38144" lon="6.78043">
        <ele>1801.6484375</ele>
      </trkpt>
      <trkpt lat="44.38141" lon="6.78041">
        <ele>1801.2265625</ele>
      </trkpt>
      <trkpt lat="44.38135" lon="6.78039">
        <ele>1800.921875</ele>
      </trkpt>
      <trkpt lat="44.3812" lon="6.78037">
        <ele>1800.81640625</ele>
      </trkpt>
      <trkpt lat="44.38115" lon="6.78039">
        <ele>1801.58984375</ele>
      </trkpt>
      <trkpt lat="44.38111" lon="6.7804">
        <ele>1802.01171875</ele>
      </trkpt>
      <trkpt lat="44.381" lon="6.78048">
        <ele>1804.9453125</ele>
      </trkpt>
      <trkpt lat="44.38091" lon="6.78053">
        <ele>1806.515625</ele>
      </trkpt>
      <trkpt lat="44.38084" lon="6.78055">
        <ele>1807.390625</ele>
      </trkpt>
      <trkpt lat="44.38067" lon="6.78056">
        <ele>1807.8203125</ele>
      </trkpt>
      <trkpt lat="44.38062" lon="6.78061">
        <ele>1809.42578125</ele>
      </trkpt>
      <trkpt lat="44.38061" lon="6.78066">
        <ele>1810.76953125</ele>
      </trkpt>
      <trkpt lat="44.38061" lon="6.7807">
        <ele>1812.14453125</ele>
      </trkpt>
      <trkpt lat="44.38064" lon="6.78075">
        <ele>1813.93359375</ele>
      </trkpt>
      <trkpt lat="44.38068" lon="6.78079">
        <ele>1815.109375</ele>
      </trkpt>
      <trkpt lat="44.38071" lon="6.78079">
        <ele>1815.21484375</ele>
      </trkpt>
      <trkpt lat="44.38079" lon="6.78077">
        <ele>1814.796875</ele>
      </trkpt>
      <trkpt lat="44.38096" lon="6.78077">
        <ele>1814.23046875</ele>
      </trkpt>
      <trkpt lat="44.38105" lon="6.78082">
        <ele>1815.26171875</ele>
      </trkpt>
      <trkpt lat="44.38115" lon="6.78088">
        <ele>1816.9765625</ele>
      </trkpt>
      <trkpt lat="44.38124" lon="6.78096">
        <ele>1819.24609375</ele>
      </trkpt>
      <trkpt lat="44.38144" lon="6.78121">
        <ele>1825.75</ele>
      </trkpt>
      <trkpt lat="44.38148" lon="6.78125">
        <ele>1826.18359375</ele>
      </trkpt>
      <trkpt lat="44.38151" lon="6.78128">
        <ele>1826.75</ele>
      </trkpt>
      <trkpt lat="44.38157" lon="6.78129">
        <ele>1826.29296875</ele>
      </trkpt>
      <trkpt lat="44.38177" lon="6.78129">
        <ele>1823.25390625</ele>
      </trkpt>
      <trkpt lat="44.38182" lon="6.78132">
        <ele>1823.55078125</ele>
      </trkpt>
      <trkpt lat="44.38185" lon="6.78139">
        <ele>1824.91796875</ele>
      </trkpt>
      <trkpt lat="44.38185" lon="6.78143">
        <ele>1826.13671875</ele>
      </trkpt>
      <trkpt lat="44.38183" lon="6.7815">
        <ele>1828.40625</ele>
      </trkpt>
      <trkpt lat="44.38179" lon="6.78153">
        <ele>1829.52734375</ele>
      </trkpt>
      <trkpt lat="44.3817" lon="6.78156">
        <ele>1832.14453125</ele>
      </trkpt>
      <trkpt lat="44.38159" lon="6.78158">
        <ele>1834.74609375</ele>
      </trkpt>
      <trkpt lat="44.38153" lon="6.78158">
        <ele>1835.953125</ele>
      </trkpt>
      <trkpt lat="44.38144" lon="6.78157">
        <ele>1837.21875</ele>
      </trkpt>
      <trkpt lat="44.38139" lon="6.78156">
        <ele>1837.86328125</ele>
      </trkpt>
      <trkpt lat="44.38123" lon="6.78151">
        <ele>1838.50390625</ele>
      </trkpt>
      <trkpt lat="44.38112" lon="6.7815">
        <ele>1838.7421875</ele>
      </trkpt>
      <trkpt lat="44.38097" lon="6.7815">
        <ele>1839.58984375</ele>
      </trkpt>
      <trkpt lat="44.38082" lon="6.78154">
        <ele>1841.59375</ele>
      </trkpt>
      <trkpt lat="44.38071" lon="6.78157">
        <ele>1843.16796875</ele>
      </trkpt>
      <trkpt lat="44.38061" lon="6.78161">
        <ele>1844.5390625</ele>
      </trkpt>
      <trkpt lat="44.38042" lon="6.78171">
        <ele>1847.671875</ele>
      </trkpt>
      <trkpt lat="44.38016" lon="6.78184">
        <ele>1851.9453125</ele>
      </trkpt>
      <trkpt lat="44.3797" lon="6.78197">
        <ele>1859.02734375</ele>
      </trkpt>
      <trkpt lat="44.37964" lon="6.78198">
        <ele>1859.828125</ele>
      </trkpt>
      <trkpt lat="44.37957" lon="6.78198">
        <ele>1860.55859375</ele>
      </trkpt>
      <trkpt lat="44.37926" lon="6.78193">
        <ele>1862.51953125</ele>
      </trkpt>
      <trkpt lat="44.37901" lon="6.78191">
        <ele>1864.46875</ele>
      </trkpt>
      <trkpt lat="44.37881" lon="6.7819">
        <ele>1866.16796875</ele>
      </trkpt>
      <trkpt lat="44.37852" lon="6.78191">
        <ele>1869.80078125</ele>
      </trkpt>
      <trkpt lat="44.37845" lon="6.78189">
        <ele>1869.6875</ele>
      </trkpt>
      <trkpt lat="44.37837" lon="6.78186">
        <ele>1869.140625</ele>
      </trkpt>
      <trkpt lat="44.37827" lon="6.78183">
        <ele>1868.9296875</ele>
      </trkpt>
      <trkpt lat="44.3781" lon="6.78178">
        <ele>1869.34375</ele>
      </trkpt>
      <trkpt lat="44.37801" lon="6.78174">
        <ele>1868.90625</ele>
      </trkpt>
      <trkpt lat="44.37795" lon="6.7817">
        <ele>1868.04296875</ele>
      </trkpt>
      <trkpt lat="44.37789" lon="6.78163">
        <ele>1867.1484375</ele>
      </trkpt>
      <trkpt lat="44.37767" lon="6.78131">
        <ele>1860.58984375</ele>
      </trkpt>
      <trkpt lat="44.37762" lon="6.78125">
        <ele>1859.62890625</ele>
      </trkpt>
      <trkpt lat="44.37757" lon="6.7812">
        <ele>1859.44921875</ele>
      </trkpt>
      <trkpt lat="44.3775" lon="6.78118">
        <ele>1860.3359375</ele>
      </trkpt>
      <trkpt lat="44.37746" lon="6.78117">
        <ele>1861.05859375</ele>
      </trkpt>
      <trkpt lat="44.37715" lon="6.78114">
        <ele>1866.3359375</ele>
      </trkpt>
      <trkpt lat="44.37706" lon="6.78114">
        <ele>1868.03125</ele>
      </trkpt>
      <trkpt lat="44.37697" lon="6.78116">
        <ele>1870.81640625</ele>
      </trkpt>
      <trkpt lat="44.37686" lon="6.7812">
        <ele>1874.7265625</ele>
      </trkpt>
      <trkpt lat="44.37677" lon="6.78126">
        <ele>1876.53515625</ele>
      </trkpt>
      <trkpt lat="44.37669" lon="6.78133">
        <ele>1878.89453125</ele>
      </trkpt>
      <trkpt lat="44.37655" lon="6.78148">
        <ele>1883.4453125</ele>
      </trkpt>
      <trkpt lat="44.37639" lon="6.78165">
        <ele>1888.19921875</ele>
      </trkpt>
      <trkpt lat="44.37613" lon="6.78203">
        <ele>1896.39453125</ele>
      </trkpt>
      <trkpt lat="44.37609" lon="6.78206">
        <ele>1896.328125</ele>
      </trkpt>
      <trkpt lat="44.37599" lon="6.78213">
        <ele>1895.953125</ele>
      </trkpt>
      <trkpt lat="44.3759" lon="6.78216">
        <ele>1894.85546875</ele>
      </trkpt>
      <trkpt lat="44.37565" lon="6.78222">
        <ele>1892.21484375</ele>
      </trkpt>
      <trkpt lat="44.37539" lon="6.7823">
        <ele>1892.91015625</ele>
      </trkpt>
      <trkpt lat="44.37532" lon="6.78233">
        <ele>1893.59375</ele>
      </trkpt>
      <trkpt lat="44.37524" lon="6.78238">
        <ele>1894.9296875</ele>
      </trkpt>
      <trkpt lat="44.37515" lon="6.78247">
        <ele>1897.921875</ele>
      </trkpt>
      <trkpt lat="44.37511" lon="6.7825">
        <ele>1899.4609375</ele>
      </trkpt>
      <trkpt lat="44.37505" lon="6.78254">
        <ele>1901.79296875</ele>
      </trkpt>
      <trkpt lat="44.37499" lon="6.78256">
        <ele>1902.8359375</ele>
      </trkpt>
      <trkpt lat="44.37493" lon="6.78256">
        <ele>1903.44921875</ele>
      </trkpt>
      <trkpt lat="44.37476" lon="6.78253">
        <ele>1903.86328125</ele>
      </trkpt>
      <trkpt lat="44.37461" lon="6.78253">
        <ele>1905.34765625</ele>
      </trkpt>
      <trkpt lat="44.37381" lon="6.78256">
        <ele>1917.13671875</ele>
      </trkpt>
      <trkpt lat="44.37371" lon="6.78256">
        <ele>1918.171875</ele>
      </trkpt>
      <trkpt lat="44.3736" lon="6.78253">
        <ele>1918.16015625</ele>
      </trkpt>
      <trkpt lat="44.37349" lon="6.78249">
        <ele>1916.9921875</ele>
      </trkpt>
      <trkpt lat="44.37339" lon="6.78243">
        <ele>1914.7734375</ele>
      </trkpt>
      <trkpt lat="44.3733" lon="6.78235">
        <ele>1912.1484375</ele>
      </trkpt>
      <trkpt lat="44.373" lon="6.78199">
        <ele>1898.7578125</ele>
      </trkpt>
      <trkpt lat="44.37296" lon="6.78195">
        <ele>1898.26171875</ele>
      </trkpt>
      <trkpt lat="44.37291" lon="6.78192">
        <ele>1898.328125</ele>
      </trkpt>
      <trkpt lat="44.37286" lon="6.7819">
        <ele>1898.71484375</ele>
      </trkpt>
      <trkpt lat="44.37279" lon="6.78189">
        <ele>1899.640625</ele>
      </trkpt>
      <trkpt lat="44.37258" lon="6.78192">
        <ele>1904.85546875</ele>
      </trkpt>
      <trkpt lat="44.37251" lon="6.78193">
        <ele>1906.46484375</ele>
      </trkpt>
      <trkpt lat="44.37244" lon="6.78197">
        <ele>1908.98046875</ele>
      </trkpt>
      <trkpt lat="44.37236" lon="6.78201">
        <ele>1911.8671875</ele>
      </trkpt>
      <trkpt lat="44.3723" lon="6.78206">
        <ele>1915.0234375</ele>
      </trkpt>
      <trkpt lat="44.3722" lon="6.78212">
        <ele>1918.453125</ele>
      </trkpt>
      <trkpt lat="44.37211" lon="6.78215">
        <ele>1920.85546875</ele>
      </trkpt>
      <trkpt lat="44.37186" lon="6.78219">
        <ele>1925.109375</ele>
      </trkpt>
      <trkpt lat="44.37173" lon="6.7822">
        <ele>1925.35546875</ele>
      </trkpt>
      <trkpt lat="44.37165" lon="6.78222">
        <ele>1926.078125</ele>
      </trkpt>
      <trkpt lat="44.37157" lon="6.78224">
        <ele>1926.7421875</ele>
      </trkpt>
      <trkpt lat="44.37146" lon="6.78231">
        <ele>1929.00390625</ele>
      </trkpt>
      <trkpt lat="44.37117" lon="6.78251">
        <ele>1934.66015625</ele>
      </trkpt>
      <trkpt lat="44.3709" lon="6.7827">
        <ele>1937.20703125</ele>
      </trkpt>
      <trkpt lat="44.37082" lon="6.7828">
        <ele>1939.35546875</ele>
      </trkpt>
      <trkpt lat="44.3707" lon="6.78296">
        <ele>1942.39453125</ele>
      </trkpt>
      <trkpt lat="44.37054" lon="6.78321">
        <ele>1946.00390625</ele>
      </trkpt>
      <trkpt lat="44.37047" lon="6.78334">
        <ele>1947.9765625</ele>
      </trkpt>
      <trkpt lat="44.3704" lon="6.78348">
        <ele>1950.00390625</ele>
      </trkpt>
      <trkpt lat="44.37024" lon="6.78384">
        <ele>1955.625</ele>
      </trkpt>
      <trkpt lat="44.37016" lon="6.78398">
        <ele>1957.44140625</ele>
      </trkpt>
      <trkpt lat="44.37011" lon="6.78407">
        <ele>1958.33984375</ele>
      </trkpt>
      <trkpt lat="44.37005" lon="6.78414">
        <ele>1958.6875</ele>
      </trkpt>
      <trkpt lat="44.36991" lon="6.78428">
        <ele>1958.7109375</ele>
      </trkpt>
      <trkpt lat="44.36937" lon="6.78481">
        <ele>1960.6171875</ele>
      </trkpt>
      <trkpt lat="44.36933" lon="6.78486">
        <ele>1961.38671875</ele>
      </trkpt>
      <trkpt lat="44.36931" lon="6.78493">
        <ele>1962.7421875</ele>
      </trkpt>
      <trkpt lat="44.36928" lon="6.785">
        <ele>1964.36328125</ele>
      </trkpt>
      <trkpt lat="44.36926" lon="6.7851">
        <ele>1966.53125</ele>
      </trkpt>
      <trkpt lat="44.36924" lon="6.78517">
        <ele>1968.12890625</ele>
      </trkpt>
      <trkpt lat="44.3692" lon="6.78524">
        <ele>1969.1015625</ele>
      </trkpt>
      <trkpt lat="44.36913" lon="6.7853">
        <ele>1969.70703125</ele>
      </trkpt>
      <trkpt lat="44.36908" lon="6.78533">
        <ele>1969.95703125</ele>
      </trkpt>
      <trkpt lat="44.36883" lon="6.78539">
        <ele>1969.9375</ele>
      </trkpt>
      <trkpt lat="44.36877" lon="6.78542">
        <ele>1970.49609375</ele>
      </trkpt>
      <trkpt lat="44.36869" lon="6.78546">
        <ele>1971.2578125</ele>
      </trkpt>
      <trkpt lat="44.36862" lon="6.78552">
        <ele>1972.27734375</ele>
      </trkpt>
      <trkpt lat="44.36835" lon="6.78577">
        <ele>1977.50390625</ele>
      </trkpt>
      <trkpt lat="44.36829" lon="6.78585">
        <ele>1978.9921875</ele>
      </trkpt>
      <trkpt lat="44.36823" lon="6.78589">
        <ele>1979.73828125</ele>
      </trkpt>
      <trkpt lat="44.36817" lon="6.78594">
        <ele>1980.43359375</ele>
      </trkpt>
      <trkpt lat="44.36808" lon="6.78597">
        <ele>1980.55078125</ele>
      </trkpt>
      <trkpt lat="44.36795" lon="6.786">
        <ele>1980.26171875</ele>
      </trkpt>
      <trkpt lat="44.36776" lon="6.78609">
        <ele>1981.71875</ele>
      </trkpt>
      <trkpt lat="44.3676" lon="6.78618">
        <ele>1983.51953125</ele>
      </trkpt>
      <trkpt lat="44.36742" lon="6.78631">
        <ele>1985.875</ele>
      </trkpt>
      <trkpt lat="44.3673" lon="6.78639">
        <ele>1987.01953125</ele>
      </trkpt>
      <trkpt lat="44.36717" lon="6.78643">
        <ele>1987.05078125</ele>
      </trkpt>
      <trkpt lat="44.36705" lon="6.78645">
        <ele>1986.578125</ele>
      </trkpt>
      <trkpt lat="44.36683" lon="6.78648">
        <ele>1985.44140625</ele>
      </trkpt>
      <trkpt lat="44.36676" lon="6.7865">
        <ele>1985.51953125</ele>
      </trkpt>
      <trkpt lat="44.36664" lon="6.78655">
        <ele>1985.70703125</ele>
      </trkpt>
      <trkpt lat="44.36655" lon="6.78661">
        <ele>1986.54296875</ele>
      </trkpt>
      <trkpt lat="44.36652" lon="6.78665">
        <ele>1987.3359375</ele>
      </trkpt>
      <trkpt lat="44.36649" lon="6.78672">
        <ele>1988.734375</ele>
      </trkpt>
      <trkpt lat="44.36651" lon="6.78677">
        <ele>1990.16015625</ele>
      </trkpt>
      <trkpt lat="44.36653" lon="6.78681">
        <ele>1991.4296875</ele>
      </trkpt>
      <trkpt lat="44.36656" lon="6.78684">
        <ele>1992.28515625</ele>
      </trkpt>
      <trkpt lat="44.36659" lon="6.78684">
        <ele>1992.6015625</ele>
      </trkpt>
      <trkpt lat="44.3667" lon="6.78678">
        <ele>1992.26953125</ele>
      </trkpt>
      <trkpt lat="44.36676" lon="6.78675">
        <ele>1992.03515625</ele>
      </trkpt>
      <trkpt lat="44.36683" lon="6.78674">
        <ele>1992.34765625</ele>
      </trkpt>
      <trkpt lat="44.36687" lon="6.78673">
        <ele>1992.46875</ele>
      </trkpt>
      <trkpt lat="44.36704" lon="6.78678">
        <ele>1995.66796875</ele>
      </trkpt>
      <trkpt lat="44.36713" lon="6.78683">
        <ele>1997.73828125</ele>
      </trkpt>
      <trkpt lat="44.36722" lon="6.78689">
        <ele>2000.55078125</ele>
      </trkpt>
      <trkpt lat="44.36728" lon="6.78691">
        <ele>2001.72265625</ele>
      </trkpt>
      <trkpt lat="44.36732" lon="6.78691">
        <ele>2002.1796875</ele>
      </trkpt>
      <trkpt lat="44.36736" lon="6.78691">
        <ele>2002.6328125</ele>
      </trkpt>
      <trkpt lat="44.36741" lon="6.7869">
        <ele>2002.77734375</ele>
      </trkpt>
      <trkpt lat="44.36759" lon="6.78679">
        <ele>2001.55078125</ele>
      </trkpt>
      <trkpt lat="44.36765" lon="6.78677">
        <ele>2001.57421875</ele>
      </trkpt>
      <trkpt lat="44.36772" lon="6.78677">
        <ele>2002.2265625</ele>
      </trkpt>
      <trkpt lat="44.36811" lon="6.7868">
        <ele>2007.5234375</ele>
      </trkpt>
      <trkpt lat="44.36826" lon="6.78681">
        <ele>2009.671875</ele>
      </trkpt>
      <trkpt lat="44.36852" lon="6.78681">
        <ele>2012.78125</ele>
      </trkpt>
      <trkpt lat="44.36874" lon="6.7868">
        <ele>2014.87109375</ele>
      </trkpt>
      <trkpt lat="44.36877" lon="6.78683">
        <ele>2015.91796875</ele>
      </trkpt>
      <trkpt lat="44.3688" lon="6.78687">
        <ele>2017.6328125</ele>
      </trkpt>
      <trkpt lat="44.3688" lon="6.78693">
        <ele>2019.66015625</ele>
      </trkpt>
      <trkpt lat="44.36878" lon="6.78698">
        <ele>2020.78125</ele>
      </trkpt>
      <trkpt lat="44.36874" lon="6.787">
        <ele>2021</ele>
      </trkpt>
      <trkpt lat="44.36863" lon="6.78702">
        <ele>2020.53515625</ele>
      </trkpt>
      <trkpt lat="44.36857" lon="6.78702">
        <ele>2019.84765625</ele>
      </trkpt>
      <trkpt lat="44.36849" lon="6.78704">
        <ele>2019.6796875</ele>
      </trkpt>
      <trkpt lat="44.36803" lon="6.78723">
        <ele>2020.125</ele>
      </trkpt>
      <trkpt lat="44.36797" lon="6.78727">
        <ele>2020.4921875</ele>
      </trkpt>
      <trkpt lat="44.36791" lon="6.7873">
        <ele>2020.765625</ele>
      </trkpt>
      <trkpt lat="44.36773" lon="6.78747">
        <ele>2024.0390625</ele>
      </trkpt>
      <trkpt lat="44.36752" lon="6.78757">
        <ele>2024.5625</ele>
      </trkpt>
      <trkpt lat="44.36746" lon="6.78759">
        <ele>2024.4453125</ele>
      </trkpt>
      <trkpt lat="44.36742" lon="6.78762">
        <ele>2024.9375</ele>
      </trkpt>
      <trkpt lat="44.36735" lon="6.78767">
        <ele>2025.73046875</ele>
      </trkpt>
      <trkpt lat="44.36712" lon="6.78796">
        <ele>2031.3359375</ele>
      </trkpt>
      <trkpt lat="44.36701" lon="6.78812">
        <ele>2034.67578125</ele>
      </trkpt>
      <trkpt lat="44.36693" lon="6.78826">
        <ele>2037.95703125</ele>
      </trkpt>
      <trkpt lat="44.36689" lon="6.78831">
        <ele>2038.671875</ele>
      </trkpt>
      <trkpt lat="44.36684" lon="6.78836">
        <ele>2039.71875</ele>
      </trkpt>
      <trkpt lat="44.36677" lon="6.7884">
        <ele>2040.59765625</ele>
      </trkpt>
      <trkpt lat="44.36671" lon="6.78843">
        <ele>2041.140625</ele>
      </trkpt>
      <trkpt lat="44.36659" lon="6.78846">
        <ele>2040.92578125</ele>
      </trkpt>
      <trkpt lat="44.36652" lon="6.78849">
        <ele>2041.421875</ele>
      </trkpt>
      <trkpt lat="44.36646" lon="6.78853">
        <ele>2042.453125</ele>
      </trkpt>
      <trkpt lat="44.3664" lon="6.78857">
        <ele>2043.421875</ele>
      </trkpt>
      <trkpt lat="44.36625" lon="6.78867">
        <ele>2046.58203125</ele>
      </trkpt>
      <trkpt lat="44.36616" lon="6.78869">
        <ele>2048.140625</ele>
      </trkpt>
      <trkpt lat="44.36607" lon="6.7887">
        <ele>2049.37890625</ele>
      </trkpt>
      <trkpt lat="44.36598" lon="6.78869">
        <ele>2049.60546875</ele>
      </trkpt>
      <trkpt lat="44.36587" lon="6.78865">
        <ele>2048.46484375</ele>
      </trkpt>
      <trkpt lat="44.36579" lon="6.78863">
        <ele>2048.18359375</ele>
      </trkpt>
      <trkpt lat="44.36571" lon="6.78862">
        <ele>2048.60546875</ele>
      </trkpt>
      <trkpt lat="44.36557" lon="6.78862">
        <ele>2050.85546875</ele>
      </trkpt>
      <trkpt lat="44.36543" lon="6.78861">
        <ele>2052.66796875</ele>
      </trkpt>
      <trkpt lat="44.36531" lon="6.78857">
        <ele>2053.25</ele>
      </trkpt>
      <trkpt lat="44.3652" lon="6.78853">
        <ele>2053.359375</ele>
      </trkpt>
      <trkpt lat="44.3651" lon="6.78848">
        <ele>2053.8515625</ele>
      </trkpt>
      <trkpt lat="44.36502" lon="6.78841">
        <ele>2053.34765625</ele>
      </trkpt>
      <trkpt lat="44.36498" lon="6.78835">
        <ele>2051.91796875</ele>
      </trkpt>
      <trkpt lat="44.3649" lon="6.78823">
        <ele>2049.50390625</ele>
      </trkpt>
      <trkpt lat="44.36483" lon="6.78815">
        <ele>2047.80078125</ele>
      </trkpt>
      <trkpt lat="44.36477" lon="6.78806">
        <ele>2046.125</ele>
      </trkpt>
      <trkpt lat="44.36468" lon="6.788">
        <ele>2045.93359375</ele>
      </trkpt>
      <trkpt lat="44.3646" lon="6.78796">
        <ele>2047.0234375</ele>
      </trkpt>
      <trkpt lat="44.36453" lon="6.78795">
        <ele>2048.375</ele>
      </trkpt>
      <trkpt lat="44.36448" lon="6.78796">
        <ele>2050.35546875</ele>
      </trkpt>
      <trkpt lat="44.36407" lon="6.7881">
        <ele>2068.8046875</ele>
      </trkpt>
      <trkpt lat="44.36401" lon="6.7881">
        <ele>2069.28515625</ele>
      </trkpt>
      <trkpt lat="44.36383" lon="6.78806">
        <ele>2068.41796875</ele>
      </trkpt>
      <trkpt lat="44.36373" lon="6.78806">
        <ele>2069.2109375</ele>
      </trkpt>
      <trkpt lat="44.36343" lon="6.78817">
        <ele>2075.171875</ele>
      </trkpt>
      <trkpt lat="44.36338" lon="6.78818">
        <ele>2075.22265625</ele>
      </trkpt>
      <trkpt lat="44.36334" lon="6.78817">
        <ele>2074.15234375</ele>
      </trkpt>
      <trkpt lat="44.36329" lon="6.78816">
        <ele>2072.97265625</ele>
      </trkpt>
      <trkpt lat="44.36285" lon="6.7879">
        <ele>2060.4765625</ele>
      </trkpt>
      <trkpt lat="44.36273" lon="6.78782">
        <ele>2058.5703125</ele>
      </trkpt>
      <trkpt lat="44.36203" lon="6.7876">
        <ele>2058.44140625</ele>
      </trkpt>
      <trkpt lat="44.36192" lon="6.78754">
        <ele>2058.50390625</ele>
      </trkpt>
      <trkpt lat="44.36182" lon="6.78748">
        <ele>2059.37890625</ele>
      </trkpt>
      <trkpt lat="44.36171" lon="6.78738">
        <ele>2060.50390625</ele>
      </trkpt>
      <trkpt lat="44.36139" lon="6.78705">
        <ele>2062.55859375</ele>
      </trkpt>
      <trkpt lat="44.36131" lon="6.78693">
        <ele>2062.80078125</ele>
      </trkpt>
      <trkpt lat="44.36125" lon="6.78683">
        <ele>2063.9375</ele>
      </trkpt>
      <trkpt lat="44.36119" lon="6.78668">
        <ele>2064.60546875</ele>
      </trkpt>
      <trkpt lat="44.36117" lon="6.78655">
        <ele>2064.57421875</ele>
      </trkpt>
      <trkpt lat="44.36113" lon="6.78626">
        <ele>2066.1484375</ele>
      </trkpt>
      <trkpt lat="44.36109" lon="6.78616">
        <ele>2067.3359375</ele>
      </trkpt>
      <trkpt lat="44.36104" lon="6.7861">
        <ele>2068.1171875</ele>
      </trkpt>
      <trkpt lat="44.36088" lon="6.78594">
        <ele>2069.640625</ele>
      </trkpt>
      <trkpt lat="44.36063" lon="6.78568">
        <ele>2072.45703125</ele>
      </trkpt>
      <trkpt lat="44.36056" lon="6.78563">
        <ele>2073.1875</ele>
      </trkpt>
      <trkpt lat="44.36049" lon="6.78559">
        <ele>2073.88671875</ele>
      </trkpt>
      <trkpt lat="44.36042" lon="6.78557">
        <ele>2074.37109375</ele>
      </trkpt>
      <trkpt lat="44.36031" lon="6.78554">
        <ele>2075.06640625</ele>
      </trkpt>
      <trkpt lat="44.36028" lon="6.78551">
        <ele>2075.20703125</ele>
      </trkpt>
      <trkpt lat="44.36021" lon="6.78508">
        <ele>2075.9296875</ele>
      </trkpt>
      <trkpt lat="44.36015" lon="6.78482">
        <ele>2076.73046875</ele>
      </trkpt>
      <trkpt lat="44.36013" lon="6.78471">
        <ele>2077.31640625</ele>
      </trkpt>
      <trkpt lat="44.36009" lon="6.7846">
        <ele>2078.23046875</ele>
      </trkpt>
      <trkpt lat="44.36005" lon="6.78451">
        <ele>2078.9296875</ele>
      </trkpt>
      <trkpt lat="44.35998" lon="6.78439">
        <ele>2079.55859375</ele>
      </trkpt>
      <trkpt lat="44.35978" lon="6.78412">
        <ele>2080.23828125</ele>
      </trkpt>
      <trkpt lat="44.3594" lon="6.78364">
        <ele>2083.234375</ele>
      </trkpt>
      <trkpt lat="44.35899" lon="6.78315">
        <ele>2089.36328125</ele>
      </trkpt>
      <trkpt lat="44.35894" lon="6.78308">
        <ele>2090.40234375</ele>
      </trkpt>
      <trkpt lat="44.35887" lon="6.78302">
        <ele>2091.6953125</ele>
      </trkpt>
      <trkpt lat="44.3588" lon="6.78298">
        <ele>2092.390625</ele>
      </trkpt>
      <trkpt lat="44.35876" lon="6.78297">
        <ele>2092.66015625</ele>
      </trkpt>
      <trkpt lat="44.35872" lon="6.78297">
        <ele>2092.73828125</ele>
      </trkpt>
      <trkpt lat="44.35867" lon="6.78298">
        <ele>2092.625</ele>
      </trkpt>
      <trkpt lat="44.35864" lon="6.783">
        <ele>2092.48828125</ele>
      </trkpt>
      <trkpt lat="44.35858" lon="6.78305">
        <ele>2091.63671875</ele>
      </trkpt>
      <trkpt lat="44.35837" lon="6.78338">
        <ele>2088.30078125</ele>
      </trkpt>
      <trkpt lat="44.35832" lon="6.78345">
        <ele>2087.875</ele>
      </trkpt>
      <trkpt lat="44.35828" lon="6.78349">
        <ele>2087.65234375</ele>
      </trkpt>
      <trkpt lat="44.35821" lon="6.78353">
        <ele>2087.5859375</ele>
      </trkpt>
      <trkpt lat="44.35817" lon="6.78356">
        <ele>2087.51171875</ele>
      </trkpt>
      <trkpt lat="44.35808" lon="6.78361">
        <ele>2087.62890625</ele>
      </trkpt>
      <trkpt lat="44.35802" lon="6.78363">
        <ele>2087.84765625</ele>
      </trkpt>
      <trkpt lat="44.35795" lon="6.78364">
        <ele>2088.2265625</ele>
      </trkpt>
      <trkpt lat="44.35788" lon="6.78363">
        <ele>2089.0078125</ele>
      </trkpt>
      <trkpt lat="44.35765" lon="6.78354">
        <ele>2091.765625</ele>
      </trkpt>
      <trkpt lat="44.35741" lon="6.78349">
        <ele>2094.19921875</ele>
      </trkpt>
      <trkpt lat="44.35705" lon="6.78341">
        <ele>2097.2890625</ele>
      </trkpt>
      <trkpt lat="44.35697" lon="6.7834">
        <ele>2097.984375</ele>
      </trkpt>
      <trkpt lat="44.35687" lon="6.78337">
        <ele>2098.9140625</ele>
      </trkpt>
      <trkpt lat="44.3568" lon="6.78333">
        <ele>2099.640625</ele>
      </trkpt>
      <trkpt lat="44.35672" lon="6.78327">
        <ele>2100.43359375</ele>
      </trkpt>
      <trkpt lat="44.35641" lon="6.78298">
        <ele>2104.546875</ele>
      </trkpt>
      <trkpt lat="44.35633" lon="6.78292">
        <ele>2105.66796875</ele>
      </trkpt>
      <trkpt lat="44.35625" lon="6.78285">
        <ele>2106.91015625</ele>
      </trkpt>
      <trkpt lat="44.35614" lon="6.78276">
        <ele>2108.28515625</ele>
      </trkpt>
      <trkpt lat="44.35604" lon="6.78271">
        <ele>2109.23828125</ele>
      </trkpt>
      <trkpt lat="44.35598" lon="6.78267">
        <ele>2109.8203125</ele>
      </trkpt>
      <trkpt lat="44.35583" lon="6.78262">
        <ele>2110.92578125</ele>
      </trkpt>
      <trkpt lat="44.35568" lon="6.78259">
        <ele>2111.91015625</ele>
      </trkpt>
      <trkpt lat="44.35557" lon="6.78257">
        <ele>2112.6796875</ele>
      </trkpt>
      <trkpt lat="44.35545" lon="6.78257">
        <ele>2113.3203125</ele>
      </trkpt>
      <trkpt lat="44.35527" lon="6.7826">
        <ele>2114.015625</ele>
      </trkpt>
      <trkpt lat="44.3552" lon="6.78261">
        <ele>2114.32421875</ele>
      </trkpt>
      <trkpt lat="44.35511" lon="6.78264">
        <ele>2115.2109375</ele>
      </trkpt>
      <trkpt lat="44.35504" lon="6.78268">
        <ele>2115.80859375</ele>
      </trkpt>
      <trkpt lat="44.35495" lon="6.78274">
        <ele>2116.39453125</ele>
      </trkpt>
      <trkpt lat="44.35488" lon="6.7828">
        <ele>2116.66015625</ele>
      </trkpt>
      <trkpt lat="44.35478" lon="6.78292">
        <ele>2116.50390625</ele>
      </trkpt>
      <trkpt lat="44.35469" lon="6.78302">
        <ele>2116.33984375</ele>
      </trkpt>
      <trkpt lat="44.35453" lon="6.78326">
        <ele>2116.83203125</ele>
      </trkpt>
      <trkpt lat="44.35448" lon="6.78331">
        <ele>2117.34375</ele>
      </trkpt>
      <trkpt lat="44.35444" lon="6.78334">
        <ele>2117.7421875</ele>
      </trkpt>
      <trkpt lat="44.35438" lon="6.78335">
        <ele>2118.37109375</ele>
      </trkpt>
      <trkpt lat="44.35433" lon="6.78335">
        <ele>2119.0546875</ele>
      </trkpt>
      <trkpt lat="44.35418" lon="6.78334">
        <ele>2121.03515625</ele>
      </trkpt>
      <trkpt lat="44.35411" lon="6.78334">
        <ele>2121.859375</ele>
      </trkpt>
      <trkpt lat="44.35404" lon="6.78337">
        <ele>2122.578125</ele>
      </trkpt>
      <trkpt lat="44.35398" lon="6.78341">
        <ele>2122.9453125</ele>
      </trkpt>
      <trkpt lat="44.35383" lon="6.78348">
        <ele>2124.375</ele>
      </trkpt>
      <trkpt lat="44.35362" lon="6.78356">
        <ele>2126.46484375</ele>
      </trkpt>
      <trkpt lat="44.35353" lon="6.78359">
        <ele>2127.390625</ele>
      </trkpt>
      <trkpt lat="44.35344" lon="6.78361">
        <ele>2128.7578125</ele>
      </trkpt>
      <trkpt lat="44.35336" lon="6.78361">
        <ele>2129.94921875</ele>
      </trkpt>
      <trkpt lat="44.35327" lon="6.7836">
        <ele>2131.52734375</ele>
      </trkpt>
      <trkpt lat="44.35314" lon="6.78356">
        <ele>2133.6640625</ele>
      </trkpt>
      <trkpt lat="44.35306" lon="6.78353">
        <ele>2134.90625</ele>
      </trkpt>
      <trkpt lat="44.35299" lon="6.7835">
        <ele>2136.1015625</ele>
      </trkpt>
      <trkpt lat="44.35261" lon="6.78321">
        <ele>2141.66796875</ele>
      </trkpt>
      <trkpt lat="44.35205" lon="6.78275">
        <ele>2149.24609375</ele>
      </trkpt>
      <trkpt lat="44.35198" lon="6.78271">
        <ele>2150.26953125</ele>
      </trkpt>
      <trkpt lat="44.35194" lon="6.78268">
        <ele>2150.8515625</ele>
      </trkpt>
      <trkpt lat="44.35188" lon="6.78267">
        <ele>2151.546875</ele>
      </trkpt>
      <trkpt lat="44.35183" lon="6.78267">
        <ele>2152.23828125</ele>
      </trkpt>
      <trkpt lat="44.35179" lon="6.78268">
        <ele>2152.78125</ele>
      </trkpt>
      <trkpt lat="44.35173" lon="6.78271">
        <ele>2153.45703125</ele>
      </trkpt>
      <trkpt lat="44.35169" lon="6.78273">
        <ele>2153.99609375</ele>
      </trkpt>
      <trkpt lat="44.35165" lon="6.78277">
        <ele>2154.515625</ele>
      </trkpt>
      <trkpt lat="44.3516" lon="6.78281">
        <ele>2155.05078125</ele>
      </trkpt>
      <trkpt lat="44.35157" lon="6.78289">
        <ele>2155.421875</ele>
      </trkpt>
      <trkpt lat="44.35155" lon="6.783">
        <ele>2155.6328125</ele>
      </trkpt>
      <trkpt lat="44.35153" lon="6.78319">
        <ele>2156.2265625</ele>
      </trkpt>
      <trkpt lat="44.35153" lon="6.78331">
        <ele>2156.65234375</ele>
      </trkpt>
      <trkpt lat="44.35153" lon="6.7835">
        <ele>2157.34765625</ele>
      </trkpt>
      <trkpt lat="44.35154" lon="6.78376">
        <ele>2158.64453125</ele>
      </trkpt>
      <trkpt lat="44.35155" lon="6.78383">
        <ele>2159.10546875</ele>
      </trkpt>
      <trkpt lat="44.35154" lon="6.7839">
        <ele>2159.80078125</ele>
      </trkpt>
      <trkpt lat="44.35154" lon="6.78396">
        <ele>2160.33203125</ele>
      </trkpt>
      <trkpt lat="44.35152" lon="6.78403">
        <ele>2161.19921875</ele>
      </trkpt>
      <trkpt lat="44.3515" lon="6.78408">
        <ele>2161.984375</ele>
      </trkpt>
      <trkpt lat="44.35147" lon="6.78411">
        <ele>2162.59765625</ele>
      </trkpt>
      <trkpt lat="44.35143" lon="6.78424">
        <ele>2164.375</ele>
      </trkpt>
      <trkpt lat="44.35141" lon="6.78432">
        <ele>2165.35546875</ele>
      </trkpt>
      <trkpt lat="44.35141" lon="6.78439">
        <ele>2165.984375</ele>
      </trkpt>
      <trkpt lat="44.35143" lon="6.78447">
        <ele>2166.2265625</ele>
      </trkpt>
      <trkpt lat="44.35146" lon="6.78454">
        <ele>2166.25</ele>
      </trkpt>
      <trkpt lat="44.35155" lon="6.7846">
        <ele>2165.1484375</ele>
      </trkpt>
      <trkpt lat="44.35163" lon="6.78468">
        <ele>2164.05078125</ele>
      </trkpt>
      <trkpt lat="44.35168" lon="6.78472">
        <ele>2163.5078125</ele>
      </trkpt>
      <trkpt lat="44.3517" lon="6.78478">
        <ele>2163.3671875</ele>
      </trkpt>
      <trkpt lat="44.35172" lon="6.78483">
        <ele>2163.109375</ele>
      </trkpt>
      <trkpt lat="44.35173" lon="6.78491">
        <ele>2163.125</ele>
      </trkpt>
      <trkpt lat="44.35172" lon="6.78497">
        <ele>2163.55859375</ele>
      </trkpt>
      <trkpt lat="44.3517" lon="6.78503">
        <ele>2164.25</ele>
      </trkpt>
      <trkpt lat="44.35166" lon="6.78508">
        <ele>2165.37890625</ele>
      </trkpt>
      <trkpt lat="44.35161" lon="6.78511">
        <ele>2166.5</ele>
      </trkpt>
      <trkpt lat="44.35156" lon="6.78512">
        <ele>2167.80078125</ele>
      </trkpt>
      <trkpt lat="44.35152" lon="6.7851">
        <ele>2168.69140625</ele>
      </trkpt>
      <trkpt lat="44.35133" lon="6.78497">
        <ele>2172.015625</ele>
      </trkpt>
      <trkpt lat="44.35128" lon="6.78494">
        <ele>2173.00390625</ele>
      </trkpt>
      <trkpt lat="44.35123" lon="6.78493">
        <ele>2174.18359375</ele>
      </trkpt>
      <trkpt lat="44.35113" lon="6.78491">
        <ele>2176.2890625</ele>
      </trkpt>
      <trkpt lat="44.35108" lon="6.78488">
        <ele>2177.390625</ele>
      </trkpt>
      <trkpt lat="44.35103" lon="6.78486">
        <ele>2178.2421875</ele>
      </trkpt>
      <trkpt lat="44.35099" lon="6.78483">
        <ele>2179.015625</ele>
      </trkpt>
      <trkpt lat="44.35095" lon="6.78479">
        <ele>2179.7109375</ele>
      </trkpt>
      <trkpt lat="44.3508" lon="6.78463">
        <ele>2182.05078125</ele>
      </trkpt>
      <trkpt lat="44.35076" lon="6.78458">
        <ele>2182.76171875</ele>
      </trkpt>
      <trkpt lat="44.35071" lon="6.78456">
        <ele>2183.7421875</ele>
      </trkpt>
      <trkpt lat="44.35066" lon="6.78454">
        <ele>2184.99609375</ele>
      </trkpt>
      <trkpt lat="44.35061" lon="6.78453">
        <ele>2186.32421875</ele>
      </trkpt>
      <trkpt lat="44.35056" lon="6.78452">
        <ele>2187.3671875</ele>
      </trkpt>
      <trkpt lat="44.35053" lon="6.78447">
        <ele>2187.7890625</ele>
      </trkpt>
      <trkpt lat="44.35051" lon="6.78442">
        <ele>2188.00390625</ele>
      </trkpt>
      <trkpt lat="44.3505" lon="6.78428">
        <ele>2187.16015625</ele>
      </trkpt>
      <trkpt lat="44.3505" lon="6.78414">
        <ele>2185.9296875</ele>
      </trkpt>
      <trkpt lat="44.3505" lon="6.78408">
        <ele>2185.2890625</ele>
      </trkpt>
      <trkpt lat="44.35047" lon="6.78396">
        <ele>2184.94921875</ele>
      </trkpt>
      <trkpt lat="44.35044" lon="6.78391">
        <ele>2184.98046875</ele>
      </trkpt>
      <trkpt lat="44.35042" lon="6.78385">
        <ele>2185.01953125</ele>
      </trkpt>
      <trkpt lat="44.35026" lon="6.78357">
        <ele>2186.609375</ele>
      </trkpt>
      <trkpt lat="44.35022" lon="6.78352">
        <ele>2187.17578125</ele>
      </trkpt>
      <trkpt lat="44.35018" lon="6.78348">
        <ele>2187.7109375</ele>
      </trkpt>
      <trkpt lat="44.35013" lon="6.78345">
        <ele>2188.26171875</ele>
      </trkpt>
      <trkpt lat="44.35008" lon="6.78342">
        <ele>2189.14453125</ele>
      </trkpt>
      <trkpt lat="44.35004" lon="6.78344">
        <ele>2190.1640625</ele>
      </trkpt>
      <trkpt lat="44.34999" lon="6.78344">
        <ele>2191.0625</ele>
      </trkpt>
      <trkpt lat="44.3499" lon="6.78348">
        <ele>2193.58984375</ele>
      </trkpt>
      <trkpt lat="44.34985" lon="6.7835">
        <ele>2194.75</ele>
      </trkpt>
      <trkpt lat="44.34975" lon="6.78353">
        <ele>2197.4140625</ele>
      </trkpt>
      <trkpt lat="44.34959" lon="6.78356">
        <ele>2200.8203125</ele>
      </trkpt>
      <trkpt lat="44.34944" lon="6.78357">
        <ele>2203.0859375</ele>
      </trkpt>
      <trkpt lat="44.34903" lon="6.78357">
        <ele>2209.0625</ele>
      </trkpt>
      <trkpt lat="44.3488" lon="6.78357">
        <ele>2212.96875</ele>
      </trkpt>
      <trkpt lat="44.34876" lon="6.78359">
        <ele>2213.90234375</ele>
      </trkpt>
      <trkpt lat="44.34872" lon="6.78361">
        <ele>2215.0390625</ele>
      </trkpt>
      <trkpt lat="44.34867" lon="6.78363">
        <ele>2216.19140625</ele>
      </trkpt>
      <trkpt lat="44.34863" lon="6.78367">
        <ele>2217.81640625</ele>
      </trkpt>
      <trkpt lat="44.34861" lon="6.78374">
        <ele>2219.55078125</ele>
      </trkpt>
      <trkpt lat="44.34862" lon="6.7838">
        <ele>2220.6875</ele>
      </trkpt>
      <trkpt lat="44.3487" lon="6.78391">
        <ele>2221.37109375</ele>
      </trkpt>
      <trkpt lat="44.34877" lon="6.784">
        <ele>2221.69140625</ele>
      </trkpt>
      <trkpt lat="44.34881" lon="6.78405">
        <ele>2221.578125</ele>
      </trkpt>
      <trkpt lat="44.34886" lon="6.7841">
        <ele>2221.62890625</ele>
      </trkpt>
      <trkpt lat="44.34889" lon="6.78415">
        <ele>2221.8828125</ele>
      </trkpt>
      <trkpt lat="44.34891" lon="6.78422">
        <ele>2222.6484375</ele>
      </trkpt>
      <trkpt lat="44.34895" lon="6.78434">
        <ele>2224.46875</ele>
      </trkpt>
      <trkpt lat="44.34897" lon="6.78439">
        <ele>2225.2890625</ele>
      </trkpt>
      <trkpt lat="44.34901" lon="6.78444">
        <ele>2225.90234375</ele>
      </trkpt>
      <trkpt lat="44.34908" lon="6.78453">
        <ele>2226.48046875</ele>
      </trkpt>
      <trkpt lat="44.34946" lon="6.78481">
        <ele>2222.66796875</ele>
      </trkpt>
      <trkpt lat="44.34959" lon="6.78493">
        <ele>2221.71875</ele>
      </trkpt>
      <trkpt lat="44.34982" lon="6.78513">
        <ele>2217.86328125</ele>
      </trkpt>
      <trkpt lat="44.34985" lon="6.78515">
        <ele>2217.00390625</ele>
      </trkpt>
      <trkpt lat="44.34989" lon="6.78522">
        <ele>2216.8828125</ele>
      </trkpt>
      <trkpt lat="44.34989" lon="6.78527">
        <ele>2217.84375</ele>
      </trkpt>
      <trkpt lat="44.34986" lon="6.78532">
        <ele>2219.6875</ele>
      </trkpt>
      <trkpt lat="44.34982" lon="6.78536">
        <ele>2222.00390625</ele>
      </trkpt>
      <trkpt lat="44.34977" lon="6.78535">
        <ele>2224.16796875</ele>
      </trkpt>
      <trkpt lat="44.34971" lon="6.78532">
        <ele>2226.1796875</ele>
      </trkpt>
      <trkpt lat="44.3493" lon="6.78501">
        <ele>2232.078125</ele>
      </trkpt>
      <trkpt lat="44.34925" lon="6.78498">
        <ele>2232.55859375</ele>
      </trkpt>
      <trkpt lat="44.34921" lon="6.78495">
        <ele>2233.04296875</ele>
      </trkpt>
      <trkpt lat="44.34916" lon="6.78494">
        <ele>2234.33984375</ele>
      </trkpt>
      <trkpt lat="44.34911" lon="6.78493">
        <ele>2235.32421875</ele>
      </trkpt>
      <trkpt lat="44.34876" lon="6.78492">
        <ele>2241.19140625</ele>
      </trkpt>
      <trkpt lat="44.34851" lon="6.78491">
        <ele>2245.05078125</ele>
      </trkpt>
      <trkpt lat="44.34846" lon="6.78488">
        <ele>2245.546875</ele>
      </trkpt>
      <trkpt lat="44.34839" lon="6.78484">
        <ele>2245.90234375</ele>
      </trkpt>
      <trkpt lat="44.34836" lon="6.78479">
        <ele>2245.6015625</ele>
      </trkpt>
      <trkpt lat="44.34834" lon="6.78472">
        <ele>2244.921875</ele>
      </trkpt>
      <trkpt lat="44.3483" lon="6.78453">
        <ele>2242.4765625</ele>
      </trkpt>
      <trkpt lat="44.34829" lon="6.78439">
        <ele>2240.38671875</ele>
      </trkpt>
      <trkpt lat="44.34827" lon="6.78433">
        <ele>2239.8203125</ele>
      </trkpt>
      <trkpt lat="44.34824" lon="6.78427">
        <ele>2239.46484375</ele>
      </trkpt>
      <trkpt lat="44.34822" lon="6.78422">
        <ele>2239.140625</ele>
      </trkpt>
      <trkpt lat="44.34818" lon="6.78421">
        <ele>2240.05078125</ele>
      </trkpt>
      <trkpt lat="44.34815" lon="6.78423">
        <ele>2241.17578125</ele>
      </trkpt>
      <trkpt lat="44.34813" lon="6.78429">
        <ele>2242.64453125</ele>
      </trkpt>
      <trkpt lat="44.34812" lon="6.78436">
        <ele>2243.828125</ele>
      </trkpt>
      <trkpt lat="44.34812" lon="6.78442">
        <ele>2244.75390625</ele>
      </trkpt>
      <trkpt lat="44.34812" lon="6.78449">
        <ele>2245.6796875</ele>
      </trkpt>
      <trkpt lat="44.34812" lon="6.78456">
        <ele>2246.7578125</ele>
      </trkpt>
      <trkpt lat="44.34809" lon="6.78464">
        <ele>2248.2578125</ele>
      </trkpt>
      <trkpt lat="44.34807" lon="6.78469">
        <ele>2249.41796875</ele>
      </trkpt>
      <trkpt lat="44.34801" lon="6.7848">
        <ele>2251.94921875</ele>
      </trkpt>
      <trkpt lat="44.34793" lon="6.78488">
        <ele>2254.30078125</ele>
      </trkpt>
      <trkpt lat="44.34786" lon="6.78496">
        <ele>2256.4921875</ele>
      </trkpt>
      <trkpt lat="44.34778" lon="6.78506">
        <ele>2258.71484375</ele>
      </trkpt>
      <trkpt lat="44.34773" lon="6.78516">
        <ele>2260.4765625</ele>
      </trkpt>
      <trkpt lat="44.34768" lon="6.78529">
        <ele>2262.23828125</ele>
      </trkpt>
      <trkpt lat="44.34767" lon="6.78536">
        <ele>2262.8046875</ele>
      </trkpt>
      <trkpt lat="44.34767" lon="6.78543">
        <ele>2263.26953125</ele>
      </trkpt>
      <trkpt lat="44.34769" lon="6.7855">
        <ele>2263.37109375</ele>
      </trkpt>
      <trkpt lat="44.34772" lon="6.78554">
        <ele>2263.19921875</ele>
      </trkpt>
      <trkpt lat="44.34779" lon="6.78558">
        <ele>2262.45703125</ele>
      </trkpt>
      <trkpt lat="44.34783" lon="6.78559">
        <ele>2262.09375</ele>
      </trkpt>
      <trkpt lat="44.34788" lon="6.7856">
        <ele>2261.44140625</ele>
      </trkpt>
      <trkpt lat="44.34797" lon="6.78559">
        <ele>2260.2109375</ele>
      </trkpt>
      <trkpt lat="44.34805" lon="6.78557">
        <ele>2259.15234375</ele>
      </trkpt>
      <trkpt lat="44.3482" lon="6.7855">
        <ele>2257.0625</ele>
      </trkpt>
      <trkpt lat="44.34826" lon="6.7855">
        <ele>2256.51171875</ele>
      </trkpt>
      <trkpt lat="44.3483" lon="6.7855">
        <ele>2256.07421875</ele>
      </trkpt>
      <trkpt lat="44.34834" lon="6.78552">
        <ele>2255.81640625</ele>
      </trkpt>
      <trkpt lat="44.34836" lon="6.78556">
        <ele>2255.9609375</ele>
      </trkpt>
      <trkpt lat="44.34837" lon="6.78562">
        <ele>2256.40234375</ele>
      </trkpt>
      <trkpt lat="44.34835" lon="6.7857">
        <ele>2257.2421875</ele>
      </trkpt>
      <trkpt lat="44.34818" lon="6.78597">
        <ele>2260.62109375</ele>
      </trkpt>
      <trkpt lat="44.34786" lon="6.78632">
        <ele>2264.984375</ele>
      </trkpt>
      <trkpt lat="44.34749" lon="6.78671">
        <ele>2269.375</ele>
      </trkpt>
      <trkpt lat="44.34726" lon="6.78698">
        <ele>2271.49609375</ele>
      </trkpt>
      <trkpt lat="44.34719" lon="6.78705">
        <ele>2272.15625</ele>
      </trkpt>
      <trkpt lat="44.34711" lon="6.7871">
        <ele>2272.94921875</ele>
      </trkpt>
      <trkpt lat="44.34703" lon="6.78714">
        <ele>2273.61328125</ele>
      </trkpt>
      <trkpt lat="44.34695" lon="6.78715">
        <ele>2274.34375</ele>
      </trkpt>
      <trkpt lat="44.34684" lon="6.78712">
        <ele>2275.14453125</ele>
      </trkpt>
      <trkpt lat="44.34673" lon="6.78707">
        <ele>2275.6953125</ele>
      </trkpt>
      <trkpt lat="44.34664" lon="6.78702">
        <ele>2276.2265625</ele>
      </trkpt>
      <trkpt lat="44.3464" lon="6.78685">
        <ele>2278.23046875</ele>
      </trkpt>
      <trkpt lat="44.34615" lon="6.78669">
        <ele>2279.71484375</ele>
      </trkpt>
      <trkpt lat="44.34585" lon="6.78649">
        <ele>2281.33203125</ele>
      </trkpt>
      <trkpt lat="44.34571" lon="6.78642">
        <ele>2282.10546875</ele>
      </trkpt>
      <trkpt lat="44.34568" lon="6.78639">
        <ele>2282.46484375</ele>
      </trkpt>
      <trkpt lat="44.34563" lon="6.78632">
        <ele>2283.171875</ele>
      </trkpt>
      <trkpt lat="44.34559" lon="6.78627">
        <ele>2283.75390625</ele>
      </trkpt>
      <trkpt lat="44.34532" lon="6.78586">
        <ele>2288.66796875</ele>
      </trkpt>
      <trkpt lat="44.34526" lon="6.78581">
        <ele>2289.625</ele>
      </trkpt>
      <trkpt lat="44.34521" lon="6.78576">
        <ele>2290.44921875</ele>
      </trkpt>
      <trkpt lat="44.34515" lon="6.78573">
        <ele>2290.95703125</ele>
      </trkpt>
      <trkpt lat="44.34512" lon="6.78571">
        <ele>2291.265625</ele>
      </trkpt>
      <trkpt lat="44.34507" lon="6.78568">
        <ele>2291.703125</ele>
      </trkpt>
      <trkpt lat="44.34504" lon="6.78565">
        <ele>2292.11328125</ele>
      </trkpt>
      <trkpt lat="44.345" lon="6.7856">
        <ele>2292.63671875</ele>
      </trkpt>
      <trkpt lat="44.34496" lon="6.78553">
        <ele>2293.51171875</ele>
      </trkpt>
      <trkpt lat="44.34495" lon="6.78547">
        <ele>2294.13671875</ele>
      </trkpt>
      <trkpt lat="44.34495" lon="6.78543">
        <ele>2294.6484375</ele>
      </trkpt>
      <trkpt lat="44.34493" lon="6.7853">
        <ele>2296.09375</ele>
      </trkpt>
      <trkpt lat="44.34493" lon="6.78516">
        <ele>2297.48046875</ele>
      </trkpt>
      <trkpt lat="44.34495" lon="6.78504">
        <ele>2298.7890625</ele>
      </trkpt>
      <trkpt lat="44.34495" lon="6.78494">
        <ele>2299.87890625</ele>
      </trkpt>
      <trkpt lat="44.34495" lon="6.78479">
        <ele>2301.40234375</ele>
      </trkpt>
      <trkpt lat="44.34495" lon="6.78474">
        <ele>2301.88671875</ele>
      </trkpt>
      <trkpt lat="44.34494" lon="6.78469">
        <ele>2302.56640625</ele>
      </trkpt>
      <trkpt lat="44.34491" lon="6.78463">
        <ele>2303.18359375</ele>
      </trkpt>
      <trkpt lat="44.34488" lon="6.78458">
        <ele>2303.47265625</ele>
      </trkpt>
      <trkpt lat="44.34484" lon="6.78455">
        <ele>2303.59375</ele>
      </trkpt>
      <trkpt lat="44.3448" lon="6.78453">
        <ele>2303.44140625</ele>
      </trkpt>
      <trkpt lat="44.34475" lon="6.78452">
        <ele>2303.0234375</ele>
      </trkpt>
      <trkpt lat="44.34467" lon="6.78453">
        <ele>2302.09375</ele>
      </trkpt>
      <trkpt lat="44.34461" lon="6.78454">
        <ele>2301.734375</ele>
      </trkpt>
      <trkpt lat="44.34453" lon="6.78453">
        <ele>2301.92578125</ele>
      </trkpt>
      <trkpt lat="44.34438" lon="6.7845">
        <ele>2302.46875</ele>
      </trkpt>
      <trkpt lat="44.34423" lon="6.78445">
        <ele>2303.19140625</ele>
      </trkpt>
      <trkpt lat="44.34419" lon="6.78444">
        <ele>2303.38671875</ele>
      </trkpt>
      <trkpt lat="44.34414" lon="6.78444">
        <ele>2303.44140625</ele>
      </trkpt>
      <trkpt lat="44.34408" lon="6.78445">
        <ele>2303.484375</ele>
      </trkpt>
      <trkpt lat="44.34404" lon="6.78448">
        <ele>2303.79296875</ele>
      </trkpt>
      <trkpt lat="44.34368" lon="6.78467">
        <ele>2305.60546875</ele>
      </trkpt>
      <trkpt lat="44.34362" lon="6.78468">
        <ele>2306.265625</ele>
      </trkpt>
      <trkpt lat="44.34357" lon="6.78469">
        <ele>2306.7734375</ele>
      </trkpt>
      <trkpt lat="44.3435" lon="6.78468">
        <ele>2307.5703125</ele>
      </trkpt>
      <trkpt lat="44.34345" lon="6.78465">
        <ele>2308.4453125</ele>
      </trkpt>
      <trkpt lat="44.34333" lon="6.78455">
        <ele>2310.61328125</ele>
      </trkpt>
      <trkpt lat="44.34316" lon="6.7844">
        <ele>2313.36328125</ele>
      </trkpt>
      <trkpt lat="44.34312" lon="6.78436">
        <ele>2314.015625</ele>
      </trkpt>
      <trkpt lat="44.34309" lon="6.78428">
        <ele>2314.98046875</ele>
      </trkpt>
      <trkpt lat="44.34307" lon="6.78422">
        <ele>2315.7734375</ele>
      </trkpt>
      <trkpt lat="44.34306" lon="6.78415">
        <ele>2316.55078125</ele>
      </trkpt>
      <trkpt lat="44.34307" lon="6.78405">
        <ele>2317.87890625</ele>
      </trkpt>
      <trkpt lat="44.34308" lon="6.7839">
        <ele>2319.77734375</ele>
      </trkpt>
      <trkpt lat="44.34318" lon="6.7834">
        <ele>2327.171875</ele>
      </trkpt>
      <trkpt lat="44.34318" lon="6.78332">
        <ele>2328.37890625</ele>
      </trkpt>
      <trkpt lat="44.34319" lon="6.78324">
        <ele>2329.59765625</ele>
      </trkpt>
      <trkpt lat="44.34318" lon="6.78317">
        <ele>2330.484375</ele>
      </trkpt>
      <trkpt lat="44.34316" lon="6.78309">
        <ele>2331.15234375</ele>
      </trkpt>
      <trkpt lat="44.34314" lon="6.78302">
        <ele>2332.16015625</ele>
      </trkpt>
      <trkpt lat="44.34298" lon="6.78272">
        <ele>2333.92578125</ele>
      </trkpt>
      <trkpt lat="44.34288" lon="6.78256">
        <ele>2334.1171875</ele>
      </trkpt>
      <trkpt lat="44.34279" lon="6.78238">
        <ele>2335.87109375</ele>
      </trkpt>
      <trkpt lat="44.34276" lon="6.78234">
        <ele>2336.046875</ele>
      </trkpt>
      <trkpt lat="44.34272" lon="6.78231">
        <ele>2335.66796875</ele>
      </trkpt>
      <trkpt lat="44.34265" lon="6.78227">
        <ele>2334.94140625</ele>
      </trkpt>
      <trkpt lat="44.34259" lon="6.78223">
        <ele>2333.9375</ele>
      </trkpt>
      <trkpt lat="44.34238" lon="6.78222">
        <ele>2329.84765625</ele>
      </trkpt>
      <trkpt lat="44.34227" lon="6.7822">
        <ele>2330.53125</ele>
      </trkpt>
      <trkpt lat="44.342" lon="6.78215">
        <ele>2332.05078125</ele>
      </trkpt>
      <trkpt lat="44.34195" lon="6.78216">
        <ele>2331.95703125</ele>
      </trkpt>
      <trkpt lat="44.34189" lon="6.78217">
        <ele>2331.875</ele>
      </trkpt>
      <trkpt lat="44.34181" lon="6.7822">
        <ele>2332.55078125</ele>
      </trkpt>
      <trkpt lat="44.34143" lon="6.78245">
        <ele>2335.3125</ele>
      </trkpt>
      <trkpt lat="44.34131" lon="6.78251">
        <ele>2336.38671875</ele>
      </trkpt>
      <trkpt lat="44.34121" lon="6.78256">
        <ele>2337.34375</ele>
      </trkpt>
      <trkpt lat="44.34106" lon="6.7826">
        <ele>2339</ele>
      </trkpt>
      <trkpt lat="44.34058" lon="6.78267">
        <ele>2344.31640625</ele>
      </trkpt>
      <trkpt lat="44.34034" lon="6.78273">
        <ele>2346.67578125</ele>
      </trkpt>
      <trkpt lat="44.34023" lon="6.78274">
        <ele>2347.87109375</ele>
      </trkpt>
      <trkpt lat="44.34018" lon="6.78273">
        <ele>2348.5625</ele>
      </trkpt>
      <trkpt lat="44.34011" lon="6.78271">
        <ele>2349.40234375</ele>
      </trkpt>
      <trkpt lat="44.34005" lon="6.78268">
        <ele>2350.2265625</ele>
      </trkpt>
      <trkpt lat="44.33981" lon="6.78254">
        <ele>2353.48046875</ele>
      </trkpt>
      <trkpt lat="44.33972" lon="6.7825">
        <ele>2354.94921875</ele>
      </trkpt>
      <trkpt lat="44.33966" lon="6.78249">
        <ele>2355.6015625</ele>
      </trkpt>
      <trkpt lat="44.33963" lon="6.78249">
        <ele>2355.921875</ele>
      </trkpt>
      <trkpt lat="44.3396" lon="6.7825">
        <ele>2356.08984375</ele>
      </trkpt>
      <trkpt lat="44.33957" lon="6.78252">
        <ele>2356.09375</ele>
      </trkpt>
      <trkpt lat="44.33936" lon="6.78273">
        <ele>2357.44921875</ele>
      </trkpt>
      <trkpt lat="44.33904" lon="6.78303">
        <ele>2360.93359375</ele>
      </trkpt>
      <trkpt lat="44.33897" lon="6.7831">
        <ele>2361.734375</ele>
      </trkpt>
      <trkpt lat="44.33892" lon="6.7832">
        <ele>2362.44921875</ele>
      </trkpt>
      <trkpt lat="44.3389" lon="6.78326">
        <ele>2362.7109375</ele>
      </trkpt>
      <trkpt lat="44.33877" lon="6.78362">
        <ele>2364.12109375</ele>
      </trkpt>
      <trkpt lat="44.33872" lon="6.78377">
        <ele>2364.6875</ele>
      </trkpt>
      <trkpt lat="44.33863" lon="6.78394">
        <ele>2365.4921875</ele>
      </trkpt>
      <trkpt lat="44.33855" lon="6.78408">
        <ele>2366.1640625</ele>
      </trkpt>
      <trkpt lat="44.3385" lon="6.78413">
        <ele>2366.52734375</ele>
      </trkpt>
      <trkpt lat="44.33846" lon="6.78418">
        <ele>2366.9140625</ele>
      </trkpt>
      <trkpt lat="44.33837" lon="6.78423">
        <ele>2367.78125</ele>
      </trkpt>
      <trkpt lat="44.33831" lon="6.78425">
        <ele>2368.453125</ele>
      </trkpt>
      <trkpt lat="44.33814" lon="6.78428">
        <ele>2370.23828125</ele>
      </trkpt>
      <trkpt lat="44.33806" lon="6.78432">
        <ele>2370.98046875</ele>
      </trkpt>
      <trkpt lat="44.33803" lon="6.78434">
        <ele>2371.28125</ele>
      </trkpt>
      <trkpt lat="44.33801" lon="6.78437">
        <ele>2371.44921875</ele>
      </trkpt>
      <trkpt lat="44.33799" lon="6.7844">
        <ele>2371.609375</ele>
      </trkpt>
      <trkpt lat="44.33798" lon="6.78444">
        <ele>2371.65234375</ele>
      </trkpt>
      <trkpt lat="44.33798" lon="6.78449">
        <ele>2371.578125</ele>
      </trkpt>
      <trkpt lat="44.33799" lon="6.78455">
        <ele>2371.33984375</ele>
      </trkpt>
      <trkpt lat="44.338" lon="6.7846">
        <ele>2371.14453125</ele>
      </trkpt>
      <trkpt lat="44.33803" lon="6.78464">
        <ele>2370.78515625</ele>
      </trkpt>
      <trkpt lat="44.33807" lon="6.78468">
        <ele>2370.31640625</ele>
      </trkpt>
      <trkpt lat="44.33826" lon="6.78475">
        <ele>2368.55859375</ele>
      </trkpt>
      <trkpt lat="44.33832" lon="6.7848">
        <ele>2368.10546875</ele>
      </trkpt>
      <trkpt lat="44.33836" lon="6.78483">
        <ele>2367.8203125</ele>
      </trkpt>
      <trkpt lat="44.3384" lon="6.78487">
        <ele>2367.67578125</ele>
      </trkpt>
      <trkpt lat="44.33843" lon="6.78493">
        <ele>2367.5703125</ele>
      </trkpt>
      <trkpt lat="44.33845" lon="6.78498">
        <ele>2367.56640625</ele>
      </trkpt>
      <trkpt lat="44.33846" lon="6.78507">
        <ele>2367.765625</ele>
      </trkpt>
      <trkpt lat="44.33846" lon="6.78512">
        <ele>2367.94140625</ele>
      </trkpt>
      <trkpt lat="44.33846" lon="6.78516">
        <ele>2368.0859375</ele>
      </trkpt>
      <trkpt lat="44.33844" lon="6.78523">
        <ele>2368.4609375</ele>
      </trkpt>
      <trkpt lat="44.33838" lon="6.78537">
        <ele>2369.07421875</ele>
      </trkpt>
      <trkpt lat="44.33835" lon="6.78547">
        <ele>2369.2578125</ele>
      </trkpt>
      <trkpt lat="44.33835" lon="6.78555">
        <ele>2369.21484375</ele>
      </trkpt>
      <trkpt lat="44.33836" lon="6.78563">
        <ele>2369.0625</ele>
      </trkpt>
      <trkpt lat="44.33844" lon="6.78591">
        <ele>2368.1015625</ele>
      </trkpt>
      <trkpt lat="44.33844" lon="6.78601">
        <ele>2368.1015625</ele>
      </trkpt>
      <trkpt lat="44.33843" lon="6.78611">
        <ele>2368.21875</ele>
      </trkpt>
      <trkpt lat="44.33841" lon="6.78616">
        <ele>2368.44921875</ele>
      </trkpt>
      <trkpt lat="44.33837" lon="6.78621">
        <ele>2368.796875</ele>
      </trkpt>
      <trkpt lat="44.33807" lon="6.78662">
        <ele>2372.04296875</ele>
      </trkpt>
      <trkpt lat="44.33794" lon="6.78681">
        <ele>2373.6328125</ele>
      </trkpt>
      <trkpt lat="44.33787" lon="6.78693">
        <ele>2374.8515625</ele>
      </trkpt>
      <trkpt lat="44.33769" lon="6.78721">
        <ele>2378.48046875</ele>
      </trkpt>
      <trkpt lat="44.33759" lon="6.78737">
        <ele>2380.61328125</ele>
      </trkpt>
      <trkpt lat="44.33757" lon="6.78743">
        <ele>2381.16015625</ele>
      </trkpt>
      <trkpt lat="44.33755" lon="6.78748">
        <ele>2381.7109375</ele>
      </trkpt>
      <trkpt lat="44.33753" lon="6.78754">
        <ele>2382.2890625</ele>
      </trkpt>
      <trkpt lat="44.33752" lon="6.78762">
        <ele>2382.63671875</ele>
      </trkpt>
      <trkpt lat="44.33752" lon="6.78768">
        <ele>2382.7734375</ele>
      </trkpt>
      <trkpt lat="44.33753" lon="6.78775">
        <ele>2382.71875</ele>
      </trkpt>
      <trkpt lat="44.33756" lon="6.78781">
        <ele>2382.3046875</ele>
      </trkpt>
      <trkpt lat="44.33758" lon="6.78788">
        <ele>2382.0859375</ele>
      </trkpt>
      <trkpt lat="44.33761" lon="6.78794">
        <ele>2381.6953125</ele>
      </trkpt>
      <trkpt lat="44.33767" lon="6.78805">
        <ele>2381.078125</ele>
      </trkpt>
      <trkpt lat="44.33771" lon="6.78818">
        <ele>2380.7265625</ele>
      </trkpt>
      <trkpt lat="44.33772" lon="6.78824">
        <ele>2380.73046875</ele>
      </trkpt>
      <trkpt lat="44.33773" lon="6.78838">
        <ele>2380.94921875</ele>
      </trkpt>
      <trkpt lat="44.33772" lon="6.78845">
        <ele>2381.2890625</ele>
      </trkpt>
      <trkpt lat="44.33769" lon="6.78857">
        <ele>2382.11328125</ele>
      </trkpt>
      <trkpt lat="44.33762" lon="6.78877">
        <ele>2383.7421875</ele>
      </trkpt>
      <trkpt lat="44.33761" lon="6.78883">
        <ele>2384.17578125</ele>
      </trkpt>
      <trkpt lat="44.3376" lon="6.7889">
        <ele>2384.62109375</ele>
      </trkpt>
      <trkpt lat="44.33761" lon="6.78896">
        <ele>2384.71875</ele>
      </trkpt>
      <trkpt lat="44.33762" lon="6.78903">
        <ele>2384.80859375</ele>
      </trkpt>
      <trkpt lat="44.33763" lon="6.78909">
        <ele>2384.890625</ele>
      </trkpt>
      <trkpt lat="44.33769" lon="6.78922">
        <ele>2384.44140625</ele>
      </trkpt>
      <trkpt lat="44.33773" lon="6.78935">
        <ele>2384.12890625</ele>
      </trkpt>
      <trkpt lat="44.33778" lon="6.78963">
        <ele>2384.16796875</ele>
      </trkpt>
      <trkpt lat="44.33781" lon="6.78977">
        <ele>2384.32421875</ele>
      </trkpt>
      <trkpt lat="44.33782" lon="6.78989">
        <ele>2384.96875</ele>
      </trkpt>
      <trkpt lat="44.33783" lon="6.79003">
        <ele>2385.66015625</ele>
      </trkpt>
      <trkpt lat="44.33783" lon="6.79037">
        <ele>2387.98046875</ele>
      </trkpt>
      <trkpt lat="44.33784" lon="6.79067">
        <ele>2390.59765625</ele>
      </trkpt>
      <trkpt lat="44.33784" lon="6.79075">
        <ele>2391.41015625</ele>
      </trkpt>
      <trkpt lat="44.33786" lon="6.79091">
        <ele>2392.7265625</ele>
      </trkpt>
      <trkpt lat="44.33789" lon="6.79115">
        <ele>2395.5078125</ele>
      </trkpt>
      <trkpt lat="44.3379" lon="6.79145">
        <ele>2399.94921875</ele>
      </trkpt>
      <trkpt lat="44.33792" lon="6.79166">
        <ele>2404.05078125</ele>
      </trkpt>
      <trkpt lat="44.33793" lon="6.79173">
        <ele>2405.15234375</ele>
      </trkpt>
      <trkpt lat="44.33796" lon="6.79179">
        <ele>2405.94921875</ele>
      </trkpt>
      <trkpt lat="44.33798" lon="6.79185">
        <ele>2406.50390625</ele>
      </trkpt>
      <trkpt lat="44.33801" lon="6.7919">
        <ele>2407.609375</ele>
      </trkpt>
      <trkpt lat="44.33805" lon="6.79194">
        <ele>2408.84375</ele>
      </trkpt>
      <trkpt lat="44.33808" lon="6.79199">
        <ele>2410.0703125</ele>
      </trkpt>
      <trkpt lat="44.33814" lon="6.79201">
        <ele>2411.0078125</ele>
      </trkpt>
      <trkpt lat="44.33817" lon="6.79202">
        <ele>2411.51171875</ele>
      </trkpt>
      <trkpt lat="44.3382" lon="6.79201">
        <ele>2411.45703125</ele>
      </trkpt>
      <trkpt lat="44.33831" lon="6.79199">
        <ele>2411.671875</ele>
      </trkpt>
      <trkpt lat="44.3384" lon="6.79195">
        <ele>2411.55078125</ele>
      </trkpt>
      <trkpt lat="44.33846" lon="6.79192">
        <ele>2411.3203125</ele>
      </trkpt>
      <trkpt lat="44.33852" lon="6.79188">
        <ele>2410.85546875</ele>
      </trkpt>
      <trkpt lat="44.33859" lon="6.79185">
        <ele>2411.453125</ele>
      </trkpt>
      <trkpt lat="44.33874" lon="6.79176">
        <ele>2413.15234375</ele>
      </trkpt>
      <trkpt lat="44.33881" lon="6.79173">
        <ele>2414.19140625</ele>
      </trkpt>
      <trkpt lat="44.3389" lon="6.79171">
        <ele>2415.703125</ele>
      </trkpt>
      <trkpt lat="44.33943" lon="6.7916">
        <ele>2426.51953125</ele>
      </trkpt>
      <trkpt lat="44.33976" lon="6.79154">
        <ele>2433.64453125</ele>
      </trkpt>
      <trkpt lat="44.33982" lon="6.7915">
        <ele>2434.48046875</ele>
      </trkpt>
      <trkpt lat="44.3399" lon="6.79145">
        <ele>2435.28515625</ele>
      </trkpt>
      <trkpt lat="44.33995" lon="6.79137">
        <ele>2435.31640625</ele>
      </trkpt>
      <trkpt lat="44.34012" lon="6.79107">
        <ele>2435.26171875</ele>
      </trkpt>
      <trkpt lat="44.34017" lon="6.79097">
        <ele>2435.08203125</ele>
      </trkpt>
      <trkpt lat="44.3402" lon="6.7909">
        <ele>2435.25</ele>
      </trkpt>
      <trkpt lat="44.34023" lon="6.79081">
        <ele>2434.9453125</ele>
      </trkpt>
      <trkpt lat="44.34026" lon="6.79071">
        <ele>2434.75</ele>
      </trkpt>
      <trkpt lat="44.34027" lon="6.79062">
        <ele>2434.265625</ele>
      </trkpt>
      <trkpt lat="44.34031" lon="6.79045">
        <ele>2433.62109375</ele>
      </trkpt>
      <trkpt lat="44.34034" lon="6.7903">
        <ele>2433.2734375</ele>
      </trkpt>
      <trkpt lat="44.34037" lon="6.79017">
        <ele>2433.1328125</ele>
      </trkpt>
      <trkpt lat="44.34042" lon="6.79003">
        <ele>2433.59375</ele>
      </trkpt>
      <trkpt lat="44.34048" lon="6.78988">
        <ele>2434.1328125</ele>
      </trkpt>
      <trkpt lat="44.34064" lon="6.78945">
        <ele>2435.54296875</ele>
      </trkpt>
      <trkpt lat="44.34076" lon="6.78924">
        <ele>2437.22265625</ele>
      </trkpt>
      <trkpt lat="44.34078" lon="6.7892">
        <ele>2437.0859375</ele>
      </trkpt>
      <trkpt lat="44.34081" lon="6.78918">
        <ele>2436.890625</ele>
      </trkpt>
      <trkpt lat="44.34086" lon="6.78916">
        <ele>2437.0234375</ele>
      </trkpt>
      <trkpt lat="44.3409" lon="6.78918">
        <ele>2437.38671875</ele>
      </trkpt>
      <trkpt lat="44.34093" lon="6.78921">
        <ele>2437.96484375</ele>
      </trkpt>
      <trkpt lat="44.34094" lon="6.78926">
        <ele>2438.3515625</ele>
      </trkpt>
      <trkpt lat="44.34088" lon="6.78944">
        <ele>2439.39453125</ele>
      </trkpt>
      <trkpt lat="44.34081" lon="6.7896">
        <ele>2440.61328125</ele>
      </trkpt>
      <trkpt lat="44.34079" lon="6.78967">
        <ele>2441.19140625</ele>
      </trkpt>
      <trkpt lat="44.34076" lon="6.7898">
        <ele>2442.00390625</ele>
      </trkpt>
      <trkpt lat="44.34075" lon="6.78986">
        <ele>2441.921875</ele>
      </trkpt>
      <trkpt lat="44.34075" lon="6.78994">
        <ele>2442.203125</ele>
      </trkpt>
      <trkpt lat="44.34076" lon="6.79006">
        <ele>2442.9453125</ele>
      </trkpt>
      <trkpt lat="44.34078" lon="6.79017">
        <ele>2443.4375</ele>
      </trkpt>
      <trkpt lat="44.34082" lon="6.79036">
        <ele>2443.796875</ele>
      </trkpt>
      <trkpt lat="44.34082" lon="6.79052">
        <ele>2444.1796875</ele>
      </trkpt>
      <trkpt lat="44.34082" lon="6.79068">
        <ele>2444.55859375</ele>
      </trkpt>
      <trkpt lat="44.34082" lon="6.79083">
        <ele>2444.91796875</ele>
      </trkpt>
      <trkpt lat="44.34083" lon="6.79121">
        <ele>2447.76953125</ele>
      </trkpt>
      <trkpt lat="44.34083" lon="6.79135">
        <ele>2448.87109375</ele>
      </trkpt>
      <trkpt lat="44.34082" lon="6.79146">
        <ele>2449.71484375</ele>
      </trkpt>
      <trkpt lat="44.34075" lon="6.79173">
        <ele>2451.6171875</ele>
      </trkpt>
      <trkpt lat="44.34056" lon="6.79207">
        <ele>2452.92578125</ele>
      </trkpt>
      <trkpt lat="44.34047" lon="6.79227">
        <ele>2453.97265625</ele>
      </trkpt>
      <trkpt lat="44.34043" lon="6.79235">
        <ele>2454.55078125</ele>
      </trkpt>
      <trkpt lat="44.34038" lon="6.79245">
        <ele>2455.015625</ele>
      </trkpt>
      <trkpt lat="44.34034" lon="6.79251">
        <ele>2455.24609375</ele>
      </trkpt>
      <trkpt lat="44.34018" lon="6.79274">
        <ele>2455.8671875</ele>
      </trkpt>
      <trkpt lat="44.34009" lon="6.79288">
        <ele>2456.18359375</ele>
      </trkpt>
      <trkpt lat="44.34004" lon="6.79297">
        <ele>2456.4375</ele>
      </trkpt>
      <trkpt lat="44.33999" lon="6.79309">
        <ele>2457.046875</ele>
      </trkpt>
      <trkpt lat="44.33996" lon="6.79317">
        <ele>2457.53125</ele>
      </trkpt>
      <trkpt lat="44.33995" lon="6.79323">
        <ele>2458.1875</ele>
      </trkpt>
      <trkpt lat="44.33995" lon="6.7933">
        <ele>2459</ele>
      </trkpt>
      <trkpt lat="44.33996" lon="6.79335">
        <ele>2459.83203125</ele>
      </trkpt>
      <trkpt lat="44.33998" lon="6.7934">
        <ele>2460.81640625</ele>
      </trkpt>
      <trkpt lat="44.34002" lon="6.79346">
        <ele>2461.95703125</ele>
      </trkpt>
      <trkpt lat="44.34005" lon="6.79349">
        <ele>2462.82421875</ele>
      </trkpt>
      <trkpt lat="44.34009" lon="6.79351">
        <ele>2463.71484375</ele>
      </trkpt>
      <trkpt lat="44.34017" lon="6.79354">
        <ele>2465.203125</ele>
      </trkpt>
      <trkpt lat="44.34027" lon="6.79356">
        <ele>2466.77734375</ele>
      </trkpt>
      <trkpt lat="44.34036" lon="6.79356">
        <ele>2467.70703125</ele>
      </trkpt>
      <trkpt lat="44.34056" lon="6.79355">
        <ele>2469.7734375</ele>
      </trkpt>
      <trkpt lat="44.34063" lon="6.79356">
        <ele>2470.60546875</ele>
      </trkpt>
      <trkpt lat="44.34068" lon="6.79357">
        <ele>2471.3203125</ele>
      </trkpt>
      <trkpt lat="44.34072" lon="6.79361">
        <ele>2472.1875</ele>
      </trkpt>
      <trkpt lat="44.34082" lon="6.79369">
        <ele>2474.3359375</ele>
      </trkpt>
      <trkpt lat="44.34088" lon="6.79378">
        <ele>2476.2890625</ele>
      </trkpt>
      <trkpt lat="44.34093" lon="6.79387">
        <ele>2478.28125</ele>
      </trkpt>
      <trkpt lat="44.34096" lon="6.79404">
        <ele>2481.2734375</ele>
      </trkpt>
      <trkpt lat="44.341" lon="6.79423">
        <ele>2485.0703125</ele>
      </trkpt>
      <trkpt lat="44.34102" lon="6.7943">
        <ele>2486.6640625</ele>
      </trkpt>
      <trkpt lat="44.34106" lon="6.79438">
        <ele>2488.4296875</ele>
      </trkpt>
      <trkpt lat="44.34111" lon="6.79448">
        <ele>2490.90625</ele>
      </trkpt>
      <trkpt lat="44.34129" lon="6.79478">
        <ele>2499.1015625</ele>
      </trkpt>
      <trkpt lat="44.34134" lon="6.79481">
        <ele>2500.42578125</ele>
      </trkpt>
      <trkpt lat="44.3414" lon="6.79483">
        <ele>2502.03125</ele>
      </trkpt>
      <trkpt lat="44.34146" lon="6.79484">
        <ele>2503.43359375</ele>
      </trkpt>
      <trkpt lat="44.34159" lon="6.79482">
        <ele>2505.54296875</ele>
      </trkpt>
      <trkpt lat="44.34173" lon="6.79478">
        <ele>2507.609375</ele>
      </trkpt>
      <trkpt lat="44.34179" lon="6.79475">
        <ele>2508.37109375</ele>
      </trkpt>
      <trkpt lat="44.34184" lon="6.79471">
        <ele>2508.55859375</ele>
      </trkpt>
      <trkpt lat="44.34189" lon="6.79466">
        <ele>2508.33203125</ele>
      </trkpt>
      <trkpt lat="44.34194" lon="6.79459">
        <ele>2507.53125</ele>
      </trkpt>
      <trkpt lat="44.342" lon="6.79454">
        <ele>2507.24609375</ele>
      </trkpt>
      <trkpt lat="44.34208" lon="6.79451">
        <ele>2507.55859375</ele>
      </trkpt>
      <trkpt lat="44.34253" lon="6.79437">
        <ele>2509.9765625</ele>
      </trkpt>
      <trkpt lat="44.34294" lon="6.79428">
        <ele>2511.734375</ele>
      </trkpt>
      <trkpt lat="44.34319" lon="6.79422">
        <ele>2510.94140625</ele>
      </trkpt>
      <trkpt lat="44.34326" lon="6.79422">
        <ele>2511.05859375</ele>
      </trkpt>
      <trkpt lat="44.34332" lon="6.79423">
        <ele>2511.42578125</ele>
      </trkpt>
      <trkpt lat="44.34353" lon="6.79437">
        <ele>2515.078125</ele>
      </trkpt>
      <trkpt lat="44.34362" lon="6.79438">
        <ele>2515.53125</ele>
      </trkpt>
      <trkpt lat="44.3438" lon="6.79436">
        <ele>2515.44921875</ele>
      </trkpt>
      <trkpt lat="44.34385" lon="6.79437">
        <ele>2515.8125</ele>
      </trkpt>
      <trkpt lat="44.34388" lon="6.79439">
        <ele>2516.4140625</ele>
      </trkpt>
      <trkpt lat="44.34391" lon="6.79443">
        <ele>2517.55078125</ele>
      </trkpt>
      <trkpt lat="44.34393" lon="6.79448">
        <ele>2518.6640625</ele>
      </trkpt>
      <trkpt lat="44.34393" lon="6.79453">
        <ele>2519.98828125</ele>
      </trkpt>
      <trkpt lat="44.34393" lon="6.79458">
        <ele>2521.3125</ele>
      </trkpt>
      <trkpt lat="44.34392" lon="6.79463">
        <ele>2522.33984375</ele>
      </trkpt>
      <trkpt lat="44.3439" lon="6.79466">
        <ele>2523.0625</ele>
      </trkpt>
      <trkpt lat="44.34387" lon="6.79469">
        <ele>2523.7421875</ele>
      </trkpt>
      <trkpt lat="44.34371" lon="6.79469">
        <ele>2523.1953125</ele>
      </trkpt>
      <trkpt lat="44.34346" lon="6.79467">
        <ele>2521.9765625</ele>
      </trkpt>
      <trkpt lat="44.3434" lon="6.79467">
        <ele>2521.859375</ele>
      </trkpt>
      <trkpt lat="44.34334" lon="6.79468">
        <ele>2522.015625</ele>
      </trkpt>
      <trkpt lat="44.34329" lon="6.7947">
        <ele>2522.421875</ele>
      </trkpt>
      <trkpt lat="44.34325" lon="6.79473">
        <ele>2523.09765625</ele>
      </trkpt>
      <trkpt lat="44.34321" lon="6.79476">
        <ele>2523.66015625</ele>
      </trkpt>
      <trkpt lat="44.34296" lon="6.79514">
        <ele>2528.40234375</ele>
      </trkpt>
      <trkpt lat="44.34287" lon="6.79525">
        <ele>2529.17578125</ele>
      </trkpt>
      <trkpt lat="44.34281" lon="6.79529">
        <ele>2529.2109375</ele>
      </trkpt>
      <trkpt lat="44.34274" lon="6.79533">
        <ele>2528.9921875</ele>
      </trkpt>
      <trkpt lat="44.34269" lon="6.79536">
        <ele>2528.61328125</ele>
      </trkpt>
      <trkpt lat="44.34255" lon="6.79541">
        <ele>2527.546875</ele>
      </trkpt>
      <trkpt lat="44.3425" lon="6.79544">
        <ele>2527.26171875</ele>
      </trkpt>
      <trkpt lat="44.34247" lon="6.79548">
        <ele>2527.109375</ele>
      </trkpt>
      <trkpt lat="44.34246" lon="6.79555">
        <ele>2527.25</ele>
      </trkpt>
      <trkpt lat="44.34247" lon="6.7956">
        <ele>2527.5703125</ele>
      </trkpt>
      <trkpt lat="44.34249" lon="6.79563">
        <ele>2527.9375</ele>
      </trkpt>
      <trkpt lat="44.34253" lon="6.79566">
        <ele>2528.38671875</ele>
      </trkpt>
      <trkpt lat="44.34259" lon="6.79566">
        <ele>2529.11328125</ele>
      </trkpt>
      <trkpt lat="44.34265" lon="6.79567">
        <ele>2529.89453125</ele>
      </trkpt>
      <trkpt lat="44.3427" lon="6.79568">
        <ele>2530.4375</ele>
      </trkpt>
      <trkpt lat="44.34274" lon="6.79571">
        <ele>2531.109375</ele>
      </trkpt>
      <trkpt lat="44.34277" lon="6.79573">
        <ele>2531.609375</ele>
      </trkpt>
      <trkpt lat="44.34296" lon="6.79593">
        <ele>2535.1953125</ele>
      </trkpt>
      <trkpt lat="44.34302" lon="6.79603">
        <ele>2536.59765625</ele>
      </trkpt>
      <trkpt lat="44.34307" lon="6.79617">
        <ele>2538.15625</ele>
      </trkpt>
      <trkpt lat="44.34312" lon="6.79632">
        <ele>2539.73046875</ele>
      </trkpt>
      <trkpt lat="44.34317" lon="6.79647">
        <ele>2541.46875</ele>
      </trkpt>
      <trkpt lat="44.34321" lon="6.79659">
        <ele>2542.87890625</ele>
      </trkpt>
      <trkpt lat="44.34327" lon="6.7967">
        <ele>2544.359375</ele>
      </trkpt>
      <trkpt lat="44.34331" lon="6.79681">
        <ele>2545.83984375</ele>
      </trkpt>
      <trkpt lat="44.34335" lon="6.79692">
        <ele>2547.26171875</ele>
      </trkpt>
      <trkpt lat="44.3434" lon="6.79709">
        <ele>2548.875</ele>
      </trkpt>
      <trkpt lat="44.34343" lon="6.7972">
        <ele>2549.859375</ele>
      </trkpt>
      <trkpt lat="44.34347" lon="6.79729">
        <ele>2550.86328125</ele>
      </trkpt>
      <trkpt lat="44.3435" lon="6.79736">
        <ele>2551.67578125</ele>
      </trkpt>
      <trkpt lat="44.34356" lon="6.79748">
        <ele>2553.05078125</ele>
      </trkpt>
      <trkpt lat="44.34368" lon="6.79779">
        <ele>2557.6875</ele>
      </trkpt>
      <trkpt lat="44.34371" lon="6.79783">
        <ele>2558.46875</ele>
      </trkpt>
      <trkpt lat="44.34373" lon="6.79788">
        <ele>2559.26953125</ele>
      </trkpt>
      <trkpt lat="44.34374" lon="6.79796">
        <ele>2560.265625</ele>
      </trkpt>
      <trkpt lat="44.34375" lon="6.79803">
        <ele>2561.08203125</ele>
      </trkpt>
      <trkpt lat="44.34377" lon="6.79817">
        <ele>2562.81640625</ele>
      </trkpt>
      <trkpt lat="44.34379" lon="6.7982">
        <ele>2563.5703125</ele>
      </trkpt>
      <trkpt lat="44.34382" lon="6.79822">
        <ele>2564.4609375</ele>
      </trkpt>
      <trkpt lat="44.34386" lon="6.7982">
        <ele>2564.9609375</ele>
      </trkpt>
      <trkpt lat="44.34389" lon="6.79816">
        <ele>2565.26953125</ele>
      </trkpt>
      <trkpt lat="44.34391" lon="6.79811">
        <ele>2565.34765625</ele>
      </trkpt>
      <trkpt lat="44.34404" lon="6.79774">
        <ele>2563.69140625</ele>
      </trkpt>
      <trkpt lat="44.34405" lon="6.79767">
        <ele>2563.1015625</ele>
      </trkpt>
      <trkpt lat="44.34405" lon="6.79759">
        <ele>2562.0546875</ele>
      </trkpt>
      <trkpt lat="44.34404" lon="6.79749">
        <ele>2560.7734375</ele>
      </trkpt>
      <trkpt lat="44.34396" lon="6.79733">
        <ele>2558.04296875</ele>
      </trkpt>
      <trkpt lat="44.34388" lon="6.79716">
        <ele>2555.31640625</ele>
      </trkpt>
      <trkpt lat="44.34387" lon="6.79711">
        <ele>2554.8125</ele>
      </trkpt>
      <trkpt lat="44.34386" lon="6.79706">
        <ele>2554.2265625</ele>
      </trkpt>
      <trkpt lat="44.34386" lon="6.79698">
        <ele>2553.49609375</ele>
      </trkpt>
      <trkpt lat="44.34388" lon="6.79689">
        <ele>2552.8671875</ele>
      </trkpt>
      <trkpt lat="44.34392" lon="6.79685">
        <ele>2552.87890625</ele>
      </trkpt>
      <trkpt lat="44.34396" lon="6.79684">
        <ele>2553.21484375</ele>
      </trkpt>
      <trkpt lat="44.34402" lon="6.79689">
        <ele>2554.33984375</ele>
      </trkpt>
      <trkpt lat="44.34403" lon="6.79693">
        <ele>2554.90625</ele>
      </trkpt>
      <trkpt lat="44.34405" lon="6.79707">
        <ele>2556.59375</ele>
      </trkpt>
      <trkpt lat="44.34408" lon="6.79717">
        <ele>2558.0078125</ele>
      </trkpt>
      <trkpt lat="44.3441" lon="6.79723">
        <ele>2558.95703125</ele>
      </trkpt>
      <trkpt lat="44.34412" lon="6.79728">
        <ele>2559.65625</ele>
      </trkpt>
      <trkpt lat="44.34421" lon="6.79736">
        <ele>2561.59375</ele>
      </trkpt>
      <trkpt lat="44.34436" lon="6.79747">
        <ele>2564.67578125</ele>
      </trkpt>
      <trkpt lat="44.34445" lon="6.79751">
        <ele>2566.2890625</ele>
      </trkpt>
      <trkpt lat="44.34454" lon="6.79754">
        <ele>2567.97265625</ele>
      </trkpt>
      <trkpt lat="44.3446" lon="6.79759">
        <ele>2569.3359375</ele>
      </trkpt>
      <trkpt lat="44.34463" lon="6.79762">
        <ele>2570.2734375</ele>
      </trkpt>
      <trkpt lat="44.34469" lon="6.79781">
        <ele>2574.23046875</ele>
      </trkpt>
      <trkpt lat="44.34474" lon="6.79785">
        <ele>2575.4921875</ele>
      </trkpt>
      <trkpt lat="44.34479" lon="6.79789">
        <ele>2576.73828125</ele>
      </trkpt>
      <trkpt lat="44.34482" lon="6.79788">
        <ele>2576.9765625</ele>
      </trkpt>
      <trkpt lat="44.34487" lon="6.79785">
        <ele>2577.16015625</ele>
      </trkpt>
      <trkpt lat="44.34494" lon="6.7978">
        <ele>2577.16015625</ele>
      </trkpt>
      <trkpt lat="44.34502" lon="6.79772">
        <ele>2576.51171875</ele>
      </trkpt>
      <trkpt lat="44.3451" lon="6.79765">
        <ele>2576.3125</ele>
      </trkpt>
      <trkpt lat="44.34513" lon="6.79764">
        <ele>2576.48046875</ele>
      </trkpt>
      <trkpt lat="44.34517" lon="6.79765">
        <ele>2577.0625</ele>
      </trkpt>
      <trkpt lat="44.34522" lon="6.79769">
        <ele>2578.55859375</ele>
      </trkpt>
      <trkpt lat="44.34525" lon="6.79777">
        <ele>2580.51171875</ele>
      </trkpt>
      <trkpt lat="44.34525" lon="6.79782">
        <ele>2581.60546875</ele>
      </trkpt>
      <trkpt lat="44.34524" lon="6.79791">
        <ele>2583.19140625</ele>
      </trkpt>
      <trkpt lat="44.34522" lon="6.79795">
        <ele>2583.7109375</ele>
      </trkpt>
      <trkpt lat="44.3452" lon="6.79798">
        <ele>2584.01171875</ele>
      </trkpt>
      <trkpt lat="44.34517" lon="6.79802">
        <ele>2584.19921875</ele>
      </trkpt>
      <trkpt lat="44.34513" lon="6.79804">
        <ele>2584.1640625</ele>
      </trkpt>
      <trkpt lat="44.34494" lon="6.79816">
        <ele>2583.515625</ele>
      </trkpt>
      <trkpt lat="44.34484" lon="6.79818">
        <ele>2582.34375</ele>
      </trkpt>
      <trkpt lat="44.34476" lon="6.79822">
        <ele>2581.59375</ele>
      </trkpt>
      <trkpt lat="44.34467" lon="6.79827">
        <ele>2580.859375</ele>
      </trkpt>
      <trkpt lat="44.34464" lon="6.79831">
        <ele>2580.69921875</ele>
      </trkpt>
      <trkpt lat="44.34455" lon="6.79839">
        <ele>2580.2109375</ele>
      </trkpt>
      <trkpt lat="44.3445" lon="6.79846">
        <ele>2579.984375</ele>
      </trkpt>
      <trkpt lat="44.34439" lon="6.79858">
        <ele>2579.39453125</ele>
      </trkpt>
      <trkpt lat="44.34429" lon="6.79872">
        <ele>2578.94921875</ele>
      </trkpt>
      <trkpt lat="44.34426" lon="6.79877">
        <ele>2579.0390625</ele>
      </trkpt>
      <trkpt lat="44.34425" lon="6.79883">
        <ele>2579.609375</ele>
      </trkpt>
      <trkpt lat="44.34424" lon="6.79888">
        <ele>2580.03515625</ele>
      </trkpt>
      <trkpt lat="44.34424" lon="6.79894">
        <ele>2580.6953125</ele>
      </trkpt>
      <trkpt lat="44.34425" lon="6.79899">
        <ele>2581.6015625</ele>
      </trkpt>
      <trkpt lat="44.34432" lon="6.79919">
        <ele>2585.61328125</ele>
      </trkpt>
      <trkpt lat="44.34433" lon="6.79927">
        <ele>2587.5234375</ele>
      </trkpt>
      <trkpt lat="44.34434" lon="6.79935">
        <ele>2589.2734375</ele>
      </trkpt>
      <trkpt lat="44.34432" lon="6.79946">
        <ele>2591.0078125</ele>
      </trkpt>
      <trkpt lat="44.3443" lon="6.79961">
        <ele>2593.33203125</ele>
      </trkpt>
      <trkpt lat="44.3443" lon="6.79971">
        <ele>2595.19921875</ele>
      </trkpt>
      <trkpt lat="44.3443" lon="6.7998">
        <ele>2597.1015625</ele>
      </trkpt>
      <trkpt lat="44.3443" lon="6.79985">
        <ele>2598.39453125</ele>
      </trkpt>
      <trkpt lat="44.34429" lon="6.79991">
        <ele>2599.62890625</ele>
      </trkpt>
      <trkpt lat="44.34425" lon="6.8">
        <ele>2600.73828125</ele>
      </trkpt>
      <trkpt lat="44.34423" lon="6.80007">
        <ele>2601.63671875</ele>
      </trkpt>
      <trkpt lat="44.3442" lon="6.8001">
        <ele>2601.44140625</ele>
      </trkpt>
      <trkpt lat="44.34403" lon="6.80032">
        <ele>2602.25390625</ele>
      </trkpt>
      <trkpt lat="44.34399" lon="6.8004">
        <ele>2603.20703125</ele>
      </trkpt>
      <trkpt lat="44.34396" lon="6.80045">
        <ele>2604.046875</ele>
      </trkpt>
      <trkpt lat="44.34392" lon="6.80056">
        <ele>2605.66015625</ele>
      </trkpt>
      <trkpt lat="44.3439" lon="6.80067">
        <ele>2607.6875</ele>
      </trkpt>
      <trkpt lat="44.3438" lon="6.80099">
        <ele>2612.75390625</ele>
      </trkpt>
      <trkpt lat="44.34378" lon="6.80106">
        <ele>2613.90234375</ele>
      </trkpt>
      <trkpt lat="44.34375" lon="6.80115">
        <ele>2614.9375</ele>
      </trkpt>
      <trkpt lat="44.34371" lon="6.80123">
        <ele>2615.58203125</ele>
      </trkpt>
      <trkpt lat="44.34366" lon="6.80128">
        <ele>2615.2109375</ele>
      </trkpt>
      <trkpt lat="44.34362" lon="6.80132">
        <ele>2614.7890625</ele>
      </trkpt>
      <trkpt lat="44.34341" lon="6.80147">
        <ele>2612.5703125</ele>
      </trkpt>
      <trkpt lat="44.3433" lon="6.80155">
        <ele>2611.91015625</ele>
      </trkpt>
      <trkpt lat="44.34321" lon="6.80163">
        <ele>2611.8359375</ele>
      </trkpt>
      <trkpt lat="44.34312" lon="6.80174">
        <ele>2611.80859375</ele>
      </trkpt>
      <trkpt lat="44.34302" lon="6.80181">
        <ele>2610.9296875</ele>
      </trkpt>
      <trkpt lat="44.34294" lon="6.80186">
        <ele>2610.3359375</ele>
      </trkpt>
      <trkpt lat="44.34287" lon="6.8019">
        <ele>2610.2265625</ele>
      </trkpt>
      <trkpt lat="44.34258" lon="6.80203">
        <ele>2609.51171875</ele>
      </trkpt>
      <trkpt lat="44.34252" lon="6.80205">
        <ele>2609.23828125</ele>
      </trkpt>
      <trkpt lat="44.34246" lon="6.80205">
        <ele>2608.546875</ele>
      </trkpt>
      <trkpt lat="44.34241" lon="6.80204">
        <ele>2607.8203125</ele>
      </trkpt>
      <trkpt lat="44.34226" lon="6.80195">
        <ele>2605.703125</ele>
      </trkpt>
      <trkpt lat="44.34219" lon="6.80194">
        <ele>2605.4609375</ele>
      </trkpt>
      <trkpt lat="44.34212" lon="6.80193">
        <ele>2605.2109375</ele>
      </trkpt>
      <trkpt lat="44.34205" lon="6.80194">
        <ele>2605.44921875</ele>
      </trkpt>
      <trkpt lat="44.342" lon="6.80196">
        <ele>2605.9375</ele>
      </trkpt>
      <trkpt lat="44.34187" lon="6.80204">
        <ele>2607.6953125</ele>
      </trkpt>
      <trkpt lat="44.34181" lon="6.80207">
        <ele>2609.4921875</ele>
      </trkpt>
      <trkpt lat="44.34176" lon="6.80208">
        <ele>2610.4375</ele>
      </trkpt>
      <trkpt lat="44.34171" lon="6.80208">
        <ele>2611.30859375</ele>
      </trkpt>
      <trkpt lat="44.34158" lon="6.80205">
        <ele>2612.640625</ele>
      </trkpt>
      <trkpt lat="44.34138" lon="6.80199">
        <ele>2614.44140625</ele>
      </trkpt>
      <trkpt lat="44.34132" lon="6.80197">
        <ele>2615.05859375</ele>
      </trkpt>
      <trkpt lat="44.34126" lon="6.80196">
        <ele>2616.328125</ele>
      </trkpt>
      <trkpt lat="44.34119" lon="6.80192">
        <ele>2616.67578125</ele>
      </trkpt>
      <trkpt lat="44.34107" lon="6.80184">
        <ele>2616.3671875</ele>
      </trkpt>
      <trkpt lat="44.34099" lon="6.8018">
        <ele>2616.89453125</ele>
      </trkpt>
      <trkpt lat="44.34093" lon="6.80179">
        <ele>2617.9609375</ele>
      </trkpt>
      <trkpt lat="44.34069" lon="6.80177">
        <ele>2622.1953125</ele>
      </trkpt>
      <trkpt lat="44.34063" lon="6.80176">
        <ele>2622.9765625</ele>
      </trkpt>
      <trkpt lat="44.34055" lon="6.80173">
        <ele>2623.1484375</ele>
      </trkpt>
      <trkpt lat="44.34043" lon="6.80166">
        <ele>2623.03515625</ele>
      </trkpt>
      <trkpt lat="44.34035" lon="6.8016">
        <ele>2622.44140625</ele>
      </trkpt>
      <trkpt lat="44.33999" lon="6.80136">
        <ele>2618.33203125</ele>
      </trkpt>
      <trkpt lat="44.33995" lon="6.80134">
        <ele>2617.78515625</ele>
      </trkpt>
      <trkpt lat="44.33991" lon="6.80134">
        <ele>2618.046875</ele>
      </trkpt>
      <trkpt lat="44.33988" lon="6.80135">
        <ele>2618.6328125</ele>
      </trkpt>
      <trkpt lat="44.33984" lon="6.80138">
        <ele>2619.98828125</ele>
      </trkpt>
      <trkpt lat="44.3398" lon="6.80145">
        <ele>2622.27734375</ele>
      </trkpt>
      <trkpt lat="44.33974" lon="6.80157">
        <ele>2625.9140625</ele>
      </trkpt>
      <trkpt lat="44.33963" lon="6.80187">
        <ele>2634.04296875</ele>
      </trkpt>
      <trkpt lat="44.33958" lon="6.80196">
        <ele>2635.98046875</ele>
      </trkpt>
      <trkpt lat="44.33952" lon="6.80204">
        <ele>2636.2421875</ele>
      </trkpt>
      <trkpt lat="44.3393" lon="6.80222">
        <ele>2636.87890625</ele>
      </trkpt>
      <trkpt lat="44.33915" lon="6.80232">
        <ele>2637.828125</ele>
      </trkpt>
      <trkpt lat="44.3388" lon="6.80249">
        <ele>2643.75390625</ele>
      </trkpt>
      <trkpt lat="44.33876" lon="6.80251">
        <ele>2644.71875</ele>
      </trkpt>
      <trkpt lat="44.33873" lon="6.80251">
        <ele>2645</ele>
      </trkpt>
      <trkpt lat="44.33867" lon="6.8025">
        <ele>2645.15234375</ele>
      </trkpt>
      <trkpt lat="44.33862" lon="6.80249">
        <ele>2645.28125</ele>
      </trkpt>
      <trkpt lat="44.33837" lon="6.80234">
        <ele>2645.08203125</ele>
      </trkpt>
      <trkpt lat="44.33828" lon="6.80228">
        <ele>2645.20703125</ele>
      </trkpt>
      <trkpt lat="44.33819" lon="6.8022">
        <ele>2644.62890625</ele>
      </trkpt>
      <trkpt lat="44.33814" lon="6.80215">
        <ele>2643.9921875</ele>
      </trkpt>
      <trkpt lat="44.33801" lon="6.80206">
        <ele>2643.84375</ele>
      </trkpt>
      <trkpt lat="44.33769" lon="6.80191">
        <ele>2648.76953125</ele>
      </trkpt>
      <trkpt lat="44.33763" lon="6.80188">
        <ele>2649.421875</ele>
      </trkpt>
      <trkpt lat="44.33755" lon="6.80181">
        <ele>2650</ele>
      </trkpt>
      <trkpt lat="44.33746" lon="6.80175">
        <ele>2650.54296875</ele>
      </trkpt>
      <trkpt lat="44.33732" lon="6.80158">
        <ele>2648.4140625</ele>
      </trkpt>
      <trkpt lat="44.33718" lon="6.80141">
        <ele>2646.53515625</ele>
      </trkpt>
      <trkpt lat="44.33712" lon="6.80135">
        <ele>2646.96484375</ele>
      </trkpt>
      <trkpt lat="44.33705" lon="6.80131">
        <ele>2647.6328125</ele>
      </trkpt>
      <trkpt lat="44.33701" lon="6.80129">
        <ele>2648.24609375</ele>
      </trkpt>
      <trkpt lat="44.33696" lon="6.80128">
        <ele>2649.40625</ele>
      </trkpt>
      <trkpt lat="44.3369" lon="6.80128">
        <ele>2650.8359375</ele>
      </trkpt>
      <trkpt lat="44.33685" lon="6.80129">
        <ele>2651.609375</ele>
      </trkpt>
      <trkpt lat="44.33682" lon="6.80131">
        <ele>2651.75</ele>
      </trkpt>
      <trkpt lat="44.33678" lon="6.80134">
        <ele>2651.96875</ele>
      </trkpt>
      <trkpt lat="44.33673" lon="6.80143">
        <ele>2653.35546875</ele>
      </trkpt>
      <trkpt lat="44.33672" lon="6.80148">
        <ele>2654.53125</ele>
      </trkpt>
      <trkpt lat="44.33671" lon="6.80155">
        <ele>2655.9375</ele>
      </trkpt>
      <trkpt lat="44.3367" lon="6.80185">
        <ele>2663.04296875</ele>
      </trkpt>
      <trkpt lat="44.33671" lon="6.80226">
        <ele>2671.61328125</ele>
      </trkpt>
      <trkpt lat="44.33672" lon="6.8028">
        <ele>2679.4921875</ele>
      </trkpt>
      <trkpt lat="44.33672" lon="6.8029">
        <ele>2680.46875</ele>
      </trkpt>
      <trkpt lat="44.3367" lon="6.80305">
        <ele>2680.91796875</ele>
      </trkpt>
      <trkpt lat="44.3367" lon="6.80317">
        <ele>2681.74609375</ele>
      </trkpt>
      <trkpt lat="44.3367" lon="6.80331">
        <ele>2682.59375</ele>
      </trkpt>
      <trkpt lat="44.33668" lon="6.80367">
        <ele>2683.5546875</ele>
      </trkpt>
      <trkpt lat="44.33667" lon="6.80394">
        <ele>2683.94140625</ele>
      </trkpt>
      <trkpt lat="44.33666" lon="6.80405">
        <ele>2683.75</ele>
      </trkpt>
      <trkpt lat="44.33665" lon="6.80416">
        <ele>2683.59375</ele>
      </trkpt>
      <trkpt lat="44.33661" lon="6.80427">
        <ele>2681.8515625</ele>
      </trkpt>
      <trkpt lat="44.33658" lon="6.8044">
        <ele>2680.04296875</ele>
      </trkpt>
      <trkpt lat="44.33656" lon="6.80449">
        <ele>2678.87890625</ele>
      </trkpt>
      <trkpt lat="44.33655" lon="6.80458">
        <ele>2678.2890625</ele>
      </trkpt>
      <trkpt lat="44.33654" lon="6.80469">
        <ele>2677.71484375</ele>
      </trkpt>
      <trkpt lat="44.33654" lon="6.80475">
        <ele>2677.765625</ele>
      </trkpt>
      <trkpt lat="44.33655" lon="6.80481">
        <ele>2678.6328125</ele>
      </trkpt>
      <trkpt lat="44.33658" lon="6.80504">
        <ele>2681.69140625</ele>
      </trkpt>
      <trkpt lat="44.33658" lon="6.80516">
        <ele>2682.44140625</ele>
      </trkpt>
      <trkpt lat="44.33658" lon="6.80529">
        <ele>2683.2578125</ele>
      </trkpt>
      <trkpt lat="44.33657" lon="6.80537">
        <ele>2683.34375</ele>
      </trkpt>
      <trkpt lat="44.33651" lon="6.80592">
        <ele>2684.55078125</ele>
      </trkpt>
      <trkpt lat="44.33644" lon="6.80649">
        <ele>2684.5546875</ele>
      </trkpt>
      <trkpt lat="44.33639" lon="6.80711">
        <ele>2684.58984375</ele>
      </trkpt>
      <trkpt lat="44.33634" lon="6.80754">
        <ele>2684.88671875</ele>
      </trkpt>
      <trkpt lat="44.33631" lon="6.80764">
        <ele>2684.66015625</ele>
      </trkpt>
      <trkpt lat="44.33628" lon="6.80777">
        <ele>2684.42578125</ele>
      </trkpt>
      <trkpt lat="44.33621" lon="6.80795">
        <ele>2683.390625</ele>
      </trkpt>
      <trkpt lat="44.33613" lon="6.8081">
        <ele>2682.23828125</ele>
      </trkpt>
      <trkpt lat="44.33602" lon="6.80834">
        <ele>2679.83984375</ele>
      </trkpt>
      <trkpt lat="44.33591" lon="6.80857">
        <ele>2679.11328125</ele>
      </trkpt>
      <trkpt lat="44.3358" lon="6.80873">
        <ele>2677.52734375</ele>
      </trkpt>
      <trkpt lat="44.3357" lon="6.80891">
        <ele>2675.44921875</ele>
      </trkpt>
      <trkpt lat="44.33561" lon="6.80908">
        <ele>2674.3984375</ele>
      </trkpt>
      <trkpt lat="44.33543" lon="6.80941">
        <ele>2673.11328125</ele>
      </trkpt>
      <trkpt lat="44.33538" lon="6.8095">
        <ele>2673.1328125</ele>
      </trkpt>
      <trkpt lat="44.33532" lon="6.80958">
        <ele>2673.5625</ele>
      </trkpt>
      <trkpt lat="44.33525" lon="6.80965">
        <ele>2674.34375</ele>
      </trkpt>
      <trkpt lat="44.33514" lon="6.80972">
        <ele>2675.08203125</ele>
      </trkpt>
      <trkpt lat="44.33486" lon="6.81">
        <ele>2675.8125</ele>
      </trkpt>
      <trkpt lat="44.33478" lon="6.81005">
        <ele>2676.75</ele>
      </trkpt>
      <trkpt lat="44.33469" lon="6.81011">
        <ele>2678.09375</ele>
      </trkpt>
      <trkpt lat="44.33462" lon="6.81015">
        <ele>2678.96875</ele>
      </trkpt>
      <trkpt lat="44.33439" lon="6.81024">
        <ele>2680.1640625</ele>
      </trkpt>
      <trkpt lat="44.33421" lon="6.81032">
        <ele>2681.921875</ele>
      </trkpt>
      <trkpt lat="44.33413" lon="6.81039">
        <ele>2683.29296875</ele>
      </trkpt>
      <trkpt lat="44.33405" lon="6.81044">
        <ele>2684.6796875</ele>
      </trkpt>
      <trkpt lat="44.33396" lon="6.81049">
        <ele>2686.3046875</ele>
      </trkpt>
      <trkpt lat="44.33388" lon="6.81054">
        <ele>2687.91015625</ele>
      </trkpt>
      <trkpt lat="44.33375" lon="6.81058">
        <ele>2690.1171875</ele>
      </trkpt>
      <trkpt lat="44.33361" lon="6.81061">
        <ele>2692.3984375</ele>
      </trkpt>
      <trkpt lat="44.33346" lon="6.81064">
        <ele>2694.58984375</ele>
      </trkpt>
      <trkpt lat="44.33334" lon="6.81064">
        <ele>2695.36328125</ele>
      </trkpt>
      <trkpt lat="44.333" lon="6.81064">
        <ele>2697.60546875</ele>
      </trkpt>
      <trkpt lat="44.33296" lon="6.81064">
        <ele>2697.69921875</ele>
      </trkpt>
      <trkpt lat="44.33289" lon="6.81064">
        <ele>2697.7421875</ele>
      </trkpt>
      <trkpt lat="44.33277" lon="6.81065">
        <ele>2698.140625</ele>
      </trkpt>
      <trkpt lat="44.3327" lon="6.81068">
        <ele>2698.82421875</ele>
      </trkpt>
      <trkpt lat="44.33262" lon="6.81071">
        <ele>2699.81640625</ele>
      </trkpt>
      <trkpt lat="44.33258" lon="6.81073">
        <ele>2700.46484375</ele>
      </trkpt>
      <trkpt lat="44.33253" lon="6.81077">
        <ele>2701.734375</ele>
      </trkpt>
      <trkpt lat="44.33248" lon="6.8108">
        <ele>2702.6796875</ele>
      </trkpt>
      <trkpt lat="44.33243" lon="6.81082">
        <ele>2703</ele>
      </trkpt>
      <trkpt lat="44.33239" lon="6.81083">
        <ele>2703.39453125</ele>
      </trkpt>
      <trkpt lat="44.3323" lon="6.81082">
        <ele>2703.26171875</ele>
      </trkpt>
      <trkpt lat="44.33208" lon="6.81074">
        <ele>2701.7265625</ele>
      </trkpt>
      <trkpt lat="44.33199" lon="6.81071">
        <ele>2701.109375</ele>
      </trkpt>
      <trkpt lat="44.33193" lon="6.81067">
        <ele>2700.1875</ele>
      </trkpt>
      <trkpt lat="44.33186" lon="6.81062">
        <ele>2699.18359375</ele>
      </trkpt>
      <trkpt lat="44.33181" lon="6.81058">
        <ele>2697.96875</ele>
      </trkpt>
      <trkpt lat="44.33173" lon="6.8105">
        <ele>2696.171875</ele>
      </trkpt>
      <trkpt lat="44.33154" lon="6.81025">
        <ele>2692.1015625</ele>
      </trkpt>
      <trkpt lat="44.3313" lon="6.80995">
        <ele>2690.37109375</ele>
      </trkpt>
      <trkpt lat="44.33124" lon="6.80984">
        <ele>2690.0703125</ele>
      </trkpt>
      <trkpt lat="44.33115" lon="6.80973">
        <ele>2690.62109375</ele>
      </trkpt>
      <trkpt lat="44.33108" lon="6.80965">
        <ele>2690.7109375</ele>
      </trkpt>
      <trkpt lat="44.33081" lon="6.80939">
        <ele>2693.48046875</ele>
      </trkpt>
      <trkpt lat="44.33066" lon="6.80923">
        <ele>2696.25</ele>
      </trkpt>
      <trkpt lat="44.33034" lon="6.80881">
        <ele>2699.1875</ele>
      </trkpt>
      <trkpt lat="44.33024" lon="6.80868">
        <ele>2700.640625</ele>
      </trkpt>
      <trkpt lat="44.33016" lon="6.80856">
        <ele>2700.515625</ele>
      </trkpt>
      <trkpt lat="44.33002" lon="6.80842">
        <ele>2700.4921875</ele>
      </trkpt>
      <trkpt lat="44.32974" lon="6.80818">
        <ele>2702.73828125</ele>
      </trkpt>
      <trkpt lat="44.32965" lon="6.80812">
        <ele>2704.23046875</ele>
      </trkpt>
      <trkpt lat="44.32956" lon="6.80807">
        <ele>2704.80078125</ele>
      </trkpt>
      <trkpt lat="44.32943" lon="6.80803">
        <ele>2705.6796875</ele>
      </trkpt>
      <trkpt lat="44.32925" lon="6.80794">
        <ele>2705.94140625</ele>
      </trkpt>
      <trkpt lat="44.3291" lon="6.80788">
        <ele>2706.79296875</ele>
      </trkpt>
      <trkpt lat="44.32889" lon="6.80781">
        <ele>2706.578125</ele>
      </trkpt>
      <trkpt lat="44.3288" lon="6.80779">
        <ele>2706.73828125</ele>
      </trkpt>
      <trkpt lat="44.32872" lon="6.80778">
        <ele>2707.28125</ele>
      </trkpt>
      <trkpt lat="44.32859" lon="6.80778">
        <ele>2708.58984375</ele>
      </trkpt>
      <trkpt lat="44.32846" lon="6.80779">
        <ele>2709.328125</ele>
      </trkpt>
      <trkpt lat="44.32828" lon="6.80784">
        <ele>2710.60546875</ele>
      </trkpt>
      <trkpt lat="44.3281" lon="6.80788">
        <ele>2711.17578125</ele>
      </trkpt>
      <trkpt lat="44.32778" lon="6.80796">
        <ele>2708.9765625</ele>
      </trkpt>
      <trkpt lat="44.3277" lon="6.80797">
        <ele>2707.57421875</ele>
      </trkpt>
      <trkpt lat="44.32762" lon="6.80796">
        <ele>2706.0234375</ele>
      </trkpt>
      <trkpt lat="44.32756" lon="6.80794">
        <ele>2704.5390625</ele>
      </trkpt>
      <trkpt lat="44.32752" lon="6.80792">
        <ele>2703.46875</ele>
      </trkpt>
      <trkpt lat="44.32722" lon="6.80775">
        <ele>2695.94140625</ele>
      </trkpt>
      <trkpt lat="44.32673" lon="6.80745">
        <ele>2689.92578125</ele>
      </trkpt>
      <trkpt lat="44.32665" lon="6.80754">
        <ele>2690.0078125</ele>
      </trkpt>
      <trkpt lat="44.32655" lon="6.80754">
        <ele>2689.1484375</ele>
      </trkpt>
      <trkpt lat="44.3262" lon="6.80711">
        <ele>2692.72265625</ele>
      </trkpt>
      <trkpt lat="44.32597" lon="6.8069">
        <ele>2697.29296875</ele>
      </trkpt>
      <trkpt lat="44.32551" lon="6.80677">
        <ele>2702.0390625</ele>
      </trkpt>
      <trkpt lat="44.3251" lon="6.80672">
        <ele>2705.33984375</ele>
      </trkpt>
      <trkpt lat="44.32479" lon="6.80675">
        <ele>2706.76953125</ele>
      </trkpt>
      <trkpt lat="44.32463" lon="6.80679">
        <ele>2707.33984375</ele>
      </trkpt>
      <trkpt lat="44.32431" lon="6.80685">
        <ele>2711.51953125</ele>
      </trkpt>
      <trkpt lat="44.32383" lon="6.80712">
        <ele>2713.33203125</ele>
      </trkpt>
      <trkpt lat="44.32351" lon="6.80723">
        <ele>2720.95703125</ele>
      </trkpt>
      <trkpt lat="44.32321" lon="6.80741">
        <ele>2725.83203125</ele>
      </trkpt>
      <trkpt lat="44.32321" lon="6.80742">
        <ele>2725.25</ele>
      </trkpt>
      <trkpt lat="44.32288" lon="6.80773">
        <ele>2728.953125</ele>
      </trkpt>
      <trkpt lat="44.32269" lon="6.80786">
        <ele>2733.59375</ele>
      </trkpt>
      <trkpt lat="44.32244" lon="6.80828">
        <ele>2733.953125</ele>
      </trkpt>
      <trkpt lat="44.32224" lon="6.80846">
        <ele>2740.5546875</ele>
      </trkpt>
      <trkpt lat="44.32201" lon="6.80892">
        <ele>2740.7109375</ele>
      </trkpt>
      <trkpt lat="44.32156" lon="6.80957">
        <ele>2745.07421875</ele>
      </trkpt>
      <trkpt lat="44.32124" lon="6.80892">
        <ele>2776.9296875</ele>
      </trkpt>
      <trkpt lat="44.32078" lon="6.80825">
        <ele>2791.3359375</ele>
      </trkpt>
      <trkpt lat="44.32066" lon="6.80775">
        <ele>2803.328125</ele>
      </trkpt>
      <trkpt lat="44.32043" lon="6.80732">
        <ele>2802.99609375</ele>
      </trkpt>
      <trkpt lat="44.32066" lon="6.80667">
        <ele>2820.6171875</ele>
      </trkpt>
      <trkpt lat="44.32074" lon="6.80641">
        <ele>2824.16796875</ele>
      </trkpt>
      <trkpt lat="44.32076" lon="6.80628">
        <ele>2823.59375</ele>
      </trkpt>
      <trkpt lat="44.32076" lon="6.80621">
        <ele>2822.171875</ele>
      </trkpt>
      <trkpt lat="44.32075" lon="6.80613">
        <ele>2820.25</ele>
      </trkpt>
      <trkpt lat="44.32068" lon="6.80598">
        <ele>2813.9375</ele>
      </trkpt>
      <trkpt lat="44.32061" lon="6.80575">
        <ele>2806.1875</ele>
      </trkpt>
      <trkpt lat="44.32059" lon="6.80567">
        <ele>2804.03515625</ele>
      </trkpt>
      <trkpt lat="44.32054" lon="6.80548">
        <ele>2799.92578125</ele>
      </trkpt>
      <trkpt lat="44.32051" lon="6.80533">
        <ele>2797.0078125</ele>
      </trkpt>
      <trkpt lat="44.32049" lon="6.80518">
        <ele>2794.140625</ele>
      </trkpt>
      <trkpt lat="44.32047" lon="6.80508">
        <ele>2791.87890625</ele>
      </trkpt>
      <trkpt lat="44.32047" lon="6.80501">
        <ele>2791.09765625</ele>
      </trkpt>
      <trkpt lat="44.32045" lon="6.8049">
        <ele>2789.125</ele>
      </trkpt>
      <trkpt lat="44.32042" lon="6.80483">
        <ele>2787.69921875</ele>
      </trkpt>
      <trkpt lat="44.32038" lon="6.80471">
        <ele>2784.76171875</ele>
      </trkpt>
      <trkpt lat="44.32035" lon="6.80464">
        <ele>2781.6875</ele>
      </trkpt>
      <trkpt lat="44.32034" lon="6.80456">
        <ele>2779.15625</ele>
      </trkpt>
      <trkpt lat="44.32033" lon="6.80451">
        <ele>2777.359375</ele>
      </trkpt>
      <trkpt lat="44.32033" lon="6.80442">
        <ele>2774.73828125</ele>
      </trkpt>
      <trkpt lat="44.32036" lon="6.80436">
        <ele>2772.91796875</ele>
      </trkpt>
      <trkpt lat="44.32039" lon="6.80435">
        <ele>2772.703125</ele>
      </trkpt>
      <trkpt lat="44.32042" lon="6.80432">
        <ele>2772.078125</ele>
      </trkpt>
      <trkpt lat="44.32047" lon="6.80431">
        <ele>2771.80859375</ele>
      </trkpt>
      <trkpt lat="44.32052" lon="6.80432">
        <ele>2772.375</ele>
      </trkpt>
      <trkpt lat="44.32061" lon="6.80435">
        <ele>2773.5859375</ele>
      </trkpt>
      <trkpt lat="44.32068" lon="6.80439">
        <ele>2775.94140625</ele>
      </trkpt>
      <trkpt lat="44.32068" lon="6.80439">
        <ele>2775.94140625</ele>
      </trkpt>
      <trkpt lat="44.32077" lon="6.80446">
        <ele>2780.375</ele>
      </trkpt>
      <trkpt lat="44.32081" lon="6.80449">
        <ele>2781.14453125</ele>
      </trkpt>
      <trkpt lat="44.32089" lon="6.80452">
        <ele>2782.015625</ele>
      </trkpt>
      <trkpt lat="44.32097" lon="6.80454">
        <ele>2782.20703125</ele>
      </trkpt>
      <trkpt lat="44.32106" lon="6.80455">
        <ele>2781.83984375</ele>
      </trkpt>
      <trkpt lat="44.32118" lon="6.80453">
        <ele>2779.4453125</ele>
      </trkpt>
      <trkpt lat="44.32126" lon="6.80453">
        <ele>2778.515625</ele>
      </trkpt>
      <trkpt lat="44.32133" lon="6.80454">
        <ele>2778.3828125</ele>
      </trkpt>
      <trkpt lat="44.3215" lon="6.80456">
        <ele>2772.46484375</ele>
      </trkpt>
      <trkpt lat="44.32154" lon="6.80456">
        <ele>2770.68359375</ele>
      </trkpt>
      <trkpt lat="44.32163" lon="6.80455">
        <ele>2766.625</ele>
      </trkpt>
      <trkpt lat="44.32173" lon="6.80451">
        <ele>2760.296875</ele>
      </trkpt>
      <trkpt lat="44.32181" lon="6.8045">
        <ele>2756.796875</ele>
      </trkpt>
      <trkpt lat="44.32188" lon="6.80451">
        <ele>2754.22265625</ele>
      </trkpt>
      <trkpt lat="44.322" lon="6.80455">
        <ele>2748.984375</ele>
      </trkpt>
      <trkpt lat="44.32206" lon="6.8046">
        <ele>2748.01953125</ele>
      </trkpt>
      <trkpt lat="44.32212" lon="6.80467">
        <ele>2746.859375</ele>
      </trkpt>
      <trkpt lat="44.32231" lon="6.805">
        <ele>2748.37890625</ele>
      </trkpt>
      <trkpt lat="44.32246" lon="6.8053">
        <ele>2752.01953125</ele>
      </trkpt>
      <trkpt lat="44.32251" lon="6.80535">
        <ele>2752.22265625</ele>
      </trkpt>
      <trkpt lat="44.32255" lon="6.8054">
        <ele>2752.015625</ele>
      </trkpt>
      <trkpt lat="44.32258" lon="6.80543">
        <ele>2751.8671875</ele>
      </trkpt>
      <trkpt lat="44.32261" lon="6.80545">
        <ele>2751.29296875</ele>
      </trkpt>
      <trkpt lat="44.32274" lon="6.80546">
        <ele>2745.99609375</ele>
      </trkpt>
      <trkpt lat="44.32286" lon="6.80546">
        <ele>2740.74609375</ele>
      </trkpt>
      <trkpt lat="44.32289" lon="6.80547">
        <ele>2739.75390625</ele>
      </trkpt>
      <trkpt lat="44.32295" lon="6.8055">
        <ele>2738.6953125</ele>
      </trkpt>
      <trkpt lat="44.32302" lon="6.80557">
        <ele>2738.20703125</ele>
      </trkpt>
      <trkpt lat="44.3231" lon="6.80567">
        <ele>2739.42578125</ele>
      </trkpt>
      <trkpt lat="44.32319" lon="6.80576">
        <ele>2739.953125</ele>
      </trkpt>
      <trkpt lat="44.32335" lon="6.80591">
        <ele>2739.46484375</ele>
      </trkpt>
      <trkpt lat="44.32341" lon="6.80596">
        <ele>2738.59765625</ele>
      </trkpt>
      <trkpt lat="44.32362" lon="6.80608">
        <ele>2734.54296875</ele>
      </trkpt>
      <trkpt lat="44.32366" lon="6.80612">
        <ele>2734</ele>
      </trkpt>
      <trkpt lat="44.32373" lon="6.80616">
        <ele>2733.02734375</ele>
      </trkpt>
      <trkpt lat="44.32379" lon="6.80618">
        <ele>2731.51953125</ele>
      </trkpt>
      <trkpt lat="44.32387" lon="6.8062">
        <ele>2729.65625</ele>
      </trkpt>
      <trkpt lat="44.32393" lon="6.8062">
        <ele>2727.61328125</ele>
      </trkpt>
      <trkpt lat="44.32407" lon="6.80619">
        <ele>2722.93359375</ele>
      </trkpt>
      <trkpt lat="44.32417" lon="6.80619">
        <ele>2720.5234375</ele>
      </trkpt>
      <trkpt lat="44.3243" lon="6.80621">
        <ele>2718.2421875</ele>
      </trkpt>
      <trkpt lat="44.32441" lon="6.80626">
        <ele>2716.92578125</ele>
      </trkpt>
      <trkpt lat="44.32467" lon="6.80638">
        <ele>2714.390625</ele>
      </trkpt>
      <trkpt lat="44.32473" lon="6.80644">
        <ele>2714.1015625</ele>
      </trkpt>
      <trkpt lat="44.3248" lon="6.80648">
        <ele>2712.82421875</ele>
      </trkpt>
      <trkpt lat="44.32488" lon="6.8065">
        <ele>2711.98828125</ele>
      </trkpt>
      <trkpt lat="44.32496" lon="6.80651">
        <ele>2711.33984375</ele>
      </trkpt>
      <trkpt lat="44.32507" lon="6.80648">
        <ele>2711.66796875</ele>
      </trkpt>
      <trkpt lat="44.32519" lon="6.80642">
        <ele>2712.8828125</ele>
      </trkpt>
      <trkpt lat="44.3254" lon="6.80623">
        <ele>2707.78125</ele>
      </trkpt>
      <trkpt lat="44.32548" lon="6.80618">
        <ele>2705.92578125</ele>
      </trkpt>
      <trkpt lat="44.32559" lon="6.80608">
        <ele>2702.9921875</ele>
      </trkpt>
      <trkpt lat="44.32563" lon="6.80607">
        <ele>2702.21875</ele>
      </trkpt>
      <trkpt lat="44.32568" lon="6.80607">
        <ele>2701.4453125</ele>
      </trkpt>
      <trkpt lat="44.32571" lon="6.80609">
        <ele>2701.2890625</ele>
      </trkpt>
      <trkpt lat="44.32575" lon="6.80614">
        <ele>2701.4453125</ele>
      </trkpt>
      <trkpt lat="44.32596" lon="6.80658">
        <ele>2698.1171875</ele>
      </trkpt>
      <trkpt lat="44.32609" lon="6.80679">
        <ele>2695.4921875</ele>
      </trkpt>
      <trkpt lat="44.32614" lon="6.80685">
        <ele>2694.91796875</ele>
      </trkpt>
      <trkpt lat="44.32621" lon="6.80689">
        <ele>2694.3828125</ele>
      </trkpt>
      <trkpt lat="44.32626" lon="6.80692">
        <ele>2694.0859375</ele>
      </trkpt>
      <trkpt lat="44.32638" lon="6.80697">
        <ele>2692.46875</ele>
      </trkpt>
      <trkpt lat="44.32645" lon="6.80702">
        <ele>2690.3671875</ele>
      </trkpt>
      <trkpt lat="44.3265" lon="6.80707">
        <ele>2689.33984375</ele>
      </trkpt>
      <trkpt lat="44.32653" lon="6.8071">
        <ele>2688.73828125</ele>
      </trkpt>
      <trkpt lat="44.32658" lon="6.80721">
        <ele>2688.29296875</ele>
      </trkpt>
      <trkpt lat="44.32663" lon="6.80727">
        <ele>2688.28125</ele>
      </trkpt>
      <trkpt lat="44.32667" lon="6.80732">
        <ele>2688.390625</ele>
      </trkpt>
      <trkpt lat="44.3267" lon="6.8074">
        <ele>2689.28125</ele>
      </trkpt>
      <trkpt lat="44.32677" lon="6.80743">
        <ele>2689.63671875</ele>
      </trkpt>
      <trkpt lat="44.32722" lon="6.80775">
        <ele>2695.94140625</ele>
      </trkpt>
      <trkpt lat="44.32752" lon="6.80792">
        <ele>2703.46875</ele>
      </trkpt>
      <trkpt lat="44.32756" lon="6.80794">
        <ele>2704.5390625</ele>
      </trkpt>
      <trkpt lat="44.32762" lon="6.80796">
        <ele>2706.0234375</ele>
      </trkpt>
      <trkpt lat="44.3277" lon="6.80797">
        <ele>2707.57421875</ele>
      </trkpt>
      <trkpt lat="44.32778" lon="6.80796">
        <ele>2708.9765625</ele>
      </trkpt>
      <trkpt lat="44.3281" lon="6.80788">
        <ele>2711.17578125</ele>
      </trkpt>
      <trkpt lat="44.32828" lon="6.80784">
        <ele>2710.60546875</ele>
      </trkpt>
      <trkpt lat="44.32846" lon="6.80779">
        <ele>2709.328125</ele>
      </trkpt>
      <trkpt lat="44.32859" lon="6.80778">
        <ele>2708.58984375</ele>
      </trkpt>
      <trkpt lat="44.32872" lon="6.80778">
        <ele>2707.28125</ele>
      </trkpt>
      <trkpt lat="44.3288" lon="6.80779">
        <ele>2706.73828125</ele>
      </trkpt>
      <trkpt lat="44.32889" lon="6.80781">
        <ele>2706.578125</ele>
      </trkpt>
      <trkpt lat="44.3291" lon="6.80788">
        <ele>2706.79296875</ele>
      </trkpt>
      <trkpt lat="44.32925" lon="6.80794">
        <ele>2705.94140625</ele>
      </trkpt>
      <trkpt lat="44.32943" lon="6.80803">
        <ele>2705.6796875</ele>
      </trkpt>
      <trkpt lat="44.32956" lon="6.80807">
        <ele>2704.80078125</ele>
      </trkpt>
      <trkpt lat="44.32965" lon="6.80812">
        <ele>2704.23046875</ele>
      </trkpt>
      <trkpt lat="44.32974" lon="6.80818">
        <ele>2702.73828125</ele>
      </trkpt>
      <trkpt lat="44.33002" lon="6.80842">
        <ele>2700.4921875</ele>
      </trkpt>
      <trkpt lat="44.33016" lon="6.80856">
        <ele>2700.515625</ele>
      </trkpt>
      <trkpt lat="44.33024" lon="6.80868">
        <ele>2700.640625</ele>
      </trkpt>
      <trkpt lat="44.33034" lon="6.80881">
        <ele>2699.1875</ele>
      </trkpt>
      <trkpt lat="44.33066" lon="6.80923">
        <ele>2696.25</ele>
      </trkpt>
      <trkpt lat="44.33081" lon="6.80939">
        <ele>2693.48046875</ele>
      </trkpt>
      <trkpt lat="44.33108" lon="6.80965">
        <ele>2690.7109375</ele>
      </trkpt>
      <trkpt lat="44.33115" lon="6.80973">
        <ele>2690.62109375</ele>
      </trkpt>
      <trkpt lat="44.33124" lon="6.80984">
        <ele>2690.0703125</ele>
      </trkpt>
      <trkpt lat="44.3313" lon="6.80995">
        <ele>2690.37109375</ele>
      </trkpt>
      <trkpt lat="44.33154" lon="6.81025">
        <ele>2692.1015625</ele>
      </trkpt>
      <trkpt lat="44.33173" lon="6.8105">
        <ele>2696.171875</ele>
      </trkpt>
      <trkpt lat="44.33181" lon="6.81058">
        <ele>2697.96875</ele>
      </trkpt>
      <trkpt lat="44.33186" lon="6.81062">
        <ele>2699.18359375</ele>
      </trkpt>
      <trkpt lat="44.33193" lon="6.81067">
        <ele>2700.1875</ele>
      </trkpt>
      <trkpt lat="44.33199" lon="6.81071">
        <ele>2701.109375</ele>
      </trkpt>
      <trkpt lat="44.33208" lon="6.81074">
        <ele>2701.7265625</ele>
      </trkpt>
      <trkpt lat="44.3323" lon="6.81082">
        <ele>2703.26171875</ele>
      </trkpt>
      <trkpt lat="44.33239" lon="6.81083">
        <ele>2703.39453125</ele>
      </trkpt>
      <trkpt lat="44.33243" lon="6.81082">
        <ele>2703</ele>
      </trkpt>
      <trkpt lat="44.33248" lon="6.8108">
        <ele>2702.6796875</ele>
      </trkpt>
      <trkpt lat="44.33253" lon="6.81077">
        <ele>2701.734375</ele>
      </trkpt>
      <trkpt lat="44.33258" lon="6.81073">
        <ele>2700.46484375</ele>
      </trkpt>
      <trkpt lat="44.33262" lon="6.81071">
        <ele>2699.81640625</ele>
      </trkpt>
      <trkpt lat="44.3327" lon="6.81068">
        <ele>2698.82421875</ele>
      </trkpt>
      <trkpt lat="44.33277" lon="6.81065">
        <ele>2698.140625</ele>
      </trkpt>
      <trkpt lat="44.33289" lon="6.81064">
        <ele>2697.7421875</ele>
      </trkpt>
      <trkpt lat="44.33296" lon="6.81064">
        <ele>2697.69921875</ele>
      </trkpt>
      <trkpt lat="44.333" lon="6.81064">
        <ele>2697.60546875</ele>
      </trkpt>
      <trkpt lat="44.33334" lon="6.81064">
        <ele>2695.36328125</ele>
      </trkpt>
      <trkpt lat="44.33346" lon="6.81064">
        <ele>2694.58984375</ele>
      </trkpt>
      <trkpt lat="44.33361" lon="6.81061">
        <ele>2692.3984375</ele>
      </trkpt>
      <trkpt lat="44.33375" lon="6.81058">
        <ele>2690.1171875</ele>
      </trkpt>
      <trkpt lat="44.33388" lon="6.81054">
        <ele>2687.91015625</ele>
      </trkpt>
      <trkpt lat="44.33396" lon="6.81049">
        <ele>2686.3046875</ele>
      </trkpt>
      <trkpt lat="44.33405" lon="6.81044">
        <ele>2684.6796875</ele>
      </trkpt>
      <trkpt lat="44.33413" lon="6.81039">
        <ele>2683.29296875</ele>
      </trkpt>
      <trkpt lat="44.33421" lon="6.81032">
        <ele>2681.921875</ele>
      </trkpt>
      <trkpt lat="44.33439" lon="6.81024">
        <ele>2680.1640625</ele>
      </trkpt>
      <trkpt lat="44.33462" lon="6.81015">
        <ele>2678.96875</ele>
      </trkpt>
      <trkpt lat="44.33469" lon="6.81011">
        <ele>2678.09375</ele>
      </trkpt>
      <trkpt lat="44.33478" lon="6.81005">
        <ele>2676.75</ele>
      </trkpt>
      <trkpt lat="44.33486" lon="6.81">
        <ele>2675.8125</ele>
      </trkpt>
      <trkpt lat="44.33514" lon="6.80972">
        <ele>2675.08203125</ele>
      </trkpt>
      <trkpt lat="44.33525" lon="6.80965">
        <ele>2674.34375</ele>
      </trkpt>
      <trkpt lat="44.33532" lon="6.80958">
        <ele>2673.5625</ele>
      </trkpt>
      <trkpt lat="44.33538" lon="6.8095">
        <ele>2673.1328125</ele>
      </trkpt>
      <trkpt lat="44.33543" lon="6.80941">
        <ele>2673.11328125</ele>
      </trkpt>
      <trkpt lat="44.33561" lon="6.80908">
        <ele>2674.3984375</ele>
      </trkpt>
      <trkpt lat="44.3357" lon="6.80891">
        <ele>2675.44921875</ele>
      </trkpt>
      <trkpt lat="44.3358" lon="6.80873">
        <ele>2677.52734375</ele>
      </trkpt>
      <trkpt lat="44.33591" lon="6.80857">
        <ele>2679.11328125</ele>
      </trkpt>
      <trkpt lat="44.33602" lon="6.80834">
        <ele>2679.83984375</ele>
      </trkpt>
      <trkpt lat="44.33613" lon="6.8081">
        <ele>2682.23828125</ele>
      </trkpt>
      <trkpt lat="44.33621" lon="6.80795">
        <ele>2683.390625</ele>
      </trkpt>
      <trkpt lat="44.33628" lon="6.80777">
        <ele>2684.42578125</ele>
      </trkpt>
      <trkpt lat="44.33631" lon="6.80764">
        <ele>2684.66015625</ele>
      </trkpt>
      <trkpt lat="44.33634" lon="6.80754">
        <ele>2684.88671875</ele>
      </trkpt>
      <trkpt lat="44.33639" lon="6.80711">
        <ele>2684.58984375</ele>
      </trkpt>
      <trkpt lat="44.33644" lon="6.80649">
        <ele>2684.5546875</ele>
      </trkpt>
      <trkpt lat="44.33651" lon="6.80592">
        <ele>2684.55078125</ele>
      </trkpt>
      <trkpt lat="44.33657" lon="6.80537">
        <ele>2683.34375</ele>
      </trkpt>
      <trkpt lat="44.33658" lon="6.80529">
        <ele>2683.2578125</ele>
      </trkpt>
      <trkpt lat="44.33658" lon="6.80516">
        <ele>2682.44140625</ele>
      </trkpt>
      <trkpt lat="44.33658" lon="6.80504">
        <ele>2681.69140625</ele>
      </trkpt>
      <trkpt lat="44.33655" lon="6.80481">
        <ele>2678.6328125</ele>
      </trkpt>
      <trkpt lat="44.33654" lon="6.80475">
        <ele>2677.765625</ele>
      </trkpt>
      <trkpt lat="44.33654" lon="6.80469">
        <ele>2677.71484375</ele>
      </trkpt>
      <trkpt lat="44.33655" lon="6.80458">
        <ele>2678.2890625</ele>
      </trkpt>
      <trkpt lat="44.33656" lon="6.80449">
        <ele>2678.87890625</ele>
      </trkpt>
      <trkpt lat="44.33658" lon="6.8044">
        <ele>2680.04296875</ele>
      </trkpt>
      <trkpt lat="44.33661" lon="6.80427">
        <ele>2681.8515625</ele>
      </trkpt>
      <trkpt lat="44.33665" lon="6.80416">
        <ele>2683.59375</ele>
      </trkpt>
      <trkpt lat="44.33666" lon="6.80405">
        <ele>2683.75</ele>
      </trkpt>
      <trkpt lat="44.33667" lon="6.80394">
        <ele>2683.94140625</ele>
      </trkpt>
      <trkpt lat="44.33668" lon="6.80367">
        <ele>2683.5546875</ele>
      </trkpt>
      <trkpt lat="44.3367" lon="6.80331">
        <ele>2682.59375</ele>
      </trkpt>
      <trkpt lat="44.3367" lon="6.80317">
        <ele>2681.74609375</ele>
      </trkpt>
      <trkpt lat="44.3367" lon="6.80305">
        <ele>2680.91796875</ele>
      </trkpt>
      <trkpt lat="44.33672" lon="6.8029">
        <ele>2680.46875</ele>
      </trkpt>
      <trkpt lat="44.33672" lon="6.8028">
        <ele>2679.4921875</ele>
      </trkpt>
      <trkpt lat="44.33671" lon="6.80226">
        <ele>2671.61328125</ele>
      </trkpt>
      <trkpt lat="44.3367" lon="6.80185">
        <ele>2663.04296875</ele>
      </trkpt>
      <trkpt lat="44.33671" lon="6.80155">
        <ele>2655.9375</ele>
      </trkpt>
      <trkpt lat="44.33672" lon="6.80148">
        <ele>2654.53125</ele>
      </trkpt>
      <trkpt lat="44.33673" lon="6.80143">
        <ele>2653.35546875</ele>
      </trkpt>
      <trkpt lat="44.33678" lon="6.80134">
        <ele>2651.96875</ele>
      </trkpt>
      <trkpt lat="44.33682" lon="6.80131">
        <ele>2651.75</ele>
      </trkpt>
      <trkpt lat="44.33685" lon="6.80129">
        <ele>2651.609375</ele>
      </trkpt>
      <trkpt lat="44.3369" lon="6.80128">
        <ele>2650.8359375</ele>
      </trkpt>
      <trkpt lat="44.33696" lon="6.80128">
        <ele>2649.40625</ele>
      </trkpt>
      <trkpt lat="44.33701" lon="6.80129">
        <ele>2648.24609375</ele>
      </trkpt>
      <trkpt lat="44.33705" lon="6.80131">
        <ele>2647.6328125</ele>
      </trkpt>
      <trkpt lat="44.33712" lon="6.80135">
        <ele>2646.96484375</ele>
      </trkpt>
      <trkpt lat="44.33718" lon="6.80141">
        <ele>2646.53515625</ele>
      </trkpt>
      <trkpt lat="44.33732" lon="6.80158">
        <ele>2648.4140625</ele>
      </trkpt>
      <trkpt lat="44.33746" lon="6.80175">
        <ele>2650.54296875</ele>
      </trkpt>
      <trkpt lat="44.33755" lon="6.80181">
        <ele>2650</ele>
      </trkpt>
      <trkpt lat="44.33763" lon="6.80188">
        <ele>2649.421875</ele>
      </trkpt>
      <trkpt lat="44.33769" lon="6.80191">
        <ele>2648.76953125</ele>
      </trkpt>
      <trkpt lat="44.33801" lon="6.80206">
        <ele>2643.84375</ele>
      </trkpt>
      <trkpt lat="44.33814" lon="6.80215">
        <ele>2643.9921875</ele>
      </trkpt>
      <trkpt lat="44.33819" lon="6.8022">
        <ele>2644.62890625</ele>
      </trkpt>
      <trkpt lat="44.33828" lon="6.80228">
        <ele>2645.20703125</ele>
      </trkpt>
      <trkpt lat="44.33837" lon="6.80234">
        <ele>2645.08203125</ele>
      </trkpt>
      <trkpt lat="44.33862" lon="6.80249">
        <ele>2645.28125</ele>
      </trkpt>
      <trkpt lat="44.33867" lon="6.8025">
        <ele>2645.15234375</ele>
      </trkpt>
      <trkpt lat="44.33873" lon="6.80251">
        <ele>2645</ele>
      </trkpt>
      <trkpt lat="44.33876" lon="6.80251">
        <ele>2644.71875</ele>
      </trkpt>
      <trkpt lat="44.3388" lon="6.80249">
        <ele>2643.75390625</ele>
      </trkpt>
      <trkpt lat="44.33915" lon="6.80232">
        <ele>2637.828125</ele>
      </trkpt>
      <trkpt lat="44.3393" lon="6.80222">
        <ele>2636.87890625</ele>
      </trkpt>
      <trkpt lat="44.33952" lon="6.80204">
        <ele>2636.2421875</ele>
      </trkpt>
      <trkpt lat="44.33958" lon="6.80196">
        <ele>2635.98046875</ele>
      </trkpt>
      <trkpt lat="44.33963" lon="6.80187">
        <ele>2634.04296875</ele>
      </trkpt>
      <trkpt lat="44.33974" lon="6.80157">
        <ele>2625.9140625</ele>
      </trkpt>
      <trkpt lat="44.3398" lon="6.80145">
        <ele>2622.27734375</ele>
      </trkpt>
      <trkpt lat="44.33984" lon="6.80138">
        <ele>2619.98828125</ele>
      </trkpt>
      <trkpt lat="44.33988" lon="6.80135">
        <ele>2618.6328125</ele>
      </trkpt>
      <trkpt lat="44.33991" lon="6.80134">
        <ele>2618.046875</ele>
      </trkpt>
      <trkpt lat="44.33995" lon="6.80134">
        <ele>2617.78515625</ele>
      </trkpt>
      <trkpt lat="44.33999" lon="6.80136">
        <ele>2618.33203125</ele>
      </trkpt>
      <trkpt lat="44.34035" lon="6.8016">
        <ele>2622.44140625</ele>
      </trkpt>
      <trkpt lat="44.34043" lon="6.80166">
        <ele>2623.03515625</ele>
      </trkpt>
      <trkpt lat="44.34055" lon="6.80173">
        <ele>2623.1484375</ele>
      </trkpt>
      <trkpt lat="44.34063" lon="6.80176">
        <ele>2622.9765625</ele>
      </trkpt>
      <trkpt lat="44.34069" lon="6.80177">
        <ele>2622.1953125</ele>
      </trkpt>
      <trkpt lat="44.34093" lon="6.80179">
        <ele>2617.9609375</ele>
      </trkpt>
      <trkpt lat="44.34099" lon="6.8018">
        <ele>2616.89453125</ele>
      </trkpt>
      <trkpt lat="44.34107" lon="6.80184">
        <ele>2616.3671875</ele>
      </trkpt>
      <trkpt lat="44.34119" lon="6.80192">
        <ele>2616.67578125</ele>
      </trkpt>
      <trkpt lat="44.34126" lon="6.80196">
        <ele>2616.328125</ele>
      </trkpt>
      <trkpt lat="44.34132" lon="6.80197">
        <ele>2615.05859375</ele>
      </trkpt>
      <trkpt lat="44.34138" lon="6.80199">
        <ele>2614.44140625</ele>
      </trkpt>
      <trkpt lat="44.34158" lon="6.80205">
        <ele>2612.640625</ele>
      </trkpt>
      <trkpt lat="44.34171" lon="6.80208">
        <ele>2611.30859375</ele>
      </trkpt>
      <trkpt lat="44.34176" lon="6.80208">
        <ele>2610.4375</ele>
      </trkpt>
      <trkpt lat="44.34181" lon="6.80207">
        <ele>2609.4921875</ele>
      </trkpt>
      <trkpt lat="44.34187" lon="6.80204">
        <ele>2607.6953125</ele>
      </trkpt>
      <trkpt lat="44.342" lon="6.80196">
        <ele>2605.9375</ele>
      </trkpt>
      <trkpt lat="44.34205" lon="6.80194">
        <ele>2605.44921875</ele>
      </trkpt>
      <trkpt lat="44.34212" lon="6.80193">
        <ele>2605.2109375</ele>
      </trkpt>
      <trkpt lat="44.34219" lon="6.80194">
        <ele>2605.4609375</ele>
      </trkpt>
      <trkpt lat="44.34226" lon="6.80195">
        <ele>2605.703125</ele>
      </trkpt>
      <trkpt lat="44.34241" lon="6.80204">
        <ele>2607.8203125</ele>
      </trkpt>
      <trkpt lat="44.34246" lon="6.80205">
        <ele>2608.546875</ele>
      </trkpt>
      <trkpt lat="44.34252" lon="6.80205">
        <ele>2609.23828125</ele>
      </trkpt>
      <trkpt lat="44.34258" lon="6.80203">
        <ele>2609.51171875</ele>
      </trkpt>
      <trkpt lat="44.34287" lon="6.8019">
        <ele>2610.2265625</ele>
      </trkpt>
      <trkpt lat="44.34294" lon="6.80186">
        <ele>2610.3359375</ele>
      </trkpt>
      <trkpt lat="44.34302" lon="6.80181">
        <ele>2610.9296875</ele>
      </trkpt>
      <trkpt lat="44.34312" lon="6.80174">
        <ele>2611.80859375</ele>
      </trkpt>
      <trkpt lat="44.34321" lon="6.80163">
        <ele>2611.8359375</ele>
      </trkpt>
      <trkpt lat="44.3433" lon="6.80155">
        <ele>2611.91015625</ele>
      </trkpt>
      <trkpt lat="44.34341" lon="6.80147">
        <ele>2612.5703125</ele>
      </trkpt>
      <trkpt lat="44.34362" lon="6.80132">
        <ele>2614.7890625</ele>
      </trkpt>
      <trkpt lat="44.34366" lon="6.80128">
        <ele>2615.2109375</ele>
      </trkpt>
      <trkpt lat="44.34371" lon="6.80123">
        <ele>2615.58203125</ele>
      </trkpt>
      <trkpt lat="44.34375" lon="6.80115">
        <ele>2614.9375</ele>
      </trkpt>
      <trkpt lat="44.34378" lon="6.80106">
        <ele>2613.90234375</ele>
      </trkpt>
      <trkpt lat="44.3438" lon="6.80099">
        <ele>2612.75390625</ele>
      </trkpt>
      <trkpt lat="44.3439" lon="6.80067">
        <ele>2607.6875</ele>
      </trkpt>
      <trkpt lat="44.34392" lon="6.80056">
        <ele>2605.66015625</ele>
      </trkpt>
      <trkpt lat="44.34396" lon="6.80045">
        <ele>2604.046875</ele>
      </trkpt>
      <trkpt lat="44.34399" lon="6.8004">
        <ele>2603.20703125</ele>
      </trkpt>
      <trkpt lat="44.34403" lon="6.80032">
        <ele>2602.25390625</ele>
      </trkpt>
      <trkpt lat="44.3442" lon="6.8001">
        <ele>2601.44140625</ele>
      </trkpt>
      <trkpt lat="44.34423" lon="6.80007">
        <ele>2601.63671875</ele>
      </trkpt>
      <trkpt lat="44.34425" lon="6.8">
        <ele>2600.73828125</ele>
      </trkpt>
      <trkpt lat="44.34429" lon="6.79991">
        <ele>2599.62890625</ele>
      </trkpt>
      <trkpt lat="44.3443" lon="6.79985">
        <ele>2598.39453125</ele>
      </trkpt>
      <trkpt lat="44.3443" lon="6.7998">
        <ele>2597.1015625</ele>
      </trkpt>
      <trkpt lat="44.3443" lon="6.79971">
        <ele>2595.19921875</ele>
      </trkpt>
      <trkpt lat="44.3443" lon="6.79961">
        <ele>2593.33203125</ele>
      </trkpt>
      <trkpt lat="44.34432" lon="6.79946">
        <ele>2591.0078125</ele>
      </trkpt>
      <trkpt lat="44.34434" lon="6.79935">
        <ele>2589.2734375</ele>
      </trkpt>
      <trkpt lat="44.34433" lon="6.79927">
        <ele>2587.5234375</ele>
      </trkpt>
      <trkpt lat="44.34432" lon="6.79919">
        <ele>2585.61328125</ele>
      </trkpt>
      <trkpt lat="44.34425" lon="6.79899">
        <ele>2581.6015625</ele>
      </trkpt>
      <trkpt lat="44.34424" lon="6.79894">
        <ele>2580.6953125</ele>
      </trkpt>
      <trkpt lat="44.34424" lon="6.79888">
        <ele>2580.03515625</ele>
      </trkpt>
      <trkpt lat="44.34425" lon="6.79883">
        <ele>2579.609375</ele>
      </trkpt>
      <trkpt lat="44.34426" lon="6.79877">
        <ele>2579.0390625</ele>
      </trkpt>
      <trkpt lat="44.34429" lon="6.79872">
        <ele>2578.94921875</ele>
      </trkpt>
      <trkpt lat="44.34439" lon="6.79858">
        <ele>2579.39453125</ele>
      </trkpt>
      <trkpt lat="44.3445" lon="6.79846">
        <ele>2579.984375</ele>
      </trkpt>
      <trkpt lat="44.34455" lon="6.79839">
        <ele>2580.2109375</ele>
      </trkpt>
      <trkpt lat="44.34464" lon="6.79831">
        <ele>2580.69921875</ele>
      </trkpt>
      <trkpt lat="44.34467" lon="6.79827">
        <ele>2580.859375</ele>
      </trkpt>
      <trkpt lat="44.34476" lon="6.79822">
        <ele>2581.59375</ele>
      </trkpt>
      <trkpt lat="44.34484" lon="6.79818">
        <ele>2582.34375</ele>
      </trkpt>
      <trkpt lat="44.34494" lon="6.79816">
        <ele>2583.515625</ele>
      </trkpt>
      <trkpt lat="44.34513" lon="6.79804">
        <ele>2584.1640625</ele>
      </trkpt>
      <trkpt lat="44.34517" lon="6.79802">
        <ele>2584.19921875</ele>
      </trkpt>
      <trkpt lat="44.3452" lon="6.79798">
        <ele>2584.01171875</ele>
      </trkpt>
      <trkpt lat="44.34522" lon="6.79795">
        <ele>2583.7109375</ele>
      </trkpt>
      <trkpt lat="44.34524" lon="6.79791">
        <ele>2583.19140625</ele>
      </trkpt>
      <trkpt lat="44.34525" lon="6.79782">
        <ele>2581.60546875</ele>
      </trkpt>
      <trkpt lat="44.34525" lon="6.79777">
        <ele>2580.51171875</ele>
      </trkpt>
      <trkpt lat="44.34522" lon="6.79769">
        <ele>2578.55859375</ele>
      </trkpt>
      <trkpt lat="44.34517" lon="6.79765">
        <ele>2577.0625</ele>
      </trkpt>
      <trkpt lat="44.34513" lon="6.79764">
        <ele>2576.48046875</ele>
      </trkpt>
      <trkpt lat="44.3451" lon="6.79765">
        <ele>2576.3125</ele>
      </trkpt>
      <trkpt lat="44.34502" lon="6.79772">
        <ele>2576.51171875</ele>
      </trkpt>
      <trkpt lat="44.34494" lon="6.7978">
        <ele>2577.16015625</ele>
      </trkpt>
      <trkpt lat="44.34487" lon="6.79785">
        <ele>2577.16015625</ele>
      </trkpt>
      <trkpt lat="44.34482" lon="6.79788">
        <ele>2576.9765625</ele>
      </trkpt>
      <trkpt lat="44.34479" lon="6.79789">
        <ele>2576.73828125</ele>
      </trkpt>
      <trkpt lat="44.34474" lon="6.79785">
        <ele>2575.4921875</ele>
      </trkpt>
      <trkpt lat="44.34469" lon="6.79781">
        <ele>2574.23046875</ele>
      </trkpt>
      <trkpt lat="44.34463" lon="6.79762">
        <ele>2570.2734375</ele>
      </trkpt>
      <trkpt lat="44.3446" lon="6.79759">
        <ele>2569.3359375</ele>
      </trkpt>
      <trkpt lat="44.34454" lon="6.79754">
        <ele>2567.97265625</ele>
      </trkpt>
      <trkpt lat="44.34445" lon="6.79751">
        <ele>2566.2890625</ele>
      </trkpt>
      <trkpt lat="44.34436" lon="6.79747">
        <ele>2564.67578125</ele>
      </trkpt>
      <trkpt lat="44.34421" lon="6.79736">
        <ele>2561.59375</ele>
      </trkpt>
      <trkpt lat="44.34412" lon="6.79728">
        <ele>2559.65625</ele>
      </trkpt>
      <trkpt lat="44.3441" lon="6.79723">
        <ele>2558.95703125</ele>
      </trkpt>
      <trkpt lat="44.34408" lon="6.79717">
        <ele>2558.0078125</ele>
      </trkpt>
      <trkpt lat="44.34405" lon="6.79707">
        <ele>2556.59375</ele>
      </trkpt>
      <trkpt lat="44.34403" lon="6.79693">
        <ele>2554.90625</ele>
      </trkpt>
      <trkpt lat="44.34402" lon="6.79689">
        <ele>2554.33984375</ele>
      </trkpt>
      <trkpt lat="44.34396" lon="6.79684">
        <ele>2553.21484375</ele>
      </trkpt>
      <trkpt lat="44.34392" lon="6.79685">
        <ele>2552.87890625</ele>
      </trkpt>
      <trkpt lat="44.34388" lon="6.79689">
        <ele>2552.8671875</ele>
      </trkpt>
      <trkpt lat="44.34386" lon="6.79698">
        <ele>2553.49609375</ele>
      </trkpt>
      <trkpt lat="44.34386" lon="6.79706">
        <ele>2554.2265625</ele>
      </trkpt>
      <trkpt lat="44.34387" lon="6.79711">
        <ele>2554.8125</ele>
      </trkpt>
      <trkpt lat="44.34388" lon="6.79716">
        <ele>2555.31640625</ele>
      </trkpt>
      <trkpt lat="44.34396" lon="6.79733">
        <ele>2558.04296875</ele>
      </trkpt>
      <trkpt lat="44.34404" lon="6.79749">
        <ele>2560.7734375</ele>
      </trkpt>
      <trkpt lat="44.34405" lon="6.79759">
        <ele>2562.0546875</ele>
      </trkpt>
      <trkpt lat="44.34405" lon="6.79767">
        <ele>2563.1015625</ele>
      </trkpt>
      <trkpt lat="44.34404" lon="6.79774">
        <ele>2563.69140625</ele>
      </trkpt>
      <trkpt lat="44.34391" lon="6.79811">
        <ele>2565.34765625</ele>
      </trkpt>
      <trkpt lat="44.34389" lon="6.79816">
        <ele>2565.26953125</ele>
      </trkpt>
      <trkpt lat="44.34386" lon="6.7982">
        <ele>2564.9609375</ele>
      </trkpt>
      <trkpt lat="44.34382" lon="6.79822">
        <ele>2564.4609375</ele>
      </trkpt>
      <trkpt lat="44.34379" lon="6.7982">
        <ele>2563.5703125</ele>
      </trkpt>
      <trkpt lat="44.34377" lon="6.79817">
        <ele>2562.81640625</ele>
      </trkpt>
      <trkpt lat="44.34375" lon="6.79803">
        <ele>2561.08203125</ele>
      </trkpt>
      <trkpt lat="44.34374" lon="6.79796">
        <ele>2560.265625</ele>
      </trkpt>
      <trkpt lat="44.34373" lon="6.79788">
        <ele>2559.26953125</ele>
      </trkpt>
      <trkpt lat="44.34371" lon="6.79783">
        <ele>2558.46875</ele>
      </trkpt>
      <trkpt lat="44.34368" lon="6.79779">
        <ele>2557.6875</ele>
      </trkpt>
      <trkpt lat="44.34356" lon="6.79748">
        <ele>2553.05078125</ele>
      </trkpt>
      <trkpt lat="44.3435" lon="6.79736">
        <ele>2551.67578125</ele>
      </trkpt>
      <trkpt lat="44.34347" lon="6.79729">
        <ele>2550.86328125</ele>
      </trkpt>
      <trkpt lat="44.34343" lon="6.7972">
        <ele>2549.859375</ele>
      </trkpt>
      <trkpt lat="44.3434" lon="6.79709">
        <ele>2548.875</ele>
      </trkpt>
      <trkpt lat="44.34335" lon="6.79692">
        <ele>2547.26171875</ele>
      </trkpt>
      <trkpt lat="44.34331" lon="6.79681">
        <ele>2545.83984375</ele>
      </trkpt>
      <trkpt lat="44.34327" lon="6.7967">
        <ele>2544.359375</ele>
      </trkpt>
      <trkpt lat="44.34321" lon="6.79659">
        <ele>2542.87890625</ele>
      </trkpt>
      <trkpt lat="44.34317" lon="6.79647">
        <ele>2541.46875</ele>
      </trkpt>
      <trkpt lat="44.34312" lon="6.79632">
        <ele>2539.73046875</ele>
      </trkpt>
      <trkpt lat="44.34307" lon="6.79617">
        <ele>2538.15625</ele>
      </trkpt>
      <trkpt lat="44.34302" lon="6.79603">
        <ele>2536.59765625</ele>
      </trkpt>
      <trkpt lat="44.34296" lon="6.79593">
        <ele>2535.1953125</ele>
      </trkpt>
      <trkpt lat="44.34277" lon="6.79573">
        <ele>2531.609375</ele>
      </trkpt>
      <trkpt lat="44.34274" lon="6.79571">
        <ele>2531.109375</ele>
      </trkpt>
      <trkpt lat="44.3427" lon="6.79568">
        <ele>2530.4375</ele>
      </trkpt>
      <trkpt lat="44.34265" lon="6.79567">
        <ele>2529.89453125</ele>
      </trkpt>
      <trkpt lat="44.34259" lon="6.79566">
        <ele>2529.11328125</ele>
      </trkpt>
      <trkpt lat="44.34253" lon="6.79566">
        <ele>2528.38671875</ele>
      </trkpt>
      <trkpt lat="44.34249" lon="6.79563">
        <ele>2527.9375</ele>
      </trkpt>
      <trkpt lat="44.34247" lon="6.7956">
        <ele>2527.5703125</ele>
      </trkpt>
      <trkpt lat="44.34246" lon="6.79555">
        <ele>2527.25</ele>
      </trkpt>
      <trkpt lat="44.34247" lon="6.79548">
        <ele>2527.109375</ele>
      </trkpt>
      <trkpt lat="44.3425" lon="6.79544">
        <ele>2527.26171875</ele>
      </trkpt>
      <trkpt lat="44.34255" lon="6.79541">
        <ele>2527.546875</ele>
      </trkpt>
      <trkpt lat="44.34269" lon="6.79536">
        <ele>2528.61328125</ele>
      </trkpt>
      <trkpt lat="44.34274" lon="6.79533">
        <ele>2528.9921875</ele>
      </trkpt>
      <trkpt lat="44.34281" lon="6.79529">
        <ele>2529.2109375</ele>
      </trkpt>
      <trkpt lat="44.34287" lon="6.79525">
        <ele>2529.17578125</ele>
      </trkpt>
      <trkpt lat="44.34296" lon="6.79514">
        <ele>2528.40234375</ele>
      </trkpt>
      <trkpt lat="44.34321" lon="6.79476">
        <ele>2523.66015625</ele>
      </trkpt>
      <trkpt lat="44.34325" lon="6.79473">
        <ele>2523.09765625</ele>
      </trkpt>
      <trkpt lat="44.34329" lon="6.7947">
        <ele>2522.421875</ele>
      </trkpt>
      <trkpt lat="44.34334" lon="6.79468">
        <ele>2522.015625</ele>
      </trkpt>
      <trkpt lat="44.3434" lon="6.79467">
        <ele>2521.859375</ele>
      </trkpt>
      <trkpt lat="44.34346" lon="6.79467">
        <ele>2521.9765625</ele>
      </trkpt>
      <trkpt lat="44.34371" lon="6.79469">
        <ele>2523.1953125</ele>
      </trkpt>
      <trkpt lat="44.34387" lon="6.79469">
        <ele>2523.7421875</ele>
      </trkpt>
      <trkpt lat="44.3439" lon="6.79466">
        <ele>2523.0625</ele>
      </trkpt>
      <trkpt lat="44.34392" lon="6.79463">
        <ele>2522.33984375</ele>
      </trkpt>
      <trkpt lat="44.34393" lon="6.79458">
        <ele>2521.3125</ele>
      </trkpt>
      <trkpt lat="44.34393" lon="6.79453">
        <ele>2519.98828125</ele>
      </trkpt>
      <trkpt lat="44.34393" lon="6.79448">
        <ele>2518.6640625</ele>
      </trkpt>
      <trkpt lat="44.34391" lon="6.79443">
        <ele>2517.55078125</ele>
      </trkpt>
      <trkpt lat="44.34388" lon="6.79439">
        <ele>2516.4140625</ele>
      </trkpt>
      <trkpt lat="44.34385" lon="6.79437">
        <ele>2515.8125</ele>
      </trkpt>
      <trkpt lat="44.3438" lon="6.79436">
        <ele>2515.44921875</ele>
      </trkpt>
      <trkpt lat="44.34362" lon="6.79438">
        <ele>2515.53125</ele>
      </trkpt>
      <trkpt lat="44.34353" lon="6.79437">
        <ele>2515.078125</ele>
      </trkpt>
      <trkpt lat="44.34332" lon="6.79423">
        <ele>2511.42578125</ele>
      </trkpt>
      <trkpt lat="44.34326" lon="6.79422">
        <ele>2511.05859375</ele>
      </trkpt>
      <trkpt lat="44.34319" lon="6.79422">
        <ele>2510.94140625</ele>
      </trkpt>
      <trkpt lat="44.34294" lon="6.79428">
        <ele>2511.734375</ele>
      </trkpt>
      <trkpt lat="44.34253" lon="6.79437">
        <ele>2509.9765625</ele>
      </trkpt>
      <trkpt lat="44.34208" lon="6.79451">
        <ele>2507.55859375</ele>
      </trkpt>
      <trkpt lat="44.342" lon="6.79454">
        <ele>2507.24609375</ele>
      </trkpt>
      <trkpt lat="44.34194" lon="6.79459">
        <ele>2507.53125</ele>
      </trkpt>
      <trkpt lat="44.34189" lon="6.79466">
        <ele>2508.33203125</ele>
      </trkpt>
      <trkpt lat="44.34184" lon="6.79471">
        <ele>2508.55859375</ele>
      </trkpt>
      <trkpt lat="44.34179" lon="6.79475">
        <ele>2508.37109375</ele>
      </trkpt>
      <trkpt lat="44.34173" lon="6.79478">
        <ele>2507.609375</ele>
      </trkpt>
      <trkpt lat="44.34159" lon="6.79482">
        <ele>2505.54296875</ele>
      </trkpt>
      <trkpt lat="44.34146" lon="6.79484">
        <ele>2503.43359375</ele>
      </trkpt>
      <trkpt lat="44.3414" lon="6.79483">
        <ele>2502.03125</ele>
      </trkpt>
      <trkpt lat="44.34134" lon="6.79481">
        <ele>2500.42578125</ele>
      </trkpt>
      <trkpt lat="44.34129" lon="6.79478">
        <ele>2499.1015625</ele>
      </trkpt>
      <trkpt lat="44.34111" lon="6.79448">
        <ele>2490.90625</ele>
      </trkpt>
      <trkpt lat="44.34106" lon="6.79438">
        <ele>2488.4296875</ele>
      </trkpt>
      <trkpt lat="44.34102" lon="6.7943">
        <ele>2486.6640625</ele>
      </trkpt>
      <trkpt lat="44.341" lon="6.79423">
        <ele>2485.0703125</ele>
      </trkpt>
      <trkpt lat="44.34096" lon="6.79404">
        <ele>2481.2734375</ele>
      </trkpt>
      <trkpt lat="44.34093" lon="6.79387">
        <ele>2478.28125</ele>
      </trkpt>
      <trkpt lat="44.34088" lon="6.79378">
        <ele>2476.2890625</ele>
      </trkpt>
      <trkpt lat="44.34082" lon="6.79369">
        <ele>2474.3359375</ele>
      </trkpt>
      <trkpt lat="44.34072" lon="6.79361">
        <ele>2472.1875</ele>
      </trkpt>
      <trkpt lat="44.34068" lon="6.79357">
        <ele>2471.3203125</ele>
      </trkpt>
      <trkpt lat="44.34063" lon="6.79356">
        <ele>2470.60546875</ele>
      </trkpt>
      <trkpt lat="44.34056" lon="6.79355">
        <ele>2469.7734375</ele>
      </trkpt>
      <trkpt lat="44.34036" lon="6.79356">
        <ele>2467.70703125</ele>
      </trkpt>
      <trkpt lat="44.34027" lon="6.79356">
        <ele>2466.77734375</ele>
      </trkpt>
      <trkpt lat="44.34017" lon="6.79354">
        <ele>2465.203125</ele>
      </trkpt>
      <trkpt lat="44.34009" lon="6.79351">
        <ele>2463.71484375</ele>
      </trkpt>
      <trkpt lat="44.34005" lon="6.79349">
        <ele>2462.82421875</ele>
      </trkpt>
      <trkpt lat="44.34002" lon="6.79346">
        <ele>2461.95703125</ele>
      </trkpt>
      <trkpt lat="44.33998" lon="6.7934">
        <ele>2460.81640625</ele>
      </trkpt>
      <trkpt lat="44.33996" lon="6.79335">
        <ele>2459.83203125</ele>
      </trkpt>
      <trkpt lat="44.33995" lon="6.7933">
        <ele>2459</ele>
      </trkpt>
      <trkpt lat="44.33995" lon="6.79323">
        <ele>2458.1875</ele>
      </trkpt>
      <trkpt lat="44.33996" lon="6.79317">
        <ele>2457.53125</ele>
      </trkpt>
      <trkpt lat="44.33999" lon="6.79309">
        <ele>2457.046875</ele>
      </trkpt>
      <trkpt lat="44.34004" lon="6.79297">
        <ele>2456.4375</ele>
      </trkpt>
      <trkpt lat="44.34009" lon="6.79288">
        <ele>2456.18359375</ele>
      </trkpt>
      <trkpt lat="44.34018" lon="6.79274">
        <ele>2455.8671875</ele>
      </trkpt>
      <trkpt lat="44.34034" lon="6.79251">
        <ele>2455.24609375</ele>
      </trkpt>
      <trkpt lat="44.34038" lon="6.79245">
        <ele>2455.015625</ele>
      </trkpt>
      <trkpt lat="44.34043" lon="6.79235">
        <ele>2454.55078125</ele>
      </trkpt>
      <trkpt lat="44.34047" lon="6.79227">
        <ele>2453.97265625</ele>
      </trkpt>
      <trkpt lat="44.34056" lon="6.79207">
        <ele>2452.92578125</ele>
      </trkpt>
      <trkpt lat="44.34075" lon="6.79173">
        <ele>2451.6171875</ele>
      </trkpt>
      <trkpt lat="44.34082" lon="6.79146">
        <ele>2449.71484375</ele>
      </trkpt>
      <trkpt lat="44.34083" lon="6.79135">
        <ele>2448.87109375</ele>
      </trkpt>
      <trkpt lat="44.34083" lon="6.79121">
        <ele>2447.76953125</ele>
      </trkpt>
      <trkpt lat="44.34082" lon="6.79083">
        <ele>2444.91796875</ele>
      </trkpt>
      <trkpt lat="44.34082" lon="6.79068">
        <ele>2444.55859375</ele>
      </trkpt>
      <trkpt lat="44.34082" lon="6.79052">
        <ele>2444.1796875</ele>
      </trkpt>
      <trkpt lat="44.34082" lon="6.79036">
        <ele>2443.796875</ele>
      </trkpt>
      <trkpt lat="44.34078" lon="6.79017">
        <ele>2443.4375</ele>
      </trkpt>
      <trkpt lat="44.34076" lon="6.79006">
        <ele>2442.9453125</ele>
      </trkpt>
      <trkpt lat="44.34075" lon="6.78994">
        <ele>2442.203125</ele>
      </trkpt>
      <trkpt lat="44.34075" lon="6.78986">
        <ele>2441.921875</ele>
      </trkpt>
      <trkpt lat="44.34076" lon="6.7898">
        <ele>2442.00390625</ele>
      </trkpt>
      <trkpt lat="44.34079" lon="6.78967">
        <ele>2441.19140625</ele>
      </trkpt>
      <trkpt lat="44.34081" lon="6.7896">
        <ele>2440.61328125</ele>
      </trkpt>
      <trkpt lat="44.34088" lon="6.78944">
        <ele>2439.39453125</ele>
      </trkpt>
      <trkpt lat="44.34094" lon="6.78926">
        <ele>2438.3515625</ele>
      </trkpt>
      <trkpt lat="44.34093" lon="6.78921">
        <ele>2437.96484375</ele>
      </trkpt>
      <trkpt lat="44.3409" lon="6.78918">
        <ele>2437.38671875</ele>
      </trkpt>
      <trkpt lat="44.34086" lon="6.78916">
        <ele>2437.0234375</ele>
      </trkpt>
      <trkpt lat="44.34081" lon="6.78918">
        <ele>2436.890625</ele>
      </trkpt>
      <trkpt lat="44.34078" lon="6.7892">
        <ele>2437.0859375</ele>
      </trkpt>
      <trkpt lat="44.34076" lon="6.78924">
        <ele>2437.22265625</ele>
      </trkpt>
      <trkpt lat="44.34064" lon="6.78945">
        <ele>2435.54296875</ele>
      </trkpt>
      <trkpt lat="44.34048" lon="6.78988">
        <ele>2434.1328125</ele>
      </trkpt>
      <trkpt lat="44.34042" lon="6.79003">
        <ele>2433.59375</ele>
      </trkpt>
      <trkpt lat="44.34037" lon="6.79017">
        <ele>2433.1328125</ele>
      </trkpt>
      <trkpt lat="44.34034" lon="6.7903">
        <ele>2433.2734375</ele>
      </trkpt>
      <trkpt lat="44.34031" lon="6.79045">
        <ele>2433.62109375</ele>
      </trkpt>
      <trkpt lat="44.34027" lon="6.79062">
        <ele>2434.265625</ele>
      </trkpt>
      <trkpt lat="44.34026" lon="6.79071">
        <ele>2434.75</ele>
      </trkpt>
      <trkpt lat="44.34023" lon="6.79081">
        <ele>2434.9453125</ele>
      </trkpt>
      <trkpt lat="44.3402" lon="6.7909">
        <ele>2435.25</ele>
      </trkpt>
      <trkpt lat="44.34017" lon="6.79097">
        <ele>2435.08203125</ele>
      </trkpt>
      <trkpt lat="44.34012" lon="6.79107">
        <ele>2435.26171875</ele>
      </trkpt>
      <trkpt lat="44.33995" lon="6.79137">
        <ele>2435.31640625</ele>
      </trkpt>
      <trkpt lat="44.3399" lon="6.79145">
        <ele>2435.28515625</ele>
      </trkpt>
      <trkpt lat="44.33982" lon="6.7915">
        <ele>2434.48046875</ele>
      </trkpt>
      <trkpt lat="44.33976" lon="6.79154">
        <ele>2433.64453125</ele>
      </trkpt>
      <trkpt lat="44.33943" lon="6.7916">
        <ele>2426.51953125</ele>
      </trkpt>
      <trkpt lat="44.3389" lon="6.79171">
        <ele>2415.703125</ele>
      </trkpt>
      <trkpt lat="44.33881" lon="6.79173">
        <ele>2414.19140625</ele>
      </trkpt>
      <trkpt lat="44.33874" lon="6.79176">
        <ele>2413.15234375</ele>
      </trkpt>
      <trkpt lat="44.33859" lon="6.79185">
        <ele>2411.453125</ele>
      </trkpt>
      <trkpt lat="44.33852" lon="6.79188">
        <ele>2410.85546875</ele>
      </trkpt>
      <trkpt lat="44.33846" lon="6.79192">
        <ele>2411.3203125</ele>
      </trkpt>
      <trkpt lat="44.3384" lon="6.79195">
        <ele>2411.55078125</ele>
      </trkpt>
      <trkpt lat="44.33831" lon="6.79199">
        <ele>2411.671875</ele>
      </trkpt>
      <trkpt lat="44.3382" lon="6.79201">
        <ele>2411.45703125</ele>
      </trkpt>
      <trkpt lat="44.33817" lon="6.79202">
        <ele>2411.51171875</ele>
      </trkpt>
      <trkpt lat="44.33814" lon="6.79201">
        <ele>2411.0078125</ele>
      </trkpt>
      <trkpt lat="44.33808" lon="6.79199">
        <ele>2410.0703125</ele>
      </trkpt>
      <trkpt lat="44.33805" lon="6.79194">
        <ele>2408.84375</ele>
      </trkpt>
      <trkpt lat="44.33801" lon="6.7919">
        <ele>2407.609375</ele>
      </trkpt>
      <trkpt lat="44.33798" lon="6.79185">
        <ele>2406.50390625</ele>
      </trkpt>
      <trkpt lat="44.33796" lon="6.79179">
        <ele>2405.94921875</ele>
      </trkpt>
      <trkpt lat="44.33793" lon="6.79173">
        <ele>2405.15234375</ele>
      </trkpt>
      <trkpt lat="44.33792" lon="6.79166">
        <ele>2404.05078125</ele>
      </trkpt>
      <trkpt lat="44.3379" lon="6.79145">
        <ele>2399.94921875</ele>
      </trkpt>
      <trkpt lat="44.33789" lon="6.79115">
        <ele>2395.5078125</ele>
      </trkpt>
      <trkpt lat="44.33786" lon="6.79091">
        <ele>2392.7265625</ele>
      </trkpt>
      <trkpt lat="44.33784" lon="6.79075">
        <ele>2391.41015625</ele>
      </trkpt>
      <trkpt lat="44.33784" lon="6.79067">
        <ele>2390.59765625</ele>
      </trkpt>
      <trkpt lat="44.33783" lon="6.79037">
        <ele>2387.98046875</ele>
      </trkpt>
      <trkpt lat="44.33783" lon="6.79003">
        <ele>2385.66015625</ele>
      </trkpt>
      <trkpt lat="44.33782" lon="6.78989">
        <ele>2384.96875</ele>
      </trkpt>
      <trkpt lat="44.33781" lon="6.78977">
        <ele>2384.32421875</ele>
      </trkpt>
      <trkpt lat="44.33778" lon="6.78963">
        <ele>2384.16796875</ele>
      </trkpt>
      <trkpt lat="44.33773" lon="6.78935">
        <ele>2384.12890625</ele>
      </trkpt>
      <trkpt lat="44.33769" lon="6.78922">
        <ele>2384.44140625</ele>
      </trkpt>
      <trkpt lat="44.33763" lon="6.78909">
        <ele>2384.890625</ele>
      </trkpt>
      <trkpt lat="44.33762" lon="6.78903">
        <ele>2384.80859375</ele>
      </trkpt>
      <trkpt lat="44.33761" lon="6.78896">
        <ele>2384.71875</ele>
      </trkpt>
      <trkpt lat="44.3376" lon="6.7889">
        <ele>2384.62109375</ele>
      </trkpt>
      <trkpt lat="44.33761" lon="6.78883">
        <ele>2384.17578125</ele>
      </trkpt>
      <trkpt lat="44.33762" lon="6.78877">
        <ele>2383.7421875</ele>
      </trkpt>
      <trkpt lat="44.33769" lon="6.78857">
        <ele>2382.11328125</ele>
      </trkpt>
      <trkpt lat="44.33772" lon="6.78845">
        <ele>2381.2890625</ele>
      </trkpt>
      <trkpt lat="44.33773" lon="6.78838">
        <ele>2380.94921875</ele>
      </trkpt>
      <trkpt lat="44.33772" lon="6.78824">
        <ele>2380.73046875</ele>
      </trkpt>
      <trkpt lat="44.33771" lon="6.78818">
        <ele>2380.7265625</ele>
      </trkpt>
      <trkpt lat="44.33767" lon="6.78805">
        <ele>2381.078125</ele>
      </trkpt>
      <trkpt lat="44.33761" lon="6.78794">
        <ele>2381.6953125</ele>
      </trkpt>
      <trkpt lat="44.33758" lon="6.78788">
        <ele>2382.0859375</ele>
      </trkpt>
      <trkpt lat="44.33756" lon="6.78781">
        <ele>2382.3046875</ele>
      </trkpt>
      <trkpt lat="44.33753" lon="6.78775">
        <ele>2382.71875</ele>
      </trkpt>
      <trkpt lat="44.33752" lon="6.78768">
        <ele>2382.7734375</ele>
      </trkpt>
      <trkpt lat="44.33752" lon="6.78762">
        <ele>2382.63671875</ele>
      </trkpt>
      <trkpt lat="44.33753" lon="6.78754">
        <ele>2382.2890625</ele>
      </trkpt>
      <trkpt lat="44.33755" lon="6.78748">
        <ele>2381.7109375</ele>
      </trkpt>
      <trkpt lat="44.33757" lon="6.78743">
        <ele>2381.16015625</ele>
      </trkpt>
      <trkpt lat="44.33759" lon="6.78737">
        <ele>2380.61328125</ele>
      </trkpt>
      <trkpt lat="44.33769" lon="6.78721">
        <ele>2378.48046875</ele>
      </trkpt>
      <trkpt lat="44.33787" lon="6.78693">
        <ele>2374.8515625</ele>
      </trkpt>
      <trkpt lat="44.33794" lon="6.78681">
        <ele>2373.6328125</ele>
      </trkpt>
      <trkpt lat="44.33807" lon="6.78662">
        <ele>2372.04296875</ele>
      </trkpt>
      <trkpt lat="44.33837" lon="6.78621">
        <ele>2368.796875</ele>
      </trkpt>
      <trkpt lat="44.33841" lon="6.78616">
        <ele>2368.44921875</ele>
      </trkpt>
      <trkpt lat="44.33843" lon="6.78611">
        <ele>2368.21875</ele>
      </trkpt>
      <trkpt lat="44.33844" lon="6.78601">
        <ele>2368.1015625</ele>
      </trkpt>
      <trkpt lat="44.33844" lon="6.78591">
        <ele>2368.1015625</ele>
      </trkpt>
      <trkpt lat="44.33836" lon="6.78563">
        <ele>2369.0625</ele>
      </trkpt>
      <trkpt lat="44.33835" lon="6.78555">
        <ele>2369.21484375</ele>
      </trkpt>
      <trkpt lat="44.33835" lon="6.78547">
        <ele>2369.2578125</ele>
      </trkpt>
      <trkpt lat="44.33838" lon="6.78537">
        <ele>2369.07421875</ele>
      </trkpt>
      <trkpt lat="44.33844" lon="6.78523">
        <ele>2368.4609375</ele>
      </trkpt>
      <trkpt lat="44.33846" lon="6.78516">
        <ele>2368.0859375</ele>
      </trkpt>
      <trkpt lat="44.33846" lon="6.78512">
        <ele>2367.94140625</ele>
      </trkpt>
      <trkpt lat="44.33846" lon="6.78507">
        <ele>2367.765625</ele>
      </trkpt>
      <trkpt lat="44.33845" lon="6.78498">
        <ele>2367.56640625</ele>
      </trkpt>
      <trkpt lat="44.33843" lon="6.78493">
        <ele>2367.5703125</ele>
      </trkpt>
      <trkpt lat="44.3384" lon="6.78487">
        <ele>2367.67578125</ele>
      </trkpt>
      <trkpt lat="44.33836" lon="6.78483">
        <ele>2367.8203125</ele>
      </trkpt>
      <trkpt lat="44.33832" lon="6.7848">
        <ele>2368.10546875</ele>
      </trkpt>
      <trkpt lat="44.33826" lon="6.78475">
        <ele>2368.55859375</ele>
      </trkpt>
      <trkpt lat="44.33807" lon="6.78468">
        <ele>2370.31640625</ele>
      </trkpt>
      <trkpt lat="44.33803" lon="6.78464">
        <ele>2370.78515625</ele>
      </trkpt>
      <trkpt lat="44.338" lon="6.7846">
        <ele>2371.14453125</ele>
      </trkpt>
      <trkpt lat="44.33799" lon="6.78455">
        <ele>2371.33984375</ele>
      </trkpt>
      <trkpt lat="44.33798" lon="6.78449">
        <ele>2371.578125</ele>
      </trkpt>
      <trkpt lat="44.33798" lon="6.78444">
        <ele>2371.65234375</ele>
      </trkpt>
      <trkpt lat="44.33799" lon="6.7844">
        <ele>2371.609375</ele>
      </trkpt>
      <trkpt lat="44.33801" lon="6.78437">
        <ele>2371.44921875</ele>
      </trkpt>
      <trkpt lat="44.33803" lon="6.78434">
        <ele>2371.28125</ele>
      </trkpt>
      <trkpt lat="44.33806" lon="6.78432">
        <ele>2370.98046875</ele>
      </trkpt>
      <trkpt lat="44.33814" lon="6.78428">
        <ele>2370.23828125</ele>
      </trkpt>
      <trkpt lat="44.33831" lon="6.78425">
        <ele>2368.453125</ele>
      </trkpt>
      <trkpt lat="44.33837" lon="6.78423">
        <ele>2367.78125</ele>
      </trkpt>
      <trkpt lat="44.33846" lon="6.78418">
        <ele>2366.9140625</ele>
      </trkpt>
      <trkpt lat="44.3385" lon="6.78413">
        <ele>2366.52734375</ele>
      </trkpt>
      <trkpt lat="44.33855" lon="6.78408">
        <ele>2366.1640625</ele>
      </trkpt>
      <trkpt lat="44.33863" lon="6.78394">
        <ele>2365.4921875</ele>
      </trkpt>
      <trkpt lat="44.33872" lon="6.78377">
        <ele>2364.6875</ele>
      </trkpt>
      <trkpt lat="44.33877" lon="6.78362">
        <ele>2364.12109375</ele>
      </trkpt>
      <trkpt lat="44.3389" lon="6.78326">
        <ele>2362.7109375</ele>
      </trkpt>
      <trkpt lat="44.33892" lon="6.7832">
        <ele>2362.44921875</ele>
      </trkpt>
      <trkpt lat="44.33897" lon="6.7831">
        <ele>2361.734375</ele>
      </trkpt>
      <trkpt lat="44.33904" lon="6.78303">
        <ele>2360.93359375</ele>
      </trkpt>
      <trkpt lat="44.33936" lon="6.78273">
        <ele>2357.44921875</ele>
      </trkpt>
      <trkpt lat="44.33957" lon="6.78252">
        <ele>2356.09375</ele>
      </trkpt>
      <trkpt lat="44.3396" lon="6.7825">
        <ele>2356.08984375</ele>
      </trkpt>
      <trkpt lat="44.33963" lon="6.78249">
        <ele>2355.921875</ele>
      </trkpt>
      <trkpt lat="44.33966" lon="6.78249">
        <ele>2355.6015625</ele>
      </trkpt>
      <trkpt lat="44.33972" lon="6.7825">
        <ele>2354.94921875</ele>
      </trkpt>
      <trkpt lat="44.33981" lon="6.78254">
        <ele>2353.48046875</ele>
      </trkpt>
      <trkpt lat="44.34005" lon="6.78268">
        <ele>2350.2265625</ele>
      </trkpt>
      <trkpt lat="44.34011" lon="6.78271">
        <ele>2349.40234375</ele>
      </trkpt>
      <trkpt lat="44.34018" lon="6.78273">
        <ele>2348.5625</ele>
      </trkpt>
      <trkpt lat="44.34023" lon="6.78274">
        <ele>2347.87109375</ele>
      </trkpt>
      <trkpt lat="44.34034" lon="6.78273">
        <ele>2346.67578125</ele>
      </trkpt>
      <trkpt lat="44.34058" lon="6.78267">
        <ele>2344.31640625</ele>
      </trkpt>
      <trkpt lat="44.34106" lon="6.7826">
        <ele>2339</ele>
      </trkpt>
      <trkpt lat="44.34121" lon="6.78256">
        <ele>2337.34375</ele>
      </trkpt>
      <trkpt lat="44.34131" lon="6.78251">
        <ele>2336.38671875</ele>
      </trkpt>
      <trkpt lat="44.34143" lon="6.78245">
        <ele>2335.3125</ele>
      </trkpt>
      <trkpt lat="44.34181" lon="6.7822">
        <ele>2332.55078125</ele>
      </trkpt>
      <trkpt lat="44.34189" lon="6.78217">
        <ele>2331.875</ele>
      </trkpt>
      <trkpt lat="44.34195" lon="6.78216">
        <ele>2331.95703125</ele>
      </trkpt>
      <trkpt lat="44.342" lon="6.78215">
        <ele>2332.05078125</ele>
      </trkpt>
      <trkpt lat="44.34227" lon="6.7822">
        <ele>2330.53125</ele>
      </trkpt>
      <trkpt lat="44.34238" lon="6.78222">
        <ele>2329.84765625</ele>
      </trkpt>
      <trkpt lat="44.34259" lon="6.78223">
        <ele>2333.9375</ele>
      </trkpt>
      <trkpt lat="44.34265" lon="6.78227">
        <ele>2334.94140625</ele>
      </trkpt>
      <trkpt lat="44.34272" lon="6.78231">
        <ele>2335.66796875</ele>
      </trkpt>
      <trkpt lat="44.34276" lon="6.78234">
        <ele>2336.046875</ele>
      </trkpt>
      <trkpt lat="44.34279" lon="6.78238">
        <ele>2335.87109375</ele>
      </trkpt>
      <trkpt lat="44.34288" lon="6.78256">
        <ele>2334.1171875</ele>
      </trkpt>
      <trkpt lat="44.34298" lon="6.78272">
        <ele>2333.92578125</ele>
      </trkpt>
      <trkpt lat="44.34314" lon="6.78302">
        <ele>2332.16015625</ele>
      </trkpt>
      <trkpt lat="44.34316" lon="6.78309">
        <ele>2331.15234375</ele>
      </trkpt>
      <trkpt lat="44.34318" lon="6.78317">
        <ele>2330.484375</ele>
      </trkpt>
      <trkpt lat="44.34319" lon="6.78324">
        <ele>2329.59765625</ele>
      </trkpt>
      <trkpt lat="44.34318" lon="6.78332">
        <ele>2328.37890625</ele>
      </trkpt>
      <trkpt lat="44.34318" lon="6.7834">
        <ele>2327.171875</ele>
      </trkpt>
      <trkpt lat="44.34308" lon="6.7839">
        <ele>2319.77734375</ele>
      </trkpt>
      <trkpt lat="44.34307" lon="6.78405">
        <ele>2317.87890625</ele>
      </trkpt>
      <trkpt lat="44.34306" lon="6.78415">
        <ele>2316.55078125</ele>
      </trkpt>
      <trkpt lat="44.34307" lon="6.78422">
        <ele>2315.7734375</ele>
      </trkpt>
      <trkpt lat="44.34309" lon="6.78428">
        <ele>2314.98046875</ele>
      </trkpt>
      <trkpt lat="44.34312" lon="6.78436">
        <ele>2314.015625</ele>
      </trkpt>
      <trkpt lat="44.34316" lon="6.7844">
        <ele>2313.36328125</ele>
      </trkpt>
      <trkpt lat="44.34333" lon="6.78455">
        <ele>2310.61328125</ele>
      </trkpt>
      <trkpt lat="44.34345" lon="6.78465">
        <ele>2308.4453125</ele>
      </trkpt>
      <trkpt lat="44.3435" lon="6.78468">
        <ele>2307.5703125</ele>
      </trkpt>
      <trkpt lat="44.34357" lon="6.78469">
        <ele>2306.7734375</ele>
      </trkpt>
      <trkpt lat="44.34362" lon="6.78468">
        <ele>2306.265625</ele>
      </trkpt>
      <trkpt lat="44.34368" lon="6.78467">
        <ele>2305.60546875</ele>
      </trkpt>
      <trkpt lat="44.34404" lon="6.78448">
        <ele>2303.79296875</ele>
      </trkpt>
      <trkpt lat="44.34408" lon="6.78445">
        <ele>2303.484375</ele>
      </trkpt>
      <trkpt lat="44.34414" lon="6.78444">
        <ele>2303.44140625</ele>
      </trkpt>
      <trkpt lat="44.34419" lon="6.78444">
        <ele>2303.38671875</ele>
      </trkpt>
      <trkpt lat="44.34423" lon="6.78445">
        <ele>2303.19140625</ele>
      </trkpt>
      <trkpt lat="44.34438" lon="6.7845">
        <ele>2302.46875</ele>
      </trkpt>
      <trkpt lat="44.34453" lon="6.78453">
        <ele>2301.92578125</ele>
      </trkpt>
      <trkpt lat="44.34461" lon="6.78454">
        <ele>2301.734375</ele>
      </trkpt>
      <trkpt lat="44.34467" lon="6.78453">
        <ele>2302.09375</ele>
      </trkpt>
      <trkpt lat="44.34475" lon="6.78452">
        <ele>2303.0234375</ele>
      </trkpt>
      <trkpt lat="44.3448" lon="6.78453">
        <ele>2303.44140625</ele>
      </trkpt>
      <trkpt lat="44.34484" lon="6.78455">
        <ele>2303.59375</ele>
      </trkpt>
      <trkpt lat="44.34488" lon="6.78458">
        <ele>2303.47265625</ele>
      </trkpt>
      <trkpt lat="44.34491" lon="6.78463">
        <ele>2303.18359375</ele>
      </trkpt>
      <trkpt lat="44.34494" lon="6.78469">
        <ele>2302.56640625</ele>
      </trkpt>
      <trkpt lat="44.34495" lon="6.78474">
        <ele>2301.88671875</ele>
      </trkpt>
      <trkpt lat="44.34495" lon="6.78479">
        <ele>2301.40234375</ele>
      </trkpt>
      <trkpt lat="44.34495" lon="6.78494">
        <ele>2299.87890625</ele>
      </trkpt>
      <trkpt lat="44.34495" lon="6.78504">
        <ele>2298.7890625</ele>
      </trkpt>
      <trkpt lat="44.34493" lon="6.78516">
        <ele>2297.48046875</ele>
      </trkpt>
      <trkpt lat="44.34493" lon="6.7853">
        <ele>2296.09375</ele>
      </trkpt>
      <trkpt lat="44.34495" lon="6.78543">
        <ele>2294.6484375</ele>
      </trkpt>
      <trkpt lat="44.34495" lon="6.78547">
        <ele>2294.13671875</ele>
      </trkpt>
      <trkpt lat="44.34496" lon="6.78553">
        <ele>2293.51171875</ele>
      </trkpt>
      <trkpt lat="44.345" lon="6.7856">
        <ele>2292.63671875</ele>
      </trkpt>
      <trkpt lat="44.34504" lon="6.78565">
        <ele>2292.11328125</ele>
      </trkpt>
      <trkpt lat="44.34507" lon="6.78568">
        <ele>2291.703125</ele>
      </trkpt>
      <trkpt lat="44.34512" lon="6.78571">
        <ele>2291.265625</ele>
      </trkpt>
      <trkpt lat="44.34515" lon="6.78573">
        <ele>2290.95703125</ele>
      </trkpt>
      <trkpt lat="44.34521" lon="6.78576">
        <ele>2290.44921875</ele>
      </trkpt>
      <trkpt lat="44.34526" lon="6.78581">
        <ele>2289.625</ele>
      </trkpt>
      <trkpt lat="44.34532" lon="6.78586">
        <ele>2288.66796875</ele>
      </trkpt>
      <trkpt lat="44.34559" lon="6.78627">
        <ele>2283.75390625</ele>
      </trkpt>
      <trkpt lat="44.34563" lon="6.78632">
        <ele>2283.171875</ele>
      </trkpt>
      <trkpt lat="44.34568" lon="6.78639">
        <ele>2282.46484375</ele>
      </trkpt>
      <trkpt lat="44.34571" lon="6.78642">
        <ele>2282.10546875</ele>
      </trkpt>
      <trkpt lat="44.34585" lon="6.78649">
        <ele>2281.33203125</ele>
      </trkpt>
      <trkpt lat="44.34615" lon="6.78669">
        <ele>2279.71484375</ele>
      </trkpt>
      <trkpt lat="44.3464" lon="6.78685">
        <ele>2278.23046875</ele>
      </trkpt>
      <trkpt lat="44.34664" lon="6.78702">
        <ele>2276.2265625</ele>
      </trkpt>
      <trkpt lat="44.34673" lon="6.78707">
        <ele>2275.6953125</ele>
      </trkpt>
      <trkpt lat="44.34684" lon="6.78712">
        <ele>2275.14453125</ele>
      </trkpt>
      <trkpt lat="44.34695" lon="6.78715">
        <ele>2274.34375</ele>
      </trkpt>
      <trkpt lat="44.34703" lon="6.78714">
        <ele>2273.61328125</ele>
      </trkpt>
      <trkpt lat="44.34711" lon="6.7871">
        <ele>2272.94921875</ele>
      </trkpt>
      <trkpt lat="44.34719" lon="6.78705">
        <ele>2272.15625</ele>
      </trkpt>
      <trkpt lat="44.34726" lon="6.78698">
        <ele>2271.49609375</ele>
      </trkpt>
      <trkpt lat="44.34749" lon="6.78671">
        <ele>2269.375</ele>
      </trkpt>
      <trkpt lat="44.34786" lon="6.78632">
        <ele>2264.984375</ele>
      </trkpt>
      <trkpt lat="44.34818" lon="6.78597">
        <ele>2260.62109375</ele>
      </trkpt>
      <trkpt lat="44.34835" lon="6.7857">
        <ele>2257.2421875</ele>
      </trkpt>
      <trkpt lat="44.34837" lon="6.78562">
        <ele>2256.40234375</ele>
      </trkpt>
      <trkpt lat="44.34836" lon="6.78556">
        <ele>2255.9609375</ele>
      </trkpt>
      <trkpt lat="44.34834" lon="6.78552">
        <ele>2255.81640625</ele>
      </trkpt>
      <trkpt lat="44.3483" lon="6.7855">
        <ele>2256.07421875</ele>
      </trkpt>
      <trkpt lat="44.34826" lon="6.7855">
        <ele>2256.51171875</ele>
      </trkpt>
      <trkpt lat="44.3482" lon="6.7855">
        <ele>2257.0625</ele>
      </trkpt>
      <trkpt lat="44.34805" lon="6.78557">
        <ele>2259.15234375</ele>
      </trkpt>
      <trkpt lat="44.34797" lon="6.78559">
        <ele>2260.2109375</ele>
      </trkpt>
      <trkpt lat="44.34788" lon="6.7856">
        <ele>2261.44140625</ele>
      </trkpt>
      <trkpt lat="44.34783" lon="6.78559">
        <ele>2262.09375</ele>
      </trkpt>
      <trkpt lat="44.34779" lon="6.78558">
        <ele>2262.45703125</ele>
      </trkpt>
      <trkpt lat="44.34772" lon="6.78554">
        <ele>2263.19921875</ele>
      </trkpt>
      <trkpt lat="44.34769" lon="6.7855">
        <ele>2263.37109375</ele>
      </trkpt>
      <trkpt lat="44.34767" lon="6.78543">
        <ele>2263.26953125</ele>
      </trkpt>
      <trkpt lat="44.34767" lon="6.78536">
        <ele>2262.8046875</ele>
      </trkpt>
      <trkpt lat="44.34768" lon="6.78529">
        <ele>2262.23828125</ele>
      </trkpt>
      <trkpt lat="44.34773" lon="6.78516">
        <ele>2260.4765625</ele>
      </trkpt>
      <trkpt lat="44.34778" lon="6.78506">
        <ele>2258.71484375</ele>
      </trkpt>
      <trkpt lat="44.34786" lon="6.78496">
        <ele>2256.4921875</ele>
      </trkpt>
      <trkpt lat="44.34793" lon="6.78488">
        <ele>2254.30078125</ele>
      </trkpt>
      <trkpt lat="44.34801" lon="6.7848">
        <ele>2251.94921875</ele>
      </trkpt>
      <trkpt lat="44.34807" lon="6.78469">
        <ele>2249.41796875</ele>
      </trkpt>
      <trkpt lat="44.34809" lon="6.78464">
        <ele>2248.2578125</ele>
      </trkpt>
      <trkpt lat="44.34812" lon="6.78456">
        <ele>2246.7578125</ele>
      </trkpt>
      <trkpt lat="44.34812" lon="6.78449">
        <ele>2245.6796875</ele>
      </trkpt>
      <trkpt lat="44.34812" lon="6.78442">
        <ele>2244.75390625</ele>
      </trkpt>
      <trkpt lat="44.34812" lon="6.78436">
        <ele>2243.828125</ele>
      </trkpt>
      <trkpt lat="44.34813" lon="6.78429">
        <ele>2242.64453125</ele>
      </trkpt>
      <trkpt lat="44.34815" lon="6.78423">
        <ele>2241.17578125</ele>
      </trkpt>
      <trkpt lat="44.34818" lon="6.78421">
        <ele>2240.05078125</ele>
      </trkpt>
      <trkpt lat="44.34822" lon="6.78422">
        <ele>2239.140625</ele>
      </trkpt>
      <trkpt lat="44.34824" lon="6.78427">
        <ele>2239.46484375</ele>
      </trkpt>
      <trkpt lat="44.34827" lon="6.78433">
        <ele>2239.8203125</ele>
      </trkpt>
      <trkpt lat="44.34829" lon="6.78439">
        <ele>2240.38671875</ele>
      </trkpt>
      <trkpt lat="44.3483" lon="6.78453">
        <ele>2242.4765625</ele>
      </trkpt>
      <trkpt lat="44.34834" lon="6.78472">
        <ele>2244.921875</ele>
      </trkpt>
      <trkpt lat="44.34836" lon="6.78479">
        <ele>2245.6015625</ele>
      </trkpt>
      <trkpt lat="44.34839" lon="6.78484">
        <ele>2245.90234375</ele>
      </trkpt>
      <trkpt lat="44.34846" lon="6.78488">
        <ele>2245.546875</ele>
      </trkpt>
      <trkpt lat="44.34851" lon="6.78491">
        <ele>2245.05078125</ele>
      </trkpt>
      <trkpt lat="44.34876" lon="6.78492">
        <ele>2241.19140625</ele>
      </trkpt>
      <trkpt lat="44.34911" lon="6.78493">
        <ele>2235.32421875</ele>
      </trkpt>
      <trkpt lat="44.34916" lon="6.78494">
        <ele>2234.33984375</ele>
      </trkpt>
      <trkpt lat="44.34921" lon="6.78495">
        <ele>2233.04296875</ele>
      </trkpt>
      <trkpt lat="44.34925" lon="6.78498">
        <ele>2232.55859375</ele>
      </trkpt>
      <trkpt lat="44.3493" lon="6.78501">
        <ele>2232.078125</ele>
      </trkpt>
      <trkpt lat="44.34971" lon="6.78532">
        <ele>2226.1796875</ele>
      </trkpt>
      <trkpt lat="44.34977" lon="6.78535">
        <ele>2224.16796875</ele>
      </trkpt>
      <trkpt lat="44.34982" lon="6.78536">
        <ele>2222.00390625</ele>
      </trkpt>
      <trkpt lat="44.34986" lon="6.78532">
        <ele>2219.6875</ele>
      </trkpt>
      <trkpt lat="44.34989" lon="6.78527">
        <ele>2217.84375</ele>
      </trkpt>
      <trkpt lat="44.34989" lon="6.78522">
        <ele>2216.8828125</ele>
      </trkpt>
      <trkpt lat="44.34985" lon="6.78515">
        <ele>2217.00390625</ele>
      </trkpt>
      <trkpt lat="44.34982" lon="6.78513">
        <ele>2217.86328125</ele>
      </trkpt>
      <trkpt lat="44.34959" lon="6.78493">
        <ele>2221.71875</ele>
      </trkpt>
      <trkpt lat="44.34946" lon="6.78481">
        <ele>2222.66796875</ele>
      </trkpt>
      <trkpt lat="44.34908" lon="6.78453">
        <ele>2226.48046875</ele>
      </trkpt>
      <trkpt lat="44.34901" lon="6.78444">
        <ele>2225.90234375</ele>
      </trkpt>
      <trkpt lat="44.34897" lon="6.78439">
        <ele>2225.2890625</ele>
      </trkpt>
      <trkpt lat="44.34895" lon="6.78434">
        <ele>2224.46875</ele>
      </trkpt>
      <trkpt lat="44.34891" lon="6.78422">
        <ele>2222.6484375</ele>
      </trkpt>
      <trkpt lat="44.34889" lon="6.78415">
        <ele>2221.8828125</ele>
      </trkpt>
      <trkpt lat="44.34886" lon="6.7841">
        <ele>2221.62890625</ele>
      </trkpt>
      <trkpt lat="44.34881" lon="6.78405">
        <ele>2221.578125</ele>
      </trkpt>
      <trkpt lat="44.34877" lon="6.784">
        <ele>2221.69140625</ele>
      </trkpt>
      <trkpt lat="44.3487" lon="6.78391">
        <ele>2221.37109375</ele>
      </trkpt>
      <trkpt lat="44.34862" lon="6.7838">
        <ele>2220.6875</ele>
      </trkpt>
      <trkpt lat="44.34861" lon="6.78374">
        <ele>2219.55078125</ele>
      </trkpt>
      <trkpt lat="44.34863" lon="6.78367">
        <ele>2217.81640625</ele>
      </trkpt>
      <trkpt lat="44.34867" lon="6.78363">
        <ele>2216.19140625</ele>
      </trkpt>
      <trkpt lat="44.34872" lon="6.78361">
        <ele>2215.0390625</ele>
      </trkpt>
      <trkpt lat="44.34876" lon="6.78359">
        <ele>2213.90234375</ele>
      </trkpt>
      <trkpt lat="44.3488" lon="6.78357">
        <ele>2212.96875</ele>
      </trkpt>
      <trkpt lat="44.34903" lon="6.78357">
        <ele>2209.0625</ele>
      </trkpt>
      <trkpt lat="44.34944" lon="6.78357">
        <ele>2203.0859375</ele>
      </trkpt>
      <trkpt lat="44.34959" lon="6.78356">
        <ele>2200.8203125</ele>
      </trkpt>
      <trkpt lat="44.34975" lon="6.78353">
        <ele>2197.4140625</ele>
      </trkpt>
      <trkpt lat="44.34985" lon="6.7835">
        <ele>2194.75</ele>
      </trkpt>
      <trkpt lat="44.3499" lon="6.78348">
        <ele>2193.58984375</ele>
      </trkpt>
      <trkpt lat="44.34999" lon="6.78344">
        <ele>2191.0625</ele>
      </trkpt>
      <trkpt lat="44.35004" lon="6.78344">
        <ele>2190.1640625</ele>
      </trkpt>
      <trkpt lat="44.35008" lon="6.78342">
        <ele>2189.14453125</ele>
      </trkpt>
      <trkpt lat="44.35013" lon="6.78345">
        <ele>2188.26171875</ele>
      </trkpt>
      <trkpt lat="44.35018" lon="6.78348">
        <ele>2187.7109375</ele>
      </trkpt>
      <trkpt lat="44.35022" lon="6.78352">
        <ele>2187.17578125</ele>
      </trkpt>
      <trkpt lat="44.35026" lon="6.78357">
        <ele>2186.609375</ele>
      </trkpt>
      <trkpt lat="44.35042" lon="6.78385">
        <ele>2185.01953125</ele>
      </trkpt>
      <trkpt lat="44.35044" lon="6.78391">
        <ele>2184.98046875</ele>
      </trkpt>
      <trkpt lat="44.35047" lon="6.78396">
        <ele>2184.94921875</ele>
      </trkpt>
      <trkpt lat="44.3505" lon="6.78408">
        <ele>2185.2890625</ele>
      </trkpt>
      <trkpt lat="44.3505" lon="6.78414">
        <ele>2185.9296875</ele>
      </trkpt>
      <trkpt lat="44.3505" lon="6.78428">
        <ele>2187.16015625</ele>
      </trkpt>
      <trkpt lat="44.35051" lon="6.78442">
        <ele>2188.00390625</ele>
      </trkpt>
      <trkpt lat="44.35053" lon="6.78447">
        <ele>2187.7890625</ele>
      </trkpt>
      <trkpt lat="44.35056" lon="6.78452">
        <ele>2187.3671875</ele>
      </trkpt>
      <trkpt lat="44.35061" lon="6.78453">
        <ele>2186.32421875</ele>
      </trkpt>
      <trkpt lat="44.35066" lon="6.78454">
        <ele>2184.99609375</ele>
      </trkpt>
      <trkpt lat="44.35071" lon="6.78456">
        <ele>2183.7421875</ele>
      </trkpt>
      <trkpt lat="44.35076" lon="6.78458">
        <ele>2182.76171875</ele>
      </trkpt>
      <trkpt lat="44.3508" lon="6.78463">
        <ele>2182.05078125</ele>
      </trkpt>
      <trkpt lat="44.35095" lon="6.78479">
        <ele>2179.7109375</ele>
      </trkpt>
      <trkpt lat="44.35099" lon="6.78483">
        <ele>2179.015625</ele>
      </trkpt>
      <trkpt lat="44.35103" lon="6.78486">
        <ele>2178.2421875</ele>
      </trkpt>
      <trkpt lat="44.35108" lon="6.78488">
        <ele>2177.390625</ele>
      </trkpt>
      <trkpt lat="44.35113" lon="6.78491">
        <ele>2176.2890625</ele>
      </trkpt>
      <trkpt lat="44.35123" lon="6.78493">
        <ele>2174.18359375</ele>
      </trkpt>
      <trkpt lat="44.35128" lon="6.78494">
        <ele>2173.00390625</ele>
      </trkpt>
      <trkpt lat="44.35133" lon="6.78497">
        <ele>2172.015625</ele>
      </trkpt>
      <trkpt lat="44.35152" lon="6.7851">
        <ele>2168.69140625</ele>
      </trkpt>
      <trkpt lat="44.35156" lon="6.78512">
        <ele>2167.80078125</ele>
      </trkpt>
      <trkpt lat="44.35161" lon="6.78511">
        <ele>2166.5</ele>
      </trkpt>
      <trkpt lat="44.35166" lon="6.78508">
        <ele>2165.37890625</ele>
      </trkpt>
      <trkpt lat="44.3517" lon="6.78503">
        <ele>2164.25</ele>
      </trkpt>
      <trkpt lat="44.35172" lon="6.78497">
        <ele>2163.55859375</ele>
      </trkpt>
      <trkpt lat="44.35173" lon="6.78491">
        <ele>2163.125</ele>
      </trkpt>
      <trkpt lat="44.35172" lon="6.78483">
        <ele>2163.109375</ele>
      </trkpt>
      <trkpt lat="44.3517" lon="6.78478">
        <ele>2163.3671875</ele>
      </trkpt>
      <trkpt lat="44.35168" lon="6.78472">
        <ele>2163.5078125</ele>
      </trkpt>
      <trkpt lat="44.35163" lon="6.78468">
        <ele>2164.05078125</ele>
      </trkpt>
      <trkpt lat="44.35155" lon="6.7846">
        <ele>2165.1484375</ele>
      </trkpt>
      <trkpt lat="44.35146" lon="6.78454">
        <ele>2166.25</ele>
      </trkpt>
      <trkpt lat="44.35143" lon="6.78447">
        <ele>2166.2265625</ele>
      </trkpt>
      <trkpt lat="44.35141" lon="6.78439">
        <ele>2165.984375</ele>
      </trkpt>
      <trkpt lat="44.35141" lon="6.78432">
        <ele>2165.35546875</ele>
      </trkpt>
      <trkpt lat="44.35143" lon="6.78424">
        <ele>2164.375</ele>
      </trkpt>
      <trkpt lat="44.35147" lon="6.78411">
        <ele>2162.59765625</ele>
      </trkpt>
      <trkpt lat="44.3515" lon="6.78408">
        <ele>2161.984375</ele>
      </trkpt>
      <trkpt lat="44.35152" lon="6.78403">
        <ele>2161.19921875</ele>
      </trkpt>
      <trkpt lat="44.35154" lon="6.78396">
        <ele>2160.33203125</ele>
      </trkpt>
      <trkpt lat="44.35154" lon="6.7839">
        <ele>2159.80078125</ele>
      </trkpt>
      <trkpt lat="44.35155" lon="6.78383">
        <ele>2159.10546875</ele>
      </trkpt>
      <trkpt lat="44.35154" lon="6.78376">
        <ele>2158.64453125</ele>
      </trkpt>
      <trkpt lat="44.35153" lon="6.7835">
        <ele>2157.34765625</ele>
      </trkpt>
      <trkpt lat="44.35153" lon="6.78331">
        <ele>2156.65234375</ele>
      </trkpt>
      <trkpt lat="44.35153" lon="6.78319">
        <ele>2156.2265625</ele>
      </trkpt>
      <trkpt lat="44.35155" lon="6.783">
        <ele>2155.6328125</ele>
      </trkpt>
      <trkpt lat="44.35157" lon="6.78289">
        <ele>2155.421875</ele>
      </trkpt>
      <trkpt lat="44.3516" lon="6.78281">
        <ele>2155.05078125</ele>
      </trkpt>
      <trkpt lat="44.35165" lon="6.78277">
        <ele>2154.515625</ele>
      </trkpt>
      <trkpt lat="44.35169" lon="6.78273">
        <ele>2153.99609375</ele>
      </trkpt>
      <trkpt lat="44.35173" lon="6.78271">
        <ele>2153.45703125</ele>
      </trkpt>
      <trkpt lat="44.35179" lon="6.78268">
        <ele>2152.78125</ele>
      </trkpt>
      <trkpt lat="44.35183" lon="6.78267">
        <ele>2152.23828125</ele>
      </trkpt>
      <trkpt lat="44.35188" lon="6.78267">
        <ele>2151.546875</ele>
      </trkpt>
      <trkpt lat="44.35194" lon="6.78268">
        <ele>2150.8515625</ele>
      </trkpt>
      <trkpt lat="44.35198" lon="6.78271">
        <ele>2150.26953125</ele>
      </trkpt>
      <trkpt lat="44.35205" lon="6.78275">
        <ele>2149.24609375</ele>
      </trkpt>
      <trkpt lat="44.35261" lon="6.78321">
        <ele>2141.66796875</ele>
      </trkpt>
      <trkpt lat="44.35299" lon="6.7835">
        <ele>2136.1015625</ele>
      </trkpt>
      <trkpt lat="44.35306" lon="6.78353">
        <ele>2134.90625</ele>
      </trkpt>
      <trkpt lat="44.35314" lon="6.78356">
        <ele>2133.6640625</ele>
      </trkpt>
      <trkpt lat="44.35327" lon="6.7836">
        <ele>2131.52734375</ele>
      </trkpt>
      <trkpt lat="44.35336" lon="6.78361">
        <ele>2129.94921875</ele>
      </trkpt>
      <trkpt lat="44.35344" lon="6.78361">
        <ele>2128.7578125</ele>
      </trkpt>
      <trkpt lat="44.35353" lon="6.78359">
        <ele>2127.390625</ele>
      </trkpt>
      <trkpt lat="44.35362" lon="6.78356">
        <ele>2126.46484375</ele>
      </trkpt>
      <trkpt lat="44.35383" lon="6.78348">
        <ele>2124.375</ele>
      </trkpt>
      <trkpt lat="44.35398" lon="6.78341">
        <ele>2122.9453125</ele>
      </trkpt>
      <trkpt lat="44.35404" lon="6.78337">
        <ele>2122.578125</ele>
      </trkpt>
      <trkpt lat="44.35411" lon="6.78334">
        <ele>2121.859375</ele>
      </trkpt>
      <trkpt lat="44.35418" lon="6.78334">
        <ele>2121.03515625</ele>
      </trkpt>
      <trkpt lat="44.35433" lon="6.78335">
        <ele>2119.0546875</ele>
      </trkpt>
      <trkpt lat="44.35438" lon="6.78335">
        <ele>2118.37109375</ele>
      </trkpt>
      <trkpt lat="44.35444" lon="6.78334">
        <ele>2117.7421875</ele>
      </trkpt>
      <trkpt lat="44.35448" lon="6.78331">
        <ele>2117.34375</ele>
      </trkpt>
      <trkpt lat="44.35453" lon="6.78326">
        <ele>2116.83203125</ele>
      </trkpt>
      <trkpt lat="44.35469" lon="6.78302">
        <ele>2116.33984375</ele>
      </trkpt>
      <trkpt lat="44.35478" lon="6.78292">
        <ele>2116.50390625</ele>
      </trkpt>
      <trkpt lat="44.35488" lon="6.7828">
        <ele>2116.66015625</ele>
      </trkpt>
      <trkpt lat="44.35495" lon="6.78274">
        <ele>2116.39453125</ele>
      </trkpt>
      <trkpt lat="44.35504" lon="6.78268">
        <ele>2115.80859375</ele>
      </trkpt>
      <trkpt lat="44.35511" lon="6.78264">
        <ele>2115.2109375</ele>
      </trkpt>
      <trkpt lat="44.3552" lon="6.78261">
        <ele>2114.32421875</ele>
      </trkpt>
      <trkpt lat="44.35527" lon="6.7826">
        <ele>2114.015625</ele>
      </trkpt>
      <trkpt lat="44.35545" lon="6.78257">
        <ele>2113.3203125</ele>
      </trkpt>
      <trkpt lat="44.35557" lon="6.78257">
        <ele>2112.6796875</ele>
      </trkpt>
      <trkpt lat="44.35568" lon="6.78259">
        <ele>2111.91015625</ele>
      </trkpt>
      <trkpt lat="44.35583" lon="6.78262">
        <ele>2110.92578125</ele>
      </trkpt>
      <trkpt lat="44.35598" lon="6.78267">
        <ele>2109.8203125</ele>
      </trkpt>
      <trkpt lat="44.35604" lon="6.78271">
        <ele>2109.23828125</ele>
      </trkpt>
      <trkpt lat="44.35614" lon="6.78276">
        <ele>2108.28515625</ele>
      </trkpt>
      <trkpt lat="44.35625" lon="6.78285">
        <ele>2106.91015625</ele>
      </trkpt>
      <trkpt lat="44.35633" lon="6.78292">
        <ele>2105.66796875</ele>
      </trkpt>
      <trkpt lat="44.35641" lon="6.78298">
        <ele>2104.546875</ele>
      </trkpt>
      <trkpt lat="44.35672" lon="6.78327">
        <ele>2100.43359375</ele>
      </trkpt>
      <trkpt lat="44.3568" lon="6.78333">
        <ele>2099.640625</ele>
      </trkpt>
      <trkpt lat="44.35687" lon="6.78337">
        <ele>2098.9140625</ele>
      </trkpt>
      <trkpt lat="44.35697" lon="6.7834">
        <ele>2097.984375</ele>
      </trkpt>
      <trkpt lat="44.35705" lon="6.78341">
        <ele>2097.2890625</ele>
      </trkpt>
      <trkpt lat="44.35741" lon="6.78349">
        <ele>2094.19921875</ele>
      </trkpt>
      <trkpt lat="44.35765" lon="6.78354">
        <ele>2091.765625</ele>
      </trkpt>
      <trkpt lat="44.35788" lon="6.78363">
        <ele>2089.0078125</ele>
      </trkpt>
      <trkpt lat="44.35795" lon="6.78364">
        <ele>2088.2265625</ele>
      </trkpt>
      <trkpt lat="44.35802" lon="6.78363">
        <ele>2087.84765625</ele>
      </trkpt>
      <trkpt lat="44.35808" lon="6.78361">
        <ele>2087.62890625</ele>
      </trkpt>
      <trkpt lat="44.35817" lon="6.78356">
        <ele>2087.51171875</ele>
      </trkpt>
      <trkpt lat="44.35821" lon="6.78353">
        <ele>2087.5859375</ele>
      </trkpt>
      <trkpt lat="44.35828" lon="6.78349">
        <ele>2087.65234375</ele>
      </trkpt>
      <trkpt lat="44.35832" lon="6.78345">
        <ele>2087.875</ele>
      </trkpt>
      <trkpt lat="44.35837" lon="6.78338">
        <ele>2088.30078125</ele>
      </trkpt>
      <trkpt lat="44.35858" lon="6.78305">
        <ele>2091.63671875</ele>
      </trkpt>
      <trkpt lat="44.35864" lon="6.783">
        <ele>2092.48828125</ele>
      </trkpt>
      <trkpt lat="44.35867" lon="6.78298">
        <ele>2092.625</ele>
      </trkpt>
      <trkpt lat="44.35872" lon="6.78297">
        <ele>2092.73828125</ele>
      </trkpt>
      <trkpt lat="44.35876" lon="6.78297">
        <ele>2092.66015625</ele>
      </trkpt>
      <trkpt lat="44.3588" lon="6.78298">
        <ele>2092.390625</ele>
      </trkpt>
      <trkpt lat="44.35887" lon="6.78302">
        <ele>2091.6953125</ele>
      </trkpt>
      <trkpt lat="44.35894" lon="6.78308">
        <ele>2090.40234375</ele>
      </trkpt>
      <trkpt lat="44.35899" lon="6.78315">
        <ele>2089.36328125</ele>
      </trkpt>
      <trkpt lat="44.3594" lon="6.78364">
        <ele>2083.234375</ele>
      </trkpt>
      <trkpt lat="44.35978" lon="6.78412">
        <ele>2080.23828125</ele>
      </trkpt>
      <trkpt lat="44.35998" lon="6.78439">
        <ele>2079.55859375</ele>
      </trkpt>
      <trkpt lat="44.36005" lon="6.78451">
        <ele>2078.9296875</ele>
      </trkpt>
      <trkpt lat="44.36009" lon="6.7846">
        <ele>2078.23046875</ele>
      </trkpt>
      <trkpt lat="44.36013" lon="6.78471">
        <ele>2077.31640625</ele>
      </trkpt>
      <trkpt lat="44.36015" lon="6.78482">
        <ele>2076.73046875</ele>
      </trkpt>
      <trkpt lat="44.36021" lon="6.78508">
        <ele>2075.9296875</ele>
      </trkpt>
      <trkpt lat="44.36028" lon="6.78551">
        <ele>2075.20703125</ele>
      </trkpt>
      <trkpt lat="44.36031" lon="6.78554">
        <ele>2075.06640625</ele>
      </trkpt>
      <trkpt lat="44.36042" lon="6.78557">
        <ele>2074.37109375</ele>
      </trkpt>
      <trkpt lat="44.36049" lon="6.78559">
        <ele>2073.88671875</ele>
      </trkpt>
      <trkpt lat="44.36056" lon="6.78563">
        <ele>2073.1875</ele>
      </trkpt>
      <trkpt lat="44.36063" lon="6.78568">
        <ele>2072.45703125</ele>
      </trkpt>
      <trkpt lat="44.36088" lon="6.78594">
        <ele>2069.640625</ele>
      </trkpt>
      <trkpt lat="44.36104" lon="6.7861">
        <ele>2068.1171875</ele>
      </trkpt>
      <trkpt lat="44.36109" lon="6.78616">
        <ele>2067.3359375</ele>
      </trkpt>
      <trkpt lat="44.36113" lon="6.78626">
        <ele>2066.1484375</ele>
      </trkpt>
      <trkpt lat="44.36117" lon="6.78655">
        <ele>2064.57421875</ele>
      </trkpt>
      <trkpt lat="44.36119" lon="6.78668">
        <ele>2064.60546875</ele>
      </trkpt>
      <trkpt lat="44.36125" lon="6.78683">
        <ele>2063.9375</ele>
      </trkpt>
      <trkpt lat="44.36131" lon="6.78693">
        <ele>2062.80078125</ele>
      </trkpt>
      <trkpt lat="44.36139" lon="6.78705">
        <ele>2062.55859375</ele>
      </trkpt>
      <trkpt lat="44.36171" lon="6.78738">
        <ele>2060.50390625</ele>
      </trkpt>
      <trkpt lat="44.36182" lon="6.78748">
        <ele>2059.37890625</ele>
      </trkpt>
      <trkpt lat="44.36192" lon="6.78754">
        <ele>2058.50390625</ele>
      </trkpt>
      <trkpt lat="44.36203" lon="6.7876">
        <ele>2058.44140625</ele>
      </trkpt>
      <trkpt lat="44.36273" lon="6.78782">
        <ele>2058.5703125</ele>
      </trkpt>
      <trkpt lat="44.36285" lon="6.7879">
        <ele>2060.4765625</ele>
      </trkpt>
      <trkpt lat="44.36329" lon="6.78816">
        <ele>2072.97265625</ele>
      </trkpt>
      <trkpt lat="44.36334" lon="6.78817">
        <ele>2074.15234375</ele>
      </trkpt>
      <trkpt lat="44.36338" lon="6.78818">
        <ele>2075.22265625</ele>
      </trkpt>
      <trkpt lat="44.36343" lon="6.78817">
        <ele>2075.171875</ele>
      </trkpt>
      <trkpt lat="44.36373" lon="6.78806">
        <ele>2069.2109375</ele>
      </trkpt>
      <trkpt lat="44.36383" lon="6.78806">
        <ele>2068.41796875</ele>
      </trkpt>
      <trkpt lat="44.36401" lon="6.7881">
        <ele>2069.28515625</ele>
      </trkpt>
      <trkpt lat="44.36407" lon="6.7881">
        <ele>2068.8046875</ele>
      </trkpt>
      <trkpt lat="44.36448" lon="6.78796">
        <ele>2050.35546875</ele>
      </trkpt>
      <trkpt lat="44.36453" lon="6.78795">
        <ele>2048.375</ele>
      </trkpt>
      <trkpt lat="44.3646" lon="6.78796">
        <ele>2047.0234375</ele>
      </trkpt>
      <trkpt lat="44.36468" lon="6.788">
        <ele>2045.93359375</ele>
      </trkpt>
      <trkpt lat="44.36477" lon="6.78806">
        <ele>2046.125</ele>
      </trkpt>
      <trkpt lat="44.36483" lon="6.78815">
        <ele>2047.80078125</ele>
      </trkpt>
      <trkpt lat="44.3649" lon="6.78823">
        <ele>2049.50390625</ele>
      </trkpt>
      <trkpt lat="44.36498" lon="6.78835">
        <ele>2051.91796875</ele>
      </trkpt>
      <trkpt lat="44.36502" lon="6.78841">
        <ele>2053.34765625</ele>
      </trkpt>
      <trkpt lat="44.3651" lon="6.78848">
        <ele>2053.8515625</ele>
      </trkpt>
      <trkpt lat="44.3652" lon="6.78853">
        <ele>2053.359375</ele>
      </trkpt>
      <trkpt lat="44.36531" lon="6.78857">
        <ele>2053.25</ele>
      </trkpt>
      <trkpt lat="44.36543" lon="6.78861">
        <ele>2052.66796875</ele>
      </trkpt>
      <trkpt lat="44.36557" lon="6.78862">
        <ele>2050.85546875</ele>
      </trkpt>
      <trkpt lat="44.36571" lon="6.78862">
        <ele>2048.60546875</ele>
      </trkpt>
      <trkpt lat="44.36579" lon="6.78863">
        <ele>2048.18359375</ele>
      </trkpt>
      <trkpt lat="44.36587" lon="6.78865">
        <ele>2048.46484375</ele>
      </trkpt>
      <trkpt lat="44.36598" lon="6.78869">
        <ele>2049.60546875</ele>
      </trkpt>
      <trkpt lat="44.36607" lon="6.7887">
        <ele>2049.37890625</ele>
      </trkpt>
      <trkpt lat="44.36616" lon="6.78869">
        <ele>2048.140625</ele>
      </trkpt>
      <trkpt lat="44.36625" lon="6.78867">
        <ele>2046.58203125</ele>
      </trkpt>
      <trkpt lat="44.3664" lon="6.78857">
        <ele>2043.421875</ele>
      </trkpt>
      <trkpt lat="44.36646" lon="6.78853">
        <ele>2042.453125</ele>
      </trkpt>
      <trkpt lat="44.36652" lon="6.78849">
        <ele>2041.421875</ele>
      </trkpt>
      <trkpt lat="44.36659" lon="6.78846">
        <ele>2040.92578125</ele>
      </trkpt>
      <trkpt lat="44.36671" lon="6.78843">
        <ele>2041.140625</ele>
      </trkpt>
      <trkpt lat="44.36677" lon="6.7884">
        <ele>2040.59765625</ele>
      </trkpt>
      <trkpt lat="44.36684" lon="6.78836">
        <ele>2039.71875</ele>
      </trkpt>
      <trkpt lat="44.36689" lon="6.78831">
        <ele>2038.671875</ele>
      </trkpt>
      <trkpt lat="44.36693" lon="6.78826">
        <ele>2037.95703125</ele>
      </trkpt>
      <trkpt lat="44.36701" lon="6.78812">
        <ele>2034.67578125</ele>
      </trkpt>
      <trkpt lat="44.36712" lon="6.78796">
        <ele>2031.3359375</ele>
      </trkpt>
      <trkpt lat="44.36735" lon="6.78767">
        <ele>2025.73046875</ele>
      </trkpt>
      <trkpt lat="44.36742" lon="6.78762">
        <ele>2024.9375</ele>
      </trkpt>
      <trkpt lat="44.36746" lon="6.78759">
        <ele>2024.4453125</ele>
      </trkpt>
      <trkpt lat="44.36752" lon="6.78757">
        <ele>2024.5625</ele>
      </trkpt>
      <trkpt lat="44.36773" lon="6.78747">
        <ele>2024.0390625</ele>
      </trkpt>
      <trkpt lat="44.36791" lon="6.7873">
        <ele>2020.765625</ele>
      </trkpt>
      <trkpt lat="44.36797" lon="6.78727">
        <ele>2020.4921875</ele>
      </trkpt>
      <trkpt lat="44.36803" lon="6.78723">
        <ele>2020.125</ele>
      </trkpt>
      <trkpt lat="44.36849" lon="6.78704">
        <ele>2019.6796875</ele>
      </trkpt>
      <trkpt lat="44.36857" lon="6.78702">
        <ele>2019.84765625</ele>
      </trkpt>
      <trkpt lat="44.36863" lon="6.78702">
        <ele>2020.53515625</ele>
      </trkpt>
      <trkpt lat="44.36874" lon="6.787">
        <ele>2021</ele>
      </trkpt>
      <trkpt lat="44.36878" lon="6.78698">
        <ele>2020.78125</ele>
      </trkpt>
      <trkpt lat="44.3688" lon="6.78693">
        <ele>2019.66015625</ele>
      </trkpt>
      <trkpt lat="44.3688" lon="6.78687">
        <ele>2017.6328125</ele>
      </trkpt>
      <trkpt lat="44.36877" lon="6.78683">
        <ele>2015.91796875</ele>
      </trkpt>
      <trkpt lat="44.36874" lon="6.7868">
        <ele>2014.87109375</ele>
      </trkpt>
      <trkpt lat="44.36852" lon="6.78681">
        <ele>2012.78125</ele>
      </trkpt>
      <trkpt lat="44.36826" lon="6.78681">
        <ele>2009.671875</ele>
      </trkpt>
      <trkpt lat="44.36811" lon="6.7868">
        <ele>2007.5234375</ele>
      </trkpt>
      <trkpt lat="44.36772" lon="6.78677">
        <ele>2002.2265625</ele>
      </trkpt>
      <trkpt lat="44.36765" lon="6.78677">
        <ele>2001.57421875</ele>
      </trkpt>
      <trkpt lat="44.36759" lon="6.78679">
        <ele>2001.55078125</ele>
      </trkpt>
      <trkpt lat="44.36741" lon="6.7869">
        <ele>2002.77734375</ele>
      </trkpt>
      <trkpt lat="44.36736" lon="6.78691">
        <ele>2002.6328125</ele>
      </trkpt>
      <trkpt lat="44.36732" lon="6.78691">
        <ele>2002.1796875</ele>
      </trkpt>
      <trkpt lat="44.36728" lon="6.78691">
        <ele>2001.72265625</ele>
      </trkpt>
      <trkpt lat="44.36722" lon="6.78689">
        <ele>2000.55078125</ele>
      </trkpt>
      <trkpt lat="44.36713" lon="6.78683">
        <ele>1997.73828125</ele>
      </trkpt>
      <trkpt lat="44.36704" lon="6.78678">
        <ele>1995.66796875</ele>
      </trkpt>
      <trkpt lat="44.36687" lon="6.78673">
        <ele>1992.46875</ele>
      </trkpt>
      <trkpt lat="44.36683" lon="6.78674">
        <ele>1992.34765625</ele>
      </trkpt>
      <trkpt lat="44.36676" lon="6.78675">
        <ele>1992.03515625</ele>
      </trkpt>
      <trkpt lat="44.3667" lon="6.78678">
        <ele>1992.26953125</ele>
      </trkpt>
      <trkpt lat="44.36659" lon="6.78684">
        <ele>1992.6015625</ele>
      </trkpt>
      <trkpt lat="44.36656" lon="6.78684">
        <ele>1992.28515625</ele>
      </trkpt>
      <trkpt lat="44.36653" lon="6.78681">
        <ele>1991.4296875</ele>
      </trkpt>
      <trkpt lat="44.36651" lon="6.78677">
        <ele>1990.16015625</ele>
      </trkpt>
      <trkpt lat="44.36649" lon="6.78672">
        <ele>1988.734375</ele>
      </trkpt>
      <trkpt lat="44.36652" lon="6.78665">
        <ele>1987.3359375</ele>
      </trkpt>
      <trkpt lat="44.36655" lon="6.78661">
        <ele>1986.54296875</ele>
      </trkpt>
      <trkpt lat="44.36664" lon="6.78655">
        <ele>1985.70703125</ele>
      </trkpt>
      <trkpt lat="44.36676" lon="6.7865">
        <ele>1985.51953125</ele>
      </trkpt>
      <trkpt lat="44.36683" lon="6.78648">
        <ele>1985.44140625</ele>
      </trkpt>
      <trkpt lat="44.36705" lon="6.78645">
        <ele>1986.578125</ele>
      </trkpt>
      <trkpt lat="44.36717" lon="6.78643">
        <ele>1987.05078125</ele>
      </trkpt>
      <trkpt lat="44.3673" lon="6.78639">
        <ele>1987.01953125</ele>
      </trkpt>
      <trkpt lat="44.36742" lon="6.78631">
        <ele>1985.875</ele>
      </trkpt>
      <trkpt lat="44.3676" lon="6.78618">
        <ele>1983.51953125</ele>
      </trkpt>
      <trkpt lat="44.36776" lon="6.78609">
        <ele>1981.71875</ele>
      </trkpt>
      <trkpt lat="44.36795" lon="6.786">
        <ele>1980.26171875</ele>
      </trkpt>
      <trkpt lat="44.36808" lon="6.78597">
        <ele>1980.55078125</ele>
      </trkpt>
      <trkpt lat="44.36817" lon="6.78594">
        <ele>1980.43359375</ele>
      </trkpt>
      <trkpt lat="44.36823" lon="6.78589">
        <ele>1979.73828125</ele>
      </trkpt>
      <trkpt lat="44.36829" lon="6.78585">
        <ele>1978.9921875</ele>
      </trkpt>
      <trkpt lat="44.36835" lon="6.78577">
        <ele>1977.50390625</ele>
      </trkpt>
      <trkpt lat="44.36862" lon="6.78552">
        <ele>1972.27734375</ele>
      </trkpt>
      <trkpt lat="44.36869" lon="6.78546">
        <ele>1971.2578125</ele>
      </trkpt>
      <trkpt lat="44.36877" lon="6.78542">
        <ele>1970.49609375</ele>
      </trkpt>
      <trkpt lat="44.36883" lon="6.78539">
        <ele>1969.9375</ele>
      </trkpt>
      <trkpt lat="44.36908" lon="6.78533">
        <ele>1969.95703125</ele>
      </trkpt>
      <trkpt lat="44.36913" lon="6.7853">
        <ele>1969.70703125</ele>
      </trkpt>
      <trkpt lat="44.3692" lon="6.78524">
        <ele>1969.1015625</ele>
      </trkpt>
      <trkpt lat="44.36924" lon="6.78517">
        <ele>1968.12890625</ele>
      </trkpt>
      <trkpt lat="44.36926" lon="6.7851">
        <ele>1966.53125</ele>
      </trkpt>
      <trkpt lat="44.36928" lon="6.785">
        <ele>1964.36328125</ele>
      </trkpt>
      <trkpt lat="44.36931" lon="6.78493">
        <ele>1962.7421875</ele>
      </trkpt>
      <trkpt lat="44.36933" lon="6.78486">
        <ele>1961.38671875</ele>
      </trkpt>
      <trkpt lat="44.36937" lon="6.78481">
        <ele>1960.6171875</ele>
      </trkpt>
      <trkpt lat="44.36991" lon="6.78428">
        <ele>1958.7109375</ele>
      </trkpt>
      <trkpt lat="44.37005" lon="6.78414">
        <ele>1958.6875</ele>
      </trkpt>
      <trkpt lat="44.37011" lon="6.78407">
        <ele>1958.33984375</ele>
      </trkpt>
      <trkpt lat="44.37016" lon="6.78398">
        <ele>1957.44140625</ele>
      </trkpt>
      <trkpt lat="44.37024" lon="6.78384">
        <ele>1955.625</ele>
      </trkpt>
      <trkpt lat="44.3704" lon="6.78348">
        <ele>1950.00390625</ele>
      </trkpt>
      <trkpt lat="44.37047" lon="6.78334">
        <ele>1947.9765625</ele>
      </trkpt>
      <trkpt lat="44.37054" lon="6.78321">
        <ele>1946.00390625</ele>
      </trkpt>
      <trkpt lat="44.3707" lon="6.78296">
        <ele>1942.39453125</ele>
      </trkpt>
      <trkpt lat="44.37082" lon="6.7828">
        <ele>1939.35546875</ele>
      </trkpt>
      <trkpt lat="44.3709" lon="6.7827">
        <ele>1937.20703125</ele>
      </trkpt>
      <trkpt lat="44.37117" lon="6.78251">
        <ele>1934.66015625</ele>
      </trkpt>
      <trkpt lat="44.37146" lon="6.78231">
        <ele>1929.00390625</ele>
      </trkpt>
      <trkpt lat="44.37157" lon="6.78224">
        <ele>1926.7421875</ele>
      </trkpt>
      <trkpt lat="44.37165" lon="6.78222">
        <ele>1926.078125</ele>
      </trkpt>
      <trkpt lat="44.37173" lon="6.7822">
        <ele>1925.35546875</ele>
      </trkpt>
      <trkpt lat="44.37186" lon="6.78219">
        <ele>1925.109375</ele>
      </trkpt>
      <trkpt lat="44.37211" lon="6.78215">
        <ele>1920.85546875</ele>
      </trkpt>
      <trkpt lat="44.3722" lon="6.78212">
        <ele>1918.453125</ele>
      </trkpt>
      <trkpt lat="44.3723" lon="6.78206">
        <ele>1915.0234375</ele>
      </trkpt>
      <trkpt lat="44.37236" lon="6.78201">
        <ele>1911.8671875</ele>
      </trkpt>
      <trkpt lat="44.37244" lon="6.78197">
        <ele>1908.98046875</ele>
      </trkpt>
      <trkpt lat="44.37251" lon="6.78193">
        <ele>1906.46484375</ele>
      </trkpt>
      <trkpt lat="44.37258" lon="6.78192">
        <ele>1904.85546875</ele>
      </trkpt>
      <trkpt lat="44.37279" lon="6.78189">
        <ele>1899.640625</ele>
      </trkpt>
      <trkpt lat="44.37286" lon="6.7819">
        <ele>1898.71484375</ele>
      </trkpt>
      <trkpt lat="44.37291" lon="6.78192">
        <ele>1898.328125</ele>
      </trkpt>
      <trkpt lat="44.37296" lon="6.78195">
        <ele>1898.26171875</ele>
      </trkpt>
      <trkpt lat="44.373" lon="6.78199">
        <ele>1898.7578125</ele>
      </trkpt>
      <trkpt lat="44.3733" lon="6.78235">
        <ele>1912.1484375</ele>
      </trkpt>
      <trkpt lat="44.37339" lon="6.78243">
        <ele>1914.7734375</ele>
      </trkpt>
      <trkpt lat="44.37349" lon="6.78249">
        <ele>1916.9921875</ele>
      </trkpt>
      <trkpt lat="44.3736" lon="6.78253">
        <ele>1918.16015625</ele>
      </trkpt>
      <trkpt lat="44.37371" lon="6.78256">
        <ele>1918.171875</ele>
      </trkpt>
      <trkpt lat="44.37381" lon="6.78256">
        <ele>1917.13671875</ele>
      </trkpt>
      <trkpt lat="44.37461" lon="6.78253">
        <ele>1905.34765625</ele>
      </trkpt>
      <trkpt lat="44.37476" lon="6.78253">
        <ele>1903.86328125</ele>
      </trkpt>
      <trkpt lat="44.37493" lon="6.78256">
        <ele>1903.44921875</ele>
      </trkpt>
      <trkpt lat="44.37499" lon="6.78256">
        <ele>1902.8359375</ele>
      </trkpt>
      <trkpt lat="44.37505" lon="6.78254">
        <ele>1901.79296875</ele>
      </trkpt>
      <trkpt lat="44.37511" lon="6.7825">
        <ele>1899.4609375</ele>
      </trkpt>
      <trkpt lat="44.37515" lon="6.78247">
        <ele>1897.921875</ele>
      </trkpt>
      <trkpt lat="44.37524" lon="6.78238">
        <ele>1894.9296875</ele>
      </trkpt>
      <trkpt lat="44.37532" lon="6.78233">
        <ele>1893.59375</ele>
      </trkpt>
      <trkpt lat="44.37539" lon="6.7823">
        <ele>1892.91015625</ele>
      </trkpt>
      <trkpt lat="44.37565" lon="6.78222">
        <ele>1892.21484375</ele>
      </trkpt>
      <trkpt lat="44.3759" lon="6.78216">
        <ele>1894.85546875</ele>
      </trkpt>
      <trkpt lat="44.37599" lon="6.78213">
        <ele>1895.953125</ele>
      </trkpt>
      <trkpt lat="44.37609" lon="6.78206">
        <ele>1896.328125</ele>
      </trkpt>
      <trkpt lat="44.37613" lon="6.78203">
        <ele>1896.39453125</ele>
      </trkpt>
      <trkpt lat="44.37639" lon="6.78165">
        <ele>1888.19921875</ele>
      </trkpt>
      <trkpt lat="44.37655" lon="6.78148">
        <ele>1883.4453125</ele>
      </trkpt>
      <trkpt lat="44.37669" lon="6.78133">
        <ele>1878.89453125</ele>
      </trkpt>
      <trkpt lat="44.37677" lon="6.78126">
        <ele>1876.53515625</ele>
      </trkpt>
      <trkpt lat="44.37686" lon="6.7812">
        <ele>1874.7265625</ele>
      </trkpt>
      <trkpt lat="44.37697" lon="6.78116">
        <ele>1870.81640625</ele>
      </trkpt>
      <trkpt lat="44.37706" lon="6.78114">
        <ele>1868.03125</ele>
      </trkpt>
      <trkpt lat="44.37715" lon="6.78114">
        <ele>1866.3359375</ele>
      </trkpt>
      <trkpt lat="44.37746" lon="6.78117">
        <ele>1861.05859375</ele>
      </trkpt>
      <trkpt lat="44.3775" lon="6.78118">
        <ele>1860.3359375</ele>
      </trkpt>
      <trkpt lat="44.37757" lon="6.7812">
        <ele>1859.44921875</ele>
      </trkpt>
      <trkpt lat="44.37762" lon="6.78125">
        <ele>1859.62890625</ele>
      </trkpt>
      <trkpt lat="44.37767" lon="6.78131">
        <ele>1860.58984375</ele>
      </trkpt>
      <trkpt lat="44.37789" lon="6.78163">
        <ele>1867.1484375</ele>
      </trkpt>
      <trkpt lat="44.37795" lon="6.7817">
        <ele>1868.04296875</ele>
      </trkpt>
      <trkpt lat="44.37801" lon="6.78174">
        <ele>1868.90625</ele>
      </trkpt>
      <trkpt lat="44.3781" lon="6.78178">
        <ele>1869.34375</ele>
      </trkpt>
      <trkpt lat="44.37827" lon="6.78183">
        <ele>1868.9296875</ele>
      </trkpt>
      <trkpt lat="44.37837" lon="6.78186">
        <ele>1869.140625</ele>
      </trkpt>
      <trkpt lat="44.37845" lon="6.78189">
        <ele>1869.6875</ele>
      </trkpt>
      <trkpt lat="44.37852" lon="6.78191">
        <ele>1869.80078125</ele>
      </trkpt>
      <trkpt lat="44.37881" lon="6.7819">
        <ele>1866.16796875</ele>
      </trkpt>
      <trkpt lat="44.37901" lon="6.78191">
        <ele>1864.46875</ele>
      </trkpt>
      <trkpt lat="44.37926" lon="6.78193">
        <ele>1862.51953125</ele>
      </trkpt>
      <trkpt lat="44.37957" lon="6.78198">
        <ele>1860.55859375</ele>
      </trkpt>
      <trkpt lat="44.37964" lon="6.78198">
        <ele>1859.828125</ele>
      </trkpt>
      <trkpt lat="44.3797" lon="6.78197">
        <ele>1859.02734375</ele>
      </trkpt>
      <trkpt lat="44.38016" lon="6.78184">
        <ele>1851.9453125</ele>
      </trkpt>
      <trkpt lat="44.38042" lon="6.78171">
        <ele>1847.671875</ele>
      </trkpt>
      <trkpt lat="44.38061" lon="6.78161">
        <ele>1844.5390625</ele>
      </trkpt>
      <trkpt lat="44.38071" lon="6.78157">
        <ele>1843.16796875</ele>
      </trkpt>
      <trkpt lat="44.38082" lon="6.78154">
        <ele>1841.59375</ele>
      </trkpt>
      <trkpt lat="44.38097" lon="6.7815">
        <ele>1839.58984375</ele>
      </trkpt>
      <trkpt lat="44.38112" lon="6.7815">
        <ele>1838.7421875</ele>
      </trkpt>
      <trkpt lat="44.38123" lon="6.78151">
        <ele>1838.50390625</ele>
      </trkpt>
      <trkpt lat="44.38139" lon="6.78156">
        <ele>1837.86328125</ele>
      </trkpt>
      <trkpt lat="44.38144" lon="6.78157">
        <ele>1837.21875</ele>
      </trkpt>
      <trkpt lat="44.38153" lon="6.78158">
        <ele>1835.953125</ele>
      </trkpt>
      <trkpt lat="44.38159" lon="6.78158">
        <ele>1834.74609375</ele>
      </trkpt>
      <trkpt lat="44.3817" lon="6.78156">
        <ele>1832.14453125</ele>
      </trkpt>
      <trkpt lat="44.38179" lon="6.78153">
        <ele>1829.52734375</ele>
      </trkpt>
      <trkpt lat="44.38183" lon="6.7815">
        <ele>1828.40625</ele>
      </trkpt>
      <trkpt lat="44.38185" lon="6.78143">
        <ele>1826.13671875</ele>
      </trkpt>
      <trkpt lat="44.38185" lon="6.78139">
        <ele>1824.91796875</ele>
      </trkpt>
      <trkpt lat="44.38182" lon="6.78132">
        <ele>1823.55078125</ele>
      </trkpt>
      <trkpt lat="44.38177" lon="6.78129">
        <ele>1823.25390625</ele>
      </trkpt>
      <trkpt lat="44.38157" lon="6.78129">
        <ele>1826.29296875</ele>
      </trkpt>
      <trkpt lat="44.38151" lon="6.78128">
        <ele>1826.75</ele>
      </trkpt>
      <trkpt lat="44.38148" lon="6.78125">
        <ele>1826.18359375</ele>
      </trkpt>
      <trkpt lat="44.38144" lon="6.78121">
        <ele>1825.75</ele>
      </trkpt>
      <trkpt lat="44.38124" lon="6.78096">
        <ele>1819.24609375</ele>
      </trkpt>
      <trkpt lat="44.38115" lon="6.78088">
        <ele>1816.9765625</ele>
      </trkpt>
      <trkpt lat="44.38105" lon="6.78082">
        <ele>1815.26171875</ele>
      </trkpt>
      <trkpt lat="44.38096" lon="6.78077">
        <ele>1814.23046875</ele>
      </trkpt>
      <trkpt lat="44.38079" lon="6.78077">
        <ele>1814.796875</ele>
      </trkpt>
      <trkpt lat="44.38071" lon="6.78079">
        <ele>1815.21484375</ele>
      </trkpt>
      <trkpt lat="44.38068" lon="6.78079">
        <ele>1815.109375</ele>
      </trkpt>
      <trkpt lat="44.38064" lon="6.78075">
        <ele>1813.93359375</ele>
      </trkpt>
      <trkpt lat="44.38061" lon="6.7807">
        <ele>1812.14453125</ele>
      </trkpt>
      <trkpt lat="44.38061" lon="6.78066">
        <ele>1810.76953125</ele>
      </trkpt>
      <trkpt lat="44.38062" lon="6.78061">
        <ele>1809.42578125</ele>
      </trkpt>
      <trkpt lat="44.38067" lon="6.78056">
        <ele>1807.8203125</ele>
      </trkpt>
      <trkpt lat="44.38084" lon="6.78055">
        <ele>1807.390625</ele>
      </trkpt>
      <trkpt lat="44.38091" lon="6.78053">
        <ele>1806.515625</ele>
      </trkpt>
      <trkpt lat="44.381" lon="6.78048">
        <ele>1804.9453125</ele>
      </trkpt>
      <trkpt lat="44.38111" lon="6.7804">
        <ele>1802.01171875</ele>
      </trkpt>
      <trkpt lat="44.38115" lon="6.78039">
        <ele>1801.58984375</ele>
      </trkpt>
      <trkpt lat="44.3812" lon="6.78037">
        <ele>1800.81640625</ele>
      </trkpt>
      <trkpt lat="44.38135" lon="6.78039">
        <ele>1800.921875</ele>
      </trkpt>
      <trkpt lat="44.38141" lon="6.78041">
        <ele>1801.2265625</ele>
      </trkpt>
      <trkpt lat="44.38144" lon="6.78043">
        <ele>1801.6484375</ele>
      </trkpt>
      <trkpt lat="44.3815" lon="6.78045">
        <ele>1801.83984375</ele>
      </trkpt>
      <trkpt lat="44.38157" lon="6.78047">
        <ele>1802</ele>
      </trkpt>
      <trkpt lat="44.38162" lon="6.78047">
        <ele>1801.62890625</ele>
      </trkpt>
      <trkpt lat="44.38171" lon="6.78045">
        <ele>1800.4609375</ele>
      </trkpt>
      <trkpt lat="44.38191" lon="6.78036">
        <ele>1796.484375</ele>
      </trkpt>
      <trkpt lat="44.382" lon="6.78032">
        <ele>1794.90625</ele>
      </trkpt>
      <trkpt lat="44.38252" lon="6.78028">
        <ele>1790.3828125</ele>
      </trkpt>
      <trkpt lat="44.38257" lon="6.7803">
        <ele>1790.7890625</ele>
      </trkpt>
      <trkpt lat="44.38261" lon="6.78032">
        <ele>1791.24609375</ele>
      </trkpt>
      <trkpt lat="44.38271" lon="6.78048">
        <ele>1795.046875</ele>
      </trkpt>
      <trkpt lat="44.38273" lon="6.78052">
        <ele>1795.8359375</ele>
      </trkpt>
      <trkpt lat="44.38277" lon="6.78057">
        <ele>1797.1796875</ele>
      </trkpt>
      <trkpt lat="44.38281" lon="6.7806">
        <ele>1798.03125</ele>
      </trkpt>
      <trkpt lat="44.38287" lon="6.78061">
        <ele>1798.3984375</ele>
      </trkpt>
      <trkpt lat="44.38291" lon="6.7806">
        <ele>1798.21484375</ele>
      </trkpt>
      <trkpt lat="44.383" lon="6.78056">
        <ele>1797.28125</ele>
      </trkpt>
      <trkpt lat="44.38315" lon="6.78047">
        <ele>1795.25390625</ele>
      </trkpt>
      <trkpt lat="44.38322" lon="6.78045">
        <ele>1794.75390625</ele>
      </trkpt>
      <trkpt lat="44.38331" lon="6.78043">
        <ele>1794.2421875</ele>
      </trkpt>
      <trkpt lat="44.38339" lon="6.78043">
        <ele>1794.30859375</ele>
      </trkpt>
      <trkpt lat="44.38344" lon="6.78044">
        <ele>1794.64453125</ele>
      </trkpt>
      <trkpt lat="44.38351" lon="6.78047">
        <ele>1795.6328125</ele>
      </trkpt>
      <trkpt lat="44.38357" lon="6.78052">
        <ele>1796.875</ele>
      </trkpt>
      <trkpt lat="44.38361" lon="6.78054">
        <ele>1797.4921875</ele>
      </trkpt>
      <trkpt lat="44.38366" lon="6.78054">
        <ele>1797.4921875</ele>
      </trkpt>
      <trkpt lat="44.38369" lon="6.78054">
        <ele>1797.4921875</ele>
      </trkpt>
      <trkpt lat="44.38374" lon="6.7805">
        <ele>1796.2578125</ele>
      </trkpt>
      <trkpt lat="44.38383" lon="6.78039">
        <ele>1793.1640625</ele>
      </trkpt>
      <trkpt lat="44.38389" lon="6.78033">
        <ele>1791.6171875</ele>
      </trkpt>
      <trkpt lat="44.38399" lon="6.78025">
        <ele>1789.16015625</ele>
      </trkpt>
      <trkpt lat="44.38423" lon="6.78013">
        <ele>1784.38671875</ele>
      </trkpt>
      <trkpt lat="44.38432" lon="6.78008">
        <ele>1782.28515625</ele>
      </trkpt>
      <trkpt lat="44.38442" lon="6.77999">
        <ele>1779.37890625</ele>
      </trkpt>
      <trkpt lat="44.38454" lon="6.77993">
        <ele>1777.1328125</ele>
      </trkpt>
      <trkpt lat="44.38459" lon="6.77992">
        <ele>1776.5859375</ele>
      </trkpt>
      <trkpt lat="44.38465" lon="6.77992">
        <ele>1775.8125</ele>
      </trkpt>
      <trkpt lat="44.38468" lon="6.77993">
        <ele>1775.24609375</ele>
      </trkpt>
      <trkpt lat="44.38472" lon="6.77995">
        <ele>1774.68359375</ele>
      </trkpt>
      <trkpt lat="44.38477" lon="6.77999">
        <ele>1774.69921875</ele>
      </trkpt>
      <trkpt lat="44.3848" lon="6.78002">
        <ele>1774.765625</ele>
      </trkpt>
      <trkpt lat="44.38492" lon="6.78026">
        <ele>1778.74609375</ele>
      </trkpt>
      <trkpt lat="44.38495" lon="6.78031">
        <ele>1779.73828125</ele>
      </trkpt>
      <trkpt lat="44.385" lon="6.78037">
        <ele>1781.13671875</ele>
      </trkpt>
      <trkpt lat="44.38507" lon="6.7804">
        <ele>1781.59375</ele>
      </trkpt>
      <trkpt lat="44.38511" lon="6.78041">
        <ele>1781.4765625</ele>
      </trkpt>
      <trkpt lat="44.38544" lon="6.78046">
        <ele>1780.015625</ele>
      </trkpt>
      <trkpt lat="44.38552" lon="6.78048">
        <ele>1780.296875</ele>
      </trkpt>
      <trkpt lat="44.38558" lon="6.78048">
        <ele>1779.5859375</ele>
      </trkpt>
      <trkpt lat="44.3857" lon="6.78047">
        <ele>1777.66796875</ele>
      </trkpt>
      <trkpt lat="44.38588" lon="6.78043">
        <ele>1770.7578125</ele>
      </trkpt>
      <trkpt lat="44.38607" lon="6.78038">
        <ele>1762.4375</ele>
      </trkpt>
      <trkpt lat="44.38615" lon="6.78039">
        <ele>1760.99609375</ele>
      </trkpt>
      <trkpt lat="44.38631" lon="6.78053">
        <ele>1764.34765625</ele>
      </trkpt>
      <trkpt lat="44.38657" lon="6.78082">
        <ele>1771.3828125</ele>
      </trkpt>
      <trkpt lat="44.38674" lon="6.78101">
        <ele>1774.0078125</ele>
      </trkpt>
      <trkpt lat="44.38687" lon="6.78104">
        <ele>1771.3515625</ele>
      </trkpt>
      <trkpt lat="44.38694" lon="6.78104">
        <ele>1770.7734375</ele>
      </trkpt>
      <trkpt lat="44.38702" lon="6.78104">
        <ele>1770.19921875</ele>
      </trkpt>
      <trkpt lat="44.3871" lon="6.781">
        <ele>1767.83203125</ele>
      </trkpt>
      <trkpt lat="44.38729" lon="6.78086">
        <ele>1761.28125</ele>
      </trkpt>
      <trkpt lat="44.38733" lon="6.78084">
        <ele>1760.1875</ele>
      </trkpt>
      <trkpt lat="44.38739" lon="6.78082">
        <ele>1759.0078125</ele>
      </trkpt>
      <trkpt lat="44.38746" lon="6.78081">
        <ele>1758.2734375</ele>
      </trkpt>
      <trkpt lat="44.38765" lon="6.78079">
        <ele>1756.546875</ele>
      </trkpt>
      <trkpt lat="44.38775" lon="6.78077">
        <ele>1755.71484375</ele>
      </trkpt>
      <trkpt lat="44.38784" lon="6.78074">
        <ele>1754.14453125</ele>
      </trkpt>
      <trkpt lat="44.38804" lon="6.78065">
        <ele>1749.39453125</ele>
      </trkpt>
      <trkpt lat="44.38815" lon="6.78061">
        <ele>1747.03515625</ele>
      </trkpt>
      <trkpt lat="44.38822" lon="6.78061">
        <ele>1746.15234375</ele>
      </trkpt>
      <trkpt lat="44.38828" lon="6.78064">
        <ele>1746.10546875</ele>
      </trkpt>
      <trkpt lat="44.38841" lon="6.78062">
        <ele>1744.2265625</ele>
      </trkpt>
      <trkpt lat="44.38895" lon="6.78059">
        <ele>1732.92578125</ele>
      </trkpt>
      <trkpt lat="44.389" lon="6.7806">
        <ele>1732.109375</ele>
      </trkpt>
      <trkpt lat="44.38905" lon="6.78065">
        <ele>1732.3828125</ele>
      </trkpt>
      <trkpt lat="44.38908" lon="6.78068">
        <ele>1732.57421875</ele>
      </trkpt>
      <trkpt lat="44.38914" lon="6.78079">
        <ele>1734.09375</ele>
      </trkpt>
      <trkpt lat="44.38919" lon="6.78082">
        <ele>1734.03515625</ele>
      </trkpt>
      <trkpt lat="44.38923" lon="6.78081">
        <ele>1732.828125</ele>
      </trkpt>
      <trkpt lat="44.38927" lon="6.78075">
        <ele>1730.49609375</ele>
      </trkpt>
      <trkpt lat="44.38927" lon="6.78068">
        <ele>1728.51953125</ele>
      </trkpt>
      <trkpt lat="44.38887" lon="6.78029">
        <ele>1725.8125</ele>
      </trkpt>
      <trkpt lat="44.38877" lon="6.78023">
        <ele>1725.88671875</ele>
      </trkpt>
      <trkpt lat="44.38864" lon="6.78018">
        <ele>1726.97265625</ele>
      </trkpt>
      <trkpt lat="44.38849" lon="6.78016">
        <ele>1728.86328125</ele>
      </trkpt>
      <trkpt lat="44.38828" lon="6.78014">
        <ele>1729.984375</ele>
      </trkpt>
      <trkpt lat="44.3882" lon="6.78014">
        <ele>1730.72265625</ele>
      </trkpt>
      <trkpt lat="44.38815" lon="6.78015">
        <ele>1731.54296875</ele>
      </trkpt>
      <trkpt lat="44.38809" lon="6.78014">
        <ele>1731.64453125</ele>
      </trkpt>
      <trkpt lat="44.38805" lon="6.78013">
        <ele>1731.63671875</ele>
      </trkpt>
      <trkpt lat="44.38802" lon="6.7801">
        <ele>1730.77734375</ele>
      </trkpt>
      <trkpt lat="44.38797" lon="6.78006">
        <ele>1729.5859375</ele>
      </trkpt>
      <trkpt lat="44.3879" lon="6.77995">
        <ele>1725.7265625</ele>
      </trkpt>
      <trkpt lat="44.38787" lon="6.77994">
        <ele>1725.2578125</ele>
      </trkpt>
      <trkpt lat="44.38779" lon="6.77993">
        <ele>1724.67578125</ele>
      </trkpt>
      <trkpt lat="44.38761" lon="6.77999">
        <ele>1726.68359375</ele>
      </trkpt>
      <trkpt lat="44.38758" lon="6.77999">
        <ele>1726.6171875</ele>
      </trkpt>
      <trkpt lat="44.38753" lon="6.77995">
        <ele>1724.86328125</ele>
      </trkpt>
      <trkpt lat="44.38752" lon="6.77987">
        <ele>1721.921875</ele>
      </trkpt>
      <trkpt lat="44.38753" lon="6.77983">
        <ele>1720.2890625</ele>
      </trkpt>
      <trkpt lat="44.38757" lon="6.77981">
        <ele>1719.5625</ele>
      </trkpt>
      <trkpt lat="44.38789" lon="6.7797">
        <ele>1717.0234375</ele>
      </trkpt>
      <trkpt lat="44.38793" lon="6.7797">
        <ele>1717.18359375</ele>
      </trkpt>
      <trkpt lat="44.38798" lon="6.77971">
        <ele>1717.51171875</ele>
      </trkpt>
      <trkpt lat="44.38802" lon="6.77973">
        <ele>1718.0546875</ele>
      </trkpt>
      <trkpt lat="44.38809" lon="6.77979">
        <ele>1719.515625</ele>
      </trkpt>
      <trkpt lat="44.38813" lon="6.77981">
        <ele>1720.0703125</ele>
      </trkpt>
      <trkpt lat="44.38817" lon="6.77981">
        <ele>1719.93359375</ele>
      </trkpt>
      <trkpt lat="44.38821" lon="6.77981">
        <ele>1719.75</ele>
      </trkpt>
      <trkpt lat="44.38838" lon="6.77971">
        <ele>1716.2578125</ele>
      </trkpt>
      <trkpt lat="44.38842" lon="6.77967">
        <ele>1715.00390625</ele>
      </trkpt>
      <trkpt lat="44.38847" lon="6.77963">
        <ele>1713.78515625</ele>
      </trkpt>
      <trkpt lat="44.38852" lon="6.77953">
        <ele>1711.06640625</ele>
      </trkpt>
      <trkpt lat="44.38854" lon="6.77947">
        <ele>1709.078125</ele>
      </trkpt>
      <trkpt lat="44.38865" lon="6.77917">
        <ele>1699.92578125</ele>
      </trkpt>
      <trkpt lat="44.38867" lon="6.77912">
        <ele>1698.65234375</ele>
      </trkpt>
      <trkpt lat="44.3887" lon="6.77908">
        <ele>1697.203125</ele>
      </trkpt>
      <trkpt lat="44.38874" lon="6.77905">
        <ele>1695.984375</ele>
      </trkpt>
      <trkpt lat="44.38879" lon="6.77902">
        <ele>1694.421875</ele>
      </trkpt>
      <trkpt lat="44.38883" lon="6.77899">
        <ele>1693.26171875</ele>
      </trkpt>
      <trkpt lat="44.38889" lon="6.77899">
        <ele>1692.390625</ele>
      </trkpt>
      <trkpt lat="44.38894" lon="6.77899">
        <ele>1691.5234375</ele>
      </trkpt>
      <trkpt lat="44.38899" lon="6.77904">
        <ele>1691.578125</ele>
      </trkpt>
      <trkpt lat="44.38905" lon="6.77907">
        <ele>1691.40625</ele>
      </trkpt>
      <trkpt lat="44.3891" lon="6.77912">
        <ele>1691.578125</ele>
      </trkpt>
      <trkpt lat="44.38914" lon="6.77919">
        <ele>1692.11328125</ele>
      </trkpt>
      <trkpt lat="44.38919" lon="6.77925">
        <ele>1692.7578125</ele>
      </trkpt>
      <trkpt lat="44.38923" lon="6.77932">
        <ele>1693.45703125</ele>
      </trkpt>
      <trkpt lat="44.38926" lon="6.77937">
        <ele>1694.12109375</ele>
      </trkpt>
      <trkpt lat="44.3893" lon="6.77941">
        <ele>1694.33203125</ele>
      </trkpt>
      <trkpt lat="44.38935" lon="6.77944">
        <ele>1694.29296875</ele>
      </trkpt>
      <trkpt lat="44.3894" lon="6.77948">
        <ele>1694.0625</ele>
      </trkpt>
      <trkpt lat="44.38943" lon="6.77945">
        <ele>1692.921875</ele>
      </trkpt>
      <trkpt lat="44.38945" lon="6.77942">
        <ele>1691.72265625</ele>
      </trkpt>
      <trkpt lat="44.38946" lon="6.77938">
        <ele>1690.45703125</ele>
      </trkpt>
      <trkpt lat="44.38941" lon="6.77923">
        <ele>1687.80078125</ele>
      </trkpt>
      <trkpt lat="44.38938" lon="6.77915">
        <ele>1686.7890625</ele>
      </trkpt>
      <trkpt lat="44.38921" lon="6.7789">
        <ele>1684.71484375</ele>
      </trkpt>
      <trkpt lat="44.38914" lon="6.77877">
        <ele>1683.17578125</ele>
      </trkpt>
      <trkpt lat="44.38907" lon="6.77861">
        <ele>1680.9375</ele>
      </trkpt>
      <trkpt lat="44.38904" lon="6.77852">
        <ele>1679.2890625</ele>
      </trkpt>
      <trkpt lat="44.38901" lon="6.77847">
        <ele>1678.265625</ele>
      </trkpt>
      <trkpt lat="44.38899" lon="6.77841">
        <ele>1677.234375</ele>
      </trkpt>
      <trkpt lat="44.38896" lon="6.77836">
        <ele>1676.359375</ele>
      </trkpt>
      <trkpt lat="44.38889" lon="6.77829">
        <ele>1675.5703125</ele>
      </trkpt>
      <trkpt lat="44.38884" lon="6.77826">
        <ele>1675.66015625</ele>
      </trkpt>
      <trkpt lat="44.38878" lon="6.77825">
        <ele>1676.34375</ele>
      </trkpt>
      <trkpt lat="44.38875" lon="6.77825">
        <ele>1676.82421875</ele>
      </trkpt>
      <trkpt lat="44.38868" lon="6.77829">
        <ele>1678.63671875</ele>
      </trkpt>
      <trkpt lat="44.38864" lon="6.77831">
        <ele>1679.8515625</ele>
      </trkpt>
      <trkpt lat="44.38861" lon="6.77835">
        <ele>1681.484375</ele>
      </trkpt>
      <trkpt lat="44.38859" lon="6.77838">
        <ele>1682.671875</ele>
      </trkpt>
      <trkpt lat="44.38852" lon="6.77849">
        <ele>1686.5546875</ele>
      </trkpt>
      <trkpt lat="44.38847" lon="6.77855">
        <ele>1688.1796875</ele>
      </trkpt>
      <trkpt lat="44.38841" lon="6.77859">
        <ele>1688.734375</ele>
      </trkpt>
      <trkpt lat="44.38834" lon="6.77863">
        <ele>1689.5234375</ele>
      </trkpt>
      <trkpt lat="44.3882" lon="6.77871">
        <ele>1690.90234375</ele>
      </trkpt>
      <trkpt lat="44.38815" lon="6.77873">
        <ele>1690.89453125</ele>
      </trkpt>
      <trkpt lat="44.3881" lon="6.77869">
        <ele>1689.90234375</ele>
      </trkpt>
      <trkpt lat="44.38808" lon="6.77864">
        <ele>1688.41796875</ele>
      </trkpt>
      <trkpt lat="44.38808" lon="6.7786">
        <ele>1687.01953125</ele>
      </trkpt>
      <trkpt lat="44.38811" lon="6.77854">
        <ele>1685.48828125</ele>
      </trkpt>
      <trkpt lat="44.38819" lon="6.77851">
        <ele>1684.9921875</ele>
      </trkpt>
      <trkpt lat="44.38828" lon="6.77848">
        <ele>1684.72265625</ele>
      </trkpt>
      <trkpt lat="44.38833" lon="6.77846">
        <ele>1684.41796875</ele>
      </trkpt>
      <trkpt lat="44.38836" lon="6.77842">
        <ele>1683.73828125</ele>
      </trkpt>
      <trkpt lat="44.38841" lon="6.77836">
        <ele>1682.36328125</ele>
      </trkpt>
      <trkpt lat="44.38849" lon="6.77821">
        <ele>1678.94921875</ele>
      </trkpt>
      <trkpt lat="44.38857" lon="6.77809">
        <ele>1675.07421875</ele>
      </trkpt>
      <trkpt lat="44.38863" lon="6.77805">
        <ele>1672.7265625</ele>
      </trkpt>
      <trkpt lat="44.38869" lon="6.77797">
        <ele>1669.1171875</ele>
      </trkpt>
      <trkpt lat="44.38872" lon="6.77795">
        <ele>1667.92578125</ele>
      </trkpt>
      <trkpt lat="44.38878" lon="6.77793">
        <ele>1666.46875</ele>
      </trkpt>
      <trkpt lat="44.38885" lon="6.77792">
        <ele>1665.1328125</ele>
      </trkpt>
      <trkpt lat="44.38893" lon="6.77793">
        <ele>1664.5390625</ele>
      </trkpt>
      <trkpt lat="44.38937" lon="6.7782">
        <ele>1666.12890625</ele>
      </trkpt>
      <trkpt lat="44.38942" lon="6.77822">
        <ele>1665.80859375</ele>
      </trkpt>
      <trkpt lat="44.38946" lon="6.77823">
        <ele>1665.3984375</ele>
      </trkpt>
      <trkpt lat="44.38953" lon="6.77824">
        <ele>1664.6484375</ele>
      </trkpt>
      <trkpt lat="44.38957" lon="6.77824">
        <ele>1663.98828125</ele>
      </trkpt>
      <trkpt lat="44.3896" lon="6.77823">
        <ele>1663.26171875</ele>
      </trkpt>
      <trkpt lat="44.38993" lon="6.77815">
        <ele>1664.07421875</ele>
      </trkpt>
      <trkpt lat="44.39" lon="6.7781">
        <ele>1663.703125</ele>
      </trkpt>
      <trkpt lat="44.39004" lon="6.77806">
        <ele>1662.9453125</ele>
      </trkpt>
      <trkpt lat="44.39012" lon="6.77797">
        <ele>1661.3046875</ele>
      </trkpt>
      <trkpt lat="44.39014" lon="6.77793">
        <ele>1660.33984375</ele>
      </trkpt>
      <trkpt lat="44.39017" lon="6.77788">
        <ele>1659.1796875</ele>
      </trkpt>
      <trkpt lat="44.39024" lon="6.77782">
        <ele>1658.37109375</ele>
      </trkpt>
      <trkpt lat="44.3903" lon="6.77779">
        <ele>1658.10546875</ele>
      </trkpt>
      <trkpt lat="44.39057" lon="6.77772">
        <ele>1658.38671875</ele>
      </trkpt>
      <trkpt lat="44.39062" lon="6.77768">
        <ele>1657.85546875</ele>
      </trkpt>
      <trkpt lat="44.39068" lon="6.77765">
        <ele>1657.29296875</ele>
      </trkpt>
      <trkpt lat="44.39072" lon="6.77762">
        <ele>1656.609375</ele>
      </trkpt>
      <trkpt lat="44.3909" lon="6.77744">
        <ele>1653.375</ele>
      </trkpt>
      <trkpt lat="44.39105" lon="6.77729">
        <ele>1652.171875</ele>
      </trkpt>
      <trkpt lat="44.39111" lon="6.77722">
        <ele>1651.76171875</ele>
      </trkpt>
      <trkpt lat="44.39115" lon="6.77716">
        <ele>1651.3125</ele>
      </trkpt>
      <trkpt lat="44.39119" lon="6.77707">
        <ele>1650.62109375</ele>
      </trkpt>
      <trkpt lat="44.39124" lon="6.77696">
        <ele>1649.73046875</ele>
      </trkpt>
      <trkpt lat="44.39126" lon="6.77691">
        <ele>1649.76171875</ele>
      </trkpt>
      <trkpt lat="44.39129" lon="6.77673">
        <ele>1648.82421875</ele>
      </trkpt>
      <trkpt lat="44.39133" lon="6.77657">
        <ele>1648.921875</ele>
      </trkpt>
      <trkpt lat="44.3914" lon="6.77634">
        <ele>1648.61328125</ele>
      </trkpt>
      <trkpt lat="44.3915" lon="6.77598">
        <ele>1646.56640625</ele>
      </trkpt>
      <trkpt lat="44.39152" lon="6.77589">
        <ele>1645.9453125</ele>
      </trkpt>
      <trkpt lat="44.39155" lon="6.77552">
        <ele>1639.3984375</ele>
      </trkpt>
      <trkpt lat="44.39156" lon="6.77542">
        <ele>1637.8515625</ele>
      </trkpt>
      <trkpt lat="44.39157" lon="6.77538">
        <ele>1637.35546875</ele>
      </trkpt>
      <trkpt lat="44.39161" lon="6.77529">
        <ele>1636.9921875</ele>
      </trkpt>
      <trkpt lat="44.39165" lon="6.77522">
        <ele>1636.7109375</ele>
      </trkpt>
      <trkpt lat="44.39171" lon="6.77515">
        <ele>1636.96484375</ele>
      </trkpt>
      <trkpt lat="44.39177" lon="6.77512">
        <ele>1635.16</ele>
        <time>2018-06-20T09:12:07Z</time>
      </trkpt>
      <trkpt lat="44.39186" lon="6.77503">
        <ele>1635.15</ele>
        <time>2018-06-20T09:12:08Z</time>
      </trkpt>
      <trkpt lat="44.39196" lon="6.77493">
        <ele>1634.39</ele>
        <time>2018-06-20T09:12:09Z</time>
      </trkpt>
      <trkpt lat="44.39218" lon="6.77467">
        <ele>1633.48</ele>
        <time>2018-06-20T09:12:11Z</time>
      </trkpt>
      <trkpt lat="44.39228" lon="6.7745">
        <ele>1632.09</ele>
        <time>2018-06-20T09:12:12Z</time>
      </trkpt>
      <trkpt lat="44.39258" lon="6.77388">
        <ele>1628.44</ele>
        <time>2018-06-20T09:12:15Z</time>
      </trkpt>
      <trkpt lat="44.39279" lon="6.77344">
        <ele>1625.16</ele>
        <time>2018-06-20T09:12:17Z</time>
      </trkpt>
      <trkpt lat="44.39288" lon="6.77322">
        <ele>1623.57</ele>
        <time>2018-06-20T09:12:18Z</time>
      </trkpt>
      <trkpt lat="44.39295" lon="6.77298">
        <ele>1622.25</ele>
        <time>2018-06-20T09:12:19Z</time>
      </trkpt>
      <trkpt lat="44.39299" lon="6.77275">
        <ele>1620.74</ele>
        <time>2018-06-20T09:12:20Z</time>
      </trkpt>
      <trkpt lat="44.39304" lon="6.77252">
        <ele>1618.87</ele>
        <time>2018-06-20T09:12:21Z</time>
      </trkpt>
      <trkpt lat="44.3931" lon="6.7723">
        <ele>1617.03</ele>
        <time>2018-06-20T09:12:22Z</time>
      </trkpt>
      <trkpt lat="44.39318" lon="6.7721">
        <ele>1615.47</ele>
        <time>2018-06-20T09:12:23Z</time>
      </trkpt>
      <trkpt lat="44.39328" lon="6.77191">
        <ele>1613.87</ele>
        <time>2018-06-20T09:12:24Z</time>
      </trkpt>
      <trkpt lat="44.39339" lon="6.77174">
        <ele>1612.45</ele>
        <time>2018-06-20T09:12:25Z</time>
      </trkpt>
      <trkpt lat="44.39361" lon="6.77142">
        <ele>1609.21</ele>
        <time>2018-06-20T09:12:27Z</time>
      </trkpt>
      <trkpt lat="44.39396" lon="6.77098">
        <ele>1605.25</ele>
        <time>2018-06-20T09:12:30Z</time>
      </trkpt>
      <trkpt lat="44.3943" lon="6.77053">
        <ele>1601.5</ele>
        <time>2018-06-20T09:12:33Z</time>
      </trkpt>
      <trkpt lat="44.39439" lon="6.77035">
        <ele>1600.51</ele>
        <time>2018-06-20T09:12:34Z</time>
      </trkpt>
      <trkpt lat="44.39447" lon="6.77015">
        <ele>1599.75</ele>
        <time>2018-06-20T09:12:35Z</time>
      </trkpt>
      <trkpt lat="44.39454" lon="6.76995">
        <ele>1598.57</ele>
        <time>2018-06-20T09:12:36Z</time>
      </trkpt>
      <trkpt lat="44.3946" lon="6.76973">
        <ele>1597.27</ele>
        <time>2018-06-20T09:12:37Z</time>
      </trkpt>
      <trkpt lat="44.39464" lon="6.7695">
        <ele>1595.81</ele>
        <time>2018-06-20T09:12:38Z</time>
      </trkpt>
      <trkpt lat="44.39468" lon="6.76927">
        <ele>1593.78</ele>
        <time>2018-06-20T09:12:39Z</time>
      </trkpt>
      <trkpt lat="44.39475" lon="6.76882">
        <ele>1591.65</ele>
        <time>2018-06-20T09:12:41Z</time>
      </trkpt>
      <trkpt lat="44.39481" lon="6.76862">
        <ele>1589.82</ele>
        <time>2018-06-20T09:12:42Z</time>
      </trkpt>
      <trkpt lat="44.39489" lon="6.76842">
        <ele>1588.63</ele>
        <time>2018-06-20T09:12:43Z</time>
      </trkpt>
      <trkpt lat="44.39499" lon="6.76823">
        <ele>1587.62</ele>
        <time>2018-06-20T09:12:44Z</time>
      </trkpt>
      <trkpt lat="44.39511" lon="6.76805">
        <ele>1586.11</ele>
        <time>2018-06-20T09:12:45Z</time>
      </trkpt>
      <trkpt lat="44.39525" lon="6.76787">
        <ele>1585.37</ele>
        <time>2018-06-20T09:12:46Z</time>
      </trkpt>
      <trkpt lat="44.3954" lon="6.76771">
        <ele>1583.9</ele>
        <time>2018-06-20T09:12:47Z</time>
      </trkpt>
      <trkpt lat="44.3957" lon="6.76743">
        <ele>1580.7</ele>
        <time>2018-06-20T09:12:49Z</time>
      </trkpt>
      <trkpt lat="44.39584" lon="6.76734">
        <ele>1578.98</ele>
        <time>2018-06-20T09:12:50Z</time>
      </trkpt>
      <trkpt lat="44.39597" lon="6.76729">
        <ele>1576.99</ele>
        <time>2018-06-20T09:12:51Z</time>
      </trkpt>
      <trkpt lat="44.39611" lon="6.76727">
        <ele>1575.47</ele>
        <time>2018-06-20T09:12:52Z</time>
      </trkpt>
      <trkpt lat="44.39625" lon="6.76729">
        <ele>1574.27</ele>
        <time>2018-06-20T09:12:53Z</time>
      </trkpt>
      <trkpt lat="44.39639" lon="6.76732">
        <ele>1573.25</ele>
        <time>2018-06-20T09:12:54Z</time>
      </trkpt>
      <trkpt lat="44.39655" lon="6.76736">
        <ele>1573.7</ele>
        <time>2018-06-20T09:12:55Z</time>
      </trkpt>
      <trkpt lat="44.39671" lon="6.76737">
        <ele>1571.58</ele>
        <time>2018-06-20T09:12:56Z</time>
      </trkpt>
      <trkpt lat="44.39687" lon="6.76736">
        <ele>1569.9</ele>
        <time>2018-06-20T09:12:57Z</time>
      </trkpt>
      <trkpt lat="44.39718" lon="6.76734">
        <ele>1566.88</ele>
        <time>2018-06-20T09:12:59Z</time>
      </trkpt>
      <trkpt lat="44.39732" lon="6.76737">
        <ele>1565.39</ele>
        <time>2018-06-20T09:13:00Z</time>
      </trkpt>
      <trkpt lat="44.39744" lon="6.76745">
        <ele>1563.88</ele>
        <time>2018-06-20T09:13:01Z</time>
      </trkpt>
      <trkpt lat="44.39755" lon="6.76757">
        <ele>1562.99</ele>
        <time>2018-06-20T09:13:02Z</time>
      </trkpt>
      <trkpt lat="44.39765" lon="6.76773">
        <ele>1561.97</ele>
        <time>2018-06-20T09:13:03Z</time>
      </trkpt>
      <trkpt lat="44.39776" lon="6.7679">
        <ele>1562.07</ele>
        <time>2018-06-20T09:13:04Z</time>
      </trkpt>
      <trkpt lat="44.39797" lon="6.76827">
        <ele>1559.04</ele>
        <time>2018-06-20T09:13:06Z</time>
      </trkpt>
      <trkpt lat="44.39818" lon="6.76861">
        <ele>1555.71</ele>
        <time>2018-06-20T09:13:08Z</time>
      </trkpt>
      <trkpt lat="44.3983" lon="6.76876">
        <ele>1553.78</ele>
        <time>2018-06-20T09:13:09Z</time>
      </trkpt>
      <trkpt lat="44.39845" lon="6.76885">
        <ele>1552.46</ele>
        <time>2018-06-20T09:13:10Z</time>
      </trkpt>
      <trkpt lat="44.3986" lon="6.7689">
        <ele>1551.19</ele>
        <time>2018-06-20T09:13:11Z</time>
      </trkpt>
      <trkpt lat="44.39875" lon="6.76891">
        <ele>1550.31</ele>
        <time>2018-06-20T09:13:12Z</time>
      </trkpt>
      <trkpt lat="44.39889" lon="6.76887">
        <ele>1549.06</ele>
        <time>2018-06-20T09:13:13Z</time>
      </trkpt>
      <trkpt lat="44.39903" lon="6.76877">
        <ele>1547.88</ele>
        <time>2018-06-20T09:13:14Z</time>
      </trkpt>
      <trkpt lat="44.39916" lon="6.76863">
        <ele>1546.72</ele>
        <time>2018-06-20T09:13:15Z</time>
      </trkpt>
      <trkpt lat="44.39928" lon="6.76846">
        <ele>1545.57</ele>
        <time>2018-06-20T09:13:16Z</time>
      </trkpt>
      <trkpt lat="44.39954" lon="6.76818">
        <ele>1542.28</ele>
        <time>2018-06-20T09:13:18Z</time>
      </trkpt>
      <trkpt lat="44.39968" lon="6.76809">
        <ele>1541.28</ele>
        <time>2018-06-20T09:13:19Z</time>
      </trkpt>
      <trkpt lat="44.40013" lon="6.76783">
        <ele>1537.83</ele>
        <time>2018-06-20T09:13:22Z</time>
      </trkpt>
      <trkpt lat="44.40028" lon="6.76769">
        <ele>1536.47</ele>
        <time>2018-06-20T09:13:23Z</time>
      </trkpt>
      <trkpt lat="44.40055" lon="6.76738">
        <ele>1532.97</ele>
        <time>2018-06-20T09:13:25Z</time>
      </trkpt>
      <trkpt lat="44.4009" lon="6.7669">
        <ele>1529.19</ele>
        <time>2018-06-20T09:13:28Z</time>
      </trkpt>
      <trkpt lat="44.4011" lon="6.76656">
        <ele>1526.14</ele>
        <time>2018-06-20T09:13:30Z</time>
      </trkpt>
      <trkpt lat="44.40131" lon="6.76623">
        <ele>1524.05</ele>
        <time>2018-06-20T09:13:32Z</time>
      </trkpt>
      <trkpt lat="44.40142" lon="6.7661">
        <ele>1522.9</ele>
        <time>2018-06-20T09:13:33Z</time>
      </trkpt>
      <trkpt lat="44.40155" lon="6.766">
        <ele>1521.58</ele>
        <time>2018-06-20T09:13:34Z</time>
      </trkpt>
      <trkpt lat="44.40168" lon="6.76594">
        <ele>1520.01</ele>
        <time>2018-06-20T09:13:35Z</time>
      </trkpt>
      <trkpt lat="44.40182" lon="6.76593">
        <ele>1518.74</ele>
        <time>2018-06-20T09:13:36Z</time>
      </trkpt>
      <trkpt lat="44.40196" lon="6.76595">
        <ele>1517.73</ele>
        <time>2018-06-20T09:13:37Z</time>
      </trkpt>
      <trkpt lat="44.40209" lon="6.76597">
        <ele>1516.53</ele>
        <time>2018-06-20T09:13:38Z</time>
      </trkpt>
      <trkpt lat="44.4022" lon="6.76595">
        <ele>1515.3</ele>
        <time>2018-06-20T09:13:39Z</time>
      </trkpt>
      <trkpt lat="44.40231" lon="6.76589">
        <ele>1515.29</ele>
        <time>2018-06-20T09:13:40Z</time>
      </trkpt>
      <trkpt lat="44.40241" lon="6.76576">
        <ele>1513.91</ele>
        <time>2018-06-20T09:13:41Z</time>
      </trkpt>
      <trkpt lat="44.4025" lon="6.76558">
        <ele>1512.81</ele>
        <time>2018-06-20T09:13:42Z</time>
      </trkpt>
      <trkpt lat="44.40256" lon="6.76535">
        <ele>1512.82</ele>
        <time>2018-06-20T09:13:43Z</time>
      </trkpt>
      <trkpt lat="44.40262" lon="6.7651">
        <ele>1511.45</ele>
        <time>2018-06-20T09:13:44Z</time>
      </trkpt>
      <trkpt lat="44.40279" lon="6.76433">
        <ele>1507.76</ele>
        <time>2018-06-20T09:13:47Z</time>
      </trkpt>
      <trkpt lat="44.40287" lon="6.76409">
        <ele>1506.34</ele>
        <time>2018-06-20T09:13:48Z</time>
      </trkpt>
      <trkpt lat="44.40297" lon="6.76386">
        <ele>1504.78</ele>
        <time>2018-06-20T09:13:49Z</time>
      </trkpt>
      <trkpt lat="44.40316" lon="6.76341">
        <ele>1503.88</ele>
        <time>2018-06-20T09:13:51Z</time>
      </trkpt>
      <trkpt lat="44.4034" lon="6.76273">
        <ele>1499.9</ele>
        <time>2018-06-20T09:13:54Z</time>
      </trkpt>
      <trkpt lat="44.40346" lon="6.76249">
        <ele>1498.38</ele>
        <time>2018-06-20T09:13:55Z</time>
      </trkpt>
      <trkpt lat="44.4035" lon="6.76226">
        <ele>1497.27</ele>
        <time>2018-06-20T09:13:56Z</time>
      </trkpt>
      <trkpt lat="44.40352" lon="6.76202">
        <ele>1496.45</ele>
        <time>2018-06-20T09:13:57Z</time>
      </trkpt>
      <trkpt lat="44.40352" lon="6.76178">
        <ele>1495.14</ele>
        <time>2018-06-20T09:13:58Z</time>
      </trkpt>
      <trkpt lat="44.40352" lon="6.76155">
        <ele>1494.09</ele>
        <time>2018-06-20T09:13:59Z</time>
      </trkpt>
      <trkpt lat="44.40354" lon="6.76132">
        <ele>1493.35</ele>
        <time>2018-06-20T09:14:00Z</time>
      </trkpt>
      <trkpt lat="44.40357" lon="6.76112">
        <ele>1492.56</ele>
        <time>2018-06-20T09:14:01Z</time>
      </trkpt>
      <trkpt lat="44.40364" lon="6.76094">
        <ele>1491.75</ele>
        <time>2018-06-20T09:14:02Z</time>
      </trkpt>
      <trkpt lat="44.40374" lon="6.7608">
        <ele>1491.42</ele>
        <time>2018-06-20T09:14:03Z</time>
      </trkpt>
      <trkpt lat="44.40385" lon="6.7607">
        <ele>1490.06</ele>
        <time>2018-06-20T09:14:04Z</time>
      </trkpt>
      <trkpt lat="44.40399" lon="6.76063">
        <ele>1490.06</ele>
        <time>2018-06-20T09:14:05Z</time>
      </trkpt>
      <trkpt lat="44.40414" lon="6.76059">
        <ele>1488.73</ele>
        <time>2018-06-20T09:14:06Z</time>
      </trkpt>
      <trkpt lat="44.40429" lon="6.76054">
        <ele>1487.58</ele>
        <time>2018-06-20T09:14:07Z</time>
      </trkpt>
      <trkpt lat="44.40443" lon="6.76046">
        <ele>1486.75</ele>
        <time>2018-06-20T09:14:08Z</time>
      </trkpt>
      <trkpt lat="44.40456" lon="6.76035">
        <ele>1485.91</ele>
        <time>2018-06-20T09:14:09Z</time>
      </trkpt>
      <trkpt lat="44.40467" lon="6.76019">
        <ele>1485.89</ele>
        <time>2018-06-20T09:14:10Z</time>
      </trkpt>
      <trkpt lat="44.40478" lon="6.75999">
        <ele>1484.16</ele>
        <time>2018-06-20T09:14:11Z</time>
      </trkpt>
      <trkpt lat="44.40488" lon="6.75979">
        <ele>1483.2</ele>
        <time>2018-06-20T09:14:12Z</time>
      </trkpt>
      <trkpt lat="44.40516" lon="6.75918">
        <ele>1479.68</ele>
        <time>2018-06-20T09:14:15Z</time>
      </trkpt>
      <trkpt lat="44.40521" lon="6.75897">
        <ele>1478.27</ele>
        <time>2018-06-20T09:14:16Z</time>
      </trkpt>
      <trkpt lat="44.40524" lon="6.75875">
        <ele>1477.34</ele>
        <time>2018-06-20T09:14:17Z</time>
      </trkpt>
      <trkpt lat="44.40523" lon="6.75852">
        <ele>1477.33</ele>
        <time>2018-06-20T09:14:18Z</time>
      </trkpt>
      <trkpt lat="44.4052" lon="6.7583">
        <ele>1475.25</ele>
        <time>2018-06-20T09:14:19Z</time>
      </trkpt>
      <trkpt lat="44.40515" lon="6.75808">
        <ele>1473.67</ele>
        <time>2018-06-20T09:14:20Z</time>
      </trkpt>
      <trkpt lat="44.40511" lon="6.75787">
        <ele>1472.42</ele>
        <time>2018-06-20T09:14:21Z</time>
      </trkpt>
      <trkpt lat="44.4051" lon="6.75766">
        <ele>1471.52</ele>
        <time>2018-06-20T09:14:22Z</time>
      </trkpt>
      <trkpt lat="44.40512" lon="6.75747">
        <ele>1471.45</ele>
        <time>2018-06-20T09:14:23Z</time>
      </trkpt>
      <trkpt lat="44.40518" lon="6.75729">
        <ele>1470</ele>
        <time>2018-06-20T09:14:24Z</time>
      </trkpt>
      <trkpt lat="44.40526" lon="6.75712">
        <ele>1469.92</ele>
        <time>2018-06-20T09:14:25Z</time>
      </trkpt>
      <trkpt lat="44.40536" lon="6.75696">
        <ele>1468.55</ele>
        <time>2018-06-20T09:14:26Z</time>
      </trkpt>
      <trkpt lat="44.40561" lon="6.75646">
        <ele>1465.08</ele>
        <time>2018-06-20T09:14:29Z</time>
      </trkpt>
      <trkpt lat="44.40566" lon="6.75628">
        <ele>1464.12</ele>
        <time>2018-06-20T09:14:30Z</time>
      </trkpt>
      <trkpt lat="44.40568" lon="6.75611">
        <ele>1463.2</ele>
        <time>2018-06-20T09:14:31Z</time>
      </trkpt>
      <trkpt lat="44.40568" lon="6.75593">
        <ele>1462.52</ele>
        <time>2018-06-20T09:14:32Z</time>
      </trkpt>
      <trkpt lat="44.40566" lon="6.75576">
        <ele>1462.52</ele>
        <time>2018-06-20T09:14:33Z</time>
      </trkpt>
      <trkpt lat="44.40564" lon="6.75559">
        <ele>1461.72</ele>
        <time>2018-06-20T09:14:34Z</time>
      </trkpt>
      <trkpt lat="44.40565" lon="6.75541">
        <ele>1461.7</ele>
        <time>2018-06-20T09:14:35Z</time>
      </trkpt>
      <trkpt lat="44.40567" lon="6.75523">
        <ele>1461.76</ele>
        <time>2018-06-20T09:14:36Z</time>
      </trkpt>
      <trkpt lat="44.40571" lon="6.75506">
        <ele>1461.71</ele>
        <time>2018-06-20T09:14:37Z</time>
      </trkpt>
      <trkpt lat="44.40575" lon="6.75489">
        <ele>1460.39</ele>
        <time>2018-06-20T09:14:38Z</time>
      </trkpt>
      <trkpt lat="44.40582" lon="6.75474">
        <ele>1459.56</ele>
        <time>2018-06-20T09:14:39Z</time>
      </trkpt>
      <trkpt lat="44.40591" lon="6.75462">
        <ele>1458.7</ele>
        <time>2018-06-20T09:14:40Z</time>
      </trkpt>
      <trkpt lat="44.40603" lon="6.75453">
        <ele>1458.69</ele>
        <time>2018-06-20T09:14:41Z</time>
      </trkpt>
      <trkpt lat="44.40616" lon="6.7545">
        <ele>1457.96</ele>
        <time>2018-06-20T09:14:42Z</time>
      </trkpt>
      <trkpt lat="44.40629" lon="6.75452">
        <ele>1456.93</ele>
        <time>2018-06-20T09:14:43Z</time>
      </trkpt>
      <trkpt lat="44.4064" lon="6.75459">
        <ele>1455.69</ele>
        <time>2018-06-20T09:14:44Z</time>
      </trkpt>
      <trkpt lat="44.40649" lon="6.75472">
        <ele>1454.69</ele>
        <time>2018-06-20T09:14:45Z</time>
      </trkpt>
      <trkpt lat="44.40657" lon="6.75488">
        <ele>1454.72</ele>
        <time>2018-06-20T09:14:46Z</time>
      </trkpt>
      <trkpt lat="44.40664" lon="6.75505">
        <ele>1453.89</ele>
        <time>2018-06-20T09:14:47Z</time>
      </trkpt>
      <trkpt lat="44.40673" lon="6.7552">
        <ele>1452.83</ele>
        <time>2018-06-20T09:14:48Z</time>
      </trkpt>
      <trkpt lat="44.40683" lon="6.75529">
        <ele>1451.66</ele>
        <time>2018-06-20T09:14:49Z</time>
      </trkpt>
      <trkpt lat="44.40694" lon="6.75534">
        <ele>1450.69</ele>
        <time>2018-06-20T09:14:50Z</time>
      </trkpt>
      <trkpt lat="44.40705" lon="6.75534">
        <ele>1449.65</ele>
        <time>2018-06-20T09:14:51Z</time>
      </trkpt>
      <trkpt lat="44.40715" lon="6.75527">
        <ele>1448.87</ele>
        <time>2018-06-20T09:14:52Z</time>
      </trkpt>
      <trkpt lat="44.40724" lon="6.75516">
        <ele>1448.78</ele>
        <time>2018-06-20T09:14:53Z</time>
      </trkpt>
      <trkpt lat="44.40728" lon="6.755">
        <ele>1448.86</ele>
        <time>2018-06-20T09:14:54Z</time>
      </trkpt>
      <trkpt lat="44.40732" lon="6.75481">
        <ele>1447.2</ele>
        <time>2018-06-20T09:14:55Z</time>
      </trkpt>
      <trkpt lat="44.40738" lon="6.75461">
        <ele>1446.07</ele>
        <time>2018-06-20T09:14:56Z</time>
      </trkpt>
      <trkpt lat="44.40746" lon="6.75445">
        <ele>1444.73</ele>
        <time>2018-06-20T09:14:57Z</time>
      </trkpt>
      <trkpt lat="44.40757" lon="6.75432">
        <ele>1443.4</ele>
        <time>2018-06-20T09:14:58Z</time>
      </trkpt>
      <trkpt lat="44.40771" lon="6.75422">
        <ele>1441.99</ele>
        <time>2018-06-20T09:14:59Z</time>
      </trkpt>
      <trkpt lat="44.40787" lon="6.75417">
        <ele>1440.68</ele>
        <time>2018-06-20T09:15:00Z</time>
      </trkpt>
      <trkpt lat="44.40804" lon="6.75415">
        <ele>1440.67</ele>
        <time>2018-06-20T09:15:01Z</time>
      </trkpt>
      <trkpt lat="44.40822" lon="6.75411">
        <ele>1439.52</ele>
        <time>2018-06-20T09:15:02Z</time>
      </trkpt>
      <trkpt lat="44.4084" lon="6.75403">
        <ele>1438.67</ele>
        <time>2018-06-20T09:15:03Z</time>
      </trkpt>
      <trkpt lat="44.40856" lon="6.7539">
        <ele>1436.68</ele>
        <time>2018-06-20T09:15:04Z</time>
      </trkpt>
      <trkpt lat="44.40871" lon="6.75375">
        <ele>1434.73</ele>
        <time>2018-06-20T09:15:05Z</time>
      </trkpt>
      <trkpt lat="44.40886" lon="6.7536">
        <ele>1433.55</ele>
        <time>2018-06-20T09:15:06Z</time>
      </trkpt>
      <trkpt lat="44.40902" lon="6.75349">
        <ele>1431.65</ele>
        <time>2018-06-20T09:15:07Z</time>
      </trkpt>
      <trkpt lat="44.40918" lon="6.75343">
        <ele>1429.27</ele>
        <time>2018-06-20T09:15:08Z</time>
      </trkpt>
      <trkpt lat="44.40935" lon="6.75342">
        <ele>1427.83</ele>
        <time>2018-06-20T09:15:09Z</time>
      </trkpt>
      <trkpt lat="44.40953" lon="6.75344">
        <ele>1426.92</ele>
        <time>2018-06-20T09:15:10Z</time>
      </trkpt>
      <trkpt lat="44.40971" lon="6.75344">
        <ele>1425.85</ele>
        <time>2018-06-20T09:15:11Z</time>
      </trkpt>
      <trkpt lat="44.40989" lon="6.7534">
        <ele>1424.16</ele>
        <time>2018-06-20T09:15:12Z</time>
      </trkpt>
      <trkpt lat="44.41006" lon="6.75332">
        <ele>1422.52</ele>
        <time>2018-06-20T09:15:13Z</time>
      </trkpt>
      <trkpt lat="44.41038" lon="6.75314">
        <ele>1418.54</ele>
        <time>2018-06-20T09:15:15Z</time>
      </trkpt>
      <trkpt lat="44.41052" lon="6.75302">
        <ele>1417.24</ele>
        <time>2018-06-20T09:15:16Z</time>
      </trkpt>
      <trkpt lat="44.41066" lon="6.75289">
        <ele>1415.93</ele>
        <time>2018-06-20T09:15:17Z</time>
      </trkpt>
      <trkpt lat="44.41078" lon="6.75274">
        <ele>1414.91</ele>
        <time>2018-06-20T09:15:18Z</time>
      </trkpt>
      <trkpt lat="44.41088" lon="6.75257">
        <ele>1413.61</ele>
        <time>2018-06-20T09:15:19Z</time>
      </trkpt>
      <trkpt lat="44.41095" lon="6.75238">
        <ele>1412.74</ele>
        <time>2018-06-20T09:15:20Z</time>
      </trkpt>
      <trkpt lat="44.41099" lon="6.75216">
        <ele>1412.58</ele>
        <time>2018-06-20T09:15:21Z</time>
      </trkpt>
      <trkpt lat="44.41101" lon="6.75193">
        <ele>1411.63</ele>
        <time>2018-06-20T09:15:22Z</time>
      </trkpt>
      <trkpt lat="44.41101" lon="6.75172">
        <ele>1410.19</ele>
        <time>2018-06-20T09:15:23Z</time>
      </trkpt>
      <trkpt lat="44.41106" lon="6.75115">
        <ele>1406.62</ele>
        <time>2018-06-20T09:15:26Z</time>
      </trkpt>
      <trkpt lat="44.41111" lon="6.75103">
        <ele>1405.11</ele>
        <time>2018-06-20T09:15:27Z</time>
      </trkpt>
      <trkpt lat="44.41117" lon="6.75098">
        <ele>1404.04</ele>
        <time>2018-06-20T09:15:28Z</time>
      </trkpt>
      <trkpt lat="44.41123" lon="6.75099">
        <ele>1403.23</ele>
        <time>2018-06-20T09:15:29Z</time>
      </trkpt>
      <trkpt lat="44.41128" lon="6.75108">
        <ele>1403.25</ele>
        <time>2018-06-20T09:15:30Z</time>
      </trkpt>
      <trkpt lat="44.41128" lon="6.75121">
        <ele>1402.36</ele>
        <time>2018-06-20T09:15:31Z</time>
      </trkpt>
      <trkpt lat="44.41126" lon="6.75137">
        <ele>1402.38</ele>
        <time>2018-06-20T09:15:32Z</time>
      </trkpt>
      <trkpt lat="44.41124" lon="6.75156">
        <ele>1402.4</ele>
        <time>2018-06-20T09:15:33Z</time>
      </trkpt>
      <trkpt lat="44.41124" lon="6.75177">
        <ele>1401.36</ele>
        <time>2018-06-20T09:15:34Z</time>
      </trkpt>
      <trkpt lat="44.41125" lon="6.75242">
        <ele>1397.95</ele>
        <time>2018-06-20T09:15:37Z</time>
      </trkpt>
      <trkpt lat="44.41126" lon="6.75263">
        <ele>1396.34</ele>
        <time>2018-06-20T09:15:38Z</time>
      </trkpt>
      <trkpt lat="44.41131" lon="6.75283">
        <ele>1395.18</ele>
        <time>2018-06-20T09:15:39Z</time>
      </trkpt>
      <trkpt lat="44.41139" lon="6.75301">
        <ele>1395.28</ele>
        <time>2018-06-20T09:15:40Z</time>
      </trkpt>
      <trkpt lat="44.4115" lon="6.75317">
        <ele>1393.57</ele>
        <time>2018-06-20T09:15:41Z</time>
      </trkpt>
      <trkpt lat="44.41162" lon="6.75334">
        <ele>1392.36</ele>
        <time>2018-06-20T09:15:42Z</time>
      </trkpt>
      <trkpt lat="44.41198" lon="6.75385">
        <ele>1388.09</ele>
        <time>2018-06-20T09:15:45Z</time>
      </trkpt>
      <trkpt lat="44.41234" lon="6.75432">
        <ele>1384.12</ele>
        <time>2018-06-20T09:15:48Z</time>
      </trkpt>
      <trkpt lat="44.41265" lon="6.75477">
        <ele>1379.89</ele>
        <time>2018-06-20T09:15:51Z</time>
      </trkpt>
      <trkpt lat="44.41272" lon="6.75494">
        <ele>1378.85</ele>
        <time>2018-06-20T09:15:52Z</time>
      </trkpt>
      <trkpt lat="44.41276" lon="6.75513">
        <ele>1377.51</ele>
        <time>2018-06-20T09:15:53Z</time>
      </trkpt>
      <trkpt lat="44.41276" lon="6.75531">
        <ele>1376</ele>
        <time>2018-06-20T09:15:54Z</time>
      </trkpt>
      <trkpt lat="44.41273" lon="6.75548">
        <ele>1374.92</ele>
        <time>2018-06-20T09:15:55Z</time>
      </trkpt>
      <trkpt lat="44.41269" lon="6.75563">
        <ele>1373.5</ele>
        <time>2018-06-20T09:15:56Z</time>
      </trkpt>
      <trkpt lat="44.41269" lon="6.75577">
        <ele>1373.38</ele>
        <time>2018-06-20T09:15:57Z</time>
      </trkpt>
      <trkpt lat="44.41272" lon="6.75588">
        <ele>1371.83</ele>
        <time>2018-06-20T09:15:58Z</time>
      </trkpt>
      <trkpt lat="44.41277" lon="6.75594">
        <ele>1370.86</ele>
        <time>2018-06-20T09:15:59Z</time>
      </trkpt>
      <trkpt lat="44.41284" lon="6.75596">
        <ele>1370.77</ele>
        <time>2018-06-20T09:16:00Z</time>
      </trkpt>
      <trkpt lat="44.41291" lon="6.75592">
        <ele>1370.73</ele>
        <time>2018-06-20T09:16:01Z</time>
      </trkpt>
      <trkpt lat="44.41298" lon="6.75582">
        <ele>1369.48</ele>
        <time>2018-06-20T09:16:02Z</time>
      </trkpt>
      <trkpt lat="44.41304" lon="6.75569">
        <ele>1369.58</ele>
        <time>2018-06-20T09:16:03Z</time>
      </trkpt>
      <trkpt lat="44.4131" lon="6.75553">
        <ele>1369.49</ele>
        <time>2018-06-20T09:16:04Z</time>
      </trkpt>
      <trkpt lat="44.41314" lon="6.75534">
        <ele>1368.37</ele>
        <time>2018-06-20T09:16:05Z</time>
      </trkpt>
      <trkpt lat="44.41317" lon="6.75514">
        <ele>1368.5</ele>
        <time>2018-06-20T09:16:06Z</time>
      </trkpt>
      <trkpt lat="44.41316" lon="6.75492">
        <ele>1367.05</ele>
        <time>2018-06-20T09:16:07Z</time>
      </trkpt>
      <trkpt lat="44.41312" lon="6.7547">
        <ele>1365.97</ele>
        <time>2018-06-20T09:16:08Z</time>
      </trkpt>
      <trkpt lat="44.41305" lon="6.75447">
        <ele>1365.19</ele>
        <time>2018-06-20T09:16:09Z</time>
      </trkpt>
      <trkpt lat="44.41297" lon="6.75423">
        <ele>1363.72</ele>
        <time>2018-06-20T09:16:10Z</time>
      </trkpt>
      <trkpt lat="44.41275" lon="6.75356">
        <ele>1360</ele>
        <time>2018-06-20T09:16:13Z</time>
      </trkpt>
      <trkpt lat="44.41267" lon="6.75337">
        <ele>1359.25</ele>
        <time>2018-06-20T09:16:14Z</time>
      </trkpt>
      <trkpt lat="44.41251" lon="6.75306">
        <ele>1356</ele>
        <time>2018-06-20T09:16:16Z</time>
      </trkpt>
      <trkpt lat="44.41248" lon="6.75293">
        <ele>1354.45</ele>
        <time>2018-06-20T09:16:17Z</time>
      </trkpt>
      <trkpt lat="44.4125" lon="6.75282">
        <ele>1353.38</ele>
        <time>2018-06-20T09:16:18Z</time>
      </trkpt>
      <trkpt lat="44.41254" lon="6.75274">
        <ele>1352.4</ele>
        <time>2018-06-20T09:16:19Z</time>
      </trkpt>
      <trkpt lat="44.41261" lon="6.75272">
        <ele>1352.32</ele>
        <time>2018-06-20T09:16:20Z</time>
      </trkpt>
      <trkpt lat="44.41269" lon="6.75276">
        <ele>1352</ele>
        <time>2018-06-20T09:16:21Z</time>
      </trkpt>
      <trkpt lat="44.41278" lon="6.75288">
        <ele>1351.05</ele>
        <time>2018-06-20T09:16:22Z</time>
      </trkpt>
      <trkpt lat="44.41288" lon="6.75303">
        <ele>1350.88</ele>
        <time>2018-06-20T09:16:23Z</time>
      </trkpt>
      <trkpt lat="44.41321" lon="6.75352">
        <ele>1347.46</ele>
        <time>2018-06-20T09:16:26Z</time>
      </trkpt>
      <trkpt lat="44.41346" lon="6.75401">
        <ele>1343.22</ele>
        <time>2018-06-20T09:16:29Z</time>
      </trkpt>
      <trkpt lat="44.41354" lon="6.75408">
        <ele>1342.28</ele>
        <time>2018-06-20T09:16:30Z</time>
      </trkpt>
      <trkpt lat="44.41362" lon="6.75408">
        <ele>1341.39</ele>
        <time>2018-06-20T09:16:31Z</time>
      </trkpt>
      <trkpt lat="44.41369" lon="6.75401">
        <ele>1341.3</ele>
        <time>2018-06-20T09:16:32Z</time>
      </trkpt>
      <trkpt lat="44.41373" lon="6.75388">
        <ele>1341.29</ele>
        <time>2018-06-20T09:16:33Z</time>
      </trkpt>
      <trkpt lat="44.41373" lon="6.7537">
        <ele>1341.29</ele>
        <time>2018-06-20T09:16:34Z</time>
      </trkpt>
      <trkpt lat="44.41373" lon="6.75349">
        <ele>1340.33</ele>
        <time>2018-06-20T09:16:35Z</time>
      </trkpt>
      <trkpt lat="44.41368" lon="6.75305">
        <ele>1338.06</ele>
        <time>2018-06-20T09:16:37Z</time>
      </trkpt>
      <trkpt lat="44.41362" lon="6.75283">
        <ele>1336.73</ele>
        <time>2018-06-20T09:16:38Z</time>
      </trkpt>
      <trkpt lat="44.41348" lon="6.75241">
        <ele>1333.62</ele>
        <time>2018-06-20T09:16:40Z</time>
      </trkpt>
      <trkpt lat="44.41344" lon="6.75219">
        <ele>1332.14</ele>
        <time>2018-06-20T09:16:41Z</time>
      </trkpt>
      <trkpt lat="44.41337" lon="6.75179">
        <ele>1329.71</ele>
        <time>2018-06-20T09:16:43Z</time>
      </trkpt>
      <trkpt lat="44.4133" lon="6.75163">
        <ele>1328.51</ele>
        <time>2018-06-20T09:16:44Z</time>
      </trkpt>
      <trkpt lat="44.4132" lon="6.7515">
        <ele>1327.38</ele>
        <time>2018-06-20T09:16:45Z</time>
      </trkpt>
      <trkpt lat="44.41309" lon="6.75142">
        <ele>1326.37</ele>
        <time>2018-06-20T09:16:46Z</time>
      </trkpt>
      <trkpt lat="44.41297" lon="6.75137">
        <ele>1325.3</ele>
        <time>2018-06-20T09:16:47Z</time>
      </trkpt>
      <trkpt lat="44.41287" lon="6.75132">
        <ele>1324.15</ele>
        <time>2018-06-20T09:16:48Z</time>
      </trkpt>
      <trkpt lat="44.41282" lon="6.75125">
        <ele>1322.89</ele>
        <time>2018-06-20T09:16:49Z</time>
      </trkpt>
      <trkpt lat="44.41281" lon="6.75117">
        <ele>1321.84</ele>
        <time>2018-06-20T09:16:50Z</time>
      </trkpt>
      <trkpt lat="44.41284" lon="6.7511">
        <ele>1321.72</ele>
        <time>2018-06-20T09:16:51Z</time>
      </trkpt>
      <trkpt lat="44.4129" lon="6.75105">
        <ele>1320.94</ele>
        <time>2018-06-20T09:16:52Z</time>
      </trkpt>
      <trkpt lat="44.41299" lon="6.75106">
        <ele>1320.77</ele>
        <time>2018-06-20T09:16:53Z</time>
      </trkpt>
      <trkpt lat="44.41312" lon="6.75115">
        <ele>1320.8</ele>
        <time>2018-06-20T09:16:54Z</time>
      </trkpt>
      <trkpt lat="44.41325" lon="6.75125">
        <ele>1320.82</ele>
        <time>2018-06-20T09:16:55Z</time>
      </trkpt>
      <trkpt lat="44.41384" lon="6.75164">
        <ele>1316.62</ele>
        <time>2018-06-20T09:16:59Z</time>
      </trkpt>
      <trkpt lat="44.41424" lon="6.75191">
        <ele>1313.22</ele>
        <time>2018-06-20T09:17:02Z</time>
      </trkpt>
      <trkpt lat="44.41437" lon="6.75202">
        <ele>1311.85</ele>
        <time>2018-06-20T09:17:03Z</time>
      </trkpt>
      <trkpt lat="44.41449" lon="6.75215">
        <ele>1310.84</ele>
        <time>2018-06-20T09:17:04Z</time>
      </trkpt>
      <trkpt lat="44.41458" lon="6.75231">
        <ele>1309.72</ele>
        <time>2018-06-20T09:17:05Z</time>
      </trkpt>
      <trkpt lat="44.41467" lon="6.75247">
        <ele>1308.67</ele>
        <time>2018-06-20T09:17:06Z</time>
      </trkpt>
      <trkpt lat="44.41474" lon="6.75264">
        <ele>1307.68</ele>
        <time>2018-06-20T09:17:07Z</time>
      </trkpt>
      <trkpt lat="44.4148" lon="6.75277">
        <ele>1307.59</ele>
        <time>2018-06-20T09:17:08Z</time>
      </trkpt>
      <trkpt lat="44.41487" lon="6.75287">
        <ele>1305.62</ele>
        <time>2018-06-20T09:17:09Z</time>
      </trkpt>
      <trkpt lat="44.41495" lon="6.75289">
        <ele>1305.71</ele>
        <time>2018-06-20T09:17:10Z</time>
      </trkpt>
      <trkpt lat="44.41502" lon="6.75285">
        <ele>1304.44</ele>
        <time>2018-06-20T09:17:11Z</time>
      </trkpt>
      <trkpt lat="44.41506" lon="6.75275">
        <ele>1304.42</ele>
        <time>2018-06-20T09:17:12Z</time>
      </trkpt>
      <trkpt lat="44.41507" lon="6.75262">
        <ele>1304.42</ele>
        <time>2018-06-20T09:17:13Z</time>
      </trkpt>
      <trkpt lat="44.41504" lon="6.75247">
        <ele>1304.4</ele>
        <time>2018-06-20T09:17:14Z</time>
      </trkpt>
      <trkpt lat="44.41496" lon="6.7523">
        <ele>1303.32</ele>
        <time>2018-06-20T09:17:15Z</time>
      </trkpt>
      <trkpt lat="44.41487" lon="6.75214">
        <ele>1303.23</ele>
        <time>2018-06-20T09:17:16Z</time>
      </trkpt>
      <trkpt lat="44.4147" lon="6.7518">
        <ele>1299.81</ele>
        <time>2018-06-20T09:17:18Z</time>
      </trkpt>
      <trkpt lat="44.41468" lon="6.75163">
        <ele>1298.06</ele>
        <time>2018-06-20T09:17:19Z</time>
      </trkpt>
      <trkpt lat="44.41471" lon="6.7515">
        <ele>1296.5</ele>
        <time>2018-06-20T09:17:20Z</time>
      </trkpt>
      <trkpt lat="44.41478" lon="6.75141">
        <ele>1296.52</ele>
        <time>2018-06-20T09:17:21Z</time>
      </trkpt>
      <trkpt lat="44.41487" lon="6.75138">
        <ele>1295.27</ele>
        <time>2018-06-20T09:17:22Z</time>
      </trkpt>
      <trkpt lat="44.41498" lon="6.75136">
        <ele>1295.26</ele>
        <time>2018-06-20T09:17:23Z</time>
      </trkpt>
      <trkpt lat="44.41509" lon="6.75133">
        <ele>1294.23</ele>
        <time>2018-06-20T09:17:24Z</time>
      </trkpt>
      <trkpt lat="44.4152" lon="6.75128">
        <ele>1294.28</ele>
        <time>2018-06-20T09:17:25Z</time>
      </trkpt>
      <trkpt lat="44.4153" lon="6.75121">
        <ele>1293.31</ele>
        <time>2018-06-20T09:17:26Z</time>
      </trkpt>
      <trkpt lat="44.41555" lon="6.75097">
        <ele>1292.31</ele>
        <time>2018-06-20T09:17:29Z</time>
      </trkpt>
      <trkpt lat="44.41559" lon="6.75085">
        <ele>1292.35</ele>
        <time>2018-06-20T09:17:30Z</time>
      </trkpt>
      <trkpt lat="44.4156" lon="6.75072">
        <ele>1292.28</ele>
        <time>2018-06-20T09:17:31Z</time>
      </trkpt>
      <trkpt lat="44.41555" lon="6.75059">
        <ele>1292.23</ele>
        <time>2018-06-20T09:17:32Z</time>
      </trkpt>
      <trkpt lat="44.41548" lon="6.75046">
        <ele>1290.88</ele>
        <time>2018-06-20T09:17:33Z</time>
      </trkpt>
      <trkpt lat="44.41541" lon="6.75034">
        <ele>1290.89</ele>
        <time>2018-06-20T09:17:34Z</time>
      </trkpt>
      <trkpt lat="44.41534" lon="6.7502">
        <ele>1289.19</ele>
        <time>2018-06-20T09:17:35Z</time>
      </trkpt>
      <trkpt lat="44.41528" lon="6.75006">
        <ele>1289.15</ele>
        <time>2018-06-20T09:17:36Z</time>
      </trkpt>
      <trkpt lat="44.41522" lon="6.74991">
        <ele>1287.8</ele>
        <time>2018-06-20T09:17:37Z</time>
      </trkpt>
      <trkpt lat="44.41516" lon="6.74977">
        <ele>1287.73</ele>
        <time>2018-06-20T09:17:38Z</time>
      </trkpt>
      <trkpt lat="44.41498" lon="6.74934">
        <ele>1284.64</ele>
        <time>2018-06-20T09:17:41Z</time>
      </trkpt>
      <trkpt lat="44.41491" lon="6.74918">
        <ele>1284.68</ele>
        <time>2018-06-20T09:17:42Z</time>
      </trkpt>
      <trkpt lat="44.4147" lon="6.74865">
        <ele>1282.45</ele>
        <time>2018-06-20T09:17:45Z</time>
      </trkpt>
      <trkpt lat="44.41465" lon="6.74847">
        <ele>1280.69</ele>
        <time>2018-06-20T09:17:46Z</time>
      </trkpt>
      <trkpt lat="44.41463" lon="6.74828">
        <ele>1279.51</ele>
        <time>2018-06-20T09:17:47Z</time>
      </trkpt>
      <trkpt lat="44.41466" lon="6.74809">
        <ele>1278.68</ele>
        <time>2018-06-20T09:17:48Z</time>
      </trkpt>
      <trkpt lat="44.41471" lon="6.7479">
        <ele>1278.67</ele>
        <time>2018-06-20T09:17:49Z</time>
      </trkpt>
      <trkpt lat="44.41478" lon="6.74772">
        <ele>1277.5</ele>
        <time>2018-06-20T09:17:50Z</time>
      </trkpt>
      <trkpt lat="44.41484" lon="6.74752">
        <ele>1277.41</ele>
        <time>2018-06-20T09:17:51Z</time>
      </trkpt>
      <trkpt lat="44.41489" lon="6.74732">
        <ele>1275.84</ele>
        <time>2018-06-20T09:17:52Z</time>
      </trkpt>
      <trkpt lat="44.41499" lon="6.74674">
        <ele>1272.64</ele>
        <time>2018-06-20T09:17:55Z</time>
      </trkpt>
      <trkpt lat="44.41504" lon="6.74656">
        <ele>1271.64</ele>
        <time>2018-06-20T09:17:56Z</time>
      </trkpt>
      <trkpt lat="44.41515" lon="6.74624">
        <ele>1269.58</ele>
        <time>2018-06-20T09:17:58Z</time>
      </trkpt>
      <trkpt lat="44.41519" lon="6.74608">
        <ele>1269.53</ele>
        <time>2018-06-20T09:17:59Z</time>
      </trkpt>
      <trkpt lat="44.41526" lon="6.74575">
        <ele>1268.06</ele>
        <time>2018-06-20T09:18:01Z</time>
      </trkpt>
      <trkpt lat="44.41528" lon="6.74558">
        <ele>1267.19</ele>
        <time>2018-06-20T09:18:02Z</time>
      </trkpt>
      <trkpt lat="44.4153" lon="6.74542">
        <ele>1267.09</ele>
        <time>2018-06-20T09:18:03Z</time>
      </trkpt>
      <trkpt lat="44.4153" lon="6.7451">
        <ele>1265.79</ele>
        <time>2018-06-20T09:18:05Z</time>
      </trkpt>
      <trkpt lat="44.41532" lon="6.74494">
        <ele>1264.66</ele>
        <time>2018-06-20T09:18:06Z</time>
      </trkpt>
      <trkpt lat="44.41536" lon="6.74479">
        <ele>1264.66</ele>
        <time>2018-06-20T09:18:07Z</time>
      </trkpt>
      <trkpt lat="44.41564" lon="6.74397">
        <ele>1261.5</ele>
        <time>2018-06-20T09:18:12Z</time>
      </trkpt>
      <trkpt lat="44.41571" lon="6.74381">
        <ele>1261.44</ele>
        <time>2018-06-20T09:18:13Z</time>
      </trkpt>
      <trkpt lat="44.41583" lon="6.7435">
        <ele>1259.39</ele>
        <time>2018-06-20T09:18:15Z</time>
      </trkpt>
      <trkpt lat="44.41591" lon="6.74338">
        <ele>1258.63</ele>
        <time>2018-06-20T09:18:16Z</time>
      </trkpt>
      <trkpt lat="44.416" lon="6.74327">
        <ele>1258.62</ele>
        <time>2018-06-20T09:18:17Z</time>
      </trkpt>
      <trkpt lat="44.4161" lon="6.74318">
        <ele>1257.25</ele>
        <time>2018-06-20T09:18:18Z</time>
      </trkpt>
      <trkpt lat="44.41621" lon="6.74311">
        <ele>1256.43</ele>
        <time>2018-06-20T09:18:19Z</time>
      </trkpt>
      <trkpt lat="44.41633" lon="6.74301">
        <ele>1256.43</ele>
        <time>2018-06-20T09:18:20Z</time>
      </trkpt>
      <trkpt lat="44.41645" lon="6.74288">
        <ele>1256.37</ele>
        <time>2018-06-20T09:18:21Z</time>
      </trkpt>
      <trkpt lat="44.41688" lon="6.74234">
        <ele>1253.93</ele>
        <time>2018-06-20T09:18:25Z</time>
      </trkpt>
      <trkpt lat="44.41714" lon="6.74198">
        <ele>1251.73</ele>
        <time>2018-06-20T09:18:28Z</time>
      </trkpt>
      <trkpt lat="44.41731" lon="6.74175">
        <ele>1250.3</ele>
        <time>2018-06-20T09:18:30Z</time>
      </trkpt>
      <trkpt lat="44.41741" lon="6.74166">
        <ele>1249.22</ele>
        <time>2018-06-20T09:18:31Z</time>
      </trkpt>
      <trkpt lat="44.41751" lon="6.74157">
        <ele>1249.21</ele>
        <time>2018-06-20T09:18:32Z</time>
      </trkpt>
      <trkpt lat="44.41812" lon="6.74114">
        <ele>1246.99</ele>
        <time>2018-06-20T09:18:37Z</time>
      </trkpt>
      <trkpt lat="44.41834" lon="6.74096">
        <ele>1245.61</ele>
        <time>2018-06-20T09:18:39Z</time>
      </trkpt>
      <trkpt lat="44.41921" lon="6.74026">
        <ele>1242.06</ele>
        <time>2018-06-20T09:18:47Z</time>
      </trkpt>
      <trkpt lat="44.4198" lon="6.7398">
        <ele>1240.41</ele>
        <time>2018-06-20T09:18:52Z</time>
      </trkpt>
      <trkpt lat="44.41989" lon="6.73968">
        <ele>1240.38</ele>
        <time>2018-06-20T09:18:53Z</time>
      </trkpt>
      <trkpt lat="44.41997" lon="6.73955">
        <ele>1239.29</ele>
        <time>2018-06-20T09:18:54Z</time>
      </trkpt>
      <trkpt lat="44.42004" lon="6.73942">
        <ele>1239.25</ele>
        <time>2018-06-20T09:18:55Z</time>
      </trkpt>
      <trkpt lat="44.42008" lon="6.73927">
        <ele>1239.29</ele>
        <time>2018-06-20T09:18:56Z</time>
      </trkpt>
      <trkpt lat="44.42012" lon="6.73911">
        <ele>1239.26</ele>
        <time>2018-06-20T09:18:57Z</time>
      </trkpt>
      <trkpt lat="44.42014" lon="6.73895">
        <ele>1239.27</ele>
        <time>2018-06-20T09:18:58Z</time>
      </trkpt>
      <trkpt lat="44.42046" lon="6.73714">
        <ele>1238.32</ele>
        <time>2018-06-20T09:19:09Z</time>
      </trkpt>
      <trkpt lat="44.42056" lon="6.73689">
        <ele>1236.28</ele>
        <time>2018-06-20T09:19:11Z</time>
      </trkpt>
      <trkpt lat="44.42061" lon="6.73681">
        <ele>1236.27</ele>
        <time>2018-06-20T09:19:12Z</time>
      </trkpt>
      <trkpt lat="44.42066" lon="6.73675">
        <ele>1235.44</ele>
        <time>2018-06-20T09:19:13Z</time>
      </trkpt>
      <trkpt lat="44.4207" lon="6.73673">
        <ele>1235.43</ele>
        <time>2018-06-20T09:19:14Z</time>
      </trkpt>
      <trkpt lat="44.42075" lon="6.73672">
        <ele>1235.42</ele>
        <time>2018-06-20T09:19:15Z</time>
      </trkpt>
      <trkpt lat="44.42083" lon="6.73673">
        <ele>1235.41</ele>
        <time>2018-06-20T09:19:16Z</time>
      </trkpt>
      <trkpt lat="44.42091" lon="6.73676">
        <ele>1235.39</ele>
        <time>2018-06-20T09:19:17Z</time>
      </trkpt>
      <trkpt lat="44.42101" lon="6.73681">
        <ele>1235.37</ele>
        <time>2018-06-20T09:19:18Z</time>
      </trkpt>
      <trkpt lat="44.42136" lon="6.73695">
        <ele>1237.83</ele>
        <time>2018-06-20T09:19:21Z</time>
      </trkpt>
      <trkpt lat="44.42209" lon="6.73719">
        <ele>1240.27</ele>
        <time>2018-06-20T09:19:26Z</time>
      </trkpt>
      <trkpt lat="44.42307" lon="6.73721">
        <ele>1243.12</ele>
        <time>2018-06-20T09:19:32Z</time>
      </trkpt>
      <trkpt lat="44.42372" lon="6.73717">
        <ele>1245.62</ele>
        <time>2018-06-20T09:19:36Z</time>
      </trkpt>
      <trkpt lat="44.42436" lon="6.73714">
        <ele>1247.96</ele>
        <time>2018-06-20T09:19:40Z</time>
      </trkpt>
      <trkpt lat="44.42576" lon="6.73706">
        <ele>1249.34</ele>
        <time>2018-06-20T09:19:48Z</time>
      </trkpt>
      <trkpt lat="44.42754" lon="6.7369">
        <ele>1251.91</ele>
        <time>2018-06-20T09:19:57Z</time>
      </trkpt>
      <trkpt lat="44.42775" lon="6.73681">
        <ele>1251.9</ele>
        <time>2018-06-20T09:19:58Z</time>
      </trkpt>
      <trkpt lat="44.42883" lon="6.73638">
        <ele>1253.75</ele>
        <time>2018-06-20T09:20:03Z</time>
      </trkpt>
      <trkpt lat="44.42906" lon="6.73637">
        <ele>1253.77</ele>
        <time>2018-06-20T09:20:04Z</time>
      </trkpt>
      <trkpt lat="44.42928" lon="6.73639">
        <ele>1253.75</ele>
        <time>2018-06-20T09:20:05Z</time>
      </trkpt>
      <trkpt lat="44.42949" lon="6.73645">
        <ele>1253.72</ele>
        <time>2018-06-20T09:20:06Z</time>
      </trkpt>
      <trkpt lat="44.42969" lon="6.73656">
        <ele>1253.69</ele>
        <time>2018-06-20T09:20:07Z</time>
      </trkpt>
      <trkpt lat="44.42988" lon="6.73671">
        <ele>1253.67</ele>
        <time>2018-06-20T09:20:08Z</time>
      </trkpt>
      <trkpt lat="44.43006" lon="6.73691">
        <ele>1253.65</ele>
        <time>2018-06-20T09:20:09Z</time>
      </trkpt>
      <trkpt lat="44.43022" lon="6.73713">
        <ele>1253.67</ele>
        <time>2018-06-20T09:20:10Z</time>
      </trkpt>
      <trkpt lat="44.43036" lon="6.73736">
        <ele>1253.67</ele>
        <time>2018-06-20T09:20:11Z</time>
      </trkpt>
      <trkpt lat="44.43049" lon="6.73761">
        <ele>1253.65</ele>
        <time>2018-06-20T09:20:12Z</time>
      </trkpt>
      <trkpt lat="44.43062" lon="6.73786">
        <ele>1253.65</ele>
        <time>2018-06-20T09:20:13Z</time>
      </trkpt>
      <trkpt lat="44.43089" lon="6.7383">
        <ele>1253.59</ele>
        <time>2018-06-20T09:20:15Z</time>
      </trkpt>
      <trkpt lat="44.43105" lon="6.73846">
        <ele>1253.58</ele>
        <time>2018-06-20T09:20:16Z</time>
      </trkpt>
      <trkpt lat="44.43124" lon="6.73858">
        <ele>1254.57</ele>
        <time>2018-06-20T09:20:17Z</time>
      </trkpt>
      <trkpt lat="44.43143" lon="6.73866">
        <ele>1254.53</ele>
        <time>2018-06-20T09:20:18Z</time>
      </trkpt>
      <trkpt lat="44.43161" lon="6.73873">
        <ele>1254.49</ele>
        <time>2018-06-20T09:20:19Z</time>
      </trkpt>
      <trkpt lat="44.43178" lon="6.73882">
        <ele>1254.46</ele>
        <time>2018-06-20T09:20:20Z</time>
      </trkpt>
      <trkpt lat="44.43193" lon="6.73895">
        <ele>1254.43</ele>
        <time>2018-06-20T09:20:21Z</time>
      </trkpt>
      <trkpt lat="44.43206" lon="6.73913">
        <ele>1254.42</ele>
        <time>2018-06-20T09:20:22Z</time>
      </trkpt>
      <trkpt lat="44.43217" lon="6.73935">
        <ele>1255.36</ele>
        <time>2018-06-20T09:20:23Z</time>
      </trkpt>
      <trkpt lat="44.43229" lon="6.73957">
        <ele>1256.59</ele>
        <time>2018-06-20T09:20:24Z</time>
      </trkpt>
      <trkpt lat="44.43241" lon="6.7398">
        <ele>1256.62</ele>
        <time>2018-06-20T09:20:25Z</time>
      </trkpt>
      <trkpt lat="44.43281" lon="6.74046">
        <ele>1258.95</ele>
        <time>2018-06-20T09:20:28Z</time>
      </trkpt>
      <trkpt lat="44.43297" lon="6.74063">
        <ele>1258.94</ele>
        <time>2018-06-20T09:20:29Z</time>
      </trkpt>
      <trkpt lat="44.43348" lon="6.74108">
        <ele>1258.87</ele>
        <time>2018-06-20T09:20:32Z</time>
      </trkpt>
      <trkpt lat="44.43362" lon="6.74125">
        <ele>1258.88</ele>
        <time>2018-06-20T09:20:33Z</time>
      </trkpt>
      <trkpt lat="44.43374" lon="6.74146">
        <ele>1258.83</ele>
        <time>2018-06-20T09:20:34Z</time>
      </trkpt>
      <trkpt lat="44.43384" lon="6.74169">
        <ele>1258.84</ele>
        <time>2018-06-20T09:20:35Z</time>
      </trkpt>
      <trkpt lat="44.43391" lon="6.74195">
        <ele>1259.72</ele>
        <time>2018-06-20T09:20:36Z</time>
      </trkpt>
      <trkpt lat="44.43398" lon="6.74222">
        <ele>1259.76</ele>
        <time>2018-06-20T09:20:37Z</time>
      </trkpt>
      <trkpt lat="44.43412" lon="6.74278">
        <ele>1261.18</ele>
        <time>2018-06-20T09:20:39Z</time>
      </trkpt>
      <trkpt lat="44.43441" lon="6.74377">
        <ele>1262.01</ele>
        <time>2018-06-20T09:20:43Z</time>
      </trkpt>
      <trkpt lat="44.43451" lon="6.74394">
        <ele>1261.99</ele>
        <time>2018-06-20T09:20:44Z</time>
      </trkpt>
      <trkpt lat="44.43465" lon="6.74406">
        <ele>1263.36</ele>
        <time>2018-06-20T09:20:45Z</time>
      </trkpt>
      <trkpt lat="44.4348" lon="6.74413">
        <ele>1264.27</ele>
        <time>2018-06-20T09:20:46Z</time>
      </trkpt>
      <trkpt lat="44.43498" lon="6.74417">
        <ele>1265.21</ele>
        <time>2018-06-20T09:20:47Z</time>
      </trkpt>
      <trkpt lat="44.43518" lon="6.74419">
        <ele>1266.29</ele>
        <time>2018-06-20T09:20:48Z</time>
      </trkpt>
      <trkpt lat="44.43538" lon="6.7442">
        <ele>1266.29</ele>
        <time>2018-06-20T09:20:49Z</time>
      </trkpt>
      <trkpt lat="44.43557" lon="6.7442">
        <ele>1267.26</ele>
        <time>2018-06-20T09:20:50Z</time>
      </trkpt>
      <trkpt lat="44.43576" lon="6.74414">
        <ele>1267.25</ele>
        <time>2018-06-20T09:20:51Z</time>
      </trkpt>
      <trkpt lat="44.43592" lon="6.74403">
        <ele>1267.23</ele>
        <time>2018-06-20T09:20:52Z</time>
      </trkpt>
      <trkpt lat="44.43623" lon="6.74383">
        <ele>1267.22</ele>
        <time>2018-06-20T09:20:54Z</time>
      </trkpt>
      <trkpt lat="44.4364" lon="6.74383">
        <ele>1267.21</ele>
        <time>2018-06-20T09:20:55Z</time>
      </trkpt>
      <trkpt lat="44.43657" lon="6.74387">
        <ele>1267.18</ele>
        <time>2018-06-20T09:20:56Z</time>
      </trkpt>
      <trkpt lat="44.43693" lon="6.74402">
        <ele>1268.66</ele>
        <time>2018-06-20T09:20:58Z</time>
      </trkpt>
      <trkpt lat="44.43766" lon="6.74421">
        <ele>1269.37</ele>
        <time>2018-06-20T09:21:02Z</time>
      </trkpt>
      <trkpt lat="44.43784" lon="6.74415">
        <ele>1269.39</ele>
        <time>2018-06-20T09:21:03Z</time>
      </trkpt>
      <trkpt lat="44.43822" lon="6.74401">
        <ele>1270.23</ele>
        <time>2018-06-20T09:21:05Z</time>
      </trkpt>
      <trkpt lat="44.43842" lon="6.74401">
        <ele>1270.24</ele>
        <time>2018-06-20T09:21:06Z</time>
      </trkpt>
      <trkpt lat="44.43879" lon="6.74408">
        <ele>1270.21</ele>
        <time>2018-06-20T09:21:08Z</time>
      </trkpt>
      <trkpt lat="44.43897" lon="6.74406">
        <ele>1270.95</ele>
        <time>2018-06-20T09:21:09Z</time>
      </trkpt>
      <trkpt lat="44.43915" lon="6.74396">
        <ele>1270.97</ele>
        <time>2018-06-20T09:21:10Z</time>
      </trkpt>
      <trkpt lat="44.43932" lon="6.7438">
        <ele>1272.14</ele>
        <time>2018-06-20T09:21:11Z</time>
      </trkpt>
      <trkpt lat="44.43947" lon="6.74358">
        <ele>1272.15</ele>
        <time>2018-06-20T09:21:12Z</time>
      </trkpt>
      <trkpt lat="44.4396" lon="6.74334">
        <ele>1272.14</ele>
        <time>2018-06-20T09:21:13Z</time>
      </trkpt>
      <trkpt lat="44.43974" lon="6.74312">
        <ele>1272.14</ele>
        <time>2018-06-20T09:21:14Z</time>
      </trkpt>
      <trkpt lat="44.43988" lon="6.74295">
        <ele>1272.15</ele>
        <time>2018-06-20T09:21:15Z</time>
      </trkpt>
      <trkpt lat="44.44004" lon="6.74284">
        <ele>1272.1</ele>
        <time>2018-06-20T09:21:16Z</time>
      </trkpt>
      <trkpt lat="44.44021" lon="6.74282">
        <ele>1272.11</ele>
        <time>2018-06-20T09:21:17Z</time>
      </trkpt>
      <trkpt lat="44.4404" lon="6.74283">
        <ele>1272.09</ele>
        <time>2018-06-20T09:21:18Z</time>
      </trkpt>
      <trkpt lat="44.4406" lon="6.74281">
        <ele>1273.49</ele>
        <time>2018-06-20T09:21:19Z</time>
      </trkpt>
      <trkpt lat="44.4408" lon="6.74273">
        <ele>1273.51</ele>
        <time>2018-06-20T09:21:20Z</time>
      </trkpt>
      <trkpt lat="44.44099" lon="6.7426">
        <ele>1274.64</ele>
        <time>2018-06-20T09:21:21Z</time>
      </trkpt>
      <trkpt lat="44.44117" lon="6.74242">
        <ele>1274.63</ele>
        <time>2018-06-20T09:21:22Z</time>
      </trkpt>
      <trkpt lat="44.44134" lon="6.74225">
        <ele>1274.54</ele>
        <time>2018-06-20T09:21:23Z</time>
      </trkpt>
      <trkpt lat="44.44151" lon="6.74211">
        <ele>1274.55</ele>
        <time>2018-06-20T09:21:24Z</time>
      </trkpt>
      <trkpt lat="44.4417" lon="6.74203">
        <ele>1274.53</ele>
        <time>2018-06-20T09:21:25Z</time>
      </trkpt>
      <trkpt lat="44.44189" lon="6.74199">
        <ele>1274.29</ele>
        <time>2018-06-20T09:21:26Z</time>
      </trkpt>
      <trkpt lat="44.44209" lon="6.74201">
        <ele>1275.73</ele>
        <time>2018-06-20T09:21:27Z</time>
      </trkpt>
      <trkpt lat="44.44229" lon="6.74204">
        <ele>1276.88</ele>
        <time>2018-06-20T09:21:28Z</time>
      </trkpt>
      <trkpt lat="44.4427" lon="6.74208">
        <ele>1277.68</ele>
        <time>2018-06-20T09:21:30Z</time>
      </trkpt>
      <trkpt lat="44.44349" lon="6.74226">
        <ele>1277.69</ele>
        <time>2018-06-20T09:21:34Z</time>
      </trkpt>
      <trkpt lat="44.44422" lon="6.74267">
        <ele>1278.49</ele>
        <time>2018-06-20T09:21:38Z</time>
      </trkpt>
      <trkpt lat="44.44441" lon="6.74269">
        <ele>1278.47</ele>
        <time>2018-06-20T09:21:39Z</time>
      </trkpt>
      <trkpt lat="44.4446" lon="6.74267">
        <ele>1278.44</ele>
        <time>2018-06-20T09:21:40Z</time>
      </trkpt>
      <trkpt lat="44.44479" lon="6.74262">
        <ele>1279.6</ele>
        <time>2018-06-20T09:21:41Z</time>
      </trkpt>
      <trkpt lat="44.44498" lon="6.74253">
        <ele>1279.58</ele>
        <time>2018-06-20T09:21:42Z</time>
      </trkpt>
      <trkpt lat="44.44517" lon="6.74241">
        <ele>1279.59</ele>
        <time>2018-06-20T09:21:43Z</time>
      </trkpt>
      <trkpt lat="44.44537" lon="6.74229">
        <ele>1279.65</ele>
        <time>2018-06-20T09:21:44Z</time>
      </trkpt>
      <trkpt lat="44.44576" lon="6.74201">
        <ele>1281.22</ele>
        <time>2018-06-20T09:21:46Z</time>
      </trkpt>
      <trkpt lat="44.44722" lon="6.74054">
        <ele>1283.04</ele>
        <time>2018-06-20T09:21:54Z</time>
      </trkpt>
      <trkpt lat="44.4476" lon="6.74027">
        <ele>1282.96</ele>
        <time>2018-06-20T09:21:56Z</time>
      </trkpt>
      <trkpt lat="44.4478" lon="6.74022">
        <ele>1282.99</ele>
        <time>2018-06-20T09:21:57Z</time>
      </trkpt>
      <trkpt lat="44.44801" lon="6.74022">
        <ele>1282.96</ele>
        <time>2018-06-20T09:21:58Z</time>
      </trkpt>
      <trkpt lat="44.44822" lon="6.74025">
        <ele>1284.07</ele>
        <time>2018-06-20T09:21:59Z</time>
      </trkpt>
      <trkpt lat="44.44843" lon="6.7403">
        <ele>1284.01</ele>
        <time>2018-06-20T09:22:00Z</time>
      </trkpt>
      <trkpt lat="44.44865" lon="6.74036">
        <ele>1284.02</ele>
        <time>2018-06-20T09:22:01Z</time>
      </trkpt>
      <trkpt lat="44.44994" lon="6.74072">
        <ele>1284.59</ele>
        <time>2018-06-20T09:22:07Z</time>
      </trkpt>
      <trkpt lat="44.45014" lon="6.74083">
        <ele>1284.59</ele>
        <time>2018-06-20T09:22:08Z</time>
      </trkpt>
      <trkpt lat="44.45032" lon="6.741">
        <ele>1285.51</ele>
        <time>2018-06-20T09:22:09Z</time>
      </trkpt>
      <trkpt lat="44.45209" lon="6.74275">
        <ele>1286.29</ele>
        <time>2018-06-20T09:22:19Z</time>
      </trkpt>
      <trkpt lat="44.45247" lon="6.74298">
        <ele>1286.24</ele>
        <time>2018-06-20T09:22:21Z</time>
      </trkpt>
      <trkpt lat="44.45265" lon="6.74313">
        <ele>1286.25</ele>
        <time>2018-06-20T09:22:22Z</time>
      </trkpt>
      <trkpt lat="44.4528" lon="6.74332">
        <ele>1286.24</ele>
        <time>2018-06-20T09:22:23Z</time>
      </trkpt>
      <trkpt lat="44.45308" lon="6.7437">
        <ele>1287.34</ele>
        <time>2018-06-20T09:22:25Z</time>
      </trkpt>
      <trkpt lat="44.45324" lon="6.74383">
        <ele>1287.29</ele>
        <time>2018-06-20T09:22:26Z</time>
      </trkpt>
      <trkpt lat="44.4534" lon="6.74389">
        <ele>1287.29</ele>
        <time>2018-06-20T09:22:27Z</time>
      </trkpt>
      <trkpt lat="44.45356" lon="6.7439">
        <ele>1287.28</ele>
        <time>2018-06-20T09:22:28Z</time>
      </trkpt>
      <trkpt lat="44.45372" lon="6.74385">
        <ele>1287.28</ele>
        <time>2018-06-20T09:22:29Z</time>
      </trkpt>
      <trkpt lat="44.4539" lon="6.74378">
        <ele>1287.28</ele>
        <time>2018-06-20T09:22:30Z</time>
      </trkpt>
      <trkpt lat="44.45409" lon="6.74373">
        <ele>1288.66</ele>
        <time>2018-06-20T09:22:31Z</time>
      </trkpt>
      <trkpt lat="44.45429" lon="6.74371">
        <ele>1289.52</ele>
        <time>2018-06-20T09:22:32Z</time>
      </trkpt>
      <trkpt lat="44.45491" lon="6.74372">
        <ele>1291.81</ele>
        <time>2018-06-20T09:22:35Z</time>
      </trkpt>
      <trkpt lat="44.45528" lon="6.74379">
        <ele>1291.8</ele>
        <time>2018-06-20T09:22:37Z</time>
      </trkpt>
      <trkpt lat="44.45543" lon="6.74387">
        <ele>1291.77</ele>
        <time>2018-06-20T09:22:38Z</time>
      </trkpt>
      <trkpt lat="44.45596" lon="6.7442">
        <ele>1292.93</ele>
        <time>2018-06-20T09:22:42Z</time>
      </trkpt>
      <trkpt lat="44.45609" lon="6.74422">
        <ele>1292.91</ele>
        <time>2018-06-20T09:22:43Z</time>
      </trkpt>
      <trkpt lat="44.45622" lon="6.74423">
        <ele>1292.58</ele>
        <time>2018-06-20T09:22:44Z</time>
      </trkpt>
      <trkpt lat="44.45693" lon="6.74431">
        <ele>1295.43</ele>
        <time>2018-06-20T09:22:50Z</time>
      </trkpt>
      <trkpt lat="44.45703" lon="6.74438">
        <ele>1295.46</ele>
        <time>2018-06-20T09:22:51Z</time>
      </trkpt>
      <trkpt lat="44.45758" lon="6.7447">
        <ele>1298.49</ele>
        <time>2018-06-20T09:22:56Z</time>
      </trkpt>
      <trkpt lat="44.45795" lon="6.74502">
        <ele>1300.71</ele>
        <time>2018-06-20T09:23:00Z</time>
      </trkpt>
      <trkpt lat="44.45802" lon="6.74512">
        <ele>1300.7</ele>
        <time>2018-06-20T09:23:01Z</time>
      </trkpt>
      <trkpt lat="44.45808" lon="6.74524">
        <ele>1300.74</ele>
        <time>2018-06-20T09:23:02Z</time>
      </trkpt>
      <trkpt lat="44.45812" lon="6.74536">
        <ele>1300.75</ele>
        <time>2018-06-20T09:23:03Z</time>
      </trkpt>
      <trkpt lat="44.45816" lon="6.7455">
        <ele>1300.74</ele>
        <time>2018-06-20T09:23:04Z</time>
      </trkpt>
      <trkpt lat="44.45819" lon="6.74565">
        <ele>1300.73</ele>
        <time>2018-06-20T09:23:05Z</time>
      </trkpt>
      <trkpt lat="44.45821" lon="6.7458">
        <ele>1300.77</ele>
        <time>2018-06-20T09:23:06Z</time>
      </trkpt>
      <trkpt lat="44.45823" lon="6.74596">
        <ele>1300.76</ele>
        <time>2018-06-20T09:23:07Z</time>
      </trkpt>
      <trkpt lat="44.45826" lon="6.74625">
        <ele>1300.74</ele>
        <time>2018-06-20T09:23:09Z</time>
      </trkpt>
      <trkpt lat="44.4583" lon="6.74639">
        <ele>1300.65</ele>
        <time>2018-06-20T09:23:10Z</time>
      </trkpt>
      <trkpt lat="44.45835" lon="6.74651">
        <ele>1300.62</ele>
        <time>2018-06-20T09:23:11Z</time>
      </trkpt>
      <trkpt lat="44.45843" lon="6.74662">
        <ele>1300.61</ele>
        <time>2018-06-20T09:23:12Z</time>
      </trkpt>
      <trkpt lat="44.45851" lon="6.7467">
        <ele>1300.57</ele>
        <time>2018-06-20T09:23:13Z</time>
      </trkpt>
      <trkpt lat="44.45861" lon="6.74676">
        <ele>1300.5</ele>
        <time>2018-06-20T09:23:14Z</time>
      </trkpt>
      <trkpt lat="44.45872" lon="6.7468">
        <ele>1300.48</ele>
        <time>2018-06-20T09:23:15Z</time>
      </trkpt>
      <trkpt lat="44.45883" lon="6.74682">
        <ele>1300.49</ele>
        <time>2018-06-20T09:23:16Z</time>
      </trkpt>
      <trkpt lat="44.45895" lon="6.74683">
        <ele>1300.46</ele>
        <time>2018-06-20T09:23:17Z</time>
      </trkpt>
      <trkpt lat="44.45989" lon="6.74703">
        <ele>1301.94</ele>
        <time>2018-06-20T09:23:24Z</time>
      </trkpt>
      <trkpt lat="44.46034" lon="6.7473">
        <ele>1303.64</ele>
        <time>2018-06-20T09:23:27Z</time>
      </trkpt>
      <trkpt lat="44.46064" lon="6.74757">
        <ele>1305.25</ele>
        <time>2018-06-20T09:23:29Z</time>
      </trkpt>
      <trkpt lat="44.46107" lon="6.74812">
        <ele>1307.47</ele>
        <time>2018-06-20T09:23:32Z</time>
      </trkpt>
      <trkpt lat="44.46191" lon="6.74938">
        <ele>1310.58</ele>
        <time>2018-06-20T09:23:38Z</time>
      </trkpt>
      <trkpt lat="44.46252" lon="6.75009">
        <ele>1310.45</ele>
        <time>2018-06-20T09:23:42Z</time>
      </trkpt>
      <trkpt lat="44.46268" lon="6.75019">
        <ele>1310.44</ele>
        <time>2018-06-20T09:23:43Z</time>
      </trkpt>
      <trkpt lat="44.46285" lon="6.75027">
        <ele>1310.47</ele>
        <time>2018-06-20T09:23:44Z</time>
      </trkpt>
      <trkpt lat="44.46337" lon="6.75047">
        <ele>1308.12</ele>
        <time>2018-06-20T09:23:47Z</time>
      </trkpt>
      <trkpt lat="44.46353" lon="6.75059">
        <ele>1308.12</ele>
        <time>2018-06-20T09:23:48Z</time>
      </trkpt>
      <trkpt lat="44.46368" lon="6.75074">
        <ele>1308.11</ele>
        <time>2018-06-20T09:23:49Z</time>
      </trkpt>
      <trkpt lat="44.46484" lon="6.75223">
        <ele>1307.99</ele>
        <time>2018-06-20T09:23:57Z</time>
      </trkpt>
      <trkpt lat="44.46495" lon="6.75243">
        <ele>1307.98</ele>
        <time>2018-06-20T09:23:58Z</time>
      </trkpt>
      <trkpt lat="44.46524" lon="6.75305">
        <ele>1306.98</ele>
        <time>2018-06-20T09:24:01Z</time>
      </trkpt>
      <trkpt lat="44.4653" lon="6.75328">
        <ele>1306.95</ele>
        <time>2018-06-20T09:24:02Z</time>
      </trkpt>
      <trkpt lat="44.46534" lon="6.75353">
        <ele>1306.96</ele>
        <time>2018-06-20T09:24:03Z</time>
      </trkpt>
      <trkpt lat="44.46534" lon="6.75378">
        <ele>1306.94</ele>
        <time>2018-06-20T09:24:04Z</time>
      </trkpt>
      <trkpt lat="44.46533" lon="6.75403">
        <ele>1306.95</ele>
        <time>2018-06-20T09:24:05Z</time>
      </trkpt>
      <trkpt lat="44.4653" lon="6.75427">
        <ele>1306.93</ele>
        <time>2018-06-20T09:24:06Z</time>
      </trkpt>
      <trkpt lat="44.46498" lon="6.75649">
        <ele>1306.92</ele>
        <time>2018-06-20T09:24:16Z</time>
      </trkpt>
      <trkpt lat="44.46498" lon="6.7567">
        <ele>1306.9</ele>
        <time>2018-06-20T09:24:17Z</time>
      </trkpt>
      <trkpt lat="44.465" lon="6.75691">
        <ele>1306.91</ele>
        <time>2018-06-20T09:24:18Z</time>
      </trkpt>
      <trkpt lat="44.46503" lon="6.75711">
        <ele>1306.9</ele>
        <time>2018-06-20T09:24:19Z</time>
      </trkpt>
      <trkpt lat="44.46509" lon="6.7573">
        <ele>1306.91</ele>
        <time>2018-06-20T09:24:20Z</time>
      </trkpt>
      <trkpt lat="44.46517" lon="6.75749">
        <ele>1306.9</ele>
        <time>2018-06-20T09:24:21Z</time>
      </trkpt>
      <trkpt lat="44.46525" lon="6.75767">
        <ele>1306.9</ele>
        <time>2018-06-20T09:24:22Z</time>
      </trkpt>
      <trkpt lat="44.46566" lon="6.75852">
        <ele>1309.36</ele>
        <time>2018-06-20T09:24:26Z</time>
      </trkpt>
      <trkpt lat="44.46589" lon="6.759">
        <ele>1311.07</ele>
        <time>2018-06-20T09:24:28Z</time>
      </trkpt>
      <trkpt lat="44.46664" lon="6.76036">
        <ele>1313.3</ele>
        <time>2018-06-20T09:24:34Z</time>
      </trkpt>
      <trkpt lat="44.46732" lon="6.76168">
        <ele>1314.23</ele>
        <time>2018-06-20T09:24:40Z</time>
      </trkpt>
      <trkpt lat="44.46745" lon="6.76185">
        <ele>1314.24</ele>
        <time>2018-06-20T09:24:41Z</time>
      </trkpt>
      <trkpt lat="44.4676" lon="6.76199">
        <ele>1315.37</ele>
        <time>2018-06-20T09:24:42Z</time>
      </trkpt>
      <trkpt lat="44.46777" lon="6.7621">
        <ele>1315.36</ele>
        <time>2018-06-20T09:24:43Z</time>
      </trkpt>
      <trkpt lat="44.46796" lon="6.7622">
        <ele>1316.32</ele>
        <time>2018-06-20T09:24:44Z</time>
      </trkpt>
      <trkpt lat="44.46871" lon="6.76257">
        <ele>1318.35</ele>
        <time>2018-06-20T09:24:48Z</time>
      </trkpt>
      <trkpt lat="44.4705" lon="6.7635">
        <ele>1320.45</ele>
        <time>2018-06-20T09:24:58Z</time>
      </trkpt>
      <trkpt lat="44.47097" lon="6.76383">
        <ele>1322.49</ele>
        <time>2018-06-20T09:25:01Z</time>
      </trkpt>
      <trkpt lat="44.47114" lon="6.76388">
        <ele>1322.49</ele>
        <time>2018-06-20T09:25:02Z</time>
      </trkpt>
      <trkpt lat="44.47131" lon="6.76389">
        <ele>1322.46</ele>
        <time>2018-06-20T09:25:03Z</time>
      </trkpt>
      <trkpt lat="44.47148" lon="6.76384">
        <ele>1322.42</ele>
        <time>2018-06-20T09:25:04Z</time>
      </trkpt>
      <trkpt lat="44.47164" lon="6.76376">
        <ele>1322.41</ele>
        <time>2018-06-20T09:25:05Z</time>
      </trkpt>
      <trkpt lat="44.4718" lon="6.76366">
        <ele>1322.38</ele>
        <time>2018-06-20T09:25:06Z</time>
      </trkpt>
      <trkpt lat="44.47195" lon="6.76354">
        <ele>1322.36</ele>
        <time>2018-06-20T09:25:07Z</time>
      </trkpt>
      <trkpt lat="44.47226" lon="6.76335">
        <ele>1322.33</ele>
        <time>2018-06-20T09:25:09Z</time>
      </trkpt>
      <trkpt lat="44.47243" lon="6.7633">
        <ele>1322.31</ele>
        <time>2018-06-20T09:25:10Z</time>
      </trkpt>
      <trkpt lat="44.4726" lon="6.76329">
        <ele>1322.3</ele>
        <time>2018-06-20T09:25:11Z</time>
      </trkpt>
      <trkpt lat="44.47277" lon="6.76332">
        <ele>1322.31</ele>
        <time>2018-06-20T09:25:12Z</time>
      </trkpt>
      <trkpt lat="44.47294" lon="6.76341">
        <ele>1322.31</ele>
        <time>2018-06-20T09:25:13Z</time>
      </trkpt>
      <trkpt lat="44.47309" lon="6.76355">
        <ele>1323.27</ele>
        <time>2018-06-20T09:25:14Z</time>
      </trkpt>
      <trkpt lat="44.47322" lon="6.76372">
        <ele>1324.15</ele>
        <time>2018-06-20T09:25:15Z</time>
      </trkpt>
      <trkpt lat="44.47335" lon="6.76392">
        <ele>1325.05</ele>
        <time>2018-06-20T09:25:16Z</time>
      </trkpt>
      <trkpt lat="44.47369" lon="6.76454">
        <ele>1327.58</ele>
        <time>2018-06-20T09:25:19Z</time>
      </trkpt>
      <trkpt lat="44.47392" lon="6.76495">
        <ele>1329.08</ele>
        <time>2018-06-20T09:25:21Z</time>
      </trkpt>
      <trkpt lat="44.47414" lon="6.76536">
        <ele>1332.75</ele>
        <time>2018-06-20T09:25:23Z</time>
      </trkpt>
      <trkpt lat="44.47426" lon="6.76553">
        <ele>1332.72</ele>
        <time>2018-06-20T09:25:24Z</time>
      </trkpt>
      <trkpt lat="44.47438" lon="6.76568">
        <ele>1332.75</ele>
        <time>2018-06-20T09:25:25Z</time>
      </trkpt>
      <trkpt lat="44.47453" lon="6.7658">
        <ele>1334.64</ele>
        <time>2018-06-20T09:25:26Z</time>
      </trkpt>
      <trkpt lat="44.47468" lon="6.76589">
        <ele>1334.66</ele>
        <time>2018-06-20T09:25:27Z</time>
      </trkpt>
      <trkpt lat="44.47485" lon="6.76593">
        <ele>1334.63</ele>
        <time>2018-06-20T09:25:28Z</time>
      </trkpt>
      <trkpt lat="44.47502" lon="6.76594">
        <ele>1335.74</ele>
        <time>2018-06-20T09:25:29Z</time>
      </trkpt>
      <trkpt lat="44.4752" lon="6.76592">
        <ele>1336.54</ele>
        <time>2018-06-20T09:25:30Z</time>
      </trkpt>
      <trkpt lat="44.47539" lon="6.76585">
        <ele>1336.54</ele>
        <time>2018-06-20T09:25:31Z</time>
      </trkpt>
      <trkpt lat="44.47557" lon="6.76575">
        <ele>1336.51</ele>
        <time>2018-06-20T09:25:32Z</time>
      </trkpt>
      <trkpt lat="44.47576" lon="6.76562">
        <ele>1337.31</ele>
        <time>2018-06-20T09:25:33Z</time>
      </trkpt>
      <trkpt lat="44.47593" lon="6.76546">
        <ele>1337.29</ele>
        <time>2018-06-20T09:25:34Z</time>
      </trkpt>
      <trkpt lat="44.47611" lon="6.76529">
        <ele>1337.27</ele>
        <time>2018-06-20T09:25:35Z</time>
      </trkpt>
      <trkpt lat="44.47658" lon="6.76476">
        <ele>1337.26</ele>
        <time>2018-06-20T09:25:38Z</time>
      </trkpt>
      <trkpt lat="44.47668" lon="6.76455">
        <ele>1338.2</ele>
        <time>2018-06-20T09:25:39Z</time>
      </trkpt>
      <trkpt lat="44.47674" lon="6.76431">
        <ele>1339.1</ele>
        <time>2018-06-20T09:25:40Z</time>
      </trkpt>
      <trkpt lat="44.47684" lon="6.76385">
        <ele>1340.93</ele>
        <time>2018-06-20T09:25:42Z</time>
      </trkpt>
      <trkpt lat="44.47693" lon="6.76364">
        <ele>1342.03</ele>
        <time>2018-06-20T09:25:43Z</time>
      </trkpt>
      <trkpt lat="44.47703" lon="6.76343">
        <ele>1342</ele>
        <time>2018-06-20T09:25:44Z</time>
      </trkpt>
      <trkpt lat="44.47734" lon="6.76278">
        <ele>1343.55</ele>
        <time>2018-06-20T09:25:47Z</time>
      </trkpt>
      <trkpt lat="44.47746" lon="6.76258">
        <ele>1345.13</ele>
        <time>2018-06-20T09:25:48Z</time>
      </trkpt>
      <trkpt lat="44.47784" lon="6.76195">
        <ele>1347.74</ele>
        <time>2018-06-20T09:25:51Z</time>
      </trkpt>
      <trkpt lat="44.47798" lon="6.76175">
        <ele>1349.16</ele>
        <time>2018-06-20T09:25:52Z</time>
      </trkpt>
      <trkpt lat="44.47813" lon="6.76159">
        <ele>1350.53</ele>
        <time>2018-06-20T09:25:53Z</time>
      </trkpt>
      <trkpt lat="44.47843" lon="6.76129">
        <ele>1352.81</ele>
        <time>2018-06-20T09:25:55Z</time>
      </trkpt>
      <trkpt lat="44.47855" lon="6.7611">
        <ele>1352.87</ele>
        <time>2018-06-20T09:25:56Z</time>
      </trkpt>
      <trkpt lat="44.47865" lon="6.76089">
        <ele>1353.78</ele>
        <time>2018-06-20T09:25:57Z</time>
      </trkpt>
      <trkpt lat="44.47893" lon="6.76022">
        <ele>1356.33</ele>
        <time>2018-06-20T09:26:00Z</time>
      </trkpt>
      <trkpt lat="44.47905" lon="6.76002">
        <ele>1356.4</ele>
        <time>2018-06-20T09:26:01Z</time>
      </trkpt>
      <trkpt lat="44.47919" lon="6.75985">
        <ele>1357.68</ele>
        <time>2018-06-20T09:26:02Z</time>
      </trkpt>
      <trkpt lat="44.47933" lon="6.75967">
        <ele>1358.9</ele>
        <time>2018-06-20T09:26:03Z</time>
      </trkpt>
      <trkpt lat="44.47946" lon="6.75949">
        <ele>1360.06</ele>
        <time>2018-06-20T09:26:04Z</time>
      </trkpt>
      <trkpt lat="44.47959" lon="6.7593">
        <ele>1359.99</ele>
        <time>2018-06-20T09:26:05Z</time>
      </trkpt>
      <trkpt lat="44.47988" lon="6.75873">
        <ele>1361.33</ele>
        <time>2018-06-20T09:26:08Z</time>
      </trkpt>
      <trkpt lat="44.48004" lon="6.75843">
        <ele>1360.48</ele>
        <time>2018-06-20T09:26:10Z</time>
      </trkpt>
      <trkpt lat="44.48012" lon="6.75836">
        <ele>1360.53</ele>
        <time>2018-06-20T09:26:11Z</time>
      </trkpt>
      <trkpt lat="44.4802" lon="6.75838">
        <ele>1361.09</ele>
        <time>2018-06-20T09:26:12Z</time>
      </trkpt>
      <trkpt lat="44.48025" lon="6.75846">
        <ele>1360.46</ele>
        <time>2018-06-20T09:26:13Z</time>
      </trkpt>
      <trkpt lat="44.48027" lon="6.75858">
        <ele>1362.13</ele>
        <time>2018-06-20T09:26:14Z</time>
      </trkpt>
      <trkpt lat="44.48023" lon="6.75872">
        <ele>1363.32</ele>
        <time>2018-06-20T09:26:15Z</time>
      </trkpt>
      <trkpt lat="44.48017" lon="6.75886">
        <ele>1364.21</ele>
        <time>2018-06-20T09:26:16Z</time>
      </trkpt>
      <trkpt lat="44.48009" lon="6.759">
        <ele>1364.2</ele>
        <time>2018-06-20T09:26:17Z</time>
      </trkpt>
      <trkpt lat="44.47999" lon="6.75916">
        <ele>1365.64</ele>
        <time>2018-06-20T09:26:18Z</time>
      </trkpt>
      <trkpt lat="44.47968" lon="6.75972">
        <ele>1369.76</ele>
        <time>2018-06-20T09:26:21Z</time>
      </trkpt>
      <trkpt lat="44.47958" lon="6.75994">
        <ele>1369.8</ele>
        <time>2018-06-20T09:26:22Z</time>
      </trkpt>
      <trkpt lat="44.4793" lon="6.76065">
        <ele>1373.76</ele>
        <time>2018-06-20T09:26:25Z</time>
      </trkpt>
      <trkpt lat="44.47916" lon="6.76116">
        <ele>1376.02</ele>
        <time>2018-06-20T09:26:27Z</time>
      </trkpt>
      <trkpt lat="44.47905" lon="6.76168">
        <ele>1377.05</ele>
        <time>2018-06-20T09:26:29Z</time>
      </trkpt>
      <trkpt lat="44.47896" lon="6.76193">
        <ele>1378.31</ele>
        <time>2018-06-20T09:26:30Z</time>
      </trkpt>
      <trkpt lat="44.47886" lon="6.76218">
        <ele>1379.97</ele>
        <time>2018-06-20T09:26:31Z</time>
      </trkpt>
      <trkpt lat="44.47865" lon="6.76266">
        <ele>1382.02</ele>
        <time>2018-06-20T09:26:33Z</time>
      </trkpt>
      <trkpt lat="44.47857" lon="6.76292">
        <ele>1383.04</ele>
        <time>2018-06-20T09:26:34Z</time>
      </trkpt>
      <trkpt lat="44.47849" lon="6.76318">
        <ele>1384.28</ele>
        <time>2018-06-20T09:26:35Z</time>
      </trkpt>
      <trkpt lat="44.47841" lon="6.76343">
        <ele>1385.47</ele>
        <time>2018-06-20T09:26:36Z</time>
      </trkpt>
      <trkpt lat="44.47832" lon="6.76367">
        <ele>1385.51</ele>
        <time>2018-06-20T09:26:37Z</time>
      </trkpt>
      <trkpt lat="44.47803" lon="6.76432">
        <ele>1387.52</ele>
        <time>2018-06-20T09:26:40Z</time>
      </trkpt>
      <trkpt lat="44.47769" lon="6.76511">
        <ele>1390.3</ele>
        <time>2018-06-20T09:26:44Z</time>
      </trkpt>
      <trkpt lat="44.47745" lon="6.76594">
        <ele>1393.03</ele>
        <time>2018-06-20T09:26:48Z</time>
      </trkpt>
      <trkpt lat="44.47739" lon="6.76614">
        <ele>1394.3</ele>
        <time>2018-06-20T09:26:49Z</time>
      </trkpt>
      <trkpt lat="44.47731" lon="6.76632">
        <ele>1395.7</ele>
        <time>2018-06-20T09:26:50Z</time>
      </trkpt>
      <trkpt lat="44.47723" lon="6.7665">
        <ele>1395.7</ele>
        <time>2018-06-20T09:26:51Z</time>
      </trkpt>
      <trkpt lat="44.47701" lon="6.76701">
        <ele>1399.21</ele>
        <time>2018-06-20T09:26:54Z</time>
      </trkpt>
      <trkpt lat="44.47697" lon="6.76718">
        <ele>1399.29</ele>
        <time>2018-06-20T09:26:55Z</time>
      </trkpt>
      <trkpt lat="44.47691" lon="6.76734">
        <ele>1400.19</ele>
        <time>2018-06-20T09:26:56Z</time>
      </trkpt>
      <trkpt lat="44.47685" lon="6.76748">
        <ele>1400.2</ele>
        <time>2018-06-20T09:26:57Z</time>
      </trkpt>
      <trkpt lat="44.47679" lon="6.76759">
        <ele>1400.97</ele>
        <time>2018-06-20T09:26:58Z</time>
      </trkpt>
      <trkpt lat="44.47673" lon="6.76768">
        <ele>1401</ele>
        <time>2018-06-20T09:26:59Z</time>
      </trkpt>
      <trkpt lat="44.47662" lon="6.76787">
        <ele>1401.74</ele>
        <time>2018-06-20T09:27:05Z</time>
      </trkpt>
      <trkpt lat="44.47662" lon="6.76788">
        <ele>1401.73</ele>
        <time>2018-06-20T09:27:06Z</time>
      </trkpt>
      <trkpt lat="44.47661" lon="6.7679">
        <ele>1401.68</ele>
        <time>2018-06-20T09:27:07Z</time>
      </trkpt>
      <trkpt lat="44.47659" lon="6.76794">
        <ele>1401.71</ele>
        <time>2018-06-20T09:27:08Z</time>
      </trkpt>
      <trkpt lat="44.47655" lon="6.768">
        <ele>1402.53</ele>
        <time>2018-06-20T09:27:09Z</time>
      </trkpt>
      <trkpt lat="44.47652" lon="6.76806">
        <ele>1402.54</ele>
        <time>2018-06-20T09:27:10Z</time>
      </trkpt>
      <trkpt lat="44.4764" lon="6.76832">
        <ele>1404.52</ele>
        <time>2018-06-20T09:27:13Z</time>
      </trkpt>
      <trkpt lat="44.47636" lon="6.76842">
        <ele>1404.46</ele>
        <time>2018-06-20T09:27:14Z</time>
      </trkpt>
      <trkpt lat="44.47627" lon="6.76864">
        <ele>1406.88</ele>
        <time>2018-06-20T09:27:16Z</time>
      </trkpt>
      <trkpt lat="44.47624" lon="6.76876">
        <ele>1406.89</ele>
        <time>2018-06-20T09:27:17Z</time>
      </trkpt>
      <trkpt lat="44.47614" lon="6.76915">
        <ele>1408.26</ele>
        <time>2018-06-20T09:27:20Z</time>
      </trkpt>
      <trkpt lat="44.4761" lon="6.76943">
        <ele>1409.91</ele>
        <time>2018-06-20T09:27:22Z</time>
      </trkpt>
      <trkpt lat="44.4761" lon="6.76957">
        <ele>1409.9</ele>
        <time>2018-06-20T09:27:23Z</time>
      </trkpt>
      <trkpt lat="44.47611" lon="6.76972">
        <ele>1411.91</ele>
        <time>2018-06-20T09:27:24Z</time>
      </trkpt>
      <trkpt lat="44.47613" lon="6.76987">
        <ele>1411.95</ele>
        <time>2018-06-20T09:27:25Z</time>
      </trkpt>
      <trkpt lat="44.47616" lon="6.77002">
        <ele>1411.94</ele>
        <time>2018-06-20T09:27:26Z</time>
      </trkpt>
      <trkpt lat="44.47627" lon="6.77047">
        <ele>1413.36</ele>
        <time>2018-06-20T09:27:29Z</time>
      </trkpt>
      <trkpt lat="44.47634" lon="6.77061">
        <ele>1413.3</ele>
        <time>2018-06-20T09:27:30Z</time>
      </trkpt>
      <trkpt lat="44.4764" lon="6.77075">
        <ele>1413.27</ele>
        <time>2018-06-20T09:27:31Z</time>
      </trkpt>
      <trkpt lat="44.47646" lon="6.77089">
        <ele>1414.42</ele>
        <time>2018-06-20T09:27:32Z</time>
      </trkpt>
      <trkpt lat="44.47652" lon="6.77105">
        <ele>1415.27</ele>
        <time>2018-06-20T09:27:33Z</time>
      </trkpt>
      <trkpt lat="44.47657" lon="6.77122">
        <ele>1415.23</ele>
        <time>2018-06-20T09:27:34Z</time>
      </trkpt>
      <trkpt lat="44.47662" lon="6.77139">
        <ele>1416.33</ele>
        <time>2018-06-20T09:27:35Z</time>
      </trkpt>
      <trkpt lat="44.47672" lon="6.77191">
        <ele>1417.05</ele>
        <time>2018-06-20T09:27:38Z</time>
      </trkpt>
      <trkpt lat="44.47673" lon="6.77209">
        <ele>1419.3</ele>
        <time>2018-06-20T09:27:39Z</time>
      </trkpt>
      <trkpt lat="44.47673" lon="6.77228">
        <ele>1419.29</ele>
        <time>2018-06-20T09:27:40Z</time>
      </trkpt>
      <trkpt lat="44.4767" lon="6.77245">
        <ele>1420.37</ele>
        <time>2018-06-20T09:27:41Z</time>
      </trkpt>
      <trkpt lat="44.47665" lon="6.77262">
        <ele>1421.18</ele>
        <time>2018-06-20T09:27:42Z</time>
      </trkpt>
      <trkpt lat="44.47659" lon="6.77279">
        <ele>1421.23</ele>
        <time>2018-06-20T09:27:43Z</time>
      </trkpt>
      <trkpt lat="44.47648" lon="6.77312">
        <ele>1423.61</ele>
        <time>2018-06-20T09:27:45Z</time>
      </trkpt>
      <trkpt lat="44.47645" lon="6.77331">
        <ele>1424.83</ele>
        <time>2018-06-20T09:27:46Z</time>
      </trkpt>
      <trkpt lat="44.47643" lon="6.77351">
        <ele>1426.15</ele>
        <time>2018-06-20T09:27:47Z</time>
      </trkpt>
      <trkpt lat="44.47642" lon="6.77417">
        <ele>1428.07</ele>
        <time>2018-06-20T09:27:50Z</time>
      </trkpt>
      <trkpt lat="44.47644" lon="6.77483">
        <ele>1431.96</ele>
        <time>2018-06-20T09:27:53Z</time>
      </trkpt>
      <trkpt lat="44.47646" lon="6.77505">
        <ele>1431.96</ele>
        <time>2018-06-20T09:27:54Z</time>
      </trkpt>
      <trkpt lat="44.4765" lon="6.77525">
        <ele>1431.96</ele>
        <time>2018-06-20T09:27:55Z</time>
      </trkpt>
      <trkpt lat="44.47657" lon="6.77544">
        <ele>1431.95</ele>
        <time>2018-06-20T09:27:56Z</time>
      </trkpt>
      <trkpt lat="44.47671" lon="6.77576">
        <ele>1433.04</ele>
        <time>2018-06-20T09:27:58Z</time>
      </trkpt>
      <trkpt lat="44.47673" lon="6.77592">
        <ele>1433.04</ele>
        <time>2018-06-20T09:27:59Z</time>
      </trkpt>
      <trkpt lat="44.4767" lon="6.77608">
        <ele>1433.86</ele>
        <time>2018-06-20T09:28:00Z</time>
      </trkpt>
      <trkpt lat="44.47664" lon="6.77622">
        <ele>1434.76</ele>
        <time>2018-06-20T09:28:01Z</time>
      </trkpt>
      <trkpt lat="44.47656" lon="6.77635">
        <ele>1435.95</ele>
        <time>2018-06-20T09:28:02Z</time>
      </trkpt>
      <trkpt lat="44.47651" lon="6.7765">
        <ele>1437.11</ele>
        <time>2018-06-20T09:28:03Z</time>
      </trkpt>
      <trkpt lat="44.4765" lon="6.77666">
        <ele>1436.99</ele>
        <time>2018-06-20T09:28:04Z</time>
      </trkpt>
      <trkpt lat="44.47652" lon="6.77684">
        <ele>1437.78</ele>
        <time>2018-06-20T09:28:05Z</time>
      </trkpt>
      <trkpt lat="44.47665" lon="6.7777">
        <ele>1440.14</ele>
        <time>2018-06-20T09:28:09Z</time>
      </trkpt>
      <trkpt lat="44.47665" lon="6.77844">
        <ele>1442.6</ele>
        <time>2018-06-20T09:28:12Z</time>
      </trkpt>
      <trkpt lat="44.47666" lon="6.7787">
        <ele>1443.61</ele>
        <time>2018-06-20T09:28:13Z</time>
      </trkpt>
      <trkpt lat="44.4767" lon="6.7792">
        <ele>1443.63</ele>
        <time>2018-06-20T09:28:15Z</time>
      </trkpt>
      <trkpt lat="44.47669" lon="6.77944">
        <ele>1444.48</ele>
        <time>2018-06-20T09:28:16Z</time>
      </trkpt>
      <trkpt lat="44.47665" lon="6.77967">
        <ele>1445.36</ele>
        <time>2018-06-20T09:28:17Z</time>
      </trkpt>
      <trkpt lat="44.4766" lon="6.77989">
        <ele>1445.35</ele>
        <time>2018-06-20T09:28:18Z</time>
      </trkpt>
      <trkpt lat="44.47657" lon="6.78012">
        <ele>1446.11</ele>
        <time>2018-06-20T09:28:19Z</time>
      </trkpt>
      <trkpt lat="44.47656" lon="6.78036">
        <ele>1446.07</ele>
        <time>2018-06-20T09:28:20Z</time>
      </trkpt>
      <trkpt lat="44.47656" lon="6.78059">
        <ele>1446.13</ele>
        <time>2018-06-20T09:28:21Z</time>
      </trkpt>
      <trkpt lat="44.47653" lon="6.78082">
        <ele>1446.03</ele>
        <time>2018-06-20T09:28:22Z</time>
      </trkpt>
      <trkpt lat="44.47651" lon="6.78105">
        <ele>1446.04</ele>
        <time>2018-06-20T09:28:23Z</time>
      </trkpt>
      <trkpt lat="44.47651" lon="6.78128">
        <ele>1445.98</ele>
        <time>2018-06-20T09:28:24Z</time>
      </trkpt>
      <trkpt lat="44.47653" lon="6.78152">
        <ele>1445.89</ele>
        <time>2018-06-20T09:28:25Z</time>
      </trkpt>
      <trkpt lat="44.47655" lon="6.78176">
        <ele>1445.84</ele>
        <time>2018-06-20T09:28:26Z</time>
      </trkpt>
      <trkpt lat="44.47656" lon="6.782">
        <ele>1446.38</ele>
        <time>2018-06-20T09:28:27Z</time>
      </trkpt>
      <trkpt lat="44.47654" lon="6.78224">
        <ele>1447.12</ele>
        <time>2018-06-20T09:28:28Z</time>
      </trkpt>
      <trkpt lat="44.47653" lon="6.78247">
        <ele>1448.04</ele>
        <time>2018-06-20T09:28:29Z</time>
      </trkpt>
      <trkpt lat="44.47653" lon="6.7827">
        <ele>1448.3</ele>
        <time>2018-06-20T09:28:30Z</time>
      </trkpt>
      <trkpt lat="44.47656" lon="6.78292">
        <ele>1448.26</ele>
        <time>2018-06-20T09:28:31Z</time>
      </trkpt>
      <trkpt lat="44.47659" lon="6.78314">
        <ele>1449.38</ele>
        <time>2018-06-20T09:28:32Z</time>
      </trkpt>
      <trkpt lat="44.47665" lon="6.78398">
        <ele>1451.77</ele>
        <time>2018-06-20T09:28:36Z</time>
      </trkpt>
      <trkpt lat="44.4767" lon="6.78439">
        <ele>1454.36</ele>
        <time>2018-06-20T09:28:38Z</time>
      </trkpt>
      <trkpt lat="44.47675" lon="6.78477">
        <ele>1456.8</ele>
        <time>2018-06-20T09:28:40Z</time>
      </trkpt>
      <trkpt lat="44.47676" lon="6.78496">
        <ele>1456.79</ele>
        <time>2018-06-20T09:28:41Z</time>
      </trkpt>
      <trkpt lat="44.47675" lon="6.78514">
        <ele>1457.86</ele>
        <time>2018-06-20T09:28:42Z</time>
      </trkpt>
      <trkpt lat="44.47675" lon="6.78532">
        <ele>1459.31</ele>
        <time>2018-06-20T09:28:43Z</time>
      </trkpt>
      <trkpt lat="44.47679" lon="6.7855">
        <ele>1459.38</ele>
        <time>2018-06-20T09:28:44Z</time>
      </trkpt>
      <trkpt lat="44.47684" lon="6.78567">
        <ele>1459.45</ele>
        <time>2018-06-20T09:28:45Z</time>
      </trkpt>
      <trkpt lat="44.47691" lon="6.78583">
        <ele>1459.45</ele>
        <time>2018-06-20T09:28:46Z</time>
      </trkpt>
      <trkpt lat="44.47698" lon="6.786">
        <ele>1459.39</ele>
        <time>2018-06-20T09:28:47Z</time>
      </trkpt>
      <trkpt lat="44.47725" lon="6.78684">
        <ele>1461.69</ele>
        <time>2018-06-20T09:28:52Z</time>
      </trkpt>
      <trkpt lat="44.47737" lon="6.78732">
        <ele>1462.67</ele>
        <time>2018-06-20T09:28:55Z</time>
      </trkpt>
      <trkpt lat="44.47738" lon="6.78748">
        <ele>1463.88</ele>
        <time>2018-06-20T09:28:56Z</time>
      </trkpt>
      <trkpt lat="44.47739" lon="6.78763">
        <ele>1463.92</ele>
        <time>2018-06-20T09:28:57Z</time>
      </trkpt>
      <trkpt lat="44.47744" lon="6.7879">
        <ele>1464.77</ele>
        <time>2018-06-20T09:28:59Z</time>
      </trkpt>
      <trkpt lat="44.47761" lon="6.78843">
        <ele>1467.07</ele>
        <time>2018-06-20T09:29:04Z</time>
      </trkpt>
      <trkpt lat="44.47792" lon="6.78938">
        <ele>1470.94</ele>
        <time>2018-06-20T09:29:13Z</time>
      </trkpt>
      <trkpt lat="44.47795" lon="6.78949">
        <ele>1470.94</ele>
        <time>2018-06-20T09:29:14Z</time>
      </trkpt>
      <trkpt lat="44.478" lon="6.78996">
        <ele>1472.43</ele>
        <time>2018-06-20T09:29:18Z</time>
      </trkpt>
      <trkpt lat="44.47799" lon="6.79008">
        <ele>1473.58</ele>
        <time>2018-06-20T09:29:19Z</time>
      </trkpt>
      <trkpt lat="44.47797" lon="6.7902">
        <ele>1473.56</ele>
        <time>2018-06-20T09:29:20Z</time>
      </trkpt>
      <trkpt lat="44.47793" lon="6.79043">
        <ele>1474.4</ele>
        <time>2018-06-20T09:29:22Z</time>
      </trkpt>
      <trkpt lat="44.47792" lon="6.79056">
        <ele>1475.38</ele>
        <time>2018-06-20T09:29:23Z</time>
      </trkpt>
      <trkpt lat="44.47792" lon="6.79069">
        <ele>1476.44</ele>
        <time>2018-06-20T09:29:24Z</time>
      </trkpt>
      <trkpt lat="44.47795" lon="6.79082">
        <ele>1477.67</ele>
        <time>2018-06-20T09:29:25Z</time>
      </trkpt>
      <trkpt lat="44.47799" lon="6.79096">
        <ele>1478.42</ele>
        <time>2018-06-20T09:29:26Z</time>
      </trkpt>
      <trkpt lat="44.47804" lon="6.79109">
        <ele>1478.47</ele>
        <time>2018-06-20T09:29:27Z</time>
      </trkpt>
      <trkpt lat="44.4781" lon="6.79122">
        <ele>1478.47</ele>
        <time>2018-06-20T09:29:28Z</time>
      </trkpt>
      <trkpt lat="44.47847" lon="6.79194">
        <ele>1481.72</ele>
        <time>2018-06-20T09:29:36Z</time>
      </trkpt>
      <trkpt lat="44.4785" lon="6.79203">
        <ele>1481.71</ele>
        <time>2018-06-20T09:29:37Z</time>
      </trkpt>
      <trkpt lat="44.47852" lon="6.79213">
        <ele>1482.69</ele>
        <time>2018-06-20T09:29:38Z</time>
      </trkpt>
      <trkpt lat="44.47852" lon="6.79224">
        <ele>1482.68</ele>
        <time>2018-06-20T09:29:39Z</time>
      </trkpt>
      <trkpt lat="44.47849" lon="6.79235">
        <ele>1483.51</ele>
        <time>2018-06-20T09:29:40Z</time>
      </trkpt>
      <trkpt lat="44.47844" lon="6.79245">
        <ele>1483.51</ele>
        <time>2018-06-20T09:29:41Z</time>
      </trkpt>
      <trkpt lat="44.47837" lon="6.79254">
        <ele>1483.51</ele>
        <time>2018-06-20T09:29:42Z</time>
      </trkpt>
      <trkpt lat="44.47829" lon="6.79263">
        <ele>1484.49</ele>
        <time>2018-06-20T09:29:43Z</time>
      </trkpt>
      <trkpt lat="44.47808" lon="6.79284">
        <ele>1485.27</ele>
        <time>2018-06-20T09:29:45Z</time>
      </trkpt>
      <trkpt lat="44.47794" lon="6.79293">
        <ele>1485.28</ele>
        <time>2018-06-20T09:29:46Z</time>
      </trkpt>
      <trkpt lat="44.4778" lon="6.79302">
        <ele>1486.13</ele>
        <time>2018-06-20T09:29:47Z</time>
      </trkpt>
      <trkpt lat="44.47731" lon="6.79332">
        <ele>1488</ele>
        <time>2018-06-20T09:29:51Z</time>
      </trkpt>
      <trkpt lat="44.47684" lon="6.79374">
        <ele>1490.37</ele>
        <time>2018-06-20T09:29:56Z</time>
      </trkpt>
      <trkpt lat="44.47652" lon="6.79412">
        <ele>1492.81</ele>
        <time>2018-06-20T09:30:00Z</time>
      </trkpt>
      <trkpt lat="44.47646" lon="6.79424">
        <ele>1494.16</ele>
        <time>2018-06-20T09:30:01Z</time>
      </trkpt>
      <trkpt lat="44.4764" lon="6.79439">
        <ele>1495.42</ele>
        <time>2018-06-20T09:30:02Z</time>
      </trkpt>
      <trkpt lat="44.47635" lon="6.79458">
        <ele>1498.43</ele>
        <time>2018-06-20T09:30:03Z</time>
      </trkpt>
      <trkpt lat="44.47623" lon="6.79501">
        <ele>1501.9</ele>
        <time>2018-06-20T09:30:05Z</time>
      </trkpt>
      <trkpt lat="44.47617" lon="6.79524">
        <ele>1501.97</ele>
        <time>2018-06-20T09:30:06Z</time>
      </trkpt>
      <trkpt lat="44.47606" lon="6.79567">
        <ele>1503.48</ele>
        <time>2018-06-20T09:30:08Z</time>
      </trkpt>
      <trkpt lat="44.47594" lon="6.79618">
        <ele>1504.57</ele>
        <time>2018-06-20T09:30:11Z</time>
      </trkpt>
      <trkpt lat="44.47596" lon="6.79628">
        <ele>1504.58</ele>
        <time>2018-06-20T09:30:12Z</time>
      </trkpt>
      <trkpt lat="44.47601" lon="6.79633">
        <ele>1504.57</ele>
        <time>2018-06-20T09:30:13Z</time>
      </trkpt>
      <trkpt lat="44.47608" lon="6.79632">
        <ele>1505.47</ele>
        <time>2018-06-20T09:30:14Z</time>
      </trkpt>
      <trkpt lat="44.47615" lon="6.79623">
        <ele>1505.57</ele>
        <time>2018-06-20T09:30:15Z</time>
      </trkpt>
      <trkpt lat="44.47621" lon="6.79609">
        <ele>1506.97</ele>
        <time>2018-06-20T09:30:16Z</time>
      </trkpt>
      <trkpt lat="44.47628" lon="6.79594">
        <ele>1507.91</ele>
        <time>2018-06-20T09:30:17Z</time>
      </trkpt>
      <trkpt lat="44.47637" lon="6.79579">
        <ele>1508.9</ele>
        <time>2018-06-20T09:30:18Z</time>
      </trkpt>
      <trkpt lat="44.47645" lon="6.79564">
        <ele>1510.03</ele>
        <time>2018-06-20T09:30:19Z</time>
      </trkpt>
      <trkpt lat="44.47653" lon="6.79549">
        <ele>1510.01</ele>
        <time>2018-06-20T09:30:20Z</time>
      </trkpt>
      <trkpt lat="44.47659" lon="6.79535">
        <ele>1510.93</ele>
        <time>2018-06-20T09:30:21Z</time>
      </trkpt>
      <trkpt lat="44.47664" lon="6.7952">
        <ele>1510.9</ele>
        <time>2018-06-20T09:30:22Z</time>
      </trkpt>
      <trkpt lat="44.47668" lon="6.79507">
        <ele>1510.89</ele>
        <time>2018-06-20T09:30:23Z</time>
      </trkpt>
      <trkpt lat="44.47674" lon="6.79498">
        <ele>1510.87</ele>
        <time>2018-06-20T09:30:24Z</time>
      </trkpt>
      <trkpt lat="44.4768" lon="6.79494">
        <ele>1511.9</ele>
        <time>2018-06-20T09:30:25Z</time>
      </trkpt>
      <trkpt lat="44.47685" lon="6.79497">
        <ele>1511.9</ele>
        <time>2018-06-20T09:30:26Z</time>
      </trkpt>
      <trkpt lat="44.47686" lon="6.79504">
        <ele>1513.04</ele>
        <time>2018-06-20T09:30:27Z</time>
      </trkpt>
      <trkpt lat="44.47683" lon="6.79513">
        <ele>1514.2</ele>
        <time>2018-06-20T09:30:28Z</time>
      </trkpt>
      <trkpt lat="44.47678" lon="6.79523">
        <ele>1514.36</ele>
        <time>2018-06-20T09:30:29Z</time>
      </trkpt>
      <trkpt lat="44.47674" lon="6.79535">
        <ele>1515.61</ele>
        <time>2018-06-20T09:30:30Z</time>
      </trkpt>
      <trkpt lat="44.47673" lon="6.79549">
        <ele>1515.7</ele>
        <time>2018-06-20T09:30:31Z</time>
      </trkpt>
      <trkpt lat="44.47672" lon="6.79564">
        <ele>1517.38</ele>
        <time>2018-06-20T09:30:32Z</time>
      </trkpt>
      <trkpt lat="44.4767" lon="6.79581">
        <ele>1517.36</ele>
        <time>2018-06-20T09:30:33Z</time>
      </trkpt>
      <trkpt lat="44.47669" lon="6.7963">
        <ele>1520.46</ele>
        <time>2018-06-20T09:30:36Z</time>
      </trkpt>
      <trkpt lat="44.47669" lon="6.79645">
        <ele>1520.41</ele>
        <time>2018-06-20T09:30:37Z</time>
      </trkpt>
      <trkpt lat="44.47666" lon="6.79673">
        <ele>1520.4</ele>
        <time>2018-06-20T09:30:39Z</time>
      </trkpt>
      <trkpt lat="44.47663" lon="6.79686">
        <ele>1520.42</ele>
        <time>2018-06-20T09:30:40Z</time>
      </trkpt>
      <trkpt lat="44.47657" lon="6.79698">
        <ele>1520.42</ele>
        <time>2018-06-20T09:30:41Z</time>
      </trkpt>
      <trkpt lat="44.47649" lon="6.79708">
        <ele>1520.46</ele>
        <time>2018-06-20T09:30:42Z</time>
      </trkpt>
      <trkpt lat="44.4764" lon="6.79716">
        <ele>1520.41</ele>
        <time>2018-06-20T09:30:43Z</time>
      </trkpt>
      <trkpt lat="44.47631" lon="6.79725">
        <ele>1520.53</ele>
        <time>2018-06-20T09:30:44Z</time>
      </trkpt>
      <trkpt lat="44.47623" lon="6.79734">
        <ele>1521.71</ele>
        <time>2018-06-20T09:30:45Z</time>
      </trkpt>
      <trkpt lat="44.47616" lon="6.79744">
        <ele>1521.7</ele>
        <time>2018-06-20T09:30:46Z</time>
      </trkpt>
      <trkpt lat="44.47611" lon="6.79755">
        <ele>1522.27</ele>
        <time>2018-06-20T09:30:47Z</time>
      </trkpt>
      <trkpt lat="44.47606" lon="6.79766">
        <ele>1522.32</ele>
        <time>2018-06-20T09:30:48Z</time>
      </trkpt>
      <trkpt lat="44.47602" lon="6.79778">
        <ele>1522.31</ele>
        <time>2018-06-20T09:30:49Z</time>
      </trkpt>
      <trkpt lat="44.47599" lon="6.7979">
        <ele>1523.21</ele>
        <time>2018-06-20T09:30:50Z</time>
      </trkpt>
      <trkpt lat="44.4758" lon="6.79888">
        <ele>1524.24</ele>
        <time>2018-06-20T09:30:58Z</time>
      </trkpt>
      <trkpt lat="44.47577" lon="6.79899">
        <ele>1525.13</ele>
        <time>2018-06-20T09:30:59Z</time>
      </trkpt>
      <trkpt lat="44.47572" lon="6.7991">
        <ele>1525.16</ele>
        <time>2018-06-20T09:31:00Z</time>
      </trkpt>
      <trkpt lat="44.47566" lon="6.7992">
        <ele>1525.16</ele>
        <time>2018-06-20T09:31:01Z</time>
      </trkpt>
      <trkpt lat="44.4756" lon="6.7993">
        <ele>1525.16</ele>
        <time>2018-06-20T09:31:02Z</time>
      </trkpt>
      <trkpt lat="44.47519" lon="6.80031">
        <ele>1528.46</ele>
        <time>2018-06-20T09:31:12Z</time>
      </trkpt>
      <trkpt lat="44.47515" lon="6.8004">
        <ele>1528.46</ele>
        <time>2018-06-20T09:31:13Z</time>
      </trkpt>
      <trkpt lat="44.47512" lon="6.8005">
        <ele>1529.4</ele>
        <time>2018-06-20T09:31:14Z</time>
      </trkpt>
      <trkpt lat="44.47507" lon="6.8006">
        <ele>1530.38</ele>
        <time>2018-06-20T09:31:15Z</time>
      </trkpt>
      <trkpt lat="44.47502" lon="6.80069">
        <ele>1530.37</ele>
        <time>2018-06-20T09:31:16Z</time>
      </trkpt>
      <trkpt lat="44.47496" lon="6.80076">
        <ele>1531.68</ele>
        <time>2018-06-20T09:31:17Z</time>
      </trkpt>
      <trkpt lat="44.4749" lon="6.80084">
        <ele>1531.74</ele>
        <time>2018-06-20T09:31:18Z</time>
      </trkpt>
      <trkpt lat="44.47477" lon="6.80101">
        <ele>1534.87</ele>
        <time>2018-06-20T09:31:20Z</time>
      </trkpt>
      <trkpt lat="44.47454" lon="6.80133">
        <ele>1538.55</ele>
        <time>2018-06-20T09:31:23Z</time>
      </trkpt>
      <trkpt lat="44.47425" lon="6.80168">
        <ele>1542.16</ele>
        <time>2018-06-20T09:31:26Z</time>
      </trkpt>
      <trkpt lat="44.47395" lon="6.80205">
        <ele>1546.39</ele>
        <time>2018-06-20T09:31:29Z</time>
      </trkpt>
      <trkpt lat="44.47364" lon="6.80249">
        <ele>1550.5</ele>
        <time>2018-06-20T09:31:32Z</time>
      </trkpt>
      <trkpt lat="44.47336" lon="6.803">
        <ele>1554.09</ele>
        <time>2018-06-20T09:31:35Z</time>
      </trkpt>
      <trkpt lat="44.47311" lon="6.80356">
        <ele>1556.04</ele>
        <time>2018-06-20T09:31:38Z</time>
      </trkpt>
      <trkpt lat="44.47269" lon="6.80435">
        <ele>1559.15</ele>
        <time>2018-06-20T09:31:42Z</time>
      </trkpt>
      <trkpt lat="44.47257" lon="6.80455">
        <ele>1559.11</ele>
        <time>2018-06-20T09:31:43Z</time>
      </trkpt>
      <trkpt lat="44.4722" lon="6.80513">
        <ele>1560.42</ele>
        <time>2018-06-20T09:31:46Z</time>
      </trkpt>
      <trkpt lat="44.471" lon="6.80713">
        <ele>1560.11</ele>
        <time>2018-06-20T09:31:56Z</time>
      </trkpt>
      <trkpt lat="44.47091" lon="6.80736">
        <ele>1560.08</ele>
        <time>2018-06-20T09:31:57Z</time>
      </trkpt>
      <trkpt lat="44.47085" lon="6.8076">
        <ele>1560.05</ele>
        <time>2018-06-20T09:31:58Z</time>
      </trkpt>
      <trkpt lat="44.4708" lon="6.80785">
        <ele>1560.02</ele>
        <time>2018-06-20T09:31:59Z</time>
      </trkpt>
      <trkpt lat="44.47076" lon="6.80811">
        <ele>1557.23</ele>
        <time>2018-06-20T09:32:00Z</time>
      </trkpt>
      <trkpt lat="44.47073" lon="6.80837">
        <ele>1557.21</ele>
        <time>2018-06-20T09:32:01Z</time>
      </trkpt>
      <trkpt lat="44.47032" lon="6.81093">
        <ele>1556.36</ele>
        <time>2018-06-20T09:32:11Z</time>
      </trkpt>
      <trkpt lat="44.47023" lon="6.81117">
        <ele>1556.36</ele>
        <time>2018-06-20T09:32:12Z</time>
      </trkpt>
      <trkpt lat="44.47012" lon="6.81138">
        <ele>1556.36</ele>
        <time>2018-06-20T09:32:13Z</time>
      </trkpt>
      <trkpt lat="44.4693" lon="6.81272">
        <ele>1556.42</ele>
        <time>2018-06-20T09:32:20Z</time>
      </trkpt>
      <trkpt lat="44.46924" lon="6.81294">
        <ele>1556.41</ele>
        <time>2018-06-20T09:32:21Z</time>
      </trkpt>
      <trkpt lat="44.46921" lon="6.81317">
        <ele>1556.42</ele>
        <time>2018-06-20T09:32:22Z</time>
      </trkpt>
      <trkpt lat="44.46921" lon="6.81342">
        <ele>1556.44</ele>
        <time>2018-06-20T09:32:23Z</time>
      </trkpt>
      <trkpt lat="44.46921" lon="6.81369">
        <ele>1558.92</ele>
        <time>2018-06-20T09:32:24Z</time>
      </trkpt>
      <trkpt lat="44.46923" lon="6.81395">
        <ele>1558.93</ele>
        <time>2018-06-20T09:32:25Z</time>
      </trkpt>
      <trkpt lat="44.46933" lon="6.81446">
        <ele>1560.01</ele>
        <time>2018-06-20T09:32:27Z</time>
      </trkpt>
      <trkpt lat="44.46944" lon="6.81491">
        <ele>1560</ele>
        <time>2018-06-20T09:32:29Z</time>
      </trkpt>
      <trkpt lat="44.46946" lon="6.81513">
        <ele>1560.01</ele>
        <time>2018-06-20T09:32:30Z</time>
      </trkpt>
      <trkpt lat="44.46943" lon="6.81534">
        <ele>1561.17</ele>
        <time>2018-06-20T09:32:31Z</time>
      </trkpt>
      <trkpt lat="44.46935" lon="6.81554">
        <ele>1562.05</ele>
        <time>2018-06-20T09:32:32Z</time>
      </trkpt>
      <trkpt lat="44.46924" lon="6.81573">
        <ele>1563.04</ele>
        <time>2018-06-20T09:32:33Z</time>
      </trkpt>
      <trkpt lat="44.46912" lon="6.81592">
        <ele>1564.47</ele>
        <time>2018-06-20T09:32:34Z</time>
      </trkpt>
      <trkpt lat="44.46885" lon="6.8163">
        <ele>1567.02</ele>
        <time>2018-06-20T09:32:36Z</time>
      </trkpt>
      <trkpt lat="44.4687" lon="6.81645">
        <ele>1568.17</ele>
        <time>2018-06-20T09:32:37Z</time>
      </trkpt>
      <trkpt lat="44.46853" lon="6.81658">
        <ele>1569.51</ele>
        <time>2018-06-20T09:32:38Z</time>
      </trkpt>
      <trkpt lat="44.46835" lon="6.81669">
        <ele>1570.8</ele>
        <time>2018-06-20T09:32:39Z</time>
      </trkpt>
      <trkpt lat="44.46817" lon="6.81678">
        <ele>1572.19</ele>
        <time>2018-06-20T09:32:40Z</time>
      </trkpt>
      <trkpt lat="44.46764" lon="6.81703">
        <ele>1574.57</ele>
        <time>2018-06-20T09:32:43Z</time>
      </trkpt>
      <trkpt lat="44.46714" lon="6.81736">
        <ele>1578.31</ele>
        <time>2018-06-20T09:32:46Z</time>
      </trkpt>
      <trkpt lat="44.46667" lon="6.81775">
        <ele>1581.48</ele>
        <time>2018-06-20T09:32:49Z</time>
      </trkpt>
      <trkpt lat="44.46621" lon="6.81816">
        <ele>1583.4</ele>
        <time>2018-06-20T09:32:52Z</time>
      </trkpt>
      <trkpt lat="44.46592" lon="6.81843">
        <ele>1585.43</ele>
        <time>2018-06-20T09:32:54Z</time>
      </trkpt>
      <trkpt lat="44.4658" lon="6.81856">
        <ele>1585.33</ele>
        <time>2018-06-20T09:32:55Z</time>
      </trkpt>
      <trkpt lat="44.46571" lon="6.81873">
        <ele>1586.31</ele>
        <time>2018-06-20T09:32:56Z</time>
      </trkpt>
      <trkpt lat="44.46566" lon="6.81892">
        <ele>1587.26</ele>
        <time>2018-06-20T09:32:57Z</time>
      </trkpt>
      <trkpt lat="44.46562" lon="6.81914">
        <ele>1587.26</ele>
        <time>2018-06-20T09:32:58Z</time>
      </trkpt>
      <trkpt lat="44.46558" lon="6.81936">
        <ele>1587.26</ele>
        <time>2018-06-20T09:32:59Z</time>
      </trkpt>
      <trkpt lat="44.4655" lon="6.81957">
        <ele>1589.2</ele>
        <time>2018-06-20T09:33:00Z</time>
      </trkpt>
      <trkpt lat="44.46539" lon="6.81977">
        <ele>1591.36</ele>
        <time>2018-06-20T09:33:01Z</time>
      </trkpt>
      <trkpt lat="44.46504" lon="6.82034">
        <ele>1594.82</ele>
        <time>2018-06-20T09:33:04Z</time>
      </trkpt>
      <trkpt lat="44.46497" lon="6.82056">
        <ele>1595.64</ele>
        <time>2018-06-20T09:33:05Z</time>
      </trkpt>
      <trkpt lat="44.46492" lon="6.8208">
        <ele>1595.75</ele>
        <time>2018-06-20T09:33:06Z</time>
      </trkpt>
      <trkpt lat="44.46478" lon="6.82129">
        <ele>1597.1</ele>
        <time>2018-06-20T09:33:08Z</time>
      </trkpt>
      <trkpt lat="44.4646" lon="6.82175">
        <ele>1599.16</ele>
        <time>2018-06-20T09:33:10Z</time>
      </trkpt>
      <trkpt lat="44.46427" lon="6.82239">
        <ele>1601.2</ele>
        <time>2018-06-20T09:33:13Z</time>
      </trkpt>
      <trkpt lat="44.46413" lon="6.82255">
        <ele>1601.22</ele>
        <time>2018-06-20T09:33:14Z</time>
      </trkpt>
      <trkpt lat="44.46396" lon="6.82267">
        <ele>1602.47</ele>
        <time>2018-06-20T09:33:15Z</time>
      </trkpt>
      <trkpt lat="44.46378" lon="6.82275">
        <ele>1603.75</ele>
        <time>2018-06-20T09:33:16Z</time>
      </trkpt>
      <trkpt lat="44.4636" lon="6.82283">
        <ele>1605.06</ele>
        <time>2018-06-20T09:33:17Z</time>
      </trkpt>
      <trkpt lat="44.46309" lon="6.82317">
        <ele>1607.04</ele>
        <time>2018-06-20T09:33:20Z</time>
      </trkpt>
      <trkpt lat="44.46259" lon="6.82355">
        <ele>1609.4</ele>
        <time>2018-06-20T09:33:23Z</time>
      </trkpt>
      <trkpt lat="44.46227" lon="6.82381">
        <ele>1611.16</ele>
        <time>2018-06-20T09:33:25Z</time>
      </trkpt>
      <trkpt lat="44.4616" lon="6.8243">
        <ele>1613.52</ele>
        <time>2018-06-20T09:33:29Z</time>
      </trkpt>
      <trkpt lat="44.46107" lon="6.82458">
        <ele>1613.91</ele>
        <time>2018-06-20T09:33:32Z</time>
      </trkpt>
      <trkpt lat="44.46074" lon="6.82483">
        <ele>1614.92</ele>
        <time>2018-06-20T09:33:34Z</time>
      </trkpt>
      <trkpt lat="44.46061" lon="6.82499">
        <ele>1614.99</ele>
        <time>2018-06-20T09:33:35Z</time>
      </trkpt>
      <trkpt lat="44.4605" lon="6.82519">
        <ele>1615.03</ele>
        <time>2018-06-20T09:33:36Z</time>
      </trkpt>
      <trkpt lat="44.46041" lon="6.8254">
        <ele>1615.47</ele>
        <time>2018-06-20T09:33:37Z</time>
      </trkpt>
      <trkpt lat="44.46033" lon="6.82564">
        <ele>1616.05</ele>
        <time>2018-06-20T09:33:38Z</time>
      </trkpt>
      <trkpt lat="44.46027" lon="6.82588">
        <ele>1615.74</ele>
        <time>2018-06-20T09:33:39Z</time>
      </trkpt>
      <trkpt lat="44.46017" lon="6.8264">
        <ele>1615.71</ele>
        <time>2018-06-20T09:33:41Z</time>
      </trkpt>
      <trkpt lat="44.46014" lon="6.82669">
        <ele>1616.77</ele>
        <time>2018-06-20T09:33:42Z</time>
      </trkpt>
      <trkpt lat="44.46009" lon="6.82725">
        <ele>1616.78</ele>
        <time>2018-06-20T09:33:44Z</time>
      </trkpt>
      <trkpt lat="44.46003" lon="6.82753">
        <ele>1616.78</ele>
        <time>2018-06-20T09:33:45Z</time>
      </trkpt>
      <trkpt lat="44.45993" lon="6.82778">
        <ele>1618.87</ele>
        <time>2018-06-20T09:33:46Z</time>
      </trkpt>
      <trkpt lat="44.45982" lon="6.82803">
        <ele>1620.31</ele>
        <time>2018-06-20T09:33:47Z</time>
      </trkpt>
      <trkpt lat="44.4597" lon="6.82827">
        <ele>1621.56</ele>
        <time>2018-06-20T09:33:48Z</time>
      </trkpt>
      <trkpt lat="44.45958" lon="6.8285">
        <ele>1621.59</ele>
        <time>2018-06-20T09:33:49Z</time>
      </trkpt>
      <trkpt lat="44.45911" lon="6.82943">
        <ele>1625.4</ele>
        <time>2018-06-20T09:33:53Z</time>
      </trkpt>
      <trkpt lat="44.45889" lon="6.82991">
        <ele>1626.67</ele>
        <time>2018-06-20T09:33:55Z</time>
      </trkpt>
      <trkpt lat="44.45861" lon="6.83061">
        <ele>1629.37</ele>
        <time>2018-06-20T09:33:58Z</time>
      </trkpt>
      <trkpt lat="44.45854" lon="6.83084">
        <ele>1630.19</ele>
        <time>2018-06-20T09:33:59Z</time>
      </trkpt>
      <trkpt lat="44.45848" lon="6.83107">
        <ele>1630.2</ele>
        <time>2018-06-20T09:34:00Z</time>
      </trkpt>
      <trkpt lat="44.45842" lon="6.83131">
        <ele>1631.6</ele>
        <time>2018-06-20T09:34:01Z</time>
      </trkpt>
      <trkpt lat="44.45834" lon="6.83153">
        <ele>1631.64</ele>
        <time>2018-06-20T09:34:02Z</time>
      </trkpt>
      <trkpt lat="44.45824" lon="6.83174">
        <ele>1632.62</ele>
        <time>2018-06-20T09:34:03Z</time>
      </trkpt>
      <trkpt lat="44.45812" lon="6.83194">
        <ele>1633.7</ele>
        <time>2018-06-20T09:34:04Z</time>
      </trkpt>
      <trkpt lat="44.458" lon="6.83211">
        <ele>1633.67</ele>
        <time>2018-06-20T09:34:05Z</time>
      </trkpt>
      <trkpt lat="44.45786" lon="6.83223">
        <ele>1635.02</ele>
        <time>2018-06-20T09:34:06Z</time>
      </trkpt>
      <trkpt lat="44.4577" lon="6.83229">
        <ele>1635.89</ele>
        <time>2018-06-20T09:34:07Z</time>
      </trkpt>
      <trkpt lat="44.45754" lon="6.83233">
        <ele>1637.86</ele>
        <time>2018-06-20T09:34:08Z</time>
      </trkpt>
      <trkpt lat="44.45703" lon="6.8325">
        <ele>1640.19</ele>
        <time>2018-06-20T09:34:11Z</time>
      </trkpt>
      <trkpt lat="44.45672" lon="6.83265">
        <ele>1641.69</ele>
        <time>2018-06-20T09:34:13Z</time>
      </trkpt>
      <trkpt lat="44.45659" lon="6.83275">
        <ele>1643.01</ele>
        <time>2018-06-20T09:34:14Z</time>
      </trkpt>
      <trkpt lat="44.45648" lon="6.83287">
        <ele>1642.25</ele>
        <time>2018-06-20T09:34:15Z</time>
      </trkpt>
      <trkpt lat="44.4564" lon="6.83303">
        <ele>1642.25</ele>
        <time>2018-06-20T09:34:16Z</time>
      </trkpt>
      <trkpt lat="44.45634" lon="6.8332">
        <ele>1642.25</ele>
        <time>2018-06-20T09:34:17Z</time>
      </trkpt>
      <trkpt lat="44.45627" lon="6.83339">
        <ele>1643.65</ele>
        <time>2018-06-20T09:34:18Z</time>
      </trkpt>
      <trkpt lat="44.45618" lon="6.83356">
        <ele>1644.49</ele>
        <time>2018-06-20T09:34:19Z</time>
      </trkpt>
      <trkpt lat="44.45606" lon="6.83371">
        <ele>1645.32</ele>
        <time>2018-06-20T09:34:20Z</time>
      </trkpt>
      <trkpt lat="44.45592" lon="6.83381">
        <ele>1646.32</ele>
        <time>2018-06-20T09:34:21Z</time>
      </trkpt>
      <trkpt lat="44.45575" lon="6.83388">
        <ele>1647.66</ele>
        <time>2018-06-20T09:34:22Z</time>
      </trkpt>
      <trkpt lat="44.45559" lon="6.83396">
        <ele>1648.52</ele>
        <time>2018-06-20T09:34:23Z</time>
      </trkpt>
      <trkpt lat="44.45542" lon="6.83406">
        <ele>1649.82</ele>
        <time>2018-06-20T09:34:24Z</time>
      </trkpt>
      <trkpt lat="44.45511" lon="6.83431">
        <ele>1651.64</ele>
        <time>2018-06-20T09:34:26Z</time>
      </trkpt>
      <trkpt lat="44.45497" lon="6.83446">
        <ele>1651.73</ele>
        <time>2018-06-20T09:34:27Z</time>
      </trkpt>
      <trkpt lat="44.4547" lon="6.83482">
        <ele>1653.35</ele>
        <time>2018-06-20T09:34:29Z</time>
      </trkpt>
      <trkpt lat="44.45449" lon="6.83522">
        <ele>1654.69</ele>
        <time>2018-06-20T09:34:31Z</time>
      </trkpt>
      <trkpt lat="44.45442" lon="6.83545">
        <ele>1655.46</ele>
        <time>2018-06-20T09:34:32Z</time>
      </trkpt>
      <trkpt lat="44.45438" lon="6.83569">
        <ele>1656.44</ele>
        <time>2018-06-20T09:34:33Z</time>
      </trkpt>
      <trkpt lat="44.45429" lon="6.83619">
        <ele>1657.4</ele>
        <time>2018-06-20T09:34:35Z</time>
      </trkpt>
      <trkpt lat="44.45421" lon="6.83642">
        <ele>1657.49</ele>
        <time>2018-06-20T09:34:36Z</time>
      </trkpt>
      <trkpt lat="44.45411" lon="6.83663">
        <ele>1657.45</ele>
        <time>2018-06-20T09:34:37Z</time>
      </trkpt>
      <trkpt lat="44.45399" lon="6.83683">
        <ele>1659.07</ele>
        <time>2018-06-20T09:34:38Z</time>
      </trkpt>
      <trkpt lat="44.45385" lon="6.83701">
        <ele>1660.14</ele>
        <time>2018-06-20T09:34:39Z</time>
      </trkpt>
      <trkpt lat="44.4537" lon="6.83715">
        <ele>1660.14</ele>
        <time>2018-06-20T09:34:40Z</time>
      </trkpt>
      <trkpt lat="44.45354" lon="6.83725">
        <ele>1660.13</ele>
        <time>2018-06-20T09:34:41Z</time>
      </trkpt>
      <trkpt lat="44.45336" lon="6.83732">
        <ele>1660.07</ele>
        <time>2018-06-20T09:34:42Z</time>
      </trkpt>
      <trkpt lat="44.4532" lon="6.83738">
        <ele>1660.15</ele>
        <time>2018-06-20T09:34:43Z</time>
      </trkpt>
      <trkpt lat="44.45305" lon="6.83748">
        <ele>1661.75</ele>
        <time>2018-06-20T09:34:44Z</time>
      </trkpt>
      <trkpt lat="44.45293" lon="6.83762">
        <ele>1661.77</ele>
        <time>2018-06-20T09:34:45Z</time>
      </trkpt>
      <trkpt lat="44.45283" lon="6.83781">
        <ele>1662.74</ele>
        <time>2018-06-20T09:34:46Z</time>
      </trkpt>
      <trkpt lat="44.45275" lon="6.83803">
        <ele>1662.64</ele>
        <time>2018-06-20T09:34:47Z</time>
      </trkpt>
      <trkpt lat="44.45268" lon="6.83825">
        <ele>1662.65</ele>
        <time>2018-06-20T09:34:48Z</time>
      </trkpt>
      <trkpt lat="44.45253" lon="6.83871">
        <ele>1664.26</ele>
        <time>2018-06-20T09:34:50Z</time>
      </trkpt>
      <trkpt lat="44.45247" lon="6.83894">
        <ele>1664.24</ele>
        <time>2018-06-20T09:34:51Z</time>
      </trkpt>
      <trkpt lat="44.45243" lon="6.83917">
        <ele>1665.24</ele>
        <time>2018-06-20T09:34:52Z</time>
      </trkpt>
      <trkpt lat="44.45241" lon="6.83941">
        <ele>1665.27</ele>
        <time>2018-06-20T09:34:53Z</time>
      </trkpt>
      <trkpt lat="44.45242" lon="6.83964">
        <ele>1665.25</ele>
        <time>2018-06-20T09:34:54Z</time>
      </trkpt>
      <trkpt lat="44.45243" lon="6.83986">
        <ele>1665.34</ele>
        <time>2018-06-20T09:34:55Z</time>
      </trkpt>
      <trkpt lat="44.45264" lon="6.8424">
        <ele>1667</ele>
        <time>2018-06-20T09:35:08Z</time>
      </trkpt>
      <trkpt lat="44.45271" lon="6.84331">
        <ele>1667</ele>
        <time>2018-06-20T09:35:13Z</time>
      </trkpt>
      <trkpt lat="44.4527" lon="6.84349">
        <ele>1667.01</ele>
        <time>2018-06-20T09:35:14Z</time>
      </trkpt>
      <trkpt lat="44.45269" lon="6.84367">
        <ele>1667.02</ele>
        <time>2018-06-20T09:35:15Z</time>
      </trkpt>
      <trkpt lat="44.45258" lon="6.84431">
        <ele>1667.02</ele>
        <time>2018-06-20T09:35:19Z</time>
      </trkpt>
      <trkpt lat="44.45254" lon="6.84445">
        <ele>1667.04</ele>
        <time>2018-06-20T09:35:20Z</time>
      </trkpt>
      <trkpt lat="44.45248" lon="6.84457">
        <ele>1667.03</ele>
        <time>2018-06-20T09:35:21Z</time>
      </trkpt>
      <trkpt lat="44.45241" lon="6.84467">
        <ele>1667.02</ele>
        <time>2018-06-20T09:35:22Z</time>
      </trkpt>
      <trkpt lat="44.45234" lon="6.84476">
        <ele>1667.03</ele>
        <time>2018-06-20T09:35:23Z</time>
      </trkpt>
      <trkpt lat="44.45226" lon="6.84485">
        <ele>1667.02</ele>
        <time>2018-06-20T09:35:24Z</time>
      </trkpt>
      <trkpt lat="44.45219" lon="6.84492">
        <ele>1667.03</ele>
        <time>2018-06-20T09:35:25Z</time>
      </trkpt>
      <trkpt lat="44.45161" lon="6.84542">
        <ele>1667.13</ele>
        <time>2018-06-20T09:35:33Z</time>
      </trkpt>
      <trkpt lat="44.45156" lon="6.84548">
        <ele>1667.15</ele>
        <time>2018-06-20T09:35:34Z</time>
      </trkpt>
      <trkpt lat="44.45111" lon="6.8462">
        <ele>1668.3</ele>
        <time>2018-06-20T09:35:46Z</time>
      </trkpt>
      <trkpt lat="44.45095" lon="6.84645">
        <ele>1669.57</ele>
        <time>2018-06-20T09:35:50Z</time>
      </trkpt>
      <trkpt lat="44.45088" lon="6.84658">
        <ele>1669.76</ele>
        <time>2018-06-20T09:35:56Z</time>
      </trkpt>
      <trkpt lat="44.45089" lon="6.84656">
        <ele>1669.73</ele>
        <time>2018-06-20T09:36:18Z</time>
      </trkpt>
      <trkpt lat="44.45087" lon="6.84658">
        <ele>1669.77</ele>
        <time>2018-06-20T09:36:20Z</time>
      </trkpt>
      <trkpt lat="44.45084" lon="6.8466">
        <ele>1669.78</ele>
        <time>2018-06-20T09:36:21Z</time>
      </trkpt>
      <trkpt lat="44.45082" lon="6.84662">
        <ele>1669.79</ele>
        <time>2018-06-20T09:36:22Z</time>
      </trkpt>
      <trkpt lat="44.45081" lon="6.84665">
        <ele>1669.8</ele>
        <time>2018-06-20T09:36:23Z</time>
      </trkpt>
      <trkpt lat="44.45081" lon="6.84669">
        <ele>1669.83</ele>
        <time>2018-06-20T09:36:26Z</time>
      </trkpt>
      <trkpt lat="44.45083" lon="6.8467">
        <ele>1669.84</ele>
        <time>2018-06-20T09:36:27Z</time>
      </trkpt>
      <trkpt lat="44.45086" lon="6.84669">
        <ele>1669.84</ele>
        <time>2018-06-20T09:36:28Z</time>
      </trkpt>
      <trkpt lat="44.45088" lon="6.84666">
        <ele>1669.86</ele>
        <time>2018-06-20T09:36:29Z</time>
      </trkpt>
      <trkpt lat="44.45091" lon="6.84661">
        <ele>1669.87</ele>
        <time>2018-06-20T09:36:30Z</time>
      </trkpt>
      <trkpt lat="44.45094" lon="6.84658">
        <ele>1669.88</ele>
        <time>2018-06-20T09:36:31Z</time>
      </trkpt>
      <trkpt lat="44.45098" lon="6.84656">
        <ele>1669.88</ele>
        <time>2018-06-20T09:36:32Z</time>
      </trkpt>
      <trkpt lat="44.451" lon="6.84654">
        <ele>1669.88</ele>
        <time>2018-06-20T09:36:33Z</time>
      </trkpt>
      <trkpt lat="44.45101" lon="6.84651">
        <ele>1669.86</ele>
        <time>2018-06-20T09:36:34Z</time>
      </trkpt>
      <trkpt lat="44.45101" lon="6.84649">
        <ele>1669.94</ele>
        <time>2018-06-20T09:36:45Z</time>
      </trkpt>
      <trkpt lat="44.45103" lon="6.84649">
        <ele>1670.44</ele>
        <time>2018-06-20T09:38:08Z</time>
      </trkpt>
      <trkpt lat="44.45103" lon="6.84645">
        <ele>1670.7</ele>
        <time>2018-06-20T09:39:02Z</time>
      </trkpt>
      <trkpt lat="44.45103" lon="6.84648">
        <ele>1670.95</ele>
        <time>2018-06-20T09:40:11Z</time>
      </trkpt>
      <trkpt lat="44.451" lon="6.84648">
        <ele>1671.08</ele>
        <time>2018-06-20T09:41:15Z</time>
      </trkpt>
      <trkpt lat="44.45098" lon="6.84647">
        <ele>1671.07</ele>
        <time>2018-06-20T09:41:16Z</time>
      </trkpt>
      <trkpt lat="44.45095" lon="6.84647">
        <ele>1671.07</ele>
        <time>2018-06-20T09:41:17Z</time>
      </trkpt>
      <trkpt lat="44.45091" lon="6.84652">
        <ele>1671.06</ele>
        <time>2018-06-20T09:41:18Z</time>
      </trkpt>
      <trkpt lat="44.45086" lon="6.8466">
        <ele>1671.08</ele>
        <time>2018-06-20T09:41:19Z</time>
      </trkpt>
      <trkpt lat="44.45081" lon="6.84671">
        <ele>1672.6</ele>
        <time>2018-06-20T09:41:20Z</time>
      </trkpt>
      <trkpt lat="44.45074" lon="6.84684">
        <ele>1672.6</ele>
        <time>2018-06-20T09:41:21Z</time>
      </trkpt>
      <trkpt lat="44.45056" lon="6.84731">
        <ele>1674.97</ele>
        <time>2018-06-20T09:41:24Z</time>
      </trkpt>
      <trkpt lat="44.45052" lon="6.8475">
        <ele>1676.55</ele>
        <time>2018-06-20T09:41:25Z</time>
      </trkpt>
      <trkpt lat="44.4505" lon="6.8477">
        <ele>1676.57</ele>
        <time>2018-06-20T09:41:26Z</time>
      </trkpt>
      <trkpt lat="44.45043" lon="6.84852">
        <ele>1679.6</ele>
        <time>2018-06-20T09:41:30Z</time>
      </trkpt>
      <trkpt lat="44.45029" lon="6.84914">
        <ele>1682.58</ele>
        <time>2018-06-20T09:41:33Z</time>
      </trkpt>
      <trkpt lat="44.45018" lon="6.84956">
        <ele>1685.73</ele>
        <time>2018-06-20T09:41:35Z</time>
      </trkpt>
      <trkpt lat="44.45009" lon="6.84996">
        <ele>1686.91</ele>
        <time>2018-06-20T09:41:37Z</time>
      </trkpt>
      <trkpt lat="44.44993" lon="6.85055">
        <ele>1690.25</ele>
        <time>2018-06-20T09:41:40Z</time>
      </trkpt>
      <trkpt lat="44.44986" lon="6.85095">
        <ele>1691.93</ele>
        <time>2018-06-20T09:41:42Z</time>
      </trkpt>
      <trkpt lat="44.44984" lon="6.85115">
        <ele>1691.83</ele>
        <time>2018-06-20T09:41:43Z</time>
      </trkpt>
      <trkpt lat="44.44981" lon="6.85176">
        <ele>1694.37</ele>
        <time>2018-06-20T09:41:46Z</time>
      </trkpt>
      <trkpt lat="44.44983" lon="6.85194">
        <ele>1694.34</ele>
        <time>2018-06-20T09:41:47Z</time>
      </trkpt>
      <trkpt lat="44.44984" lon="6.85228">
        <ele>1695.53</ele>
        <time>2018-06-20T09:41:49Z</time>
      </trkpt>
      <trkpt lat="44.44982" lon="6.85243">
        <ele>1696.92</ele>
        <time>2018-06-20T09:41:50Z</time>
      </trkpt>
      <trkpt lat="44.44976" lon="6.85255">
        <ele>1696.89</ele>
        <time>2018-06-20T09:41:51Z</time>
      </trkpt>
      <trkpt lat="44.44968" lon="6.85265">
        <ele>1698.56</ele>
        <time>2018-06-20T09:41:52Z</time>
      </trkpt>
      <trkpt lat="44.44957" lon="6.8527">
        <ele>1700.15</ele>
        <time>2018-06-20T09:41:53Z</time>
      </trkpt>
      <trkpt lat="44.44946" lon="6.85277">
        <ele>1701.13</ele>
        <time>2018-06-20T09:41:54Z</time>
      </trkpt>
      <trkpt lat="44.44936" lon="6.85287">
        <ele>1701.07</ele>
        <time>2018-06-20T09:41:55Z</time>
      </trkpt>
      <trkpt lat="44.44927" lon="6.853">
        <ele>1702.83</ele>
        <time>2018-06-20T09:41:56Z</time>
      </trkpt>
      <trkpt lat="44.4492" lon="6.85316">
        <ele>1702.85</ele>
        <time>2018-06-20T09:41:57Z</time>
      </trkpt>
      <trkpt lat="44.44911" lon="6.8533">
        <ele>1704.24</ele>
        <time>2018-06-20T09:41:58Z</time>
      </trkpt>
      <trkpt lat="44.449" lon="6.85341">
        <ele>1704.16</ele>
        <time>2018-06-20T09:41:59Z</time>
      </trkpt>
      <trkpt lat="44.44886" lon="6.85347">
        <ele>1705.97</ele>
        <time>2018-06-20T09:42:00Z</time>
      </trkpt>
      <trkpt lat="44.44871" lon="6.85352">
        <ele>1707.11</ele>
        <time>2018-06-20T09:42:01Z</time>
      </trkpt>
      <trkpt lat="44.44855" lon="6.85358">
        <ele>1708.04</ele>
        <time>2018-06-20T09:42:02Z</time>
      </trkpt>
      <trkpt lat="44.4484" lon="6.85368">
        <ele>1709.74</ele>
        <time>2018-06-20T09:42:03Z</time>
      </trkpt>
      <trkpt lat="44.44825" lon="6.8538">
        <ele>1710.5</ele>
        <time>2018-06-20T09:42:04Z</time>
      </trkpt>
      <trkpt lat="44.44811" lon="6.85393">
        <ele>1710.57</ele>
        <time>2018-06-20T09:42:05Z</time>
      </trkpt>
      <trkpt lat="44.44798" lon="6.85408">
        <ele>1712.59</ele>
        <time>2018-06-20T09:42:06Z</time>
      </trkpt>
      <trkpt lat="44.44785" lon="6.85424">
        <ele>1713.54</ele>
        <time>2018-06-20T09:42:07Z</time>
      </trkpt>
      <trkpt lat="44.44773" lon="6.85441">
        <ele>1714.35</ele>
        <time>2018-06-20T09:42:08Z</time>
      </trkpt>
      <trkpt lat="44.44761" lon="6.85459">
        <ele>1715.52</ele>
        <time>2018-06-20T09:42:09Z</time>
      </trkpt>
      <trkpt lat="44.4475" lon="6.85478">
        <ele>1715.41</ele>
        <time>2018-06-20T09:42:10Z</time>
      </trkpt>
      <trkpt lat="44.44732" lon="6.85518">
        <ele>1716.9</ele>
        <time>2018-06-20T09:42:12Z</time>
      </trkpt>
      <trkpt lat="44.44706" lon="6.85583">
        <ele>1719.56</ele>
        <time>2018-06-20T09:42:15Z</time>
      </trkpt>
      <trkpt lat="44.44679" lon="6.85645">
        <ele>1721.99</ele>
        <time>2018-06-20T09:42:18Z</time>
      </trkpt>
      <trkpt lat="44.44667" lon="6.85662">
        <ele>1723.17</ele>
        <time>2018-06-20T09:42:19Z</time>
      </trkpt>
      <trkpt lat="44.44654" lon="6.85677">
        <ele>1724.99</ele>
        <time>2018-06-20T09:42:20Z</time>
      </trkpt>
      <trkpt lat="44.44611" lon="6.85717">
        <ele>1728.83</ele>
        <time>2018-06-20T09:42:23Z</time>
      </trkpt>
      <trkpt lat="44.44599" lon="6.85735">
        <ele>1729.79</ele>
        <time>2018-06-20T09:42:24Z</time>
      </trkpt>
      <trkpt lat="44.44588" lon="6.85755">
        <ele>1730.87</ele>
        <time>2018-06-20T09:42:25Z</time>
      </trkpt>
      <trkpt lat="44.44579" lon="6.85776">
        <ele>1732.07</ele>
        <time>2018-06-20T09:42:26Z</time>
      </trkpt>
      <trkpt lat="44.44572" lon="6.85798">
        <ele>1732.06</ele>
        <time>2018-06-20T09:42:27Z</time>
      </trkpt>
      <trkpt lat="44.44566" lon="6.8582">
        <ele>1733.03</ele>
        <time>2018-06-20T09:42:28Z</time>
      </trkpt>
      <trkpt lat="44.44562" lon="6.85842">
        <ele>1733.01</ele>
        <time>2018-06-20T09:42:29Z</time>
      </trkpt>
      <trkpt lat="44.44555" lon="6.85863">
        <ele>1733.1</ele>
        <time>2018-06-20T09:42:30Z</time>
      </trkpt>
      <trkpt lat="44.44544" lon="6.85879">
        <ele>1735.11</ele>
        <time>2018-06-20T09:42:31Z</time>
      </trkpt>
      <trkpt lat="44.44531" lon="6.85892">
        <ele>1735.88</ele>
        <time>2018-06-20T09:42:32Z</time>
      </trkpt>
      <trkpt lat="44.44515" lon="6.85899">
        <ele>1735.94</ele>
        <time>2018-06-20T09:42:33Z</time>
      </trkpt>
      <trkpt lat="44.44499" lon="6.85906">
        <ele>1737.65</ele>
        <time>2018-06-20T09:42:34Z</time>
      </trkpt>
      <trkpt lat="44.44468" lon="6.8592">
        <ele>1739.67</ele>
        <time>2018-06-20T09:42:36Z</time>
      </trkpt>
      <trkpt lat="44.44455" lon="6.85931">
        <ele>1740.9</ele>
        <time>2018-06-20T09:42:37Z</time>
      </trkpt>
      <trkpt lat="44.44444" lon="6.85945">
        <ele>1741.02</ele>
        <time>2018-06-20T09:42:38Z</time>
      </trkpt>
      <trkpt lat="44.44435" lon="6.85961">
        <ele>1742.25</ele>
        <time>2018-06-20T09:42:39Z</time>
      </trkpt>
      <trkpt lat="44.44426" lon="6.85979">
        <ele>1743.7</ele>
        <time>2018-06-20T09:42:40Z</time>
      </trkpt>
      <trkpt lat="44.44393" lon="6.86034">
        <ele>1746.99</ele>
        <time>2018-06-20T09:42:43Z</time>
      </trkpt>
      <trkpt lat="44.44353" lon="6.86084">
        <ele>1750.34</ele>
        <time>2018-06-20T09:42:46Z</time>
      </trkpt>
      <trkpt lat="44.44306" lon="6.86128">
        <ele>1754.2</ele>
        <time>2018-06-20T09:42:49Z</time>
      </trkpt>
      <trkpt lat="44.44271" lon="6.86154">
        <ele>1755.55</ele>
        <time>2018-06-20T09:42:51Z</time>
      </trkpt>
      <trkpt lat="44.44223" lon="6.86199">
        <ele>1758.57</ele>
        <time>2018-06-20T09:42:54Z</time>
      </trkpt>
      <trkpt lat="44.4421" lon="6.86216">
        <ele>1759.81</ele>
        <time>2018-06-20T09:42:55Z</time>
      </trkpt>
      <trkpt lat="44.44198" lon="6.86234">
        <ele>1761.15</ele>
        <time>2018-06-20T09:42:56Z</time>
      </trkpt>
      <trkpt lat="44.44187" lon="6.86251">
        <ele>1761.2</ele>
        <time>2018-06-20T09:42:57Z</time>
      </trkpt>
      <trkpt lat="44.44161" lon="6.86292">
        <ele>1762</ele>
        <time>2018-06-20T09:43:00Z</time>
      </trkpt>
      <trkpt lat="44.44152" lon="6.863">
        <ele>1761.99</ele>
        <time>2018-06-20T09:43:01Z</time>
      </trkpt>
      <trkpt lat="44.4413" lon="6.86317">
        <ele>1762.12</ele>
        <time>2018-06-20T09:43:04Z</time>
      </trkpt>
      <trkpt lat="44.44125" lon="6.86323">
        <ele>1762.17</ele>
        <time>2018-06-20T09:43:05Z</time>
      </trkpt>
      <trkpt lat="44.4412" lon="6.86329">
        <ele>1762.13</ele>
        <time>2018-06-20T09:43:06Z</time>
      </trkpt>
      <trkpt lat="44.44108" lon="6.86346">
        <ele>1759.92</ele>
        <time>2018-06-20T09:43:10Z</time>
      </trkpt>
      <trkpt lat="44.44084" lon="6.86383">
        <ele>1759.09</ele>
        <time>2018-06-20T09:43:20Z</time>
      </trkpt>
      <trkpt lat="44.44046" lon="6.86422">
        <ele>1759.29</ele>
        <time>2018-06-20T09:43:29Z</time>
      </trkpt>
      <trkpt lat="44.44029" lon="6.86437">
        <ele>1762.06</ele>
        <time>2018-06-20T09:43:34Z</time>
      </trkpt>
      <trkpt lat="44.44027" lon="6.86441">
        <ele>1762.07</ele>
        <time>2018-06-20T09:43:35Z</time>
      </trkpt>
      <trkpt lat="44.44031" lon="6.8645">
        <ele>1762.15</ele>
        <time>2018-06-20T09:43:38Z</time>
      </trkpt>
      <trkpt lat="44.44033" lon="6.8645">
        <ele>1762.16</ele>
        <time>2018-06-20T09:43:39Z</time>
      </trkpt>
      <trkpt lat="44.44034" lon="6.86448">
        <ele>1762.18</ele>
        <time>2018-06-20T09:43:40Z</time>
      </trkpt>
      <trkpt lat="44.44034" lon="6.86446">
        <ele>1762.17</ele>
        <time>2018-06-20T09:43:41Z</time>
      </trkpt>
      <trkpt lat="44.44036" lon="6.86442">
        <ele>1762.25</ele>
        <time>2018-06-20T09:43:58Z</time>
      </trkpt>
      <trkpt lat="44.44036" lon="6.86441">
        <ele>1762.63</ele>
        <time>2018-06-20T09:44:37Z</time>
      </trkpt>
      <trkpt lat="44.44037" lon="6.86441">
        <ele>1763.5</ele>
        <time>2018-06-20T09:46:21Z</time>
      </trkpt>
      <trkpt lat="44.44037" lon="6.86442">
        <ele>1764.27</ele>
        <time>2018-06-20T09:48:03Z</time>
      </trkpt>
      <trkpt lat="44.44036" lon="6.86442">
        <ele>1764.94</ele>
        <time>2018-06-20T09:49:41Z</time>
      </trkpt>
      <trkpt lat="44.44037" lon="6.86442">
        <ele>1765.65</ele>
        <time>2018-06-20T09:51:30Z</time>
      </trkpt>
      <trkpt lat="44.44036" lon="6.86442">
        <ele>1766.48</ele>
        <time>2018-06-20T09:53:26Z</time>
      </trkpt>
      <trkpt lat="44.44036" lon="6.86442">
        <ele>1767.23</ele>
        <time>2018-06-20T09:55:16Z</time>
      </trkpt>
      <trkpt lat="44.44036" lon="6.86442">
        <ele>1767.87</ele>
        <time>2018-06-20T09:57:07Z</time>
      </trkpt>
      <trkpt lat="44.44037" lon="6.86442">
        <ele>1768.28</ele>
        <time>2018-06-20T09:58:45Z</time>
      </trkpt>
      <trkpt lat="44.44039" lon="6.86442">
        <ele>1768.63</ele>
        <time>2018-06-20T10:00:28Z</time>
      </trkpt>
      <trkpt lat="44.44039" lon="6.86441">
        <ele>1768.8</ele>
        <time>2018-06-20T10:02:02Z</time>
      </trkpt>
      <trkpt lat="44.44039" lon="6.86441">
        <ele>1768.87</ele>
        <time>2018-06-20T10:03:37Z</time>
      </trkpt>
      <trkpt lat="44.44039" lon="6.86441">
        <ele>1768.88</ele>
        <time>2018-06-20T10:05:04Z</time>
      </trkpt>
      <trkpt lat="44.44037" lon="6.86441">
        <ele>1768.89</ele>
        <time>2018-06-20T10:06:26Z</time>
      </trkpt>
      <trkpt lat="44.44037" lon="6.86441">
        <ele>1768.95</ele>
        <time>2018-06-20T10:07:26Z</time>
      </trkpt>
      <trkpt lat="44.44034" lon="6.86442">
        <ele>1769.1</ele>
        <time>2018-06-20T10:08:44Z</time>
      </trkpt>
      <trkpt lat="44.44035" lon="6.86443">
        <ele>1769.29</ele>
        <time>2018-06-20T10:10:08Z</time>
      </trkpt>
      <trkpt lat="44.44035" lon="6.86442">
        <ele>1769.43</ele>
        <time>2018-06-20T10:11:19Z</time>
      </trkpt>
      <trkpt lat="44.44034" lon="6.86442">
        <ele>1770.31</ele>
        <time>2018-06-20T10:12:23Z</time>
      </trkpt>
      <trkpt lat="44.44034" lon="6.86443">
        <ele>1770.35</ele>
        <time>2018-06-20T10:13:06Z</time>
      </trkpt>
      <trkpt lat="44.44033" lon="6.86436">
        <ele>1770.37</ele>
        <time>2018-06-20T10:13:21Z</time>
      </trkpt>
    </trkseg>
  </trk>
</gpx>